/BCO-DMO/CICLOPS/ctd ---- Level 0

      Directory  DocumentationDownload and Other Operations...

 - At level 0 -  - At last level -       Flat list

#  CTD Hydrography
#  PI: Giacomo DiTullio
#  Data Version 1: 2020-01-03
=========================
Station  Date          Julian_Day  ISO_DateTime_UTC        Pressure  Depth       Temperature  Temperature_2  Conductivity  Conductivity_2  Oxygen     Oxygen_2  Fluorescence  Beam_Transmission  PAR_Irradiance  Latitude     Longitude     Altimeter  SPAR_Surface_Irradiance  Time_Elapsed  Scan_Count  Salinity  Salinity_2  Oxygen_Saturation  Scans_bin  Flag  
-------------------------
1        2017-12-26    360.802933  2017-12-26T19:16:13Z    1         0.987       1.2502       1.2487         29.192127     29.194109       7.5796     7.4036    0.3146        95.7022            594             -64.72202    -87.27946     -44.79     993                      538.427       12923       33.8102   33.8144     7.82047            22         0.00  
1        2017-12-26    360.802971  2017-12-26T19:16:17Z    2         1.979       1.2482       1.2459         29.190944     29.191923       7.5893     7.407     0.2999        95.6897            514             -64.72202    -87.27946     102.79     994                      541.73        13003       33.8102   33.814      7.82086            45         0.00  
1        2017-12-26    360.803     2017-12-26T19:16:19Z    3         2.973       1.2462       1.2459         29.189832     29.192743       7.5949     7.4121    0.264         95.6871            458             -64.72202    -87.27946     99.85      995                      544.223       13062       33.8104   33.8145     7.82125            52         0.00  
1        2017-12-26    360.803038  2017-12-26T19:16:22Z    4         3.957       1.2537       1.252          29.19677      29.198571       7.5889     7.4127    0.2746        95.7073            399             -64.72202    -87.27946     99.87      994                      547.462       13140       33.8106   33.8148     7.81974            41         0.00  
1        2017-12-26    360.803062  2017-12-26T19:16:25Z    5         4.954       1.2594       1.2559         29.201952     29.201881       7.5944     7.4126    0.2607        95.7207            370             -64.72202    -87.27946     99.87      995                      549.522       13190       33.8104   33.8142     7.81861            44         0.00  
1        2017-12-26    360.803104  2017-12-26T19:16:28Z    6         5.939       1.2572       1.252          29.200507     29.199067       7.598      7.4124    0.2491        95.7309            330             -64.72202    -87.27946     99.87      994                      553.166       13277       33.8104   33.8142     7.81905            38         0.00  
1        2017-12-26    360.803136  2017-12-26T19:16:31Z    7         6.935       1.2536       1.2537         29.197811     29.200977       7.5949     7.4138    0.2581        95.747             311             -64.72202    -87.27946     99.87      996                      555.969       13344       33.8102   33.8143     7.81977            39         0.00  
1        2017-12-26    360.803183  2017-12-26T19:16:35Z    8         7.919       1.238        1.2361         29.184805     29.186461       7.5882     7.4125    0.2743        95.7009            283             -64.72202    -87.27946     99.87      993                      560.047       13442       33.81     33.8141     7.82292            50         0.00  
1        2017-12-26    360.803209  2017-12-26T19:16:37Z    9         8.913       1.2345       1.2329         29.182435     29.184318       7.5945     7.4131    0.3337        95.7367            266             -64.72202    -87.27946     99.87      995                      562.261       13495       33.8101   33.8143     7.82361            50         0.00  
1        2017-12-26    360.803254  2017-12-26T19:16:41Z    10        9.901       1.2326       1.2315         29.181281     29.183367       7.5901     7.4128    0.3886        95.6789            242             -64.72202    -87.27946     99.87      994                      566.187       13589       33.8101   33.8139     7.82398            38         0.00  
1        2017-12-26    360.803294  2017-12-26T19:16:45Z    11        10.891      1.232        1.2304         29.181355     29.183145       7.5902     7.41      0.4331        95.6697            226             -64.72202    -87.27946     99.87      996                      569.636       13672       33.8103   33.8143     7.8241             45         0.00  
1        2017-12-26    360.803318  2017-12-26T19:16:47Z    12        11.886      1.2326       1.231          29.182592     29.184248       7.5892     7.4152    0.479         95.6888            211             -64.72202    -87.27946     99.87      997                      571.678       13721       33.8106   33.8144     7.82395            42         0.00  
1        2017-12-26    360.803366  2017-12-26T19:16:51Z    13        12.872      1.2322       1.2311         29.182736     29.18475        7.5968     7.4161    0.4978        95.6408            201             -64.72202    -87.27946     99.87      996                      575.819       13821       33.8107   33.8144     7.82403            51         0.00  
1        2017-12-26    360.8034    2017-12-26T19:16:54Z    14        13.863      1.2334       1.2318         29.184258     29.185926       7.5842     7.4137    0.5098        95.7082            181             -64.72202    -87.27946     99.87      997                      578.739       13891       33.8108   33.8147     7.82379            63         0.00  
1        2017-12-26    360.803445  2017-12-26T19:16:58Z    15        14.85       1.234        1.2324         29.185316     29.186914       7.5915     7.4091    0.5527        95.6845            173             -64.72202    -87.27946     99.87      996                      582.636       13984       33.8109   33.8147     7.82367            42         0.00  
1        2017-12-26    360.803474  2017-12-26T19:17:00Z    16        15.845      1.2352       1.2335         29.186922     29.188562       7.5774     7.4122    0.5927        95.6609            160             -64.72202    -87.27945     99.87      998                      585.165       14045       33.8111   33.8149     7.82342            55         0.00  
1        2017-12-26    360.803516  2017-12-26T19:17:04Z    17        16.831      1.2359       1.2344         29.188085     29.189653       7.5819     7.4125    0.6443        95.6004            151             -64.72202    -87.27946     99.87      995                      588.749       14131       33.8112   33.8148     7.82327            36         0.00  
1        2017-12-26    360.803549  2017-12-26T19:17:07Z    18        17.824      1.2351       1.2339         29.187724     29.189773       7.5916     7.4127    0.6472        95.6561            141             -64.72202    -87.27946     99.87      996                      591.632       14200       33.811    33.8149     7.82343            58         0.00  
1        2017-12-26    360.803591  2017-12-26T19:17:10Z    19        18.813      1.2348       1.2337         29.188109     29.189942       7.5878     7.4144    0.673         95.6616            132             -64.72202    -87.27945     99.87      996                      595.267       14287       33.8112   33.8148     7.82348            20         0.00  
1        2017-12-26    360.803633  2017-12-26T19:17:14Z    20        19.801      1.235        1.2335         29.188572     29.190309       7.5691     7.4135    0.7351        95.6723            126             -64.72202    -87.27944     99.87      997                      598.877       14374       33.8111   33.8149     7.82346            57         0.00  
1        2017-12-26    360.803656  2017-12-26T19:17:16Z    21        20.795      1.2334       1.232          29.187745     29.189537       7.5805     7.4133    0.7403        95.6293            119             -64.72202    -87.27944     99.87      996                      600.862       14422       33.8111   33.8149     7.82377            47         0.00  
1        2017-12-26    360.8037    2017-12-26T19:17:20Z    22        21.782      1.233        1.2315         29.187936     29.189567       7.5882     7.409     0.7586        95.6668            110             -64.72202    -87.27944     99.87      996                      604.661       14513       33.8113   33.8149     7.82385            56         0.00  
1        2017-12-26    360.803754  2017-12-26T19:17:24Z    23        22.768      1.2318       1.2306         29.187463     29.189203       7.5856     7.406     0.8337        95.6616            107             -64.72202    -87.27944     99.87      997                      609.335       14625       33.8114   33.8149     7.82408            30         0.00  
1        2017-12-26    360.803767  2017-12-26T19:17:25Z    24        23.771      1.231        1.2299         29.187293     29.189079       7.5803     7.4136    0.8257        95.6934            98.6            -64.72202    -87.27944     99.87      997                      610.504       14653       33.8114   33.8149     7.82423            37         0.00  
1        2017-12-26    360.803834  2017-12-26T19:17:31Z    25        24.751      1.2318       1.23           29.188233     29.189593       7.5833     7.409     0.8036        95.6659            94.4            -64.72202    -87.27943     99.87      999                      616.28        14792       33.8111   33.8148     7.82408            49         0.00  
1        2017-12-26    360.803856  2017-12-26T19:17:33Z    26        25.747      1.2313       1.23           29.188332     29.190116       7.5881     7.411     0.8481        95.5834            88.3            -64.72202    -87.27944     99.87      997                      618.192       14838       33.8113   33.8149     7.82418            46         0.00  
1        2017-12-26    360.803911  2017-12-26T19:17:38Z    27        26.733      1.2313       1.2302         29.18884      29.190637       7.5836     7.4085    0.9012        95.6081            82.5            -64.72202    -87.27944     99.87      997                      622.902       14951       33.8113   33.8148     7.82418            40         0.00  
1        2017-12-26    360.803956  2017-12-26T19:17:42Z    28        27.726      1.232        1.2306         29.190062     29.191671       7.5813     7.4027    0.9571        95.6684            78.2            -64.72202    -87.27944     99.87      998                      626.78        15044       33.8115   33.8151     7.82402            55         0.00  
1        2017-12-26    360.803997  2017-12-26T19:17:45Z    29        28.715      1.2314       1.2302         29.189889     29.191709       7.5752     7.4046    1.0072        95.7267            74.7            -64.72202    -87.27942     99.87      1.00E+3                  630.38        15130       33.8114   33.815      7.82416            41         0.00  
1        2017-12-26    360.804025  2017-12-26T19:17:48Z    30        29.707      1.2304       1.2291         29.189657     29.19135        7.5809     7.4097    1.0431        95.7156            70.4            -64.72202    -87.27943     99.87      999                      632.765       15187       33.8116   33.8152     7.82435            39         0.00  
1        2017-12-26    360.804087  2017-12-26T19:17:53Z    31        30.694      1.2313       1.2297         29.190931     29.192334       7.5794     7.4089    1.0702        95.642             67.2            -64.72202    -87.27942     99.87      1.00E+3                  638.134       15316       33.8117   33.8152     7.82416            62         0.00  
1        2017-12-26    360.804134  2017-12-26T19:17:57Z    32        31.683      1.2315       1.2302         29.191601     29.193069       7.5774     7.4065    1.0172        95.6815            63.8            -64.72202    -87.27942     99.87      1.00E+3                  642.163       15413       33.8117   33.8151     7.82412            38         0.00  
1        2017-12-26    360.804164  2017-12-26T19:18:00Z    33        32.674      1.2312       1.2307         29.191826     29.194232       7.578      7.412     1.0985        95.7464            61.1            -64.72202    -87.27942     99.87      1.00E+3                  644.777       15476       33.8118   33.8154     7.82418            50         0.00  
1        2017-12-26    360.804205  2017-12-26T19:18:03Z    34        33.666      1.2303       1.2293         29.191427     29.193255       7.5836     7.4075    1.0788        95.6607            57.9            -64.72202    -87.27942     99.87      1.00E+3                  648.354       15562       33.8117   33.8151     7.82436            36         0.00  
1        2017-12-26    360.804259  2017-12-26T19:18:08Z    35        34.655      1.2305       1.2294         29.192042     29.193754       7.5886     7.4084    1.1013        95.7173            54.6            -64.72202    -87.27942     99.87      1.00E+3                  652.958       15672       33.8116   33.8151     7.82432            66         0.00  
1        2017-12-26    360.804303  2017-12-26T19:18:12Z    36        35.643      1.2303       1.2293         29.192301     29.194062       7.5816     7.4021    1.1186        95.5946            52.5            -64.72202    -87.27942     99.87      1.00E+3                  656.777       15764       33.8116   33.815      7.82436            31         0.00  
1        2017-12-26    360.804337  2017-12-26T19:18:15Z    37        36.632      1.2295       1.2286         29.192023     29.194063       7.5749     7.4053    1.1869        95.7351            50.7            -64.72203    -87.27942     99.87      1.00E+3                  659.715       15834       33.8115   33.8151     7.82452            49         0.00  
1        2017-12-26    360.804357  2017-12-26T19:18:16Z    38        37.625      1.2293       1.228          29.192327     29.194077       7.5814     7.4096    1.16          95.7823            47.6            -64.72203    -87.27942     99.87      1.00E+3                  661.466       15876       33.8116   33.8152     7.82457            40         0.00  
1        2017-12-26    360.804387  2017-12-26T19:18:19Z    39        38.618      1.2296       1.2305         29.193053     29.196744       7.5817     7.4091    1.1722        95.7117            44.8            -64.72202    -87.27942     99.87      1.00E+3                  664.054       15938       33.8115   33.8153     7.8245             41         0.00  
1        2017-12-26    360.804436  2017-12-26T19:18:23Z    40        39.602      1.2316       1.2307         29.195401     29.197409       7.5791     7.4067    1.193         95.744             43.2            -64.72202    -87.27942     99.87      1.00E+3                  668.291       16040       33.8119   33.8154     7.8241             46         0.00  
1        2017-12-26    360.804457  2017-12-26T19:18:25Z    41        40.597      1.2314       1.2303         29.195679     29.197528       7.5786     7.4034    1.22          95.7445            40.7            -64.72202    -87.27942     99.87      1.00E+3                  670.075       16083       33.8119   33.8154     7.82414            50         0.00  
1        2017-12-26    360.804485  2017-12-26T19:18:28Z    42        41.584      1.2299       1.2287         29.194838     29.196581       7.5812     7.4029    1.2076        95.574             38.7            -64.72202    -87.27942     99.87      1.00E+3                  672.538       16142       33.8118   33.8154     7.82444            61         0.00  
1        2017-12-26    360.804511  2017-12-26T19:18:30Z    43        42.575      1.2302       1.2289         29.195597     29.197295       7.5788     7.4071    1.194         95.7881            37.4            -64.72204    -87.27941     99.87      1.00E+3                  674.732       16195       33.8119   33.8154     7.82438            50         0.00  
1        2017-12-26    360.804543  2017-12-26T19:18:33Z    44        43.565      1.2322       1.2308         29.197747     29.199375       7.575      7.4038    1.2376        95.8019            35.5            -64.72203    -87.2794      99.87      1.00E+3                  677.541       16262       33.8119   33.8154     7.82397            42         0.00  
1        2017-12-26    360.804577  2017-12-26T19:18:35Z    45        44.554      1.2337       1.2328         29.199794     29.201822       7.5768     7.4078    1.2584        95.7336            33.3            -64.72202    -87.2794      99.87      1.00E+3                  680.414       16331       33.8122   33.8158     7.82364            49         0.00  
1        2017-12-26    360.804626  2017-12-26T19:18:40Z    46        45.542      1.2342       1.2326         29.200758     29.202047       7.5775     7.4011    1.2832        95.7375            31.9            -64.72202    -87.2794      99.87      1.00E+3                  684.718       16434       33.8124   33.8158     7.82354            46         0.00  
1        2017-12-26    360.804654  2017-12-26T19:18:42Z    47        46.533      1.2339       1.233          29.200897     29.202921       7.5824     7.3982    1.3029        95.7387            30.9            -64.72202    -87.2794      99.87      1.01E+3                  687.086       16491       33.8123   33.8158     7.82361            29         0.00  
1        2017-12-26    360.804669  2017-12-26T19:18:43Z    48        47.531      1.2332       1.2324         29.200824     29.202922       7.5713     7.4043    1.3071        95.7291            29.2            -64.72204    -87.2794      99.87      1.01E+3                  688.385       16522       33.8123   33.8159     7.82373            37         0.00  
1        2017-12-26    360.804703  2017-12-26T19:18:46Z    49        48.516      1.2332       1.2326         29.201175     29.203423       7.5736     7.4032    1.3194        95.7588            27.6            -64.72204    -87.2794      99.87      1.01E+3                  691.365       16594       33.8122   33.8158     7.82374            43         0.00  
1        2017-12-26    360.804745  2017-12-26T19:18:50Z    50        49.506      1.2345       1.2327         29.202716     29.203887       7.575      7.3993    1.2835        95.7505            26.2            -64.72204    -87.2794      99.87      1.01E+3                  694.927       16679       33.8123   33.8157     7.82349            48         0.00  
1        2017-12-26    360.804781  2017-12-26T19:18:53Z    51        50.493      1.2347       1.2335         29.203491     29.205136       7.5802     7.3999    1.2953        95.7307            24.8            -64.72204    -87.2794      99.87      1.01E+3                  698.048       16754       33.8125   33.8159     7.82344            52         0.00  
1        2017-12-26    360.804812  2017-12-26T19:18:56Z    52        51.485      1.2348       1.2337         29.204136     29.205705       7.5746     7.4055    1.3336        95.7299            23.7            -64.72204    -87.2794      99.87      1.01E+3                  700.787       16820       33.8125   33.8158     7.82341            39         0.00  
1        2017-12-26    360.804849  2017-12-26T19:18:59Z    53        52.47       1.2349       1.2338         29.204582     29.206349       7.5709     7.4006    1.3384        95.7707            22.9            -64.72204    -87.27939     99.87      1.01E+3                  703.917       16895       33.8124   33.816      7.8234             38         0.00  
1        2017-12-26    360.804865  2017-12-26T19:19:00Z    54        53.468      1.235        1.2338         29.205153     29.206903       7.5704     7.4061    1.33          95.783             21.8            -64.72204    -87.27938     99.87      1.01E+3                  705.346       16929       33.8125   33.816      7.82337            38         0.00  
1        2017-12-26    360.804889  2017-12-26T19:19:02Z    55        54.457      1.2352       1.234          29.205941     29.207403       7.5763     7.4009    1.3397        95.7614            20.5            -64.72204    -87.27938     99.87      1.01E+3                  707.45        16980       33.8127   33.8159     7.82332            60         0.00  
1        2017-12-26    360.804949  2017-12-26T19:19:08Z    56        55.442      1.2352       1.2342         29.206538     29.2082         7.5668     7.3987    1.4127        95.7495            19.5            -64.72204    -87.27939     99.87      1.01E+3                  712.615       17104       33.8129   33.8161     7.82331            33         0.00  
1        2017-12-26    360.804979  2017-12-26T19:19:10Z    57        56.432      1.2353       1.2339         29.207116     29.208765       7.5716     7.3991    1.4696        95.8273            18.6            -64.72204    -87.27938     99.87      1.01E+3                  715.183       17165       33.8129   33.8166     7.82329            40         0.00  
1        2017-12-26    360.805     2017-12-26T19:19:12Z    58        57.427      1.2343       1.2333         29.207156     29.208867       7.5728     7.3998    1.3944        95.8313            17.7            -64.72204    -87.27938     99.87      1.01E+3                  717.022       17210       33.8135   33.8168     7.82346            56         0.00  
1        2017-12-26    360.805033  2017-12-26T19:19:15Z    59        58.413      1.2345       1.2334         29.207826     29.209547       7.5721     7.3986    1.4076        95.8014            16.9            -64.72204    -87.27938     99.87      1.01E+3                  719.844       17277       33.8136   33.8169     7.82342            65         0.00  
1        2017-12-26    360.805059  2017-12-26T19:19:17Z    60        59.403      1.2335       1.2324         29.207821     29.209525       7.5728     7.4008    1.3889        95.865             16.1            -64.72204    -87.27938     99.87      1.01E+3                  722.061       17330       33.814    33.8174     7.82359            46         0.00  
1        2017-12-26    360.805099  2017-12-26T19:19:21Z    61        60.395      1.2312       1.2311         29.20668      29.208912       7.5757     7.4033    1.4297        95.769             15.2            -64.72204    -87.27938     99.87      1.01E+3                  725.538       17414       33.8145   33.8175     7.82402            55         0.00  
1        2017-12-26    360.805153  2017-12-26T19:19:25Z    62        61.381      1.2291       1.2275         29.205248     29.20652        7.5738     7.4008    1.4564        95.7603            14.5            -64.72204    -87.27936     99.87      1.01E+3                  730.243       17527       33.8143   33.8177     7.82445            36         0.00  
1        2017-12-26    360.80517   2017-12-26T19:19:27Z    63        62.377      1.2212       1.2202         29.199511     29.201261       7.5749     7.3973    1.4237        95.875             13.8            -64.72204    -87.27936     99.87      1.01E+3                  731.711       17562       33.815    33.8183     7.826              41         0.00  
1        2017-12-26    360.805194  2017-12-26T19:19:29Z    64        63.365      1.2111       1.2102         29.191422     29.193364       7.5728     7.4058    1.4516        95.8659            13.1            -64.72204    -87.27936     99.87      1.01E+3                  733.718       17610       33.8151   33.8185     7.82802            57         0.00  
1        2017-12-26    360.805224  2017-12-26T19:19:31Z    65        64.354      1.193        1.1922         29.176768     29.178656       7.5831     7.4096    1.4188        95.8385            12.4            -64.72204    -87.27936     99.87      1.01E+3                  736.353       17673       33.8153   33.8186     7.83163            67         0.00  
1        2017-12-26    360.805265  2017-12-26T19:19:35Z    66        65.343      1.1704       1.1716         29.158038     29.161345       7.5952     7.4186    1.4598        95.76              11.7            -64.72204    -87.27936     99.87      1.01E+3                  739.909       17759       33.8152   33.8182     7.83616            37         0.00  
1        2017-12-26    360.805306  2017-12-26T19:19:38Z    67        66.333      1.1102       1.1132         29.107431     29.112165       7.6176     7.4315    1.4854        96.0159            11.1            -64.72204    -87.27936     99.87      1.01E+3                  743.427       17843       33.815    33.8178     7.84825            72         0.00  
1        2017-12-26    360.80534   2017-12-26T19:19:41Z    68        67.323      0.9478       0.9526         28.965924     28.972824       7.6297     7.4494    1.4726        96.186             10.6            -64.72204    -87.27936     99.87      1.01E+3                  746.358       17914       33.8088   33.8125     7.88134            60         0.00  
1        2017-12-26    360.805366  2017-12-26T19:19:44Z    69        68.311      0.84         0.8403         28.874931     28.878108       7.6242     7.4479    1.3782        96.3161            10.2            -64.72204    -87.27936     99.87      1.01E+3                  748.613       17968       33.8082   33.8119     7.90324            48         0.00  
1        2017-12-26    360.805386  2017-12-26T19:19:45Z    70        69.303      0.7928       0.799          28.835188     28.84344        7.6502     7.4625    1.3861        96.3116            9.64            -64.72204    -87.27936     99.87      1.01E+3                  750.361       18010       33.8077   33.8116     7.91288            38         0.00  
1        2017-12-26    360.805411  2017-12-26T19:19:48Z    71        70.298      0.7627       0.7637         28.810481     28.81489        7.6333     7.4555    1.2925        96.3677            9.07            -64.72204    -87.27936     99.87      1.01E+3                  752.517       18061       33.8079   33.8125     7.919              40         0.00  
1        2017-12-26    360.805488  2017-12-26T19:19:54Z    72        71.279      0.7544       0.7553         28.805126     28.808454       7.6472     7.476     1.2301        96.8278            8.62            -64.72204    -87.27936     99.87      1.01E+3                  759.159       18221       33.8094   33.8128     7.92062            54         0.00  
1        2017-12-26    360.805507  2017-12-26T19:19:56Z    73        72.273      0.7129       0.7095         28.775816     28.776078       7.6577     7.4723    1.1813        96.8058            8.23            -64.72204    -87.27934     99.87      1.01E+3                  760.787       18260       33.8161   33.8202     7.92872            39         0.00  
1        2017-12-26    360.805527  2017-12-26T19:19:58Z    74        73.268      0.7435       0.7442         28.815301     28.821927       7.6643     7.4856    1.1809        96.7837            7.79            -64.72204    -87.27934     99.87      1.01E+3                  762.572       18303       33.8333   33.8411     7.92153            42         0.00  
1        2017-12-26    360.805592  2017-12-26T19:20:03Z    75        74.248      0.6076       0.6585         28.686827     28.730101       7.6464     7.4743    1.216         96.7791            7.45            -64.72204    -87.27936     99.87      1.01E+3                  768.165       18437       33.8143   33.8149     7.95049            45         0.00  
1        2017-12-26    360.805611  2017-12-26T19:20:05Z    76        75.245      0.1747       0.1831         28.314764     28.321932       7.6634     7.5431    1.2253        97.0456            7.02            -64.72204    -87.27936     99.87      1.01E+3                  769.789       18476       33.8021   33.8022     8.04099            39         0.00  
1        2017-12-26    360.805668  2017-12-26T19:20:10Z    77        76.227      0.3019       0.1643         28.419204     28.302055       7.6961     7.5515    1.2255        97.2162            6.71            -64.72204    -87.27935     99.87      1.01E+3                  774.676       18593       33.7984   33.7961     8.01484            36         0.00  
1        2017-12-26    360.805692  2017-12-26T19:20:12Z    78        77.218      -0.0435      -0.0565        28.134791     28.131226       7.5888     7.4314    1.0024        97.4556            6.45            -64.72204    -87.27934     99.87      1.01E+3                  776.804       18644       33.8041   33.8138     8.08673            22         0.00  
1        2017-12-26    360.805702  2017-12-26T19:20:13Z    79        78.219      0.0993       0.0936         28.27728      28.276226       7.6259     7.4658    0.9174        97.6978            6.12            -64.72204    -87.27934     99.87      1.01E+3                  777.685       18665       33.8341   33.839      8.05494            23         0.00  
1        2017-12-26    360.805728  2017-12-26T19:20:15Z    80        79.211      0.2184       0.2139         28.377947     28.377859       7.7018     7.5454    0.811         97.837             5.79            -64.72204    -87.27934     99.87      1.01E+3                  779.932       18719       33.8348   33.8396     8.02993            37         0.00  
1        2017-12-26    360.805788  2017-12-26T19:20:20Z    81        80.196      0.2067       0.2114         28.37075      28.376823       7.6425     7.4739    0.8049        97.6207            5.53            -64.72204    -87.27934     99.87      1.01E+3                  785.065       18843       33.8376   33.8405     8.03222            32         0.00  
1        2017-12-26    360.805817  2017-12-26T19:20:23Z    82        81.183      0.2186       0.2372         28.381447     28.401244       7.6635     7.4954    0.7229        97.7652            5.26            -64.72204    -87.27935     99.87      1.01E+3                  787.6         18903       33.838    33.8435     8.02971            38         0.00  
1        2017-12-26    360.805855  2017-12-26T19:20:26Z    83        82.171      0.271        0.2709         28.450081     28.45363        7.6095     7.4366    0.6925        97.8585            5.07            -64.72204    -87.27935     99.87      1.01E+3                  790.856       18982       33.8699   33.8746     8.01698            64         0.00  
1        2017-12-26    360.80589   2017-12-26T19:20:29Z    84        83.16       0.0142       0.0097         28.221695     28.221455       7.5849     7.457     0.779         97.8009            4.85            -64.72204    -87.27934     99.87      1.01E+3                  793.892       19054       33.8515   33.8562     8.07202            60         0.00  
1        2017-12-26    360.805928  2017-12-26T19:20:32Z    85        84.153      -0.2127      -0.2584        28.024316     27.985628       7.626      7.4543    0.7107        98.0124            4.61            -64.72204    -87.27935     99.87      1.01E+3                  797.218       19134       33.8406   33.8399     8.12062            53         0.00  
1        2017-12-26    360.805984  2017-12-26T19:20:37Z    86        85.134      -0.2843      -0.3306        27.9604       27.929896       7.6036     7.446     0.5636        98.0696            4.43            -64.72204    -87.27934     99.87      1.01E+3                  801.996       19249       33.8345   33.8452     8.13626            36         0.00  
1        2017-12-26    360.805998  2017-12-26T19:20:38Z    87        86.136      -0.379       -0.3834        27.889349     27.889452       7.5993     7.4475    0.4649        98.4591            4.23            -64.72204    -87.27934     99.87      1.01E+3                  803.267       19279       33.8443   33.8493     8.15597            39         0.00  
1        2017-12-26    360.806036  2017-12-26T19:20:42Z    88        87.12       -0.3892      -0.3893        27.882351     27.886172       7.5861     7.4267    0.317         98.6998            4.07            -64.72204    -87.27935     99.87      1.02E+3                  806.501       19357       33.8457   33.8509     8.15807            39         0.00  
1        2017-12-26    360.80607   2017-12-26T19:20:44Z    89        88.109      -0.3293      -0.3312        27.941842     27.943804       7.5787     7.432     0.2448        98.7941            3.94            -64.72204    -87.27936     99.87      1.01E+3                  809.488       19429       33.8579   33.8627     8.14452            43         0.00  
1        2017-12-26    360.806102  2017-12-26T19:20:47Z    90        89.102      -0.3155      -0.3154        27.953713     27.95766        7.5691     7.4207    0.2502        98.7675            3.77            -64.72204    -87.27935     99.87      1.02E+3                  812.223       19494       33.8578   33.863      8.14158            52         0.00  
1        2017-12-26    360.806166  2017-12-26T19:20:53Z    91        90.085      -0.3376      -0.3535        27.938596     27.930024       7.5277     7.382     0.2753        98.7186            3.64            -64.72204    -87.27936     99.87      1.02E+3                  817.714       19626       33.8616   33.8679     8.14609            33         0.00  
1        2017-12-26    360.806181  2017-12-26T19:20:54Z    92        91.084      -0.3238      -0.327         27.957375     27.958428       7.5451     7.4064    0.2003        98.8258            3.50            -64.72204    -87.27935     99.87      1.02E+3                  819.036       19658       33.8707   33.8757     8.14261            37         0.00  
1        2017-12-26    360.806204  2017-12-26T19:20:56Z    93        92.07       -0.3828      -0.3847        27.910411     27.912107       7.5272     7.3871    0.2207        98.8939            3.37            -64.72204    -87.27934     99.87      1.01E+3                  821.027       19706       33.8731   33.8775     8.15514            58         0.00  
1        2017-12-26    360.806239  2017-12-26T19:20:59Z    94        93.061      -0.3141      -0.32          27.97653      27.974065       7.5214     7.3693    0.2078        98.9129            3.25            -64.72204    -87.27936     99.87      1.02E+3                  824.036       19778       33.8843   33.8876     8.13975            40         0.00  
1        2017-12-26    360.806291  2017-12-26T19:21:04Z    95        94.047      -0.2492      -0.2596        28.034402     28.028799       7.5106     7.3592    0.1723        98.8963            3.14            -64.72204    -87.27936     99.87      1.02E+3                  828.586       19887       33.8886   33.8928     8.12564            51         0.00  
1        2017-12-26    360.806314  2017-12-26T19:21:06Z    96        95.043      -0.1962      -0.1981        28.083849     28.084326       7.4868     7.3374    0.165         98.9171            3.01            -64.72204    -87.27936     99.87      1.02E+3                  830.538       19934       33.8949   33.8978     8.11398            38         0.00  
1        2017-12-26    360.80637   2017-12-26T19:21:10Z    97        96.024      -0.1389      -0.1455        28.136428     28.132223       7.4923     7.3322    0.1677        98.8762            2.95            -64.72204    -87.27936     99.87      1.02E+3                  835.355       20050       33.9006   33.9024     8.10149            47         0.00  
1        2017-12-26    360.806388  2017-12-26T19:21:12Z    98        97.02       -0.0798      -0.0924        28.186119     28.178067       7.4921     7.3335    0.1516        98.9151            2.84            -64.72204    -87.27936     99.87      1.02E+3                  836.956       20088       33.9004   33.9037     8.08897            40         0.00  
1        2017-12-26    360.806436  2017-12-26T19:21:16Z    99        98.007      -0.0946      -0.0945        28.173908     28.176918       7.484      7.3294    0.1653        98.9504            2.74            -64.72204    -87.27936     99.87      1.02E+3                  841.069       20187       33.9      33.9039     8.09212            48         0.00  
1        2017-12-26    360.806472  2017-12-26T19:21:19Z    100       99          0.129        0.1488         28.38147      28.405689       7.4411     7.2887    0.1517        98.8943            2.65            -64.72204    -87.27936     99.87      1.02E+3                  844.214       20262       33.9261   33.9361     8.04357            45         0.00  
1        2017-12-26    360.80651   2017-12-26T19:21:22Z    101       99.987      0.2989       0.3031         28.532913     28.537802       7.4414     7.2869    0.1587        98.9384            2.55            -64.72204    -87.27936     99.87      1.02E+3                  847.464       20340       33.9371   33.9389     8.00741            42         0.00  
1        2017-12-26    360.806547  2017-12-26T19:21:26Z    102       100.977     0.3443       0.3496         28.574478     28.582351       7.4186     7.2695    0.1717        98.8742            2.47            -64.72204    -87.27936     99.87      1.02E+3                  850.697       20418       33.941    33.9454     7.99776            64         0.00  
1        2017-12-26    360.806581  2017-12-26T19:21:29Z    103       101.967     0.5112       0.5163         28.728422     28.732813       7.4164     7.2533    0.2056        98.9               2.38            -64.72204    -87.27936     99.87      1.02E+3                  853.591       20487       33.9578   33.958      7.96227            70         0.00  
1        2017-12-26    360.806627  2017-12-26T19:21:33Z    104       102.953     0.4851       0.4875         28.700248     28.703706       7.4149     7.2484    0.1938        98.9193            2.30            -64.72204    -87.27936     99.87      1.02E+3                  857.608       20584       33.9492   33.9511     7.96815            36         0.00  
1        2017-12-26    360.806657  2017-12-26T19:21:35Z    105       103.942     0.3177       0.322          28.549655     28.556377       7.4172     7.2592    0.1213        98.9279            2.23            -64.72204    -87.27936     99.87      1.02E+3                  860.197       20646       33.936    33.94       8.00355            37         0.00  
1        2017-12-26    360.806675  2017-12-26T19:21:37Z    106       104.943     0.3029       0.3061         28.53862      28.54343        7.4345     7.2707    0.1274        98.9391            2.14            -64.72204    -87.27936     99.87      1.02E+3                  861.702       20682       33.9372   33.94       8.00656            41         0.00  
1        2017-12-26    360.806723  2017-12-26T19:21:41Z    107       105.918     0.2789       0.2791         28.515623     28.516756       7.4204     7.2696    0.1216        98.9563            2.08            -64.72204    -87.27936     99.87      1.02E+3                  865.892       20782       33.9329   33.9342     8.0118             37         0.00  
1        2017-12-26    360.806737  2017-12-26T19:21:42Z    108       106.914     0.1409       0.1266         28.395363     28.385075       7.4318     7.2538    0.137         98.9707            2.01            -64.72204    -87.27936     99.87      1.02E+3                  867.12        20812       33.9266   33.9288     8.04099            26         0.00  
1        2017-12-26    360.806751  2017-12-26T19:21:43Z    109       107.912     0.1558       0.1589         28.409183     28.414625       7.4269     7.2682    0.1368        98.9755            1.93            -64.72204    -87.27936     99.87      1.02E+3                  868.299       20840       33.9278   33.9314     8.03781            34         0.00  
1        2017-12-26    360.806778  2017-12-26T19:21:46Z    110       108.895     0.1159       0.1078         28.375447     28.369762       7.4302     7.2638    0.1197        98.9729            1.86            -64.72204    -87.27936     99.87      1.02E+3                  870.625       20896       33.9268   33.9282     8.04623            61         0.00  
1        2017-12-26    360.806807  2017-12-26T19:21:48Z    111       109.882     0.0021       0.0017         28.273314     28.275796       7.4259     7.2652    0.1477        99.0182            1.81            -64.72204    -87.27936     99.87      1.02E+3                  873.115       20956       33.9172   33.921      8.07069            40         0.00  
1        2017-12-26    360.806824  2017-12-26T19:21:50Z    112       110.873     0.0071       0.0029         28.280659     28.280297       7.4239     7.2688    0.1394        98.9698            1.76            -64.72204    -87.27936     99.87      1.02E+3                  874.549       20990       33.9208   33.925      8.06944            32         0.00  
1        2017-12-26    360.806839  2017-12-26T19:21:51Z    113       111.866     0.0102       0.0087         28.284435     28.285888       7.4235     7.2668    0.1257        99.0043            1.70            -64.72204    -87.27936     99.87      1.02E+3                  875.868       21022       33.9218   33.9254     8.06874            33         0.00  
1        2017-12-26    360.806855  2017-12-26T19:21:52Z    114       112.852     0.0273       0.0248         28.301989     28.302871       7.4061     7.2582    0.1367        99.0134            1.64            -64.72204    -87.27936     99.87      1.02E+3                  877.281       21056       33.9255   33.9294     8.06493            35         0.00  
1        2017-12-26    360.806871  2017-12-26T19:21:54Z    115       113.843     0.0186       0.0175         28.295805     28.297459       7.4099     7.2498    0.1368        98.9908            1.58            -64.72204    -87.27936     99.87      1.02E+3                  878.682       21089       33.9263   33.9298     8.06671            32         0.00  
1        2017-12-26    360.806888  2017-12-26T19:21:55Z    116       114.837     0.0095       0.0081         28.288819     28.29025        7.4104     7.251     0.1555        98.9604            1.53            -64.72204    -87.27936     99.87      1.02E+3                  880.104       21123       33.9265   33.9301     8.06861            38         0.00  
1        2017-12-26    360.806912  2017-12-26T19:21:57Z    117       115.82      0.002        0.0013         28.283576     28.285837       7.4058     7.2519    0.13          99.0128            1.48            -64.72204    -87.27936     99.87      1.02E+3                  882.174       21173       33.9274   33.9312     8.07015            57         0.00  
1        2017-12-26    360.806933  2017-12-26T19:21:59Z    118       116.806     0.0003       -0.0007        28.28318      28.285015       7.3929     7.2389    0.1146        99.0159            1.44            -64.72204    -87.27936     99.87      1.02E+3                  884.014       21217       33.9281   33.9317     8.07046            30         0.00  
1        2017-12-26    360.806945  2017-12-26T19:22:00Z    119       117.792     -0.0099      -0.0118        28.274961     28.276036       7.3904     7.2382    0.1223        98.3497            1.39            -64.72204    -87.27934     99.87      1.02E+3                  885.026       21242       33.9279   33.9315     8.07262            21         0.00  
1        2017-12-26    360.806954  2017-12-26T19:22:01Z    120       118.794     -0.0133      -0.0146        28.274298     28.275655       7.3956     7.2376    0.1196        99.0563            1.35            -64.72204    -87.27935     99.87      1.02E+3                  885.82        21261       33.9302   33.9335     8.07321            18         0.00  
1        2017-12-26    360.806963  2017-12-26T19:22:02Z    121       119.784     -0.0036      -0.0028        28.282221     28.285627       7.3863     7.2326    0.1074        99.0226            1.30            -64.72204    -87.27936     99.87      1.02E+3                  886.589       21279       33.9294   33.933      8.07122            19         0.00  
1        2017-12-26    360.806973  2017-12-26T19:22:02Z    122       120.78      -0.0237      -0.0235        28.266042     28.26875        7.389      7.2407    0.1075        99.0566            1.26            -64.72204    -87.27936     99.87      1.02E+3                  887.479       21300       33.9296   33.933      8.07544            25         0.00  
1        2017-12-26    360.806991  2017-12-26T19:22:04Z    123       121.765     -0.0275      -0.0285        28.263251     28.265116       7.394      7.2361    0.1018        99.0657            1.22            -64.72204    -87.27936     99.87      1.02E+3                  889.065       21339       33.9295   33.9331     8.07625            57         0.00  
1        2017-12-26    360.807019  2017-12-26T19:22:06Z    124       122.743     0.0006       0.0031         28.29069      28.2957         7.3778     7.2339    0.0612        99.0827            1.19            -64.72204    -87.27936     99.87      1.02E+3                  891.418       21395       33.9341   33.938      8.07006            40         0.00  
1        2017-12-26    360.807032  2017-12-26T19:22:08Z    125       123.732     0.0286       0.0274         28.315624     28.317192       7.3806     7.2242    0.0818        99.0928            1.15            -64.72204    -87.27935     99.87      1.02E+3                  892.574       21423       33.9354   33.9389     8.06408            23         0.00  
1        2017-12-26    360.807042  2017-12-26T19:22:08Z    126       124.725     0.0277       0.0262         28.31537      28.316654       7.3765     7.2171    0.1047        99.0832            1.11            -64.72204    -87.27934     99.87      1.02E+3                  893.426       21443       33.9355   33.9389     8.06427            19         0.00  
1        2017-12-26    360.807051  2017-12-26T19:22:09Z    127       125.723     0.0247       0.0224         28.313233     28.313785       7.3774     7.2255    0.078         99.0521            1.08            -64.72204    -87.27934     99.87      1.02E+3                  894.214       21462       33.9354   33.9387     8.06491            19         0.00  
1        2017-12-26    360.807061  2017-12-26T19:22:10Z    128       126.716     0.014        0.0124         28.304441     28.30559        7.3798     7.2239    0.089         99.0866            1.04            -64.72204    -87.27934     99.87      1.02E+3                  895.092       21483       33.935    33.9383     8.06718            24         0.00  
1        2017-12-26    360.807075  2017-12-26T19:22:11Z    129       127.702     0.009        0.0078         28.300825     28.302654       7.3731     7.2172    0.1034        99.0329            1.00            -64.72204    -87.27934     99.87      1.02E+3                  896.321       21513       33.9353   33.9389     8.06824            36         0.00  
1        2017-12-26    360.807094  2017-12-26T19:22:13Z    130       128.684     0.0058       0.0044         28.298632     28.300156       7.3667     7.2127    0.0927        99.0877            0.971           -64.72204    -87.27936     99.87      1.02E+3                  897.935       21551       33.9353   33.9389     8.0689             39         0.00  
1        2017-12-26    360.807111  2017-12-26T19:22:14Z    131       129.675     0.0046       0.0032         28.29829      28.299661       7.366      7.2159    0.1021        99.108             0.941           -64.72204    -87.27936     99.87      1.02E+3                  899.42        21587       33.9355   33.9389     8.06914            32         0.00  
1        2017-12-26    360.807126  2017-12-26T19:22:16Z    132       130.668     0.0036       0.0021         28.298209     28.299743       7.362      7.2116    0.1076        99.0911            0.913           -64.72204    -87.27935     99.87      1.02E+3                  900.685       21617       33.936    33.9397     8.06933            29         0.00  
1        2017-12-26    360.80714   2017-12-26T19:22:17Z    133       131.654     0.0109       0.0088         28.305793     28.306912       7.3593     7.1993    0.0814        99.0466            0.884           -64.72204    -87.27934     99.87      1.02E+3                  901.873       21646       33.9373   33.9411     8.06772            28         0.00  
1        2017-12-26    360.807153  2017-12-26T19:22:18Z    134       132.644     0.0186       0.0169         28.313641     28.315173       7.3523     7.1985    0.0781        99.0613            0.857           -64.72204    -87.27934     99.87      1.02E+3                  903.006       21673       33.9385   33.9424     8.06602            26         0.00  
1        2017-12-26    360.807165  2017-12-26T19:22:19Z    135       133.636     0.0274       0.0259         28.32267      28.324035       7.3489     7.1998    0.0782        99.1153            0.831           -64.72204    -87.27934     99.87      1.02E+3                  904.043       21698       33.9401   33.9436     8.06407            25         0.00  
1        2017-12-26    360.807176  2017-12-26T19:22:20Z    136       134.627     0.0323       0.0305         28.327795     28.328763       7.3453     7.1944    0.0782        99.1192            0.806           -64.72204    -87.27936     99.87      1.02E+3                  905.033       21722       33.9408   33.9441     8.063              23         0.00  
1        2017-12-26    360.807189  2017-12-26T19:22:21Z    137       135.617     0.0395       0.0368         28.334835     28.335124       7.3499     7.1926    0.0668        99.117             0.781           -64.72204    -87.27936     99.87      1.02E+3                  906.091       21747       33.9416   33.945      8.06145            28         0.00  
1        2017-12-26    360.807204  2017-12-26T19:22:22Z    138       136.607     0.0389       0.0378         28.334504     28.336255       7.3515     7.1893    0.0793        99.0609            0.756           -64.72204    -87.27936     99.87      1.02E+3                  907.398       21779       33.9412   33.9447     8.06159            35         0.00  
1        2017-12-26    360.807221  2017-12-26T19:22:24Z    139       137.593     0.04         0.0387         28.336086     28.337613       7.3423     7.1902    0.0968        99.1387            0.732           -64.72204    -87.27935     99.87      1.02E+3                  908.918       21815       33.9415   33.9449     8.06135            36         0.00  
1        2017-12-26    360.807236  2017-12-26T19:22:25Z    140       138.578     0.0439       0.0422         28.340305     28.341525       7.3355     7.1803    0.0779        99.1375            0.711           -64.72204    -87.27934     99.87      1.02E+3                  910.232       21847       33.9421   33.9456     8.06049            27         0.00  
1        2017-12-26    360.807249  2017-12-26T19:22:26Z    141       139.574     0.0597       0.0582         28.356078     28.357544       7.3338     7.1861    0.0936        99.1409            0.690           -64.72204    -87.27934     99.87      1.02E+3                  911.303       21872       33.9448   33.9485     8.057              25         0.00  
1        2017-12-26    360.807261  2017-12-26T19:22:27Z    142       140.565     0.0686       0.0673         28.36441      28.365934       7.3227     7.1693    0.0918        99.1408            0.669           -64.72204    -87.27934     99.87      1.02E+3                  912.374       21898       33.9455   33.9489     8.05511            28         0.00  
1        2017-12-26    360.807276  2017-12-26T19:22:29Z    143       141.552     0.078        0.0761         28.37369      28.374705       7.3023     7.1597    0.059         99.1194            0.647           -64.72204    -87.27934     99.87      1.02E+3                  913.672       21929       33.9466   33.9501     8.05305            33         0.00  
1        2017-12-26    360.807292  2017-12-26T19:22:30Z    144       142.539     0.0886       0.0876         28.384186     28.385877       7.2946     7.1645    0.0735        99.1483            0.627           -64.72204    -87.27935     99.87      1.02E+3                  914.992       21961       33.9482   33.9516     8.05074            29         0.00  
1        2017-12-26    360.807304  2017-12-26T19:22:31Z    145       143.529     0.0884       0.0867         28.384628     28.385539       7.2759     7.1441    0.0782        99.1304            0.608           -64.72204    -87.27936     99.87      1.02E+3                  916.068       21987       33.9483   33.9515     8.05077            24         0.00  
1        2017-12-26    360.807315  2017-12-26T19:22:32Z    146       144.523     0.0907       0.0893         28.388205     28.389657       7.2683     7.1388    0.0522        99.1365            0.589           -64.72204    -87.27934     99.87      1.02E+3                  917.027       22010       33.9499   33.9535     8.0502             23         0.00  
1        2017-12-26    360.807327  2017-12-26T19:22:33Z    147       145.515     0.1188       0.1155         28.414418     28.414714       7.2599     7.1184    0.049         99.1595            0.571           -64.72204    -87.27934     99.87      1.02E+3                  918.083       22035       33.9529   33.9569     8.04415            29         0.00  
1        2017-12-26    360.807345  2017-12-26T19:22:35Z    148       146.501     0.1504       0.1493         28.443528     28.444803       7.2646     7.1214    0.0489        99.1735            0.552           -64.72204    -87.27934     99.87      1.02E+3                  919.63        22072       33.9556   33.9586     8.03736            42         0.00  
1        2017-12-26    360.807365  2017-12-26T19:22:36Z    149       147.484     0.1573       0.1572         28.449947     28.452448       7.2534     7.1079    0.0397        99.1301            0.538           -64.72204    -87.27934     99.87      1.02E+3                  921.349       22113       33.9558   33.9593     8.0359             33         0.00  
1        2017-12-26    360.807378  2017-12-26T19:22:37Z    150       148.472     0.1674       0.1718         28.459532     28.466754       7.267      7.1104    0.0451        99.1708            0.523           -64.72204    -87.27934     99.87      1.02E+3                  922.473       22140       33.9568   33.9614     8.03375            23         0.00  
1        2017-12-26    360.807389  2017-12-26T19:22:38Z    151       149.47      0.2268       0.2271         28.517182     28.51953        7.2643     7.1132    0.0247        99.1887            0.507           -64.72204    -87.27934     99.87      1.02E+3                  923.366       22162       33.9663   33.9691     8.02079            21         0.00  
1        2017-12-26    360.807399  2017-12-26T19:22:39Z    152       150.462     0.2559       0.2545         28.540849     28.541877       7.2687     7.1193    0.01          99.193             0.491           -64.72204    -87.27934     99.87      1.02E+3                  924.248       22183       33.9647   33.9676     8.01482            22         0.00  
1        2017-12-26    360.807411  2017-12-26T19:22:40Z    153       151.451     0.2742       0.2713         28.55869      28.559579       7.2701     7.1078    0.0193        99.1795            0.475           -64.72204    -87.27934     99.87      1.02E+3                  925.278       22208       33.9673   33.9717     8.01085            28         0.00  
1        2017-12-26    360.807427  2017-12-26T19:22:42Z    154       152.438     0.3534       0.3488         28.631774     28.630233       7.2552     7.0998    0.0273        99.1655            0.458           -64.72204    -87.27934     99.87      1.02E+3                  926.676       22241       33.9752   33.9782     7.99396            39         0.00  
1        2017-12-26    360.807446  2017-12-26T19:22:43Z    155       153.424     0.4121       0.4103         28.686159     28.686444       7.2374     7.0844    0.0421        99.1627            0.446           -64.72204    -87.27934     99.87      1.02E+3                  928.368       22282       33.981    33.9834     7.98146            38         0.00  
1        2017-12-26    360.807462  2017-12-26T19:22:45Z    156       154.412     0.4505       0.4481         28.721938     28.722635       7.2353     7.0868    0.0189        99.1826            0.434           -64.72204    -87.27934     99.87      1.02E+3                  929.707       22314       33.9848   33.9885     7.9733             27         0.00  
1        2017-12-26    360.807474  2017-12-26T19:22:46Z    157       155.401     0.4618       0.4614         28.732262     28.733871       7.2229     7.0861    0.0159        99.1761            0.421           -64.72204    -87.27934     99.87      1.02E+3                  930.738       22339       33.9853   33.9879     7.97094            24         0.00  
1        2017-12-26    360.807485  2017-12-26T19:22:47Z    158       156.395     0.4888       0.4871         28.759354     28.760848       7.2223     7.0754    0.0045        98.7414            0.408           -64.72204    -87.27934     99.87      1.02E+3                  931.688       22362       33.9904   33.9942     7.96509            23         0.00  
1        2017-12-26    360.807496  2017-12-26T19:22:48Z    159       157.386     0.5559       0.553          28.821468     28.821773       7.2151     7.0685    0.0043        99.1827            0.395           -64.72204    -87.27934     99.87      1.02E+3                  932.68        22385       33.9969   34.0006     7.95091            24         0.00  
1        2017-12-26    360.807509  2017-12-26T19:22:49Z    160       158.377     0.5957       0.5909         28.857635     28.856086       7.2196     7.0653    -0.0082       99.1844            0.382           -64.72204    -87.27934     99.87      1.02E+3                  933.789       22412       33.9996   34.003      7.94258            29         0.00  
1        2017-12-26    360.807525  2017-12-26T19:22:50Z    161       159.364     0.6254       0.6248         28.885611     28.886989       7.1966     7.0497    0.0047        99.1499            0.370           -64.72204    -87.27934     99.87      1.02E+3                  935.148       22445       34.0028   34.0053     7.93632            37         0.00  
1        2017-12-26    360.807543  2017-12-26T19:22:52Z    162       160.352     0.647        0.6452         28.906009     28.906082       7.1646     7.0317    0.0243        99.189             0.360           -64.72204    -87.27934     99.87      1.02E+3                  936.739       22483       34.005    34.0072     7.93177            38         0.00  
1        2017-12-26    360.807561  2017-12-26T19:22:53Z    163       161.34      0.6806       0.679          28.936951     28.937272       7.1586     7.0294    0.0195        99.2009            0.349           -64.72204    -87.27934     99.87      1.02E+3                  938.271       22520       34.0078   34.0099     7.92475            34         0.00  
1        2017-12-26    360.807575  2017-12-26T19:22:54Z    164       162.326     0.6947       0.6963         28.950571     28.954337       7.1199     6.9704    0.0155        99.1881            0.339           -64.72204    -87.27934     99.87      1.02E+3                  939.517       22549       34.0093   34.0124     7.92177            26         0.00  
1        2017-12-26    360.807587  2017-12-26T19:22:56Z    165       163.318     0.7229       0.7211         28.97784      28.978068       7.1302     6.9829    0.0022        99.1842            0.330           -64.72204    -87.27934     99.87      1.02E+3                  940.514       22573       34.0132   34.0154     7.91581            23         0.00  
1        2017-12-26    360.807597  2017-12-26T19:22:56Z    166       164.311     0.7342       0.7355         28.98816      28.991312       7.1143     6.9768    -0.0097       99.1548            0.319           -64.72204    -87.27934     99.87      1.02E+3                  941.395       22594       34.0135   34.0162     7.91348            20         0.00  
1        2017-12-26    360.807608  2017-12-26T19:22:57Z    167       165.302     0.6505       0.648          28.907409     28.905288       7.1171     6.9793    -0.0097       99.1945            0.308           -64.72204    -87.27934     99.87      1.02E+3                  942.3         22616       34.0001   34          7.93135            24         0.00  
1        2017-12-26    360.807621  2017-12-26T19:22:58Z    168       166.296     0.5377       0.54           28.810176     28.81368        7.1167     6.9786    -0.0208       99.1701            0.298           -64.72204    -87.27934     99.87      1.02E+3                  943.469       22644       33.9969   33.9989     7.95465            35         0.00  
1        2017-12-26    360.807642  2017-12-26T19:23:00Z    169       167.274     0.519        0.5193         28.794379     28.79637        7.1327     6.9883    -0.0091       99.2124            0.289           -64.72204    -87.27934     99.87      1.02E+3                  945.31        22688       33.9964   33.9986     7.95854            46         0.00  
1        2017-12-26    360.80766   2017-12-26T19:23:02Z    170       168.264     0.5981       0.5931         28.867228     28.865669       7.0943     6.9507    -0.0097       99.2245            0.282           -64.72204    -87.27934     99.87      1.02E+3                  946.842       22725       34.0036   34.0071     7.94187            29         0.00  
1        2017-12-26    360.807672  2017-12-26T19:23:03Z    171       169.25      0.6483       0.647          28.916765     28.918611       7.0748     6.9363    -0.0253       99.226             0.273           -64.72204    -87.27934     99.87      1.02E+3                  947.87        22750       34.0122   34.0161     7.9311             22         0.00  
1        2017-12-26    360.807683  2017-12-26T19:23:04Z    172       170.25      0.701        0.7009         28.962911     28.964386       7.08       6.9371    -0.0129       99.2321            0.266           -64.72204    -87.27934     99.87      1.02E+3                  948.779       22772       34.0137   34.0157     7.92025            22         0.00  
1        2017-12-26    360.807694  2017-12-26T19:23:05Z    173       171.242     0.6892       0.6873         28.952442     28.952158       7.0821     6.9383    -0.0204       99.2219            0.257           -64.72204    -87.27934     99.87      1.02E+3                  949.768       22795       34.0125   34.0142     7.92273            27         0.00  
1        2017-12-26    360.807709  2017-12-26T19:23:06Z    174       172.227     0.652        0.6506         28.919433     28.919501       7.0666     6.9309    -0.0243       99.2248            0.247           -64.72204    -87.27934     99.87      1.02E+3                  951.025       22826       34.0099   34.0116     7.93048            34         0.00  
1        2017-12-26    360.807726  2017-12-26T19:23:08Z    175       173.214     0.6145       0.6144         28.886127     28.888012       7.0406     6.9218    -0.0244       99.1655            0.240           -64.72204    -87.27934     99.87      1.02E+3                  952.528       22862       34.0072   34.0098     7.9383             36         0.00  
1        2017-12-26    360.807742  2017-12-26T19:23:09Z    176       174.202     0.5802       0.5806         28.855965     28.857563       7.0119     6.8984    -0.0249       99.2406            0.233           -64.72204    -87.27934     99.87      1.02E+3                  953.929       22895       34.0051   34.0068     7.94546            31         0.00  
1        2017-12-26    360.807756  2017-12-26T19:23:10Z    177       175.193     0.5418       0.545          28.822547     28.827005       7.0005     6.8877    -0.026        99.2304            0.226           -64.72204    -87.27934     99.87      1.02E+3                  955.16        22925       34.0033   34.0055     7.95347            28         0.00  
1        2017-12-26    360.80777   2017-12-26T19:23:11Z    178       176.181     0.5277       0.5273         28.810853     28.812563       6.9746     6.8683    -0.0287       99.2515            0.220           -64.72204    -87.27934     99.87      1.02E+3                  956.301       22952       34.003    34.0056     7.95638            27         0.00  
1        2017-12-26    360.807782  2017-12-26T19:23:12Z    179       177.173     0.526        0.5254         28.810359     28.811874       6.9446     6.8494    -0.035        99.2488            0.213           -64.72204    -87.27934     99.87      1.02E+3                  957.39        22978       34.0035   34.0061     7.95669            25         0.00  
1        2017-12-26    360.807794  2017-12-26T19:23:13Z    180       178.161     0.5416       0.5399         28.826741     28.827688       6.9358     6.8304    -0.039        99.2693            0.207           -64.72204    -87.27934     99.87      1.02E+3                  958.426       23003       34.0072   34.0102     7.95329            25         0.00  
1        2017-12-26    360.807806  2017-12-26T19:23:14Z    181       179.152     0.5621       0.5609         28.845922     28.846892       6.9411     6.8176    -0.039        99.2645            0.200           -64.72204    -87.27934     99.87      1.02E+3                  959.472       23028       34.009    34.0116     7.94897            26         0.00  
1        2017-12-26    360.807821  2017-12-26T19:23:16Z    182       180.146     0.5654       0.5644         28.849656     28.850632       6.9431     6.8073    -0.039        99.2673            0.194           -64.72204    -87.27934     99.87      1.02E+3                  960.719       23058       34.0096   34.012      7.94825            36         0.00  
1        2017-12-26    360.807841  2017-12-26T19:23:17Z    183       181.128     0.5661       0.5668         28.850892     28.853627       6.9335     6.804     -0.035        99.2627            0.187           -64.72204    -87.27934     99.87      1.02E+3                  962.491       23101       34.0099   34.0127     7.94809            45         0.00  
1        2017-12-26    360.807859  2017-12-26T19:23:19Z    184       182.109     0.5809       0.58           28.865372     28.866443       6.9308     6.7926    -0.0244       99.272             0.182           -64.72204    -87.27934     99.87      1.02E+3                  964.055       23138       34.0119   34.0143     7.94494            28         0.00  
1        2017-12-26    360.80787   2017-12-26T19:23:20Z    185       183.102     0.611        0.6114         28.896219     28.899037       6.9558     6.7891    -0.0348       99.2791            0.178           -64.72204    -87.27934     99.87      1.02E+3                  964.993       23161       34.0184   34.0216     7.93842            20         0.00  
1        2017-12-26    360.807879  2017-12-26T19:23:21Z    186       184.098     0.637        0.6368         28.920509     28.922058       6.9795     6.8004    -0.0414       99.1944            0.171           -64.72204    -87.27934     99.87      1.02E+3                  965.767       23179       34.0207   34.0229     7.93295            18         0.00  
1        2017-12-26    360.807889  2017-12-26T19:23:22Z    187       185.095     0.6519       0.651          28.935264     28.936255       6.997      6.8137    -0.0547       99.2423            0.165           -64.72204    -87.27934     99.86      1.02E+3                  966.562       23198       34.023    34.0253     7.92978            21         0.00  
1        2017-12-26    360.807905  2017-12-26T19:23:23Z    188       186.084     0.6691       0.669          28.951451     28.953261       6.9916     6.8241    -0.0414       99.2351            0.160           -64.72204    -87.27934     99.87      1.02E+3                  967.991       23233       34.0245   34.027      7.92617            51         0.00  
1        2017-12-26    360.807933  2017-12-26T19:23:25Z    189       187.055     0.6807       0.6799         28.964028     28.965017       6.9877     6.8325    -0.0447       99.2416            0.155           -64.72204    -87.27934     99.87      1.02E+3                  970.393       23290       34.0274   34.0297     7.92363            40         0.00  
1        2017-12-26    360.807946  2017-12-26T19:23:27Z    190       188.049     0.6841       0.6835         28.967704     28.969015       6.9771     6.8347    -0.0538       99.265             0.151           -64.72204    -87.27934     99.87      1.02E+3                  971.491       23317       34.028    34.0303     7.92292            22         0.00  
1        2017-12-26    360.807955  2017-12-26T19:23:27Z    191       189.038     0.6853       0.6851         28.969706     28.971305       6.9569     6.8355    -0.0537       99.2637            0.147           -64.72204    -87.27934     99.87      1.02E+3                  972.322       23337       34.0286   34.0309     7.92263            18         0.00  
1        2017-12-26    360.807964  2017-12-26T19:23:28Z    192       190.037     0.6972       0.6964         28.982773     28.983818       6.9351     6.8228    -0.0537       99.2448            0.142           -64.72204    -87.27934     99.87      1.02E+3                  973.095       23355       34.0319   34.0342     7.92002            19         0.00  
1        2017-12-26    360.807974  2017-12-26T19:23:29Z    193       191.031     0.7585       0.7521         29.041799     29.038984       6.9083     6.7893    -0.0537       99.2386            0.137           -64.72204    -87.27934     99.87      1.02E+3                  973.965       23376       34.0406   34.0439     7.90705            24         0.00  
1        2017-12-26    360.807988  2017-12-26T19:23:30Z    194       192.013     0.8129       0.8125         29.091577     29.093061       6.8681     6.7628    -0.0537       99.2484            0.133           -64.72204    -87.27934     99.87      1.02E+3                  975.176       23405       34.0447   34.0471     7.89574            35         0.00  
1        2017-12-26    360.808007  2017-12-26T19:23:32Z    195       193.002     0.863        0.8629         29.13853      29.140149       6.837      6.7318    -0.0387       99.2565            0.129           -64.72204    -87.27934     99.87      1.02E+3                  976.765       23443       34.05     34.0522     7.8853             38         0.00  
1        2017-12-26    360.808022  2017-12-26T19:23:33Z    196       193.985     0.877        0.8764         29.15159      29.152788       6.8006     6.706     -0.0469       99.2448            0.125           -64.72204    -87.27934     99.87      1.02E+3                  978.108       23476       34.0509   34.0532     7.8824             28         0.00  
1        2017-12-26    360.808035  2017-12-26T19:23:34Z    197       194.981     0.8992       0.8982         29.173351     29.174849       6.7894     6.6824    -0.0548       99.2477            0.120           -64.72204    -87.27934     99.87      1.02E+3                  979.196       23502       34.0541   34.0572     7.87774            25         0.00  
1        2017-12-26    360.808048  2017-12-26T19:23:35Z    198       195.974     0.9285       0.928          29.200947     29.202308       6.7755     6.6662    -0.0645       99.2447            0.116           -64.72204    -87.27934     99.87      1.02E+3                  980.365       23530       34.057    34.0593     7.87165            32         0.00  
1        2017-12-26    360.808066  2017-12-26T19:23:37Z    199       196.957     0.9354       0.9351         29.208009     29.209233       6.7615     6.6517    -0.0586       99.2611            0.112           -64.72204    -87.27934     99.87      1.03E+3                  981.941       23568       34.058    34.0599     7.8702             41         0.00  
1        2017-12-26    360.808084  2017-12-26T19:23:38Z    200       197.943     0.9452       0.9445         29.217711     29.218753       6.7273     6.6249    -0.0476       99.2365            0.108           -64.72204    -87.27934     99.87      1.03E+3                  983.468       23604       34.0592   34.0613     7.86815            31         0.00  
1        2017-12-26    360.808097  2017-12-26T19:23:40Z    201       198.933     0.9588       0.9574         29.232099     29.232228       6.7181     6.6055    -0.0451       99.2476            0.103           -64.72204    -87.27934     99.87      1.02E+3                  984.587       23631       34.062    34.064      7.86526            24         0.00  
1        2017-12-26    360.808108  2017-12-26T19:23:41Z    202       199.925     0.9747       0.9748         29.248153     29.249714       6.7113     6.5982    -0.0584       99.2494            0.101           -64.72204    -87.27934     99.87      1.02E+3                  985.555       23654       34.065    34.0669     7.86189            23         0.00  
1        2017-12-26    360.80812   2017-12-26T19:23:42Z    203       200.919     0.9754       0.9754         29.249363     29.251156       6.7118     6.5864    -0.0566       99.2381            0.0972          -64.72204    -87.27934     99.87      1.02E+3                  986.543       23678       34.0652   34.0675     7.86174            25         0.00  
1        2017-12-26    360.808133  2017-12-26T19:23:43Z    204       201.908     0.982        0.9814         29.256301     29.257444       6.713      6.5766    -0.0547       99.2545            0.0941          -64.72204    -87.27934     99.87      1.03E+3                  987.706       23706       34.0663   34.0685     7.86035            31         0.00  
1        2017-12-26    360.808149  2017-12-26T19:23:44Z    205       202.892     0.9799       0.9835         29.254637     29.259433       6.7192     6.5753    -0.0478       99.2465            0.0914          -64.72204    -87.27934     99.87      1.03E+3                  989.06        23738       34.0659   34.0681     7.8608             33         0.00  
1        2017-12-26    360.808164  2017-12-26T19:23:45Z    206       203.88      0.9685       0.9709         29.245068     29.249289       6.7274     6.5863    -0.0617       99.232             0.0889          -64.72204    -87.27934     99.87      1.02E+3                  990.375       23770       34.0655   34.0682     7.86312            30         0.00  
1        2017-12-26    360.808177  2017-12-26T19:23:46Z    207       204.872     0.9517       0.9552         29.229271     29.233329       6.736      6.5793    -0.0582       99.2595            0.0851          -64.72204    -87.27934     99.87      1.02E+3                  991.526       23798       34.0629   34.0643     7.86665            26         0.00  
1        2017-12-26    360.808189  2017-12-26T19:23:48Z    208       205.857     0.9454       0.9433         29.22503      29.224907       6.739      6.5815    -0.0435       99.2493            0.0827          -64.72204    -87.27934     99.87      1.02E+3                  992.543       23822       34.0637   34.0659     7.86787            23         0.00  
1        2017-12-26    360.8082    2017-12-26T19:23:48Z    209       206.854     0.9452       0.948          29.224801     29.228952       6.7455     6.5963    -0.0493       98.7838            0.0806          -64.72204    -87.27934     99.87      1.02E+3                  993.506       23845       34.0631   34.0654     7.86795            23         0.00  
1        2017-12-26    360.808213  2017-12-26T19:23:50Z    210       207.845     0.9308       0.933          29.212189     29.215668       6.7583     6.6074    -0.0551       99.2461            0.0769          -64.72204    -87.27934     99.87      1.03E+3                  994.564       23871       34.062    34.0641     7.87092            29         0.00  
1        2017-12-26    360.808232  2017-12-26T19:23:51Z    211       208.832     0.916        0.9145         29.199308     29.199612       6.7541     6.6066    -0.0604       99.2436            0.0733          -64.72204    -87.27934     99.87      1.03E+3                  996.267       23911       34.061    34.063      7.87395            55         0.00  
1        2017-12-26    360.808257  2017-12-26T19:23:53Z    212       209.812     0.9082       0.9085         29.193726     29.195379       6.7474     6.6024    -0.0552       99.2621            0.0707          -64.72204    -87.27934     99.87      1.03E+3                  998.443       23964       34.0618   34.0636     7.87549            40         0.00  
1        2017-12-26    360.808272  2017-12-26T19:23:55Z    213       210.8       0.8998       0.896          29.186313     29.184183       6.759      6.6128    -0.0399       99.2596            0.0691          -64.72204    -87.27934     99.87      1.02E+3                  999.681       23993       34.0609   34.0622     7.87725            24         0.00  
1        2017-12-26    360.808282  2017-12-26T19:23:56Z    214       211.793     0.8839       0.884          29.172199     29.173474       6.7846     6.617     -0.054        98.9979            0.0657          -64.72204    -87.27934     99.87      1.02E+3                  1000.565      24015       34.0594   34.061      7.88054            19         0.00  
1        2017-12-26    360.808291  2017-12-26T19:23:56Z    215       212.788     0.8735       0.8665         29.163172     29.158681       6.7924     6.6218    -0.0537       98.7282            0.0644          -64.72204    -87.27932     99.87      1.02E+3                  1001.335      24033       34.0586   34.0605     7.8827             19         0.00  
1        2017-12-26    360.8083    2017-12-26T19:23:57Z    216       213.781     0.8586       0.8536         29.149691     29.146737       6.7975     6.6281    -0.0537       99.2422            0.0614          -64.72204    -87.27934     99.87      1.02E+3                  1002.142      24052       34.0569   34.0586     7.8858             21         0.00  
1        2017-12-26    360.808312  2017-12-26T19:23:58Z    217       214.771     0.8403       0.8419         29.134344     29.137433       6.8047     6.635     -0.0537       99.2555            0.0591          -64.72204    -87.27934     99.87      1.02E+3                  1003.162      24077       34.0566   34.0588     7.88953            29         0.00  
1        2017-12-26    360.808329  2017-12-26T19:24:00Z    218       215.754     0.832        0.831          29.127056     29.128142       6.7964     6.6412    -0.065        99.2193            0.0566          -64.72204    -87.27934     99.87      1.03E+3                  1004.626      24112       34.0557   34.0582     7.89127            39         0.00  
1        2017-12-26    360.808346  2017-12-26T19:24:01Z    219       216.74      0.8193       0.8205         29.116645     29.119258       6.7704     6.6284    -0.0402       99.2721            0.0535          -64.72204    -87.27934     99.87      1.03E+3                  1006.136      24148       34.0555   34.0576     7.89385            33         0.00  
1        2017-12-26    360.808361  2017-12-26T19:24:02Z    220       217.729     0.8389       0.8366         29.136336     29.136615       6.7338     6.6128    -0.0432       99.2059            0.0527          -64.72204    -87.27934     99.87      1.02E+3                  1007.392      24178       34.059    34.0618     7.8897             28         0.00  
1        2017-12-26    360.808374  2017-12-26T19:24:04Z    221       218.721     0.8575       0.8569         29.154186     29.155476       6.7196     6.5972    -0.0537       99.2612            0.0496          -64.72204    -87.27933     99.87      1.02E+3                  1008.541      24206       34.061    34.0634     7.8858             27         0.00  
1        2017-12-26    360.808388  2017-12-26T19:24:05Z    222       219.712     0.8716       0.8706         29.168474     29.169666       6.6873     6.5867    -0.0537       99.2528            0.0486          -64.72204    -87.27932     99.87      1.02E+3                  1009.724      24234       34.0635   34.0661     7.88281            30         0.00  
1        2017-12-26    360.808403  2017-12-26T19:24:06Z    223       220.7       0.8911       0.8895         29.187369     29.187745       6.6189     6.5492    -0.0537       99.2538            0.0457          -64.72204    -87.27933     99.87      1.02E+3                  1011.018      24265       34.0659   34.0682     7.87873            32         0.00  
1        2017-12-26    360.808418  2017-12-26T19:24:07Z    224       221.688     0.9529       0.9503         29.247354     29.247915       6.5354     6.4797    -0.0537       99.2635            0.0451          -64.72204    -87.27934     99.87      1.03E+3                  1012.326      24297       34.0751   34.0785     7.86575            30         0.00  
1        2017-12-26    360.808432  2017-12-26T19:24:09Z    225       222.678     1.01         1.0079         29.301485     29.301867       6.5046     6.4362    -0.0537       99.2479            0.0419          -64.72204    -87.27934     99.87      1.03E+3                  1013.549      24326       34.0816   34.0844     7.85387            29         0.00  
1        2017-12-26    360.808447  2017-12-26T19:24:10Z    226       223.668     1.0556       1.0544         29.344297     29.344978       6.4874     6.4156    -0.0537       99.2389            0.0402          -64.72204    -87.27934     99.87      1.03E+3                  1014.801      24356       34.0862   34.0884     7.84445            32         0.00  
1        2017-12-26    360.808462  2017-12-26T19:24:11Z    227       224.653     1.058        1.0576         29.346854     29.348086       6.4881     6.3828    -0.0537       99.2512            0.0380          -64.72204    -87.27934     99.87      1.03E+3                  1016.129      24388       34.0863   34.0883     7.84396            31         0.00  
1        2017-12-26    360.808476  2017-12-26T19:24:12Z    228       225.642     1.0633       1.0629         29.352367     29.353706       6.4939     6.3855    -0.0537       99.2241            0.0380          -64.72204    -87.27932     99.87      1.02E+3                  1017.328      24417       34.087    34.0892     7.84286            26         0.00  
1        2017-12-26    360.808488  2017-12-26T19:24:13Z    229       226.632     1.0692       1.0687         29.358613     29.359768       6.4826     6.3674    -0.0537       99.2743            0.0357          -64.72204    -87.27932     99.87      1.02E+3                  1018.333      24441       34.088    34.09       7.84163            22         0.00  
1        2017-12-26    360.808498  2017-12-26T19:24:14Z    230       227.625     1.0756       1.0749         29.365105     29.366005       6.4827     6.3664    -0.0537       98.8154            0.0342          -64.72204    -87.27932     99.87      1.02E+3                  1019.249      24463       34.0888   34.0907     7.84029            23         0.00  
1        2017-12-26    360.80851   2017-12-26T19:24:15Z    231       228.619     1.0825       1.0816         29.37198      29.372962       6.4763     6.3551    -0.0547       99.2253            0.0336          -64.72204    -87.27934     99.87      1.03E+3                  1020.296      24488       34.0895   34.0917     7.83887            30         0.00  
1        2017-12-26    360.80853   2017-12-26T19:24:17Z    232       229.598     1.0873       1.0855         29.377045     29.376824       6.4306     6.3374    -0.0468       99.2733            0.0304          -64.72204    -87.27934     99.87      1.03E+3                  1021.953      24528       34.0902   34.0918     7.83787            47         0.00  
1        2017-12-26    360.808549  2017-12-26T19:24:19Z    233       230.591     1.1303       1.1267         29.418423     29.416855       6.3032     6.2838    -0.0568       99.2695            0.0304          -64.72204    -87.27934     99.87      1.02E+3                  1023.669      24569       34.0957   34.0976     7.82896            32         0.00  
1        2017-12-26    360.808563  2017-12-26T19:24:20Z    234       231.578     1.1571       1.1527         29.445069     29.443161       6.1753     6.1966    -0.0571       99.2623            0.0296          -64.72204    -87.27933     99.87      1.02E+3                  1024.839      24597       34.1      34.1023     7.82336            26         0.00  
1        2017-12-26    360.808575  2017-12-26T19:24:21Z    235       232.57      1.2792       1.2707         29.564522     29.560922       6.0991     6.1175    -0.0672       99.2553            0.0266          -64.72204    -87.27932     99.87      1.03E+3                  1025.892      24622       34.119    34.1236     7.79799            26         0.00  
1        2017-12-26    360.808588  2017-12-26T19:24:22Z    236       233.557     1.3359       1.3362         29.612657     29.586496       6.0387     6.05      -0.052        99.2304            0.0264          -64.72204    -87.27932     99.87      1.03E+3                  1027.006      24649       34.1181   34.0845     7.78677            27         0.00  
1        2017-12-26    360.808601  2017-12-26T19:24:23Z    237       234.544     1.39         1.3876         29.636348     29.667264       6.0044     5.9919    -0.0417       99.2701            0.0240          -64.72204    -87.27932     99.87      1.03E+3                  1028.118      24676       34.0889   34.1308     7.77763            26         0.00  
1        2017-12-26    360.808613  2017-12-26T19:24:24Z    238       235.537     1.4472       1.4443         29.724826     29.724309       5.9862     5.9492    -0.0543       99.1697            0.0228          -64.72204    -87.27934     99.87      1.03E+3                  1029.12       24700       34.1387   34.1412     7.76365            23         0.00  
1        2017-12-26    360.808624  2017-12-26T19:24:25Z    239       236.529     1.4671       1.4659         29.743389     29.743738       5.9901     5.9326    -0.0537       99.071             0.0227          -64.72204    -87.27934     99.87      1.03E+3                  1030.128      24724       34.14     34.1417     7.75964            26         0.00  
1        2017-12-26    360.80864   2017-12-26T19:24:26Z    240       237.517     1.4779       1.4782         29.75371      29.754751       5.9824     5.9212    -0.0604       99.2395            0.0199          -64.72204    -87.27933     99.87      1.03E+3                  1031.468      24756       34.1409   34.1418     7.75748            40         0.00  
1        2017-12-26    360.80866   2017-12-26T19:24:28Z    241       238.499     1.486        1.485          29.761794     29.762066       5.9005     5.8767    -0.06         99.1645            0.0189          -64.72204    -87.27932     99.87      1.03E+3                  1033.2        24798       34.1417   34.1431     7.75582            37         0.00  
1        2017-12-26    360.808674  2017-12-26T19:24:29Z    242       239.488     1.5423       1.5384         29.817194     29.815378       5.8243     5.8202    -0.0686       99.2369            0.0188          -64.72204    -87.27932     99.87      1.03E+3                  1034.455      24828       34.1502   34.1521     7.74429            25         0.00  
1        2017-12-26    360.808686  2017-12-26T19:24:30Z    243       240.482     1.5917       1.5907         29.863959     29.864384       5.756      5.767     -0.056        99.2461            0.0171          -64.72204    -87.27932     99.87      1.03E+3                  1035.435      24851       34.1553   34.157      7.73432            23         0.00  
1        2017-12-26    360.808698  2017-12-26T19:24:32Z    244       241.476     1.6272       1.6271         29.898869     29.9007         5.6837     5.709     -0.0548       99.2524            0.0152          -64.72204    -87.27932     99.87      1.03E+3                  1036.47       24876       34.1604   34.1628     7.7271             29         0.00  
1        2017-12-26    360.808714  2017-12-26T19:24:33Z    245       242.46      1.697        1.6961         29.967108     29.965925       5.6252     5.6254    -0.0537       99.2626            0.0152          -64.72204    -87.27932     99.87      1.03E+3                  1037.853      24909       34.1704   34.1699     7.71294            37         0.00  
1        2017-12-26    360.808731  2017-12-26T19:24:34Z    246       243.443     1.7493       1.7491         30.017275     30.017814       5.6099     5.5748    -0.0546       99.2562            0.0144          -64.72204    -87.27934     99.87      1.03E+3                  1039.339      24945       34.1764   34.1773     7.70241            32         0.00  
1        2017-12-26    360.808744  2017-12-26T19:24:35Z    247       244.435     1.765        1.7647         30.03222      30.032854       5.612      5.5533    -0.0626       99.2542            0.0114          -64.72204    -87.27934     99.87      1.03E+3                  1040.507      24973       34.1777   34.1788     7.69929            25         0.00  
1        2017-12-26    360.808756  2017-12-26T19:24:37Z    248       245.427     1.7698       1.7701         30.037305     30.038484       5.6122     5.5408    -0.0639       99.2482            0.0114          -64.72204    -87.27934     99.87      1.03E+3                  1041.502      24997       34.1784   34.1795     7.69833            23         0.00  
1        2017-12-26    360.808767  2017-12-26T19:24:37Z    249       246.419     1.7776       1.7781         30.045504     30.046923       5.605      5.533     -0.0549       99.2684            0.0110          -64.72204    -87.27932     99.87      1.03E+3                  1042.509      25021       34.1797   34.1809     7.69674            26         0.00  
1        2017-12-26    360.808781  2017-12-26T19:24:39Z    250       247.407     1.7863       1.7864         30.054068     30.055039       5.5869     5.5182    -0.0625       99.2508            0.00902         -64.72204    -87.27932     99.87      1.03E+3                  1043.675      25049       34.1805   34.1816     7.69501            31         0.00  
1        2017-12-26    360.808797  2017-12-26T19:24:40Z    251       248.395     1.8014       1.8009         30.069395     30.069686       5.5438     5.4857    -0.0692       99.2638            0.00765         -64.72204    -87.27932     99.87      1.03E+3                  1045.066      25083       34.1829   34.1837     7.69195            35         0.00  
1        2017-12-26    360.808814  2017-12-26T19:24:42Z    252       249.379     1.8305       1.8302         30.098465     30.09901        5.487      5.4457    -0.0679       99.2495            0.00763         -64.72204    -87.27932     99.87      1.03E+3                  1046.534      25118       34.1874   34.1884     7.68606            33         0.00  
1        2017-12-26    360.808829  2017-12-26T19:24:43Z    253       250.37      1.8597       1.8613         30.127087     30.129544       5.4416     5.4072    -0.0544       99.2717            0.00735         -64.72204    -87.27932     99.87      1.03E+3                  1047.783      25148       34.1913   34.1926     7.6802             27         0.00  
1        2017-12-26    360.808841  2017-12-26T19:24:44Z    254       251.36      1.8888       1.8889         30.156846     30.157936       5.4207     5.3766    -0.0543       99.2744            0.00598         -64.72204    -87.27932     99.87      1.03E+3                  1048.831      25173       34.1966   34.1979     7.67428            25         0.00  
1        2017-12-26    360.808853  2017-12-26T19:24:45Z    255       252.352     1.9074       1.9074         30.175279     30.176221       5.4116     5.3543    -0.0565       99.2788            0.00392         -64.72204    -87.27932     99.87      1.03E+3                  1049.877      25198       34.199    34.2003     7.67055            26         0.00  
1        2017-12-26    360.808867  2017-12-26T19:24:46Z    256       253.341     1.9184       1.9183         30.186333     30.18685        5.3923     5.3413    -0.0681       99.2647            0.00388         -64.72204    -87.27932     99.87      1.03E+3                  1051.097      25227       34.2004   34.2013     7.66834            33         0.00  
1        2017-12-26    360.808884  2017-12-26T19:24:48Z    257       254.326     1.9298       1.93           30.198046     30.198804       5.3467     5.3036    -0.07         99.2743            0.00388         -64.72204    -87.27932     99.87      1.03E+3                  1052.585      25263       34.2023   34.203      7.66606            36         0.00  
1        2017-12-26    360.8089    2017-12-26T19:24:49Z    258       255.314     1.9728       1.9642         30.242069     30.234485       5.3257     5.2793    -0.0583       99.2585            0.00388         -64.72204    -87.27932     99.87      1.03E+3                  1053.978      25296       34.2104   34.2102     7.65732            30         0.00  
1        2017-12-26    360.808913  2017-12-26T19:24:50Z    259       256.303     1.9823       1.9811         30.251525     30.250957       5.3108     5.2552    -0.0549       99.2713            0.00298         -64.72204    -87.27932     99.87      1.03E+3                  1055.09       25323       34.2115   34.212      7.65544            25         0.00  
1        2017-12-26    360.808925  2017-12-26T19:24:51Z    260       257.294     1.9901       1.9901         30.259568     30.260315       5.2897     5.2407    -0.0658       99.2586            0.000307        -64.72204    -87.27932     99.87      1.03E+3                  1056.081      25347       34.2125   34.2135     7.65388            23         0.00  
1        2017-12-26    360.808936  2017-12-26T19:24:52Z    261       258.286     2.0041       2.004          30.274134     30.275044       5.2772     5.2201    -0.0616       99.1235            0.000140        -64.72204    -87.27932     99.87      1.03E+3                  1057.098      25371       34.2152   34.2164     7.65106            26         0.00  
1        2017-12-26    360.80895   2017-12-26T19:24:53Z    262       259.276     2.0213       2.0214         30.291362     30.292243       5.2642     5.1991    -0.0547       99.0622            0.000139        -64.72204    -87.27932     99.87      1.03E+3                  1058.277      25400       34.2176   34.2186     7.64762            31         0.00  
1        2017-12-26    360.808966  2017-12-26T19:24:55Z    263       260.26      2.035        2.0354         30.306249     30.307037       5.2631     5.1821    -0.0582       99.2512            0.000139        -64.72204    -87.27932     99.87      1.03E+3                  1059.683      25433       34.2208   34.2214     7.64481            36         0.00  
1        2017-12-26    360.808983  2017-12-26T19:24:56Z    264       261.248     2.0409       2.0415         30.312189     30.313409       5.2578     5.1713    -0.0713       99.2564            0.000130        -64.72204    -87.27932     99.87      1.03E+3                  1061.124      25468       34.2213   34.2222     7.64365            32         0.00  
1        2017-12-26    360.808997  2017-12-26T19:24:57Z    265       262.238     2.0434       2.044          30.315211     30.316338       5.2474     5.1668    -0.07         99.2688            0.0000288       -64.72204    -87.27934     99.87      1.03E+3                  1062.366      25498       34.2219   34.2226     7.64314            28         0.00  
1        2017-12-26    360.80901   2017-12-26T19:24:58Z    266       263.228     2.048        2.0484         30.320281     30.321216       5.2313     5.1572    -0.0637       99.2616            -6.73E-8        -64.72204    -87.27934     99.87      1.03E+3                  1063.461      25524       34.2227   34.2235     7.64223            25         0.00  
1        2017-12-26    360.809023  2017-12-26T19:25:00Z    267       264.22      2.0554       2.0556         30.328622     30.329561       5.2131     5.1434    -0.0616       99.2696            1.00E-12        -64.72204    -87.27934     99.87      1.03E+3                  1064.557      25550       34.2246   34.2256     7.6407             28         0.00  
1        2017-12-26    360.809037  2017-12-26T19:25:01Z    268       265.209     2.0706       2.0709         30.344638     30.345462       5.2031     5.13      -0.0704       99.2666            1.00E-12        -64.72204    -87.27933     99.87      1.03E+3                  1065.833      25581       34.2277   34.2283     7.63762            34         0.00  
1        2017-12-26    360.809055  2017-12-26T19:25:02Z    269       266.187     2.0777       2.0784         30.352478     30.35359        5.187      5.1088    -0.0704       99.2642            1.00E-12        -64.72204    -87.27932     99.87      1.03E+3                  1067.372      25618       34.2292   34.2299     7.63618            37         0.00  
1        2017-12-26    360.809071  2017-12-26T19:25:04Z    270       267.186     2.0828       2.0832         30.35838      30.359216       5.1761     5.1012    -0.0689       99.253             1.00E-12        -64.72204    -87.27932     99.87      1.03E+3                  1068.712      25650       34.2305   34.2312     7.63513            27         0.00  
1        2017-12-26    360.809082  2017-12-26T19:25:05Z    271       268.167     2.0869       2.0871         30.363103     30.363649       5.1631     5.0842    -0.0705       99.2551            1.00E-12        -64.72204    -87.27932     99.87      1.03E+3                  1069.686      25673       34.2315   34.2319     7.6343             21         0.00  
1        2017-12-26    360.809092  2017-12-26T19:25:06Z    272       269.164     2.0922       2.0927         30.369538     30.370603       5.1556     5.0796    -0.0535       99.2166            1.00E-12        -64.72204    -87.27932     99.87      1.03E+3                  1070.508      25693       34.2332   34.234      7.63319            19         0.00  
1        2017-12-26    360.809101  2017-12-26T19:25:06Z    273       270.157     2.0991       2.0996         30.377211     30.378231       5.1491     5.071     -0.0537       99.2408            1.00E-12        -64.72204    -87.27932     99.87      1.03E+3                  1071.361      25714       34.2348   34.2359     7.63179            23         0.00  
1        2017-12-26    360.809116  2017-12-26T19:25:08Z    274       271.145     2.1079       2.1082         30.3861       30.386798       5.1434     5.0642    -0.0582       99.2449            1.00E-12        -64.72204    -87.27932     99.87      1.03E+3                  1072.663      25745       34.2359   34.2364     7.63004            43         0.00  
1        2017-12-26    360.809139  2017-12-26T19:25:10Z    275       272.125     2.1123       2.113          30.391343     30.392539       5.1163     5.0429    -0.0699       99.184             1.00E-12        -64.72204    -87.27934     99.87      1.03E+3                  1074.591      25791       34.2371   34.2379     7.62914            42         0.00  
1        2017-12-26    360.809155  2017-12-26T19:25:11Z    276       273.114     2.1226       2.1225         30.402904     30.403281       5.0882     5.0228    -0.0565       99.2444            1.00E-12        -64.72204    -87.27934     99.87      1.03E+3                  1076.026      25826       34.2399   34.2404     7.62702            29         0.00  
1        2017-12-26    360.809168  2017-12-26T19:25:12Z    277       274.103     2.1346       2.1351         30.416102     30.417096       5.0899     5.0103    -0.0716       99.2467            1.00E-12        -64.72204    -87.27934     99.87      1.03E+3                  1077.145      25852       34.2428   34.2435     7.62456            25         0.00  
1        2017-12-26    360.80918   2017-12-26T19:25:13Z    278       275.095     2.1393       2.1398         30.42098      30.421976       5.094      5.0014    -0.0561       99.2575            1.00E-12        -64.72204    -87.27934     99.87      1.03E+3                  1078.152      25877       34.2433   34.244      7.62365            24         0.00  
1        2017-12-26    360.809192  2017-12-26T19:25:14Z    279       276.087     2.1398       2.1404         30.421994     30.42315        5.0889     5.0064    -0.0537       99.2259            1.00E-12        -64.72204    -87.27932     99.87      1.03E+3                  1079.149      25901       34.2434   34.2442     7.62354            25         0.00  
1        2017-12-26    360.809204  2017-12-26T19:25:15Z    280       277.077     2.1403       2.1408         30.422918     30.423958       5.0972     5.0002    -0.0542       99.2499            1.00E-12        -64.72204    -87.27932     99.87      1.03E+3                  1080.263      25927       34.2435   34.2442     7.62345            30         0.00  
1        2017-12-26    360.809222  2017-12-26T19:25:17Z    281       278.063     2.1392       2.14           30.422383     30.423616       5.1012     5.0008    -0.0597       99.244             1.00E-12        -64.72204    -87.27934     99.87      1.03E+3                  1081.767      25963       34.2434   34.2441     7.62365            41         0.00  
1        2017-12-26    360.809241  2017-12-26T19:25:18Z    282       279.046     2.1355       2.1362         30.419533     30.420603       5.0577     4.9906    -0.0691       99.1489            1.00E-12        -64.72204    -87.27934     99.87      1.03E+3                  1083.403      26003       34.2433   34.2439     7.62437            34         0.00  
1        2017-12-26    360.809255  2017-12-26T19:25:20Z    283       280.035     2.1447       2.1445         30.430197     30.43082        5.0151     4.9627    -0.0684       99.2422            1.00E-12        -64.72204    -87.27934     99.87      1.03E+3                  1084.595      26031       34.2462   34.2471     7.62247            25         0.00  
1        2017-12-26    360.809265  2017-12-26T19:25:20Z    284       281.024     2.1672       2.1669         30.454355     30.45489        4.997      4.9414    -0.0684       99.241             1.00E-12        -64.72204    -87.27934     99.87      1.03E+3                  1085.528      26054       34.2515   34.2524     7.61789            21         0.00  
1        2017-12-26    360.809275  2017-12-26T19:25:21Z    285       282.018     2.1865       2.1871         30.474454     30.475597       4.9906     4.9242    -0.0684       99.2562            1.00E-12        -64.72204    -87.27934     99.87      1.03E+3                  1086.37       26074       34.2552   34.256      7.61401            19         0.00  
1        2017-12-26    360.809285  2017-12-26T19:25:22Z    286       283.01      2.197        2.1975         30.484585     30.485493       4.9878     4.9136    -0.0669       99.2443            1.00E-12        -64.72204    -87.27932     99.87      1.03E+3                  1087.22       26094       34.2558   34.2564     7.61196            22         0.00  
1        2017-12-26    360.809296  2017-12-26T19:25:23Z    287       284.002     2.2016       2.2015         30.489644     30.487418       4.9894     4.9044    -0.0542       99.2216            1.00E-12        -64.72204    -87.27934     99.87      1.03E+3                  1088.208      26118       34.2566   34.254      7.61104            27         0.00  
1        2017-12-26    360.809315  2017-12-26T19:25:25Z    288       284.987     2.2056       2.2062         30.493942     30.494574       4.9828     4.9003    -0.0631       99.2238            1.00E-12        -64.72204    -87.27934     99.87      1.03E+3                  1089.807      26156       34.2572   34.2573     7.61026            52         0.00  
1        2017-12-26    360.80934   2017-12-26T19:25:27Z    289       285.967     2.2132       2.2136         30.50265      30.503485       4.9379     4.872     -0.0549       99.2405            1.00E-12        -64.72204    -87.27934     99.87      1.03E+3                  1092.004      26209       34.2593   34.2599     7.6087             43         0.00  
1        2017-12-26    360.809356  2017-12-26T19:25:28Z    290       286.957     2.2286       2.229          30.520239     30.521177       4.9113     4.8444    -0.0655       99.2385            1.00E-12        -64.72204    -87.27934     99.87      1.03E+3                  1093.39       26242       34.264    34.2647     7.60551            27         0.00  
1        2017-12-26    360.809368  2017-12-26T19:25:29Z    291       287.947     2.2399       2.2404         30.533291     30.534413       4.894      4.8286    -0.0581       99.2436            1.00E-12        -64.72204    -87.27934     99.87      1.03E+3                  1094.383      26266       34.2675   34.2683     7.60318            23         0.00  
1        2017-12-26    360.809378  2017-12-26T19:25:30Z    292       288.938     2.2529       2.2532         30.548571     30.549238       4.8917     4.8157    -0.0545       99.2386            1.00E-12        -64.72204    -87.27932     99.87      1.03E+3                  1095.276      26288       34.272    34.2725     7.60048            21         0.00  
1        2017-12-26    360.809389  2017-12-26T19:25:31Z    293       289.935     2.2548       2.2554         30.551301     30.552316       4.895      4.8098    -0.0609       99.245             1.00E-12        -64.72204    -87.27934     99.87      1.03E+3                  1096.207      26310       34.2727   34.2734     7.60008            24         0.00  
1        2017-12-26    360.809402  2017-12-26T19:25:32Z    294       290.918     2.2545       2.255          30.55156      30.552534       4.8971     4.8046    -0.0701       99.2378            1.00E-12        -64.72204    -87.27934     99.87      1.03E+3                  1097.33       26337       34.2728   34.2735     7.60012            30         0.00  
1        2017-12-26    360.809418  2017-12-26T19:25:34Z    295       291.907     2.2543       2.2549         30.551735     30.552867       4.8951     4.8015    -0.0706       99.2369            1.00E-12        -64.72205    -87.27934     99.87      1.03E+3                  1098.677      26369       34.2727   34.2735     7.60017            33         0.00  
1        2017-12-26    360.809433  2017-12-26T19:25:35Z    296       292.892     2.2542       2.2548         30.55228      30.553362       4.8902     4.7905    -0.0572       99.2303            1.00E-12        -64.72206    -87.27934     99.87      1.03E+3                  1100.027      26402       34.2729   34.2737     7.60018            31         0.00  
1        2017-12-26    360.809447  2017-12-26T19:25:36Z    297       293.881     2.2549       2.2554         30.55405      30.555178       4.8754     4.788     -0.0684       99.2399            1.00E-12        -64.72206    -87.27934     99.87      1.03E+3                  1101.189      26430       34.2738   34.2747     7.59999            26         0.00  
1        2017-12-26    360.809459  2017-12-26T19:25:37Z    298       294.872     2.2558       2.2563         30.556098     30.557287       4.8622     4.774     -0.0572       99.2435            1.00E-12        -64.72206    -87.27934     99.87      1.03E+3                  1102.249      26455       34.2748   34.2758     7.59977            25         0.00  
1        2017-12-26    360.809472  2017-12-26T19:25:38Z    299       295.863     2.2573       2.2577         30.558525     30.559485       4.8521     4.7672    -0.0553       99.2344            1.00E-12        -64.72206    -87.27934     99.87      1.03E+3                  1103.354      26481       34.2757   34.2765     7.59945            28         0.00  
1        2017-12-26    360.809486  2017-12-26T19:25:40Z    300       296.851     2.262        2.2622         30.565046     30.565975       4.8415     4.7653    -0.0702       99.2296            1.00E-12        -64.72206    -87.27934     99.87      1.03E+3                  1104.574      26511       34.2782   34.2791     7.59843            31         0.00  
1        2017-12-26    360.809502  2017-12-26T19:25:41Z    301       297.84      2.2652       2.2655         30.56928      30.570291       4.8297     4.7505    -0.0663       99.2343            1.00E-12        -64.72206    -87.27934     99.87      1.03E+3                  1105.927      26543       34.2795   34.2804     7.59775            34         0.00  
1        2017-12-26    360.809519  2017-12-26T19:25:42Z    302       298.827     2.2748       2.2749         30.580771     30.581538       4.8133     4.7352    -0.0548       99.2344            1.00E-12        -64.72206    -87.27934     99.87      1.03E+3                  1107.458      26580       34.2828   34.2836     7.59575            39         0.00  
1        2017-12-26    360.809536  2017-12-26T19:25:44Z    303       299.811     2.2858       2.2861         30.593431     30.594438       4.8027     4.7235    -0.0546       99.233             1.00E-12        -64.72206    -87.27934     99.87      1.03E+3                  1108.946      26616       34.2861   34.287      7.59348            31         0.00  
1        2017-12-26    360.80955   2017-12-26T19:25:45Z    304       300.801     2.2905       2.2907         30.599757     30.600821       4.8017     4.7121    -0.0549       99.2427            1.00E-12        -64.72206    -87.27934     99.87      1.03E+3                  1110.115      26644       34.2884   34.2895     7.59248            25         0.00  
1        2017-12-26    360.809561  2017-12-26T19:25:46Z    305       301.794     2.292        2.2923         30.601916     30.603006       4.8067     4.7133    -0.0684       99.2459            1.00E-12        -64.72206    -87.27934     99.87      1.03E+3                  1111.084      26667       34.289    34.2899     7.59217            23         0.00  
1        2017-12-26    360.809572  2017-12-26T19:25:47Z    306       302.786     2.2934       2.2936         30.604224     30.605151       4.8067     4.7148    -0.0696       99.2441            1.00E-12        -64.72206    -87.27934     99.87      1.03E+3                  1112.039      26690       34.2897   34.2907     7.59186            24         0.00  
1        2017-12-26    360.809585  2017-12-26T19:25:48Z    307       303.776     2.3004       2.3006         30.612928     30.614003       4.805      4.7109    -0.0698       99.2446            1.00E-12        -64.72206    -87.27934     99.87      1.03E+3                  1113.181      26717       34.2924   34.2936     7.59038            32         0.00  
1        2017-12-26    360.809603  2017-12-26T19:25:50Z    308       304.757     2.3038       2.3042         30.617374     30.618509       4.801      4.7071    -0.0648       99.2426            1.00E-12        -64.72206    -87.27934     99.87      1.03E+3                  1114.666      26753       34.2937   34.2947     7.58967            37         0.00  
1        2017-12-26    360.809619  2017-12-26T19:25:51Z    309       305.744     2.3054       2.3056         30.619845     30.620917       4.7866     4.6958    -0.055        99.2574            1.00E-12        -64.72206    -87.27934     99.87      1.03E+3                  1116.087      26787       34.2946   34.2957     7.58933            30         0.00  
1        2017-12-26    360.809632  2017-12-26T19:25:52Z    310       306.734     2.3086       2.3088         30.624946     30.625973       4.7727     4.6987    -0.0615       99.2385            1.00E-12        -64.72206    -87.27934     99.87      1.03E+3                  1117.187      26813       34.2968   34.2979     7.58859            23         0.00  
1        2017-12-26    360.809643  2017-12-26T19:25:53Z    311       307.725     2.3119       2.3121         30.629818     30.63078        4.7693     4.6886    -0.0644       99.2491            1.00E-12        -64.72206    -87.27934     99.87      1.03E+3                  1118.111      26836       34.2988   34.2998     7.58787            22         0.00  
1        2017-12-26    360.809653  2017-12-26T19:25:54Z    312       308.72      2.3132       2.3135         30.631889     30.632963       4.7694     4.6777    -0.0576       99.2356            1.00E-12        -64.72206    -87.27934     99.87      1.03E+3                  1119.031      26858       34.2994   34.3004     7.58759            23         0.00  
1        2017-12-26    360.809666  2017-12-26T19:25:55Z    313       309.709     2.3139       2.3143         30.633002     30.634204       4.7671     4.6789    -0.0696       99.2399            1.00E-12        -64.72206    -87.27934     99.87      1.03E+3                  1120.159      26885       34.2995   34.3005     7.58746            33         0.00  
1        2017-12-26    360.809688  2017-12-26T19:25:57Z    314       310.692     2.3145       2.3148         30.634167     30.63522        4.7679     4.6776    -0.0625       99.2519            1.00E-12        -64.72206    -87.27934     99.87      1.03E+3                  1122.017      26929       34.2998   34.3007     7.58734            53         0.00  
1        2017-12-26    360.809709  2017-12-26T19:25:59Z    315       311.673     2.3177       2.3171         30.638906     30.63904        4.7526     4.6617    -0.0637       99.2439            1.00E-12        -64.72206    -87.27934     99.87      1.03E+3                  1123.83       26973       34.3016   34.3023     7.58662            31         0.00  
1        2017-12-26    360.809721  2017-12-26T19:26:00Z    316       312.664     2.3197       2.3198         30.642226     30.643027       4.7429     4.652     -0.063        99.2479            1.00E-12        -64.72206    -87.27934     99.87      1.03E+3                  1124.891      26998       34.303    34.3039     7.58617            22         0.00  
1        2017-12-26    360.809731  2017-12-26T19:26:01Z    317       313.654     2.3204       2.3205         30.643497     30.644396       4.7341     4.6492    -0.0661       99.265             1.00E-12        -64.72206    -87.27934     99.87      1.03E+3                  1125.722      27018       34.3033   34.3043     7.58603            19         0.00  
1        2017-12-26    360.80974   2017-12-26T19:26:02Z    318       314.652     2.3199       2.3206         30.643673     30.644967       4.7281     4.645     -0.0561       99.2434            1.00E-12        -64.72206    -87.27934     99.87      1.03E+3                  1126.504      27037       34.3035   34.3044     7.58611            20         0.00  
1        2017-12-26    360.809751  2017-12-26T19:26:02Z    319       315.647     2.3178       2.318          30.642181     30.643299       4.7195     4.6339    -0.0553       99.2348            1.00E-12        -64.72206    -87.27934     99.87      1.03E+3                  1127.475      27060       34.3034   34.3045     7.58652            29         0.00  
1        2017-12-26    360.809772  2017-12-26T19:26:04Z    320       316.623     2.3154       2.3158         30.640587     30.64186        4.7169     4.622     -0.0693       99.2429            1.00E-12        -64.72206    -87.27934     99.87      1.03E+3                  1129.334      27105       34.3034   34.3045     7.58698            55         0.00  
1        2017-12-26    360.809793  2017-12-26T19:26:06Z    321       317.606     2.3149       2.3151         30.640892     30.642091       4.6917     4.6107    -0.0699       99.2549            1.00E-12        -64.72206    -87.27934     99.87      1.03E+3                  1131.123      27148       34.3037   34.305      7.58704            30         0.00  
1        2017-12-26    360.809805  2017-12-26T19:26:07Z    322       318.595     2.3192       2.3193         30.647099     30.648146       4.6835     4.5974    -0.0677       99.2486            1.00E-12        -64.72206    -87.27934     99.87      1.03E+3                  1132.165      27173       34.3062   34.3074     7.58609            22         0.00  
1        2017-12-26    360.809815  2017-12-26T19:26:08Z    323       319.587     2.3222       2.3226         30.651285     30.652651       4.6842     4.5941    -0.0553       99.2563            1.00E-12        -64.72206    -87.27934     99.87      1.03E+3                  1133.015      27193       34.3077   34.3089     7.58546            20         0.00  
1        2017-12-26    360.809824  2017-12-26T19:26:09Z    324       320.582     2.3241       2.3244         30.653958     30.655226       4.6814     4.5901    -0.0537       99.2508            1.00E-12        -64.72206    -87.27934     99.87      1.03E+3                  1133.821      27213       34.3084   34.3096     7.58506            19         0.00  
1        2017-12-26    360.809834  2017-12-26T19:26:10Z    325       321.574     2.3271       2.3274         30.658356     30.659519       4.6844     4.595     -0.0631       99.2482            1.00E-12        -64.72206    -87.27934     99.87      1.03E+3                  1134.694      27234       34.31     34.3112     7.5844             23         0.00  
1        2017-12-26    360.809847  2017-12-26T19:26:11Z    326       322.561     2.33         2.3304         30.661751     30.663013       4.6905     4.5891    -0.0611       99.2536            1.00E-12        -64.72206    -87.27934     99.87      1.03E+3                  1135.815      27261       34.3106   34.3118     7.58383            32         0.00  
1        2017-12-26    360.809865  2017-12-26T19:26:12Z    327       323.548     2.3314       2.3319         30.664122     30.665375       4.6845     4.5827    -0.0549       99.2475            1.00E-12        -64.72205    -87.27934     99.87      1.03E+3                  1137.366      27298       34.3114   34.3125     7.58351            42         0.00  
1        2017-12-26    360.809887  2017-12-26T19:26:14Z    328       324.531     2.3325       2.3328         30.666401     30.667571       4.6696     4.5763    -0.0568       99.2178            1.00E-12        -64.72206    -87.27934     99.87      1.03E+3                  1139.201      27342       34.3125   34.3137     7.58325            43         0.00  
1        2017-12-26    360.809905  2017-12-26T19:26:16Z    329       325.518     2.3334       2.3338         30.668059     30.66942        4.6525     4.565     -0.056        99.2478            1.00E-12        -64.72206    -87.27934     99.87      1.03E+3                  1140.764      27379       34.3131   34.3143     7.58305            31         0.00  
1        2017-12-26    360.809918  2017-12-26T19:26:17Z    330       326.506     2.3374       2.3371         30.673388     30.674171       4.6393     4.564     -0.0692       99.2456            1.00E-12        -64.72205    -87.27934     99.87      1.03E+3                  1141.899      27407       34.3149   34.3161     7.58221            25         0.00  
1        2017-12-26    360.809929  2017-12-26T19:26:18Z    331       327.5       2.3483       2.3481         30.687152     30.687947       4.6347     4.5527    -0.0697       99.2587            1.00E-12        -64.72204    -87.27934     99.87      1.03E+3                  1142.882      27430       34.3196   34.3209     7.57989            23         0.00  
1        2017-12-26    360.809941  2017-12-26T19:26:19Z    332       328.49      2.3541       2.3541         30.693969     30.694954       4.6337     4.55      -0.0561       99.2595            1.00E-12        -64.72204    -87.27934     99.87      1.03E+3                  1143.872      27454       34.3212   34.3225     7.5787             25         0.00  
1        2017-12-26    360.809953  2017-12-26T19:26:20Z    333       329.478     2.356        2.3562         30.696638     30.697915       4.6276     4.5414    -0.0553       99.2524            1.00E-12        -64.72204    -87.27934     99.87      1.03E+3                  1144.947      27480       34.322    34.3234     7.57831            27         0.00  
1        2017-12-26    360.809966  2017-12-26T19:26:21Z    334       330.464     2.357        2.3571         30.698432     30.699625       4.6195     4.536     -0.0678       99.2455            1.00E-12        -64.72204    -87.27934     99.87      1.03E+3                  1146.076      27507       34.3226   34.3239     7.57809            27         0.00  
1        2017-12-26    360.809979  2017-12-26T19:26:22Z    335       331.455     2.3586       2.3588         30.70122      30.702435       4.6153     4.5301    -0.0565       99.2474            1.00E-12        -64.72204    -87.27936     99.87      1.03E+3                  1147.2        27534       34.3238   34.3251     7.57773            27         0.00  
1        2017-12-26    360.809992  2017-12-26T19:26:23Z    336       332.443     2.361        2.3612         30.704984     30.706243       4.6113     4.5232    -0.0543       99.2571            1.00E-12        -64.72204    -87.27936     99.87      1.03E+3                  1148.316      27561       34.3253   34.3266     7.57719            27         0.00  
1        2017-12-26    360.810006  2017-12-26T19:26:25Z    337       333.435     2.3629       2.3631         30.708024     30.709245       4.609      4.5111    -0.0676       99.2622            1.00E-12        -64.72204    -87.27936     99.87      1.03E+3                  1149.509      27589       34.3265   34.3278     7.57677            31         0.00  
1        2017-12-26    360.810024  2017-12-26T19:26:26Z    338       334.421     2.3641       2.3645         30.710539     30.711833       4.6039     4.5089    -0.0629       99.2652            1.00E-12        -64.72204    -87.27936     99.87      1.03E+3                  1151.098      27627       34.3277   34.3288     7.57647            45         0.00  
1        2017-12-26    360.810045  2017-12-26T19:26:28Z    339       335.405     2.3651       2.3655         30.712539     30.713814       4.5927     4.497     -0.0682       99.2639            1.00E-12        -64.72204    -87.27936     99.87      1.03E+3                  1152.85       27669       34.3286   34.3298     7.57625            35         0.00  
1        2017-12-26    360.810058  2017-12-26T19:26:29Z    340       336.39      2.3638       2.3642         30.712559     30.713836       4.5865     4.4895    -0.054        99.2595            1.00E-12        -64.72204    -87.27936     99.87      1.03E+3                  1154.045      27698       34.3294   34.3306     7.57644            24         0.00  
1        2017-12-26    360.810069  2017-12-26T19:26:30Z    341       337.384     2.3642       2.3645         30.713942     30.715317       4.5839     4.4927    -0.0544       99.2308            1.00E-12        -64.72204    -87.27936     99.87      1.03E+3                  1154.94       27720       34.3301   34.3315     7.57633            20         0.00  
1        2017-12-26    360.810078  2017-12-26T19:26:31Z    342       338.372     2.3652       2.3656         30.715835     30.717154       4.5754     4.4844    -0.0668       99.2563            1.00E-12        -64.72204    -87.27936     99.87      1.03E+3                  1155.749      27739       34.3309   34.3321     7.5761             19         0.00  
1        2017-12-26    360.810089  2017-12-26T19:26:32Z    343       339.375     2.3662       2.3664         30.717413     30.718754       4.5739     4.484     -0.0602       99.2672            1.00E-12        -64.72204    -87.27936     99.87      1.03E+3                  1156.654      27761       34.3312   34.3326     7.5759             26         0.00  
1        2017-12-26    360.810108  2017-12-26T19:26:33Z    344       340.354     2.3662       2.3666         30.718184     30.719476       4.5715     4.4772    -0.0599       99.245             1.00E-12        -64.72204    -87.27936     99.87      1.03E+3                  1158.35       27801       34.3316   34.3327     7.57588            57         0.00  
1        2017-12-26    360.810131  2017-12-26T19:26:35Z    345       341.331     2.3665       2.3669         30.719281     30.720584       4.5442     4.4686    -0.0688       99.2543            1.00E-12        -64.72204    -87.27936     99.87      1.03E+3                  1160.362      27850       34.3321   34.3333     7.5758             32         0.00  
1        2017-12-26    360.810143  2017-12-26T19:26:36Z    346       342.321     2.3696       2.3697         30.724234     30.725361       4.5249     4.4523    -0.0542       99.2672            1.00E-12        -64.72204    -87.27936     99.87      1.03E+3                  1161.373      27874       34.3344   34.3356     7.5751             20         0.00  
1        2017-12-26    360.810152  2017-12-26T19:26:37Z    347       343.311     2.372        2.3723         30.728198     30.729459       4.5148     4.4466    -0.0545       99.2488            1.00E-12        -64.72204    -87.27936     99.87      1.03E+3                  1162.149      27893       34.3361   34.3373     7.57455            18         0.00  
1        2017-12-26    360.81016   2017-12-26T19:26:38Z    348       344.311     2.3739       2.3743         30.732012     30.733151       4.5042     4.439     -0.0537       99.27              1.00E-12        -64.72204    -87.27936     99.87      1.03E+3                  1162.859      27910       34.3382   34.3392     7.57408            17         0.00  
1        2017-12-26    360.81017   2017-12-26T19:26:39Z    349       345.305     2.3734       2.3738         30.733276     30.734554       4.502      4.4321    -0.0537       99.2569            1.00E-12        -64.72204    -87.27936     99.87      1.03E+3                  1163.65       27929       34.3398   34.3409     7.5741             22         0.00  
1        2017-12-26    360.810187  2017-12-26T19:26:40Z    350       346.288     2.3727       2.3731         30.733191     30.734619       4.499      4.4191    -0.0612       99.2582            1.00E-12        -64.72204    -87.27936     99.87      1.03E+3                  1165.121      27964       34.3398   34.3412     7.57422            52         0.00  
1        2017-12-26    360.810215  2017-12-26T19:26:43Z    351       347.264     2.3724       2.3727         30.733653     30.735039       4.484      4.4038    -0.0608       99.2836            1.00E-12        -64.72204    -87.27936     99.87      1.03E+3                  1167.597      28023       34.3402   34.3415     7.57426            45         0.00  
1        2017-12-26    360.81023   2017-12-26T19:26:44Z    352       348.254     2.3703       2.3707         30.733115     30.734537       4.4777     4.3986    -0.0698       99.2743            1.00E-12        -64.72204    -87.27936     99.87      1.03E+3                  1168.872      28054       34.3412   34.3425     7.5746             25         0.00  
1        2017-12-26    360.810241  2017-12-26T19:26:45Z    353       349.241     2.3647       2.3652         30.729114     30.730742       4.4746     4.3933    -0.0612       99.2703            1.00E-12        -64.72204    -87.27936     99.87      1.03E+3                  1169.771      28076       34.3418   34.3432     7.57564            19         0.00  
1        2017-12-26    360.810249  2017-12-26T19:26:46Z    354       350.238     2.3632       2.3634         30.728943     30.730205       4.4783     4.3854    -0.056        99.245             1.00E-12        -64.72204    -87.27936     99.87      1.03E+3                  1170.544      28094       34.3426   34.344      7.57588            19         0.00  
1        2017-12-26    360.810259  2017-12-26T19:26:46Z    355       351.233     2.3629       2.3636         30.729648     30.731259       4.4717     4.3858    -0.0537       99.2456            1.00E-12        -64.72204    -87.27936     99.87      1.03E+3                  1171.339      28113       34.3432   34.3444     7.5759             20         0.00  
1        2017-12-26    360.81027   2017-12-26T19:26:47Z    356       352.221     2.3634       2.3639         30.730578     30.732162       4.4652     4.3841    -0.0537       99.2541            1.00E-12        -64.72204    -87.27936     99.87      1.03E+3                  1172.33       28137       34.3433   34.3447     7.5758             29         0.00  
1        2017-12-26    360.810288  2017-12-26T19:26:49Z    357       353.203     2.3599       2.36           30.728916     30.730149       4.4581     4.37      -0.0537       99.2628            1.00E-12        -64.72204    -87.27936     99.87      1.03E+3                  1173.864      28174       34.3445   34.3458     7.57641            44         0.00  
1        2017-12-26    360.810308  2017-12-26T19:26:51Z    358       354.187     2.3638       2.3638         30.734941     30.735988       4.4368     4.358     -0.055        99.2592            1.00E-12        -64.72204    -87.27936     99.87      1.03E+3                  1175.59       28215       34.3471   34.3484     7.57552            35         0.00  
1        2017-12-26    360.810322  2017-12-26T19:26:52Z    359       355.175     2.3669       2.3669         30.739121     30.740471       4.4285     4.3416    -0.0542       99.2079            1.00E-12        -64.72204    -87.27936     99.87      1.03E+3                  1176.857      28246       34.3485   34.3501     7.57488            27         0.00  
1        2017-12-26    360.810334  2017-12-26T19:26:53Z    360       356.168     2.3673       2.3673         30.740616     30.741774       4.4215     4.3519    -0.0537       99.2553            1.00E-12        -64.72204    -87.27936     99.87      1.03E+3                  1177.88       28270       34.3493   34.3507     7.57475            23         0.00  
1        2017-12-26    360.810346  2017-12-26T19:26:54Z    361       357.158     2.372        2.3718         30.746967     30.74804        4.4178     4.3398    -0.0677       99.2614            1.00E-12        -64.72204    -87.27936     99.87      1.03E+3                  1178.885      28294       34.3515   34.3531     7.57374            26         0.00  
1        2017-12-26    360.81036   2017-12-26T19:26:55Z    362       358.149     2.3783       2.3781         30.754741     30.75575        4.4209     4.3332    -0.0571       99.2572            1.00E-12        -64.72204    -87.27936     99.87      1.03E+3                  1180.084      28323       34.3538   34.3554     7.57243            32         0.00  
1        2017-12-26    360.810376  2017-12-26T19:26:56Z    363       359.133     2.3843       2.3844         30.762451     30.763712       4.414      4.32      -0.0536       99.275             1.00E-12        -64.72204    -87.27936     99.87      1.03E+3                  1181.53       28358       34.3564   34.3579     7.57117            35         0.00  
1        2017-12-26    360.810392  2017-12-26T19:26:58Z    364       360.118     2.3862       2.3865         30.765524     30.76686        4.4052     4.3187    -0.0617       99.2608            1.00E-12        -64.72204    -87.27936     99.87      1.03E+3                  1182.841      28389       34.3575   34.359      7.57074            28         0.00  
1        2017-12-26    360.810404  2017-12-26T19:26:59Z    365       361.107     2.3876       2.3877         30.767557     30.769003       4.3906     4.3107    -0.064        99.2586            1.00E-12        -64.72204    -87.27936     99.87      1.03E+3                  1183.891      28414       34.358    34.3597     7.57045            23         0.00  
1        2017-12-26    360.810415  2017-12-26T19:27:00Z    366       362.104     2.3885       2.3886         30.769258     30.770623       4.3812     4.3053    -0.0543       99.2489            1.00E-12        -64.72204    -87.27936     99.87      1.03E+3                  1184.87       28438       34.3586   34.3602     7.57025            25         0.00  
1        2017-12-26    360.810429  2017-12-26T19:27:01Z    367       363.091     2.3912       2.3913         30.773418     30.77471        4.3636     4.2989    -0.0607       99.2656            1.00E-12        -64.72204    -87.27936     99.87      1.03E+3                  1186.052      28466       34.3603   34.3618     7.56965            33         0.00  
1        2017-12-26    360.810446  2017-12-26T19:27:03Z    368       364.074     2.3937       2.3938         30.777408     30.778535       4.3427     4.2757    -0.0685       99.2531            1.00E-12        -64.72204    -87.27936     99.87      1.03E+3                  1187.549      28502       34.362    34.3633     7.56909            36         0.00  
1        2017-12-26    360.810462  2017-12-26T19:27:04Z    369       365.062     2.3963       2.3964         30.781497     30.78286        4.3357     4.2673    -0.0566       99.2769            1.00E-12        -64.72204    -87.27936     99.87      1.03E+3                  1188.906      28535       34.3638   34.3653     7.56852            30         0.00  
1        2017-12-26    360.810475  2017-12-26T19:27:05Z    370       366.052     2.3983       2.3981         30.784647     30.785673       4.3276     4.2541    -0.0683       99.2741            1.00E-12        -64.72204    -87.27936     99.87      1.03E+3                  1190.076      28563       34.365    34.3664     7.56809            27         0.00  
1        2017-12-26    360.810489  2017-12-26T19:27:06Z    371       367.042     2.4009       2.401          30.78839      30.789774       4.3326     4.2528    -0.0674       99.2655            1.00E-12        -64.72204    -87.27936     99.87      1.03E+3                  1191.253      28591       34.3661   34.3678     7.56752            29         0.00  
1        2017-12-26    360.810503  2017-12-26T19:27:07Z    372       368.029     2.4024       2.4025         30.790725     30.792024       4.3265     4.2414    -0.054        99.2697            1.00E-12        -64.72204    -87.27936     99.87      1.03E+3                  1192.493      28621       34.367    34.3685     7.5672             30         0.00  
1        2017-12-26    360.810517  2017-12-26T19:27:09Z    373       369.016     2.4036       2.4036         30.792765     30.794057       4.3191     4.2407    -0.0548       99.2783            1.00E-12        -64.72204    -87.27936     99.87      1.03E+3                  1193.693      28650       34.3676   34.3692     7.56694            28         0.00  
1        2017-12-26    360.81053   2017-12-26T19:27:10Z    374       370.004     2.4043       2.4045         30.79428      30.79564        4.3233     4.2359    -0.0592       99.2786            1.00E-12        -64.72204    -87.27936     99.87      1.03E+3                  1194.775      28676       34.3682   34.3697     7.56678            24         0.00  
1        2017-12-26    360.810541  2017-12-26T19:27:11Z    375       370.995     2.4058       2.4059         30.797117     30.798466       4.3158     4.2326    -0.069        99.2785            1.00E-12        -64.72204    -87.27936     99.87      1.03E+3                  1195.774      28700       34.3695   34.3711     7.56642            24         0.00  
1        2017-12-26    360.810553  2017-12-26T19:27:12Z    376       371.987     2.4072       2.4072         30.799383     30.800767       4.3114     4.2257    -0.07         99.2644            1.00E-12        -64.72204    -87.27937     99.87      1.03E+3                  1196.817      28725       34.3703   34.372      7.56613            27         0.00  
1        2017-12-26    360.810568  2017-12-26T19:27:13Z    377       372.973     2.4087       2.4088         30.801983     30.803311       4.2985     4.2236    -0.0634       99.2654            1.00E-12        -64.72204    -87.27938     99.87      1.03E+3                  1198.108      28756       34.3713   34.3728     7.56578            35         0.00  
1        2017-12-26    360.810585  2017-12-26T19:27:15Z    378       373.959     2.411        2.411          30.805749     30.806976       4.2925     4.2114    -0.0649       99.2752            1.00E-12        -64.72204    -87.27938     99.87      1.03E+3                  1199.565      28791       34.3729   34.3744     7.56527            34         0.00  
1        2017-12-26    360.810601  2017-12-26T19:27:16Z    379       374.945     2.4129       2.4131         30.809237     30.810644       4.2896     4.208     -0.0699       99.2732            1.00E-12        -64.72204    -87.27938     99.87      1.03E+3                  1200.895      28822       34.3747   34.3762     7.56482            30         0.00  
1        2017-12-26    360.810616  2017-12-26T19:27:17Z    380       375.941     2.4132       2.4133         30.810734     30.812132       4.2798     4.2028    -0.0583       99.2685            1.00E-12        -64.72204    -87.27938     99.87      1.03E+3                  1202.191      28854       34.3757   34.3773     7.56472            33         0.00  
1        2017-12-26    360.810632  2017-12-26T19:27:19Z    381       376.926     2.4131       2.4132         30.812518     30.813832       4.2736     4.1869    -0.0621       99.2571            1.00E-12        -64.72204    -87.27938     99.87      1.03E+3                  1203.62       28888       34.3774   34.3789     7.56465            35         0.00  
1        2017-12-26    360.810648  2017-12-26T19:27:20Z    382       377.909     2.4133       2.4133         30.813529     30.814907       4.2647     4.1871    -0.0645       99.2772            1.00E-12        -64.72204    -87.27938     99.87      1.03E+3                  1205.006      28921       34.3779   34.3795     7.56458            30         0.00  
1        2017-12-26    360.810661  2017-12-26T19:27:21Z    383       378.899     2.4135       2.4136         30.814839     30.816232       4.2539     4.1831    -0.0697       99.2854            1.00E-12        -64.72204    -87.27938     99.87      1.03E+3                  1206.13       28948       34.3788   34.3804     7.5645             24         0.00  
1        2017-12-26    360.810672  2017-12-26T19:27:22Z    384       379.889     2.4138       2.414          30.817111     30.818577       4.2534     4.1715    -0.0595       99.2817            1.00E-12        -64.72204    -87.27938     99.87      1.03E+3                  1207.079      28971       34.3807   34.3823     7.56434            22         0.00  
1        2017-12-26    360.810682  2017-12-26T19:27:23Z    385       380.88      2.4131       2.4132         30.817599     30.81899        4.2502     4.1638    -0.0558       99.2637            1.00E-12        -64.72204    -87.27938     99.87      1.03E+3                  1207.968      28992       34.3814   34.383      7.56443            21         0.00  
1        2017-12-26    360.810693  2017-12-26T19:27:24Z    386       381.869     2.4137       2.4136         30.819593     30.820809       4.2483     4.168     -0.0537       99.2668            1.00E-12        -64.72204    -87.27938     99.87      1.03E+3                  1208.881      29014       34.3827   34.3843     7.56425            23         0.00  
1        2017-12-26    360.810705  2017-12-26T19:27:25Z    387       382.862     2.4124       2.4126         30.819121     30.820625       4.2471     4.1643    -0.0537       99.2682            1.00E-12        -64.72204    -87.27938     99.86      1.03E+3                  1209.939      29040       34.383    34.3846     7.56448            29         0.00  
1        2017-12-26    360.810721  2017-12-26T19:27:26Z    388       383.844     2.4117       2.412          30.818884     30.820657       4.2456     4.1635    -0.0537       99.2671            1.00E-12        -64.72204    -87.27938     99.87      1.03E+3                  1211.31       29072       34.3829   34.3847     7.56462            37         0.00  
1        2017-12-26    360.810739  2017-12-26T19:27:28Z    389       384.83      2.4099       2.4103         30.817762     30.819456       4.241      4.1526    -0.0657       99.2863            1.00E-12        -64.72204    -87.27938     99.87      1.03E+3                  1212.823      29109       34.3829   34.3846     7.56496            34         0.00  
1        2017-12-26    360.810754  2017-12-26T19:27:29Z    390       385.821     2.4079       2.4081         30.816662     30.818147       4.2328     4.1556    -0.0547       99.2683            1.00E-12        -64.72204    -87.27938     99.87      1.03E+3                  1214.122      29140       34.3832   34.3848     7.56533            29         0.00  
1        2017-12-26    360.810769  2017-12-26T19:27:30Z    391       386.813     2.4093       2.4094         30.819944     30.821274       4.2399     4.1484    -0.0545       99.2319            1.00E-12        -64.72204    -87.27938     99.87      1.03E+3                  1215.43       29171       34.3851   34.3867     7.56495            35         0.00  
1        2017-12-26    360.810788  2017-12-26T19:27:32Z    392       387.795     2.4093       2.4095         30.821198     30.822187       4.2277     4.1431    -0.0654       99.2819            1.00E-12        -64.72204    -87.27939     99.87      1.03E+3                  1217.079      29211       34.3861   34.3871     7.56491            41         0.00  
1        2017-12-26    360.810805  2017-12-26T19:27:34Z    393       388.779     2.4095       2.4096         30.822294     30.823612       4.2208     4.1337    -0.0545       99.2831            1.00E-12        -64.72204    -87.2794      99.87      1.03E+3                  1218.512      29245       34.3867   34.3882     7.56483            28         0.00  
1        2017-12-26    360.810816  2017-12-26T19:27:35Z    394       389.771     2.4093       2.4095         30.823397     30.824798       4.2167     4.1353    -0.0544       99.283             1.00E-12        -64.72204    -87.2794      99.87      1.03E+3                  1219.51       29269       34.3877   34.3892     7.56482            21         0.00  
1        2017-12-26    360.810826  2017-12-26T19:27:35Z    395       390.764     2.4105       2.4106         30.826012     30.827328       4.2155     4.1286    -0.0537       99.283             1.00E-12        -64.72204    -87.2794      99.87      1.04E+3                  1220.355      29290       34.3891   34.3907     7.56452            20         0.00  
1        2017-12-26    360.810836  2017-12-26T19:27:36Z    396       391.756     2.4113       2.4113         30.827666     30.829141       4.2163     4.1236    -0.0543       99.283             1.00E-12        -64.72204    -87.27938     99.87      1.04E+3                  1221.224      29310       34.3897   34.3916     7.56434            23         0.00  
1        2017-12-26    360.810849  2017-12-26T19:27:37Z    397       392.742     2.4117       2.4117         30.828861     30.83029        4.2107     4.1202    -0.0551       99.2714            1.00E-12        -64.72204    -87.27938     99.87      1.04E+3                  1222.334      29337       34.3902   34.392      7.56423            31         0.00  
1        2017-12-26    360.810865  2017-12-26T19:27:39Z    398       393.724     2.4117       2.4117         30.829733     30.831072       4.2025     4.1157    -0.0658       99.2857            1.00E-12        -64.72204    -87.27939     99.87      1.04E+3                  1223.708      29370       34.3908   34.3924     7.56422            32         0.00  
1        2017-12-26    360.810878  2017-12-26T19:27:40Z    399       394.713     2.4116       2.4118         30.831114     30.832569       4.2082     4.1218    -0.0714       99.284             1.00E-12        -64.72204    -87.2794      99.87      1.04E+3                  1224.901      29399       34.3921   34.3937     7.56417            25         0.00  
1        2017-12-26    360.81089   2017-12-26T19:27:41Z    400       395.704     2.4114       2.4115         30.832378     30.833789       4.2032     4.1137    -0.0696       99.2852            1.00E-12        -64.72204    -87.2794      99.87      1.04E+3                  1225.901      29423       34.3933   34.3949     7.56414            24         0.00  
1        2017-12-26    360.810903  2017-12-26T19:27:42Z    401       396.7       2.4114       2.4115         30.832961     30.834487       4.2077     4.11      -0.0593       99.2942            1.00E-12        -64.72204    -87.2794      99.87      1.04E+3                  1227.003      29449       34.3934   34.3952     7.56412            32         0.00  
1        2017-12-26    360.810925  2017-12-26T19:27:44Z    402       397.677     2.4115       2.4117         30.833471     30.835049       4.1993     4.1119    -0.0621       99.2743            1.00E-12        -64.72204    -87.2794      99.87      1.04E+3                  1228.889      29494       34.3934   34.3951     7.56411            53         0.00  
1        2017-12-26    360.810945  2017-12-26T19:27:46Z    403       398.663     2.4122       2.4122         30.834873     30.836278       4.1842     4.0968    -0.0532       99.2734            1.00E-12        -64.72204    -87.2794      99.87      1.04E+3                  1230.621      29536       34.3938   34.3956     7.56395            28         0.00  
1        2017-12-26    360.810955  2017-12-26T19:27:47Z    404       399.652     2.413        2.4132         30.836753     30.838327       4.1764     4.1014    -0.0537       99.2805            1.00E-12        -64.72204    -87.2794      99.87      1.03E+3                  1231.552      29558       34.3947   34.3965     7.56376            20         0.00  
1        2017-12-26    360.810965  2017-12-26T19:27:47Z    405       400.644     2.4155       2.4156         30.841255     30.842538       4.1753     4.1017    -0.0537       99.2944            1.00E-12        -64.72204    -87.2794      99.87      1.03E+3                  1232.337      29577       34.397    34.3986     7.56316            19         0.00  
1        2017-12-26    360.810974  2017-12-26T19:27:48Z    406       401.643     2.4143       2.4145         30.841913     30.843326       4.1808     4.0998    -0.059        99.2833            1.00E-12        -64.72204    -87.2794      99.87      1.03E+3                  1233.142      29596       34.3986   34.4001     7.56331            21         0.00  
1        2017-12-26    360.810989  2017-12-26T19:27:49Z    407       402.629     2.4139       2.4141         30.842141     30.84368        4.1708     4.0883    -0.0683       99.283             1.00E-12        -64.72204    -87.2794      99.87      1.04E+3                  1234.439      29628       34.3988   34.4004     7.56338            39         0.00  
1        2017-12-26    360.811019  2017-12-26T19:27:52Z    408       403.598     2.4218       2.4206         30.852843     30.852573       4.152      4.0655    -0.0544       99.283             1.00E-12        -64.72204    -87.2794      99.87      1.04E+3                  1237.024      29690       34.403    34.404      7.56168            36         0.00  
1        2017-12-26    360.81103   2017-12-26T19:27:53Z    409       404.593     2.4248       2.4248         30.856427     30.857835       4.1468     4.0741    -0.0686       99.283             1.00E-12        -64.72204    -87.2794      99.87      1.04E+3                  1237.982      29713       34.4036   34.4053     7.56108            21         0.00  
1        2017-12-26    360.811039  2017-12-26T19:27:54Z    410       405.579     2.4248       2.4248         30.858017     30.859216       4.1393     4.0623    -0.0699       99.283             1.00E-12        -64.72204    -87.2794      99.87      1.03E+3                  1238.786      29732       34.405    34.4065     7.561              19         0.00  
1        2017-12-26    360.811048  2017-12-26T19:27:55Z    411       406.581     2.43         2.4301         30.863976     30.865364       4.1371     4.0595    -0.0692       99.283             1.00E-12        -64.72204    -87.2794      99.87      1.03E+3                  1239.545      29750       34.4062   34.4078     7.55995            18         0.00  
1        2017-12-26    360.811058  2017-12-26T19:27:55Z    412       407.572     2.4271       2.4276         30.861973     30.863601       4.1431     4.0587    -0.069        99.283             1.00E-12        -64.72204    -87.2794      99.87      1.03E+3                  1240.399      29771       34.4063   34.4078     7.5605             23         0.00  
1        2017-12-26    360.811072  2017-12-26T19:27:57Z    413       408.555     2.4225       2.4228         30.85955      30.861169       4.1399     4.0556    -0.0553       99.2823            1.00E-12        -64.72204    -87.2794      99.87      1.04E+3                  1241.628      29800       34.4077   34.4094     7.56129            37         0.00  
1        2017-12-26    360.811091  2017-12-26T19:27:58Z    414       409.538     2.4217       2.4218         30.85951      30.861016       4.1403     4.0558    -0.0637       99.2716            1.00E-12        -64.72204    -87.2794      99.87      1.04E+3                  1243.227      29838       34.408    34.4097     7.56144            36         0.00  
1        2017-12-26    360.811106  2017-12-26T19:28:00Z    415       410.525     2.4216       2.4216         30.860029     30.861473       4.1404     4.0451    -0.057        99.2795            1.00E-12        -64.72204    -87.2794      99.87      1.04E+3                  1244.582      29871       34.4082   34.41       7.56144            30         0.00  
1        2017-12-26    360.81112   2017-12-26T19:28:01Z    416       411.519     2.4226       2.4227         30.861744     30.863089       4.1383     4.0515    -0.0548       99.2734            1.00E-12        -64.72204    -87.2794      99.87      1.04E+3                  1245.777      29900       34.4086   34.4103     7.56122            30         0.00  
1        2017-12-26    360.811138  2017-12-26T19:28:02Z    417       412.506     2.4249       2.425          30.864819     30.866144       4.1321     4.0451    -0.055        99.2774            1.00E-12        -64.72204    -87.2794      99.87      1.04E+3                  1247.312      29936       34.4095   34.411      7.56076            44         0.00  
1        2017-12-26    360.811158  2017-12-26T19:28:04Z    418       413.487     2.4275       2.4275         30.868546     30.869982       4.1205     4.0374    -0.0661       99.2866            1.00E-12        -64.72204    -87.2794      99.87      1.04E+3                  1249.015      29977       34.4108   34.4125     7.5602             33         0.00  
1        2017-12-26    360.81117   2017-12-26T19:28:05Z    419       414.473     2.4285       2.4286         30.871536     30.872845       4.1218     4.0253    -0.0698       99.2904            1.00E-12        -64.72204    -87.2794      99.87      1.04E+3                  1250.121      30004       34.4128   34.4143     7.5599             22         0.00  
1        2017-12-26    360.81118   2017-12-26T19:28:06Z    420       415.466     2.4287       2.429          30.872327     30.873792       4.1225     4.0296    -0.0573       99.2756            1.00E-12        -64.72204    -87.2794      99.87      1.04E+3                  1250.978      30024       34.413    34.4145     7.55985            19         0.00  
1        2017-12-26    360.81119   2017-12-26T19:28:07Z    421       416.462     2.4288       2.429          30.872881     30.874412       4.1211     4.0332    -0.0552       99.2736            1.00E-12        -64.72204    -87.2794      99.87      1.04E+3                  1251.777      30044       34.413    34.4147     7.55983            20         0.00  
1        2017-12-26    360.8112    2017-12-26T19:28:08Z    422       417.453     2.4293       2.4293         30.873979     30.875376       4.114      4.0289    -0.0579       99.2763            1.00E-12        -64.72204    -87.27941     99.87      1.04E+3                  1252.668      30065       34.4133   34.415      7.55973            24         0.00  
1        2017-12-26    360.811214  2017-12-26T19:28:09Z    423       418.437     2.4297       2.4298         30.874994     30.876453       4.1097     4.02      -0.0642       99.2793            1.00E-12        -64.72204    -87.27942     99.87      1.04E+3                  1253.918      30095       34.4136   34.4153     7.55964            37         0.00  
1        2017-12-26    360.811232  2017-12-26T19:28:10Z    424       419.417     2.4303       2.4304         30.87653      30.877944       4.108      4.0302    -0.0641       99.2847            1.00E-12        -64.72204    -87.27942     99.87      1.04E+3                  1255.464      30132       34.4143   34.4159     7.55949            34         0.00  
1        2017-12-26    360.811246  2017-12-26T19:28:12Z    425       420.407     2.4291       2.4292         30.877268     30.878661       4.0997     4.0167    -0.0695       99.2666            1.00E-12        -64.72204    -87.27942     99.87      1.04E+3                  1256.683      30161       34.4159   34.4175     7.55963            26         0.00  
1        2017-12-26    360.811258  2017-12-26T19:28:13Z    426       421.4       2.429        2.4292         30.878879     30.880478       4.0991     4.0132    -0.057        99.2827            1.00E-12        -64.72204    -87.27941     99.87      1.04E+3                  1257.711      30186       34.4175   34.4192     7.55957            24         0.00  
1        2017-12-26    360.811271  2017-12-26T19:28:14Z    427       422.393     2.4262       2.4264         30.877513     30.879          4.0987     4.0146    -0.0551       99.2669            1.00E-12        -64.72204    -87.2794      99.87      1.04E+3                  1258.854      30214       34.4182   34.4199     7.56005            32         0.00  
1        2017-12-26    360.811289  2017-12-26T19:28:15Z    428       423.373     2.4264       2.4267         30.878772     30.880427       4.0925     4.0045    -0.0642       99.2871            1.00E-12        -64.72204    -87.2794      99.87      1.04E+3                  1260.375      30250       34.419    34.4207     7.55997            39         0.00  
1        2017-12-26    360.811306  2017-12-26T19:28:17Z    429       424.359     2.4331       2.4335         30.886652     30.888452       4.0849     3.9998    -0.0545       99.2672            1.00E-12        -64.72204    -87.2794      99.86      1.04E+3                  1261.855      30286       34.4209   34.4228     7.5586             31         0.00  
1        2017-12-26    360.81132   2017-12-26T19:28:18Z    430       425.35      2.4404       2.4405         30.895383     30.896596       4.0782     4.0004    -0.0537       99.2692            1.00E-12        -64.72204    -87.27941     99.87      1.04E+3                  1263.051      30314       34.4233   34.4248     7.5571             27         0.00  
1        2017-12-26    360.811333  2017-12-26T19:28:19Z    431       426.342     2.4432       2.4432         30.899074     30.900451       4.0729     3.9889    -0.065        99.2856            1.00E-12        -64.72204    -87.27942     99.87      1.04E+3                  1264.166      30341       34.4244   34.4261     7.55653            28         0.00  
1        2017-12-26    360.811347  2017-12-26T19:28:20Z    432       427.327     2.4438       2.4439         30.90058      30.901928       4.0721     3.9867    -0.0571       99.2907            1.00E-12        -64.72204    -87.27942     99.87      1.04E+3                  1265.401      30371       34.425    34.4266     7.55638            31         0.00  
1        2017-12-26    360.811362  2017-12-26T19:28:22Z    433       428.314     2.4442       2.4443         30.901615     30.903195       4.072      3.9852    -0.0537       99.284             1.00E-12        -64.72204    -87.27942     99.87      1.04E+3                  1266.667      30401       34.4253   34.4271     7.55629            29         0.00  
1        2017-12-26    360.811375  2017-12-26T19:28:23Z    434       429.303     2.4441       2.4441         30.902605     30.90405        4.0688     3.9801    -0.0537       99.283             1.00E-12        -64.72204    -87.27942     99.87      1.04E+3                  1267.817      30429       34.4261   34.4279     7.55628            26         0.00  
1        2017-12-26    360.811388  2017-12-26T19:28:24Z    435       430.291     2.4439       2.4441         30.903301     30.904866       4.0683     3.9848    -0.0537       99.283             1.00E-12        -64.72204    -87.27942     99.87      1.04E+3                  1268.889      30454       34.4267   34.4284     7.55629            25         0.00  
1        2017-12-26    360.8114    2017-12-26T19:28:25Z    436       431.28      2.444        2.4441         30.904118     30.905494       4.0672     3.9801    -0.0537       99.283             1.00E-12        -64.72204    -87.27941     99.87      1.04E+3                  1269.938      30480       34.427    34.4285     7.55625            26         0.00  
1        2017-12-26    360.811412  2017-12-26T19:28:26Z    437       432.268     2.4442       2.4443         30.904945     30.906314       4.0594     3.9672    -0.0691       99.2862            1.00E-12        -64.72204    -87.2794      99.87      1.04E+3                  1270.992      30505       34.4272   34.4288     7.55619            25         0.00  
1        2017-12-26    360.811424  2017-12-26T19:28:27Z    438       433.257     2.443        2.4431         30.904915     30.906406       4.0588     3.9715    -0.0549       99.2821            1.00E-12        -64.72204    -87.27942     99.87      1.04E+3                  1272.074      30531       34.428    34.4297     7.55639            27         0.00  
1        2017-12-26    360.811438  2017-12-26T19:28:28Z    439       434.245     2.4391       2.4393         30.903612     30.905086       4.0597     3.9676    -0.0672       99.2785            1.00E-12        -64.72204    -87.27942     99.87      1.04E+3                  1273.235      30559       34.4299   34.4316     7.55701            29         0.00  
1        2017-12-26    360.811454  2017-12-26T19:28:30Z    440       435.235     2.4387       2.4387         30.903962     30.905382       4.0612     3.967     -0.0445       99.1919            1.00E-12        -64.72204    -87.27942     99.87      1.04E+3                  1274.604      30591       34.4303   34.432      7.55708            37         0.00  
1        2017-12-26    360.811475  2017-12-26T19:28:31Z    441       436.221     2.4387       2.4387         30.904521     30.906012       4.0495     3.9662    -0.0638       99.2805            1.00E-12        -64.72204    -87.27942     99.87      1.04E+3                  1276.424      30635       34.4305   34.4322     7.55707            48         0.00  
1        2017-12-26    360.811494  2017-12-26T19:28:33Z    442       437.202     2.4375       2.4377         30.90517      30.906636       4.0483     3.9522    -0.0537       99.2895            1.00E-12        -64.72204    -87.27942     99.87      1.04E+3                  1278.121      30676       34.432    34.4336     7.55721            31         0.00  
1        2017-12-26    360.811507  2017-12-26T19:28:34Z    443       438.19      2.4364       2.4366         30.905445     30.906874       4.0455     3.9578    -0.0537       99.2803            1.00E-12        -64.72204    -87.27942     99.87      1.04E+3                  1279.175      30701       34.4329   34.4345     7.55737            22         0.00  
1        2017-12-26    360.811516  2017-12-26T19:28:35Z    444       439.183     2.4355       2.4357         30.905363     30.906821       4.0466     3.9595    -0.0537       99.3029            1.00E-12        -64.72204    -87.27942     99.87      1.04E+3                  1280.005      30721       34.4333   34.4348     7.55753            19         0.00  
1        2017-12-26    360.811525  2017-12-26T19:28:36Z    445       440.179     2.4358       2.4358         30.907475     30.908815       4.0413     3.9561    -0.0537       99.2885            1.00E-12        -64.72204    -87.27942     99.87      1.04E+3                  1280.804      30740       34.435    34.4367     7.55738            20         0.00  
1        2017-12-26    360.811537  2017-12-26T19:28:37Z    446       441.17      2.4354       2.4355         30.90801      30.909552       4.04       3.9456    -0.0546       99.28              1.00E-12        -64.72204    -87.27942     99.87      1.04E+3                  1281.821      30765       34.4355   34.4373     7.55742            31         0.00  
1        2017-12-26    360.811558  2017-12-26T19:28:39Z    447       442.145     2.4333       2.4335         30.907489     30.909026       4.0346     3.9521    -0.0697       99.2994            1.00E-12        -64.72204    -87.27942     99.87      1.04E+3                  1283.586      30807       34.4366   34.4383     7.55776            46         0.00  
1        2017-12-26    360.811574  2017-12-26T19:28:40Z    448       443.132     2.4316       2.4318         30.908061     30.909561       4.0285     3.9458    -0.0581       99.3035            1.00E-12        -64.72204    -87.27942     99.87      1.04E+3                  1284.995      30841       34.4386   34.4403     7.55799            25         0.00  
1        2017-12-26    360.811585  2017-12-26T19:28:41Z    449       444.122     2.4319       2.4319         30.909372     30.910813       4.022      3.9396    -0.0559       99.3113            1.00E-12        -64.72204    -87.27942     99.87      1.04E+3                  1285.911      30863       34.4393   34.4411     7.55789            20         0.00  
1        2017-12-26    360.811594  2017-12-26T19:28:42Z    450       445.113     2.432        2.432          30.910615     30.911973       4.0215     3.9379    -0.0581       99.3071            1.00E-12        -64.72204    -87.27942     99.87      1.04E+3                  1286.739      30883       34.4402   34.4419     7.55782            20         0.00  
1        2017-12-26    360.811605  2017-12-26T19:28:43Z    451       446.113     2.434        2.4339         30.913386     30.914849       4.0176     3.941     -0.0654       99.2795            1.00E-12        -64.72204    -87.27942     99.87      1.04E+3                  1287.686      30905       34.4409   34.4429     7.55741            28         0.00  
1        2017-12-26    360.811629  2017-12-26T19:28:45Z    452       447.088     2.437        2.4368         30.916889     30.918155       4.0121     3.9263    -0.0611       99.2924            1.00E-12        -64.72204    -87.27942     99.87      1.04E+3                  1289.703      30954       34.4414   34.4433     7.55681            60         0.00  
1        2017-12-26    360.811651  2017-12-26T19:28:47Z    453       448.071     2.4376       2.4376         30.918883     30.920383       4.0068     3.9297    -0.0545       99.3104            1.00E-12        -64.72204    -87.27942     99.87      1.04E+3                  1291.644      31000       34.4428   34.4446     7.55664            29         0.00  
1        2017-12-26    360.811663  2017-12-26T19:28:48Z    454       449.063     2.4366       2.4368         30.918906     30.920408       4.0022     3.9121    -0.055        99.3049            1.00E-12        -64.72204    -87.27942     99.86      1.04E+3                  1292.647      31025       34.4433   34.4449     7.55679            22         0.00  
1        2017-12-26    360.811673  2017-12-26T19:28:49Z    455       450.056     2.4359       2.4361         30.920251     30.921671       3.9983     3.9147    -0.0537       99.3061            1.00E-12        -64.72204    -87.27942     99.87      1.04E+3                  1293.562      31046       34.4451   34.4467     7.55682            22         0.00  
1        2017-12-26    360.811686  2017-12-26T19:28:50Z    456       451.047     2.4362       2.4362         30.921684     30.923111       3.9962     3.9114    -0.062        99.3072            1.00E-12        -64.72204    -87.27942     99.87      1.04E+3                  1294.639      31072       34.446    34.4478     7.55673            31         0.00  
1        2017-12-26    360.811703  2017-12-26T19:28:51Z    457       452.028     2.4364       2.4364         30.922661     30.924107       3.9887     3.904     -0.0571       99.2923            1.00E-12        -64.72204    -87.27942     99.87      1.04E+3                  1296.156      31109       34.4465   34.4482     7.55667            39         0.00  
1        2017-12-26    360.811719  2017-12-26T19:28:53Z    458       453.012     2.4365       2.4365         30.923809     30.925251       3.9783     3.9123    -0.0536       99.3031            1.00E-12        -64.72204    -87.27942     99.87      1.04E+3                  1297.529      31142       34.4473   34.449      7.55661            27         0.00  
1        2017-12-26    360.81173   2017-12-26T19:28:53Z    459       453.999     2.4364       2.4365         30.925324     30.926748       3.9824     3.9028    -0.0537       99.3058            1.00E-12        -64.72204    -87.27942     99.87      1.04E+3                  1298.497      31165       34.4486   34.4503     7.55655            20         0.00  
1        2017-12-26    360.811739  2017-12-26T19:28:54Z    460       454.994     2.4365       2.4366         30.926459     30.927878       3.9822     3.894     -0.0537       99.3013            1.00E-12        -64.72204    -87.27942     99.87      1.04E+3                  1299.29       31184       34.4494   34.4511     7.55649            19         0.00  
1        2017-12-26    360.811749  2017-12-26T19:28:55Z    461       455.987     2.4369       2.4368         30.928137     30.929646       3.984      3.8951    -0.0545       99.3027            1.00E-12        -64.72204    -87.27942     99.86      1.04E+3                  1300.065      31203       34.4505   34.4524     7.55637            19         0.00  
1        2017-12-26    360.81176   2017-12-26T19:28:56Z    462       456.98      2.4371       2.4371         30.929343     30.93081        3.9915     3.8976    -0.0542       99.2998            1.00E-12        -64.72204    -87.27942     99.87      1.04E+3                  1301.096      31227       34.4512   34.453      7.55628            34         0.00  
1        2017-12-26    360.811784  2017-12-26T19:28:58Z    463       457.953     2.4373       2.4373         30.930073     30.931726       3.9811     3.8922    -0.0627       99.2953            1.00E-12        -64.72204    -87.27942     99.87      1.04E+3                  1303.153      31277       34.4514   34.4534     7.55625            53         0.00  
1        2017-12-26    360.811803  2017-12-26T19:29:00Z    464       458.944     2.4371       2.4372         30.931104     30.932596       3.977      3.8935    -0.0536       99.2964            1.00E-12        -64.72204    -87.27942     99.87      1.04E+3                  1304.751      31315       34.4523   34.4541     7.55623            30         0.00  
1        2017-12-26    360.811816  2017-12-26T19:29:01Z    465       459.932     2.4363       2.4365         30.931696     30.93305        3.9726     3.8903    -0.0537       99.2898            1.00E-12        -64.72204    -87.27942     99.87      1.04E+3                  1305.924      31343       34.4533   34.4548     7.55633            28         0.00  
1        2017-12-26    360.81183   2017-12-26T19:29:02Z    466       460.924     2.4328       2.4331         30.929775     30.931454       3.9684     3.8859    -0.0537       99.2958            1.00E-12        -64.72204    -87.27942     99.87      1.04E+3                  1307.097      31371       34.4541   34.4559     7.55694            29         0.00  
1        2017-12-26    360.811845  2017-12-26T19:29:03Z    467       461.91      2.4289       2.429          30.927623     30.929047       3.9644     3.8849    -0.0546       99.2906            1.00E-12        -64.72204    -87.27942     99.87      1.04E+3                  1308.381      31402       34.4552   34.4568     7.55763            32         0.00  
1        2017-12-26    360.81186   2017-12-26T19:29:05Z    468       462.897     2.4294       2.4295         30.93055      30.932075       3.9612     3.8806    -0.0542       99.292             1.00E-12        -64.72204    -87.27942     99.87      1.04E+3                  1309.683      31433       34.4577   34.4595     7.55741            30         0.00  
1        2017-12-26    360.811873  2017-12-26T19:29:06Z    469       463.881     2.4291       2.4291         30.931482     30.932936       3.9544     3.8675    -0.0587       99.3021            1.00E-12        -64.72204    -87.27942     99.87      1.04E+3                  1310.829      31461       34.4586   34.4604     7.55742            24         0.00  
1        2017-12-26    360.811884  2017-12-26T19:29:07Z    470       464.874     2.43         2.43           30.933791     30.935235       3.956      3.8709    -0.0666       99.304             1.00E-12        -64.72204    -87.27942     99.87      1.04E+3                  1311.803      31484       34.4599   34.4617     7.55717            23         0.00  
1        2017-12-26    360.811895  2017-12-26T19:29:08Z    471       465.863     2.4307       2.4307         30.935919     30.937444       3.9543     3.8674    -0.0552       99.2948            1.00E-12        -64.72204    -87.27942     99.87      1.04E+3                  1312.732      31507       34.4612   34.4631     7.55697            23         0.00  
1        2017-12-26    360.811907  2017-12-26T19:29:09Z    472       466.854     2.429        2.4291         30.935903     30.937516       3.953      3.8621    -0.0679       99.3111            1.00E-12        -64.72204    -87.27942     99.87      1.04E+3                  1313.776      31532       34.4625   34.4644     7.55723            28         0.00  
1        2017-12-26    360.811923  2017-12-26T19:29:10Z    473       467.84      2.429        2.429          30.936369     30.937891       3.9513     3.8663    -0.0538       99.2979            1.00E-12        -64.72204    -87.27942     99.87      1.04E+3                  1315.175      31565       34.4625   34.4644     7.55723            38         0.00  
1        2017-12-26    360.811941  2017-12-26T19:29:12Z    474       468.822     2.4291       2.429          30.936861     30.93836        3.9464     3.8601    -0.0644       99.3045            1.00E-12        -64.72204    -87.27942     99.87      1.04E+3                  1316.731      31603       34.4625   34.4644     7.55721            34         0.00  
1        2017-12-26    360.811956  2017-12-26T19:29:13Z    475       469.807     2.4284       2.4284         30.937385     30.93887        3.9443     3.8528    -0.0569       99.2899            1.00E-12        -64.72204    -87.27942     99.86      1.04E+3                  1317.963      31632       34.4633   34.4652     7.55729            26         0.00  
1        2017-12-26    360.811968  2017-12-26T19:29:14Z    476       470.804     2.4288       2.4287         30.939872     30.941375       3.9488     3.8613    -0.0667       99.2987            1.00E-12        -64.72204    -87.27942     99.87      1.04E+3                  1318.993      31657       34.4654   34.4674     7.55711            24         0.00  
1        2017-12-26    360.811979  2017-12-26T19:29:15Z    477       471.792     2.4265       2.4267         30.93862      30.940102       3.96       3.8677    -0.0579       99.2948            1.00E-12        -64.72204    -87.27942     99.87      1.04E+3                  1319.987      31681       34.4658   34.4675     7.55753            25         0.00  
1        2017-12-26    360.811992  2017-12-26T19:29:16Z    478       472.78      2.422        2.4222         30.934872     30.936519       3.9684     3.8687    -0.0543       99.3001            1.00E-12        -64.72204    -87.27942     99.87      1.04E+3                  1321.071      31707       34.4655   34.4673     7.55839            28         0.00  
1        2017-12-26    360.812008  2017-12-26T19:29:17Z    479       473.769     2.4174       2.4175         30.93141      30.933078       3.964      3.8706    -0.0639       99.2889            1.00E-12        -64.72204    -87.27942     99.87      1.04E+3                  1322.463      31740       34.4656   34.4676     7.55925            40         0.00  
1        2017-12-26    360.81203   2017-12-26T19:29:19Z    480       474.751     2.4153       2.4152         30.93015      30.931732       3.9587     3.866     -0.0626       99.2939            1.00E-12        -64.72204    -87.27942     99.87      1.04E+3                  1324.378      31786       34.4658   34.4678     7.55965            46         0.00  
1        2017-12-26    360.812047  2017-12-26T19:29:21Z    481       475.735     2.4132       2.4132         30.929213     30.930788       3.9529     3.8641    -0.0551       99.3103            1.00E-12        -64.72204    -87.27942     99.87      1.04E+3                  1325.899      31823       34.4663   34.4682     7.56001            28         0.00  
1        2017-12-26    360.812059  2017-12-26T19:29:22Z    482       476.72      2.4126       2.4126         30.929931     30.931507       3.9526     3.8646    -0.0692       99.3098            1.00E-12        -64.72204    -87.27942     99.87      1.04E+3                  1326.861      31846       34.4673   34.4693     7.56007            20         0.00  
1        2017-12-26    360.812067  2017-12-26T19:29:23Z    483       477.714     2.4126       2.4126         30.930808     30.932238       3.9537     3.8722    -0.0579       99.3098            1.00E-12        -64.72204    -87.27942     99.87      1.04E+3                  1327.635      31864       34.4678   34.4696     7.56004            17         0.00  
1        2017-12-26    360.812076  2017-12-26T19:29:23Z    484       478.71      2.4125       2.4125         30.931635     30.933071       3.9537     3.8667    -0.0553       99.3098            1.00E-12        -64.72204    -87.27942     99.87      1.04E+3                  1328.359      31882       34.4684   34.4701     7.56003            18         0.00  
1        2017-12-26    360.812086  2017-12-26T19:29:24Z    485       479.708     2.4122       2.4123         30.932455     30.933968       3.9484     3.8691    -0.0538       99.3037            1.00E-12        -64.72204    -87.27942     99.87      1.04E+3                  1329.205      31902       34.4692   34.471      7.56005            25         0.00  
1        2017-12-26    360.81211   2017-12-26T19:29:26Z    486       480.679     2.4125       2.4126         30.932759     30.934409       3.9467     3.8591    -0.0629       99.3061            1.00E-12        -64.72204    -87.27942     99.87      1.04E+3                  1331.314      31953       34.4687   34.4706     7.56002            44         0.00  
1        2017-12-26    360.812133  2017-12-26T19:29:28Z    487       481.661     2.4124       2.4123         30.933264     30.935358       3.9484     3.858     -0.0578       99.2715            1.00E-12        -64.72204    -87.27942     99.87      1.04E+3                  1333.283      32000       34.4689   34.4716     7.56004            28         0.00  
1        2017-12-26    360.812144  2017-12-26T19:29:29Z    488       482.653     2.4125       2.4124         30.934562     30.936121       3.9538     3.8593    -0.0657       99.2948            1.00E-12        -64.72204    -87.27942     99.87      1.04E+3                  1334.262      32023       34.4698   34.4718     7.55996            21         0.00  
1        2017-12-26    360.812154  2017-12-26T19:29:30Z    489       483.644     2.4122       2.4122         30.935022     30.93659        3.9543     3.8647    -0.0607       99.3035            1.00E-12        -64.72204    -87.27942     99.87      1.04E+3                  1335.132      32044       34.4702   34.4721     7.56001            21         0.00  
1        2017-12-26    360.812164  2017-12-26T19:29:31Z    490       484.636     2.4113       2.4113         30.934966     30.936504       3.9546     3.8663    -0.0538       99.2884            1.00E-12        -64.72204    -87.27942     99.87      1.04E+3                  1335.985      32065       34.4705   34.4725     7.56016            21         0.00  
1        2017-12-26    360.812175  2017-12-26T19:29:32Z    491       485.621     2.4099       2.4098         30.934889     30.936389       3.9551     3.8635    -0.0537       99.3002            1.00E-12        -64.72204    -87.27942     99.87      1.04E+3                  1336.893      32086       34.4713   34.4733     7.56037            23         0.00  
1        2017-12-26    360.812187  2017-12-26T19:29:33Z    492       486.614     2.4096       2.4093         30.935286     30.936791       3.951      3.8645    -0.0537       99.303             1.00E-12        -64.72204    -87.27942     99.87      1.04E+3                  1337.947      32112       34.4717   34.4738     7.56042            28         0.00  
1        2017-12-26    360.812202  2017-12-26T19:29:34Z    493       487.598     2.4089       2.4088         30.936126     30.93767        3.9474     3.8624    -0.0537       99.2928            1.00E-12        -64.72204    -87.27942     99.87      1.04E+3                  1339.285      32144       34.4729   34.4749     7.56048            37         0.00  
1        2017-12-26    360.812224  2017-12-26T19:29:36Z    494       488.584     2.4075       2.4075         30.936735     30.93832        3.9473     3.8591    -0.054        99.2946            1.00E-12        -64.72204    -87.27942     99.87      1.04E+3                  1341.162      32189       34.4746   34.4766     7.56066            51         0.00  
1        2017-12-26    360.812246  2017-12-26T19:29:38Z    495       489.567     2.4046       2.4044         30.935595     30.937367       3.9398     3.8511    -0.0445       99.2812            1.00E-12        -64.72202    -87.27942     99.87      1.04E+3                  1343.084      32235       34.4757   34.4782     7.56114            38         0.00  
1        2017-12-26    360.812261  2017-12-26T19:29:39Z    496       490.553     2.4045       2.4043         30.936183     30.937845       3.9435     3.8497    -0.0687       99.2907            1.00E-12        -64.72204    -87.27942     99.87      1.04E+3                  1344.352      32265       34.4761   34.4783     7.56115            25         0.00  
1        2017-12-26    360.812271  2017-12-26T19:29:40Z    497       491.543     2.4039       2.4038         30.936672     30.93819        3.9367     3.8575    -0.07         99.31              1.00E-12        -64.72204    -87.27942     99.87      1.04E+3                  1345.26       32287       34.4768   34.4787     7.56123            19         0.00  
1        2017-12-26    360.812281  2017-12-26T19:29:41Z    498       492.537     2.4037       2.4036         30.937001     30.938567       3.9383     3.8561    -0.0617       99.3098            1.00E-12        -64.72204    -87.27942     99.87      1.04E+3                  1346.033      32306       34.4768   34.4788     7.56125            18         0.00  
1        2017-12-26    360.812289  2017-12-26T19:29:42Z    499       493.528     2.4036       2.4037         30.937558     30.939024       3.9443     3.8526    -0.0537       99.2985            1.00E-12        -64.72204    -87.27942     99.87      1.04E+3                  1346.795      32324       34.4771   34.4788     7.56127            19         0.00  
1        2017-12-26    360.8123    2017-12-26T19:29:43Z    500       494.521     2.4036       2.4035         30.938048     30.939532       3.9446     3.8558    -0.0542       99.2903            1.00E-12        -64.72204    -87.27942     99.87      1.04E+3                  1347.708      32346       34.4771   34.4791     7.56126            27         0.00  
1        2017-12-26    360.812321  2017-12-26T19:29:45Z    501       495.499     2.4037       2.4037         30.938634     30.940211       3.9362     3.8513    -0.0595       99.3077            1.00E-12        -64.72203    -87.27942     99.87      1.04E+3                  1349.511      32389       34.4771   34.4791     7.56123            59         0.00  
1        2017-12-26    360.812344  2017-12-26T19:29:47Z    502       496.479     2.4041       2.4038         30.938998     30.940886       3.9326     3.8427    -0.0534       99.3062            1.00E-12        -64.72202    -87.27942     99.87      1.04E+3                  1351.526      32438       34.4766   34.4793     7.56119            31         0.00  
1        2017-12-26    360.812356  2017-12-26T19:29:48Z    503       497.468     2.4052       2.4051         30.941754     30.943231       3.9306     3.8434    -0.0537       99.3025            1.00E-12        -64.72204    -87.27942     99.87      1.04E+3                  1352.527      32462       34.4783   34.4803     7.5609             22         0.00  
1        2017-12-26    360.812366  2017-12-26T19:29:48Z    504       498.463     2.406        2.4059         30.94391      30.945409       3.9364     3.8445    -0.0537       99.3004            1.00E-12        -64.72204    -87.27942     99.87      1.04E+3                  1353.394      32482       34.4795   34.4815     7.56068            20         0.00  
1        2017-12-26    360.812376  2017-12-26T19:29:49Z    505       499.457     2.4055       2.4053         30.9444       30.945973       3.9273     3.843     -0.0548       99.3096            1.00E-12        -64.72204    -87.27942     99.87      1.04E+3                  1354.31       32504       34.4802   34.4824     7.56075            25         0.00  
1        2017-12-26    360.812391  2017-12-26T19:29:51Z    506       500.441     2.4049       2.4047         30.945505     30.947046       3.9296     3.8348    -0.0549       99.3098            1.00E-12        -64.72204    -87.27942     99.87      1.04E+3                  1355.606      32536       34.4817   34.4837     7.56079            38         0.00  
1        2017-12-26    360.812409  2017-12-26T19:29:52Z    507       501.422     2.4053       2.4051         30.946926     30.948443       3.9275     3.831     -0.0631       99.3098            1.00E-12        -64.72202    -87.27942     99.87      1.04E+3                  1357.14       32572       34.4824   34.4845     7.56067            32         0.00  
1        2017-12-26    360.812423  2017-12-26T19:29:53Z    508       502.412     2.4055       2.4051         30.947557     30.949048       3.9266     3.8394    -0.0584       99.3065            1.00E-12        -64.72202    -87.27942     99.87      1.04E+3                  1358.37       32602       34.4824   34.4847     7.56063            28         0.00  
1        2017-12-26    360.812437  2017-12-26T19:29:55Z    509       503.408     2.4052       2.405          30.947985     30.949525       3.9288     3.8408    -0.0547       99.3002            1.00E-12        -64.72202    -87.27942     99.87      1.04E+3                  1359.597      32631       34.4827   34.4849     7.56067            35         0.00  
1        2017-12-26    360.812463  2017-12-26T19:29:57Z    510       504.384     2.405        2.405          30.948375     30.949977       3.9201     3.8324    -0.0634       99.2968            1.00E-12        -64.72202    -87.27942     99.87      1.04E+3                  1361.795      32684       34.4829   34.4848     7.5607             55         0.00  
1        2017-12-26    360.81248   2017-12-26T19:29:58Z    511       505.366     2.4049       2.4048         30.948888     30.950476       3.914      3.8256    -0.0693       99.3002            1.00E-12        -64.72204    -87.27942     99.87      1.04E+3                  1363.298      32720       34.4831   34.4852     7.56071            22         0.00  
1        2017-12-26    360.812489  2017-12-26T19:29:59Z    512       506.359     2.4046       2.4045         30.949856     30.951303       3.9141     3.8216    -0.0684       99.2994            1.00E-12        -64.72204    -87.27942     99.86      1.04E+3                  1364.074      32739       34.484    34.4859     7.56071            18         0.00  
1        2017-12-26    360.812497  2017-12-26T19:30:00Z    513       507.348     2.4041       2.4043         30.950781     30.952314       3.9113     3.8254    -0.0596       99.3098            1.00E-12        -64.72204    -87.27942     99.87      1.04E+3                  1364.75       32755       34.4851   34.4869     7.56075            15         0.00  
1        2017-12-26    360.812505  2017-12-26T19:30:00Z    514       508.345     2.4036       2.4037         30.951324     30.952848       3.914      3.8336    -0.0537       99.3081            1.00E-12        -64.72204    -87.27942     99.87      1.04E+3                  1365.399      32771       34.4858   34.4876     7.56082            16         0.00  
1        2017-12-26    360.812513  2017-12-26T19:30:01Z    515       509.34      2.4023       2.4023         30.951643     30.953088       3.9183     3.8303    -0.0537       99.3072            1.00E-12        -64.72204    -87.27942     99.87      1.04E+3                  1366.122      32788       34.487    34.4889     7.56099            20         0.00  
1        2017-12-26    360.812531  2017-12-26T19:30:03Z    516       510.323     2.4027       2.4027         30.952265     30.953774       3.9176     3.8267    -0.065        99.3012            1.00E-12        -64.72202    -87.27942     99.87      1.04E+3                  1367.692      32826       34.4868   34.4887     7.56092            47         0.00  
1        2017-12-26    360.812561  2017-12-26T19:30:05Z    517       511.295     2.4017       2.4016         30.952713     30.95431        3.9107     3.8161    -0.0536       99.2942            1.00E-12        -64.72202    -87.27942     99.87      1.04E+3                  1370.271      32888       34.4879   34.49       7.56106            41         0.00  
1        2017-12-26    360.812575  2017-12-26T19:30:06Z    518       512.289     2.4016       2.4013         30.953555     30.955198       3.9054     3.8192    -0.0639       99.2981            1.00E-12        -64.72202    -87.27942     99.87      1.04E+3                  1371.443      32916       34.4886   34.4909     7.56105            25         0.00  
1        2017-12-26    360.812586  2017-12-26T19:30:07Z    519       513.277     2.3995       2.3994         30.952378     30.953846       3.9146     3.8209    -0.0598       99.2998            1.00E-12        -64.72202    -87.27942     99.87      1.04E+3                  1372.44       32940       34.4888   34.4907     7.56143            24         0.00  
1        2017-12-26    360.812598  2017-12-26T19:30:08Z    520       514.271     2.393        2.3928         30.9476       30.949055       3.9097     3.816     -0.0632       99.3076            1.00E-12        -64.72202    -87.27942     99.87      1.04E+3                  1373.46       32964       34.4893   34.4914     7.56263            26         0.00  
1        2017-12-26    360.812612  2017-12-26T19:30:10Z    521       515.256     2.393        2.3928         30.948433     30.950047       3.9102     3.8192    -0.0692       99.3113            1.00E-12        -64.72202    -87.27942     99.87      1.04E+3                  1374.71       32994       34.4898   34.492      7.5626             34         0.00  
1        2017-12-26    360.81263   2017-12-26T19:30:11Z    522       516.242     2.3933       2.3931         30.949321     30.950537       3.9037     3.8078    -0.0563       99.2992            1.00E-12        -64.72202    -87.27944     99.87      1.04E+3                  1376.239      33031       34.49     34.4918     7.56253            38         0.00  
1        2017-12-26    360.812647  2017-12-26T19:30:13Z    523       517.227     2.3945       2.3943         30.951943     30.953392       3.8948     3.81      -0.0605       99.3075            1.00E-12        -64.72202    -87.27943     99.87      1.04E+3                  1377.714      33066       34.4914   34.4934     7.56223            31         0.00  
1        2017-12-26    360.81266   2017-12-26T19:30:14Z    524       518.213     2.3953       2.395          30.953778     30.955259       3.8954     3.8167    -0.0691       99.3189            1.00E-12        -64.72202    -87.27942     99.87      1.04E+3                  1378.83       33093       34.4923   34.4944     7.56205            24         0.00  
1        2017-12-26    360.812671  2017-12-26T19:30:15Z    525       519.205     2.3957       2.3956         30.955037     30.956494       3.8949     3.816     -0.0662       99.3138            1.00E-12        -64.72203    -87.27942     99.87      1.04E+3                  1379.732      33115       34.4929   34.4948     7.56194            20         0.00  
1        2017-12-26    360.812681  2017-12-26T19:30:16Z    526       520.195     2.396        2.3958         30.955664     30.957213       3.892      3.8107    -0.0538       99.3026            1.00E-12        -64.72204    -87.27942     99.86      1.04E+3                  1380.597      33135       34.4928   34.4949     7.56188            22         0.00  
1        2017-12-26    360.812692  2017-12-26T19:30:17Z    527       521.188     2.3954       2.3952         30.955706     30.957225       3.8969     3.8094    -0.0547       99.2919            1.00E-12        -64.72204    -87.27942     99.87      1.04E+3                  1381.617      33160       34.493    34.495      7.56199            28         0.00  
1        2017-12-26    360.812708  2017-12-26T19:30:18Z    528       522.165     2.3957       2.3954         30.95656      30.95804        3.8935     3.8085    -0.0537       99.3197            1.00E-12        -64.72204    -87.27942     99.87      1.04E+3                  1382.927      33191       34.4931   34.4952     7.56192            33         0.00  
1        2017-12-26    360.812722  2017-12-26T19:30:19Z    529       523.155     2.3955       2.3953         30.95732      30.958842       3.8939     3.8031    -0.0542       99.3146            1.00E-12        -64.72204    -87.27942     99.87      1.04E+3                  1384.189      33222       34.4937   34.4958     7.56193            28         0.00  
1        2017-12-26    360.812735  2017-12-26T19:30:20Z    530       524.143     2.3949       2.3946         30.958301     30.959834       3.8943     3.8026    -0.0592       99.3159            1.00E-12        -64.72204    -87.27942     99.87      1.04E+3                  1385.288      33248       34.495    34.4972     7.56197            26         0.00  
1        2017-12-26    360.812749  2017-12-26T19:30:22Z    531       525.136     2.3945       2.3944         30.958877     30.960454       3.8879     3.8082    -0.0689       99.3129            1.00E-12        -64.72202    -87.27943     99.87      1.04E+3                  1386.538      33278       34.4956   34.4977     7.56201            37         0.00  
1        2017-12-26    360.812776  2017-12-26T19:30:24Z    532       526.118     2.3942       2.3942         30.959612     30.961095       3.8944     3.7993    -0.0618       99.3039            1.00E-12        -64.72202    -87.27944     99.87      1.04E+3                  1388.892      33334       34.4963   34.4982     7.56205            61         0.00  
1        2017-12-26    360.812797  2017-12-26T19:30:26Z    533       527.099     2.3933       2.3932         30.959602     30.96134        3.881      3.7993    -0.0539       99.3068            1.00E-12        -64.72203    -87.27942     99.87      1.04E+3                  1390.64       33376       34.4968   34.499      7.5622             26         0.00  
1        2017-12-26    360.812807  2017-12-26T19:30:27Z    534       528.087     2.393        2.3928         30.960129     30.961608       3.8894     3.797     -0.0537       99.3249            1.00E-12        -64.72204    -87.27942     99.87      1.04E+3                  1391.546      33398       34.4971   34.4992     7.56222            20         0.00  
1        2017-12-26    360.812816  2017-12-26T19:30:27Z    535       529.082     2.393        2.3929         30.960793     30.962377       3.8867     3.7958    -0.0537       99.3               1.00E-12        -64.72204    -87.27942     99.87      1.04E+3                  1392.33       33417       34.4974   34.4995     7.56221            19         0.00  
1        2017-12-26    360.812825  2017-12-26T19:30:28Z    536       530.074     2.393        2.3929         30.961842     30.96333        3.8844     3.7981    -0.0537       99.2903            1.00E-12        -64.72204    -87.27942     99.87      1.04E+3                  1393.104      33435       34.4981   34.5001     7.56217            19         0.00  
1        2017-12-26    360.812836  2017-12-26T19:30:29Z    537       531.069     2.3928       2.3926         30.963075     30.964633       3.8869     3.7996    -0.0537       99.3124            1.00E-12        -64.72204    -87.27942     81.68      1.04E+3                  1394.055      33458       34.4993   34.5015     7.56215            28         0.00  
1        2017-12-26    360.812857  2017-12-26T19:30:31Z    538       532.044     2.3927       2.3926         30.96376      30.965298       3.8811     3.7941    -0.059        99.3107            1.00E-12        -64.72204    -87.27944     88.38      1.04E+3                  1395.863      33502       34.4997   34.5018     7.56214            55         0.00  
1        2017-12-26    360.812878  2017-12-26T19:30:33Z    539       533.024     2.3928       2.3926         30.964454     30.966061       3.8818     3.794     -0.0551       99.3126            1.00E-12        -64.72204    -87.27943     100.26     1.04E+3                  1397.642      33544       34.4999   34.5022     7.56212            29         0.00  
1        2017-12-26    360.81289   2017-12-26T19:30:34Z    540       534.019     2.3926       2.3924         30.965217     30.9668         3.8806     3.7873    -0.0537       99.3016            1.00E-12        -64.72204    -87.27942     99.87      1.04E+3                  1398.668      33569       34.5005   34.5027     7.56212            23         0.00  
1        2017-12-26    360.8129    2017-12-26T19:30:35Z    541       535.008     2.3925       2.3923         30.965966     30.967572       3.8796     3.7853    -0.0589       99.3152            1.00E-12        -64.72204    -87.27942     99.86      1.04E+3                  1399.566      33591       34.5011   34.5032     7.56212            20         0.00  
1        2017-12-26    360.81291   2017-12-26T19:30:35Z    542       535.998     2.3926       2.3923         30.966552     30.968088       3.8804     3.7895    -0.0691       99.3261            1.00E-12        -64.72204    -87.27942     99.87      1.04E+3                  1400.465      33612       34.5011   34.5033     7.5621             23         0.00  
1        2017-12-26    360.812923  2017-12-26T19:30:37Z    543       536.991     2.3926       2.3923         30.967102     30.968599       3.8797     3.7945    -0.0646       99.3213            1.00E-12        -64.72203    -87.27942     99.87      1.04E+3                  1401.584      33639       34.5013   34.5034     7.56209            33         0.00  
1        2017-12-26    360.812944  2017-12-26T19:30:38Z    544       537.971     2.3928       2.3927         30.968269     30.969841       3.8758     3.792     -0.0555       99.3207            1.00E-12        -64.72202    -87.27943     99.87      1.04E+3                  1403.336      33681       34.5019   34.504      7.56202            49         0.00  
1        2017-12-26    360.812966  2017-12-26T19:30:40Z    545       538.954     2.3933       2.3931         30.969725     30.971317       3.8775     3.7881    -0.0536       99.3211            1.00E-12        -64.72204    -87.27944     99.87      1.04E+3                  1405.231      33727       34.5027   34.5049     7.56189            38         0.00  
1        2017-12-26    360.812981  2017-12-26T19:30:42Z    546       539.941     2.3936       2.3933         30.970859     30.972522       3.8758     3.7826    -0.0537       99.2859            1.00E-12        -64.72204    -87.27944     99.87      1.04E+3                  1406.528      33758       34.5032   34.5055     7.5618             26         0.00  
1        2017-12-26    360.812991  2017-12-26T19:30:42Z    547       540.931     2.3938       2.3936         30.972447     30.974001       3.8721     3.7792    -0.0537       99.2966            1.00E-12        -64.72204    -87.27942     99.87      1.04E+3                  1407.46       33780       34.5044   34.5065     7.5617             20         0.00  
1        2017-12-26    360.813001  2017-12-26T19:30:43Z    548       541.917     2.3938       2.3937         30.973045     30.974617       3.8674     3.7822    -0.0502       99.2802            1.00E-12        -64.72204    -87.27942     99.87      1.04E+3                  1408.251      33799       34.5046   34.5066     7.56169            19         0.00  
1        2017-12-26    360.81301   2017-12-26T19:30:44Z    549       542.915     2.3936       2.3936         30.974098     30.975602       3.8598     3.7833    -0.0391       99.2941            1.00E-12        -64.72204    -87.27942     99.87      1.04E+3                  1409.033      33818       34.5055   34.5074     7.56167            19         0.00  
1        2017-12-26    360.813021  2017-12-26T19:30:45Z    550       543.907     2.393        2.3928         30.975465     30.976994       3.8597     3.7765    -0.0643       99.312             1.00E-12        -64.72204    -87.27942     99.87      1.04E+3                  1410.017      33841       34.5073   34.5094     7.5617             31         0.00  
1        2017-12-26    360.813048  2017-12-26T19:30:47Z    551       544.883     2.3927       2.3929         30.975892     30.977242       3.8653     3.7732    -0.0546       99.3092            1.00E-12        -64.72203    -87.27943     99.87      1.04E+3                  1412.375      33898       34.5076   34.509      7.56173            54         0.00  
1        2017-12-26    360.81307   2017-12-26T19:30:49Z    552       545.862     2.3926       2.3923         30.976657     30.97828        3.8583     3.7678    -0.0537       99.2995            1.00E-12        -64.72204    -87.27942     99.87      1.04E+3                  1414.284      33944       34.5081   34.5104     7.56173            27         0.00  
1        2017-12-26    360.813081  2017-12-26T19:30:50Z    553       546.852     2.392        2.3918         30.976767     30.978341       3.8616     3.777     -0.0537       99.3071            1.00E-12        -64.72204    -87.27942     99.87      1.04E+3                  1415.186      33965       34.5084   34.5105     7.56183            19         0.00  
1        2017-12-26    360.81309   2017-12-26T19:30:51Z    554       547.845     2.3902       2.3903         30.976141     30.977735       3.867      3.7763    -0.0537       99.3038            1.00E-12        -64.72204    -87.27942     99.87      1.04E+3                  1415.946      33984       34.509    34.5108     7.56214            18         0.00  
1        2017-12-26    360.813098  2017-12-26T19:30:52Z    555       548.837     2.3883       2.3881         30.975923     30.97755        3.8623     3.7727    -0.0537       99.3098            1.00E-12        -64.72204    -87.27942     99.86      1.04E+3                  1416.669      34001       34.5102   34.5124     7.56244            17         0.00  
1        2017-12-26    360.813107  2017-12-26T19:30:52Z    556       549.833     2.3877       2.3876         30.97633      30.977826       3.862      3.7707    -0.0655       99.3062            1.00E-12        -64.72204    -87.27942     99.87      1.04E+3                  1417.465      34020       34.5107   34.5128     7.56251            22         0.00  
1        2017-12-26    360.813123  2017-12-26T19:30:54Z    557       550.818     2.3863       2.3864         30.975819     30.977562       3.8585     3.7734    -0.0592       99.2903            1.00E-12        -64.72203    -87.27942     99.87      1.04E+3                  1418.831      34053       34.5112   34.5132     7.56277            40         0.00  
1        2017-12-26    360.813158  2017-12-26T19:30:57Z    558       551.791     2.3843       2.3842         30.975132     30.976693       3.8547     3.7635    -0.0625       99.3206            1.00E-12        -64.72203    -87.27943     99.87      1.04E+3                  1421.827      34125       34.5119   34.5139     7.5631             45         0.00  
1        2017-12-26    360.813171  2017-12-26T19:30:58Z    559       552.777     2.3799       2.3799         30.973292     30.974939       3.8583     3.766     -0.0535       99.3171            1.00E-12        -64.72204    -87.27942     99.87      1.04E+3                  1423.008      34153       34.5138   34.5158     7.56383            22         0.00  
1        2017-12-26    360.813181  2017-12-26T19:30:59Z    560       553.77      2.3767       2.3763         30.971287     30.972734       3.8496     3.7681    -0.0626       99.303             1.00E-12        -64.72204    -87.27942     99.87      1.04E+3                  1423.863      34174       34.5142   34.5164     7.56442            20         0.00  
1        2017-12-26    360.81319   2017-12-26T19:31:00Z    561       554.76      2.3762       2.3761         30.971606     30.973219       3.8476     3.7667    -0.0675       99.3009            1.00E-12        -64.72204    -87.27942     99.87      1.04E+3                  1424.634      34192       34.5146   34.5167     7.56449            18         0.00  
1        2017-12-26    360.813199  2017-12-26T19:31:00Z    562       555.753     2.3766       2.3764         30.972655     30.974329       3.8528     3.7668    -0.054        99.286             1.00E-12        -64.72204    -87.27942     99.87      1.04E+3                  1425.422      34211       34.5149   34.5172     7.56439            20         0.00  
1        2017-12-26    360.813211  2017-12-26T19:31:01Z    563       556.746     2.3773       2.3769         30.974013     30.975562       3.8534     3.765     -0.0537       99.2699            1.00E-12        -64.72204    -87.27942     99.87      1.04E+3                  1426.412      34235       34.5153   34.5177     7.56425            30         0.00  
1        2017-12-26    360.813233  2017-12-26T19:31:03Z    564       557.72      2.3771       2.3771         30.974555     30.976095       3.8489     3.756     -0.063        99.2795            1.00E-12        -64.72203    -87.27942     99.87      1.04E+3                  1428.302      34280       34.5156   34.5176     7.56426            54         0.00  
1        2017-12-26    360.813253  2017-12-26T19:31:05Z    565       558.704     2.379        2.3787         30.977572     30.979109       3.8452     3.7591    -0.0676       99.3205            1.00E-12        -64.72202    -87.27942     99.87      1.04E+3                  1430.06       34322       34.5167   34.5189     7.56384            30         0.00  
1        2017-12-26    360.813266  2017-12-26T19:31:06Z    566       559.697     2.3832       2.3829         30.98278      30.984293       3.8429     3.7545    -0.0565       99.3173            1.00E-12        -64.72202    -87.27942     99.87      1.04E+3                  1431.144      34348       34.5181   34.5203     7.56299            25         0.00  
1        2017-12-26    360.813277  2017-12-26T19:31:07Z    567       560.684     2.384        2.3836         30.984095     30.98563        3.8463     3.7556    -0.0696       99.3333            1.00E-12        -64.72202    -87.27942     99.87      1.04E+3                  1432.168      34373       34.5183   34.5206     7.56282            25         0.00  
1        2017-12-26    360.813289  2017-12-26T19:31:08Z    568       561.674     2.3842       2.3839         30.984975     30.986526       3.84       3.7582    -0.0701       99.3248            1.00E-12        -64.72204    -87.27942     99.87      1.04E+3                  1433.201      34398       34.5186   34.5209     7.56276            25         0.00  
1        2017-12-26    360.813302  2017-12-26T19:31:09Z    569       562.661     2.3854       2.3849         30.986836     30.988353       3.8414     3.7543    -0.069        99.3129            1.00E-12        -64.72204    -87.27942     99.87      1.04E+3                  1434.258      34423       34.5192   34.5215     7.56252            25         0.00  
1        2017-12-26    360.813314  2017-12-26T19:31:10Z    570       563.647     2.3867       2.3865         30.989092     30.990733       3.8444     3.7499    -0.0548       99.3296            1.00E-12        -64.72204    -87.27942     99.87      1.04E+3                  1435.332      34449       34.52     34.5222     7.56223            27         0.00  
1        2017-12-26    360.813327  2017-12-26T19:31:11Z    571       564.639     2.3876       2.3872         30.991008     30.992484       3.8342     3.7475    -0.0699       99.3222            1.00E-12        -64.72204    -87.27942     99.87      1.04E+3                  1436.473      34476       34.5208   34.523      7.56202            28         0.00  
1        2017-12-26    360.813342  2017-12-26T19:31:13Z    572       565.623     2.3909       2.3905         30.99524      30.996646       3.8405     3.749     -0.0661       99.3273            1.00E-12        -64.72204    -87.27943     99.87      1.04E+3                  1437.731      34507       34.522    34.5241     7.56134            32         0.00  
1        2017-12-26    360.813357  2017-12-26T19:31:14Z    573       566.608     2.3885       2.3884         30.993729     30.99537        3.8391     3.7517    -0.0535       99.3197            1.00E-12        -64.72204    -87.27943     99.87      1.04E+3                  1439.084      34539       34.5221   34.5243     7.56178            32         0.00  
1        2017-12-26    360.813372  2017-12-26T19:31:15Z    574       567.594     2.3869       2.3867         30.992883     30.994477       3.8339     3.7466    -0.0644       99.3171            1.00E-12        -64.72204    -87.27942     99.86      1.04E+3                  1440.344      34569       34.5222   34.5244     7.56207            29         0.00  
1        2017-12-26    360.813385  2017-12-26T19:31:16Z    575       568.584     2.3864       2.3863         30.993003     30.994599       3.8408     3.7489    -0.0602       99.3247            1.00E-12        -64.72204    -87.27942     99.87      1.04E+3                  1441.447      34596       34.5223   34.5244     7.56215            25         0.00  
1        2017-12-26    360.813397  2017-12-26T19:31:18Z    576       569.574     2.3857       2.3854         30.99272      30.994346       3.8353     3.7453    -0.0632       99.3141            1.00E-12        -64.72204    -87.27942     99.87      1.04E+3                  1442.499      34621       34.5223   34.5245     7.56231            26         0.00  
1        2017-12-26    360.813411  2017-12-26T19:31:19Z    577       570.563     2.3839       2.3836         30.991715     30.993299       3.8357     3.7403    -0.0691       99.3241            1.00E-12        -64.72203    -87.27942     99.87      1.04E+3                  1443.668      34649       34.5224   34.5246     7.56263            31         0.00  
1        2017-12-26    360.813426  2017-12-26T19:31:20Z    578       571.545     2.3825       2.3824         30.991115     30.99283        3.8362     3.7426    -0.0581       99.3081            1.00E-12        -64.72203    -87.27942     99.87      1.04E+3                  1445.047      34682       34.5226   34.5248     7.56288            33         0.00  
1        2017-12-26    360.81344   2017-12-26T19:31:21Z    579       572.528     2.3822       2.3819         30.991626     30.993169       3.8376     3.7409    -0.0536       99.3098            1.00E-12        -64.72204    -87.27942     99.87      1.04E+3                  1446.25       34711       34.5231   34.5252     7.56293            24         0.00  
1        2017-12-26    360.813451  2017-12-26T19:31:22Z    580       573.519     2.383        2.3828         30.993256     30.994804       3.8395     3.745     -0.0537       99.3098            1.00E-12        -64.72204    -87.27944     99.87      1.04E+3                  1447.164      34733       34.5236   34.5258     7.56274            20         0.00  
1        2017-12-26    360.81346   2017-12-26T19:31:23Z    581       574.512     2.3843       2.3841         30.995509     30.996983       3.8373     3.7497    -0.0537       99.3098            1.00E-12        -64.72204    -87.27944     99.87      1.04E+3                  1447.962      34752       34.5244   34.5265     7.56245            19         0.00  
1        2017-12-26    360.81347   2017-12-26T19:31:24Z    582       575.507     2.3848       2.3846         30.996606     30.998145       3.8267     3.7488    -0.0537       99.3098            1.00E-12        -64.72204    -87.27944     99.87      1.04E+3                  1448.808      34772       34.5247   34.5268     7.56234            23         0.00  
1        2017-12-26    360.813485  2017-12-26T19:31:25Z    583       576.49      2.3835       2.3835         30.996079     30.997823       3.8337     3.7464    -0.0619       99.245             1.00E-12        -64.72204    -87.27943     99.87      1.04E+3                  1450.148      34805       34.525    34.5271     7.56258            46         0.00  
1        2017-12-26    360.813511  2017-12-26T19:31:27Z    584       577.467     2.3814       2.3815         30.994804     30.996608       3.8347     3.7427    -0.0609       99.3231            1.00E-12        -64.72204    -87.27942     99.87      1.04E+3                  1452.376      34858       34.525    34.5271     7.56296            46         0.00  
1        2017-12-26    360.813527  2017-12-26T19:31:29Z    585       578.456     2.3799       2.3796         30.993979     30.995426       3.8346     3.738     -0.057        99.3255            1.00E-12        -64.72204    -87.27942     99.87      1.04E+3                  1453.73       34891       34.5251   34.5273     7.56325            26         0.00  
1        2017-12-26    360.813538  2017-12-26T19:31:30Z    586       579.443     2.3794       2.3792         30.994103     30.995621       3.83       3.7363    -0.0653       99.3355            1.00E-12        -64.72204    -87.27943     99.87      1.04E+3                  1454.712      34914       34.5252   34.5274     7.56333            22         0.00  
1        2017-12-26    360.813549  2017-12-26T19:31:31Z    587       580.434     2.3793       2.3793         30.994538     30.996161       3.8317     3.7348    -0.0699       99.3262            1.00E-12        -64.72204    -87.27944     99.87      1.04E+3                  1455.597      34935       34.5253   34.5274     7.56334            21         0.00  
1        2017-12-26    360.813559  2017-12-26T19:31:31Z    588       581.423     2.3794       2.3792         30.995174     30.996613       3.8348     3.7375    -0.0697       99.3219            1.00E-12        -64.72204    -87.27944     99.87      1.04E+3                  1456.48       34957       34.5255   34.5275     7.56332            22         0.00  
1        2017-12-26    360.81357   2017-12-26T19:31:32Z    589       582.415     2.3793       2.3792         30.995793     30.997447       3.8324     3.7438    -0.0656       99.3201            1.00E-12        -64.72204    -87.27944     99.87      1.04E+3                  1457.471      34980       34.5258   34.5279     7.56332            26         0.00  
1        2017-12-26    360.813585  2017-12-26T19:31:34Z    590       583.399     2.38         2.3797         30.99703      30.998448       3.8295     3.7422    -0.0543       99.3185            1.00E-12        -64.72204    -87.27944     99.87      1.04E+3                  1458.716      35010       34.526    34.5281     7.56317            34         0.00  
1        2017-12-26    360.813602  2017-12-26T19:31:35Z    591       584.383     2.3805       2.3807         30.99824      31.000143       3.8313     3.7409    -0.0644       99.3174            1.00E-12        -64.72204    -87.27944     99.87      1.04E+3                  1460.193      35046       34.5265   34.5286     7.56307            35         0.00  
1        2017-12-26    360.813618  2017-12-26T19:31:37Z    592       585.368     2.3824       2.3826         31.000799     31.00276        3.8255     3.7363    -0.0564       99.3169            1.00E-12        -64.72204    -87.27944     99.87      1.04E+3                  1461.558      35078       34.527    34.5293     7.56268            30         0.00  
1        2017-12-26    360.81363   2017-12-26T19:31:38Z    593       586.354     2.3851       2.3849         31.004447     31.005997       3.8275     3.7415    -0.0537       99.2986            1.00E-12        -64.72204    -87.27944     99.87      1.04E+3                  1462.65       35105       34.5281   34.5302     7.56212            24         0.00  
1        2017-12-26    360.813641  2017-12-26T19:31:39Z    594       587.344     2.3854       2.3857         31.00574      31.007458       3.8265     3.743     -0.0537       99.3146            1.00E-12        -64.72204    -87.27943     99.87      1.04E+3                  1463.568      35127       34.5288   34.5306     7.56202            21         0.00  
1        2017-12-26    360.813651  2017-12-26T19:31:39Z    595       588.335     2.3783       2.3782         31.000281     31.001869       3.8263     3.7354    -0.0537       99.3085            1.00E-12        -64.72204    -87.27942     99.87      1.04E+3                  1464.427      35147       34.5292   34.5312     7.56334            20         0.00  
1        2017-12-26    360.813661  2017-12-26T19:31:40Z    596       589.328     2.3778       2.3776         31.000761     31.002307       3.8288     3.7336    -0.0537       99.3065            1.00E-12        -64.72204    -87.27942     99.87      1.04E+3                  1465.342      35169       34.5298   34.5318     7.56341            24         0.00  
1        2017-12-26    360.813678  2017-12-26T19:31:42Z    597       590.313     2.3797       2.3795         31.003292     31.004703       3.8289     3.7387    -0.0562       99.297             1.00E-12        -64.72204    -87.27942     99.87      1.04E+3                  1466.748      35203       34.5302   34.5322     7.56301            49         0.00  
1        2017-12-26    360.813703  2017-12-26T19:31:44Z    598       591.289     2.3805       2.3802         31.004758     31.006307       3.826      3.7303    -0.0704       99.2735            1.00E-12        -64.72202    -87.27944     99.87      1.04E+3                  1468.959      35256       34.5307   34.5329     7.56285            44         0.00  
1        2017-12-26    360.813718  2017-12-26T19:31:45Z    599       592.279     2.3805       2.3804         31.005705     31.007245       3.8177     3.732     -0.0696       99.2984            1.00E-12        -64.72204    -87.27944     99.87      1.04E+3                  1470.272      35288       34.5312   34.5333     7.56281            25         0.00  
1        2017-12-26    360.81373   2017-12-26T19:31:46Z    600       593.267     2.3816       2.3815         31.007612     31.009099       3.8237     3.7315    -0.0543       99.3087            1.00E-12        -64.72204    -87.27944     99.87      1.04E+3                  1471.26       35311       34.5319   34.5339     7.56257            23         0.00  
1        2017-12-26    360.81374   2017-12-26T19:31:47Z    601       594.258     2.3835       2.3832         31.01016      31.011792       3.8166     3.7348    -0.0537       99.3098            1.00E-12        -64.72204    -87.27944     99.87      1.04E+3                  1472.147      35333       34.5325   34.5348     7.56219            20         0.00  
1        2017-12-26    360.81375   2017-12-26T19:31:48Z    602       595.246     2.3832       2.3831         31.010508     31.012132       3.8141     3.7314    -0.0537       99.3098            1.00E-12        -64.72204    -87.27944     99.87      1.04E+3                  1473.012      35353       34.5327   34.5348     7.56223            21         0.00  
1        2017-12-26    360.81376   2017-12-26T19:31:49Z    603       596.234     2.3828       2.3827         31.010762     31.012335       3.8226     3.7267    -0.0537       99.3098            1.00E-12        -64.72204    -87.27944     99.87      1.04E+3                  1473.899      35375       34.5329   34.5349     7.56229            22         0.00  
1        2017-12-26    360.813772  2017-12-26T19:31:50Z    604       597.224     2.3825       2.3823         31.011055     31.012669       3.8243     3.7323    -0.0537       99.3066            1.00E-12        -64.72204    -87.27944     99.87      1.04E+3                  1474.874      35398       34.533    34.5352     7.56234            26         0.00  
1        2017-12-26    360.813786  2017-12-26T19:31:51Z    605       598.21      2.3833       2.3833         31.012809     31.014595       3.8138     3.7294    -0.0587       99.3112            1.00E-12        -64.72203    -87.27944     99.87      1.04E+3                  1476.112      35428       34.5338   34.536      7.56216            34         0.00  
1        2017-12-26    360.813804  2017-12-26T19:31:53Z    606       599.193     2.3854       2.3853         31.016107     31.017696       3.8148     3.7222    -0.0613       99.3031            1.00E-12        -64.72202    -87.27944     99.87      1.04E+3                  1477.659      35465       34.535    34.5371     7.56169            37         0.00  
1        2017-12-26    360.81382   2017-12-26T19:31:54Z    607       600.179     2.3856       2.3854         31.017718     31.019227       3.8173     3.7224    -0.0681       99.3063            1.00E-12        -64.72203    -87.27944     99.87      1.04E+3                  1479.054      35498       34.5363   34.5383     7.56159            30         0.00  
1        2017-12-26    360.813833  2017-12-26T19:31:55Z    608       601.168     2.3855       2.3853         31.018796     31.020357       3.8117     3.7232    -0.0542       99.3015            1.00E-12        -64.72204    -87.27944     99.87      1.04E+3                  1480.189      35526       34.5372   34.5393     7.56156            26         0.00  
1        2017-12-26    360.813846  2017-12-26T19:31:56Z    609       602.159     2.3853       2.3852         31.019172     31.02073        3.8125     3.719     -0.0548       99.3206            1.00E-12        -64.72204    -87.27944     99.87      1.04E+3                  1481.286      35552       34.5373   34.5393     7.5616             27         0.00  
1        2017-12-26    360.81386   2017-12-26T19:31:58Z    610       603.143     2.3854       2.3853         31.019963     31.021579       3.8047     3.7231    -0.0546       99.3149            1.00E-12        -64.72204    -87.27944     99.87      1.04E+3                  1482.506      35581       34.5376   34.5397     7.56156            31         0.00  
1        2017-12-26    360.813874  2017-12-26T19:31:59Z    611       604.129     2.386        2.3859         31.021669     31.023204       3.8047     3.7111    -0.0514       99.3127            1.00E-12        -64.72204    -87.27944     99.87      1.04E+3                  1483.736      35611       34.5385   34.5406     7.56139            27         0.00  
1        2017-12-26    360.813886  2017-12-26T19:32:00Z    612       605.115     2.3861       2.386          31.022891     31.024458       3.8001     3.709     -0.04         99.2787            1.00E-12        -64.72204    -87.27944     99.87      1.04E+3                  1484.778      35636       34.5394   34.5414     7.56133            23         0.00  
1        2017-12-26    360.813897  2017-12-26T19:32:01Z    613       606.106     2.3841       2.384          31.022161     31.023707       3.8057     3.7127    -0.0546       99.3262            1.00E-12        -64.72204    -87.27944     99.87      1.04E+3                  1485.7        35658       34.5401   34.5421     7.56167            22         0.00  
1        2017-12-26    360.813908  2017-12-26T19:32:02Z    614       607.098     2.383        2.3828         31.022476     31.023938       3.8028     3.7171    -0.0549       99.33              1.00E-12        -64.72203    -87.27944     99.87      1.04E+3                  1486.658      35681       34.5411   34.5432     7.56183            25         0.00  
1        2017-12-26    360.813923  2017-12-26T19:32:03Z    615       608.084     2.3838       2.3836         31.024213     31.025692       3.8006     3.7154    -0.0537       99.3355            1.00E-12        -64.72202    -87.27945     99.87      1.04E+3                  1487.924      35711       34.5419   34.5439     7.56164            37         0.00  
1        2017-12-26    360.813942  2017-12-26T19:32:05Z    616       609.066     2.3839       2.3837         31.025435     31.026986       3.8022     3.7096    -0.0537       99.3365            1.00E-12        -64.72202    -87.27945     99.87      1.04E+3                  1489.579      35751       34.5427   34.5448     7.56158            39         0.00  
1        2017-12-26    360.813958  2017-12-26T19:32:06Z    617       610.051     2.386        2.3858         31.028958     31.030424       3.7914     3.6999    -0.0537       99.3365            1.00E-12        -64.72202    -87.27944     99.87      1.04E+3                  1490.984      35785       34.5443   34.5462     7.5611             28         0.00  
1        2017-12-26    360.81397   2017-12-26T19:32:07Z    618       611.038     2.3859       2.3858         31.030268     31.03176        3.787      3.7043    -0.0537       99.3365            1.00E-12        -64.72202    -87.27944     99.87      1.04E+3                  1492.028      35810       34.5454   34.5474     7.56105            23         0.00  
1        2017-12-26    360.813981  2017-12-26T19:32:08Z    619       612.027     2.3854       2.3852         31.030333     31.031892       3.7868     3.706     -0.0649       99.3352            1.00E-12        -64.72202    -87.27944     99.87      1.04E+3                  1492.916      35831       34.5455   34.5477     7.56115            21         0.00  
1        2017-12-26    360.813991  2017-12-26T19:32:09Z    620       613.021     2.384        2.3837         31.029851     31.031424       3.7866     3.7033    -0.0697       99.3202            1.00E-12        -64.72202    -87.27944     99.87      1.04E+3                  1493.778      35852       34.5459   34.5481     7.5614             21         0.00  
1        2017-12-26    360.814002  2017-12-26T19:32:10Z    621       614.008     2.3813       2.3812         31.028322     31.029953       3.793      3.7045    -0.0655       99.3205            1.00E-12        -64.72202    -87.27944     99.87      1.04E+3                  1494.734      35875       34.5463   34.5485     7.56188            25         0.00  
1        2017-12-26    360.814016  2017-12-26T19:32:11Z    622       614.994     2.3793       2.3791         31.027635     31.029202       3.7921     3.7029    -0.0603       99.3247            1.00E-12        -64.72202    -87.27944     99.87      1.04E+3                  1495.964      35904       34.5471   34.5493     7.56221            34         0.00  
1        2017-12-26    360.814032  2017-12-26T19:32:12Z    623       615.975     2.3785       2.3783         31.027722     31.029249       3.7857     3.7041    -0.0684       99.3298            1.00E-12        -64.72202    -87.27944     99.86      1.04E+3                  1497.358      35938       34.5476   34.5497     7.56235            32         0.00  
1        2017-12-26    360.814046  2017-12-26T19:32:14Z    624       616.964     2.3789       2.3787         31.028676     31.030301       3.7941     3.6994    -0.0581       99.3375            1.00E-12        -64.72203    -87.27944     99.87      1.04E+3                  1498.577      35967       34.5478   34.55       7.56226            27         0.00  
1        2017-12-26    360.814059  2017-12-26T19:32:15Z    625       617.955     2.3782       2.3781         31.028788     31.030475       3.7942     3.7024    -0.0666       99.3206            1.00E-12        -64.72204    -87.27944     99.87      1.04E+3                  1499.661      35993       34.5481   34.5503     7.56237            25         0.00  
1        2017-12-26    360.814071  2017-12-26T19:32:16Z    626       618.942     2.3747       2.3746         31.026741     31.028358       3.7925     3.7021    -0.0579       99.3374            1.00E-12        -64.72203    -87.27944     99.87      1.04E+3                  1500.767      36019       34.5488   34.5509     7.56299            28         0.00  
1        2017-12-26    360.814086  2017-12-26T19:32:17Z    627       619.928     2.3733       2.373          31.026467     31.028031       3.7845     3.7018    -0.0551       99.3273            1.00E-12        -64.72202    -87.27945     99.87      1.04E+3                  1502.02       36049       34.5494   34.5517     7.56323            32         0.00  
1        2017-12-26    360.814102  2017-12-26T19:32:18Z    628       620.914     2.3738       2.3734         31.027718     31.029278       3.788      3.7024    -0.0579       99.3273            1.00E-12        -64.72202    -87.27946     99.87      1.04E+3                  1503.382      36082       34.5498   34.5522     7.56311            32         0.00  
1        2017-12-26    360.814116  2017-12-26T19:32:20Z    629       621.897     2.3743       2.374          31.02912      31.030718       3.7875     3.6995    -0.0663       99.3166            1.00E-12        -64.72202    -87.27946     99.87      1.04E+3                  1504.593      36111       34.5505   34.5528     7.56298            27         0.00  
1        2017-12-26    360.814128  2017-12-26T19:32:21Z    630       622.889     2.375        2.3747         31.031189     31.032675       3.7826     3.7042    -0.0537       99.3295            1.00E-12        -64.72202    -87.27945     99.87      1.04E+3                  1505.623      36136       34.5518   34.5539     7.56279            23         0.00  
1        2017-12-26    360.814139  2017-12-26T19:32:22Z    631       623.88      2.374        2.3738         31.031177     31.032799       3.7868     3.6916    -0.0543       99.3354            1.00E-12        -64.72202    -87.27944     99.87      1.04E+3                  1506.625      36160       34.5523   34.5545     7.56295            25         0.00  
1        2017-12-26    360.814152  2017-12-26T19:32:23Z    632       624.866     2.3682       2.3682         31.026695     31.028588       3.7855     3.6917    -0.0542       99.3339            1.00E-12        -64.72202    -87.27944     99.87      1.04E+3                  1507.756      36187       34.5524   34.5548     7.56403            30         0.00  
1        2017-12-26    360.814168  2017-12-26T19:32:24Z    633       625.85      2.3665       2.3662         31.025746     31.027354       3.7817     3.6927    -0.0546       99.3365            1.00E-12        -64.72202    -87.27944     99.87      1.04E+3                  1509.088      36219       34.5526   34.5549     7.56435            33         0.00  
1        2017-12-26    360.814183  2017-12-26T19:32:25Z    634       626.835     2.3658       2.3653         31.025519     31.026967       3.7837     3.6979    -0.0458       99.3365            1.00E-12        -64.72202    -87.27946     99.87      1.04E+3                  1510.406      36251       34.5525   34.5549     7.56449            30         0.00  
1        2017-12-26    360.814196  2017-12-26T19:32:27Z    635       627.824     2.3648       2.3645         31.02547      31.026979       3.7799     3.6929    -0.0484       99.3365            1.00E-12        -64.72202    -87.27946     99.87      1.04E+3                  1511.551      36278       34.553    34.5552     7.56465            25         0.00  
1        2017-12-26    360.814208  2017-12-26T19:32:28Z    636       628.808     2.3641       2.3638         31.025726     31.027298       3.7757     3.6925    -0.0537       99.3283            1.00E-12        -64.72202    -87.27946     99.87      1.04E+3                  1512.549      36302       34.5535   34.5557     7.56476            23         0.00  
1        2017-12-26    360.814218  2017-12-26T19:32:28Z    637       629.798     2.3622       2.362          31.025063     31.026714       3.78       3.6884    -0.0551       99.3302            1.00E-12        -64.72202    -87.27946     99.87      1.04E+3                  1513.464      36324       34.5542   34.5565     7.56508            21         0.00  
1        2017-12-26    360.814229  2017-12-26T19:32:29Z    638       630.791     2.3596       2.3595         31.023554     31.025157       3.7846     3.6935    -0.0564       99.3341            1.00E-12        -64.72202    -87.27946     99.87      1.04E+3                  1514.359      36346       34.5545   34.5567     7.56554            22         0.00  
1        2017-12-26    360.81424   2017-12-26T19:32:30Z    639       631.781     2.3591       2.3588         31.023467     31.025058       3.7829     3.6927    -0.068        99.3211            1.00E-12        -64.72202    -87.27946     99.87      1.04E+3                  1515.341      36369       34.5545   34.5568     7.56565            27         0.00  
1        2017-12-26    360.814258  2017-12-26T19:32:32Z    640       632.764     2.3589       2.3587         31.023733     31.025362       3.7767     3.6928    -0.0606       99.3225            1.00E-12        -64.72202    -87.27946     99.87      1.04E+3                  1516.891      36406       34.5545   34.5567     7.56569            50         0.00  
1        2017-12-26    360.814282  2017-12-26T19:32:34Z    641       633.745     2.3587       2.3585         31.024167     31.025737       3.7802     3.6851    -0.0534       99.3283            1.00E-12        -64.72202    -87.27946     99.87      1.04E+3                  1518.963      36456       34.5546   34.5569     7.56571            41         0.00  
1        2017-12-26    360.814298  2017-12-26T19:32:35Z    642       634.729     2.359        2.3586         31.024821     31.0264         3.7776     3.6913    -0.0537       99.3357            1.00E-12        -64.72202    -87.27946     99.87      1.04E+3                  1520.314      36489       34.5547   34.557      7.56567            26         0.00  
1        2017-12-26    360.814309  2017-12-26T19:32:36Z    643       635.72      2.3591       2.3588         31.025495     31.027055       3.771      3.6915    -0.0537       99.3328            1.00E-12        -64.72202    -87.27946     99.87      1.04E+3                  1521.281      36512       34.5548   34.557      7.56564            22         0.00  
1        2017-12-26    360.814319  2017-12-26T19:32:37Z    644       636.71      2.3584       2.3582         31.025509     31.027091       3.7737     3.6887    -0.0537       99.3352            1.00E-12        -64.72202    -87.27946     99.87      1.04E+3                  1522.142      36532       34.555    34.5572     7.56575            20         0.00  
1        2017-12-26    360.814329  2017-12-26T19:32:38Z    645       637.698     2.3581       2.3579         31.025882     31.027518       3.7771     3.6903    -0.0537       99.3208            1.00E-12        -64.72202    -87.27946     99.86      1.04E+3                  1523.016      36553       34.5552   34.5575     7.56579            22         0.00  
1        2017-12-26    360.81434   2017-12-26T19:32:39Z    646       638.689     2.3581       2.3579         31.026466     31.028053       3.7761     3.6918    -0.0537       99.322             1.00E-12        -64.72202    -87.27946     99.87      1.04E+3                  1523.965      36576       34.5554   34.5577     7.56578            24         0.00  
1        2017-12-26    360.814353  2017-12-26T19:32:40Z    647       639.675     2.3584       2.3579         31.027081     31.028407       3.7727     3.6917    -0.0542       99.3219            1.00E-12        -64.72202    -87.27946     99.87      1.04E+3                  1525.088      36603       34.5554   34.5575     7.56574            31         0.00  
1        2017-12-26    360.814371  2017-12-26T19:32:42Z    648       640.66      2.358        2.3577         31.02789      31.029462       3.779      3.687     -0.0547       99.3153            1.00E-12        -64.72202    -87.27946     99.87      1.04E+3                  1526.664      36641       34.5562   34.5585     7.56576            45         0.00  
1        2017-12-26    360.814392  2017-12-26T19:32:43Z    649       641.64      2.3576       2.3573         31.02834      31.029973       3.7711     3.6855    -0.0678       99.3282            1.00E-12        -64.72202    -87.27946     99.87      1.04E+3                  1528.479      36685       34.5566   34.559      7.56582            36         0.00  
1        2017-12-26    360.814406  2017-12-26T19:32:45Z    650       642.628     2.3577       2.3572         31.02909      31.030679       3.7771     3.681     -0.0667       99.3272            1.00E-12        -64.72202    -87.27946     99.87      1.04E+3                  1529.715      36714       34.5569   34.5594     7.56579            26         0.00  
1        2017-12-26    360.814418  2017-12-26T19:32:46Z    651       643.618     2.3581       2.3577         31.030323     31.031841       3.778      3.681     -0.0536       99.3327            1.00E-12        -64.72202    -87.27946     99.87      1.04E+3                  1530.676      36737       34.5575   34.5598     7.56568            21         0.00  
1        2017-12-26    360.814428  2017-12-26T19:32:47Z    652       644.608     2.3589       2.3586         31.031722     31.03336        3.7762     3.6831    -0.0686       99.3327            1.00E-12        -64.72202    -87.27946     99.87      1.04E+3                  1531.555      36758       34.5578   34.5602     7.56552            21         0.00  
1        2017-12-26    360.814438  2017-12-26T19:32:47Z    653       645.597     2.3595       2.3592         31.032987     31.034699       3.7774     3.6887    -0.0581       99.3099            1.00E-12        -64.72202    -87.27946     99.87      1.04E+3                  1532.473      36780       34.5582   34.5606     7.56538            24         0.00  
1        2017-12-26    360.814451  2017-12-26T19:32:49Z    654       646.583     2.3612       2.3607         31.035223     31.036822       3.7745     3.6832    -0.0543       99.317             1.00E-12        -64.72202    -87.27946     99.87      1.04E+3                  1533.556      36806       34.5586   34.561      7.56504            29         0.00  
1        2017-12-26    360.814466  2017-12-26T19:32:50Z    655       647.568     2.3611       2.3609         31.035776     31.037503       3.7699     3.6891    -0.0559       99.3187            1.00E-12        -64.72202    -87.27946     99.87      1.04E+3                  1534.885      36838       34.5588   34.5611     7.56505            33         0.00  
1        2017-12-26    360.814482  2017-12-26T19:32:51Z    656       648.553     2.3609       2.3605         31.036345     31.037963       3.7733     3.6857    -0.0566       99.3268            1.00E-12        -64.72202    -87.27946     99.87      1.04E+3                  1536.205      36870       34.5592   34.5616     7.56507            30         0.00  
1        2017-12-26    360.814496  2017-12-26T19:32:52Z    657       649.545     2.3602       2.3598         31.036433     31.038076       3.7774     3.6837    -0.0615       99.3338            1.00E-12        -64.72202    -87.27946     99.87      1.04E+3                  1537.426      36899       34.5594   34.5619     7.56518            30         0.00  
1        2017-12-26    360.814511  2017-12-26T19:32:54Z    658       650.53      2.3592       2.3589         31.036146     31.037878       3.7744     3.6871    -0.047        99.3287            1.00E-12        -64.72202    -87.27947     99.87      1.04E+3                  1538.752      36931       34.5597   34.5621     7.56536            34         0.00  
1        2017-12-26    360.814526  2017-12-26T19:32:55Z    659       651.511     2.3579       2.3573         31.035752     31.037064       3.7685     3.681     -0.0543       99.326             1.00E-12        -64.72202    -87.27946     99.87      1.04E+3                  1540.082      36963       34.5601   34.5623     7.56559            28         0.00  
1        2017-12-26    360.814538  2017-12-26T19:32:56Z    660       652.501     2.3536       2.353          31.032653     31.034087       3.77       3.6811    -0.0632       99.3293            1.00E-12        -64.72202    -87.27946     99.87      1.04E+3                  1541.126      36988       34.5603   34.5627     7.56638            22         0.00  
1        2017-12-26    360.814549  2017-12-26T19:32:57Z    661       653.491     2.3488       2.3487         31.029794     31.031465       3.7732     3.6796    -0.0628       99.325             1.00E-12        -64.72202    -87.27948     99.87      1.04E+3                  1542.006      37009       34.5614   34.5636     7.56723            21         0.00  
1        2017-12-26    360.814559  2017-12-26T19:32:58Z    662       654.484     2.348        2.3476         31.029536     31.031122       3.7753     3.6798    -0.0539       99.3306            1.00E-12        -64.72202    -87.27948     99.87      1.04E+3                  1542.896      37031       34.5614   34.5638     7.56739            23         0.00  
1        2017-12-26    360.814573  2017-12-26T19:32:59Z    663       655.47      2.3466       2.3463         31.028981     31.030662       3.7764     3.678     -0.0537       99.3166            1.00E-12        -64.72202    -87.27948     99.87      1.04E+3                  1544.075      37059       34.5617   34.564      7.56763            36         0.00  
1        2017-12-26    360.814593  2017-12-26T19:33:01Z    664       656.45      2.3464       2.3461         31.029411     31.030975       3.7722     3.6781    -0.0654       99.3177            1.00E-12        -64.72202    -87.27948     99.87      1.04E+3                  1545.864      37102       34.5619   34.5642     7.56767            44         0.00  
1        2017-12-26    360.814611  2017-12-26T19:33:02Z    665       657.431     2.3463       2.3459         31.030201     31.031739       3.7681     3.6804    -0.0643       99.3247            1.00E-12        -64.72202    -87.27948     99.86      1.04E+3                  1547.371      37138       34.5624   34.5647     7.56766            29         0.00  
1        2017-12-26    360.814623  2017-12-26T19:33:03Z    666       658.422     2.3462       2.3458         31.030679     31.032365       3.767      3.6825    -0.055        99.3171            1.00E-12        -64.72202    -87.27948     99.87      1.04E+3                  1548.397      37163       34.5625   34.5651     7.56766            22         0.00  
1        2017-12-26    360.814633  2017-12-26T19:33:04Z    667       659.411     2.3464       2.346          31.031761     31.033237       3.7673     3.6823    -0.0537       99.3252            1.00E-12        -64.72202    -87.27948     99.87      1.04E+3                  1549.248      37183       34.5631   34.5654     7.56759            19         0.00  
1        2017-12-26    360.814642  2017-12-26T19:33:05Z    668       660.404     2.3498       2.3493         31.036503     31.037955       3.7628     3.6804    -0.0544       99.3225            1.00E-12        -64.72202    -87.27948     99.87      1.04E+3                  1550.086      37203       34.5648   34.5672     7.56687            21         0.00  
1        2017-12-26    360.814653  2017-12-26T19:33:06Z    669       661.39      2.3501       2.3498         31.03791      31.039585       3.7621     3.6811    -0.0537       99.332             1.00E-12        -64.72202    -87.27948     99.87      1.04E+3                  1551.019      37225       34.5657   34.5681     7.56676            25         0.00  
1        2017-12-26    360.814666  2017-12-26T19:33:07Z    670       662.378     2.3467       2.3465         31.035973     31.037712       3.7677     3.6755    -0.0651       99.3337            1.00E-12        -64.72202    -87.27948     99.87      1.04E+3                  1552.141      37252       34.5664   34.5687     7.56737            29         0.00  
1        2017-12-26    360.814684  2017-12-26T19:33:09Z    671       663.365     2.3437       2.3434         31.034855     31.03649        3.7641     3.6834    -0.0688       99.3161            1.00E-12        -64.72202    -87.27948     99.87      1.04E+3                  1553.659      37289       34.5678   34.5701     7.56788            47         0.00  
1        2017-12-26    360.81471   2017-12-26T19:33:11Z    672       664.343     2.3434       2.3431         31.035612     31.037301       3.7632     3.672     -0.0651       99.3383            1.00E-12        -64.72202    -87.27948     99.87      1.04E+3                  1555.915      37343       34.5685   34.5708     7.5679             49         0.00  
1        2017-12-26    360.814727  2017-12-26T19:33:12Z    673       665.327     2.3444       2.344          31.037647     31.039304       3.7604     3.6714    -0.0537       99.3365            1.00E-12        -64.72202    -87.27948     99.87      1.04E+3                  1557.385      37378       34.5693   34.5718     7.56766            26         0.00  
1        2017-12-26    360.814737  2017-12-26T19:33:13Z    674       666.316     2.345        2.3447         31.039057     31.040704       3.7598     3.6643    -0.0537       99.335             1.00E-12        -64.72202    -87.27948     99.87      1.04E+3                  1558.266      37399       34.5699   34.5722     7.56752            19         0.00  
1        2017-12-26    360.814745  2017-12-26T19:33:14Z    675       667.309     2.3431       2.343          31.038809     31.04045        3.7639     3.6717    -0.0537       99.3144            1.00E-12        -64.72202    -87.2795      99.87      1.04E+3                  1559.003      37417       34.571    34.5732     7.56781            17         0.00  
1        2017-12-26    360.814754  2017-12-26T19:33:15Z    676       668.297     2.3417       2.3415         31.038331     31.039836       3.7669     3.6758    -0.0641       99.3114            1.00E-12        -64.72202    -87.2795      99.86      1.04E+3                  1559.708      37434       34.5715   34.5735     7.56806            17         0.00  
1        2017-12-26    360.814763  2017-12-26T19:33:16Z    677       669.296     2.3406       2.3403         31.037863     31.039343       3.7655     3.6693    -0.065        99.3216            1.00E-12        -64.72202    -87.2795      99.87      1.04E+3                  1560.497      37453       34.5715   34.5737     7.56826            22         0.00  
1        2017-12-26    360.81478   2017-12-26T19:33:17Z    678       670.274     2.339        2.3388         31.036958     31.038575       3.7643     3.6699    -0.0559       99.3192            1.00E-12        -64.72202    -87.2795      99.87      1.03E+3                  1562.03       37490       34.5716   34.5738     7.56856            55         0.00  
1        2017-12-26    360.814805  2017-12-26T19:33:19Z    679       671.251     2.3372       2.3369         31.036192     31.037887       3.758      3.6593    -0.0536       99.3145            1.00E-12        -64.72202    -87.2795      99.87      1.03E+3                  1564.16       37541       34.572    34.5744     7.56888            38         0.00  
1        2017-12-26    360.814819  2017-12-26T19:33:20Z    680       672.238     2.3353       2.3349         31.035546     31.037142       3.7557     3.6637    -0.0655       99.2984            1.00E-12        -64.72202    -87.2795      99.87      1.03E+3                  1565.375      37570       34.5727   34.5751     7.5692             24         0.00  
1        2017-12-26    360.81483   2017-12-26T19:33:21Z    681       673.227     2.3348       2.3343         31.035795     31.0373         3.7595     3.665     -0.0691       99.3354            1.00E-12        -64.72202    -87.2795      99.87      1.03E+3                  1566.295      37592       34.573    34.5754     7.56928            21         0.00  
1        2017-12-26    360.81484   2017-12-26T19:33:22Z    682       674.221     2.334        2.3337         31.03588      31.037492       3.7587     3.6699    -0.0654       99.3245            1.00E-12        -64.72202    -87.2795      99.86      1.03E+3                  1567.148      37613       34.5735   34.5758     7.56941            20         0.00  
1        2017-12-26    360.81485   2017-12-26T19:33:23Z    683       675.207     2.3336       2.3332         31.036153     31.037701       3.7536     3.6726    -0.0543       99.3256            1.00E-12        -64.72202    -87.2795      99.87      1.03E+3                  1568.023      37634       34.5737   34.576      7.56948            22         0.00  
1        2017-12-26    360.814861  2017-12-26T19:33:24Z    684       676.195     2.3327       2.3323         31.036316     31.037856       3.7579     3.6671    -0.0543       99.3254            1.00E-12        -64.72202    -87.2795      99.87      1.03E+3                  1568.959      37656       34.5743   34.5766     7.56961            24         0.00  
1        2017-12-26    360.814875  2017-12-26T19:33:25Z    685       677.187     2.3321       2.3317         31.036571     31.038189       3.7591     3.6697    -0.067        99.3354            1.00E-12        -64.72202    -87.2795      99.87      1.03E+3                  1570.198      37686       34.5747   34.5771     7.5697             41         0.00  
1        2017-12-26    360.814906  2017-12-26T19:33:28Z    686       678.158     2.3322       2.3321         31.037194     31.038967       3.7615     3.6723    -0.0556       99.3117            1.00E-12        -64.72202    -87.2795      99.87      1.03E+3                  1572.864      37750       34.5748   34.5771     7.56968            37         0.00  
1        2017-12-26    360.814921  2017-12-26T19:33:29Z    687       679.145     2.332        2.3317         31.03785      31.039507       3.7625     3.6701    -0.055        99.3315            1.00E-12        -64.72202    -87.2795      99.87      1.03E+3                  1574.216      37782       34.5753   34.5777     7.56968            23         0.00  
1        2017-12-26    360.814931  2017-12-26T19:33:30Z    688       680.136     2.3319       2.3317         31.038386     31.040034       3.7609     3.6655    -0.0537       99.2934            1.00E-12        -64.72202    -87.2795      99.87      1.03E+3                  1575.022      37802       34.5756   34.5778     7.5697             18         0.00  
1        2017-12-26    360.814939  2017-12-26T19:33:31Z    689       681.122     2.331        2.3309         31.03825      31.039936       3.7604     3.6641    -0.0555       99.3015            1.00E-12        -64.72202    -87.2795      99.87      1.03E+3                  1575.733      37819       34.5758   34.578      7.56986            16         0.00  
1        2017-12-26    360.814947  2017-12-26T19:33:31Z    690       682.122     2.3297       2.3294         31.03871      31.040238       3.7608     3.665     -0.0694       99.3219            1.00E-12        -64.72202    -87.2795      99.87      1.03E+3                  1576.447      37836       34.5772   34.5794     7.57002            18         0.00  
1        2017-12-26    360.814957  2017-12-26T19:33:32Z    691       683.109     2.3303       2.3299         31.040138     31.041742       3.7623     3.6697    -0.0609       99.3203            1.00E-12        -64.72202    -87.2795      99.87      1.03E+3                  1577.276      37856       34.5778   34.5803     7.56988            23         0.00  
1        2017-12-26    360.814971  2017-12-26T19:33:33Z    692       684.091     2.3307       2.3303         31.04125      31.042803       3.7587     3.6643    -0.0539       99.3182            1.00E-12        -64.72202    -87.2795      99.87      1.03E+3                  1578.461      37884       34.5782   34.5806     7.56978            35         0.00  
1        2017-12-26    360.814989  2017-12-26T19:33:35Z    693       685.075     2.3314       2.331          31.042674     31.044324       3.7614     3.6727    -0.0537       99.3366            1.00E-12        -64.72201    -87.2795      99.87      1.03E+3                  1580.068      37923       34.5787   34.5811     7.56963            40         0.00  
1        2017-12-26    360.81501   2017-12-26T19:33:37Z    694       686.062     2.3292       2.3291         31.041312     31.043095       3.7569     3.6674    -0.0537       99.3365            1.00E-12        -64.722      -87.2795      99.87      1.03E+3                  1581.834      37965       34.5788   34.5812     7.57003            45         0.00  
1        2017-12-26    360.81503   2017-12-26T19:33:39Z    695       687.043     2.3275       2.3271         31.040493     31.042096       3.7502     3.6553    -0.0537       99.3232            1.00E-12        -64.72202    -87.2795      99.87      1.03E+3                  1583.567      38007       34.5791   34.5815     7.57034            34         0.00  
1        2017-12-26    360.815043  2017-12-26T19:33:40Z    696       688.027     2.3274       2.327          31.041075     31.042636       3.7531     3.6679    -0.0537       99.313             1.00E-12        -64.72202    -87.2795      99.87      1.03E+3                  1584.693      38034       34.5794   34.5817     7.57035            22         0.00  
1        2017-12-26    360.815052  2017-12-26T19:33:40Z    697       689.019     2.3274       2.3272         31.041709     31.04337        3.7598     3.6678    -0.0537       99.324             1.00E-12        -64.72202    -87.2795      99.87      1.03E+3                  1585.512      38053       34.5796   34.5819     7.57034            19         0.00  
1        2017-12-26    360.815061  2017-12-26T19:33:41Z    698       690.014     2.3272       2.327          31.042369     31.043946       3.7616     3.6627    -0.0537       99.3155            1.00E-12        -64.72202    -87.2795      99.87      1.03E+3                  1586.283      38072       34.58     34.5823     7.57034            19         0.00  
1        2017-12-26    360.815072  2017-12-26T19:33:42Z    699       691.007     2.3269       2.3264         31.042578     31.044203       3.7607     3.6653    -0.0537       99.3159            1.00E-12        -64.722      -87.27952     99.87      1.03E+3                  1587.182      38093       34.5801   34.5827     7.5704             26         0.00  
1        2017-12-26    360.815095  2017-12-26T19:33:44Z    700       691.981     2.326        2.326          31.042556     31.04432        3.7589     3.6651    -0.0564       99.3178            1.00E-12        -64.722      -87.27952     99.87      1.03E+3                  1589.187      38141       34.5805   34.5828     7.57055            50         0.00  
1        2017-12-26    360.815117  2017-12-26T19:33:46Z    701       692.96      2.3254       2.325          31.042941     31.044551       3.7497     3.6619    -0.069        99.3169            1.00E-12        -64.72201    -87.27952     99.86      1.03E+3                  1591.075      38187       34.5811   34.5835     7.57063            26         0.00  
1        2017-12-26    360.815126  2017-12-26T19:33:47Z    702       693.951     2.3255       2.3252         31.043639     31.045299       3.7514     3.6636    -0.0535       99.3296            1.00E-12        -64.72202    -87.27951     99.87      1.03E+3                  1591.928      38207       34.5814   34.5838     7.57061            19         0.00  
1        2017-12-26    360.815135  2017-12-26T19:33:48Z    703       694.945     2.3258       2.3255         31.044495     31.046117       3.7561     3.6642    -0.0563       99.3287            1.00E-12        -64.72202    -87.2795      99.86      1.03E+3                  1592.659      38225       34.5815   34.5838     7.57053            17         0.00  
1        2017-12-26    360.815143  2017-12-26T19:33:48Z    704       695.933     2.3257       2.3253         31.045598     31.047134       3.755      3.6637    -0.0545       99.3218            1.00E-12        -64.72202    -87.2795      99.87      1.03E+3                  1593.387      38242       34.5824   34.5847     7.57051            18         0.00  
1        2017-12-26    360.815154  2017-12-26T19:33:49Z    705       696.929     2.3252       2.3249         31.045737     31.047371       3.7555     3.664     -0.0512       99.3258            1.00E-12        -64.722      -87.2795      99.87      1.03E+3                  1594.308      38264       34.5826   34.585      7.57059            28         0.00  
1        2017-12-26    360.815172  2017-12-26T19:33:51Z    706       697.902     2.3251       2.3248         31.046102     31.047693       3.7578     3.6659    -0.0469       99.3199            1.00E-12        -64.722      -87.27952     99.87      1.03E+3                  1595.897      38303       34.5826   34.5849     7.57062            44         0.00  
1        2017-12-26    360.815191  2017-12-26T19:33:53Z    707       698.887     2.3247       2.3243         31.046295     31.047956       3.7569     3.6629    -0.067        99.3036            1.00E-12        -64.722      -87.2795      99.87      1.03E+3                  1597.472      38340       34.5828   34.5852     7.57068            32         0.00  
1        2017-12-26    360.815205  2017-12-26T19:33:54Z    708       699.876     2.3247       2.3242         31.046801     31.04837        3.7558     3.6639    -0.0534       99.3078            1.00E-12        -64.722      -87.27951     99.87      1.03E+3                  1598.673      38369       34.5829   34.5853     7.57068            26         0.00  
1        2017-12-26    360.815217  2017-12-26T19:33:55Z    709       700.866     2.3243       2.3239         31.047067     31.048698       3.7544     3.6631    -0.0549       99.3119            1.00E-12        -64.722      -87.27952     99.87      1.03E+3                  1599.712      38394       34.583    34.5855     7.57074            25         0.00  
1        2017-12-26    360.815229  2017-12-26T19:33:56Z    710       701.855     2.3241       2.3238         31.047517     31.049089       3.7588     3.6616    -0.0542       99.3246            1.00E-12        -64.722      -87.27952     99.87      1.03E+3                  1600.823      38421       34.5832   34.5856     7.57076            30         0.00  
1        2017-12-26    360.815246  2017-12-26T19:33:57Z    711       702.839     2.3234       2.3231         31.047828     31.049464       3.7524     3.6597    -0.0617       99.3259            1.00E-12        -64.722      -87.27952     99.87      1.03E+3                  1602.252      38455       34.5839   34.5862     7.57087            38         0.00  
1        2017-12-26    360.815265  2017-12-26T19:33:59Z    712       703.822     2.321        2.3206         31.047014     31.04864        3.7557     3.6634    -0.0589       99.3353            1.00E-12        -64.722      -87.27952     99.87      1.03E+3                  1603.855      38494       34.5849   34.5874     7.57127            36         0.00  
1        2017-12-26    360.815279  2017-12-26T19:34:00Z    713       704.807     2.3208       2.3204         31.047488     31.049168       3.7573     3.664     -0.0548       99.3167            1.00E-12        -64.722      -87.27952     99.87      1.03E+3                  1605.122      38524       34.5852   34.5877     7.5713             26         0.00  
1        2017-12-26    360.815291  2017-12-26T19:34:01Z    714       705.801     2.3205       2.3201         31.04779      31.049383       3.7578     3.6632    -0.0682       99.3088            1.00E-12        -64.722      -87.27952     99.87      1.03E+3                  1606.108      38548       34.5854   34.5878     7.57135            23         0.00  
1        2017-12-26    360.815302  2017-12-26T19:34:02Z    715       706.79      2.3196       2.3193         31.047725     31.049382       3.7595     3.6631    -0.0689       99.3287            1.00E-12        -64.722      -87.27952     99.87      1.03E+3                  1607.115      38572       34.5857   34.5881     7.57149            26         0.00  
1        2017-12-26    360.815318  2017-12-26T19:34:03Z    716       707.775     2.3192       2.3189         31.047853     31.049532       3.7589     3.6656    -0.0554       99.3274            1.00E-12        -64.722      -87.27952     99.87      1.03E+3                  1608.513      38605       34.5857   34.5881     7.57157            41         0.00  
1        2017-12-26    360.815338  2017-12-26T19:34:05Z    717       708.756     2.3191       2.3188         31.048348     31.049901       3.7456     3.6645    -0.0537       99.3281            1.00E-12        -64.722      -87.27952     99.87      1.03E+3                  1610.178      38645       34.5859   34.5881     7.57158            35         0.00  
1        2017-12-26    360.815352  2017-12-26T19:34:06Z    718       709.737     2.3185       2.3182         31.048403     31.050058       3.7438     3.6596    -0.0537       99.3379            1.00E-12        -64.722      -87.27952     99.87      1.03E+3                  1611.388      38674       34.5861   34.5885     7.57169            24         0.00  
1        2017-12-26    360.815362  2017-12-26T19:34:07Z    719       710.729     2.3161       2.3159         31.047613     31.0492         3.7452     3.6598    -0.0487       99.3208            1.00E-12        -64.722      -87.27952     99.87      1.03E+3                  1612.261      38695       34.5872   34.5893     7.57208            19         0.00  
1        2017-12-26    360.81537   2017-12-26T19:34:08Z    720       711.72      2.3164       2.3164         31.049072     31.05081        3.7518     3.6643    -0.0415       99.3158            1.00E-12        -64.722      -87.27952     99.87      1.03E+3                  1613.014      38713       34.5881   34.5903     7.57197            18         0.00  
1        2017-12-26    360.815379  2017-12-26T19:34:09Z    721       712.703     2.3147       2.3144         31.047977     31.049516       3.7559     3.6617    -0.0542       99.3215            1.00E-12        -64.722      -87.27952     99.87      1.03E+3                  1613.755      38731       34.588    34.5902     7.5723             18         0.00  
1        2017-12-26    360.815388  2017-12-26T19:34:10Z    722       713.705     2.3144       2.3141         31.048223     31.049876       3.7628     3.6629    -0.0537       99.331             1.00E-12        -64.722      -87.27952     99.87      1.03E+3                  1614.552      38750       34.5881   34.5905     7.57236            21         0.00  
1        2017-12-26    360.815405  2017-12-26T19:34:11Z    723       714.691     2.3155       2.3152         31.049926     31.05151        3.7621     3.6686    -0.0651       99.3308            1.00E-12        -64.722      -87.27952     99.87      1.03E+3                  1616.01       38785       34.5884   34.5908     7.57212            34         0.00  
1        2017-12-26    360.815447  2017-12-26T19:34:15Z    724       715.651     2.315        2.3148         31.049803     31.051565       3.7472     3.6542    -0.0692       99.3371            1.00E-12        -64.722      -87.27952     99.86      1.03E+3                  1619.593      38871       34.5883   34.5907     7.57223            34         0.00  
1        2017-12-26    360.815456  2017-12-26T19:34:15Z    725       716.647     2.3124       2.3123         31.049054     31.050629       3.7504     3.6574    -0.0692       99.3365            1.00E-12        -64.722      -87.27952     99.87      1.03E+3                  1620.373      38890       34.5897   34.5917     7.57265            18         0.00  
1        2017-12-26    360.815464  2017-12-26T19:34:16Z    726       717.635     2.313        2.3127         31.051447     31.052882       3.7528     3.6585    -0.0693       99.3296            1.00E-12        -64.722      -87.27952     99.87      1.03E+3                  1621.086      38907       34.5914   34.5935     7.57244            16         0.00  
1        2017-12-26    360.815471  2017-12-26T19:34:17Z    727       718.627     2.3132       2.3129         31.05215      31.053778       3.7552     3.6615    -0.0684       99.3348            1.00E-12        -64.722      -87.27952     99.87      1.03E+3                  1621.727      38922       34.5915   34.5938     7.5724             16         0.00  
1        2017-12-26    360.815479  2017-12-26T19:34:17Z    728       719.62      2.3121       2.3119         31.051785     31.05337        3.7562     3.6679    -0.0684       99.3348            1.00E-12        -64.722      -87.27952     99.87      1.03E+3                  1622.374      38938       34.5917   34.5939     7.5726             16         0.00  
1        2017-12-26    360.815488  2017-12-26T19:34:18Z    729       720.614     2.3111       2.3109         31.051634     31.053291       3.7555     3.6633    -0.0618       99.3268            1.00E-12        -64.722      -87.27952     99.87      1.03E+3                  1623.122      38956       34.592    34.5943     7.57277            21         0.00  
1        2017-12-26    360.815505  2017-12-26T19:34:20Z    730       721.591     2.3102       2.31           31.051621     31.053236       3.7569     3.6592    -0.0544       99.3238            1.00E-12        -64.722      -87.27952     99.87      1.02E+3                  1624.599      38991       34.5924   34.5947     7.57291            52         0.00  
1        2017-12-26    360.815527  2017-12-26T19:34:22Z    731       722.568     2.3096       2.3093         31.051783     31.053355       3.7476     3.663     -0.063        99.3202            1.00E-12        -64.722      -87.27953     99.87      1.02E+3                  1626.535      39038       34.5927   34.595      7.57301            33         0.00  
1        2017-12-26    360.81554   2017-12-26T19:34:23Z    732       723.555     2.3083       2.308          31.051954     31.053579       3.7528     3.6602    -0.061        99.3308            1.00E-12        -64.722      -87.27953     99.87      1.03E+3                  1627.643      39064       34.5938   34.5962     7.57321            22         0.00  
1        2017-12-26    360.81555   2017-12-26T19:34:24Z    733       724.546     2.3076       2.3073         31.052461     31.054068       3.7551     3.6572    -0.0551       99.3294            1.00E-12        -64.722      -87.27952     99.87      1.03E+3                  1628.484      39085       34.5947   34.597      7.5733             19         0.00  
1        2017-12-26    360.815559  2017-12-26T19:34:24Z    734       725.536     2.3073       2.307          31.053029     31.054697       3.7552     3.6615    -0.0552       99.3204            1.00E-12        -64.722      -87.27952     99.87      1.03E+3                  1629.274      39104       34.5952   34.5976     7.57333            20         0.00  
1        2017-12-26    360.815569  2017-12-26T19:34:25Z    735       726.528     2.3068       2.3065         31.05332      31.05495        3.759      3.6648    -0.0543       99.3359            1.00E-12        -64.722      -87.27952     99.87      1.02E+3                  1630.195      39126       34.5955   34.5979     7.5734             26         0.00  
1        2017-12-26    360.815589  2017-12-26T19:34:27Z    736       727.511     2.3065       2.3062         31.053529     31.055176       3.757      3.6604    -0.0691       99.3051            1.00E-12        -64.722      -87.27952     99.87      1.02E+3                  1631.858      39166       34.5956   34.5979     7.57346            54         0.00  
1        2017-12-26    360.815613  2017-12-26T19:34:29Z    737       728.493     2.3061       2.3059         31.053904     31.055514       3.7532     3.6625    -0.0606       99.3273            1.00E-12        -64.722      -87.27954     99.87      1.02E+3                  1633.988      39217       34.5959   34.5981     7.57351            43         0.00  
1        2017-12-26    360.815631  2017-12-26T19:34:31Z    738       729.478     2.3055       2.3052         31.054024     31.055687       3.7528     3.6613    -0.0587       99.3308            1.00E-12        -64.722      -87.27954     99.87      1.02E+3                  1635.519      39253       34.5962   34.5985     7.57362            32         0.00  
1        2017-12-26    360.815645  2017-12-26T19:34:32Z    739       730.463     2.3053       2.305          31.054446     31.056001       3.748      3.6559    -0.068        99.3301            1.00E-12        -64.722      -87.27954     99.87      1.02E+3                  1636.691      39282       34.5964   34.5986     7.57365            25         0.00  
1        2017-12-26    360.815655  2017-12-26T19:34:33Z    740       731.449     2.305        2.3048         31.054742     31.0564         3.7494     3.6506    -0.0579       99.297             1.00E-12        -64.722      -87.27954     99.87      1.02E+3                  1637.625      39304       34.5965   34.5988     7.57369            21         0.00  
1        2017-12-26    360.815665  2017-12-26T19:34:33Z    741       732.439     2.3048       2.3046         31.055006     31.05679        3.7523     3.655     -0.0611       99.3383            1.00E-12        -64.722      -87.27954     99.87      1.02E+3                  1638.443      39324       34.5966   34.599      7.57373            18         0.00  
1        2017-12-26    360.815674  2017-12-26T19:34:34Z    742       733.43      2.3041       2.3039         31.055222     31.056835       3.7551     3.6609    -0.0691       99.3281            1.00E-12        -64.722      -87.27952     99.87      1.02E+3                  1639.206      39342       34.597    34.5992     7.57384            19         0.00  
1        2017-12-26    360.815683  2017-12-26T19:34:35Z    743       734.421     2.3031       2.3028         31.054939     31.05652        3.7558     3.6561    -0.0684       99.3239            1.00E-12        -64.722      -87.27952     99.87      1.02E+3                  1640.011      39361       34.5973   34.5994     7.57402            21         0.00  
1        2017-12-26    360.815697  2017-12-26T19:34:36Z    744       735.411     2.3021       2.3018         31.054567     31.056268       3.7573     3.6576    -0.0658       99.3094            1.00E-12        -64.722      -87.27953     99.87      1.02E+3                  1641.184      39389       34.5973   34.5997     7.5742             40         0.00  
1        2017-12-26    360.815722  2017-12-26T19:34:38Z    745       736.381     2.3017       2.3014         31.054726     31.05623        3.749      3.6583    -0.0526       99.3375            1.00E-12        -64.722      -87.27954     99.87      1.02E+3                  1643.41       39443       34.5974   34.5996     7.57427            52         0.00  
1        2017-12-26    360.81574   2017-12-26T19:34:40Z    746       737.37      2.3001       2.2999         31.054151     31.055778       3.7473     3.6579    -0.0537       99.3375            1.00E-12        -64.722      -87.27954     99.86      1.02E+3                  1644.928      39479       34.5978   34.6001     7.57455            28         0.00  
1        2017-12-26    360.815751  2017-12-26T19:34:41Z    747       738.356     2.2991       2.299          31.054044     31.055675       3.7546     3.6608    -0.0545       99.327             1.00E-12        -64.722      -87.27954     99.87      1.02E+3                  1645.913      39503       34.5982   34.6004     7.57472            20         0.00  
1        2017-12-26    360.815761  2017-12-26T19:34:42Z    748       739.348     2.2984       2.2982         31.053797     31.055467       3.7559     3.6582    -0.0537       99.3365            1.00E-12        -64.722      -87.27954     99.87      1.02E+3                  1646.729      39523       34.5981   34.6005     7.57485            20         0.00  
1        2017-12-26    360.81577   2017-12-26T19:34:43Z    749       740.343     2.2976       2.2972         31.053464     31.055146       3.7549     3.6585    -0.0687       99.339             1.00E-12        -64.722      -87.27954     99.86      1.02E+3                  1647.56       39542       34.598    34.6005     7.57501            21         0.00  
1        2017-12-26    360.815783  2017-12-26T19:34:44Z    750       741.328     2.2966       2.2962         31.053189     31.054797       3.7556     3.6608    -0.0697       99.3313            1.00E-12        -64.722      -87.27954     99.87      1.02E+3                  1648.651      39569       34.5982   34.6007     7.57519            33         0.00  
1        2017-12-26    360.815802  2017-12-26T19:34:45Z    751       742.308     2.2964       2.2961         31.053574     31.05519        3.7559     3.6635    -0.0622       99.324             1.00E-12        -64.722      -87.27956     99.87      1.02E+3                  1650.318      39609       34.5984   34.6007     7.57522            43         0.00  
1        2017-12-26    360.815821  2017-12-26T19:34:47Z    752       743.292     2.2935       2.2933         31.052141     31.05375        3.7548     3.6603    -0.0536       99.3351            1.00E-12        -64.722      -87.27956     99.87      1.02E+3                  1651.914      39647       34.5992   34.6014     7.57573            34         0.00  
1        2017-12-26    360.815836  2017-12-26T19:34:48Z    753       744.278     2.2934       2.293          31.052799     31.054486       3.7474     3.6582    -0.0537       99.3302            1.00E-12        -64.722      -87.27956     99.87      1.02E+3                  1653.258      39679       34.5996   34.6021     7.57573            30         0.00  
1        2017-12-26    360.81585   2017-12-26T19:34:49Z    754       745.266     2.2925       2.292          31.052734     31.054383       3.7497     3.6611    -0.0537       99.3303            1.00E-12        -64.722      -87.27956     99.86      1.02E+3                  1654.402      39707       34.6      34.6025     7.57589            26         0.00  
1        2017-12-26    360.815861  2017-12-26T19:34:50Z    755       746.255     2.2917       2.2914         31.053025     31.054627       3.7551     3.661     -0.0537       99.3365            1.00E-12        -64.722      -87.27956     99.87      1.02E+3                  1655.437      39731       34.6006   34.6029     7.576              24         0.00  
1        2017-12-26    360.815874  2017-12-26T19:34:52Z    756       747.246     2.2909       2.2907         31.052879     31.054451       3.7603     3.6648    -0.0537       99.3316            1.00E-12        -64.722      -87.27956     99.87      1.02E+3                  1656.48       39757       34.6007   34.6029     7.57614            27         0.00  
1        2017-12-26    360.815889  2017-12-26T19:34:53Z    757       748.23      2.2901       2.2897         31.052745     31.054347       3.7536     3.6641    -0.0537       99.3217            1.00E-12        -64.722      -87.27956     99.87      1.02E+3                  1657.791      39788       34.601    34.6034     7.57629            37         0.00  
1        2017-12-26    360.815909  2017-12-26T19:34:55Z    758       749.214     2.289        2.2887         31.052673     31.054275       3.7525     3.6605    -0.064        99.3083            1.00E-12        -64.722      -87.27956     99.87      1.02E+3                  1659.508      39829       34.6015   34.6038     7.57647            42         0.00  
1        2017-12-26    360.815926  2017-12-26T19:34:56Z    759       750.195     2.2872       2.287          31.051831     31.053542       3.7451     3.6529    -0.0555       99.3345            1.00E-12        -64.722      -87.27956     99.87      1.02E+3                  1661.005      39865       34.6019   34.6041     7.57679            29         0.00  
1        2017-12-26    360.815938  2017-12-26T19:34:57Z    760       751.181     2.2869       2.2867         31.052193     31.053948       3.744      3.6585    -0.0537       99.334             1.00E-12        -64.722      -87.27956     99.87      1.02E+3                  1662.013      39889       34.602    34.6044     7.57683            21         0.00  
1        2017-12-26    360.815947  2017-12-26T19:34:58Z    761       752.175     2.2862       2.2859         31.05231      31.054023       3.75       3.6655    -0.0537       99.3323            1.00E-12        -64.722      -87.27956     99.87      1.02E+3                  1662.834      39909       34.6025   34.6049     7.57695            19         0.00  
1        2017-12-26    360.815957  2017-12-26T19:34:59Z    762       753.168     2.2849       2.2846         31.052057     31.053634       3.7551     3.6653    -0.0537       99.3302            1.00E-12        -64.722      -87.27956     99.87      1.02E+3                  1663.659      39929       34.603    34.6053     7.57716            21         0.00  
1        2017-12-26    360.81597   2017-12-26T19:35:00Z    763       754.156     2.2816       2.2815         31.050417     31.05221        3.752      3.6635    -0.0537       99.3303            1.00E-12        -64.722      -87.27956     99.87      1.02E+3                  1664.818      39957       34.6039   34.6063     7.57773            39         0.00  
1        2017-12-26    360.815995  2017-12-26T19:35:02Z    764       755.13      2.2808       2.2805         31.050254     31.051951       3.7509     3.6605    -0.0537       99.3211            1.00E-12        -64.722      -87.27956     99.86      1.02E+3                  1667.008      40009       34.604    34.6065     7.57788            53         0.00  
1        2017-12-26    360.816013  2017-12-26T19:35:04Z    765       756.111     2.2806       2.2801         31.051149     31.052781       3.7523     3.6596    -0.0678       99.3288            1.00E-12        -64.722      -87.27956     99.87      1.02E+3                  1668.559      40046       34.6049   34.6074     7.57788            27         0.00  
1        2017-12-26    360.816024  2017-12-26T19:35:04Z    766       757.102     2.2806       2.2803         31.052107     31.053758       3.7488     3.6584    -0.055        99.3209            1.00E-12        -64.722      -87.27956     99.87      1.02E+3                  1669.474      40068       34.6055   34.6079     7.57785            19         0.00  
1        2017-12-26    360.816033  2017-12-26T19:35:05Z    767       758.096     2.2805       2.2802         31.052727     31.054229       3.7489     3.656     -0.0627       99.3381            1.00E-12        -64.722      -87.27958     99.87      1.02E+3                  1670.235      40087       34.6058   34.608      7.57784            18         0.00  
1        2017-12-26    360.816042  2017-12-26T19:35:06Z    768       759.085     2.2802       2.28           31.053013     31.054596       3.7478     3.6558    -0.0676       99.3393            1.00E-12        -64.722      -87.27958     99.87      1.02E+3                  1670.991      40105       34.606    34.6081     7.5779             19         0.00  
1        2017-12-26    360.816053  2017-12-26T19:35:07Z    769       760.076     2.2802       2.2797         31.053142     31.054773       3.7517     3.659     -0.0543       99.3366            1.00E-12        -64.722      -87.27958     99.87      1.02E+3                  1671.938      40128       34.6056   34.6081     7.57792            28         0.00  
1        2017-12-26    360.81607   2017-12-26T19:35:08Z    770       761.053     2.2792       2.2788         31.052914     31.054559       3.7535     3.6623    -0.0551       99.3225            1.00E-12        -64.722      -87.27958     99.87      1.02E+3                  1673.44       40164       34.6059   34.6083     7.5781             42         0.00  
1        2017-12-26    360.81609   2017-12-26T19:35:10Z    771       762.039     2.2779       2.2775         31.052476     31.054116       3.7545     3.6611    -0.0583       99.3353            1.00E-12        -64.722      -87.27958     99.87      1.02E+3                  1675.146      40205       34.6061   34.6086     7.57832            39         0.00  
1        2017-12-26    360.816107  2017-12-26T19:35:12Z    772       763.024     2.2772       2.2768         31.052792     31.054511       3.7546     3.6586    -0.07         99.3501            1.00E-12        -64.722      -87.27958     99.87      1.02E+3                  1676.634      40240       34.6067   34.6093     7.57842            32         0.00  
1        2017-12-26    360.816121  2017-12-26T19:35:13Z    773       764.009     2.2766       2.276          31.053071     31.05466        3.7543     3.6572    -0.0689       99.3262            1.00E-12        -64.722      -87.27958     99.87      1.02E+3                  1677.857      40270       34.6073   34.6098     7.57852            27         0.00  
1        2017-12-26    360.816132  2017-12-26T19:35:14Z    774       764.999     2.2763       2.276          31.053554     31.055109       3.7551     3.6656    -0.0642       99.3352            1.00E-12        -64.722      -87.27958     99.87      1.02E+3                  1678.848      40293       34.6076   34.6099     7.57855            22         0.00  
1        2017-12-26    360.816143  2017-12-26T19:35:15Z    775       765.989     2.2759       2.2755         31.053793     31.055344       3.7553     3.6602    -0.0539       99.3365            1.00E-12        -64.722      -87.27958     99.87      1.02E+3                  1679.775      40316       34.6078   34.6101     7.57862            23         0.00  
1        2017-12-26    360.816156  2017-12-26T19:35:16Z    776       766.977     2.2751       2.2747         31.053876     31.055474       3.7547     3.6569    -0.0537       99.3331            1.00E-12        -64.722      -87.27958     99.87      1.02E+3                  1680.852      40341       34.6082   34.6107     7.57875            30         0.00  
1        2017-12-26    360.816172  2017-12-26T19:35:17Z    777       767.961     2.2746       2.2742         31.054119     31.055761       3.7537     3.6598    -0.0537       99.3314            1.00E-12        -64.722      -87.27958     99.87      1.01E+3                  1682.296      40376       34.6086   34.611      7.57883            37         0.00  
1        2017-12-26    360.816189  2017-12-26T19:35:19Z    778       768.943     2.2743       2.2738         31.054586     31.056154       3.757      3.6639    -0.0546       99.3389            1.00E-12        -64.722      -87.27958     99.87      1.01E+3                  1683.772      40412       34.6088   34.6113     7.57886            34         0.00  
1        2017-12-26    360.816205  2017-12-26T19:35:20Z    779       769.932     2.2739       2.2734         31.055141     31.056832       3.7583     3.6569    -0.0664       99.3082            1.00E-12        -64.722      -87.2796      99.87      1.01E+3                  1685.119      40444       34.6095   34.6121     7.57891            31         0.00  
1        2017-12-26    360.81622   2017-12-26T19:35:21Z    780       770.919     2.2741       2.2735         31.056406     31.058035       3.7563     3.6578    -0.0542       99.3287            1.00E-12        -64.722      -87.2796      99.87      1.01E+3                  1686.413      40475       34.6103   34.613      7.57883            31         0.00  
1        2017-12-26    360.816234  2017-12-26T19:35:23Z    781       771.901     2.274        2.2735         31.057109     31.058818       3.7523     3.6561    -0.0537       99.3365            1.00E-12        -64.722      -87.2796      99.87      1.01E+3                  1687.629      40504       34.6107   34.6133     7.57882            27         0.00  
1        2017-12-26    360.816247  2017-12-26T19:35:24Z    782       772.89      2.2737       2.2733         31.05779      31.059391       3.7575     3.6585    -0.0549       99.3365            1.00E-12        -64.722      -87.2796      99.87      1.01E+3                  1688.699      40530       34.6113   34.6138     7.57885            24         0.00  
1        2017-12-26    360.816258  2017-12-26T19:35:25Z    783       773.88      2.2733       2.2729         31.058119     31.059846       3.7519     3.6606    -0.0575       99.3365            1.00E-12        -64.722      -87.2796      99.87      1.01E+3                  1689.663      40553       34.6116   34.6142     7.57891            23         0.00  
1        2017-12-26    360.81627   2017-12-26T19:35:26Z    784       774.872     2.2731       2.2726         31.05842      31.06014        3.7535     3.6639    -0.0638       99.3365            1.00E-12        -64.722      -87.2796      99.87      1.01E+3                  1690.741      40579       34.6117   34.6143     7.57894            31         0.00  
1        2017-12-26    360.81629   2017-12-26T19:35:27Z    785       775.852     2.2726       2.2723         31.058749     31.060347       3.7564     3.659     -0.0643       99.3306            1.00E-12        -64.722      -87.2796      99.87      1.01E+3                  1692.474      40620       34.612    34.6144     7.57901            50         0.00  
1        2017-12-26    360.816312  2017-12-26T19:35:29Z    786       776.834     2.2725       2.272          31.059196     31.060814       3.7561     3.6586    -0.0698       99.3322            1.00E-12        -64.722      -87.2796      99.87      1.01E+3                  1694.363      40666       34.6122   34.6148     7.57904            37         0.00  
1        2017-12-26    360.816327  2017-12-26T19:35:31Z    787       777.82      2.272        2.2715         31.059483     31.061103       3.7553     3.6568    -0.0589       99.2766            1.00E-12        -64.722      -87.2796      99.87      1.01E+3                  1695.662      40697       34.6125   34.6151     7.57911            27         0.00  
1        2017-12-26    360.816338  2017-12-26T19:35:32Z    788       778.804     2.2714       2.271          31.059967     31.061522       3.7473     3.6619    -0.0536       99.3346            1.00E-12        -64.722      -87.2796      99.87      1.01E+3                  1696.636      40720       34.6132   34.6156     7.57918            21         0.00  
1        2017-12-26    360.816348  2017-12-26T19:35:32Z    789       779.797     2.2711       2.2707         31.060522     31.062032       3.7579     3.6601    -0.0537       99.3337            1.00E-12        -64.722      -87.2796      99.87      1.01E+3                  1697.456      40740       34.6137   34.616      7.57921            19         0.00  
1        2017-12-26    360.816357  2017-12-26T19:35:33Z    790       780.785     2.2706       2.2703         31.061332     31.06298        3.7577     3.6617    -0.0537       99.3325            1.00E-12        -64.722      -87.27962     99.87      1.01E+3                  1698.267      40759       34.6147   34.6171     7.57926            20         0.00  
1        2017-12-26    360.816368  2017-12-26T19:35:34Z    791       781.776     2.2707       2.2702         31.062371     31.063971       3.7565     3.6608    -0.0537       99.3193            1.00E-12        -64.722      -87.27962     99.87      1.01E+3                  1699.153      40781       34.6154   34.6178     7.57921            23         0.00  
1        2017-12-26    360.81638   2017-12-26T19:35:35Z    792       782.761     2.271        2.2705         31.063171     31.064835       3.7515     3.6619    -0.0542       99.326             1.00E-12        -64.722      -87.27962     99.87      1.01E+3                  1700.244      40807       34.6155   34.6181     7.57915            30         0.00  
1        2017-12-26    360.816397  2017-12-26T19:35:37Z    793       783.745     2.271        2.2706         31.063744     31.065438       3.7538     3.6616    -0.0592       99.3364            1.00E-12        -64.722      -87.27962     99.87      1.01E+3                  1701.72       40842       34.6157   34.6182     7.57914            40         0.00  
1        2017-12-26    360.816417  2017-12-26T19:35:38Z    794       784.729     2.2711       2.2707         31.064389     31.065992       3.7564     3.6658    -0.0596       99.3358            1.00E-12        -64.722      -87.27962     99.87      1.01E+3                  1703.427      40883       34.6158   34.6182     7.57911            42         0.00  
1        2017-12-26    360.816436  2017-12-26T19:35:40Z    795       785.713     2.2712       2.2707         31.064958     31.066589       3.7563     3.6623    -0.0536       99.3214            1.00E-12        -64.72199    -87.27962     99.87      1.01E+3                  1705.089      40923       34.6159   34.6184     7.57909            36         0.00  
1        2017-12-26    360.816451  2017-12-26T19:35:41Z    796       786.698     2.271        2.2704         31.065473     31.067097       3.7505     3.6629    -0.0537       99.3287            1.00E-12        -64.72198    -87.27962     99.87      1.01E+3                  1706.392      40954       34.6162   34.6188     7.57911            27         0.00  
1        2017-12-26    360.816463  2017-12-26T19:35:42Z    797       787.686     2.2708       2.2705         31.066057     31.067613       3.7555     3.6641    -0.0537       99.339             1.00E-12        -64.72198    -87.27962     99.87      1.01E+3                  1707.376      40978       34.6166   34.6188     7.57913            21         0.00  
1        2017-12-26    360.816472  2017-12-26T19:35:43Z    798       788.673     2.2704       2.27           31.066394     31.067936       3.7604     3.6619    -0.0537       99.3407            1.00E-12        -64.72198    -87.27962     99.87      1.01E+3                  1708.213      40998       34.6169   34.6192     7.57919            19         0.00  
1        2017-12-26    360.816482  2017-12-26T19:35:44Z    799       789.667     2.2703       2.2699         31.066827     31.068476       3.7625     3.6635    -0.0537       99.3213            1.00E-12        -64.72198    -87.27962     99.87      1.01E+3                  1709.04       41018       34.617    34.6195     7.5792             21         0.00  
1        2017-12-26    360.816494  2017-12-26T19:35:45Z    800       790.657     2.2696       2.2692         31.066965     31.068669       3.7612     3.668     -0.0537       99.331             1.00E-12        -64.72198    -87.27962     99.87      1.01E+3                  1710.095      41043       34.6173   34.6199     7.57931            33         0.00  
1        2017-12-26    360.816518  2017-12-26T19:35:47Z    801       791.632     2.2687       2.2685         31.067106     31.068723       3.7576     3.6649    -0.0542       99.3377            1.00E-12        -64.72198    -87.27962     99.87      1.01E+3                  1712.165      41093       34.6179   34.6202     7.57945            58         0.00  
1        2017-12-26    360.816539  2017-12-26T19:35:49Z    802       792.615     2.2687       2.2682         31.067592     31.069227       3.7499     3.6639    -0.0537       99.3403            1.00E-12        -64.72198    -87.27962     99.87      1.01E+3                  1713.953      41136       34.6181   34.6205     7.57945            29         0.00  
1        2017-12-26    360.81655   2017-12-26T19:35:50Z    803       793.597     2.2686       2.2682         31.068402     31.070028       3.7513     3.6583    -0.0575       99.346             1.00E-12        -64.72198    -87.27962     99.87      1.01E+3                  1714.931      41159       34.6186   34.621      7.57943            20         0.00  
1        2017-12-26    360.816559  2017-12-26T19:35:51Z    804       794.591     2.2685       2.2683         31.069218     31.070796       3.7568     3.6647    -0.0694       99.3348            1.00E-12        -64.72199    -87.27962     99.87      1.01E+3                  1715.679      41177       34.6191   34.6214     7.57942            17         0.00  
1        2017-12-26    360.816567  2017-12-26T19:35:51Z    805       795.582     2.2683       2.268          31.069489     31.071225       3.7579     3.6676    -0.0702       99.3315            1.00E-12        -64.722      -87.27962     99.87      1.01E+3                  1716.363      41194       34.6192   34.6217     7.57947            16         0.00  
1        2017-12-26    360.816575  2017-12-26T19:35:52Z    806       796.574     2.2678       2.2675         31.069737     31.071429       3.7558     3.6653    -0.0659       99.3365            1.00E-12        -64.722      -87.27962     99.86      1.01E+3                  1717.069      41211       34.6195   34.6219     7.57954            18         0.00  
1        2017-12-26    360.816585  2017-12-26T19:35:53Z    807       797.562     2.2677       2.2672         31.069977     31.071621       3.7572     3.662     -0.0553       99.2133            1.00E-12        -64.722      -87.27962     99.87      1.01E+3                  1717.942      41232       34.6194   34.6219     7.57957            26         0.00  
1        2017-12-26    360.816604  2017-12-26T19:35:55Z    808       798.542     2.2673       2.2671         31.070186     31.071821       3.7591     3.6596    -0.0548       99.3136            1.00E-12        -64.72198    -87.27964     99.87      1.01E+3                  1719.629      41272       34.6195   34.6218     7.57963            56         0.00  
1        2017-12-26    360.81663   2017-12-26T19:35:57Z    809       799.523     2.2672       2.2667         31.070622     31.072246       3.7559     3.6595    -0.0536       99.3429            1.00E-12        -64.72198    -87.27964     99.87      1.01E+3                  1721.836      41325       34.6196   34.6222     7.57965            42         0.00  
1        2017-12-26    360.816646  2017-12-26T19:35:58Z    810       800.508     2.2668       2.2664         31.070947     31.072707       3.7545     3.6609    -0.0537       99.3373            1.00E-12        -64.72198    -87.27964     99.87      1.01E+3                  1723.247      41359       34.6199   34.6226     7.57971            29         0.00  
1        2017-12-26    360.816658  2017-12-26T19:35:59Z    811       801.493     2.2665       2.2661         31.071417     31.073049       3.7569     3.6563    -0.0537       99.3167            1.00E-12        -64.72198    -87.27964     99.87      1.01E+3                  1724.287      41384       34.6203   34.6228     7.57975            22         0.00  
1        2017-12-26    360.816668  2017-12-26T19:36:00Z    812       802.485     2.2661       2.2657         31.071875     31.073529       3.7554     3.6678    -0.0537       99.3366            1.00E-12        -64.72198    -87.27964     99.87      1.01E+3                  1725.15       41405       34.6208   34.6232     7.5798             20         0.00  
1        2017-12-26    360.816678  2017-12-26T19:36:01Z    813       803.473     2.265        2.2645         31.071757     31.073409       3.7543     3.6637    -0.0607       99.3365            1.00E-12        -64.72198    -87.27964     99.87      1.01E+3                  1726          41425       34.6213   34.6238     7.57999            21         0.00  
1        2017-12-26    360.81669   2017-12-26T19:36:02Z    814       804.464     2.2644       2.2639         31.071906     31.073565       3.7578     3.6613    -0.0636       99.3365            1.00E-12        -64.72198    -87.27964     99.87      1.01E+3                  1726.992      41449       34.6215   34.6241     7.58008            28         0.00  
1        2017-12-26    360.816705  2017-12-26T19:36:03Z    815       805.445     2.264        2.2637         31.072195     31.073826       3.7616     3.6655    -0.0629       99.3365            1.00E-12        -64.72198    -87.27964     99.87      1.00E+3                  1728.313      41481       34.6217   34.6242     7.58014            35         0.00  
1        2017-12-26    360.816721  2017-12-26T19:36:05Z    816       806.425     2.2635       2.263          31.072515     31.074138       3.7623     3.6681    -0.0547       99.3431            1.00E-12        -64.72198    -87.27964     99.87      1.00E+3                  1729.733      41515       34.6222   34.6247     7.58022            31         0.00  
1        2017-12-26    360.816736  2017-12-26T19:36:06Z    817       807.421     2.2633       2.2628         31.072931     31.074571       3.7612     3.6663    -0.0537       99.3249            1.00E-12        -64.72198    -87.27965     99.87      1.01E+3                  1730.979      41544       34.6224   34.6249     7.58025            30         0.00  
1        2017-12-26    360.816751  2017-12-26T19:36:07Z    818       808.406     2.2627       2.2623         31.073177     31.07481        3.7591     3.6654    -0.0537       99.3402            1.00E-12        -64.72198    -87.27966     99.87      1.01E+3                  1732.261      41575       34.6227   34.6253     7.58034            33         0.00  
1        2017-12-26    360.816768  2017-12-26T19:36:09Z    819       809.387     2.262        2.2617         31.073324     31.074959       3.7595     3.6634    -0.0618       99.3438            1.00E-12        -64.72198    -87.27964     99.87      1.00E+3                  1733.777      41612       34.6232   34.6255     7.58046            37         0.00  
1        2017-12-26    360.816784  2017-12-26T19:36:10Z    820       810.371     2.2619       2.2615         31.074096     31.075714       3.7617     3.6634    -0.0582       99.3091            1.00E-12        -64.72198    -87.27964     99.87      1.00E+3                  1735.15       41645       34.6237   34.6261     7.58044            29         0.00  
1        2017-12-26    360.816796  2017-12-26T19:36:11Z    821       811.356     2.2616       2.2611         31.074749     31.07638        3.7621     3.6637    -0.0664       99.339             1.00E-12        -64.72198    -87.27964     99.87      1.00E+3                  1736.189      41670       34.6243   34.6268     7.58047            22         0.00  
1        2017-12-26    360.816807  2017-12-26T19:36:12Z    822       812.352     2.2613       2.2609         31.075174     31.076758       3.7625     3.6663    -0.0611       99.3245            1.00E-12        -64.72198    -87.27966     99.86      1.00E+3                  1737.093      41691       34.6246   34.627      7.58051            22         0.00  
1        2017-12-26    360.81682   2017-12-26T19:36:13Z    823       813.343     2.2611       2.2606         31.075489     31.077075       3.7631     3.668     -0.0546       99.3378            1.00E-12        -64.72198    -87.27966     99.87      1.00E+3                  1738.213      41718       34.6247   34.6271     7.58055            35         0.00  
1        2017-12-26    360.81684   2017-12-26T19:36:15Z    824       814.317     2.2609       2.2605         31.075763     31.077449       3.7628     3.6658    -0.0598       99.3273            1.00E-12        -64.72198    -87.27966     99.87      1.00E+3                  1739.995      41761       34.6247   34.6272     7.58058            43         0.00  
1        2017-12-26    360.816857  2017-12-26T19:36:16Z    825       815.302     2.2609       2.2604         31.076307     31.077992       3.7636     3.661     -0.0541       99.3376            1.00E-12        -64.72198    -87.27966     99.87      1.00E+3                  1741.42       41795       34.6248   34.6274     7.58058            28         0.00  
1        2017-12-26    360.816869  2017-12-26T19:36:17Z    826       816.288     2.2608       2.2603         31.076809     31.078485       3.7634     3.6666    -0.0625       99.3513            1.00E-12        -64.72198    -87.27966     99.87      1.00E+3                  1742.456      41820       34.625    34.6275     7.58059            22         0.00  
1        2017-12-26    360.816879  2017-12-26T19:36:18Z    827       817.282     2.2607       2.2603         31.077419     31.078975       3.7604     3.6697    -0.0537       99.3505            1.00E-12        -64.72198    -87.27966     99.86      1.00E+3                  1743.329      41841       34.6253   34.6277     7.58059            21         0.00  
1        2017-12-26    360.81689   2017-12-26T19:36:19Z    828       818.272     2.2605       2.26           31.077709     31.079339       3.7557     3.6632    -0.0543       99.3309            1.00E-12        -64.72198    -87.27966     99.87      1.00E+3                  1744.254      41863       34.6253   34.6279     7.58061            25         0.00  
1        2017-12-26    360.816905  2017-12-26T19:36:21Z    829       819.255     2.2602       2.2598         31.078041     31.079664       3.7572     3.6617    -0.0541       99.3336            1.00E-12        -64.72198    -87.27966     99.87      1.00E+3                  1745.575      41895       34.6256   34.628      7.58067            38         0.00  
1        2017-12-26    360.816923  2017-12-26T19:36:22Z    830       820.233     2.26         2.2596         31.078369     31.080071       3.7591     3.6652    -0.0656       99.3366            1.00E-12        -64.72198    -87.27966     99.87      1.00E+3                  1747.126      41932       34.6256   34.6282     7.5807             33         0.00  
1        2017-12-26    360.816937  2017-12-26T19:36:23Z    831       821.221     2.2593       2.2588         31.078501     31.080113       3.7605     3.6659    -0.0577       99.33              1.00E-12        -64.72198    -87.27966     99.87      1.00E+3                  1748.318      41961       34.626    34.6285     7.58082            25         0.00  
1        2017-12-26    360.816947  2017-12-26T19:36:24Z    832       822.207     2.2589       2.2586         31.078837     31.080492       3.7666     3.6592    -0.0551       99.3327            1.00E-12        -64.72198    -87.27966     99.87      1.00E+3                  1749.253      41983       34.6263   34.6287     7.58088            21         0.00  
1        2017-12-26    360.816957  2017-12-26T19:36:25Z    833       823.201     2.2566       2.2564         31.077259     31.079009       3.7652     3.6646    -0.0537       99.339             1.00E-12        -64.72198    -87.27966     99.86      1.00E+3                  1750.087      42003       34.6263   34.6287     7.58131            20         0.00  
1        2017-12-26    360.816968  2017-12-26T19:36:26Z    834       824.194     2.2555       2.2551         31.076697     31.078401       3.7623     3.6649    -0.0599       99.3323            1.00E-12        -64.72198    -87.27966     99.87      1.00E+3                  1751.069      42027       34.6263   34.6288     7.58153            29         0.00  
1        2017-12-26    360.816991  2017-12-26T19:36:28Z    835       825.169     2.2546       2.2545         31.076186     31.078028       3.7623     3.6619    -0.0658       99.3261            1.00E-12        -64.72198    -87.27966     99.87      1.00E+3                  1753.032      42074       34.6261   34.6285     7.5817             60         0.00  
1        2017-12-26    360.817014  2017-12-26T19:36:30Z    836       826.151     2.2525       2.2521         31.074806     31.076496       3.7573     3.659     -0.0658       99.3311            1.00E-12        -64.72198    -87.27966     99.87      1.00E+3                  1754.994      42121       34.6261   34.6286     7.58211            34         0.00  
1        2017-12-26    360.817027  2017-12-26T19:36:31Z    837       827.137     2.2519       2.2515         31.074846     31.076486       3.7578     3.6648    -0.0547       99.2996            1.00E-12        -64.72198    -87.27966     99.87      1.00E+3                  1756.159      42149       34.6262   34.6287     7.5822             23         0.00  
1        2017-12-26    360.817037  2017-12-26T19:36:32Z    838       828.127     2.2515       2.2512         31.075325     31.076988       3.762      3.6625    -0.0537       99.3316            1.00E-12        -64.72196    -87.27966     99.87      999                      1757.034      42170       34.6267   34.6291     7.58226            20         0.00  
1        2017-12-26    360.817047  2017-12-26T19:36:33Z    839       829.112     2.2514       2.251          31.075717     31.077355       3.7621     3.6647    -0.0537       99.3323            1.00E-12        -64.72196    -87.27966     99.87      999                      1757.826      42189       34.6268   34.6293     7.58228            19         0.00  
1        2017-12-26    360.817056  2017-12-26T19:36:34Z    840       830.108     2.2509       2.2505         31.075853     31.077534       3.7642     3.6659    -0.0537       99.3272            1.00E-12        -64.72196    -87.27966     99.87      999                      1758.639      42208       34.6269   34.6294     7.58236            20         0.00  
1        2017-12-26    360.817067  2017-12-26T19:36:35Z    841       831.092     2.2505       2.2499         31.076032     31.077663       3.7641     3.6649    -0.0537       99.3182            1.00E-12        -64.72196    -87.27966     99.87      999                      1759.588      42231       34.6271   34.6297     7.58243            26         0.00  
1        2017-12-26    360.817081  2017-12-26T19:36:36Z    842       832.077     2.2488       2.2483         31.075631     31.077311       3.7642     3.6659    -0.0537       99.323             1.00E-12        -64.72196    -87.27966     99.87      1.00E+3                  1760.818      42261       34.6278   34.6304     7.58271            34         0.00  
1        2017-12-26    360.817099  2017-12-26T19:36:37Z    843       833.06      2.248        2.2475         31.0758       31.07747        3.7652     3.6647    -0.0615       99.33              1.00E-12        -64.72198    -87.27968     99.87      1.00E+3                  1762.348      42297       34.6284   34.6309     7.58284            38         0.00  
1        2017-12-26    360.817118  2017-12-26T19:36:39Z    844       834.045     2.2475       2.2472         31.076562     31.078215       3.7638     3.6676    -0.0654       99.3365            1.00E-12        -64.72198    -87.27968     99.87      999                      1763.961      42336       34.6293   34.6317     7.58288            39         0.00  
1        2017-12-26    360.817136  2017-12-26T19:36:41Z    845       835.03      2.2467       2.2462         31.07662      31.078339       3.7635     3.6672    -0.0614       99.3365            1.00E-12        -64.72196    -87.27967     99.87      997                      1765.516      42373       34.6298   34.6323     7.58301            34         0.00  
1        2017-12-26    360.81715   2017-12-26T19:36:42Z    846       836.014     2.2469       2.2465         31.077347     31.079083       3.7675     3.6694    -0.0598       99.3419            1.00E-12        -64.72196    -87.27966     99.87      996                      1766.741      42403       34.6299   34.6325     7.58297            26         0.00  
1        2017-12-26    360.817161  2017-12-26T19:36:43Z    847       837.008     2.2469       2.2465         31.078034     31.079658       3.7667     3.6653    -0.0538       99.329             1.00E-12        -64.72196    -87.27967     99.87      997                      1767.751      42427       34.6301   34.6326     7.58294            24         0.00  
1        2017-12-26    360.817174  2017-12-26T19:36:44Z    848       837.995     2.2488       2.2481         31.081066     31.082506       3.7649     3.6697    -0.0537       99.3309            1.00E-12        -64.72196    -87.27968     99.87      998                      1768.838      42453       34.6314   34.6339     7.58253            29         0.00  
1        2017-12-26    360.817191  2017-12-26T19:36:45Z    849       838.977     2.2507       2.2504         31.083767     31.085406       3.7643     3.6699    -0.0537       99.3295            1.00E-12        -64.72196    -87.27968     99.87      999                      1770.31       42488       34.6321   34.6344     7.58213            40         0.00  
1        2017-12-26    360.817209  2017-12-26T19:36:47Z    850       839.961     2.2509       2.2504         31.0843       31.085944       3.7625     3.6683    -0.0537       99.3366            1.00E-12        -64.72197    -87.27968     99.87      999                      1771.832      42525       34.632    34.6346     7.58209            32         0.00  
1        2017-12-26    360.817223  2017-12-26T19:36:48Z    851       840.946     2.2507       2.2503         31.084757     31.086409       3.7652     3.6691    -0.0537       99.3365            1.00E-12        -64.72198    -87.27968     99.87      997                      1773.027      42554       34.6322   34.6347     7.58212            26         0.00  
1        2017-12-26    360.817234  2017-12-26T19:36:49Z    852       841.935     2.2504       2.25           31.085046     31.086704       3.7671     3.6722    -0.0537       99.3365            1.00E-12        -64.72196    -87.27968     99.87      995                      1774.033      42578       34.6324   34.6349     7.58218            23         0.00  
1        2017-12-26    360.817245  2017-12-26T19:36:50Z    853       842.925     2.2504       2.2499         31.085528     31.087144       3.7724     3.6731    -0.0482       99.3343            1.00E-12        -64.72196    -87.27968     99.87      995                      1774.997      42601       34.6324   34.6349     7.58217            24         0.00  
1        2017-12-26    360.817258  2017-12-26T19:36:51Z    854       843.913     2.2503       2.2498         31.085865     31.087458       3.771      3.6691    -0.0647       99.3364            1.00E-12        -64.72196    -87.27968     99.87      996                      1776.086      42627       34.6324   34.6349     7.58218            29         0.00  
1        2017-12-26    360.817276  2017-12-26T19:36:53Z    855       844.896     2.2466       2.2464         31.082759     31.084475       3.7676     3.6724    -0.0542       99.3437            1.00E-12        -64.72196    -87.27968     99.87      997                      1777.626      42664       34.632    34.6344     7.5829             44         0.00  
1        2017-12-26    360.817297  2017-12-26T19:36:54Z    856       845.879     2.2442       2.2438         31.081445     31.083119       3.7646     3.6696    -0.0594       99.3494            1.00E-12        -64.72197    -87.27968     99.87      997                      1779.452      42708       34.6325   34.6349     7.58334            40         0.00  
1        2017-12-26    360.817314  2017-12-26T19:36:56Z    857       846.861     2.2446       2.2442         31.082533     31.084253       3.7629     3.6721    -0.0611       99.3407            1.00E-12        -64.72198    -87.27968     99.86      996                      1780.905      42743       34.6328   34.6353     7.58324            30         0.00  
1        2017-12-26    360.817326  2017-12-26T19:36:57Z    858       847.847     2.2438       2.2434         31.082422     31.084038       3.7634     3.6684    -0.0627       99.334             1.00E-12        -64.72198    -87.27968     99.87      995                      1781.979      42769       34.6331   34.6354     7.58339            23         0.00  
1        2017-12-26    360.817336  2017-12-26T19:36:58Z    859       848.836     2.2416       2.2413         31.081246     31.082884       3.7682     3.6691    -0.064        99.3258            1.00E-12        -64.72198    -87.27968     99.87      995                      1782.855      42790       34.6334   34.6357     7.58378            20         0.00  
1        2017-12-26    360.817346  2017-12-26T19:36:59Z    860       849.829     2.2409       2.2405         31.08161      31.08312        3.7701     3.6732    -0.0546       99.3326            1.00E-12        -64.72198    -87.27968     99.87      997                      1783.692      42810       34.6341   34.6364     7.58388            21         0.00  
1        2017-12-26    360.817357  2017-12-26T19:37:00Z    861       850.815     2.2404       2.2401         31.081985     31.083586       3.7667     3.6708    -0.0543       99.3353            1.00E-12        -64.72198    -87.27968     99.87      997                      1784.62       42832       34.6345   34.6368     7.58395            24         0.00  
1        2017-12-26    360.817372  2017-12-26T19:37:01Z    862       851.803     2.2404       2.2401         31.08284      31.084495       3.7704     3.6706    -0.0632       99.3235            1.00E-12        -64.72198    -87.27968     99.87      997                      1785.925      42863       34.635    34.6375     7.58392            41         0.00  
1        2017-12-26    360.817394  2017-12-26T19:37:03Z    863       852.78      2.2408       2.2405         31.084072     31.085758       3.766      3.6724    -0.0543       99.3281            1.00E-12        -64.72198    -87.27968     99.87      997                      1787.869      42910       34.6356   34.638      7.58382            45         0.00  
1        2017-12-26    360.817412  2017-12-26T19:37:04Z    864       853.764     2.2378       2.2374         31.082307     31.08397        3.7687     3.6727    -0.0537       99.3367            1.00E-12        -64.72198    -87.27968     99.87      995                      1789.356      42946       34.6362   34.6386     7.58437            28         0.00  
1        2017-12-26    360.817423  2017-12-26T19:37:05Z    865       854.751     2.2358       2.2355         31.08148      31.083164       3.768      3.6702    -0.0537       99.3365            1.00E-12        -64.72198    -87.27968     99.87      995                      1790.378      42970       34.6367   34.6392     7.58471            22         0.00  
1        2017-12-26    360.817433  2017-12-26T19:37:06Z    866       855.741     2.2357       2.2354         31.08216      31.083752       3.7703     3.6722    -0.0537       99.3365            1.00E-12        -64.72198    -87.27968     99.87      995                      1791.221      42990       34.6371   34.6395     7.58471            20         0.00  
1        2017-12-26    360.817443  2017-12-26T19:37:07Z    867       856.731     2.2366       2.2362         31.083641     31.085281       3.7735     3.6742    -0.0674       99.339             1.00E-12        -64.72198    -87.27968     99.86      995                      1792.066      43011       34.6375   34.6399     7.58452            21         0.00  
1        2017-12-26    360.817455  2017-12-26T19:37:08Z    868       857.722     2.2354       2.2349         31.083384     31.084984       3.7719     3.6762    -0.0684       99.3277            1.00E-12        -64.72198    -87.27968     99.87      995                      1793.09       43035       34.6379   34.6404     7.58473            29         0.00  
1        2017-12-26    360.817474  2017-12-26T19:37:10Z    869       858.701     2.2347       2.2343         31.083756     31.085322       3.7793     3.6753    -0.0578       99.3235            1.00E-12        -64.72198    -87.2797      99.87      995                      1794.725      43074       34.6386   34.6409     7.58482            49         0.00  
1        2017-12-26    360.817496  2017-12-26T19:37:12Z    870       859.684     2.2349       2.2345         31.084473     31.086235       3.7778     3.6789    -0.0536       99.3334            1.00E-12        -64.72198    -87.2797      99.87      995                      1796.652      43121       34.6387   34.6413     7.58478            40         0.00  
1        2017-12-26    360.817512  2017-12-26T19:37:13Z    871       860.665     2.2349       2.2346         31.085487     31.087074       3.7746     3.6732    -0.0419       99.3337            1.00E-12        -64.72198    -87.27969     99.87      995                      1798.053      43154       34.6394   34.6417     7.58474            28         0.00  
1        2017-12-26    360.817524  2017-12-26T19:37:14Z    872       861.652     2.2342       2.2339         31.085588     31.087198       3.7743     3.6725    -0.0544       99.3199            1.00E-12        -64.72198    -87.27968     99.86      995                      1799.044      43178       34.6398   34.6421     7.58486            21         0.00  
1        2017-12-26    360.817533  2017-12-26T19:37:15Z    873       862.644     2.2332       2.2329         31.085334     31.086907       3.7728     3.6727    -0.0537       99.3423            1.00E-12        -64.72198    -87.27968     99.87      995                      1799.848      43197       34.6399   34.6423     7.58503            18         0.00  
1        2017-12-26    360.817542  2017-12-26T19:37:16Z    874       863.633     2.232        2.2317         31.08487      31.086508       3.7782     3.6779    -0.0537       99.3309            1.00E-12        -64.72198    -87.27968     99.87      995                      1800.622      43216       34.6402   34.6426     7.58526            19         0.00  
1        2017-12-26    360.817552  2017-12-26T19:37:16Z    875       864.623     2.2306       2.2302         31.084334     31.085935       3.7747     3.6791    -0.0537       99.3318            1.00E-12        -64.72198    -87.27968     99.87      995                      1801.489      43237       34.6405   34.6429     7.58551            23         0.00  
1        2017-12-26    360.817567  2017-12-26T19:37:18Z    876       865.609     2.2294       2.2292         31.084062     31.085797       3.7776     3.6796    -0.0629       99.3314            1.00E-12        -64.72198    -87.2797      99.87      994                      1802.768      43267       34.6409   34.6433     7.5857             42         0.00  
1        2017-12-26    360.817591  2017-12-26T19:37:20Z    877       866.584     2.228        2.2278         31.083559     31.085257       3.7782     3.6804    -0.0625       99.3384            1.00E-12        -64.72198    -87.2797      99.87      993                      1804.856      43318       34.6412   34.6435     7.58595            50         0.00  
1        2017-12-26    360.817609  2017-12-26T19:37:21Z    878       867.569     2.227        2.2265         31.083636     31.085255       3.7698     3.6785    -0.0664       99.3285            1.00E-12        -64.72198    -87.2797      99.87      993                      1806.455      43356       34.6419   34.6444     7.58612            28         0.00  
1        2017-12-26    360.817621  2017-12-26T19:37:22Z    879       868.553     2.2265       2.2262         31.083923     31.085545       3.7731     3.6765    -0.0563       99.325             1.00E-12        -64.72198    -87.2797      99.87      993                      1807.442      43380       34.6423   34.6446     7.58619            21         0.00  
1        2017-12-26    360.81763   2017-12-26T19:37:23Z    880       869.548     2.2265       2.2263         31.084534     31.086059       3.7767     3.6808    -0.0537       99.3291            1.00E-12        -64.72198    -87.2797      99.87      995                      1808.223      43398       34.6424   34.6446     7.58617            18         0.00  
1        2017-12-26    360.817639  2017-12-26T19:37:24Z    881       870.536     2.2268       2.2264         31.084991     31.086545       3.7833     3.6847    -0.0537       99.3376            1.00E-12        -64.72198    -87.2797      99.87      995                      1808.974      43416       34.6422   34.6446     7.58614            19         0.00  
1        2017-12-26    360.81765   2017-12-26T19:37:25Z    882       871.535     2.2262       2.2259         31.084966     31.086646       3.7796     3.686     -0.0537       99.325             1.00E-12        -64.72198    -87.2797      99.87      995                      1809.967      43440       34.6423   34.6447     7.58625            29         0.00  
1        2017-12-26    360.817687  2017-12-26T19:37:28Z    883       872.49      2.2262       2.2257         31.085337     31.086872       3.7689     3.6778    -0.0656       99.3327            1.00E-12        -64.72198    -87.2797      99.87      993                      1813.123      43516       34.6422   34.6446     7.58625            34         0.00  
1        2017-12-26    360.817698  2017-12-26T19:37:29Z    884       873.482     2.2244       2.2242         31.084986     31.086554       3.7692     3.6761    -0.055        99.3366            1.00E-12        -64.72198    -87.2797      99.87      993                      1814.071      43539       34.6431   34.6454     7.58653            19         0.00  
1        2017-12-26    360.817706  2017-12-26T19:37:30Z    885       874.471     2.2238       2.2235         31.085046     31.086679       3.7726     3.677     -0.0632       99.3365            1.00E-12        -64.72198    -87.2797      99.87      993                      1814.794      43556       34.6434   34.6457     7.58665            17         0.00  
1        2017-12-26    360.817713  2017-12-26T19:37:30Z    886       875.464     2.2232       2.2229         31.085172     31.086823       3.7738     3.6781    -0.0684       99.3365            1.00E-12        -64.72198    -87.2797      99.87      993                      1815.436      43571       34.6436   34.646      7.58674            14         0.00  
1        2017-12-26    360.81772   2017-12-26T19:37:31Z    887       876.451     2.2227       2.2225         31.085596     31.087176       3.7735     3.68      -0.0693       99.3365            1.00E-12        -64.72198    -87.2797      99.87      993                      1816.061      43586       34.6441   34.6463     7.58681            16         0.00  
1        2017-12-26    360.817728  2017-12-26T19:37:32Z    888       877.444     2.2216       2.2214         31.085337     31.087038       3.7767     3.6818    -0.0659       99.335             1.00E-12        -64.72198    -87.27971     99.87      993                      1816.728      43602       34.6445   34.6468     7.58701            17         0.00  
1        2017-12-26    360.81774   2017-12-26T19:37:33Z    889       878.435     2.2207       2.2204         31.085192     31.086944       3.7809     3.6825    -0.0558       99.3289            1.00E-12        -64.72198    -87.27972     99.87      993                      1817.71       43626       34.6447   34.6472     7.58716            35         0.00  
1        2017-12-26    360.81777   2017-12-26T19:37:35Z    890       879.403     2.2212       2.221          31.085955     31.087582       3.7789     3.6817    -0.0583       99.3291            1.00E-12        -64.72198    -87.27972     99.87      993                      1820.34       43689       34.6446   34.6468     7.58707            40         0.00  
1        2017-12-26    360.81779   2017-12-26T19:37:37Z    891       880.389     2.2201       2.2198         31.085914     31.087566       3.7793     3.6822    -0.0536       99.3217            1.00E-12        -64.72198    -87.27972     99.87      993                      1822.072      43731       34.6452   34.6475     7.58725            31         0.00  
1        2017-12-26    360.817804  2017-12-26T19:37:38Z    892       881.377     2.2198       2.2196         31.086384     31.088035       3.782      3.6846    -0.0537       99.3287            1.00E-12        -64.72198    -87.27972     99.87      993                      1823.27       43759       34.6455   34.6478     7.58728            27         0.00  
1        2017-12-26    360.817816  2017-12-26T19:37:39Z    893       882.361     2.2204       2.2199         31.087915     31.089491       3.7809     3.6835    -0.0537       99.339             1.00E-12        -64.72198    -87.27972     99.87      993                      1824.309      43784       34.6463   34.6487     7.58714            23         0.00  
1        2017-12-26    360.817827  2017-12-26T19:37:40Z    894       883.355     2.2204       2.22           31.088642     31.09027        3.7824     3.6857    -0.0537       99.3321            1.00E-12        -64.72198    -87.27972     99.87      993                      1825.269      43807       34.6466   34.649      7.58712            24         0.00  
1        2017-12-26    360.817839  2017-12-26T19:37:41Z    895       884.338     2.2201       2.2198         31.089009     31.090633       3.7878     3.6827    -0.0537       99.3374            1.00E-12        -64.72198    -87.27972     99.87      993                      1826.31       43832       34.6469   34.6492     7.58717            27         0.00  
1        2017-12-26    360.817853  2017-12-26T19:37:42Z    896       885.326     2.2197       2.2192         31.089064     31.090724       3.7886     3.6822    -0.0537       99.3356            1.00E-12        -64.72198    -87.27972     99.87      993                      1827.541      43862       34.6469   34.6494     7.58725            31         0.00  
1        2017-12-26    360.817869  2017-12-26T19:37:44Z    897       886.309     2.2192       2.2189         31.08952      31.091097       3.7835     3.6844    -0.0594       99.3342            1.00E-12        -64.72198    -87.27972     99.87      991                      1828.915      43895       34.6473   34.6497     7.5873             35         0.00  
1        2017-12-26    360.817886  2017-12-26T19:37:45Z    898       887.293     2.2188       2.2185         31.089838     31.091497       3.785      3.687     -0.0593       99.3429            1.00E-12        -64.72198    -87.27972     99.87      991                      1830.367      43930       34.6476   34.65       7.58737            34         0.00  
1        2017-12-26    360.817902  2017-12-26T19:37:47Z    899       888.278     2.2184       2.2181         31.090169     31.091799       3.7855     3.6857    -0.0541       99.3382            1.00E-12        -64.72198    -87.27972     99.87      992                      1831.696      43962       34.648    34.6503     7.58743            29         0.00  
1        2017-12-26    360.817915  2017-12-26T19:37:48Z    900       889.268     2.2179       2.2176         31.090281     31.091929       3.7827     3.6909    -0.0542       99.3384            1.00E-12        -64.72198    -87.27972     99.87      993                      1832.861      43990       34.6482   34.6505     7.58752            28         0.00  
1        2017-12-26    360.817929  2017-12-26T19:37:49Z    901       890.254     2.2173       2.2169         31.090443     31.09199        3.7844     3.6868    -0.0542       99.3411            1.00E-12        -64.72198    -87.27972     99.87      993                      1834.032      44018       34.6485   34.6508     7.58762            29         0.00  
1        2017-12-26    360.817945  2017-12-26T19:37:50Z    902       891.242     2.2168       2.2165         31.090569     31.092187       3.7892     3.6908    -0.06         99.3197            1.00E-12        -64.72198    -87.27972     99.87      992                      1835.434      44051       34.6486   34.6509     7.5877             39         0.00  
1        2017-12-26    360.817966  2017-12-26T19:37:52Z    903       892.223     2.2165       2.2162         31.090783     31.092422       3.787      3.6867    -0.0573       99.3386            1.00E-12        -64.72196    -87.27972     99.87      990                      1837.258      44095       34.6486   34.651      7.58775            46         0.00  
1        2017-12-26    360.817985  2017-12-26T19:37:54Z    904       893.208     2.2159       2.2155         31.090884     31.092477       3.7871     3.6892    -0.0536       99.3332            1.00E-12        -64.72196    -87.27972     99.86      991                      1838.937      44135       34.6489   34.6513     7.58786            34         0.00  
1        2017-12-26    360.818     2017-12-26T19:37:55Z    905       894.191     2.2157       2.2154         31.091383     31.092972       3.7835     3.6875    -0.0537       99.3303            1.00E-12        -64.72196    -87.27972     99.87      992                      1840.177      44165       34.6491   34.6514     7.58788            26         0.00  
1        2017-12-26    360.818011  2017-12-26T19:37:56Z    906       895.18      2.2155       2.2151         31.091608     31.093247       3.7872     3.6893    -0.0537       99.3428            1.00E-12        -64.72196    -87.27972     99.87      993                      1841.164      44189       34.6492   34.6516     7.58792            22         0.00  
1        2017-12-26    360.818021  2017-12-26T19:37:57Z    907       896.165     2.2154       2.2151         31.092305     31.093849       3.7892     3.6869    -0.0693       99.3324            1.00E-12        -64.72196    -87.27972     99.87      993                      1842.026      44210       34.6496   34.6519     7.58792            20         0.00  
1        2017-12-26    360.818031  2017-12-26T19:37:58Z    908       897.157     2.215        2.2147         31.0925       31.094201       3.7843     3.6836    -0.0684       99.3508            1.00E-12        -64.72196    -87.27972     99.87      993                      1842.881      44230       34.6497   34.6522     7.58798            22         0.00  
1        2017-12-26    360.818042  2017-12-26T19:37:59Z    909       898.145     2.215        2.2145         31.092834     31.094493       3.7864     3.6889    -0.0678       99.3339            1.00E-12        -64.72196    -87.27972     99.87      992                      1843.843      44253       34.6496   34.6521     7.588              25         0.00  
1        2017-12-26    360.818056  2017-12-26T19:38:00Z    910       899.129     2.2147       2.2142         31.093028     31.094709       3.7907     3.6866    -0.0544       99.3274            1.00E-12        -64.72196    -87.27972     99.86      992                      1845.045      44282       34.6496   34.6522     7.58805            32         0.00  
1        2017-12-26    360.818073  2017-12-26T19:38:02Z    911       900.113     2.2141       2.2136         31.093112     31.094717       3.7926     3.6901    -0.0472       99.3417            1.00E-12        -64.72196    -87.27974     99.87      992                      1846.482      44317       34.6499   34.6523     7.58815            36         0.00  
1        2017-12-26    360.81809   2017-12-26T19:38:03Z    912       901.096     2.2134       2.213          31.093516     31.095179       3.7886     3.6917    -0.0505       99.3408            1.00E-12        -64.72196    -87.27973     99.87      992                      1847.998      44353       34.6505   34.6531     7.58824            37         0.00  
1        2017-12-26    360.818107  2017-12-26T19:38:04Z    913       902.083     2.2128       2.2123         31.093639     31.09534        3.7884     3.6953    -0.0577       99.3252            1.00E-12        -64.72196    -87.27972     99.87      992                      1849.455      44388       34.6508   34.6535     7.58835            33         0.00  
1        2017-12-26    360.818123  2017-12-26T19:38:06Z    914       903.069     2.2116       2.2113         31.093551     31.095236       3.7923     3.6891    -0.0621       99.3228            1.00E-12        -64.72196    -87.27972     99.86      992                      1850.821      44421       34.6514   34.6538     7.58853            33         0.00  
1        2017-12-26    360.818139  2017-12-26T19:38:07Z    915       904.057     2.2106       2.2102         31.093403     31.095111       3.7939     3.6887    -0.0546       99.3286            1.00E-12        -64.72196    -87.27974     99.87      991                      1852.217      44454       34.6518   34.6544     7.58871            34         0.00  
1        2017-12-26    360.818155  2017-12-26T19:38:09Z    916       905.039     2.209        2.2087         31.093053     31.094762       3.7941     3.6938    -0.0551       99.3281            1.00E-12        -64.72196    -87.27974     99.87      990                      1853.626      44488       34.6526   34.655      7.58898            32         0.00  
1        2017-12-26    360.81817   2017-12-26T19:38:10Z    917       906.024     2.2086       2.208          31.093286     31.094887       3.7912     3.6893    -0.0671       99.3367            1.00E-12        -64.72196    -87.27973     99.87      990                      1854.884      44518       34.6528   34.6554     7.58905            28         0.00  
1        2017-12-26    360.818183  2017-12-26T19:38:11Z    918       907.012     2.2081       2.2076         31.093507     31.095158       3.7918     3.6953    -0.0542       99.3396            1.00E-12        -64.72196    -87.27972     99.87      990                      1855.983      44545       34.653    34.6556     7.58912            26         0.00  
1        2017-12-26    360.818195  2017-12-26T19:38:12Z    919       908         2.207        2.2065         31.093315     31.094939       3.7953     3.6971    -0.0537       99.3305            1.00E-12        -64.72196    -87.27972     99.87      990                      1857.041      44570       34.6535   34.656      7.58931            26         0.00  
1        2017-12-26    360.818208  2017-12-26T19:38:13Z    920       908.987     2.2064       2.2058         31.093452     31.09502        3.7949     3.6933    -0.0542       99.3294            1.00E-12        -64.72196    -87.27972     99.87      990                      1858.201      44598       34.6537   34.6563     7.58941            30         0.00  
1        2017-12-26    360.818225  2017-12-26T19:38:15Z    921       909.971     2.2055       2.2051         31.093465     31.095081       3.7951     3.6973    -0.0537       99.3387            1.00E-12        -64.72196    -87.27973     99.87      991                      1859.598      44631       34.6542   34.6566     7.58955            36         0.00  
1        2017-12-26    360.818241  2017-12-26T19:38:16Z    922       910.955     2.205        2.2044         31.093628     31.095245       3.7956     3.6965    -0.0537       99.3513            1.00E-12        -64.72196    -87.27974     99.87      992                      1861.022      44666       34.6544   34.657      7.58965            31         0.00  
1        2017-12-26    360.818255  2017-12-26T19:38:17Z    923       911.942     2.2045       2.204          31.093859     31.095543       3.7957     3.6959    -0.0453       99.3384            1.00E-12        -64.72196    -87.27974     99.87      992                      1862.234      44695       34.6546   34.6573     7.58972            28         0.00  
1        2017-12-26    360.81827   2017-12-26T19:38:19Z    924       912.933     2.2033       2.2029         31.09355      31.09526        3.7976     3.699     -0.0564       99.3359            1.00E-12        -64.72196    -87.27974     99.87      990                      1863.53       44726       34.655    34.6576     7.58992            37         0.00  
1        2017-12-26    360.818293  2017-12-26T19:38:21Z    925       913.911     2.2015       2.2011         31.092989     31.094066       3.7989     3.6976    -0.0527       99.3302            1.00E-12        -64.72196    -87.27974     99.87      989                      1865.534      44774       34.6558   34.6575     7.59023            53         0.00  
1        2017-12-26    360.818313  2017-12-26T19:38:22Z    926       914.894     2.1993       2.1988         31.092243     31.09384        3.7991     3.7002    -0.0537       99.3348            1.00E-12        -64.72196    -87.27974     99.87      991                      1867.208      44814       34.6567   34.6592     7.59061            29         0.00  
1        2017-12-26    360.818324  2017-12-26T19:38:23Z    927       915.878     2.1979       2.1975         31.092057     31.09364        3.7994     3.6982    -0.0537       99.2803            1.00E-12        -64.72196    -87.27974     99.87      992                      1868.215      44838       34.6574   34.6599     7.59083            20         0.00  
1        2017-12-26    360.818333  2017-12-26T19:38:24Z    928       916.866     2.1974       2.1972         31.092466     31.093981       3.8028     3.7022    -0.0537       99.331             1.00E-12        -64.72196    -87.27974     99.87      992                      1868.987      44857       34.6579   34.6601     7.5909             18         0.00  
1        2017-12-26    360.818341  2017-12-26T19:38:25Z    929       917.862     2.1974       2.1971         31.092819     31.094434       3.8032     3.7055    -0.0537       99.3195            1.00E-12        -64.72196    -87.27974     99.87      992                      1869.692      44874       34.6578   34.6602     7.59091            17         0.00  
1        2017-12-26    360.81835   2017-12-26T19:38:25Z    930       918.855     2.1973       2.1968         31.09303      31.094711       3.8066     3.7044    -0.0537       99.3321            1.00E-12        -64.72196    -87.27974     99.87      991                      1870.457      44892       34.6577   34.6602     7.59094            20         0.00  
1        2017-12-26    360.818366  2017-12-26T19:38:27Z    931       919.835     2.197        2.1966         31.093289     31.094936       3.8025     3.7038    -0.0537       99.3309            1.00E-12        -64.72196    -87.27974     99.86      990                      1871.844      44925       34.6578   34.6602     7.59099            47         0.00  
1        2017-12-26    360.818391  2017-12-26T19:38:29Z    932       920.804     2.197        2.1964         31.09374      31.095326       3.7993     3.6976    -0.0537       99.3038            1.00E-12        -64.72196    -87.27974     99.87      990                      1873.967      44976       34.6578   34.6604     7.59098            34         0.00  
1        2017-12-26    360.818403  2017-12-26T19:38:30Z    933       921.796     2.1965       2.1961         31.094056     31.09573        3.8048     3.7055    -0.0627       99.2698            1.00E-12        -64.72196    -87.27974     99.87      992                      1875.014      45001       34.6582   34.6607     7.59106            23         0.00  
1        2017-12-26    360.818413  2017-12-26T19:38:31Z    934       922.784     2.1962       2.1957         31.094424     31.095962       3.8085     3.702     -0.0691       99.2884            1.00E-12        -64.72196    -87.27974     99.87      992                      1875.865      45022       34.6584   34.6608     7.5911             19         0.00  
1        2017-12-26    360.818422  2017-12-26T19:38:32Z    935       923.778     2.1958       2.1954         31.094676     31.096228       3.8068     3.7042    -0.0684       99.3029            1.00E-12        -64.72196    -87.27974     99.87      992                      1876.675      45041       34.6587   34.661      7.59117            20         0.00  
1        2017-12-26    360.818436  2017-12-26T19:38:33Z    936       924.766     2.1955       2.1951         31.0948       31.096407       3.8069     3.705     -0.0563       99.3193            1.00E-12        -64.72196    -87.27974     99.87      991                      1877.879      45070       34.6586   34.661      7.59123            43         0.00  
1        2017-12-26    360.81846   2017-12-26T19:38:35Z    937       925.736     2.1953       2.1949         31.095133     31.096775       3.8027     3.7007    -0.0559       99.3255            1.00E-12        -64.72196    -87.27976     99.87      989                      1879.962      45120       34.6586   34.6611     7.59126            42         0.00  
1        2017-12-26    360.818475  2017-12-26T19:38:36Z    938       926.725     2.1946       2.1942         31.095212     31.096922       3.8043     3.7069    -0.0675       99.3335            1.00E-12        -64.72196    -87.27976     99.87      990                      1881.203      45150       34.659    34.6615     7.59138            25         0.00  
1        2017-12-26    360.818486  2017-12-26T19:38:37Z    939       927.713     2.1938       2.1933         31.095267     31.096917       3.8086     3.7011    -0.0541       99.339             1.00E-12        -64.72196    -87.27974     99.87      991                      1882.164      45173       34.6594   34.662      7.59151            22         0.00  
1        2017-12-26    360.818496  2017-12-26T19:38:38Z    940       928.704     2.1933       2.1928         31.095415     31.09701        3.8084     3.7056    -0.0543       99.3342            1.00E-12        -64.72196    -87.27974     99.86      992                      1883.071      45195       34.6595   34.6621     7.59159            23         0.00  
1        2017-12-26    360.81851   2017-12-26T19:38:39Z    941       929.692     2.1927       2.1921         31.095399     31.096995       3.804      3.7088    -0.0537       99.315             1.00E-12        -64.72196    -87.27974     99.87      992                      1884.279      45224       34.6597   34.6622     7.5917             37         0.00  
1        2017-12-26    360.818529  2017-12-26T19:38:41Z    942       930.667     2.1917       2.1912         31.095331     31.097037       3.808      3.7032    -0.0537       99.3418            1.00E-12        -64.72196    -87.27974     99.87      990                      1885.9        45263       34.6601   34.6628     7.59187            36         0.00  
1        2017-12-26    360.818544  2017-12-26T19:38:42Z    943       931.655     2.1904       2.1899         31.09525      31.096918       3.808      3.7094    -0.0537       99.3458            1.00E-12        -64.72196    -87.27974     99.87      990                      1887.167      45293       34.6609   34.6635     7.59207            26         0.00  
1        2017-12-26    360.818555  2017-12-26T19:38:43Z    944       932.639     2.1902       2.1897         31.095666     31.097249       3.8105     3.705     -0.0544       99.3536            1.00E-12        -64.72196    -87.27974     99.87      990                      1888.155      45317       34.6611   34.6636     7.5921             22         0.00  
1        2017-12-26    360.818565  2017-12-26T19:38:44Z    945       933.633     2.1895       2.1891         31.095654     31.097388       3.8107     3.7157    -0.0588       99.3432            1.00E-12        -64.72196    -87.27974     99.87      991                      1889.015      45337       34.6613   34.6639     7.59222            20         0.00  
1        2017-12-26    360.818576  2017-12-26T19:38:45Z    946       934.624     2.189        2.1884         31.095747     31.097423       3.8107     3.7089    -0.066        99.3304            1.00E-12        -64.72196    -87.27975     99.87      991                      1889.977      45360       34.6614   34.6641     7.59232            28         0.00  
1        2017-12-26    360.818596  2017-12-26T19:38:47Z    947       935.602     2.1882       2.1879         31.09567      31.097417       3.8143     3.7072    -0.0543       99.3281            1.00E-12        -64.72196    -87.27976     99.87      991                      1891.724      45402       34.6616   34.6641     7.59245            54         0.00  
1        2017-12-26    360.818618  2017-12-26T19:38:49Z    948       936.581     2.1876       2.187          31.095803     31.097455       3.8101     3.703     -0.0611       99.3318            1.00E-12        -64.72196    -87.27976     99.87      992                      1893.625      45448       34.6619   34.6646     7.59256            33         0.00  
1        2017-12-26    360.818632  2017-12-26T19:38:50Z    949       937.569     2.1869       2.1863         31.095873     31.097539       3.8126     3.7093    -0.062        99.3366            1.00E-12        -64.72196    -87.27976     99.87      992                      1894.784      45476       34.6622   34.6649     7.59267            25         0.00  
1        2017-12-26    360.818643  2017-12-26T19:38:51Z    950       938.556     2.1862       2.1857         31.096046     31.097729       3.8171     3.7202    -0.0536       99.3365            1.00E-12        -64.72196    -87.27976     99.87      991                      1895.744      45499       34.6627   34.6653     7.59279            22         0.00  
1        2017-12-26    360.818653  2017-12-26T19:38:52Z    951       939.549     2.186        2.1855         31.096381     31.098037       3.8087     3.7163    -0.0537       99.3365            1.00E-12        -64.72196    -87.27976     99.87      990                      1896.645      45520       34.6628   34.6653     7.59282            23         0.00  
1        2017-12-26    360.818666  2017-12-26T19:38:53Z    952       940.536     2.186        2.1855         31.09664      31.098343       3.8105     3.7103    -0.0537       99.3365            1.00E-12        -64.72196    -87.27976     99.87      991                      1897.774      45548       34.6626   34.6652     7.59283            33         0.00  
1        2017-12-26    360.818686  2017-12-26T19:38:54Z    953       941.513     2.1855       2.1851         31.096948     31.09869        3.8143     3.709     -0.0545       99.3389            1.00E-12        -64.72196    -87.27976     99.87      991                      1899.436      45587       34.6629   34.6655     7.5929             42         0.00  
1        2017-12-26    360.818703  2017-12-26T19:38:56Z    954       942.496     2.1842       2.1836         31.096618     31.098202       3.8133     3.7051    -0.0672       99.3232            1.00E-12        -64.72196    -87.27976     99.87      992                      1900.911      45623       34.6634   34.666      7.59313            29         0.00  
1        2017-12-26    360.818715  2017-12-26T19:38:57Z    955       943.48      2.1837       2.1831         31.096815     31.098474       3.8161     3.71      -0.0541       99.3367            1.00E-12        -64.72196    -87.27976     99.87      991                      1901.977      45648       34.6636   34.6664     7.5932             23         0.00  
1        2017-12-26    360.818725  2017-12-26T19:38:58Z    956       944.474     2.1836       2.1831         31.097264     31.098918       3.8133     3.7154    -0.0537       99.3352            1.00E-12        -64.72196    -87.27976     99.87      990                      1902.855      45670       34.6638   34.6664     7.59322            20         0.00  
1        2017-12-26    360.818735  2017-12-26T19:38:59Z    957       945.462     2.1834       2.1829         31.0976       31.099245       3.8142     3.7136    -0.0648       99.3353            1.00E-12        -64.72196    -87.27976     99.87      990                      1903.707      45690       34.6639   34.6664     7.59325            22         0.00  
1        2017-12-26    360.818748  2017-12-26T19:39:00Z    958       946.453     2.1829       2.1824         31.097602     31.099264       3.8147     3.7055    -0.07         99.3384            1.00E-12        -64.72196    -87.27976     99.87      991                      1904.864      45718       34.6639   34.6664     7.59334            37         0.00  
1        2017-12-26    360.81877   2017-12-26T19:39:02Z    959       947.425     2.1823       2.1818         31.097669     31.099307       3.817      3.7132    -0.0625       99.326             1.00E-12        -64.72196    -87.27978     99.86      993                      1906.762      45763       34.6641   34.6666     7.59345            44         0.00  
1        2017-12-26    360.818787  2017-12-26T19:39:03Z    960       948.412     2.1808       2.1802         31.097216     31.098899       3.8179     3.7162    -0.0535       99.3466            1.00E-12        -64.72196    -87.27978     99.87      992                      1908.214      45798       34.6646   34.6673     7.59371            30         0.00  
1        2017-12-26    360.8188    2017-12-26T19:39:04Z    961       949.399     2.1803       2.1796         31.097403     31.09901        3.819      3.7152    -0.0548       99.3499            1.00E-12        -64.72196    -87.27978     99.87      991                      1909.358      45826       34.6649   34.6675     7.59379            26         0.00  
1        2017-12-26    360.818813  2017-12-26T19:39:05Z    962       950.388     2.1798       2.1792         31.097608     31.099188       3.8198     3.7134    -0.0553       99.3327            1.00E-12        -64.72196    -87.27978     99.87      990                      1910.445      45852       34.6651   34.6676     7.59387            27         0.00  
1        2017-12-26    360.818827  2017-12-26T19:39:07Z    963       951.372     2.1795       2.1789         31.097855     31.099481       3.8191     3.719     -0.0679       99.3199            1.00E-12        -64.72196    -87.27977     99.87      990                      1911.622      45880       34.6652   34.6678     7.59393            29         0.00  
1        2017-12-26    360.818841  2017-12-26T19:39:08Z    964       952.357     2.1793       2.1788         31.098176     31.099861       3.8186     3.7161    -0.0547       99.3354            1.00E-12        -64.72196    -87.27976     99.87      991                      1912.843      45909       34.6652   34.6679     7.59395            29         0.00  
1        2017-12-26    360.818855  2017-12-26T19:39:09Z    965       953.345     2.1789       2.1782         31.098337     31.099992       3.8197     3.7199    -0.0537       99.3365            1.00E-12        -64.72196    -87.27977     99.87      992                      1914.046      45938       34.6654   34.6681     7.59403            30         0.00  
1        2017-12-26    360.818871  2017-12-26T19:39:10Z    966       954.333     2.178        2.1776         31.098289     31.099951       3.8214     3.7199    -0.0537       99.3365            1.00E-12        -64.72196    -87.27978     99.87      992                      1915.426      45971       34.6657   34.6682     7.59418            38         0.00  
1        2017-12-26    360.818891  2017-12-26T19:39:12Z    967       955.311     2.1772       2.1768         31.098219     31.099917       3.8235     3.7168    -0.0561       99.3373            1.00E-12        -64.72196    -87.27978     99.87      992                      1917.17       46013       34.666    34.6685     7.59432            40         0.00  
1        2017-12-26    360.818907  2017-12-26T19:39:14Z    968       956.296     2.1767       2.1762         31.098485     31.100094       3.8162     3.7225    -0.0656       99.3295            1.00E-12        -64.72196    -87.27978     99.87      992                      1918.576      46047       34.6663   34.6688     7.5944             28         0.00  
1        2017-12-26    360.818919  2017-12-26T19:39:15Z    969       957.281     2.1767       2.1762         31.098943     31.100607       3.8177     3.7215    -0.0563       99.3231            1.00E-12        -64.72196    -87.27978     99.87      992                      1919.575      46071       34.6663   34.669      7.5944             22         0.00  
1        2017-12-26    360.818928  2017-12-26T19:39:15Z    970       958.268     2.176        2.1756         31.099049     31.100719       3.8236     3.7128    -0.0683       99.3261            1.00E-12        -64.72196    -87.27978     99.87      992                      1920.392      46090       34.6666   34.6692     7.5945             18         0.00  
1        2017-12-26    360.818937  2017-12-26T19:39:16Z    971       959.262     2.1752       2.1747         31.098916     31.100614       3.8267     3.7229    -0.0592       99.3252            1.00E-12        -64.72196    -87.27978     99.87      992                      1921.163      46109       34.6669   34.6695     7.59465            19         0.00  
1        2017-12-26    360.818947  2017-12-26T19:39:17Z    972       960.255     2.1741       2.1736         31.098736     31.10042        3.8263     3.7244    -0.0545       99.336             1.00E-12        -64.72196    -87.27978     99.87      992                      1922.061      46130       34.6672   34.6699     7.59484            26         0.00  
1        2017-12-26    360.818972  2017-12-26T19:39:19Z    973       961.228     2.1736       2.1732         31.09878      31.100452       3.823      3.7196    -0.0562       99.3287            1.00E-12        -64.72196    -87.27978     99.87      993                      1924.213      46182       34.6673   34.6698     7.59493            40         0.00  
1        2017-12-26    360.818995  2017-12-26T19:39:21Z    974       962.209     2.1728       2.1722         31.098782     31.100377       3.8164     3.7164    -0.0662       99.3168            1.00E-12        -64.72196    -87.27978     99.87      992                      1926.187      46229       34.6677   34.6703     7.59507            29         0.00  
1        2017-12-26    360.819006  2017-12-26T19:39:22Z    975       963.192     2.1723       2.172          31.099062     31.100721       3.8154     3.7203    -0.0536       99.3219            1.00E-12        -64.72196    -87.27978     99.87      992                      1927.158      46253       34.668    34.6705     7.59514            20         0.00  
1        2017-12-26    360.819016  2017-12-26T19:39:23Z    976       964.184     2.1723       2.172          31.099596     31.101246       3.8198     3.7216    -0.0537       99.3291            1.00E-12        -64.72196    -87.27978     99.87      993                      1927.94       46272       34.6681   34.6705     7.59513            18         0.00  
1        2017-12-26    360.819024  2017-12-26T19:39:24Z    977       965.171     2.1723       2.1719         31.099995     31.10158        3.8227     3.7196    -0.0537       99.3204            1.00E-12        -64.72196    -87.27978     99.87      993                      1928.669      46289       34.6681   34.6705     7.59514            18         0.00  
1        2017-12-26    360.819033  2017-12-26T19:39:24Z    978       966.165     2.1721       2.1716         31.100252     31.10188        3.8238     3.7191    -0.0537       99.3249            1.00E-12        -64.72196    -87.27978     99.87      993                      1929.468      46308       34.6681   34.6707     7.59518            21         0.00  
1        2017-12-26    360.819047  2017-12-26T19:39:26Z    979       967.15      2.1716       2.1711         31.10031      31.101882       3.8246     3.7188    -0.0482       99.3195            1.00E-12        -64.72196    -87.27978     99.87      993                      1930.693      46338       34.6682   34.6707     7.59527            40         0.00  
1        2017-12-26    360.819068  2017-12-26T19:39:27Z    980       968.122     2.1709       2.1705         31.100265     31.101885       3.8294     3.7206    -0.0516       99.3353            1.00E-12        -64.72196    -87.27978     99.87      993                      1932.506      46381       34.6684   34.6708     7.59539            39         0.00  
1        2017-12-26    360.819084  2017-12-26T19:39:29Z    981       969.11      2.17         2.1694         31.100207     31.101785       3.8299     3.7174    -0.0543       99.3346            1.00E-12        -64.72196    -87.27978     99.87      993                      1933.827      46413       34.6687   34.6713     7.59555            28         0.00  
1        2017-12-26    360.819096  2017-12-26T19:39:30Z    982       970.097     2.1682       2.1677         31.099576     31.101232       3.8297     3.7208    -0.0568       99.3198            1.00E-12        -64.72196    -87.27978     99.87      993                      1934.898      46439       34.6693   34.6719     7.59585            24         0.00  
1        2017-12-26    360.819108  2017-12-26T19:39:31Z    983       971.088     2.1677       2.1671         31.099691     31.10133        3.8266     3.7271    -0.0683       99.329             1.00E-12        -64.72196    -87.27978     99.87      993                      1935.912      46463       34.6695   34.6722     7.59595            25         0.00  
1        2017-12-26    360.819123  2017-12-26T19:39:32Z    984       972.076     2.1673       2.1669         31.099913     31.101554       3.8273     3.7219    -0.0637       99.3146            1.00E-12        -64.72196    -87.27978     99.87      993                      1937.191      46494       34.6697   34.6721     7.59601            39         0.00  
1        2017-12-26    360.819143  2017-12-26T19:39:34Z    985       973.051     2.1672       2.1668         31.100276     31.101874       3.8281     3.725     -0.0641       99.3253            1.00E-12        -64.72196    -87.27978     99.87      993                      1938.997      46537       34.6697   34.6721     7.59603            41         0.00  
1        2017-12-26    360.819159  2017-12-26T19:39:35Z    986       974.035     2.167        2.1666         31.10059      31.102327       3.8301     3.7251    -0.0541       99.3357            1.00E-12        -64.72196    -87.27978     99.87      994                      1940.357      46570       34.6697   34.6723     7.59606            27         0.00  
1        2017-12-26    360.819171  2017-12-26T19:39:36Z    987       975.023     2.1663       2.1658         31.100734     31.102348       3.8258     3.725     -0.0537       99.3267            1.00E-12        -64.72196    -87.27978     99.87      995                      1941.366      46594       34.6702   34.6727     7.59618            22         0.00  
1        2017-12-26    360.819181  2017-12-26T19:39:37Z    988       976.016     2.1659       2.1654         31.100914     31.102594       3.8313     3.7259    -0.0551       99.3289            1.00E-12        -64.72196    -87.27978     99.87      995                      1942.243      46615       34.6703   34.6729     7.59625            21         0.00  
1        2017-12-26    360.819192  2017-12-26T19:39:38Z    989       977.004     2.1652       2.1647         31.100928     31.102486       3.8309     3.7278    -0.0653       99.3325            1.00E-12        -64.72196    -87.27978     99.87      994                      1943.222      46638       34.6705   34.6729     7.59636            28         0.00  
1        2017-12-26    360.81921   2017-12-26T19:39:40Z    990       977.983     2.1642       2.1638         31.100686     31.102356       3.8281     3.7255    -0.06         99.3263            1.00E-12        -64.72196    -87.27979     99.87      993                      1944.725      46674       34.6707   34.6732     7.59654            42         0.00  
1        2017-12-26    360.819228  2017-12-26T19:39:41Z    991       978.965     2.163        2.1626         31.100376     31.102028       3.832      3.7255    -0.0606       99.3357            1.00E-12        -64.72196    -87.27978     99.87      993                      1946.284      46712       34.6711   34.6737     7.59675            32         0.00  
1        2017-12-26    360.819242  2017-12-26T19:39:43Z    992       979.955     2.1628       2.1622         31.100682     31.102275       3.8356     3.7321    -0.0652       99.3365            1.00E-12        -64.72196    -87.27978     99.87      995                      1947.504      46741       34.6712   34.6738     7.59678            28         0.00  
1        2017-12-26    360.819256  2017-12-26T19:39:44Z    993       980.941     2.1622       2.1616         31.100653     31.102265       3.8348     3.7292    -0.0573       99.3181            1.00E-12        -64.72196    -87.27978     99.87      995                      1948.711      46770       34.6713   34.6739     7.5969             30         0.00  
1        2017-12-26    360.819272  2017-12-26T19:39:45Z    994       981.924     2.1618       2.1614         31.100829     31.102562       3.8348     3.7261    -0.0541       99.2605            1.00E-12        -64.72196    -87.27978     99.87      995                      1950.058      46802       34.6714   34.674      7.59697            33         0.00  
1        2017-12-26    360.819286  2017-12-26T19:39:46Z    995       982.909     2.1609       2.1603         31.100681     31.102237       3.8346     3.7278    -0.0537       99.3189            1.00E-12        -64.72196    -87.27978     99.87      995                      1951.352      46833       34.6717   34.6742     7.59713            29         0.00  
1        2017-12-26    360.819299  2017-12-26T19:39:47Z    996       983.894     2.1595       2.159          31.100452     31.102101       3.8328     3.7312    -0.0578       99.3247            1.00E-12        -64.72196    -87.2798      99.87      995                      1952.449      46860       34.6723   34.6749     7.59735            25         0.00  
1        2017-12-26    360.819311  2017-12-26T19:39:48Z    997       984.883     2.1591       2.1586         31.100611     31.102239       3.8304     3.7303    -0.0682       99.3352            1.00E-12        -64.72196    -87.2798      99.87      995                      1953.48       46885       34.6724   34.675      7.59742            25         0.00  
1        2017-12-26    360.819324  2017-12-26T19:39:50Z    998       985.871     2.159        2.1584         31.100905     31.102502       3.8338     3.7334    -0.0684       99.3049            1.00E-12        -64.72196    -87.2798      99.87      995                      1954.6        46911       34.6724   34.675      7.59745            29         0.00  
1        2017-12-26    360.81934   2017-12-26T19:39:51Z    999       986.855     2.1588       2.1583         31.101282     31.102862       3.8358     3.7299    -0.0623       99.3291            1.00E-12        -64.72196    -87.2798      99.87      995                      1955.998      46945       34.6726   34.675      7.59748            38         0.00  
1        2017-12-26    360.819359  2017-12-26T19:39:53Z    1000      987.837     2.1583       2.1579         31.101427     31.103109       3.8365     3.7315    -0.0545       99.3351            1.00E-12        -64.72196    -87.2798      99.87      995                      1957.605      46984       34.6727   34.6752     7.59757            38         0.00  
1        2017-12-26    360.819376  2017-12-26T19:39:54Z    1001      988.82      2.1569       2.1564         31.100935     31.10258        3.8368     3.7328    -0.0583       99.3222            1.00E-12        -64.72196    -87.2798      99.87      996                      1959.069      47019       34.673    34.6756     7.5978             32         0.00  
1        2017-12-26    360.81939   2017-12-26T19:39:55Z    1002      989.811     2.1559       2.1554         31.100689     31.102373       3.8376     3.7352    -0.0628       99.3474            1.00E-12        -64.72196    -87.2798      99.87      997                      1960.328      47049       34.6733   34.676      7.59799            29         0.00  
1        2017-12-26    360.819405  2017-12-26T19:39:57Z    1003      990.794     2.1555       2.155          31.101023     31.10263        3.8378     3.7347    -0.0537       99.333             1.00E-12        -64.72196    -87.2798      99.87      997                      1961.557      47078       34.6736   34.6761     7.59805            30         0.00  
1        2017-12-26    360.81942   2017-12-26T19:39:58Z    1004      991.779     2.1551       2.1545         31.101161     31.102787       3.8393     3.7342    -0.0537       99.3323            1.00E-12        -64.72196    -87.2798      99.86      997                      1962.859      47110       34.6737   34.6763     7.59813            32         0.00  
1        2017-12-26    360.819434  2017-12-26T19:39:59Z    1005      992.762     2.1548       2.1543         31.101549     31.10321        3.8399     3.7356    -0.0537       99.3143            1.00E-12        -64.72196    -87.2798      99.87      997                      1964.119      47140       34.6739   34.6765     7.59816            28         0.00  
1        2017-12-26    360.819447  2017-12-26T19:40:00Z    1006      993.751     2.1537       2.1533         31.101344     31.102933       3.8399     3.7336    -0.0667       99.3162            1.00E-12        -64.72196    -87.2798      99.87      997                      1965.21       47166       34.6744   34.6768     7.59835            25         0.00  
1        2017-12-26    360.819458  2017-12-26T19:40:01Z    1007      994.735     2.1531       2.1526         31.101388     31.10304        3.8398     3.7357    -0.0571       99.3412            1.00E-12        -64.72196    -87.2798      99.87      999                      1966.18       47189       34.6746   34.6771     7.59846            22         0.00  
1        2017-12-26    360.819469  2017-12-26T19:40:02Z    1008      995.724     2.1525       2.152          31.10144      31.103024       3.8412     3.736     -0.063        99.327             1.00E-12        -64.72196    -87.2798      99.87      999                      1967.093      47211       34.6748   34.6773     7.59857            22         0.00  
1        2017-12-26    360.819481  2017-12-26T19:40:03Z    1009      996.715     2.1517       2.1511         31.101228     31.102826       3.8405     3.7367    -0.0681       99.3352            1.00E-12        -64.72196    -87.2798      99.87      998                      1968.19       47238       34.6748   34.6774     7.59871            33         0.00  
1        2017-12-26    360.819505  2017-12-26T19:40:05Z    1010      997.691     2.1509       2.1506         31.101164     31.102804       3.8428     3.7387    -0.0554       99.3351            1.00E-12        -64.72196    -87.2798      99.87      996                      1970.228      47286       34.6751   34.6774     7.59885            58         0.00  
1        2017-12-26    360.819526  2017-12-26T19:40:07Z    1011      998.675     2.15         2.1495         31.101115     31.102796       3.8435     3.7384    -0.0677       99.3311            1.00E-12        -64.72196    -87.2798      99.87      997                      1972.019      47329       34.6754   34.678      7.599              30         0.00  
1        2017-12-26    360.819538  2017-12-26T19:40:08Z    1012      999.658     2.1495       2.149          31.101269     31.102987       3.8417     3.7401    -0.0542       99.3422            1.00E-12        -64.72196    -87.2798      99.87      998                      1973.117      47356       34.6757   34.6783     7.59909            24         0.00  
1        2017-12-26    360.819549  2017-12-26T19:40:09Z    1013      1000.649    2.1488       2.1484         31.10147      31.103081       3.8429     3.7422    -0.0544       99.3203            1.00E-12        -64.72196    -87.2798      99.87      999                      1974.029      47378       34.6761   34.6785     7.59919            20         0.00  
1        2017-12-26    360.819559  2017-12-26T19:40:10Z    1014      1001.638    2.1481       2.1477         31.101422     31.103115       3.8465     3.7395    -0.0649       99.3351            1.00E-12        -64.72196    -87.2798      99.87      999                      1974.884      47398       34.6762   34.6787     7.59931            22         0.00  
1        2017-12-26    360.819571  2017-12-26T19:40:11Z    1015      1002.626    2.1473       2.1468         31.101162     31.102913       3.8454     3.7405    -0.0683       99.3272            1.00E-12        -64.72196    -87.2798      99.86      999                      1975.903      47423       34.6763   34.6789     7.59947            28         0.00  
1        2017-12-26    360.819587  2017-12-26T19:40:12Z    1016      1003.605    2.1459       2.1455         31.100729     31.102352       3.8462     3.7407    -0.057        99.3338            1.00E-12        -64.72196    -87.27982     99.87      999                      1977.36       47458       34.6767   34.6792     7.59971            41         0.00  
1        2017-12-26    360.819606  2017-12-26T19:40:14Z    1017      1004.591    2.1455       2.1451         31.100953     31.102593       3.8444     3.7403    -0.0605       99.3373            1.00E-12        -64.72196    -87.27982     99.87      999                      1978.997      47497       34.6769   34.6793     7.59978            35         0.00  
1        2017-12-26    360.819621  2017-12-26T19:40:15Z    1018      1005.571    2.1456       2.1451         31.101449     31.103141       3.8465     3.7441    -0.0685       99.349             1.00E-12        -64.72196    -87.27982     99.87      999                      1980.282      47528       34.6768   34.6795     7.59976            28         0.00  
1        2017-12-26    360.819634  2017-12-26T19:40:16Z    1019      1006.561    2.1455       2.1451         31.101957     31.10359        3.8474     3.743     -0.0611       99.3465            1.00E-12        -64.72196    -87.27982     99.86      999                      1981.346      47553       34.677    34.6796     7.59977            24         0.00  
1        2017-12-26    360.819645  2017-12-26T19:40:17Z    1020      1007.551    2.1455       2.1451         31.102403     31.103998       3.8452     3.7392    -0.0537       99.3421            1.00E-12        -64.72196    -87.2798      99.87      1.00E+3                  1982.351      47577       34.677    34.6795     7.59977            24         0.00  
1        2017-12-26    360.819658  2017-12-26T19:40:18Z    1021      1008.536    2.1454       2.145          31.102732     31.104427       3.8448     3.7409    -0.062        99.3516            1.00E-12        -64.72196    -87.2798      99.87      1.00E+3                  1983.47       47604       34.6771   34.6796     7.59979            30         0.00  
1        2017-12-26    360.819674  2017-12-26T19:40:20Z    1022      1009.518    2.1451       2.1447         31.102948     31.104568       3.8477     3.7407    -0.0687       99.3445            1.00E-12        -64.72196    -87.27981     99.87      1.00E+3                  1984.866      47638       34.6771   34.6796     7.59984            37         0.00  
1        2017-12-26    360.819692  2017-12-26T19:40:21Z    1023      1010.503    2.1448       2.1443         31.103179     31.104806       3.8505     3.7462    -0.0541       99.3341            1.00E-12        -64.72196    -87.27982     99.86      1.00E+3                  1986.354      47674       34.6772   34.6797     7.5999             34         0.00  
1        2017-12-26    360.819708  2017-12-26T19:40:23Z    1024      1011.488    2.1442       2.1437         31.10325      31.104938       3.8478     3.7441    -0.0558       99.3135            1.00E-12        -64.72196    -87.27982     99.87      1.00E+3                  1987.799      47708       34.6774   34.68       7.6                35         0.00  
1        2017-12-26    360.819724  2017-12-26T19:40:24Z    1025      1012.468    2.1439       2.1434         31.103496     31.105107       3.8483     3.7388    -0.0547       99.3314            1.00E-12        -64.72196    -87.27982     99.87      1.00E+3                  1989.155      47741       34.6775   34.68       7.60006            29         0.00  
1        2017-12-26    360.819737  2017-12-26T19:40:25Z    1026      1013.457    2.1429       2.1424         31.103444     31.105049       3.8446     3.7511    -0.0537       99.3301            1.00E-12        -64.72196    -87.27982     99.87      1.00E+3                  1990.278      47768       34.678    34.6804     7.60022            25         0.00  
1        2017-12-26    360.819748  2017-12-26T19:40:26Z    1027      1014.444    2.142        2.1416         31.103322     31.104927       3.8476     3.7441    -0.0638       99.3219            1.00E-12        -64.72196    -87.27982     99.87      1.00E+3                  1991.236      47791       34.6783   34.6807     7.60038            22         0.00  
1        2017-12-26    360.819759  2017-12-26T19:40:27Z    1028      1015.432    2.1418       2.1414         31.10363      31.105188       3.852      3.7468    -0.0631       99.3328            1.00E-12        -64.72196    -87.27982     99.87      1.00E+3                  1992.141      47812       34.6783   34.6807     7.60041            22         0.00  
1        2017-12-26    360.819772  2017-12-26T19:40:28Z    1029      1016.423    2.1416       2.1412         31.103841     31.105483       3.8489     3.7494    -0.0621       99.3016            1.00E-12        -64.72196    -87.27982     99.87      1.00E+3                  1993.27       47839       34.6783   34.6807     7.60046            35         0.00  
1        2017-12-26    360.819793  2017-12-26T19:40:30Z    1030      1017.398    2.1416       2.1412         31.104241     31.105913       3.8495     3.7437    -0.0566       99.3334            1.00E-12        -64.72196    -87.27982     99.87      1.00E+3                  1995.104      47884       34.6783   34.6807     7.60046            46         0.00  
1        2017-12-26    360.819811  2017-12-26T19:40:32Z    1031      1018.383    2.1418       2.1413         31.104893     31.106498       3.8491     3.7502    -0.0536       99.3403            1.00E-12        -64.72196    -87.27982     99.87      1.00E+3                  1996.645      47920       34.6783   34.6808     7.60042            30         0.00  
1        2017-12-26    360.819823  2017-12-26T19:40:33Z    1032      1019.367    2.1416       2.1413         31.105225     31.106978       3.8497     3.7466    -0.0537       99.3194            1.00E-12        -64.72196    -87.27982     99.87      1.00E+3                  1997.752      47947       34.6784   34.6809     7.60045            25         0.00  
1        2017-12-26    360.819835  2017-12-26T19:40:34Z    1033      1020.358    2.1412       2.1409         31.105512     31.107098       3.852      3.7464    -0.0537       99.3409            1.00E-12        -64.72196    -87.27982     99.87      1.00E+3                  1998.739      47971       34.6786   34.681      7.60051            23         0.00  
1        2017-12-26    360.819847  2017-12-26T19:40:35Z    1034      1021.346    2.1399       2.1395         31.105118     31.106692       3.8562     3.754     -0.0596       99.3249            1.00E-12        -64.72196    -87.27982     99.87      1.00E+3                  1999.777      47996       34.679    34.6814     7.60074            27         0.00  
1        2017-12-26    360.819862  2017-12-26T19:40:36Z    1035      1022.328    2.1391       2.1387         31.104888     31.106585       3.8534     3.7468    -0.061        99.3348            1.00E-12        -64.72196    -87.27982     99.87      1.00E+3                  2001.051      48026       34.679    34.6816     7.60088            34         0.00  
1        2017-12-26    360.819878  2017-12-26T19:40:37Z    1036      1023.313    2.1386       2.1382         31.105085     31.106667       3.8533     3.7487    -0.0536       99.2975            1.00E-12        -64.72196    -87.27982     99.87      1.00E+3                  2002.497      48061       34.6793   34.6817     7.60096            34         0.00  
1        2017-12-26    360.819894  2017-12-26T19:40:39Z    1037      1024.295    2.1381       2.1377         31.105184     31.106873       3.8532     3.7501    -0.0418       99.3276            1.00E-12        -64.72196    -87.27982     99.87      1.00E+3                  2003.862      48094       34.6794   34.682      7.60105            31         0.00  
1        2017-12-26    360.819908  2017-12-26T19:40:40Z    1038      1025.282    2.137        2.1367         31.105009     31.106612       3.8532     3.7505    -0.0537       99.303             1.00E-12        -64.72196    -87.27982     99.87      1.00E+3                  2005.065      48123       34.6799   34.6822     7.60124            28         0.00  
1        2017-12-26    360.819921  2017-12-26T19:40:41Z    1039      1026.271    2.1366       2.1361         31.105034     31.106686       3.853      3.7456    -0.0537       99.3162            1.00E-12        -64.72196    -87.27982     99.87      1.00E+3                  2006.204      48150       34.6799   34.6824     7.60133            28         0.00  
1        2017-12-26    360.819936  2017-12-26T19:40:42Z    1040      1027.259    2.1365       2.1361         31.105448     31.107022       3.8542     3.7506    -0.0537       99.3032            1.00E-12        -64.72196    -87.27982     99.87      1.00E+3                  2007.477      48180       34.6799   34.6823     7.60134            34         0.00  
1        2017-12-26    360.819955  2017-12-26T19:40:44Z    1041      1028.237    2.1365       2.1361         31.105861     31.107461       3.8502     3.7497    -0.0638       99.2997            1.00E-12        -64.72196    -87.27982     99.87      1.00E+3                  2009.092      48219       34.6799   34.6823     7.60134            40         0.00  
1        2017-12-26    360.819971  2017-12-26T19:40:45Z    1042      1029.22     2.1364       2.136          31.106365     31.107907       3.8436     3.7539    -0.054        99.3147            1.00E-12        -64.72196    -87.27984     99.87      1.00E+3                  2010.533      48254       34.68     34.6824     7.60134            29         0.00  
1        2017-12-26    360.819984  2017-12-26T19:40:47Z    1043      1030.203    2.1364       2.136          31.106823     31.108463       3.849      3.7507    -0.0543       99.2968            1.00E-12        -64.72196    -87.27984     99.87      1.00E+3                  2011.597      48279       34.6801   34.6826     7.60135            23         0.00  
1        2017-12-26    360.819994  2017-12-26T19:40:47Z    1044      1031.192    2.1359       2.1355         31.10691      31.10859        3.8506     3.7509    -0.0537       99.3379            1.00E-12        -64.72196    -87.27984     99.87      1.00E+3                  2012.48       48301       34.6802   34.6827     7.60143            20         0.00  
1        2017-12-26    360.820004  2017-12-26T19:40:48Z    1045      1032.187    2.1352       2.1349         31.107012     31.108673       3.852      3.7496    -0.0667       99.3291            1.00E-12        -64.72196    -87.27984     99.87      1.00E+3                  2013.314      48321       34.6806   34.683      7.60155            21         0.00  
1        2017-12-26    360.820015  2017-12-26T19:40:49Z    1046      1033.168    2.1352       2.1347         31.107315     31.108971       3.8555     3.758     -0.0591       99.3421            1.00E-12        -64.72196    -87.27984     99.87      1.00E+3                  2014.275      48344       34.6805   34.683      7.60156            26         0.00  
1        2017-12-26    360.820031  2017-12-26T19:40:51Z    1047      1034.157    2.135        2.1346         31.107654     31.109274       3.8535     3.754     -0.0545       99.3276            1.00E-12        -64.72196    -87.27984     99.87      1.01E+3                  2015.709      48378       34.6805   34.683      7.60159            43         0.00  
1        2017-12-26    360.820053  2017-12-26T19:40:53Z    1048      1035.132    2.1344       2.134          31.107654     31.109248       3.8569     3.7507    -0.0537       99.3304            1.00E-12        -64.72196    -87.27984     99.87      1.01E+3                  2017.605      48424       34.6806   34.683      7.60169            43         0.00  
1        2017-12-26    360.820071  2017-12-26T19:40:54Z    1049      1036.119    2.1332       2.1329         31.107426     31.108959       3.8582     3.7505    -0.0537       99.322             1.00E-12        -64.72196    -87.27984     99.87      1.01E+3                  2019.104      48459       34.6811   34.6834     7.6019             30         0.00  
1        2017-12-26    360.820084  2017-12-26T19:40:55Z    1050      1037.102    2.1324       2.132          31.107274     31.108851       3.8621     3.7557    -0.0537       99.3367            1.00E-12        -64.72196    -87.27984     99.87      1.01E+3                  2020.227      48486       34.6813   34.6837     7.60205            25         0.00  
1        2017-12-26    360.820095  2017-12-26T19:40:56Z    1051      1038.094    2.1307       2.1304         31.106606     31.108171       3.8613     3.7539    -0.0696       99.3354            1.00E-12        -64.72196    -87.27984     99.87      1.01E+3                  2021.219      48510       34.6818   34.684      7.60235            24         0.00  
1        2017-12-26    360.820107  2017-12-26T19:40:57Z    1052      1039.078    2.1277       2.1274         31.105018     31.106669       3.8701     3.7561    -0.0545       99.3175            1.00E-12        -64.72196    -87.27984     99.87      1.01E+3                  2022.238      48535       34.6824   34.6849     7.60287            25         0.00  
1        2017-12-26    360.820121  2017-12-26T19:40:58Z    1053      1040.066    2.1261       2.1257         31.104427     31.106054       3.8656     3.7606    -0.0664       99.3322            1.00E-12        -64.72196    -87.27984     99.87      1.01E+3                  2023.424      48563       34.6829   34.6854     7.60316            32         0.00  
1        2017-12-26    360.820137  2017-12-26T19:41:00Z    1054      1041.047    2.1252       2.1249         31.104257     31.105866       3.8625     3.7555    -0.0536       99.3257            1.00E-12        -64.72196    -87.27984     99.86      1.01E+3                  2024.849      48597       34.6832   34.6855     7.60332            35         0.00  
1        2017-12-26    360.820153  2017-12-26T19:41:01Z    1055      1042.03     2.1247       2.1243         31.104365     31.10601        3.8633     3.7604    -0.0537       99.335             1.00E-12        -64.72196    -87.27984     99.87      1.01E+3                  2026.243      48631       34.6833   34.6857     7.6034             31         0.00  
1        2017-12-26    360.820167  2017-12-26T19:41:02Z    1056      1043.017    2.1244       2.1239         31.104593     31.10624        3.862      3.7619    -0.0537       99.3235            1.00E-12        -64.72196    -87.27984     99.87      1.01E+3                  2027.437      48659       34.6834   34.686      7.60346            27         0.00  
1        2017-12-26    360.82018   2017-12-26T19:41:04Z    1057      1044.004    2.1236       2.1231         31.104527     31.106186       3.8658     3.7676    -0.0642       99.3218            1.00E-12        -64.72196    -87.27984     99.87      1.01E+3                  2028.568      48687       34.6837   34.6862     7.6036             29         0.00  
1        2017-12-26    360.820195  2017-12-26T19:41:05Z    1058      1044.991    2.1231       2.1227         31.104612     31.106248       3.8646     3.7578    -0.0692       99.3092            1.00E-12        -64.72196    -87.27984     99.87      1.01E+3                  2029.87       48718       34.6838   34.6863     7.60369            34         0.00  
1        2017-12-26    360.820212  2017-12-26T19:41:06Z    1059      1045.97     2.1225       2.1221         31.104726     31.106385       3.8621     3.7619    -0.066        99.303             1.00E-12        -64.72196    -87.27984     99.87      1.01E+3                  2031.294      48752       34.684    34.6865     7.60379            32         0.00  
1        2017-12-26    360.820225  2017-12-26T19:41:07Z    1060      1046.954    2.1218       2.1214         31.104801     31.106399       3.8667     3.763     -0.0583       99.312             1.00E-12        -64.72196    -87.27984     99.87      1.01E+3                  2032.475      48780       34.6843   34.6867     7.6039             25         0.00  
1        2017-12-26    360.820237  2017-12-26T19:41:08Z    1061      1047.946    2.1219       2.1215         31.105348     31.106951       3.8678     3.7618    -0.0684       99.3436            1.00E-12        -64.72196    -87.27984     99.87      1.01E+3                  2033.462      48804       34.6844   34.6868     7.60389            23         0.00  
1        2017-12-26    360.820249  2017-12-26T19:41:10Z    1062      1048.935    2.1216       2.1212         31.105462     31.10717        3.8698     3.76      -0.0684       99.325             1.00E-12        -64.72196    -87.27984     99.87      1.01E+3                  2034.481      48829       34.6843   34.6869     7.60395            27         0.00  
1        2017-12-26    360.820265  2017-12-26T19:41:11Z    1063      1049.918    2.1206       2.1202         31.105125     31.106815       3.8684     3.7651    -0.0684       99.3226            1.00E-12        -64.72196    -87.27984     99.87      1.01E+3                  2035.896      48862       34.6844   34.687      7.60413            42         0.00  
1        2017-12-26    360.820285  2017-12-26T19:41:13Z    1064      1050.896    2.1195       2.1191         31.104875     31.106557       3.8666     3.7702    -0.0572       99.3413            1.00E-12        -64.72196    -87.27984     99.87      1.01E+3                  2037.662      48905       34.6847   34.6873     7.60432            38         0.00  
1        2017-12-26    360.820301  2017-12-26T19:41:14Z    1065      1051.882    2.119        2.1185         31.104972     31.106636       3.8611     3.764     -0.0536       99.3265            1.00E-12        -64.72196    -87.27984     99.87      1.01E+3                  2039.044      48938       34.6849   34.6875     7.60441            30         0.00  
1        2017-12-26    360.820314  2017-12-26T19:41:15Z    1066      1052.867    2.1184       2.118          31.105155     31.10678        3.8702     3.7641    -0.0537       99.3434            1.00E-12        -64.72196    -87.27984     99.87      1.01E+3                  2040.162      48965       34.6853   34.6876     7.60451            24         0.00  
1        2017-12-26    360.820326  2017-12-26T19:41:16Z    1067      1053.855    2.1182       2.1176         31.105448     31.107077       3.8744     3.764     -0.0537       99.334             1.00E-12        -64.72196    -87.27984     99.87      1.01E+3                  2041.145      48988       34.6853   34.6879     7.60454            23         0.00  
1        2017-12-26    360.820337  2017-12-26T19:41:17Z    1068      1054.842    2.1179       2.1174         31.105646     31.107251       3.8696     3.7632    -0.0537       99.3399            1.00E-12        -64.72196    -87.27984     99.87      1.01E+3                  2042.111      49012       34.6854   34.6879     7.6046             24         0.00  
1        2017-12-26    360.82035   2017-12-26T19:41:18Z    1069      1055.83     2.1173       2.1168         31.105606     31.107356       3.8732     3.7677    -0.0542       99.3253            1.00E-12        -64.72196    -87.27986     99.87      1.01E+3                  2043.199      49038       34.6854   34.6881     7.60471            30         0.00  
1        2017-12-26    360.820367  2017-12-26T19:41:20Z    1070      1056.813    2.117        2.1165         31.105709     31.107505       3.8742     3.7673    -0.061        99.3325            1.00E-12        -64.72196    -87.27986     99.87      1.01E+3                  2044.699      49074       34.6853   34.6881     7.60477            43         0.00  
1        2017-12-26    360.820388  2017-12-26T19:41:22Z    1071      1057.793    2.1166       2.116          31.105934     31.10755        3.8681     3.7635    -0.0686       99.3583            1.00E-12        -64.72196    -87.27986     99.87      1.01E+3                  2046.497      49117       34.6855   34.6882     7.60484            39         0.00  
1        2017-12-26    360.820404  2017-12-26T19:41:23Z    1072      1058.776    2.1148       2.1142         31.105293     31.106849       3.8724     3.7607    -0.063        99.3462            1.00E-12        -64.72196    -87.27986     99.87      1.01E+3                  2047.905      49151       34.6861   34.6887     7.60515            30         0.00  
1        2017-12-26    360.820417  2017-12-26T19:41:24Z    1073      1059.764    2.1141       2.1137         31.10532      31.106939       3.8737     3.7664    -0.0538       99.3355            1.00E-12        -64.72196    -87.27984     99.87      1.01E+3                  2049.035      49178       34.6864   34.6889     7.60527            25         0.00  
1        2017-12-26    360.820428  2017-12-26T19:41:25Z    1074      1060.751    2.1132       2.1127         31.105154     31.106834       3.8715     3.7642    -0.0584       99.3304            1.00E-12        -64.72196    -87.27984     99.87      1.01E+3                  2050.017      49201       34.6866   34.6892     7.60542            22         0.00  
1        2017-12-26    360.820439  2017-12-26T19:41:26Z    1075      1061.735    2.1129       2.1124         31.1055       31.107058       3.8712     3.7644    -0.0678       99.3365            1.00E-12        -64.72196    -87.27984     99.87      1.01E+3                  2050.944      49224       34.6868   34.6893     7.60547            22         0.00  
1        2017-12-26    360.82045   2017-12-26T19:41:27Z    1076      1062.725    2.1128       2.1122         31.105743     31.107427       3.8757     3.7681    -0.0543       99.3365            1.00E-12        -64.72196    -87.27984     99.87      1.01E+3                  2051.876      49246       34.6867   34.6894     7.6055             23         0.00  
1        2017-12-26    360.820462  2017-12-26T19:41:28Z    1077      1063.711    2.1119       2.1113         31.105533     31.10718        3.8682     3.7733    -0.0542       99.3365            1.00E-12        -64.72196    -87.27985     99.86      1.01E+3                  2052.944      49272       34.6869   34.6895     7.60566            29         0.00  
1        2017-12-26    360.820482  2017-12-26T19:41:30Z    1078      1064.695    2.1113       2.1108         31.105511     31.10715        3.8712     3.7729    -0.0604       99.3347            1.00E-12        -64.72195    -87.27986     99.87      1.01E+3                  2054.661      49313       34.6869   34.6895     7.60577            58         0.00  
1        2017-12-26    360.820509  2017-12-26T19:41:32Z    1079      1065.67     2.1113       2.1108         31.105951     31.107651       3.8769     3.7635    -0.0619       99.3526            1.00E-12        -64.72194    -87.27986     99.87      1.01E+3                  2056.931      49367       34.687    34.6897     7.60577            38         0.00  
1        2017-12-26    360.820522  2017-12-26T19:41:33Z    1080      1066.658    2.11         2.1097         31.105665     31.107371       3.8764     3.7711    -0.0591       99.346             1.00E-12        -64.72194    -87.27986     99.87      1.02E+3                  2058.115      49396       34.6875   34.69       7.60599            24         0.00  
1        2017-12-26    360.820532  2017-12-26T19:41:34Z    1081      1067.641    2.1084       2.108          31.10502      31.106704       3.8709     3.7752    -0.0536       99.3363            1.00E-12        -64.72194    -87.27986     99.87      1.02E+3                  2059.001      49417       34.6879   34.6905     7.60628            20         0.00  
1        2017-12-26    360.820541  2017-12-26T19:41:35Z    1082      1068.634    2.1083       2.1078         31.105455     31.107136       3.8734     3.7759    -0.0561       99.3365            1.00E-12        -64.72194    -87.27986     99.87      1.01E+3                  2059.77       49435       34.6881   34.6906     7.60629            18         0.00  
1        2017-12-26    360.82055   2017-12-26T19:41:36Z    1083      1069.624    2.1082       2.1077         31.105789     31.107358       3.8806     3.774     -0.0682       99.3365            1.00E-12        -64.72194    -87.27986     99.87      1.01E+3                  2060.547      49454       34.688    34.6905     7.6063             20         0.00  
1        2017-12-26    360.820563  2017-12-26T19:41:37Z    1084      1070.611    2.1079       2.1074         31.10591      31.107578       3.8792     3.7726    -0.0579       99.3365            1.00E-12        -64.72194    -87.27986     99.87      1.02E+3                  2061.632      49480       34.688    34.6905     7.60637            36         0.00  
1        2017-12-26    360.820586  2017-12-26T19:41:39Z    1085      1071.582    2.1078       2.1073         31.10624      31.107825       3.8739     3.7751    -0.0544       99.3365            1.00E-12        -64.72194    -87.27986     99.87      1.02E+3                  2063.666      49529       34.6879   34.6904     7.60638            49         0.00  
1        2017-12-26    360.820603  2017-12-26T19:41:40Z    1086      1072.569    2.108        2.1073         31.106838     31.108411       3.8778     3.7673    -0.0548       99.3365            1.00E-12        -64.72196    -87.27986     99.87      1.02E+3                  2065.103      49563       34.6879   34.6906     7.60635            27         0.00  
1        2017-12-26    360.820615  2017-12-26T19:41:41Z    1087      1073.555    2.1064       2.1061         31.106232     31.108003       3.8767     3.7659    -0.0685       99.3365            1.00E-12        -64.72196    -87.27986     99.86      1.02E+3                  2066.112      49588       34.6884   34.6909     7.60663            22         0.00  
1        2017-12-26    360.820625  2017-12-26T19:41:42Z    1088      1074.538    2.1057       2.1052         31.106328     31.107913       3.8777     3.7688    -0.0558       99.3451            1.00E-12        -64.72196    -87.27984     99.87      1.02E+3                  2066.976      49608       34.6887   34.6912     7.60675            19         0.00  
1        2017-12-26    360.820634  2017-12-26T19:41:43Z    1089      1075.528    2.1058       2.1053         31.106795     31.108433       3.8784     3.7743    -0.0545       99.352             1.00E-12        -64.72196    -87.27984     99.87      1.02E+3                  2067.756      49627       34.6887   34.6912     7.60673            19         0.00  
1        2017-12-26    360.820643  2017-12-26T19:41:44Z    1090      1076.517    2.1052       2.1047         31.106793     31.108338       3.8796     3.7749    -0.0559       99.3355            1.00E-12        -64.72196    -87.27984     99.87      1.02E+3                  2068.545      49646       34.6888   34.6913     7.60684            20         0.00  
1        2017-12-26    360.820654  2017-12-26T19:41:45Z    1091      1077.509    2.1045       2.1039         31.106576     31.108251       3.8834     3.7844    -0.0674       99.3316            1.00E-12        -64.72194    -87.27986     99.87      1.02E+3                  2069.539      49670       34.6888   34.6914     7.60698            31         0.00  
1        2017-12-26    360.820696  2017-12-26T19:41:48Z    1092      1078.472    2.1048       2.1044         31.107308     31.108909       3.8799     3.7745    -0.0627       99.3313            1.00E-12        -64.72194    -87.27986     99.87      1.02E+3                  2073.134      49756       34.6888   34.6912     7.60692            36         0.00  
1        2017-12-26    360.82071   2017-12-26T19:41:49Z    1093      1079.46     2.1028       2.1023         31.106362     31.108009       3.8817     3.7741    -0.0692       99.3379            1.00E-12        -64.72194    -87.27986     99.86      1.02E+3                  2074.335      49785       34.6893   34.6918     7.60727            20         0.00  
1        2017-12-26    360.820719  2017-12-26T19:41:50Z    1094      1080.446    2.1022       2.1018         31.106571     31.108212       3.8826     3.7765    -0.0684       99.3237            1.00E-12        -64.72194    -87.27986     99.87      1.02E+3                  2075.097      49803       34.6896   34.6921     7.60737            17         0.00  
1        2017-12-26    360.820727  2017-12-26T19:41:51Z    1095      1081.441    2.1011       2.1007         31.106144     31.10781        3.8829     3.7752    -0.0554       99.3332            1.00E-12        -64.72195    -87.27986     99.86      1.02E+3                  2075.776      49820       34.6898   34.6923     7.60758            16         0.00  
1        2017-12-26    360.820734  2017-12-26T19:41:51Z    1096      1082.426    2.1004       2.1001         31.106255     31.107957       3.8832     3.7754    -0.0546       99.3264            1.00E-12        -64.72196    -87.27986     99.87      1.02E+3                  2076.445      49836       34.6901   34.6925     7.60768            16         0.00  
1        2017-12-26    360.820743  2017-12-26T19:41:52Z    1097      1083.413    2.0999       2.0996         31.106318     31.108018       3.8834     3.7822    -0.0537       99.2727            1.00E-12        -64.72196    -87.27986     99.87      1.02E+3                  2077.155      49853       34.6902   34.6927     7.60777            19         0.00  
1        2017-12-26    360.820753  2017-12-26T19:41:53Z    1098      1084.403    2.0994       2.0989         31.106244     31.107921       3.8848     3.7852    -0.0543       99.321             1.00E-12        -64.72196    -87.27986     99.87      1.02E+3                  2078.025      49874       34.6901   34.6928     7.60787            24         0.00  
1        2017-12-26    360.820768  2017-12-26T19:41:54Z    1099      1085.381    2.0992       2.0986         31.106493     31.108143       3.8845     3.7811    -0.0634       99.3222            1.00E-12        -64.72194    -87.27986     99.87      1.02E+3                  2079.366      49906       34.6901   34.6928     7.60792            41         0.00  
1        2017-12-26    360.820789  2017-12-26T19:41:56Z    1100      1086.361    2.0988       2.0982         31.106555     31.108187       3.8854     3.7823    -0.0642       99.316             1.00E-12        -64.72194    -87.27986     99.87      1.02E+3                  2081.177      49949       34.6901   34.6928     7.608              42         0.00  
1        2017-12-26    360.820807  2017-12-26T19:41:58Z    1101      1087.346    2.098        2.0974         31.106572     31.108236       3.8862     3.7785    -0.0675       99.3351            1.00E-12        -64.72194    -87.27986     99.87      1.02E+3                  2082.696      49986       34.6905   34.6931     7.60813            31         0.00  
1        2017-12-26    360.82082   2017-12-26T19:41:59Z    1102      1088.329    2.097        2.0965         31.106395     31.107965       3.8866     3.7831    -0.0542       99.3268            1.00E-12        -64.72194    -87.27986     99.87      1.02E+3                  2083.842      50013       34.6908   34.6933     7.60829            25         0.00  
1        2017-12-26    360.820831  2017-12-26T19:42:00Z    1103      1089.318    2.0966       2.0959         31.106415     31.108073       3.887      3.7957    -0.055        99.3424            1.00E-12        -64.72194    -87.27986     99.87      1.02E+3                  2084.838      50037       34.6908   34.6935     7.60838            23         0.00  
1        2017-12-26    360.820843  2017-12-26T19:42:01Z    1104      1090.306    2.0964       2.0959         31.106925     31.108529       3.8875     3.7823    -0.0678       99.3542            1.00E-12        -64.72194    -87.27986     99.87      1.02E+3                  2085.869      50062       34.691    34.6935     7.6084             27         0.00  
1        2017-12-26    360.820859  2017-12-26T19:42:02Z    1105      1091.294    2.0957       2.0953         31.106752     31.108431       3.8874     3.7821    -0.0553       99.3415            1.00E-12        -64.72194    -87.27988     99.87      1.02E+3                  2087.25       50095       34.691    34.6935     7.60853            42         0.00  
1        2017-12-26    360.820881  2017-12-26T19:42:04Z    1106      1092.269    2.0944       2.094          31.106291     31.107944       3.8884     3.7805    -0.057        99.3107            1.00E-12        -64.72194    -87.27987     99.87      1.02E+3                  2089.161      50141       34.6913   34.6939     7.60876            42         0.00  
1        2017-12-26    360.820898  2017-12-26T19:42:06Z    1107      1093.253    2.0935       2.093          31.106056     31.107702       3.8854     3.7846    -0.0655       99.3028            1.00E-12        -64.72194    -87.27986     99.87      1.02E+3                  2090.564      50175       34.6915   34.6941     7.60892            28         0.00  
1        2017-12-26    360.820909  2017-12-26T19:42:07Z    1108      1094.236    2.0933       2.0928         31.106562     31.108136       3.8918     3.7763    -0.0535       99.3138            1.00E-12        -64.72194    -87.27986     99.86      1.02E+3                  2091.561      50198       34.6918   34.6942     7.60895            21         0.00  
1        2017-12-26    360.820919  2017-12-26T19:42:07Z    1109      1095.227    2.0932       2.0928         31.106904     31.10856        3.8923     3.7838    -0.0537       99.3254            1.00E-12        -64.72194    -87.27986     99.87      1.02E+3                  2092.388      50218       34.6918   34.6943     7.60897            19         0.00  
1        2017-12-26    360.820928  2017-12-26T19:42:08Z    1110      1096.212    2.0925       2.0921         31.106889     31.108503       3.891      3.7847    -0.0537       99.3363            1.00E-12        -64.72194    -87.27986     99.87      1.02E+3                  2093.155      50237       34.692    34.6944     7.60909            19         0.00  
1        2017-12-26    360.820937  2017-12-26T19:42:09Z    1111      1097.205    2.0924       2.0918         31.107138     31.108724       3.8882     3.7826    -0.0537       99.3352            1.00E-12        -64.72194    -87.27987     99.87      1.02E+3                  2093.954      50256       34.6919   34.6945     7.60912            20         0.00  
1        2017-12-26    360.820948  2017-12-26T19:42:10Z    1112      1098.188    2.0921       2.0915         31.107407     31.108965       3.8897     3.7872    -0.0537       99.323             1.00E-12        -64.72194    -87.27988     99.87      1.02E+3                  2094.889      50278       34.692    34.6946     7.60916            25         0.00  
1        2017-12-26    360.820963  2017-12-26T19:42:11Z    1113      1099.173    2.0914       2.0909         31.107267     31.10893        3.8954     3.79      -0.0537       99.334             1.00E-12        -64.72194    -87.27988     99.87      1.02E+3                  2096.227      50310       34.6921   34.6946     7.6093             41         0.00  
1        2017-12-26    360.820988  2017-12-26T19:42:13Z    1114      1100.152    2.0905       2.0902         31.107097     31.108792       3.8893     3.7897    -0.0611       99.3235            1.00E-12        -64.72194    -87.27987     99.87      1.02E+3                  2098.336      50361       34.6923   34.6948     7.60945            56         0.00  
1        2017-12-26    360.82101   2017-12-26T19:42:15Z    1115      1101.132    2.09         2.0895         31.107131     31.108849       3.8894     3.7873    -0.0579       99.3443            1.00E-12        -64.72194    -87.27986     99.87      1.02E+3                  2100.259      50407       34.6923   34.6951     7.60955            34         0.00  
1        2017-12-26    360.821023  2017-12-26T19:42:16Z    1116      1102.118    2.0896       2.089          31.107255     31.10889        3.887      3.7883    -0.0661       99.3557            1.00E-12        -64.72194    -87.27986     99.87      1.02E+3                  2101.424      50435       34.6924   34.6951     7.60963            24         0.00  
1        2017-12-26    360.821034  2017-12-26T19:42:17Z    1117      1103.106    2.0888       2.0883         31.107292     31.108974       3.8903     3.7863    -0.0541       99.2867            1.00E-12        -64.72194    -87.27986     99.87      1.02E+3                  2102.354      50457       34.6928   34.6954     7.60975            21         0.00  
1        2017-12-26    360.821044  2017-12-26T19:42:18Z    1118      1104.09     2.0885       2.088          31.107549     31.109181       3.8946     3.7887    -0.0537       99.3112            1.00E-12        -64.72194    -87.27988     99.86      1.03E+3                  2103.19       50478       34.6929   34.6955     7.60981            20         0.00  
1        2017-12-26    360.821053  2017-12-26T19:42:19Z    1119      1105.08     2.0882       2.0876         31.10779      31.109386       3.9017     3.7864    -0.0631       99.3322            1.00E-12        -64.72194    -87.27988     99.87      1.03E+3                  2104.011      50497       34.693    34.6956     7.60986            20         0.00  
1        2017-12-26    360.821064  2017-12-26T19:42:20Z    1120      1106.07     2.0877       2.0871         31.107793     31.109429       3.8974     3.7904    -0.062        99.2497            1.00E-12        -64.72195    -87.27988     99.87      1.03E+3                  2104.938      50520       34.6931   34.6957     7.60996            25         0.00  
1        2017-12-26    360.82108   2017-12-26T19:42:21Z    1121      1107.052    2.0873       2.0869         31.10796      31.109635       3.8999     3.7896    -0.0548       99.3141            1.00E-12        -64.72195    -87.27987     99.87      1.03E+3                  2106.334      50553       34.6931   34.6956     7.61002            45         0.00  
1        2017-12-26    360.821103  2017-12-26T19:42:23Z    1122      1108.027    2.0871       2.0867         31.108217     31.109886       3.8913     3.7863    -0.0537       99.3281            1.00E-12        -64.72194    -87.27986     99.87      1.02E+3                  2108.259      50599       34.6931   34.6956     7.61007            39         0.00  
1        2017-12-26    360.821117  2017-12-26T19:42:25Z    1123      1109.012    2.087        2.0865         31.108716     31.110313       3.8942     3.7918    -0.0537       99.3367            1.00E-12        -64.72194    -87.27986     99.87      1.02E+3                  2109.501      50629       34.6934   34.6959     7.61008            24         0.00  
1        2017-12-26    360.821127  2017-12-26T19:42:25Z    1124      1109.998    2.0865       2.086          31.108653     31.110418       3.8984     3.792     -0.0537       99.3178            1.00E-12        -64.72194    -87.27986     99.87      1.02E+3                  2110.397      50651       34.6932   34.6959     7.61017            20         0.00  
1        2017-12-26    360.821136  2017-12-26T19:42:26Z    1125      1110.985    2.0858       2.0853         31.108769     31.110402       3.9033     3.7924    -0.0537       99.3041            1.00E-12        -64.72194    -87.27988     99.86      1.03E+3                  2111.174      50669       34.6936   34.6962     7.61029            18         0.00  
1        2017-12-26    360.821145  2017-12-26T19:42:27Z    1126      1111.978    2.0849       2.0843         31.108449     31.110085       3.9054     3.7909    -0.0537       99.3186            1.00E-12        -64.72194    -87.27988     99.87      1.03E+3                  2111.95       50688       34.6937   34.6963     7.61046            20         0.00  
1        2017-12-26    360.821166  2017-12-26T19:42:29Z    1127      1112.964    2.0843       2.0839         31.108418     31.110201       3.9009     3.7914    -0.0583       99.3254            1.00E-12        -64.72194    -87.27988     99.87      1.03E+3                  2113.754      50731       34.6938   34.6963     7.61057            38         0.00  
1        2017-12-26    360.821201  2017-12-26T19:42:32Z    1128      1113.93     2.0838       2.0835         31.108543     31.110311       3.8998     3.7864    -0.054        99.328             1.00E-12        -64.72194    -87.27988     99.87      1.02E+3                  2116.788      50804       34.6939   34.6964     7.61065            28         0.00  
1        2017-12-26    360.821211  2017-12-26T19:42:33Z    1129      1114.921    2.0833       2.0829         31.108724     31.110421       3.8941     3.7912    -0.0537       99.3295            1.00E-12        -64.72194    -87.27987     99.86      1.03E+3                  2117.645      50824       34.6941   34.6967     7.61073            19         0.00  
1        2017-12-26    360.82122   2017-12-26T19:42:33Z    1130      1115.905    2.0831       2.0828         31.10915      31.110798       3.8919     3.7923    -0.0537       99.3335            1.00E-12        -64.72194    -87.27986     99.87      1.03E+3                  2118.398      50843       34.6943   34.6967     7.61076            17         0.00  
1        2017-12-26    360.821228  2017-12-26T19:42:34Z    1131      1116.897    2.0826       2.0823         31.109202     31.110906       3.9049     3.7978    -0.0537       99.3383            1.00E-12        -64.72194    -87.27988     99.87      1.03E+3                  2119.075      50859       34.6944   34.6968     7.61085            16         0.00  
1        2017-12-26    360.821236  2017-12-26T19:42:35Z    1132      1117.885    2.0817       2.0812         31.108956     31.110652       3.9075     3.8008    -0.0537       99.3365            1.00E-12        -64.72194    -87.27988     99.87      1.03E+3                  2119.745      50875       34.6946   34.6972     7.61102            16         0.00  
1        2017-12-26    360.821244  2017-12-26T19:42:35Z    1133      1118.873    2.0813       2.0809         31.109188     31.110769       3.8996     3.7949    -0.0537       99.3305            1.00E-12        -64.72194    -87.27988     99.87      1.03E+3                  2120.442      50892       34.6947   34.6971     7.61108            18         0.00  
1        2017-12-26    360.821253  2017-12-26T19:42:36Z    1134      1119.856    2.0812       2.0806         31.109335     31.110947       3.8997     3.7923    -0.0642       99.3269            1.00E-12        -64.72194    -87.27988     99.87      1.03E+3                  2121.254      50911       34.6945   34.6972     7.61112            22         0.00  
1        2017-12-26    360.821265  2017-12-26T19:42:37Z    1135      1120.841    2.0805       2.08           31.109255     31.110949       3.901      3.7974    -0.0545       99.3204            1.00E-12        -64.72194    -87.27988     99.86      1.03E+3                  2122.336      50937       34.6947   34.6973     7.61125            31         0.00  
1        2017-12-26    360.821283  2017-12-26T19:42:39Z    1136      1121.824    2.0791       2.0786         31.108609     31.110347       3.8995     3.7956    -0.0544       99.3189            1.00E-12        -64.72194    -87.27988     99.87      1.03E+3                  2123.836      50973       34.6949   34.6975     7.61151            41         0.00  
1        2017-12-26    360.821304  2017-12-26T19:42:41Z    1137      1122.804    2.0778       2.0773         31.108146     31.10983        3.9027     3.7965    -0.0629       99.3426            1.00E-12        -64.72194    -87.27988     99.87      1.03E+3                  2125.63       51016       34.6952   34.6977     7.61174            42         0.00  
1        2017-12-26    360.821322  2017-12-26T19:42:42Z    1138      1123.788    2.0765       2.076          31.107666     31.109331       3.9071     3.8023    -0.0535       99.3148            1.00E-12        -64.72194    -87.27988     99.87      1.03E+3                  2127.206      51054       34.6954   34.6981     7.61196            33         0.00  
1        2017-12-26    360.821337  2017-12-26T19:42:44Z    1139      1124.775    2.076        2.0755         31.107754     31.109375       3.9018     3.7979    -0.0671       99.3452            1.00E-12        -64.72194    -87.27988     99.87      1.03E+3                  2128.478      51084       34.6955   34.6981     7.61206            29         0.00  
1        2017-12-26    360.82135   2017-12-26T19:42:45Z    1140      1125.76     2.0753       2.0747         31.107646     31.109262       3.9053     3.8008    -0.0557       99.3441            1.00E-12        -64.72194    -87.27988     99.87      1.03E+3                  2129.657      51113       34.6957   34.6983     7.61219            28         0.00  
1        2017-12-26    360.821364  2017-12-26T19:42:46Z    1141      1126.746    2.0746       2.074          31.107669     31.109273       3.9049     3.7984    -0.0699       99.3549            1.00E-12        -64.72194    -87.27988     99.87      1.03E+3                  2130.834      51141       34.6959   34.6985     7.6123             29         0.00  
1        2017-12-26    360.821378  2017-12-26T19:42:47Z    1142      1127.729    2.0739       2.0733         31.107595     31.109189       3.905      3.8033    -0.0694       99.3354            1.00E-12        -64.72194    -87.27988     99.87      1.03E+3                  2132.028      51170       34.696    34.6986     7.61243            28         0.00  
1        2017-12-26    360.821391  2017-12-26T19:42:48Z    1143      1128.713    2.073        2.0725         31.107363     31.109021       3.9069     3.7987    -0.0644       99.3274            1.00E-12        -64.72194    -87.27988     99.86      1.03E+3                  2133.194      51198       34.6962   34.6988     7.6126             27         0.00  
1        2017-12-26    360.821403  2017-12-26T19:42:49Z    1144      1129.695    2.0719       2.0714         31.106978     31.108629       3.9072     3.8006    -0.0534       99.3425            1.00E-12        -64.72194    -87.27988     99.87      1.03E+3                  2134.259      51223       34.6964   34.699      7.6128             24         0.00  
1        2017-12-26    360.821414  2017-12-26T19:42:50Z    1145      1130.682    2.0706       2.07           31.106548     31.108158       3.9074     3.8033    -0.0537       99.3214            1.00E-12        -64.72194    -87.27988     99.87      1.03E+3                  2135.211      51246       34.6967   34.6994     7.61303            22         0.00  
1        2017-12-26    360.821425  2017-12-26T19:42:51Z    1146      1131.67     2.0705       2.0699         31.106921     31.108539       3.9083     3.8029    -0.0537       99.317             1.00E-12        -64.72194    -87.27988     99.87      1.03E+3                  2136.112      51268       34.6968   34.6994     7.61305            22         0.00  
1        2017-12-26    360.821436  2017-12-26T19:42:52Z    1147      1132.66     2.0702       2.0695         31.10707      31.108672       3.9083     3.8018    -0.0544       99.3364            1.00E-12        -64.72194    -87.27988     99.87      1.03E+3                  2137.059      51290       34.6967   34.6994     7.6131             24         0.00  
1        2017-12-26    360.82145   2017-12-26T19:42:53Z    1148      1133.644    2.0687       2.0683         31.106496     31.108173       3.9149     3.8054    -0.0456       99.3358            1.00E-12        -64.72194    -87.27988     94.05      1.03E+3                  2138.253      51319       34.6971   34.6996     7.61336            36         0.00  
1        2017-12-26    360.821473  2017-12-26T19:42:55Z    1149      1134.623    2.0682       2.0678         31.10648      31.108145       3.9161     3.8046    -0.061        99.3259            1.00E-12        -64.72194    -87.27988     82.02      1.03E+3                  2140.286      51368       34.6971   34.6996     7.61347            55         0.00  
1        2017-12-26    360.821494  2017-12-26T19:42:57Z    1150      1135.604    2.0683       2.0677         31.107097     31.108598       3.9059     3.8046    -0.0544       99.2443            1.00E-12        -64.72194    -87.27988     100.56     1.03E+3                  2142.115      51412       34.6973   34.6997     7.61344            33         0.00  
1        2017-12-26    360.821508  2017-12-26T19:42:58Z    1151      1136.588    2.068        2.0675         31.107318     31.10892        3.9077     3.8018    -0.0537       99.3213            1.00E-12        -64.72194    -87.27988     99.87      1.03E+3                  2143.292      51440       34.6972   34.6998     7.61349            26         0.00  
1        2017-12-26    360.82152   2017-12-26T19:42:59Z    1152      1137.579    2.0678       2.0672         31.10763      31.109132       3.9098     3.8082    -0.0608       99.339             1.00E-12        -64.72194    -87.27988     99.86      1.03E+3                  2144.302      51464       34.6974   34.6999     7.61353            23         0.00  
1        2017-12-26    360.821531  2017-12-26T19:43:00Z    1153      1138.564    2.0667       2.0661         31.107165     31.108765       3.9119     3.8078    -0.0643       99.3323            1.00E-12        -64.72194    -87.27988     99.87      1.03E+3                  2145.288      51488       34.6974   34.7001     7.61373            25         0.00  
1        2017-12-26    360.821544  2017-12-26T19:43:01Z    1154      1139.55     2.0656       2.0651         31.106823     31.10848        3.9135     3.8019    -0.0539       99.313             1.00E-12        -64.72194    -87.27988     99.87      1.03E+3                  2146.373      51514       34.6976   34.7003     7.61393            28         0.00  
1        2017-12-26    360.821559  2017-12-26T19:43:03Z    1155      1140.534    2.0646       2.064          31.106513     31.108142       3.915      3.8102    -0.0537       99.3276            1.00E-12        -64.72194    -87.27988     99.87      1.03E+3                  2147.666      51545       34.6979   34.7005     7.61412            33         0.00  
1        2017-12-26    360.821574  2017-12-26T19:43:04Z    1156      1141.511    2.0642       2.0636         31.106663     31.108241       3.9128     3.8024    -0.0537       99.3441            1.00E-12        -64.72194    -87.27988     99.86      1.03E+3                  2149.02       51577       34.698    34.7005     7.61419            30         0.00  
1        2017-12-26    360.821587  2017-12-26T19:43:05Z    1157      1142.5      2.0633       2.063          31.106595     31.108277       3.9157     3.8061    -0.0643       99.346             1.00E-12        -64.72194    -87.27988     99.87      1.03E+3                  2150.118      51604       34.6983   34.7007     7.61434            24         0.00  
1        2017-12-26    360.821598  2017-12-26T19:43:06Z    1158      1143.486    2.0619       2.0614         31.105911     31.10755        3.9157     3.8089    -0.0614       99.3365            1.00E-12        -64.72194    -87.27988     99.87      1.03E+3                  2151.045      51626       34.6985   34.701      7.6146             21         0.00  
1        2017-12-26    360.821608  2017-12-26T19:43:07Z    1159      1144.474    2.06         2.0598         31.105052     31.10678        3.9172     3.8065    -0.0543       99.3365            1.00E-12        -64.72194    -87.27988     99.87      1.03E+3                  2151.957      51648       34.6989   34.7013     7.61493            23         0.00  
1        2017-12-26    360.821622  2017-12-26T19:43:08Z    1160      1145.463    2.059        2.0586         31.104617     31.106284       3.9257     3.8114    -0.0541       99.3365            1.00E-12        -64.72194    -87.27988     99.87      1.03E+3                  2153.104      51675       34.699    34.7015     7.61513            35         0.00  
1        2017-12-26    360.821644  2017-12-26T19:43:10Z    1161      1146.438    2.057        2.0566         31.10361      31.105271       3.9173     3.8151    -0.0555       99.3382            1.00E-12        -64.72194    -87.27988     99.87      1.03E+3                  2155.009      51721       34.6993   34.7018     7.61549            50         0.00  
1        2017-12-26    360.821663  2017-12-26T19:43:12Z    1162      1147.421    2.0565       2.056          31.103713     31.105384       3.9209     3.8147    -0.0647       99.3128            1.00E-12        -64.72194    -87.2799      99.87      1.04E+3                  2156.641      51760       34.6994   34.7021     7.61558            30         0.00  
1        2017-12-26    360.821675  2017-12-26T19:43:13Z    1163      1148.408    2.0562       2.0557         31.104025     31.105564       3.9199     3.8118    -0.059        99.3343            1.00E-12        -64.72194    -87.2799      99.87      1.04E+3                  2157.745      51787       34.6996   34.7021     7.61562            25         0.00  
1        2017-12-26    360.821687  2017-12-26T19:43:14Z    1164      1149.395    2.0552       2.0548         31.103635     31.105287       3.9156     3.815     -0.0456       99.3319            1.00E-12        -64.72194    -87.2799      99.87      1.03E+3                  2158.735      51811       34.6996   34.7022     7.61581            23         0.00  
1        2017-12-26    360.821699  2017-12-26T19:43:15Z    1165      1150.382    2.0538       2.0533         31.103096     31.10476        3.9225     3.8173    -0.0546       99.3296            1.00E-12        -64.72194    -87.2799      99.87      1.03E+3                  2159.771      51836       34.7      34.7026     7.61606            27         0.00  
1        2017-12-26    360.821713  2017-12-26T19:43:16Z    1166      1151.367    2.0535       2.053          31.103199     31.104931       3.92       3.8167    -0.06         99.3364            1.00E-12        -64.72194    -87.27989     99.87      1.03E+3                  2160.999      51865       34.7      34.7026     7.61613            32         0.00  
1        2017-12-26    360.82173   2017-12-26T19:43:17Z    1167      1152.348    2.0534       2.0529         31.103607     31.105286       3.9221     3.8146    -0.0553       99.2909            1.00E-12        -64.72194    -87.27989     99.87      1.04E+3                  2162.434      51899       34.7001   34.7027     7.61615            35         0.00  
1        2017-12-26    360.821745  2017-12-26T19:43:19Z    1168      1153.329    2.0528       2.0524         31.10366      31.105271       3.9211     3.8161    -0.0676       99.3318            1.00E-12        -64.72194    -87.2799      99.87      1.04E+3                  2163.763      51931       34.7001   34.7027     7.61624            28         0.00  
1        2017-12-26    360.821757  2017-12-26T19:43:20Z    1169      1154.317    2.0516       2.0511         31.10325      31.104887       3.9231     3.8141    -0.0542       99.3398            1.00E-12        -64.72194    -87.2799      99.87      1.04E+3                  2164.841      51957       34.7004   34.703      7.61646            25         0.00  
1        2017-12-26    360.821769  2017-12-26T19:43:21Z    1170      1155.305    2.0502       2.0498         31.102623     31.104372       3.9255     3.8163    -0.055        99.3296            1.00E-12        -64.72194    -87.2799      99.87      1.04E+3                  2165.826      51981       34.7007   34.7033     7.61672            23         0.00  
1        2017-12-26    360.821781  2017-12-26T19:43:22Z    1171      1156.291    2.0497       2.049          31.102694     31.104251       3.9275     3.819     -0.0537       99.3305            1.00E-12        -64.72194    -87.2799      99.87      1.04E+3                  2166.876      52006       34.7008   34.7034     7.61681            28         0.00  
1        2017-12-26    360.821797  2017-12-26T19:43:23Z    1172      1157.274    2.0491       2.0486         31.102654     31.104367       3.9262     3.819     -0.0537       99.3364            1.00E-12        -64.72194    -87.2799      99.87      1.04E+3                  2168.222      52038       34.7009   34.7035     7.61692            37         0.00  
1        2017-12-26    360.821815  2017-12-26T19:43:25Z    1173      1158.253    2.0487       2.0482         31.102824     31.104462       3.9257     3.8199    -0.0632       99.3365            1.00E-12        -64.72194    -87.2799      99.87      1.04E+3                  2169.797      52076       34.7009   34.7035     7.61699            35         0.00  
1        2017-12-26    360.82183   2017-12-26T19:43:26Z    1174      1159.24     2.0484       2.048          31.103168     31.104802       3.9262     3.8162    -0.0574       99.33              1.00E-12        -64.72194    -87.2799      99.87      1.04E+3                  2171.069      52107       34.7011   34.7036     7.61703            27         0.00  
1        2017-12-26    360.821842  2017-12-26T19:43:27Z    1175      1160.228    2.0469       2.0465         31.102369     31.104074       3.9258     3.8187    -0.0419       99.3443            1.00E-12        -64.72194    -87.2799      99.87      1.04E+3                  2172.157      52133       34.7012   34.7039     7.61731            27         0.00  
1        2017-12-26    360.821856  2017-12-26T19:43:28Z    1176      1161.214    2.0459       2.0455         31.10213      31.103788       3.9244     3.8197    -0.0525       99.3245            1.00E-12        -64.72194    -87.2799      99.87      1.04E+3                  2173.328      52161       34.7015   34.704      7.61749            30         0.00  
1        2017-12-26    360.821871  2017-12-26T19:43:30Z    1177      1162.196    2.0452       2.0448         31.101954     31.103642       3.928      3.821     -0.0688       99.3294            1.00E-12        -64.72194    -87.2799      99.87      1.04E+3                  2174.686      52193       34.7015   34.704      7.61762            34         0.00  
1        2017-12-26    360.821887  2017-12-26T19:43:31Z    1178      1163.178    2.0437       2.0434         31.101288     31.102964       3.9296     3.8225    -0.0633       99.3375            1.00E-12        -64.72194    -87.2799      99.87      1.04E+3                  2176.006      52225       34.7018   34.7042     7.61791            29         0.00  
1        2017-12-26    360.8219    2017-12-26T19:43:32Z    1179      1164.162    2.0424       2.042          31.100778     31.10239        3.9285     3.824     -0.0536       99.3396            1.00E-12        -64.72194    -87.2799      99.87      1.04E+3                  2177.158      52253       34.702    34.7045     7.61813            26         0.00  
1        2017-12-26    360.821912  2017-12-26T19:43:33Z    1180      1165.15     2.042        2.0416         31.100944     31.102581       3.9284     3.8221    -0.0543       99.3344            1.00E-12        -64.72194    -87.2799      99.87      1.04E+3                  2178.201      52278       34.7022   34.7046     7.61821            25         0.00  
1        2017-12-26    360.821925  2017-12-26T19:43:34Z    1181      1166.139    2.0412       2.0408         31.100741     31.102399       3.9324     3.8245    -0.0542       99.3427            1.00E-12        -64.72194    -87.2799      99.87      1.04E+3                  2179.305      52304       34.7022   34.7047     7.61835            29         0.00  
1        2017-12-26    360.821942  2017-12-26T19:43:36Z    1182      1167.12     2.0409       2.0406         31.100949     31.102625       3.9328     3.8247    -0.0632       99.3453            1.00E-12        -64.72194    -87.27991     99.87      1.04E+3                  2180.767      52339       34.7022   34.7047     7.6184             42         0.00  
1        2017-12-26    360.821961  2017-12-26T19:43:37Z    1183      1168.099    2.0406       2.0402         31.101131     31.10276        3.9284     3.828     -0.0538       99.3323            1.00E-12        -64.72194    -87.27992     99.87      1.04E+3                  2182.467      52380       34.7024   34.7048     7.61847            35         0.00  
1        2017-12-26    360.821975  2017-12-26T19:43:39Z    1184      1169.081    2.04         2.0396         31.101345     31.102859       3.9314     3.8146    -0.0543       99.3309            1.00E-12        -64.72194    -87.27992     99.87      1.04E+3                  2183.663      52409       34.7027   34.705      7.61856            24         0.00  
1        2017-12-26    360.821986  2017-12-26T19:43:40Z    1185      1170.072    2.0399       2.0394         31.101569     31.103116       3.9321     3.8292    -0.0537       99.3433            1.00E-12        -64.72194    -87.27992     99.87      1.04E+3                  2184.575      52431       34.7026   34.705      7.61859            20         0.00  
1        2017-12-26    360.821995  2017-12-26T19:43:40Z    1186      1171.058    2.0394       2.0391         31.101704     31.103405       3.9325     3.825     -0.0537       99.3418            1.00E-12        -64.72194    -87.27992     99.87      1.04E+3                  2185.39       52450       34.7028   34.7052     7.61868            20         0.00  
1        2017-12-26    360.822005  2017-12-26T19:43:41Z    1187      1172.05     2.039        2.0385         31.101741     31.103392       3.933      3.8204    -0.0537       99.3367            1.00E-12        -64.72194    -87.2799      99.87      1.04E+3                  2186.254      52471       34.7027   34.7052     7.61875            23         0.00  
1        2017-12-26    360.822024  2017-12-26T19:43:43Z    1188      1173.032    2.0384       2.038          31.101698     31.103388       3.934      3.8248    -0.0542       99.3314            1.00E-12        -64.72194    -87.27991     99.87      1.04E+3                  2187.834      52509       34.7027   34.7052     7.61886            52         0.00  
1        2017-12-26    360.822048  2017-12-26T19:43:45Z    1189      1174.003    2.0382       2.0378         31.102053     31.103695       3.9343     3.822     -0.0665       99.3369            1.00E-12        -64.72194    -87.27992     99.87      1.04E+3                  2189.97       52560       34.7028   34.7054     7.61889            33         0.00  
1        2017-12-26    360.822061  2017-12-26T19:43:46Z    1190      1174.991    2.0371       2.0366         31.101602     31.103202       3.9331     3.8292    -0.0547       99.3365            1.00E-12        -64.72194    -87.27992     99.87      1.04E+3                  2191.057      52586       34.7029   34.7055     7.6191             25         0.00  
1        2017-12-26    360.822072  2017-12-26T19:43:47Z    1191      1175.982    2.0361       2.0357         31.101334     31.102985       3.9349     3.8185    -0.0688       99.3308            1.00E-12        -64.72194    -87.27992     99.87      1.04E+3                  2192.026      52610       34.7032   34.7057     7.61928            23         0.00  
1        2017-12-26    360.822083  2017-12-26T19:43:48Z    1192      1176.966    2.0357       2.0352         31.101523     31.103103       3.9358     3.8239    -0.069        99.2904            1.00E-12        -64.72194    -87.27992     99.87      1.04E+3                  2193.005      52633       34.7033   34.7059     7.61934            24         0.00  
1        2017-12-26    360.822096  2017-12-26T19:43:49Z    1193      1177.951    2.0353       2.0348         31.10163      31.103184       3.939      3.8335    -0.0569       99.3435            1.00E-12        -64.72194    -87.27992     99.87      1.04E+3                  2194.125      52660       34.7034   34.7059     7.61943            30         0.00  
1        2017-12-26    360.822111  2017-12-26T19:43:50Z    1194      1178.937    2.0342       2.0337         31.101238     31.102896       3.9348     3.8253    -0.0537       99.3341            1.00E-12        -64.72194    -87.27992     99.87      1.04E+3                  2195.422      52691       34.7036   34.7061     7.61963            32         0.00  
1        2017-12-26    360.822127  2017-12-26T19:43:52Z    1195      1179.919    2.0333       2.0329         31.101063     31.102681       3.9359     3.8331    -0.055        99.3184            1.00E-12        -64.72194    -87.27992     99.87      1.04E+3                  2196.815      52725       34.7038   34.7062     7.61978            34         0.00  
1        2017-12-26    360.822144  2017-12-26T19:43:53Z    1196      1180.903    2.0333       2.0328         31.101413     31.103122       3.9366     3.8294    -0.0639       99.3359            1.00E-12        -64.72194    -87.27992     99.87      1.04E+3                  2198.266      52759       34.7037   34.7063     7.61979            35         0.00  
1        2017-12-26    360.82216   2017-12-26T19:43:55Z    1197      1181.884    2.033        2.0326         31.101814     31.103445       3.9283     3.8276    -0.0696       99.3365            1.00E-12        -64.72194    -87.27993     99.87      1.04E+3                  2199.622      52792       34.7039   34.7065     7.61983            29         0.00  
1        2017-12-26    360.822173  2017-12-26T19:43:56Z    1198      1182.87     2.033        2.0325         31.102246     31.103814       3.9398     3.8337    -0.0684       99.3354            1.00E-12        -64.72194    -87.27994     99.87      1.04E+3                  2200.724      52818       34.704    34.7064     7.61983            24         0.00  
1        2017-12-26    360.822184  2017-12-26T19:43:57Z    1199      1183.856    2.0325       2.032          31.102338     31.104014       3.9418     3.8409    -0.0684       99.3353            1.00E-12        -64.72194    -87.27994     99.86      1.04E+3                  2201.661      52841       34.7041   34.7067     7.61992            22         0.00  
1        2017-12-26    360.822194  2017-12-26T19:43:58Z    1200      1184.846    2.0319       2.0314         31.102336     31.103904       3.9417     3.8334    -0.0602       99.3376            1.00E-12        -64.72194    -87.27994     99.87      1.04E+3                  2202.573      52863       34.7042   34.7067     7.62002            23         0.00  
1        2017-12-26    360.822206  2017-12-26T19:43:59Z    1201      1185.831    2.0297       2.0292         31.100896     31.102637       3.9463     3.831     -0.0554       99.3151            1.00E-12        -64.72194    -87.27994     99.87      1.04E+3                  2203.634      52888       34.7043   34.707      7.62044            29         0.00  
1        2017-12-26    360.822224  2017-12-26T19:44:00Z    1202      1186.813    2.0283       2.0278         31.10024      31.101946       3.944      3.8359    -0.0579       99.3226            1.00E-12        -64.72194    -87.27994     99.87      1.04E+3                  2205.164      52925       34.7044   34.7071     7.6207             45         0.00  
1        2017-12-26    360.822245  2017-12-26T19:44:02Z    1203      1187.793    2.0268       2.0263         31.099575     31.101183       3.942      3.8362    -0.0696       99.3136            1.00E-12        -64.72194    -87.27994     99.87      1.04E+3                  2207.006      52969       34.7048   34.7073     7.62098            38         0.00  
1        2017-12-26    360.822261  2017-12-26T19:44:03Z    1204      1188.775    2.0266       2.0261         31.099998     31.101551       3.9397     3.8307    -0.0565       99.3399            1.00E-12        -64.72194    -87.27994     99.87      1.04E+3                  2208.37       53002       34.7049   34.7074     7.621              29         0.00  
1        2017-12-26    360.822274  2017-12-26T19:44:04Z    1205      1189.763    2.0265       2.026          31.100315     31.10194        3.9374     3.8343    -0.0537       99.3505            1.00E-12        -64.72194    -87.27994     99.87      1.04E+3                  2209.475      53028       34.7049   34.7075     7.62102            25         0.00  
1        2017-12-26    360.822286  2017-12-26T19:44:06Z    1206      1190.749    2.0265       2.0259         31.100796     31.102356       3.9474     3.8404    -0.0537       99.3355            1.00E-12        -64.72194    -87.27994     99.87      1.04E+3                  2210.498      53053       34.705    34.7075     7.62103            25         0.00  
1        2017-12-26    360.822298  2017-12-26T19:44:07Z    1207      1191.731    2.0257       2.0253         31.10068      31.102284       3.9454     3.8399    -0.0537       99.3054            1.00E-12        -64.72194    -87.27994     99.87      1.04E+3                  2211.518      53077       34.7051   34.7076     7.62116            24         0.00  
1        2017-12-26    360.82231   2017-12-26T19:44:08Z    1208      1192.724    2.0246       2.0241         31.100143     31.10178        3.9435     3.838     -0.0537       99.339             1.00E-12        -64.72194    -87.27994     99.87      1.04E+3                  2212.593      53103       34.7052   34.7078     7.62137            28         0.00  
1        2017-12-26    360.822324  2017-12-26T19:44:09Z    1209      1193.704    2.024        2.0234         31.100095     31.101709       3.9416     3.8329    -0.0537       99.3374            1.00E-12        -64.72194    -87.27994     99.86      1.04E+3                  2213.821      53133       34.7052   34.7079     7.62148            32         0.00  
1        2017-12-26    360.822341  2017-12-26T19:44:10Z    1210      1194.688    2.0235       2.0228         31.100097     31.101733       3.946      3.8386    -0.0537       99.3491            1.00E-12        -64.72194    -87.27994     99.87      1.04E+3                  2215.269      53167       34.7053   34.708      7.62158            36         0.00  
1        2017-12-26    360.822357  2017-12-26T19:44:12Z    1211      1195.662    2.0231       2.0225         31.100257     31.101875       3.9511     3.8351    -0.0547       99.3436            1.00E-12        -64.72194    -87.27995     99.87      1.04E+3                  2216.66       53201       34.7054   34.708      7.62165            30         0.00  
1        2017-12-26    360.82237   2017-12-26T19:44:13Z    1212      1196.659    2.0225       2.022          31.100317     31.101961       3.9467     3.8378    -0.0613       99.3514            1.00E-12        -64.72194    -87.27996     99.87      1.04E+3                  2217.789      53228       34.7056   34.7082     7.62176            25         0.00  
1        2017-12-26    360.822382  2017-12-26T19:44:14Z    1213      1197.639    2.0217       2.0211         31.100122     31.101727       3.9437     3.8436    -0.0683       99.3398            1.00E-12        -64.72194    -87.27996     99.87      1.04E+3                  2218.822      53253       34.7057   34.7083     7.62191            25         0.00  
1        2017-12-26    360.822395  2017-12-26T19:44:15Z    1214      1198.63     2.0209       2.0203         31.09992      31.101572       3.9466     3.8357    -0.063        99.3591            1.00E-12        -64.72194    -87.27996     99.86      1.04E+3                  2219.909      53279       34.7057   34.7084     7.62205            27         0.00  
1        2017-12-26    360.822409  2017-12-26T19:44:16Z    1215      1199.61     2.0196       2.0189         31.099309     31.100965       3.9554     3.839     -0.0462       99.3324            1.00E-12        -64.72194    -87.27994     99.87      1.04E+3                  2221.116      53308       34.7059   34.7086     7.6223             31         0.00  
1        2017-12-26    360.822424  2017-12-26T19:44:17Z    1216      1200.596    2.0187       2.018          31.098959     31.100605       3.9525     3.8411    -0.0497       99.3405            1.00E-12        -64.72194    -87.27995     99.87      1.04E+3                  2222.454      53340       34.7059   34.7087     7.62247            33         0.00  
1        2017-12-26    360.822441  2017-12-26T19:44:19Z    1217      1201.578    2.0174       2.0168         31.098523     31.100185       3.9539     3.8483    -0.0669       99.3484            1.00E-12        -64.72193    -87.27996     99.87      1.04E+3                  2223.871      53374       34.7062   34.7089     7.6227             34         0.00  
1        2017-12-26    360.822456  2017-12-26T19:44:20Z    1218      1202.561    2.0166       2.0158         31.098256     31.099825       3.9531     3.8379    -0.0589       99.3356            1.00E-12        -64.72192    -87.27996     99.87      1.04E+3                  2225.216      53406       34.7063   34.709      7.62286            31         0.00  
1        2017-12-26    360.82247   2017-12-26T19:44:21Z    1219      1203.548    2.0162       2.0156         31.098444     31.100092       3.9542     3.8489    -0.0636       99.3204            1.00E-12        -64.72192    -87.27996     99.86      1.04E+3                  2226.425      53435       34.7064   34.7091     7.62293            28         0.00  
1        2017-12-26    360.822483  2017-12-26T19:44:23Z    1220      1204.53     2.0154       2.0149         31.098389     31.100019       3.9535     3.8376    -0.0543       99.3531            1.00E-12        -64.72192    -87.27996     99.87      1.04E+3                  2227.575      53463       34.7066   34.7092     7.62306            27         0.00  
1        2017-12-26    360.822496  2017-12-26T19:44:24Z    1221      1205.515    2.0145       2.014          31.098037     31.099715       3.9555     3.8466    -0.0543       99.3367            1.00E-12        -64.72192    -87.27996     99.87      1.04E+3                  2228.675      53489       34.7066   34.7093     7.62323            26         0.00  
1        2017-12-26    360.822509  2017-12-26T19:44:25Z    1222      1206.502    2.0125       2.012          31.09691      31.098677       3.9552     3.8466    -0.0537       99.3557            1.00E-12        -64.72192    -87.27996     99.87      1.04E+3                  2229.751      53515       34.7068   34.7096     7.6236             26         0.00  
1        2017-12-26    360.822522  2017-12-26T19:44:26Z    1223      1207.487    2.0114       2.0107         31.0965       31.098118       3.9524     3.8406    -0.0537       99.3249            1.00E-12        -64.72192    -87.27997     99.87      1.04E+3                  2230.867      53542       34.707    34.7098     7.62381            28         0.00  
1        2017-12-26    360.822536  2017-12-26T19:44:27Z    1224      1208.469    2.0111       2.0104         31.096764     31.098359       3.9538     3.8495    -0.0537       99.3313            1.00E-12        -64.72192    -87.27998     99.87      1.04E+3                  2232.114      53572       34.7072   34.7099     7.62386            31         0.00  
1        2017-12-26    360.82255   2017-12-26T19:44:28Z    1225      1209.452    2.0109       2.0102         31.096986     31.098589       3.9473     3.838     -0.0542       99.3471            1.00E-12        -64.72192    -87.27998     99.87      1.04E+3                  2233.363      53602       34.7071   34.7099     7.6239             28         0.00  
1        2017-12-26    360.822563  2017-12-26T19:44:29Z    1226      1210.435    2.0106       2.0099         31.097296     31.098909       3.9441     3.8509    -0.0537       99.3343            1.00E-12        -64.72192    -87.27998     99.87      1.04E+3                  2234.432      53627       34.7073   34.71       7.62394            24         0.00  
1        2017-12-26    360.822574  2017-12-26T19:44:30Z    1227      1211.427    2.0101       2.0097         31.097369     31.099067       3.9614     3.8479    -0.0543       99.3515            1.00E-12        -64.72192    -87.27998     99.87      1.04E+3                  2235.409      53651       34.7074   34.71       7.62403            23         0.00  
1        2017-12-26    360.822588  2017-12-26T19:44:32Z    1228      1212.412    2.0085       2.008          31.096503     31.098075       3.9561     3.8511    -0.0637       99.3293            1.00E-12        -64.72192    -87.27998     99.86      1.04E+3                  2236.587      53679       34.7075   34.71       7.62434            38         0.00  
1        2017-12-26    360.822625  2017-12-26T19:44:35Z    1229      1213.386    2.009        2.0085         31.097368     31.098981       3.9522     3.8356    -0.0594       99.3425            1.00E-12        -64.72192    -87.27998     99.87      1.05E+3                  2239.76       53755       34.7075   34.7101     7.62424            29         0.00  
1        2017-12-26    360.822639  2017-12-26T19:44:36Z    1230      1214.366    2.0071       2.0066         31.096269     31.098115       3.956      3.8372    -0.0535       99.339             1.00E-12        -64.72192    -87.27998     99.87      1.05E+3                  2240.975      53784       34.7077   34.7105     7.6246             20         0.00  
1        2017-12-26    360.822647  2017-12-26T19:44:37Z    1231      1215.356    2.0063       2.0059         31.096158     31.097846       3.9561     3.8469    -0.0589       99.3401            1.00E-12        -64.72192    -87.27998     99.87      1.05E+3                  2241.715      53802       34.708    34.7104     7.62474            17         0.00  
1        2017-12-26    360.822655  2017-12-26T19:44:37Z    1232      1216.342    2.0056       2.0051         31.096142     31.097716       3.9564     3.8471    -0.0683       99.3365            1.00E-12        -64.72192    -87.27998     99.87      1.05E+3                  2242.37       53818       34.7082   34.7106     7.62487            15         0.00  
1        2017-12-26    360.822662  2017-12-26T19:44:38Z    1233      1217.334    2.0052       2.0047         31.096334     31.097968       3.9567     3.8385    -0.0615       99.3365            1.00E-12        -64.72192    -87.27998     99.86      1.05E+3                  2243.002      53833       34.7082   34.7108     7.62492            15         0.00  
1        2017-12-26    360.82267   2017-12-26T19:44:39Z    1234      1218.325    2.0048       2.0043         31.096334     31.097963       3.9587     3.8462    -0.0538       99.3365            1.00E-12        -64.72192    -87.27998     45         1.05E+3                  2243.697      53850       34.7082   34.7108     7.62501            19         0.00  
1        2017-12-26    360.822682  2017-12-26T19:44:40Z    1235      1219.315    2.0038       2.0034         31.095805     31.097656       3.9604     3.8543    -0.04         99.3365            1.00E-12        -64.72192    -87.27998     102.48     1.05E+3                  2244.763      53875       34.7081   34.7108     7.62521            27         0.00  
1        2017-12-26    360.822715  2017-12-26T19:44:43Z    1236      1220.269    2.0041       2.004          31.096475     31.098493       3.9577     3.8456    -0.071        99.3365            1.00E-12        -64.72192    -87.27998     99.87      1.05E+3                  2247.602      53943       34.7081   34.7106     7.62516            38         0.00  
1        2017-12-26    360.822727  2017-12-26T19:44:44Z    1237      1221.26     2.0031       2.0026         31.09632      31.097956       3.9572     3.8446    -0.0684       99.3403            1.00E-12        -64.72192    -87.27998     99.87      1.05E+3                  2248.591      53967       34.7084   34.711      7.62532            21         0.00  
1        2017-12-26    360.822736  2017-12-26T19:44:44Z    1238      1222.248    2.0026       2.0021         31.096303     31.097984       3.9575     3.8473    -0.0684       99.3424            1.00E-12        -64.72192    -87.27998     99.87      1.05E+3                  2249.396      53987       34.7084   34.711      7.62542            18         0.00  
1        2017-12-26    360.822744  2017-12-26T19:44:45Z    1239      1223.235    2.0017       2.0012         31.096076     31.097742       3.9585     3.8473    -0.0684       99.3482            1.00E-12        -64.72192    -87.27998     99.87      1.05E+3                  2250.111      54004       34.7086   34.7111     7.62559            16         0.00  
1        2017-12-26    360.822753  2017-12-26T19:44:46Z    1240      1224.223    2.0007       2.0004         31.0958       31.097551       3.9603     3.8471    -0.0537       99.338             1.00E-12        -64.72192    -87.27998     99.87      1.05E+3                  2250.814      54021       34.7088   34.7113     7.62577            18         0.00  
1        2017-12-26    360.822762  2017-12-26T19:44:47Z    1241      1225.22     2.0004       1.9997         31.095812     31.097494       3.9625     3.8513    -0.0537       99.328             1.00E-12        -64.72192    -87.27998     99.87      1.05E+3                  2251.669      54041       34.7086   34.7114     7.62584            26         0.00  
1        2017-12-26    360.822799  2017-12-26T19:44:50Z    1242      1226.182    2.0004       2.0001         31.096266     31.097998       3.9623     3.8498    -0.063        99.3413            1.00E-12        -64.7219     -87.27998     99.87      1.05E+3                  2254.869      54118       34.7086   34.7111     7.62583            38         0.00  
1        2017-12-26    360.822818  2017-12-26T19:44:51Z    1243      1227.168    1.9987       1.9981         31.095396     31.097011       3.9584     3.8522    -0.0562       99.34              1.00E-12        -64.7219     -87.27998     99.87      1.05E+3                  2256.485      54157       34.7089   34.7115     7.62614            23         0.00  
1        2017-12-26    360.822828  2017-12-26T19:44:52Z    1244      1228.152    1.9973       1.9968         31.094727     31.096352       3.9655     3.8556    -0.0537       99.331             1.00E-12        -64.72192    -87.27998     99.87      1.05E+3                  2257.367      54178       34.7091   34.7116     7.62641            20         0.00  
1        2017-12-26    360.822838  2017-12-26T19:44:53Z    1245      1229.143    1.9966       1.996          31.094624     31.096369       3.9662     3.8496    -0.0584       99.3422            1.00E-12        -64.72192    -87.27998     99.87      1.05E+3                  2258.169      54197       34.7092   34.7119     7.62654            19         0.00  
1        2017-12-26    360.822847  2017-12-26T19:44:54Z    1246      1230.13     1.9959       1.9953         31.094566     31.09621        3.9622     3.8499    -0.0684       99.3365            1.00E-12        -64.72192    -87.27998     99.87      1.05E+3                  2258.958      54216       34.7093   34.7119     7.62666            19         0.00  
1        2017-12-26    360.822857  2017-12-26T19:44:55Z    1247      1231.116    1.9949       1.9944         31.094212     31.095808       3.9648     3.8589    -0.0551       99.3411            1.00E-12        -64.72192    -87.27999     99.87      1.05E+3                  2259.824      54237       34.7093   34.7119     7.62684            23         0.00  
1        2017-12-26    360.82287   2017-12-26T19:44:56Z    1248      1232.098    1.9942       1.9936         31.09394      31.095645       3.9704     3.8549    -0.0556       99.3442            1.00E-12        -64.72192    -87.28        99.87      1.05E+3                  2260.928      54263       34.7093   34.7121     7.62699            31         0.00  
1        2017-12-26    360.822886  2017-12-26T19:44:57Z    1249      1233.079    1.9931       1.9925         31.093536     31.095205       3.9688     3.8568    -0.0541       99.3401            1.00E-12        -64.72192    -87.28        99.87      1.05E+3                  2262.374      54298       34.7095   34.7121     7.62719            37         0.00  
1        2017-12-26    360.822903  2017-12-26T19:44:59Z    1250      1234.062    1.9921       1.9914         31.093218     31.094788       3.9675     3.8559    -0.0537       99.311             1.00E-12        -64.7219     -87.28        99.86      1.05E+3                  2263.851      54333       34.7096   34.7123     7.62737            33         0.00  
1        2017-12-26    360.822919  2017-12-26T19:45:00Z    1251      1235.047    1.9914       1.9907         31.093118     31.094787       3.9673     3.8519    -0.0537       99.3184            1.00E-12        -64.7219     -87.28        99.87      1.05E+3                  2265.165      54365       34.7097   34.7125     7.62749            31         0.00  
1        2017-12-26    360.822933  2017-12-26T19:45:01Z    1252      1236.032    1.9909       1.9901         31.093137     31.094725       3.9691     3.858     -0.0537       99.3365            1.00E-12        -64.7219     -87.28        99.87      1.05E+3                  2266.396      54395       34.7098   34.7125     7.6276             28         0.00  
1        2017-12-26    360.822946  2017-12-26T19:45:03Z    1253      1237.016    1.9907       1.9899         31.093395     31.094968       3.9697     3.8586    -0.0537       99.3365            1.00E-12        -64.7219     -87.28        99.87      1.05E+3                  2267.532      54422       34.7098   34.7126     7.62763            27         0.00  
1        2017-12-26    360.822959  2017-12-26T19:45:04Z    1254      1238.002    1.9902       1.9896         31.093557     31.095182       3.9696     3.8556    -0.0537       99.3365            1.00E-12        -64.7219     -87.28        99.87      1.05E+3                  2268.652      54449       34.71     34.7127     7.62771            27         0.00  
1        2017-12-26    360.822973  2017-12-26T19:45:05Z    1255      1238.985    1.9897       1.9891         31.093524     31.095179       3.9713     3.8586    -0.0537       99.3365            1.00E-12        -64.7219     -87.28        99.87      1.05E+3                  2269.888      54478       34.71     34.7127     7.62781            29         0.00  
1        2017-12-26    360.822989  2017-12-26T19:45:06Z    1256      1239.969    1.9886       1.9881         31.09323      31.094939       3.9695     3.8567    -0.0596       99.3348            1.00E-12        -64.7219     -87.28        99.87      1.05E+3                  2271.257      54511       34.7102   34.7129     7.628              31         0.00  
1        2017-12-26    360.823003  2017-12-26T19:45:07Z    1257      1240.952    1.9872       1.9866         31.092501     31.094152       3.9693     3.8629    -0.0621       99.3298            1.00E-12        -64.7219     -87.28        99.86      1.05E+3                  2272.488      54541       34.7103   34.7131     7.62827            28         0.00  
1        2017-12-26    360.823016  2017-12-26T19:45:09Z    1258      1241.938    1.9865       1.9859         31.092403     31.093993       3.9681     3.8606    -0.0549       99.3507            1.00E-12        -64.7219     -87.28        99.87      1.05E+3                  2273.597      54567       34.7104   34.7131     7.6284             26         0.00  
1        2017-12-26    360.823029  2017-12-26T19:45:10Z    1259      1242.922    1.9856       1.9848         31.091999     31.093678       3.9679     3.8612    -0.0537       99.3474            1.00E-12        -64.7219     -87.28        99.87      1.05E+3                  2274.693      54594       34.7104   34.7133     7.62857            27         0.00  
1        2017-12-26    360.823042  2017-12-26T19:45:11Z    1260      1243.908    1.9848       1.9842         31.091939     31.093635       3.9652     3.8597    -0.0537       99.3508            1.00E-12        -64.7219     -87.28        99.87      1.05E+3                  2275.839      54621       34.7106   34.7134     7.62871            28         0.00  
1        2017-12-26    360.823056  2017-12-26T19:45:12Z    1261      1244.892    1.9843       1.9836         31.09196      31.093547       3.9703     3.8605    -0.0622       99.3404            1.00E-12        -64.7219     -87.28001     99.87      1.05E+3                  2277.023      54650       34.7107   34.7134     7.62881            29         0.00  
1        2017-12-26    360.82307   2017-12-26T19:45:13Z    1262      1245.874    1.9841       1.9835         31.092249     31.093841       3.9723     3.8649    -0.0684       99.3184            1.00E-12        -64.7219     -87.28002     99.87      1.05E+3                  2278.226      54678       34.7107   34.7134     7.62884            28         0.00  
1        2017-12-26    360.823083  2017-12-26T19:45:14Z    1263      1246.857    1.9839       1.9832         31.092501     31.094132       3.9686     3.8611    -0.058        99.3155            1.00E-12        -64.7219     -87.28002     99.86      1.05E+3                  2279.398      54707       34.7108   34.7135     7.62888            28         0.00  
1        2017-12-26    360.823096  2017-12-26T19:45:15Z    1264      1247.843    1.9837       1.9829         31.092739     31.09435        3.9725     3.8642    -0.0537       99.3343            1.00E-12        -64.7219     -87.28002     99.87      1.05E+3                  2280.513      54733       34.7108   34.7135     7.62893            26         0.00  
1        2017-12-26    360.823109  2017-12-26T19:45:17Z    1265      1248.83     1.9834       1.9827         31.092918     31.094669       3.9751     3.8643    -0.0537       99.3394            1.00E-12        -64.7219     -87.28002     99.87      1.05E+3                  2281.611      54760       34.7108   34.7136     7.62898            27         0.00  
1        2017-12-26    360.823123  2017-12-26T19:45:18Z    1266      1249.814    1.9826       1.9819         31.092745     31.094351       3.9744     3.8627    -0.0537       99.344             1.00E-12        -64.7219     -87.28002     99.87      1.05E+3                  2282.79       54788       34.7109   34.7136     7.62913            30         0.00  
1        2017-12-26    360.823138  2017-12-26T19:45:19Z    1267      1250.797    1.9816       1.981          31.092486     31.094073       3.9777     3.866     -0.0684       99.3365            1.00E-12        -64.7219     -87.28002     99.86      1.05E+3                  2284.125      54820       34.7111   34.7137     7.6293             33         0.00  
1        2017-12-26    360.823154  2017-12-26T19:45:21Z    1268      1251.778    1.9813       1.9807         31.092653     31.094313       3.9687     3.8642    -0.0684       99.3365            1.00E-12        -64.7219     -87.28004     99.87      1.05E+3                  2285.478      54852       34.7112   34.7138     7.62937            31         0.00  
1        2017-12-26    360.823167  2017-12-26T19:45:22Z    1269      1252.764    1.9811       1.9804         31.092932     31.094553       3.9725     3.8616    -0.0684       99.3365            1.00E-12        -64.7219     -87.28004     99.87      1.05E+3                  2286.671      54881       34.7111   34.7139     7.62939            27         0.00  
1        2017-12-26    360.823181  2017-12-26T19:45:23Z    1270      1253.751    1.9808       1.9802         31.09299      31.09479        3.9734     3.8687    -0.0621       99.3432            1.00E-12        -64.7219     -87.28004     99.87      1.05E+3                  2287.816      54909       34.711    34.7139     7.62946            28         0.00  
1        2017-12-26    360.823195  2017-12-26T19:45:24Z    1271      1254.734    1.9806       1.9799         31.093313     31.095013       3.9731     3.8627    -0.0463       99.3356            1.00E-12        -64.72191    -87.28004     99.87      1.05E+3                  2289.026      54938       34.7111   34.714      7.6295             30         0.00  
1        2017-12-26    360.82321   2017-12-26T19:45:25Z    1272      1255.717    1.9803       1.9797         31.093621     31.095257       3.9757     3.8662    -0.0501       99.3239            1.00E-12        -64.72192    -87.28004     99.87      1.05E+3                  2290.323      54969       34.7113   34.7139     7.62954            32         0.00  
1        2017-12-26    360.823225  2017-12-26T19:45:27Z    1273      1256.7      1.9801       1.9794         31.093834     31.095476       3.9679     3.8691    -0.0543       99.318             1.00E-12        -64.7219     -87.28004     99.87      1.05E+3                  2291.601      54999       34.7113   34.714      7.62958            29         0.00  
1        2017-12-26    360.823238  2017-12-26T19:45:28Z    1274      1257.684    1.9796       1.9788         31.093752     31.095459       3.9658     3.8665    -0.0681       99.3201            1.00E-12        -64.7219     -87.28004     99.86      1.05E+3                  2292.748      55027       34.7112   34.7141     7.62969            26         0.00  
1        2017-12-26    360.823249  2017-12-26T19:45:29Z    1275      1258.668    1.9793       1.9787         31.094102     31.095627       3.9674     3.868     -0.0562       99.3272            1.00E-12        -64.7219     -87.28004     99.87      1.05E+3                  2293.753      55051       34.7114   34.714      7.62973            23         0.00  
1        2017-12-26    360.823261  2017-12-26T19:45:30Z    1276      1259.657    1.9791       1.9785         31.094391     31.096021       3.9722     3.8607    -0.0543       99.3365            1.00E-12        -64.7219     -87.28004     99.87      1.05E+3                  2294.711      55074       34.7115   34.7141     7.62977            23         0.00  
1        2017-12-26    360.823272  2017-12-26T19:45:31Z    1277      1260.641    1.9789       1.9782         31.094614     31.096275       3.9721     3.8675    -0.0639       99.3406            1.00E-12        -64.7219     -87.28004     99.87      1.05E+3                  2295.729      55098       34.7114   34.7142     7.62981            26         0.00  
1        2017-12-26    360.823286  2017-12-26T19:45:32Z    1278      1261.626    1.9786       1.978          31.094832     31.096501       3.9774     3.8618    -0.0683       99.3427            1.00E-12        -64.7219     -87.28004     99.87      1.05E+3                  2296.954      55128       34.7115   34.7142     7.62986            34         0.00  
1        2017-12-26    360.823305  2017-12-26T19:45:34Z    1279      1262.606    1.9782       1.9777         31.094953     31.096636       3.9763     3.8708    -0.0551       99.3627            1.00E-12        -64.72191    -87.28004     99.87      1.05E+3                  2298.514      55165       34.7116   34.7142     7.62993            39         0.00  
1        2017-12-26    360.823322  2017-12-26T19:45:35Z    1280      1263.587    1.9777       1.9771         31.094966     31.096702       3.9771     3.8651    -0.0541       99.3558            1.00E-12        -64.72192    -87.28004     99.87      1.05E+3                  2300.031      55202       34.7116   34.7144     7.63003            33         0.00  
1        2017-12-26    360.823336  2017-12-26T19:45:36Z    1281      1264.575    1.9774       1.9767         31.095215     31.096852       3.9786     3.8694    -0.056        99.3376            1.00E-12        -64.72192    -87.28004     99.86      1.05E+3                  2301.224      55230       34.7117   34.7144     7.63008            26         0.00  
1        2017-12-26    360.823348  2017-12-26T19:45:37Z    1282      1265.558    1.9764       1.9759         31.09487      31.096553       3.9733     3.8663    -0.0641       99.3276            1.00E-12        -64.72192    -87.28004     99.87      1.05E+3                  2302.271      55255       34.7118   34.7145     7.63027            24         0.00  
1        2017-12-26    360.82336   2017-12-26T19:45:38Z    1283      1266.545    1.9755       1.9749         31.09462      31.096316       3.9772     3.8722    -0.0608       99.3188            1.00E-12        -64.72192    -87.28004     99.87      1.05E+3                  2303.325      55281       34.712    34.7147     7.63043            27         0.00  
1        2017-12-26    360.823374  2017-12-26T19:45:40Z    1284      1267.53     1.9753       1.9746         31.094799     31.096486       3.9826     3.8679    -0.0543       99.348             1.00E-12        -64.72191    -87.28006     99.87      1.05E+3                  2304.519      55309       34.7118   34.7147     7.63047            31         0.00  
1        2017-12-26    360.82339   2017-12-26T19:45:41Z    1285      1268.511    1.9749       1.9743         31.094932     31.096575       3.98       3.8711    -0.0667       99.3608            1.00E-12        -64.7219     -87.28006     99.86      1.05E+3                  2305.881      55342       34.712    34.7146     7.63055            33         0.00  
1        2017-12-26    360.823404  2017-12-26T19:45:42Z    1286      1269.494    1.9729       1.9724         31.093879     31.095551       3.9784     3.8682    -0.0547       99.3594            1.00E-12        -64.7219     -87.28006     99.87      1.05E+3                  2307.149      55373       34.7123   34.7149     7.63091            28         0.00  
1        2017-12-26    360.823417  2017-12-26T19:45:43Z    1287      1270.478    1.9713       1.9707         31.092971     31.094561       3.979      3.8714    -0.0537       99.3308            1.00E-12        -64.72192    -87.28006     99.87      1.05E+3                  2308.234      55399       34.7124   34.715      7.63122            24         0.00  
1        2017-12-26    360.823428  2017-12-26T19:45:44Z    1288      1271.465    1.9705       1.9699         31.09283      31.094598       3.9809     3.8716    -0.0537       99.3121            1.00E-12        -64.7219     -87.28006     99.87      1.05E+3                  2309.206      55422       34.7125   34.7153     7.63136            23         0.00  
1        2017-12-26    360.823439  2017-12-26T19:45:45Z    1289      1272.45     1.9703       1.9697         31.093135     31.09478        3.9797     3.8749    -0.0537       99.3361            1.00E-12        -64.7219     -87.28006     99.87      1.05E+3                  2310.171      55445       34.7126   34.7153     7.6314             24         0.00  
1        2017-12-26    360.823452  2017-12-26T19:45:46Z    1290      1273.437    1.97         1.9694         31.093329     31.094872       3.9828     3.8775    -0.0537       99.3321            1.00E-12        -64.7219     -87.28006     99.87      1.05E+3                  2311.251      55471       34.7126   34.7152     7.63145            29         0.00  
1        2017-12-26    360.823469  2017-12-26T19:45:48Z    1291      1274.419    1.9697       1.9691         31.093516     31.095135       3.9813     3.8686    -0.061        99.3382            1.00E-12        -64.7219     -87.28007     99.87      1.06E+3                  2312.719      55506       34.7127   34.7153     7.63151            42         0.00  
1        2017-12-26    360.82349   2017-12-26T19:45:50Z    1292      1275.397    1.9696       1.9692         31.093884     31.095579       3.9822     3.872     -0.0557       99.3452            1.00E-12        -64.72192    -87.28008     99.87      1.06E+3                  2314.564      55551       34.7127   34.7152     7.63153            41         0.00  
1        2017-12-26    360.823507  2017-12-26T19:45:51Z    1293      1276.381    1.9695       1.9689         31.094228     31.095871       3.9819     3.8738    -0.0684       99.3485            1.00E-12        -64.72192    -87.28008     99.87      1.06E+3                  2315.963      55584       34.7127   34.7154     7.63154            29         0.00  
1        2017-12-26    360.823519  2017-12-26T19:45:52Z    1294      1277.367    1.9696       1.9688         31.094699     31.096281       3.9832     3.8706    -0.0672       99.3387            1.00E-12        -64.72192    -87.28008     99.87      1.05E+3                  2317.065      55611       34.7127   34.7154     7.63153            24         0.00  
1        2017-12-26    360.823531  2017-12-26T19:45:53Z    1295      1278.354    1.9692       1.9688         31.095008     31.096661       3.982      3.8647    -0.0549       99.3387            1.00E-12        -64.72192    -87.28008     99.87      1.05E+3                  2318.063      55635       34.7129   34.7154     7.63158            24         0.00  
1        2017-12-26    360.823542  2017-12-26T19:45:54Z    1296      1279.337    1.9692       1.9686         31.095274     31.096872       3.9786     3.8718    -0.0537       99.3572            1.00E-12        -64.72192    -87.28006     99.87      1.05E+3                  2319.03       55658       34.7128   34.7154     7.6316             23         0.00  
1        2017-12-26    360.823553  2017-12-26T19:45:55Z    1297      1280.321    1.9678       1.9673         31.094736     31.09638        3.9853     3.8786    -0.067        99.3112            1.00E-12        -64.72192    -87.28006     99.87      1.05E+3                  2319.975      55680       34.713    34.7156     7.63184            22         0.00  
1        2017-12-26    360.823564  2017-12-26T19:45:56Z    1298      1281.307    1.9668       1.9661         31.094232     31.095858       3.9894     3.8672    -0.0684       99.3352            1.00E-12        -64.72192    -87.28006     99.87      1.06E+3                  2320.93       55703       34.713    34.7158     7.63205            24         0.00  
1        2017-12-26    360.823576  2017-12-26T19:45:57Z    1299      1282.294    1.9653       1.9648         31.093569     31.095232       3.9902     3.8781    -0.0684       99.3475            1.00E-12        -64.72191    -87.28007     99.87      1.06E+3                  2321.982      55729       34.7132   34.7159     7.63231            28         0.00  
1        2017-12-26    360.823593  2017-12-26T19:45:58Z    1300      1283.277    1.9643       1.9639         31.093243     31.094903       3.9862     3.8826    -0.0656       99.3433            1.00E-12        -64.7219     -87.28008     99.87      1.06E+3                  2323.452      55764       34.7134   34.7159     7.6325             45         0.00  
1        2017-12-26    360.823616  2017-12-26T19:46:00Z    1301      1284.253    1.9633       1.9628         31.092741     31.094441       3.9842     3.8739    -0.063        99.339             1.00E-12        -64.7219     -87.28008     99.87      1.06E+3                  2325.389      55810       34.7134   34.716      7.6327             39         0.00  
1        2017-12-26    360.823631  2017-12-26T19:46:02Z    1302      1285.236    1.9622       1.9616         31.092301     31.093992       3.979      3.8774    -0.0569       99.3628            1.00E-12        -64.72191    -87.28008     99.87      1.06E+3                  2326.681      55841       34.7135   34.7162     7.63291            26         0.00  
1        2017-12-26    360.823642  2017-12-26T19:46:03Z    1303      1286.226    1.9607       1.9603         31.091796     31.093366       3.9842     3.8745    -0.055        99.3586            1.00E-12        -64.72192    -87.28008     99.87      1.06E+3                  2327.668      55865       34.7139   34.7163     7.63316            23         0.00  
1        2017-12-26    360.823653  2017-12-26T19:46:04Z    1304      1287.213    1.9598       1.9592         31.091261     31.092937       3.9871     3.8773    -0.0537       99.3574            1.00E-12        -64.72191    -87.28008     99.87      1.06E+3                  2328.616      55888       34.7137   34.7164     7.63335            23         0.00  
1        2017-12-26    360.823666  2017-12-26T19:46:05Z    1305      1288.2      1.9587       1.958          31.090816     31.092493       3.9868     3.8751    -0.0551       99.3482            1.00E-12        -64.7219     -87.28008     99.87      1.06E+3                  2329.711      55914       34.7138   34.7167     7.63355            30         0.00  
1        2017-12-26    360.823682  2017-12-26T19:46:06Z    1306      1289.177    1.9581       1.9576         31.090819     31.092505       3.9835     3.8754    -0.0578       99.357             1.00E-12        -64.7219     -87.28008     99.87      1.06E+3                  2331.166      55949       34.714    34.7166     7.63367            39         0.00  
1        2017-12-26    360.8237    2017-12-26T19:46:08Z    1307      1290.158    1.9578       1.9572         31.090984     31.092689       3.9892     3.8787    -0.0685       99.3606            1.00E-12        -64.7219     -87.28008     99.87      1.05E+3                  2332.635      55984       34.7139   34.7167     7.63371            31         0.00  
1        2017-12-26    360.823713  2017-12-26T19:46:09Z    1308      1291.146    1.9575       1.957          31.091227     31.092878       3.9874     3.8803    -0.069        99.3397            1.00E-12        -64.7219     -87.28008     99.87      1.06E+3                  2333.792      56012       34.7141   34.7167     7.63377            25         0.00  
1        2017-12-26    360.823725  2017-12-26T19:46:10Z    1309      1292.13     1.9568       1.9562         31.091109     31.092734       3.9894     3.8801    -0.0637       99.3227            1.00E-12        -64.7219     -87.28008     99.87      1.06E+3                  2334.826      56037       34.7142   34.7168     7.63391            25         0.00  
1        2017-12-26    360.823737  2017-12-26T19:46:11Z    1310      1293.115    1.9563       1.9557         31.091186     31.092697       3.989      3.8832    -0.0586       99.3521            1.00E-12        -64.7219     -87.28008     99.87      1.06E+3                  2335.854      56061       34.7142   34.7169     7.63399            24         0.00  
1        2017-12-26    360.823749  2017-12-26T19:46:12Z    1311      1294.098    1.9552       1.9547         31.090637     31.092372       3.9906     3.8812    -0.0692       99.3577            1.00E-12        -64.7219     -87.28008     99.87      1.06E+3                  2336.873      56086       34.7143   34.717      7.63421            24         0.00  
1        2017-12-26    360.82376   2017-12-26T19:46:13Z    1312      1295.082    1.9549       1.9543         31.090794     31.092538       3.9909     3.8747    -0.069        99.3486            1.00E-12        -64.7219     -87.28008     99.87      1.05E+3                  2337.867      56110       34.7143   34.7171     7.63426            24         0.00  
1        2017-12-26    360.823772  2017-12-26T19:46:14Z    1313      1296.069    1.9539       1.9533         31.090525     31.092189       3.996      3.884     -0.0679       99.3417            1.00E-12        -64.7219     -87.28008     99.87      1.05E+3                  2338.881      56134       34.7145   34.7172     7.63444            26         0.00  
1        2017-12-26    360.823786  2017-12-26T19:46:15Z    1314      1297.055    1.9523       1.9519         31.089683     31.091362       3.9898     3.8831    -0.0547       99.3383            1.00E-12        -64.7219     -87.28009     99.87      1.05E+3                  2340.075      56163       34.7146   34.7172     7.63473            33         0.00  
1        2017-12-26    360.823806  2017-12-26T19:46:17Z    1315      1298.033    1.9511       1.9507         31.089171     31.090851       3.9998     3.8804    -0.0543       99.3489            1.00E-12        -64.7219     -87.2801      99.87      1.06E+3                  2341.845      56205       34.7148   34.7173     7.63496            48         0.00  
1        2017-12-26    360.823826  2017-12-26T19:46:19Z    1316      1299.014    1.9506       1.95           31.089119     31.090775       3.9927     3.8843    -0.0541       99.3338            1.00E-12        -64.7219     -87.28009     99.87      1.06E+3                  2343.562      56246       34.7148   34.7174     7.63507            34         0.00  
1        2017-12-26    360.823841  2017-12-26T19:46:20Z    1317      1300.003    1.9501       1.9495         31.089253     31.090886       3.9978     3.8839    -0.0622       99.3578            1.00E-12        -64.7219     -87.28009     99.87      1.06E+3                  2344.832      56277       34.7149   34.7176     7.63515            28         0.00  
1        2017-12-26    360.823854  2017-12-26T19:46:21Z    1318      1300.984    1.9499       1.9494         31.089569     31.091232       3.9885     3.8838    -0.0685       99.3508            1.00E-12        -64.7219     -87.2801      99.86      1.06E+3                  2345.958      56304       34.715    34.7176     7.63518            26         0.00  
1        2017-12-26    360.823866  2017-12-26T19:46:22Z    1319      1301.97     1.9497       1.9492         31.089893     31.091457       3.9933     3.8824    -0.0684       99.3493            1.00E-12        -64.7219     -87.2801      99.87      1.06E+3                  2347.013      56329       34.7151   34.7176     7.63521            25         0.00  
1        2017-12-26    360.823877  2017-12-26T19:46:23Z    1320      1302.954    1.9494       1.9489         31.090022     31.091637       3.9956     3.8868    -0.0633       99.3329            1.00E-12        -64.7219     -87.2801      99.87      1.06E+3                  2348.004      56353       34.7151   34.7176     7.63528            23         0.00  
1        2017-12-26    360.823888  2017-12-26T19:46:24Z    1321      1303.938    1.9491       1.9486         31.090143     31.091931       3.9942     3.8856    -0.0582       99.34              1.00E-12        -64.7219     -87.2801      99.87      1.06E+3                  2348.956      56376       34.715    34.7177     7.63533            23         0.00  
1        2017-12-26    360.8239    2017-12-26T19:46:25Z    1322      1304.925    1.9489       1.9484         31.090488     31.092169       3.998      3.8771    -0.0682       99.3398            1.00E-12        -64.7219     -87.2801      99.87      1.06E+3                  2349.923      56399       34.7151   34.7177     7.63536            24         0.00  
1        2017-12-26    360.823912  2017-12-26T19:46:26Z    1323      1305.907    1.9484       1.9479         31.09035      31.092024       3.9977     3.8891    -0.0668       99.3365            1.00E-12        -64.7219     -87.2801      99.87      1.06E+3                  2350.985      56425       34.715    34.7176     7.63547            27         0.00  
1        2017-12-26    360.823926  2017-12-26T19:46:27Z    1324      1306.891    1.9471       1.9466         31.089945     31.091548       3.998      3.8862    -0.0542       99.3312            1.00E-12        -64.7219     -87.2801      99.87      1.06E+3                  2352.183      56453       34.7154   34.7178     7.6357             30         0.00  
1        2017-12-26    360.823941  2017-12-26T19:46:29Z    1325      1307.876    1.9455       1.945          31.088985     31.090621       3.9969     3.8872    -0.0546       99.3389            1.00E-12        -64.7219     -87.2801      99.87      1.06E+3                  2353.524      56486       34.7154   34.7179     7.63601            34         0.00  
1        2017-12-26    360.823958  2017-12-26T19:46:30Z    1326      1308.857    1.9453       1.9449         31.089254     31.090938       3.9938     3.8841    -0.0537       99.3508            1.00E-12        -64.7219     -87.2801      99.87      1.06E+3                  2354.958      56520       34.7154   34.7179     7.63604            34         0.00  
1        2017-12-26    360.823973  2017-12-26T19:46:31Z    1327      1309.84     1.9444       1.9439         31.08898      31.090579       3.9915     3.8884    -0.0537       99.3296            1.00E-12        -64.7219     -87.2801      99.87      1.06E+3                  2356.277      56552       34.7155   34.718      7.6362             29         0.00  
1        2017-12-26    360.823986  2017-12-26T19:46:32Z    1328      1310.826    1.9438       1.9435         31.08898      31.090639       3.9971     3.8892    -0.0537       99.3425            1.00E-12        -64.7219     -87.2801      99.87      1.06E+3                  2357.426      56579       34.7156   34.718      7.63632            27         0.00  
1        2017-12-26    360.824     2017-12-26T19:46:34Z    1329      1311.812    1.9426       1.9423         31.08852      31.090153       3.9984     3.8877    -0.0668       99.3438            1.00E-12        -64.7219     -87.28011     99.87      1.06E+3                  2358.563      56607       34.7158   34.7182     7.63653            29         0.00  
1        2017-12-26    360.824015  2017-12-26T19:46:35Z    1330      1312.797    1.9417       1.9412         31.08801      31.089626       4.0023     3.8924    -0.0538       99.3436            1.00E-12        -64.7219     -87.28012     99.87      1.06E+3                  2359.882      56638       34.7156   34.7182     7.63672            34         0.00  
1        2017-12-26    360.824031  2017-12-26T19:46:36Z    1331      1313.776    1.9403       1.9399         31.087266     31.088951       3.9991     3.8836    -0.0537       99.3636            1.00E-12        -64.7219     -87.28012     99.87      1.06E+3                  2361.319      56673       34.7157   34.7183     7.63698            33         0.00  
1        2017-12-26    360.824046  2017-12-26T19:46:38Z    1332      1314.761    1.9397       1.9393         31.087373     31.089005       3.9894     3.884     -0.0542       99.3457            1.00E-12        -64.7219     -87.28012     99.87      1.06E+3                  2362.591      56703       34.716    34.7184     7.63709            28         0.00  
1        2017-12-26    360.824059  2017-12-26T19:46:39Z    1333      1315.742    1.9398       1.9393         31.087799     31.089541       3.9984     3.8932    -0.0537       99.3559            1.00E-12        -64.7219     -87.28012     99.87      1.06E+3                  2363.686      56729       34.7159   34.7186     7.63707            25         0.00  
1        2017-12-26    360.82407   2017-12-26T19:46:40Z    1334      1316.73     1.9397       1.9394         31.088166     31.0899         3.9976     3.886     -0.0543       99.3447            1.00E-12        -64.7219     -87.28012     99.86      1.06E+3                  2364.663      56753       34.7159   34.7184     7.63709            23         0.00  
1        2017-12-26    360.824081  2017-12-26T19:46:41Z    1335      1317.713    1.9377       1.9373         31.086938     31.088637       3.9965     3.8938    -0.0603       99.3445            1.00E-12        -64.7219     -87.28012     99.87      1.06E+3                  2365.563      56775       34.716    34.7185     7.63747            20         0.00  
1        2017-12-26    360.824091  2017-12-26T19:46:41Z    1336      1318.698    1.9371       1.9366         31.086992     31.088597       4.0028     3.8934    -0.0692       99.3454            1.00E-12        -64.7219     -87.28012     99.87      1.06E+3                  2366.428      56795       34.7162   34.7187     7.63757            21         0.00  
1        2017-12-26    360.824101  2017-12-26T19:46:42Z    1337      1319.686    1.9374       1.9369         31.087601     31.089129       4.004      3.8899    -0.0684       99.3458            1.00E-12        -64.7219     -87.28012     99.86      1.06E+3                  2367.335      56817       34.7161   34.7186     7.63752            23         0.00  
1        2017-12-26    360.824115  2017-12-26T19:46:44Z    1338      1320.675    1.9362       1.9357         31.08697      31.088637       4.0017     3.8903    -0.0557       99.339             1.00E-12        -64.7219     -87.28013     99.86      1.06E+3                  2368.543      56846       34.7161   34.7187     7.63775            39         0.00  
1        2017-12-26    360.824142  2017-12-26T19:46:46Z    1339      1321.644    1.9352       1.9347         31.086614     31.088227       4.002      3.894     -0.0596       99.3514            1.00E-12        -64.7219     -87.28014     99.87      1.06E+3                  2370.851      56901       34.7162   34.7188     7.63794            57         0.00  
1        2017-12-26    360.82416   2017-12-26T19:46:47Z    1340      1322.631    1.9346       1.9342         31.08661      31.0883         4.0036     3.889     -0.0691       99.3513            1.00E-12        -64.7219     -87.28014     99.87      1.06E+3                  2372.459      56940       34.7163   34.7189     7.63804            29         0.00  
1        2017-12-26    360.824173  2017-12-26T19:46:49Z    1341      1323.611    1.9346       1.9342         31.087111     31.088768       4.0039     3.8827    -0.0594       99.361             1.00E-12        -64.7219     -87.28014     99.87      1.06E+3                  2373.51       56965       34.7164   34.719      7.63804            23         0.00  
1        2017-12-26    360.824183  2017-12-26T19:46:49Z    1342      1324.603    1.9346       1.9344         31.087484     31.089286       4.0042     3.8886    -0.0614       99.3543            1.00E-12        -64.7219     -87.28014     99.87      1.06E+3                  2374.424      56987       34.7164   34.7189     7.63805            21         0.00  
1        2017-12-26    360.824194  2017-12-26T19:46:50Z    1343      1325.588    1.9344       1.9341         31.087732     31.089512       4.0036     3.8959    -0.0586       99.351             1.00E-12        -64.7219     -87.28014     99.87      1.06E+3                  2375.322      57009       34.7164   34.7189     7.63809            22         0.00  
1        2017-12-26    360.824205  2017-12-26T19:46:51Z    1344      1326.576    1.9339       1.9334         31.087656     31.089358       4.0046     3.8937    -0.0538       99.3434            1.00E-12        -64.7219     -87.28014     99.87      1.06E+3                  2376.329      57033       34.7163   34.719      7.63818            28         0.00  
1        2017-12-26    360.824222  2017-12-26T19:46:53Z    1345      1327.555    1.933        1.9325         31.087252     31.088931       4.002      3.8878    -0.0537       99.3413            1.00E-12        -64.7219     -87.28014     99.87      1.06E+3                  2377.808      57068       34.7162   34.7189     7.63836            45         0.00  
1        2017-12-26    360.824244  2017-12-26T19:46:55Z    1346      1328.53     1.9322       1.9316         31.087069     31.088733       4.0047     3.8908    -0.0541       99.358             1.00E-12        -64.7219     -87.28014     99.87      1.06E+3                  2379.644      57112       34.7164   34.719      7.63851            36         0.00  
1        2017-12-26    360.824257  2017-12-26T19:46:56Z    1347      1329.515    1.9313       1.9307         31.086775     31.088463       3.9941     3.8866    -0.0599       99.3565            1.00E-12        -64.7219     -87.28014     99.87      1.06E+3                  2380.829      57141       34.7165   34.7192     7.63868            24         0.00  
1        2017-12-26    360.824268  2017-12-26T19:46:57Z    1348      1330.504    1.9298       1.9293         31.085926     31.087631       3.9982     3.8914    -0.0671       99.3581            1.00E-12        -64.7219     -87.28014     99.87      1.06E+3                  2381.758      57163       34.7166   34.7192     7.63897            21         0.00  
1        2017-12-26    360.824278  2017-12-26T19:46:58Z    1349      1331.488    1.9286       1.928          31.085508     31.087203       4.0026     3.8912    -0.0545       99.3259            1.00E-12        -64.7219     -87.28014     99.87      1.06E+3                  2382.601      57183       34.7168   34.7195     7.63918            20         0.00  
1        2017-12-26    360.824287  2017-12-26T19:46:58Z    1350      1332.473    1.9279       1.9274         31.085477     31.087182       4.0024     3.8929    -0.0544       99.3364            1.00E-12        -64.7219     -87.28014     99.87      1.06E+3                  2383.43       57203       34.7169   34.7196     7.6393             20         0.00  
1        2017-12-26    360.824297  2017-12-26T19:46:59Z    1351      1333.46     1.9275       1.927          31.08544      31.087201       4.0055     3.8887    -0.0537       99.3329            1.00E-12        -64.7219     -87.28014     99.87      1.06E+3                  2384.296      57224       34.7168   34.7195     7.63939            22         0.00  
1        2017-12-26    360.824309  2017-12-26T19:47:00Z    1352      1334.446    1.927        1.9264         31.085475     31.08715        4.0133     3.8967    -0.0537       99.3304            1.00E-12        -64.7219     -87.28014     99.87      1.06E+3                  2385.322      57249       34.7169   34.7196     7.63948            26         0.00  
1        2017-12-26    360.824344  2017-12-26T19:47:03Z    1353      1335.421    1.9274       1.927          31.086155     31.087851       4.0075     3.895     -0.0545       99.3309            1.00E-12        -64.7219     -87.28016     99.87      1.06E+3                  2388.3        57320       34.7168   34.7193     7.63941            38         0.00  
1        2017-12-26    360.824366  2017-12-26T19:47:05Z    1354      1336.399    1.9268       1.9263         31.086353     31.087901       4.0035     3.8898    -0.068        99.3366            1.00E-12        -64.7219     -87.28016     99.87      1.06E+3                  2390.206      57366       34.7172   34.7196     7.63951            23         0.00  
1        2017-12-26    360.824375  2017-12-26T19:47:06Z    1355      1337.388    1.9265       1.926          31.086557     31.088112       4.0054     3.891     -0.0586       99.2831            1.00E-12        -64.7219     -87.28014     99.86      1.06E+3                  2391.02       57385       34.7172   34.7196     7.63957            18         0.00  
1        2017-12-26    360.824384  2017-12-26T19:47:07Z    1356      1338.373    1.9259       1.9255         31.086531     31.088239       4.0062     3.8936    -0.0536       99.318             1.00E-12        -64.7219     -87.28014     99.86      1.06E+3                  2391.741      57403       34.7173   34.7199     7.63967            16         0.00  
1        2017-12-26    360.824391  2017-12-26T19:47:07Z    1357      1339.359    1.9255       1.9251         31.086598     31.088238       4.006      3.9001    -0.0537       99.3366            1.00E-12        -64.7219     -87.28014     99.87      1.06E+3                  2392.419      57419       34.7173   34.7198     7.63975            17         0.00  
1        2017-12-26    360.8244    2017-12-26T19:47:08Z    1358      1340.352    1.9247       1.9242         31.086273     31.087874       4.0065     3.8991    -0.0537       99.3365            1.00E-12        -64.7219     -87.28014     99.87      1.06E+3                  2393.142      57436       34.7173   34.7198     7.63991            19         0.00  
1        2017-12-26    360.824411  2017-12-26T19:47:09Z    1359      1341.34     1.923        1.9223         31.085161     31.086779       4.0078     3.8945    -0.0537       99.3365            1.00E-12        -64.7219     -87.28014     99.87      1.06E+3                  2394.127      57460       34.7172   34.7199     7.64024            31         0.00  
1        2017-12-26    360.824438  2017-12-26T19:47:11Z    1360      1342.307    1.9223       1.9225         31.08487      31.08713        4.0044     3.8954    -0.0634       99.3404            1.00E-12        -64.7219     -87.28016     99.86      1.06E+3                  2396.403      57515       34.7171   34.7196     7.64038            45         0.00  
1        2017-12-26    360.824457  2017-12-26T19:47:13Z    1361      1343.287    1.9206       1.9201         31.084126     31.085857       4.003      3.8957    -0.0535       99.3263            1.00E-12        -64.7219     -87.28016     99.87      1.06E+3                  2398.118      57556       34.7174   34.7201     7.64068            27         0.00  
1        2017-12-26    360.824469  2017-12-26T19:47:14Z    1362      1344.274    1.9194       1.9188         31.083457     31.085178       4.0044     3.8994    -0.0544       99.3377            1.00E-12        -64.7219     -87.28016     99.87      1.06E+3                  2399.08       57579       34.7173   34.7202     7.64091            21         0.00  
1        2017-12-26    360.824478  2017-12-26T19:47:15Z    1363      1345.259    1.9183       1.9177         31.083007     31.084665       4.0116     3.8973    -0.0537       99.3335            1.00E-12        -64.7219     -87.28016     99.87      1.06E+3                  2399.902      57599       34.7175   34.7202     7.64112            18         0.00  
1        2017-12-26    360.824487  2017-12-26T19:47:16Z    1364      1346.249    1.9182       1.9176         31.083467     31.085076       4.015      3.8993    -0.0537       99.3421            1.00E-12        -64.7219     -87.28016     99.87      1.06E+3                  2400.666      57617       34.7177   34.7203     7.64113            19         0.00  
1        2017-12-26    360.824496  2017-12-26T19:47:16Z    1365      1347.235    1.9178       1.9172         31.08344      31.085195       4.0148     3.9002    -0.0537       99.3366            1.00E-12        -64.7219     -87.28016     99.87      1.06E+3                  2401.468      57636       34.7176   34.7203     7.64122            20         0.00  
1        2017-12-26    360.824508  2017-12-26T19:47:17Z    1366      1348.223    1.9172       1.9166         31.083367     31.085059       4.0179     3.8992    -0.0585       99.3307            1.00E-12        -64.7219     -87.28016     99.87      1.06E+3                  2402.518      57661       34.7175   34.7203     7.64133            34         0.00  
1        2017-12-26    360.824543  2017-12-26T19:47:21Z    1367      1349.193    1.9176       1.917          31.084037     31.085721       4.0083     3.9023    -0.0602       99.3418            1.00E-12        -64.7219     -87.28016     99.87      1.06E+3                  2405.525      57734       34.7174   34.7202     7.64126            36         0.00  
1        2017-12-26    360.824563  2017-12-26T19:47:22Z    1368      1350.175    1.9164       1.9158         31.083583     31.085273       4.0057     3.8996    -0.0626       99.3187            1.00E-12        -64.7219     -87.28016     99.87      1.06E+3                  2407.211      57774       34.7176   34.7204     7.64147            25         0.00  
1        2017-12-26    360.824573  2017-12-26T19:47:23Z    1369      1351.159    1.9156       1.9151         31.083409     31.085096       4.0105     3.8995    -0.0536       99.361             1.00E-12        -64.7219     -87.28016     99.87      1.06E+3                  2408.133      57796       34.7177   34.7204     7.64162            21         0.00  
1        2017-12-26    360.824582  2017-12-26T19:47:24Z    1370      1352.144    1.9154       1.9148         31.083662     31.085296       4.0091     3.8972    -0.0537       99.3569            1.00E-12        -64.7219     -87.28016     99.87      1.06E+3                  2408.914      57815       34.7178   34.7204     7.64166            17         0.00  
1        2017-12-26    360.824591  2017-12-26T19:47:25Z    1371      1353.133    1.9148       1.9144         31.083637     31.085268       4.0095     3.8968    -0.0649       99.3334            1.00E-12        -64.7219     -87.28016     99.87      1.06E+3                  2409.623      57832       34.7178   34.7203     7.64177            17         0.00  
1        2017-12-26    360.824598  2017-12-26T19:47:25Z    1372      1354.12     1.914        1.9136         31.083392     31.085053       4.0093     3.9013    -0.0666       99.3514            1.00E-12        -64.7219     -87.28016     99.87      1.06E+3                  2410.31       57848       34.7179   34.7204     7.64192            16         0.00  
1        2017-12-26    360.824607  2017-12-26T19:47:26Z    1373      1355.107    1.9127       1.9122         31.082725     31.084374       4.0139     3.9062    -0.0538       99.3367            1.00E-12        -64.7219     -87.28016     99.86      1.06E+3                  2411.054      57866       34.7179   34.7205     7.64216            20         0.00  
1        2017-12-26    360.824623  2017-12-26T19:47:27Z    1374      1356.093    1.9122       1.9117         31.08266      31.084323       4.0144     3.9049    -0.0541       99.3451            1.00E-12        -64.7219     -87.28016     99.87      1.06E+3                  2412.46       57900       34.7179   34.7205     7.64227            35         0.00  
1        2017-12-26    360.824662  2017-12-26T19:47:31Z    1375      1357.054    1.9127       1.9119         31.08351      31.084869       4.0123     3.9034    -0.0537       99.3434            1.00E-12        -64.7219     -87.28016     99.87      1.06E+3                  2415.816      57981       34.7179   34.7204     7.64218            30         0.00  
1        2017-12-26    360.824671  2017-12-26T19:47:32Z    1376      1358.043    1.9109       1.9104         31.082495     31.084191       4.0152     -3.9036   9.99E-29      99.3379            1.00E-12        -64.7219     -87.28016     99.87      1.06E+3                  2416.583      57999       34.7181   34.7207     7.64252            20         0.00  
1        2017-12-26    360.82468   2017-12-26T19:47:32Z    1377      1359.031    1.9107       1.9103         31.082855     31.084527       4.0172     3.8989    -0.0537       99.3365            1.00E-12        -64.7219     -87.28016     99.87      1.06E+3                  2417.327      58017       34.7181   34.7207     7.64254            17         0.00  
1        2017-12-26    360.824688  2017-12-26T19:47:33Z    1378      1360.021    1.9101       1.9096         31.082798     31.084357       4.0175     3.9004    -0.0537       99.3365            1.00E-12        -64.7219     -87.28016     99.87      1.06E+3                  2418.011      58033       34.7183   34.7207     7.64266            16         0.00  
1        2017-12-26    360.824696  2017-12-26T19:47:34Z    1379      1361.01     1.9095       1.909          31.082712     31.084292       4.0168     3.9033    -0.0537       99.3365            1.00E-12        -64.7219     -87.28016     99.87      1.06E+3                  2418.716      58050       34.7182   34.7207     7.64276            18         0.00  
1        2017-12-26    360.824707  2017-12-26T19:47:35Z    1380      1361.999    1.9089       1.9084         31.082641     31.084307       4.0167     3.9132    -0.0537       99.3365            1.00E-12        -64.7219     -87.28017     99.87      1.06E+3                  2419.709      58074       34.7183   34.7209     7.64289            33         0.00  
1        2017-12-26    360.824741  2017-12-26T19:47:38Z    1381      1362.96     1.9094       1.9089         31.083335     31.085003       4.0067     3.9056    -0.0537       99.3478            1.00E-12        -64.7219     -87.28018     99.87      1.06E+3                  2422.598      58143       34.7181   34.7207     7.6428             32         0.00  
1        2017-12-26    360.824755  2017-12-26T19:47:39Z    1382      1363.95     1.9082       1.9076         31.082758     31.084456       4.0139     3.9003    -0.0537       99.341             1.00E-12        -64.7219     -87.28018     99.87      1.06E+3                  2423.862      58174       34.7182   34.721      7.64303            23         0.00  
1        2017-12-26    360.824766  2017-12-26T19:47:40Z    1383      1364.935    1.9078       1.9071         31.082974     31.084558       4.0143     3.9126    -0.0583       99.3467            1.00E-12        -64.7219     -87.28018     99.87      1.06E+3                  2424.761      58195       34.7183   34.721      7.6431             21         0.00  
1        2017-12-26    360.824776  2017-12-26T19:47:41Z    1384      1365.924    1.9071       1.9064         31.08271      31.084318       4.0165     3.908     -0.0684       99.3441            1.00E-12        -64.7219     -87.28018     99.86      1.06E+3                  2425.622      58216       34.7183   34.721      7.64323            21         0.00  
1        2017-12-26    360.824786  2017-12-26T19:47:42Z    1385      1366.906    1.9058       1.9051         31.082187     31.083762       4.0132     3.8942    -0.0684       99.3377            1.00E-12        -64.7219     -87.28018     99.87      1.06E+3                  2426.522      58238       34.7185   34.7212     7.64347            22         0.00  
1        2017-12-26    360.824797  2017-12-26T19:47:42Z    1386      1367.89     1.9045       1.9038         31.081499     31.083078       4.0173     3.9044    -0.0538       99.3556            1.00E-12        -64.7219     -87.28018     99.87      1.06E+3                  2427.493      58261       34.7185   34.7212     7.64372            25         0.00  
1        2017-12-26    360.82481   2017-12-26T19:47:44Z    1387      1368.873    1.904        1.9033         31.08145      31.083056       4.0166     3.9099    -0.0537       99.355             1.00E-12        -64.7219     -87.28018     98.62      1.06E+3                  2428.544      58286       34.7185   34.7212     7.64382            26         0.00  
1        2017-12-26    360.824823  2017-12-26T19:47:45Z    1388      1369.86     1.9032       1.9026         31.081313     31.082984       4.0187     3.9048    -0.0537       99.3495            1.00E-12        -64.7219     -87.28018     75.15      1.06E+3                  2429.741      58315       34.7187   34.7213     7.64397            31         0.00  
1        2017-12-26    360.824839  2017-12-26T19:47:46Z    1389      1370.837    1.9028       1.9022         31.081486     31.083123       4.0191     3.9015    -0.0585       99.3627            1.00E-12        -64.7219     -87.28018     100.34     1.06E+3                  2431.13       58348       34.7187   34.7214     7.64403            34         0.00  
1        2017-12-26    360.824855  2017-12-26T19:47:47Z    1390      1371.822    1.9024       1.9017         31.081515     31.083116       4.0202     3.9055    -0.0619       99.3482            1.00E-12        -64.7219     -87.28018     99.87      1.06E+3                  2432.444      58380       34.7187   34.7215     7.64411            29         0.00  
1        2017-12-26    360.824868  2017-12-26T19:47:49Z    1391      1372.807    1.9013       1.9006         31.081072     31.082778       4.0219     3.9074    -0.063        99.3374            1.00E-12        -64.7219     -87.28018     99.87      1.06E+3                  2433.593      58407       34.7189   34.7216     7.64432            27         0.00  
1        2017-12-26    360.824882  2017-12-26T19:47:50Z    1392      1373.792    1.9004       1.8998         31.080866     31.082447       4.0207     3.9105    -0.0683       99.3447            1.00E-12        -64.7219     -87.28018     99.86      1.06E+3                  2434.788      58436       34.719    34.7216     7.64448            32         0.00  
1        2017-12-26    360.824898  2017-12-26T19:47:51Z    1393      1374.773    1.8995       1.8991         31.080492     31.082192       4.0227     3.9109    -0.0567       99.3255            1.00E-12        -64.7219     -87.2802      99.87      1.06E+3                  2436.19       58470       34.719    34.7216     7.64465            34         0.00  
1        2017-12-26    360.824914  2017-12-26T19:47:53Z    1394      1375.754    1.8992       1.8985         31.080596     31.082305       4.02       3.9069    -0.0536       99.3539            1.00E-12        -64.7219     -87.2802      99.87      1.06E+3                  2437.545      58502       34.719    34.7218     7.64472            30         0.00  
1        2017-12-26    360.824927  2017-12-26T19:47:54Z    1395      1376.739    1.8986       1.8979         31.080523     31.082153       4.022      3.911     -0.0572       99.3611            1.00E-12        -64.7219     -87.2802      99.87      1.06E+3                  2438.668      58529       34.719    34.7218     7.64483            25         0.00  
1        2017-12-26    360.824939  2017-12-26T19:47:55Z    1396      1377.727    1.8972       1.8966         31.079817     31.08147        4.0206     3.9071    -0.0672       99.36              1.00E-12        -64.7219     -87.2802      99.86      1.06E+3                  2439.707      58554       34.7191   34.7219     7.64509            25         0.00  
1        2017-12-26    360.824951  2017-12-26T19:47:56Z    1397      1378.709    1.8965       1.8959         31.079713     31.081381       4.0237     3.9103    -0.0536       99.3518            1.00E-12        -64.7219     -87.2802      99.87      1.06E+3                  2440.779      58580       34.7192   34.722      7.64521            26         0.00  
1        2017-12-26    360.824964  2017-12-26T19:47:57Z    1398      1379.691    1.8963       1.8955         31.079815     31.081487       4.0222     3.9088    -0.0548       99.3384            1.00E-12        -64.7219     -87.2802      99.87      1.06E+3                  2441.885      58606       34.7191   34.722      7.64527            27         0.00  
1        2017-12-26    360.824977  2017-12-26T19:47:58Z    1399      1380.677    1.8961       1.8954         31.080199     31.081819       4.0245     3.9131    -0.056        99.3561            1.00E-12        -64.7219     -87.28019     99.87      1.06E+3                  2442.983      58633       34.7192   34.722      7.6453             26         0.00  
1        2017-12-26    360.824989  2017-12-26T19:47:59Z    1400      1381.657    1.8955       1.8949         31.080072     31.081759       4.0223     3.9154    -0.0686       99.316             1.00E-12        -64.7219     -87.2802      99.87      1.06E+3                  2444.034      58658       34.7192   34.7219     7.64542            24         0.00  
1        2017-12-26    360.825     2017-12-26T19:48:00Z    1401      1382.644    1.8946       1.894          31.079852     31.081486       4.0239     3.911     -0.0543       99.3365            1.00E-12        -64.7219     -87.2802      99.86      1.06E+3                  2445.022      58682       34.7193   34.7221     7.64557            24         0.00  
1        2017-12-26    360.825012  2017-12-26T19:48:01Z    1402      1383.63     1.8935       1.8928         31.079327     31.080984       4.029      3.9106    -0.0676       99.3464            1.00E-12        -64.7219     -87.2802      99.87      1.06E+3                  2446.006      58705       34.7194   34.7222     7.64579            24         0.00  
1        2017-12-26    360.825026  2017-12-26T19:48:02Z    1403      1384.617    1.8925       1.8921         31.07889      31.080657       4.0281     3.9154    -0.0662       99.3483            1.00E-12        -64.7219     -87.2802      99.87      1.06E+3                  2447.227      58734       34.7194   34.7221     7.64599            38         0.00  
1        2017-12-26    360.825051  2017-12-26T19:48:04Z    1404      1385.588    1.8912       1.891          31.078296     31.080122       4.0274     3.9071    -0.0551       99.3475            1.00E-12        -64.7219     -87.2802      99.87      1.06E+3                  2449.421      58787       34.7195   34.7221     7.64622            53         0.00  
1        2017-12-26    360.825068  2017-12-26T19:48:06Z    1405      1386.573    1.891        1.8904         31.07847      31.080149       4.0231     3.9095    -0.0655       99.3431            1.00E-12        -64.7219     -87.2802      99.87      1.06E+3                  2450.849      58821       34.7194   34.7222     7.64627            24         0.00  
1        2017-12-26    360.825078  2017-12-26T19:48:07Z    1406      1387.555    1.8907       1.8901         31.078762     31.08038        4.0199     3.9129    -0.0536       99.3605            1.00E-12        -64.7219     -87.2802      99.87      1.06E+3                  2451.713      58842       34.7196   34.7223     7.64632            19         0.00  
1        2017-12-26    360.825087  2017-12-26T19:48:08Z    1407      1388.549    1.8908       1.8902         31.079276     31.080948       4.0191     3.9102    -0.0537       99.3632            1.00E-12        -64.7219     -87.2802      99.87      1.06E+3                  2452.496      58861       34.7197   34.7223     7.6463             19         0.00  
1        2017-12-26    360.825096  2017-12-26T19:48:08Z    1408      1389.534    1.8908       1.8901         31.079608     31.081178       4.0295     3.9116    -0.0544       99.3561            1.00E-12        -64.7219     -87.2802      99.86      1.06E+3                  2453.335      58881       34.7195   34.7222     7.6463             22         0.00  
1        2017-12-26    360.825113  2017-12-26T19:48:10Z    1409      1390.519    1.8902       1.8897         31.079565     31.081276       4.0305     3.912     -0.0545       99.3276            1.00E-12        -64.7219     -87.2802      99.87      1.06E+3                  2454.784      58916       34.7195   34.7223     7.64641            38         0.00  
1        2017-12-26    360.825142  2017-12-26T19:48:12Z    1410      1391.484    1.8898       1.8893         31.079616     31.081249       4.0206     3.9095    -0.0674       99.3577            1.00E-12        -64.7219     -87.2802      99.87      1.06E+3                  2457.267      58975       34.7196   34.7222     7.6465             32         0.00  
1        2017-12-26    360.825152  2017-12-26T19:48:13Z    1411      1392.474    1.889        1.8884         31.079516     31.081117       4.0241     3.914     -0.0544       99.3462            1.00E-12        -64.7219     -87.2802      99.86      1.06E+3                  2458.177      58997       34.7198   34.7224     7.64664            19         0.00  
1        2017-12-26    360.825161  2017-12-26T19:48:14Z    1412      1393.458    1.8886       1.8881         31.079639     31.081263       4.0275     3.9156    -0.0537       99.3469            1.00E-12        -64.7219     -87.2802      99.87      1.06E+3                  2458.944      59016       34.7198   34.7224     7.6467             18         0.00  
1        2017-12-26    360.82517   2017-12-26T19:48:15Z    1413      1394.448    1.8879       1.8873         31.079449     31.081023       4.0288     3.913     -0.0579       99.3336            1.00E-12        -64.7219     -87.2802      99.87      1.06E+3                  2459.654      59033       34.7199   34.7224     7.64685            17         0.00  
1        2017-12-26    360.825178  2017-12-26T19:48:15Z    1414      1395.435    1.8863       1.8859         31.078605     31.080339       4.0248     3.9102    -0.0681       99.3278            1.00E-12        -64.7219     -87.2802      99.87      1.06E+3                  2460.373      59050       34.72     34.7226     7.64714            18         0.00  
1        2017-12-26    360.825188  2017-12-26T19:48:16Z    1415      1396.426    1.8859       1.8853         31.078619     31.080335       4.0265     3.9164    -0.0573       99.3398            1.00E-12        -64.7219     -87.28022     99.87      1.06E+3                  2461.256      59071       34.72     34.7227     7.64723            26         0.00  
1        2017-12-26    360.825216  2017-12-26T19:48:19Z    1416      1397.395    1.8863       1.8857         31.079372     31.080905       4.0324     3.9167    -0.057        99.3465            1.00E-12        -64.7219     -87.28022     99.86      1.06E+3                  2463.622      59128       34.7199   34.7224     7.64715            40         0.00  
1        2017-12-26    360.825238  2017-12-26T19:48:21Z    1417      1398.373    1.8853       1.8848         31.078955     31.080608       4.0316     3.9103    -0.0548       99.3505            1.00E-12        -64.7219     -87.28022     99.87      1.06E+3                  2465.554      59174       34.72     34.7226     7.64735            25         0.00  
1        2017-12-26    360.825249  2017-12-26T19:48:22Z    1418      1399.361    1.8838       1.8833         31.078278     31.079893       4.0303     3.9186    -0.0537       99.3462            1.00E-12        -64.7219     -87.28022     99.87      1.06E+3                  2466.482      59197       34.7202   34.7228     7.64761            22         0.00  
1        2017-12-26    360.825259  2017-12-26T19:48:22Z    1419      1400.35     1.8834       1.8829         31.078388     31.080116       4.0317     3.9202    -0.0537       99.3442            1.00E-12        -64.7219     -87.28022     99.87      1.06E+3                  2467.356      59218       34.7202   34.7229     7.64768            21         0.00  
1        2017-12-26    360.825269  2017-12-26T19:48:23Z    1420      1401.333    1.8835       1.8829         31.078814     31.080495       4.0335     3.9222    -0.0537       99.3568            1.00E-12        -64.7219     -87.28022     99.87      1.06E+3                  2468.249      59239       34.7202   34.7229     7.64768            22         0.00  
1        2017-12-26    360.825281  2017-12-26T19:48:24Z    1421      1402.319    1.8831       1.8824         31.078912     31.080463       4.0295     3.916     -0.0537       99.35              1.00E-12        -64.7219     -87.28022     99.87      1.06E+3                  2469.256      59263       34.7202   34.7229     7.64775            26         0.00  
1        2017-12-26    360.825296  2017-12-26T19:48:26Z    1422      1403.301    1.8824       1.8818         31.078799     31.080378       4.0328     3.915     -0.0537       99.3381            1.00E-12        -64.7219     -87.28022     99.87      1.06E+3                  2470.549      59294       34.7203   34.7229     7.64788            36         0.00  
1        2017-12-26    360.825313  2017-12-26T19:48:27Z    1423      1404.278    1.8819       1.8814         31.078752     31.08046        4.0193     3.9144    -0.0555       99.3273            1.00E-12        -64.7219     -87.28022     99.87      1.06E+3                  2472.04       59330       34.7202   34.7229     7.64797            33         0.00  
1        2017-12-26    360.825326  2017-12-26T19:48:28Z    1424      1405.259    1.8811       1.8804         31.078549     31.080203       4.0262     3.9162    -0.0647       99.3508            1.00E-12        -64.7219     -87.28022     99.87      1.06E+3                  2473.186      59357       34.7203   34.7231     7.64813            23         0.00  
1        2017-12-26    360.825337  2017-12-26T19:48:29Z    1425      1406.248    1.8806       1.88           31.078693     31.080212       4.0329     3.9104    -0.0628       99.3518            1.00E-12        -64.7219     -87.28022     99.87      1.06E+3                  2474.097      59379       34.7206   34.723      7.64822            21         0.00  
1        2017-12-26    360.825347  2017-12-26T19:48:30Z    1426      1407.234    1.8802       1.8795         31.078721     31.080222       4.0379     3.914     -0.058        99.3555            1.00E-12        -64.7219     -87.28022     99.87      1.06E+3                  2474.949      59400       34.7205   34.7231     7.64829            21         0.00  
1        2017-12-26    360.825357  2017-12-26T19:48:31Z    1427      1408.22     1.8782       1.8776         31.077282     31.079064       4.0326     3.9255    -0.0664       99.3609            1.00E-12        -64.7219     -87.28022     99.87      1.06E+3                  2475.876      59422       34.7203   34.7232     7.64869            24         0.00  
1        2017-12-26    360.825374  2017-12-26T19:48:32Z    1428      1409.207    1.8775       1.8772         31.077099     31.078991       4.0296     3.9219    -0.0556       99.3465            1.00E-12        -64.7219     -87.28024     99.86      1.06E+3                  2477.27       59455       34.7204   34.723      7.64882            43         0.00  
1        2017-12-26    360.825402  2017-12-26T19:48:35Z    1429      1410.174    1.8743       1.8746         31.074707     31.076951       4.0358     3.9156    -0.0697       99.3449            1.00E-12        -64.7219     -87.28022     99.87      1.06E+3                  2479.761      59515       34.7203   34.7228     7.64944            41         0.00  
1        2017-12-26    360.825416  2017-12-26T19:48:36Z    1430      1411.161    1.8714       1.8708         31.072924     31.074531       4.0343     3.9181    -0.0684       99.3364            1.00E-12        -64.7219     -87.28022     99.86      1.06E+3                  2480.937      59543       34.7207   34.7234     7.64997            25         0.00  
1        2017-12-26    360.825427  2017-12-26T19:48:37Z    1431      1412.15     1.8695       1.8689         31.071658     31.073387       4.0321     3.9137    -0.0684       99.3558            1.00E-12        -64.7219     -87.28022     99.87      1.06E+3                  2481.891      59566       34.7207   34.7235     7.65034            22         0.00  
1        2017-12-26    360.825438  2017-12-26T19:48:38Z    1432      1413.133    1.868        1.8674         31.07086      31.072432       4.0332     3.9151    -0.0684       99.3535            1.00E-12        -64.7219     -87.28022     99.87      1.06E+3                  2482.808      59588       34.7208   34.7234     7.65062            22         0.00  
1        2017-12-26    360.825449  2017-12-26T19:48:39Z    1433      1414.122    1.8669       1.8663         31.070237     31.071992       4.0307     3.9233    -0.0695       99.359             1.00E-12        -64.7219     -87.28022     99.87      1.06E+3                  2483.802      59612       34.7207   34.7235     7.65085            26         0.00  
1        2017-12-26    360.825462  2017-12-26T19:48:40Z    1434      1415.098    1.8653       1.8647         31.06937      31.070956       4.0346     3.9109    -0.0689       99.3216            1.00E-12        -64.7219     -87.28022     99.86      1.06E+3                  2484.927      59639       34.7209   34.7234     7.65115            28         0.00  
1        2017-12-26    360.825475  2017-12-26T19:48:41Z    1435      1416.082    1.8641       1.8635         31.068747     31.070418       4.0289     3.9169    -0.0627       99.3439            1.00E-12        -64.7219     -87.28022     99.87      1.06E+3                  2486.074      59667       34.7208   34.7236     7.65137            26         0.00  
1        2017-12-26    360.825487  2017-12-26T19:48:42Z    1436      1417.063    1.864        1.8633         31.069191     31.070752       4.03       3.9182    -0.0594       99.3528            1.00E-12        -64.7219     -87.28022     99.87      1.06E+3                  2487.089      59691       34.721    34.7237     7.65139            23         0.00  
1        2017-12-26    360.825497  2017-12-26T19:48:43Z    1437      1418.051    1.8635       1.8629         31.069209     31.070768       4.038      3.9207    -0.0684       99.3459            1.00E-12        -64.7219     -87.28022     99.87      1.06E+3                  2487.977      59712       34.7211   34.7236     7.65149            20         0.00  
1        2017-12-26    360.825507  2017-12-26T19:48:44Z    1438      1419.038    1.8622       1.8615         31.06844      31.070158       4.047      3.9274    -0.0691       99.3426            1.00E-12        -64.7219     -87.28023     99.87      1.06E+3                  2488.842      59733       34.721    34.7238     7.65174            22         0.00  
1        2017-12-26    360.82552   2017-12-26T19:48:45Z    1439      1420.028    1.8615       1.861          31.068342     31.070114       4.0421     3.9225    -0.0595       99.3479            1.00E-12        -64.7219     -87.28024     99.87      1.06E+3                  2489.963      59760       34.7211   34.7237     7.65186            36         0.00  
1        2017-12-26    360.825554  2017-12-26T19:48:48Z    1440      1420.99     1.8616       1.8616         31.068864     31.070863       4.0403     3.9208    -0.0539       99.3498            1.00E-12        -64.7219     -87.28024     99.86      1.06E+3                  2492.878      59830       34.7211   34.7236     7.65185            30         0.00  
1        2017-12-26    360.825568  2017-12-26T19:48:49Z    1441      1421.979    1.8611       1.8606         31.068908     31.070568       4.0356     3.9233    -0.0537       99.3445            1.00E-12        -64.7219     -87.28024     99.87      1.06E+3                  2494.101      59859       34.7212   34.7238     7.65194            23         0.00  
1        2017-12-26    360.825579  2017-12-26T19:48:50Z    1442      1422.968    1.8609       1.8604         31.069351     31.070932       4.0353     3.9278    -0.0537       99.3432            1.00E-12        -64.7219     -87.28024     99.87      1.06E+3                  2494.981      59881       34.7214   34.7239     7.65196            20         0.00  
1        2017-12-26    360.825589  2017-12-26T19:48:51Z    1443      1423.956    1.8606       1.8601         31.069516     31.071043       4.0375     3.9218    -0.0604       99.3523            1.00E-12        -64.7219     -87.28023     99.86      1.06E+3                  2495.86       59902       34.7213   34.7238     7.65201            22         0.00  
1        2017-12-26    360.8256    2017-12-26T19:48:52Z    1444      1424.937    1.8597       1.8592         31.069011     31.070648       4.0344     3.9212    -0.064        99.3503            1.00E-12        -64.7219     -87.28022     99.87      1.06E+3                  2496.873      59926       34.7213   34.7238     7.65221            27         0.00  
1        2017-12-26    360.825615  2017-12-26T19:48:53Z    1445      1425.919    1.8588       1.8584         31.068804     31.070415       4.038      3.9241    -0.0545       99.3581            1.00E-12        -64.7219     -87.28022     99.86      1.06E+3                  2498.099      59955       34.7214   34.7239     7.65237            31         0.00  
1        2017-12-26    360.825628  2017-12-26T19:48:54Z    1446      1426.898    1.8581       1.8576         31.068649     31.070279       4.0398     3.9261    -0.0537       99.3349            1.00E-12        -64.7219     -87.28024     99.86      1.06E+3                  2499.299      59984       34.7215   34.724      7.6525             26         0.00  
1        2017-12-26    360.82564   2017-12-26T19:48:55Z    1447      1427.881    1.8575       1.857          31.068504     31.070166       4.0376     3.9276    -0.0605       99.3378            1.00E-12        -64.7219     -87.28024     99.87      1.06E+3                  2500.294      60008       34.7215   34.724      7.65262            22         0.00  
1        2017-12-26    360.82565   2017-12-26T19:48:56Z    1448      1428.866    1.8565       1.856          31.068069     31.06973        4.0417     3.9243    -0.0685       99.3402            1.00E-12        -64.7219     -87.28024     99.86      1.06E+3                  2501.199      60030       34.7214   34.724      7.6528             22         0.00  
1        2017-12-26    360.825661  2017-12-26T19:48:57Z    1449      1429.858    1.8545       1.854          31.066812     31.068547       4.0405     3.9273    -0.0678       99.3134            1.00E-12        -64.7219     -87.28024     99.86      1.06E+3                  2502.136      60052       34.7215   34.7242     7.65319            24         0.00  
1        2017-12-26    360.825674  2017-12-26T19:48:58Z    1450      1430.841    1.8536       1.8532         31.066539     31.068166       4.0411     3.9273    -0.0541       99.3547            1.00E-12        -64.7219     -87.28024     99.87      1.06E+3                  2503.22       60078       34.7217   34.7241     7.65336            29         0.00  
1        2017-12-26    360.825691  2017-12-26T19:49:00Z    1451      1431.821    1.8534       1.853          31.066781     31.068394       4.0404     3.9256    -0.0547       99.3391            1.00E-12        -64.7219     -87.28024     99.87      1.06E+3                  2504.687      60113       34.7216   34.7241     7.65339            43         0.00  
1        2017-12-26    360.825713  2017-12-26T19:49:02Z    1452      1432.799    1.853        1.8526         31.066772     31.06842        4.0395     3.9286    -0.0585       99.3452            1.00E-12        -64.7219     -87.28024     99.86      1.06E+3                  2506.612      60160       34.7215   34.724      7.65347            44         0.00  
1        2017-12-26    360.825731  2017-12-26T19:49:03Z    1453      1433.783    1.8525       1.8519         31.066806     31.068398       4.0395     3.9276    -0.0696       99.3244            1.00E-12        -64.7219     -87.28024     99.87      1.06E+3                  2508.141      60196       34.7217   34.7242     7.65358            30         0.00  
1        2017-12-26    360.825744  2017-12-26T19:49:04Z    1454      1434.764    1.8524       1.8519         31.067268     31.068839       4.0347     3.9246    -0.0594       99.3422            1.00E-12        -64.7219     -87.28024     99.86      1.06E+3                  2509.273      60224       34.7217   34.7242     7.65358            25         0.00  
1        2017-12-26    360.825755  2017-12-26T19:49:05Z    1455      1435.753    1.8523       1.8519         31.067662     31.069283       4.0376     3.9245    -0.0556       99.3423            1.00E-12        -64.7219     -87.28024     99.87      1.06E+3                  2510.25       60247       34.7218   34.7243     7.65359            23         0.00  
1        2017-12-26    360.825766  2017-12-26T19:49:06Z    1456      1436.735    1.8519       1.8514         31.067686     31.069375       4.0386     3.9297    -0.055        99.3523            1.00E-12        -64.7219     -87.28024     99.87      1.06E+3                  2511.191      60270       34.7218   34.7244     7.65367            22         0.00  
1        2017-12-26    360.825777  2017-12-26T19:49:07Z    1457      1437.722    1.8514       1.8509         31.067617     31.069247       4.04       3.9298    -0.0549       99.3499            1.00E-12        -64.7219     -87.28024     99.87      1.06E+3                  2512.141      60292       34.7218   34.7243     7.65378            24         0.00  
1        2017-12-26    360.825789  2017-12-26T19:49:08Z    1458      1438.704    1.8509       1.8503         31.067522     31.069196       4.0417     3.9305    -0.0576       99.3549            1.00E-12        -64.7219     -87.28024     99.87      1.06E+3                  2513.167      60317       34.7216   34.7243     7.65388            26         0.00  
1        2017-12-26    360.825802  2017-12-26T19:49:09Z    1459      1439.684    1.8502       1.8498         31.067492     31.069153       4.0426     3.9271    -0.0653       99.3183            1.00E-12        -64.7219     -87.28024     99.87      1.06E+3                  2514.315      60345       34.7218   34.7243     7.654              28         0.00  
1        2017-12-26    360.825816  2017-12-26T19:49:11Z    1460      1440.668    1.8491       1.8486         31.067031     31.068661       4.0403     3.9296    -0.0584       99.3461            1.00E-12        -64.7219     -87.28024     99.86      1.06E+3                  2515.487      60373       34.722    34.7245     7.65422            27         0.00  
1        2017-12-26    360.825828  2017-12-26T19:49:12Z    1461      1441.651    1.8482       1.8477         31.066791     31.068426       4.0455     3.937     -0.0649       99.3537            1.00E-12        -64.7219     -87.28024     99.87      1.06E+3                  2516.555      60398       34.7221   34.7247     7.65438            25         0.00  
1        2017-12-26    360.82584   2017-12-26T19:49:13Z    1462      1442.635    1.848        1.8474         31.066941     31.068563       4.0455     3.9288    -0.0536       99.3599            1.00E-12        -64.7219     -87.28024     99.86      1.06E+3                  2517.568      60423       34.722    34.7246     7.65442            24         0.00  
1        2017-12-26    360.825852  2017-12-26T19:49:14Z    1463      1443.622    1.8474       1.8469         31.066952     31.068594       4.0449     3.9338    -0.057        99.3573            1.00E-12        -64.7219     -87.28024     99.87      1.06E+3                  2518.62       60448       34.7221   34.7247     7.65453            27         0.00  
1        2017-12-26    360.825867  2017-12-26T19:49:15Z    1464      1444.606    1.8469       1.8464         31.066814     31.068498       4.0446     3.9348    -0.0625       99.3566            1.00E-12        -64.7219     -87.28024     99.87      1.06E+3                  2519.887      60478       34.722    34.7246     7.65464            36         0.00  
1        2017-12-26    360.825888  2017-12-26T19:49:17Z    1465      1445.584    1.8459       1.8454         31.066398     31.068095       4.0461     3.9315    -0.0585       99.3545            1.00E-12        -64.7219     -87.28026     99.86      1.06E+3                  2521.763      60523       34.722    34.7246     7.65483            52         0.00  
1        2017-12-26    360.82591   2017-12-26T19:49:19Z    1466      1446.566    1.845        1.8444         31.066167     31.067751       4.0475     3.9358    -0.0593       99.3627            1.00E-12        -64.7219     -87.28026     99.87      1.06E+3                  2523.622      60568       34.7221   34.7248     7.65498            34         0.00  
1        2017-12-26    360.825923  2017-12-26T19:49:20Z    1467      1447.547    1.8446       1.8442         31.066411     31.068075       4.0474     3.9304    -0.0536       99.342             1.00E-12        -64.7219     -87.28026     99.87      1.06E+3                  2524.767      60595       34.7224   34.7248     7.65505            23         0.00  
1        2017-12-26    360.825933  2017-12-26T19:49:21Z    1468      1448.533    1.8445       1.8441         31.066811     31.068379       4.0475     3.9307    -0.0545       99.3278            1.00E-12        -64.7219     -87.28026     99.87      1.06E+3                  2525.642      60616       34.7225   34.7249     7.65507            19         0.00  
1        2017-12-26    360.825942  2017-12-26T19:49:21Z    1469      1449.518    1.844        1.8435         31.066797     31.06837        4.0479     3.9375    -0.0576       99.358             1.00E-12        -64.7219     -87.28026     99.87      1.06E+3                  2526.429      60635       34.7224   34.7249     7.65516            19         0.00  
1        2017-12-26    360.825951  2017-12-26T19:49:22Z    1470      1450.505    1.8434       1.843          31.066577     31.068312       4.0508     3.9321    -0.0684       99.3576            1.00E-12        -64.7219     -87.28024     99.87      1.06E+3                  2527.21       60654       34.7223   34.7249     7.65529            19         0.00  
1        2017-12-26    360.825961  2017-12-26T19:49:23Z    1471      1451.492    1.8428       1.8423         31.066562     31.068247       4.0499     3.9377    -0.0557       99.3608            1.00E-12        -64.7219     -87.28024     99.87      1.06E+3                  2528.06       60674       34.7224   34.725      7.65539            22         0.00  
1        2017-12-26    360.825974  2017-12-26T19:49:24Z    1472      1452.475    1.8424       1.8417         31.066422     31.068153       4.0486     3.9358    -0.0542       99.3583            1.00E-12        -64.7219     -87.28026     99.87      1.06E+3                  2529.136      60700       34.7222   34.7251     7.65549            32         0.00  
1        2017-12-26    360.825997  2017-12-26T19:49:26Z    1473      1453.452    1.842        1.8415         31.066525     31.068232       4.0501     3.9352    -0.0537       99.3508            1.00E-12        -64.7219     -87.28026     99.87      1.06E+3                  2531.165      60749       34.7222   34.7249     7.65556            61         0.00  
1        2017-12-26    360.826021  2017-12-26T19:49:28Z    1474      1454.431    1.8418       1.8412         31.066823     31.068516       4.0517     3.9389    -0.0537       99.3567            1.00E-12        -64.7219     -87.28026     99.87      1.06E+3                  2533.177      60797       34.7223   34.7251     7.6556             34         0.00  
1        2017-12-26    360.826035  2017-12-26T19:49:29Z    1475      1455.419    1.8414       1.8408         31.067051     31.068757       4.0499     3.9368    -0.0638       99.3632            1.00E-12        -64.7219     -87.28026     99.86      1.06E+3                  2534.414      60827       34.7225   34.7252     7.65566            29         0.00  
1        2017-12-26    360.82605   2017-12-26T19:49:31Z    1476      1456.407    1.841        1.8404         31.067095     31.068735       4.0441     3.9349    -0.0578       99.3632            1.00E-12        -64.7219     -87.28026     99.87      1.06E+3                  2535.753      60859       34.7224   34.7251     7.65574            38         0.00  
1        2017-12-26    360.826073  2017-12-26T19:49:33Z    1477      1457.383    1.8405       1.84           31.067017     31.068722       4.0533     3.9333    -0.062        99.3592            1.00E-12        -64.7219     -87.28026     99.87      1.06E+3                  2537.699      60906       34.7224   34.7251     7.65585            49         0.00  
1        2017-12-26    360.826093  2017-12-26T19:49:34Z    1478      1458.368    1.8384       1.8379         31.065842     31.067484       4.0546     3.9325    -0.0541       99.3632            1.00E-12        -64.7219     -87.28026     99.86      1.06E+3                  2539.409      60947       34.7226   34.7252     7.65623            36         0.00  
1        2017-12-26    360.826111  2017-12-26T19:49:36Z    1479      1459.354    1.8371       1.8365         31.065041     31.06673        4.0564     3.9341    -0.0636       99.3465            1.00E-12        -64.7219     -87.28026     99.87      1.06E+3                  2540.979      60985       34.7226   34.7253     7.65649            43         0.00  
1        2017-12-26    360.826135  2017-12-26T19:49:38Z    1480      1460.333    1.8358       1.8353         31.064315     31.066037       4.049      3.9374    -0.0623       99.3521            1.00E-12        -64.7219     -87.28026     99.86      1.06E+3                  2543.067      61035       34.7226   34.7253     7.65674            49         0.00  
1        2017-12-26    360.826154  2017-12-26T19:49:40Z    1481      1461.316    1.8353       1.8346         31.064353     31.066026       4.0538     3.9415    -0.0667       99.3486            1.00E-12        -64.7219     -87.28026     99.87      1.06E+3                  2544.698      61074       34.7226   34.7254     7.65684            33         0.00  
1        2017-12-26    360.826169  2017-12-26T19:49:41Z    1482      1462.304    1.8336       1.8331         31.063344     31.065092       4.0525     3.9384    -0.0539       99.355             1.00E-12        -64.7219     -87.28026     99.86      1.06E+3                  2546.021      61106       34.7227   34.7254     7.65716            33         0.00  
1        2017-12-26    360.826187  2017-12-26T19:49:43Z    1483      1463.286    1.8324       1.8318         31.062729     31.064392       4.055      3.9415    -0.054        99.3612            1.00E-12        -64.7219     -87.28026     99.86      1.06E+3                  2547.595      61143       34.7227   34.7254     7.65739            43         0.00  
1        2017-12-26    360.82622   2017-12-26T19:49:45Z    1484      1464.268    1.8322       1.8317         31.063035     31.064728       4.0572     3.9426    -0.0684       99.3407            1.00E-12        -64.7219     -87.28026     99.87      1.06E+3                  2550.391      61210       34.7228   34.7254     7.65742            51         0.00  
1        2017-12-26    360.826266  2017-12-26T19:49:49Z    1485      1465.239    1.8322       1.8316         31.063262     31.065019       4.052      3.938     -0.07         99.3463            1.00E-12        -64.7219     -87.28026     99.86      1.06E+3                  2554.363      61306       34.7226   34.7254     7.65744            28         0.00  
1        2017-12-26    360.826276  2017-12-26T19:49:50Z    1486      1466.233    1.8285       1.828          31.060841     31.062417       4.0518     3.9354    -0.0599       99.357             1.00E-12        -64.7219     -87.28026     99.87      1.06E+3                  2555.22       61326       34.723    34.7255     7.65812            21         0.00  
1        2017-12-26    360.826286  2017-12-26T19:49:51Z    1487      1467.22     1.8277       1.8271         31.060589     31.062205       4.0546     3.943     -0.0537       99.3377            1.00E-12        -64.7219     -87.28026     99.86      1.06E+3                  2556.086      61347       34.723    34.7256     7.65827            21         0.00  
1        2017-12-26    360.826298  2017-12-26T19:49:52Z    1488      1468.213    1.8275       1.8267         31.060671     31.062317       4.0584     3.9422    -0.0541       99.3483            1.00E-12        -64.7219     -87.28028     99.87      1.06E+3                  2557.113      61372       34.7229   34.7257     7.65833            32         0.00  
1        2017-12-26    360.82634   2017-12-26T19:49:56Z    1489      1469.176    1.8279       1.8272         31.06149      31.062984       4.0566     3.9418    -0.0567       99.3441            1.00E-12        -64.7219     -87.28028     99.86      1.06E+3                  2560.75       61459       34.7229   34.7255     7.65824            41         0.00  
1        2017-12-26    360.826358  2017-12-26T19:49:57Z    1490      1470.166    1.8269       1.8263         31.061124     31.062901       4.0539     3.94      -0.0689       99.3519            1.00E-12        -64.7219     -87.28026     99.87      1.06E+3                  2562.31       61496       34.723    34.7259     7.65843            26         0.00  
1        2017-12-26    360.826371  2017-12-26T19:49:58Z    1491      1471.157    1.8252       1.8246         31.060035     31.061689       4.0559     3.9451    -0.0654       99.3381            1.00E-12        -64.7219     -87.28027     99.87      1.06E+3                  2563.461      61524       34.723    34.7257     7.65877            32         0.00  
1        2017-12-26    360.826417  2017-12-26T19:50:02Z    1492      1472.132    1.826        1.8249         31.061156     31.062362       4.0567     3.9402    -0.0534       99.3409            1.00E-12        -64.7219     -87.28028     99.86      1.06E+3                  2567.385      61618       34.723    34.7257     7.65861            43         0.00  
1        2017-12-26    360.826445  2017-12-26T19:50:05Z    1493      1473.111    1.8249       1.8234         31.060423     31.061469       4.0532     3.9389    -0.0537       99.3544            1.00E-12        -64.7219     -87.28028     99.86      1.06E+3                  2569.826      61677       34.7228   34.7256     7.65884            29         0.00  
1        2017-12-26    360.826457  2017-12-26T19:50:06Z    1494      1474.1      1.8218       1.8212         31.058405     31.060169       4.0599     3.9412    -0.0675       99.3514            1.00E-12        -64.7219     -87.28028     99.87      1.06E+3                  2570.881      61702       34.7231   34.7259     7.65941            25         0.00  
1        2017-12-26    360.826469  2017-12-26T19:50:07Z    1495      1475.086    1.8209       1.8201         31.05801      31.05972        4.0563     3.9423    -0.0684       99.3555            1.00E-12        -64.7219     -87.28028     99.87      1.06E+3                  2571.958      61728       34.723    34.726      7.65959            28         0.00  
1        2017-12-26    360.826486  2017-12-26T19:50:08Z    1496      1476.071    1.8195       1.8188         31.057239     31.058887       4.0579     3.9432    -0.0565       99.3345            1.00E-12        -64.7219     -87.28028     99.87      1.06E+3                  2573.357      61762       34.7231   34.7259     7.65986            42         0.00  
1        2017-12-26    360.826523  2017-12-26T19:50:12Z    1497      1477.049    1.8192       1.8192         31.057429     31.059555       4.0587     3.9408    -0.0587       99.3634            1.00E-12        -64.7219     -87.28029     99.87      1.06E+3                  2576.547      61838       34.7231   34.7258     7.65991            37         0.00  
1        2017-12-26    360.826567  2017-12-26T19:50:15Z    1498      1478.031    1.8191       1.8185         31.057805     31.05958        4.0559     3.9409    -0.0542       99.3562            1.00E-12        -64.7219     -87.2803      99.87      1.06E+3                  2580.35       61929       34.7232   34.726      7.65993            43         0.00  
1        2017-12-26    360.826586  2017-12-26T19:50:17Z    1499      1479.02     1.8189       1.8183         31.058083     31.05979        4.0631     3.9452    -0.0619       99.3553            1.00E-12        -64.7219     -87.2803      99.87      1.06E+3                  2582.018      61969       34.7232   34.726      7.65996            47         0.00  
1        2017-12-26    360.826624  2017-12-26T19:50:20Z    1500      1479.995    1.819        1.8185         31.058574     31.060299       4.0575     3.9429    -0.0545       99.3624            1.00E-12        -64.7219     -87.28029     99.87      1.06E+3                  2585.278      62048       34.7232   34.726      7.65995            37         0.00  
1        2017-12-26    360.826645  2017-12-26T19:50:22Z    1501      1480.98     1.8184       1.8177         31.058454     31.06019        4.057      3.9444    -0.0541       99.3575            1.00E-12        -64.7219     -87.28028     99.86      1.06E+3                  2587.097      62091       34.7232   34.7261     7.66007            33         0.00  
1        2017-12-26    360.82666   2017-12-26T19:50:23Z    1502      1481.969    1.8181       1.8175         31.058744     31.060364       4.0577     3.9459    -0.0663       99.3599            1.00E-12        -64.7219     -87.2803      99.87      1.06E+3                  2588.42       62123       34.7233   34.726      7.66011            33         0.00  
1        2017-12-26    360.8267    2017-12-26T19:50:27Z    1503      1482.951    1.8183       1.8177         31.059294     31.060947       4.0609     3.9456    -0.061        99.3614            1.00E-12        -64.7219     -87.2803      99.87      1.06E+3                  2591.841      62205       34.7233   34.726      7.66008            46         0.00  
1        2017-12-26    360.826748  2017-12-26T19:50:31Z    1504      1483.931    1.8183       1.8174         31.059702     31.061054       4.0623     3.9445    -0.0572       99.3612            1.00E-12        -64.7219     -87.2803      99.86      1.06E+3                  2595.991      62305       34.7233   34.726      7.66008            62         0.00  
1        2017-12-26    360.826775  2017-12-26T19:50:33Z    1505      1484.913    1.8169       1.8162         31.058926     31.060554       4.0563     3.9443    -0.0665       99.3633            1.00E-12        -64.7219     -87.2803      99.87      1.06E+3                  2598.331      62361       34.7233   34.7261     7.66034            47         0.00  
1        2017-12-26    360.826794  2017-12-26T19:50:35Z    1506      1485.898    1.8168       1.8162         31.059291     31.060947       4.0592     3.9478    -0.0618       99.3302            1.00E-12        -64.7219     -87.2803      99.87      1.06E+3                  2600.021      62402       34.7234   34.7261     7.66036            38         0.00  
1        2017-12-26    360.826814  2017-12-26T19:50:37Z    1507      1486.883    1.8159       1.8153         31.058937     31.060644       4.0585     3.9465    -0.0567       99.3579            1.00E-12        -64.7219     -87.2803      99.87      1.06E+3                  2601.744      62443       34.7234   34.7261     7.66054            47         0.00  
1        2017-12-26    360.826849  2017-12-26T19:50:40Z    1508      1487.865    1.8155       1.8153         31.059079     31.060918       4.0542     3.9484    -0.0586       99.3543            1.00E-12        -64.7219     -87.28031     99.87      1.06E+3                  2604.792      62516       34.7234   34.726      7.6606             40         0.00  
1        2017-12-26    360.826894  2017-12-26T19:50:44Z    1509      1488.845    1.8153       1.8146         31.059216     31.06094        4.0594     3.9494    -0.057        99.3294            1.00E-12        -64.7219     -87.2803      99.87      1.06E+3                  2608.629      62608       34.7233   34.7262     7.66065            49         0.00  
1        2017-12-26    360.826919  2017-12-26T19:50:46Z    1510      1489.835    1.815        1.8143         31.059326     31.060962       4.0611     3.9405    -0.068        99.3242            1.00E-12        -64.7219     -87.28032     99.87      1.06E+3                  2610.816      62661       34.7233   34.7261     7.66072            41         0.00  
1        2017-12-26    360.826961  2017-12-26T19:50:49Z    1511      1490.808    1.8145       1.8139         31.059442     31.061058       4.0574     3.94      -0.0622       99.3557            1.00E-12        -64.7219     -87.28032     99.86      1.06E+3                  2614.416      62747       34.7234   34.7261     7.6608             45         0.00  
1        2017-12-26    360.826976  2017-12-26T19:50:51Z    1512      1491.794    1.8133       1.8126         31.058833     31.060542       4.0596     3.9493    -0.0664       99.3559            1.00E-12        -64.7219     -87.28031     99.87      1.06E+3                  2615.73       62779       34.7235   34.7263     7.66104            29         0.00  
1        2017-12-26    360.82699   2017-12-26T19:50:52Z    1513      1492.786    1.8126       1.8118         31.058663     31.060355       4.0608     3.9471    -0.0581       99.363             1.00E-12        -64.7219     -87.28031     99.87      1.06E+3                  2616.946      62808       34.7235   34.7264     7.66117            32         0.00  
1        2017-12-26    360.827043  2017-12-26T19:50:57Z    1514      1493.761    1.8127       1.8122         31.059173     31.060999       4.0623     3.949     -0.0684       99.3632            1.00E-12        -64.7219     -87.28032     99.87      1.06E+3                  2621.492      62917       34.7235   34.7263     7.66115            40         0.00  
1        2017-12-26    360.827068  2017-12-26T19:50:59Z    1515      1494.75     1.8123       1.8117         31.059324     31.060926       4.0625     3.9499    -0.0551       99.3632            1.00E-12        -64.7219     -87.28032     99.87      1.06E+3                  2623.694      62970       34.7236   34.7262     7.66122            30         0.00  
1        2017-12-26    360.827103  2017-12-26T19:51:02Z    1516      1495.728    1.8121       1.8117         31.059444     31.061411       4.0598     3.9439    -0.0569       99.3632            1.00E-12        -64.7219     -87.28032     99.87      1.06E+3                  2626.669      63041       34.7235   34.7263     7.66127            46         0.00  
1        2017-12-26    360.827134  2017-12-26T19:51:04Z    1517      1496.71     1.811        1.8103         31.058952     31.060611       4.0637     3.9488    -0.0656       99.3535            1.00E-12        -64.7219     -87.28032     99.87      1.06E+3                  2629.355      63106       34.7235   34.7263     7.66148            30         0.00  
1        2017-12-26    360.827148  2017-12-26T19:51:06Z    1518      1497.702    1.8101       1.8094         31.058623     31.060335       4.0668     3.9431    -0.0617       99.3538            1.00E-12        -64.7219     -87.28032     99.87      1.06E+3                  2630.584      63135       34.7236   34.7264     7.66165            34         0.00  
1        2017-12-26    360.827188  2017-12-26T19:51:09Z    1519      1498.679    1.8102       1.81           31.059124     31.061085       4.0644     3.9475    -0.0648       99.3592            1.00E-12        -64.7219     -87.28032     99.86      1.06E+3                  2634.041      63218       34.7235   34.7262     7.66163            43         0.00  
1        2017-12-26    360.827219  2017-12-26T19:51:12Z    1520      1499.663    1.8089       1.8083         31.058472     31.060197       4.0637     3.9451    -0.0634       99.3261            1.00E-12        -64.7219     -87.28032     99.86      1.06E+3                  2636.716      63282       34.7236   34.7265     7.66187            50         0.00  
1        2017-12-26    360.827318  2017-12-26T19:51:20Z    1521      1500.651    1.8094       1.8099         31.059389     31.061895       4.0627     3.9464    -0.0669       99.3423            1.00E-12        -64.7219     -87.28032     99.87      1.06E+3                  2645.304      63488       34.7237   34.7263     7.66177            47         0.00  
1        2017-12-26    360.827658  2017-12-26T19:51:50Z    1522      1501.635    1.8087       1.8085         31.058383     31.060653       4.0793     3.9418    -0.0403       99.3602            1.00E-12        -64.7219     -87.28032     99.87      1.06E+3                  2674.601      64191       34.7227   34.7257     7.66196            7          0.00  
3        2017-12-29    363.931954  2017-12-29T22:22:01Z    2         1.979       -1.3159      -1.3225        26.949788     26.951451       7.6028     7.4532    0.2124        93.9152            334             -70.17306    -113.61312    99.88      732                      303.825       7293        33.6725   33.6822     8.37171            46         0.00  
3        2017-12-29    363.93199   2017-12-29T22:22:04Z    3         2.969       -1.3214      -1.325         26.948769     26.950894       7.6294     7.4608    0.2068        93.9976            293             -70.17306    -113.61311    99.88      732                      306.953       7368        33.6766   33.6837     8.37269            73         0.00  
3        2017-12-29    363.932027  2017-12-29T22:22:07Z    4         3.96        -1.304       -1.306         26.953438     26.955697       7.6474     7.4728    0.1858        94.0024            260             -70.17306    -113.6131     99.88      732                      310.143       7444        33.6628   33.6681     8.3696             78         0.00  
3        2017-12-29    363.932064  2017-12-29T22:22:10Z    5         4.95        -1.3066      -1.3083        26.952335     26.954822       7.6388     7.4801    0.1799        94.056             233             -70.17306    -113.6131     99.88      732                      313.37        7522        33.6635   33.669      8.37014            76         0.00  
3        2017-12-29    363.9321    2017-12-29T22:22:13Z    6         5.938       -1.3076      -1.3099        26.952725     26.954893       7.6404     7.4759    0.1898        94.0441            210             -70.17306    -113.6131     99.88      732                      316.482       7597        33.6646   33.6702     8.3703             74         0.00  
3        2017-12-29    363.932136  2017-12-29T22:22:17Z    7         6.93        -1.3083      -1.3112        26.952953     26.955165       7.6479     7.4745    0.1905        94.0216            191             -70.17306    -113.6131     99.88      732                      319.512       7669        33.6651   33.6714     8.37043            72         0.00  
3        2017-12-29    363.932171  2017-12-29T22:22:20Z    8         7.919       -1.3015      -1.3056        26.955842     26.957907       7.6534     7.4778    0.1573        94.039             176             -70.17306    -113.61308    99.88      732                      322.551       7742        33.6608   33.6683     8.36917            74         0.00  
3        2017-12-29    363.932207  2017-12-29T22:22:23Z    9         8.909       -1.301       -1.3043        26.956467     26.958513       7.6484     7.4755    0.1689        94.0365            163             -70.17306    -113.61308    99.88      732                      325.666       7817        33.6604   33.667      8.36907            76         0.00  
3        2017-12-29    363.932243  2017-12-29T22:22:26Z    10        9.898       -1.314       -1.3202        26.95271      26.953692       7.6174     7.4652    0.1724        93.9803            151             -70.17306    -113.61308    99.88      732                      328.811       7892        33.6693   33.6777     8.37146            74         0.00  
3        2017-12-29    363.932279  2017-12-29T22:22:29Z    11        10.888      -1.3232      -1.3264        26.950162     26.952073       7.6245     7.4531    0.1814        93.9937            140             -70.17306    -113.61308    99.88      732                      331.869       7966        33.6756   33.6818     8.37316            72         0.00  
3        2017-12-29    363.932313  2017-12-29T22:22:32Z    12        11.879      -1.3304      -1.3411        26.948526     26.94817        7.5785     7.4401    0.1955        94.016             131             -70.17306    -113.61308    99.88      732                      334.844       8037        33.6808   33.6924     8.37447            71         0.00  
3        2017-12-29    363.932347  2017-12-29T22:22:35Z    13        12.867      -1.3554      -1.3561        26.941584     26.94433        7.5724     7.4234    0.2241        94.0421            123             -70.17306    -113.61307    99.87      732                      337.793       8108        33.6989   33.7035     8.37901            72         0.00  
3        2017-12-29    363.932383  2017-12-29T22:22:38Z    14        13.857      -1.3501      -1.3525        26.943854     26.946127       7.5918     7.4315    0.2867        93.9942            115             -70.17306    -113.61306    99.88      732                      340.86        8182        33.6953   33.7012     8.37802            75         0.00  
3        2017-12-29    363.932419  2017-12-29T22:22:41Z    15        14.847      -1.3402      -1.3417        26.947535     26.949774       7.5962     7.4392    0.3222        94.0185            108             -70.17306    -113.61306    99.87      732                      344.019       8257        33.6886   33.6934     8.3762             76         0.00  
3        2017-12-29    363.932455  2017-12-29T22:22:44Z    16        15.837      -1.3434      -1.3467        26.947177     26.949088       7.586      7.4236    0.3177        93.9928            102             -70.17306    -113.61305    99.87      732                      347.105       8332        33.6912   33.6975     8.37677            71         0.00  
3        2017-12-29    363.932489  2017-12-29T22:22:47Z    17        16.827      -1.3566      -1.3558        26.943795     26.946937       7.5622     7.4175    0.3448        94.0486            95.6            -70.17306    -113.61304    99.87      732                      350.033       8402        33.7008   33.7041     8.37917            70         0.00  
3        2017-12-29    363.932523  2017-12-29T22:22:50Z    18        17.817      -1.362       -1.3589        26.942174     26.945997       7.558      7.4139    0.3503        94.152             89.5            -70.17306    -113.61304    99.88      732                      353.017       8473        33.704    33.7057     8.38018            75         0.00  
3        2017-12-29    363.93256   2017-12-29T22:22:53Z    19        18.807      -1.3578      -1.3573        26.943896     26.946775       7.5781     7.417     0.3531        94.1199            84.2            -70.17306    -113.61304    99.87      732                      356.18        8549        33.701    33.7044     8.37942            76         0.00  
3        2017-12-29    363.932595  2017-12-29T22:22:56Z    20        19.796      -1.3495      -1.3485        26.946509     26.949482       7.5897     7.428     0.378         94.0906            79.6            -70.17306    -113.61304    99.87      732                      359.235       8623        33.6946   33.6976     8.37793            70         0.00  
3        2017-12-29    363.932629  2017-12-29T22:22:59Z    21        20.786      -1.3436      -1.3476        26.948476     26.949733       7.5753     7.4127    0.3801        94.1316            75.0            -70.17306    -113.61303    99.87      732                      362.146       8693        33.69     33.6963     8.37689            71         0.00  
3        2017-12-29    363.932665  2017-12-29T22:23:02Z    22        21.775      -1.3729      -1.3891        26.940166     26.938487       7.545      7.3916    0.3987        94.1348            70.4            -70.17306    -113.61302    99.87      732                      365.237       8767        33.7111   33.727      8.38222            77         0.00  
3        2017-12-29    363.932701  2017-12-29T22:23:05Z    23        22.766      -1.3654      -1.3583        26.941336     26.946212       7.6097     7.4295    0.4398        94.08              66.3            -70.17306    -113.61302    99.87      732                      368.4         8843        33.7035   33.7022     8.38097            73         0.00  
3        2017-12-29    363.932735  2017-12-29T22:23:08Z    24        23.755      -1.3202      -1.3239        26.954222     26.956104       7.6424     7.4579    0.4413        94.0817            62.9            -70.17306    -113.61301    99.87      732                      371.34        8913        33.6697   33.6764     8.37284            69         0.00  
3        2017-12-29    363.932769  2017-12-29T22:23:11Z    25        24.745      -1.3256      -1.3331        26.952426     26.952118       7.6048     7.4514    0.441         94.0937            59.7            -70.17306    -113.613      99.88      732                      374.232       8983        33.6726   33.6806     8.37387            71         0.00  
3        2017-12-29    363.932805  2017-12-29T22:23:14Z    26        25.735      -1.3631      -1.3664        26.939957     26.941885       7.5378     7.4075    0.4693        93.9922            56.5            -70.17306    -113.613      99.87      732                      377.34        9057        33.6972   33.7036     8.38084            77         0.00  
3        2017-12-29    363.932841  2017-12-29T22:23:17Z    27        26.724      -1.4221      -1.4272        26.92629      26.927585       7.3922     7.3276    0.4975        94.0847            53.5            -70.17306    -113.613      99.87      732                      380.481       9133        33.7444   33.752      8.39131            73         0.00  
3        2017-12-29    363.932876  2017-12-29T22:23:20Z    28        27.715      -1.4808      -1.4797        26.91613      26.919199       7.3408     7.2452    0.5514        94.0668            50.8            -70.17306    -113.613      99.87      732                      383.476       9204        33.7963   33.7993     8.40145            72         0.00  
3        2017-12-29    363.93291   2017-12-29T22:23:23Z    29        28.704      -1.4972      -1.4994        26.918906     26.920975       7.2986     7.1984    0.6261        94.0479            48.1            -70.17306    -113.61299    99.87      732                      386.454       9276        33.8181   33.8234     8.40386            71         0.00  
3        2017-12-29    363.932945  2017-12-29T22:23:26Z    30        29.693      -1.5113      -1.5133        26.91946      26.921696       7.29       7.1694    0.6821        94.0588            45.4            -70.17306    -113.61298    99.87      732                      389.42        9347        33.8343   33.8397     8.40608            71         0.00  
3        2017-12-29    363.932979  2017-12-29T22:23:29Z    31        30.684      -1.5139      -1.5158        26.920496     26.922599       7.2953     7.1621    0.7137        94.0478            42.9            -70.17306    -113.61298    99.87      732                      392.418       9419        33.838    33.8431     8.40644            73         0.00  
3        2017-12-29    363.933015  2017-12-29T22:23:32Z    32        31.674      -1.516       -1.5181        26.925775     26.929161       7.2812     7.1371    0.6362        94.0498            40.6            -70.17306    -113.61298    99.87      732                      395.524       9494        33.8472   33.8542     8.40639            76         0.00  
3        2017-12-29    363.933052  2017-12-29T22:23:36Z    33        32.663      -1.5175      -1.5194        26.925524     26.929872       7.2779     7.1344    0.6483        94.0719            38.5            -70.17306    -113.61298    99.87      732                      398.681       9569        33.8478   33.856      8.40667            74         0.00  
3        2017-12-29    363.933086  2017-12-29T22:23:39Z    34        33.652      -1.5182      -1.5197        26.92959      26.932057       7.2636     7.1263    0.7612        94.1161            36.5            -70.17306    -113.61297    99.87      732                      401.637       9640        33.8536   33.8588     8.40648            68         0.00  
3        2017-12-29    363.933118  2017-12-29T22:23:41Z    35        34.642      -1.5191      -1.5205        26.931283     26.933562       7.2593     7.1213    0.8609        93.8301            34.6            -70.17306    -113.61296    99.87      732                      404.428       9707        33.8563   33.8611     8.40652            68         0.00  
3        2017-12-29    363.933153  2017-12-29T22:23:44Z    36        35.633      -1.5203      -1.5184        26.931314     26.933533       7.2501     7.1092    0.8556        94.0914            32.8            -70.17306    -113.61296    99.87      732                      407.416       9779        33.8571   33.8581     8.40675            77         0.00  
3        2017-12-29    363.933191  2017-12-29T22:23:48Z    37        36.622      -1.5388      -1.5419        26.934105     26.936145       7.1634     7.0621    0.893         94.0047            30.9            -70.17306    -113.61296    99.87      732                      410.703       9858        33.8814   33.8878     8.40948            78         0.00  
3        2017-12-29    363.933227  2017-12-29T22:23:51Z    38        37.611      -1.5695      -1.5707        26.938716     26.940731       7.1046     7.0069    0.9831        93.9374            29.3            -70.17306    -113.61294    99.87      732                      413.775       9932        33.9222   33.9263     8.414              69         0.00  
3        2017-12-29    363.933259  2017-12-29T22:23:54Z    39        38.601      -1.579       -1.5806        26.939111     26.941092       7.0902     6.9798    1.0975        93.9171            27.7            -70.17306    -113.61294    99.87      732                      416.616       10000       33.933    33.9375     8.41551            69         0.00  
3        2017-12-29    363.933294  2017-12-29T22:23:57Z    40        39.591      -1.5874      -1.5889        26.938993     26.941026       7.0707     6.9542    1.1537        93.8552            26.2            -70.17306    -113.61294    99.87      732                      419.566       10071       33.9418   33.9463     8.41688            73         0.00  
3        2017-12-29    363.933329  2017-12-29T22:24:00Z    41        40.58       -1.597       -1.5984        26.938321     26.94043        7.0405     6.9255    1.173         93.5137            24.6            -70.17306    -113.61294    99.87      732                      422.655       10145       33.9511   33.9557     8.41849            74         0.00  
3        2017-12-29    363.933365  2017-12-29T22:24:03Z    42        41.57       -1.605       -1.6072        26.937878     26.939706       7.005      6.8966    1.1887        93.6252            23.2            -70.17306    -113.61294    99.87      732                      425.706       10218       33.959    33.9641     8.41983            73         0.00  
3        2017-12-29    363.9334    2017-12-29T22:24:06Z    43        42.56       -1.6242      -1.626         26.934462     26.936444       6.9551     6.8587    1.1969        93.5682            21.9            -70.17306    -113.61292    99.87      732                      428.787       10292       33.9757   33.9805     8.42321            74         0.00  
3        2017-12-29    363.933435  2017-12-29T22:24:09Z    44        43.549      -1.639       -1.6403        26.932487     26.934569       6.9419     6.8311    1.2152        93.6093            20.7            -70.17306    -113.61292    99.87      732                      431.817       10365       33.9892   33.9935     8.42575            71         0.00  
3        2017-12-29    363.933469  2017-12-29T22:24:12Z    45        44.539      -1.6454      -1.6467        26.931004     26.933077       6.9312     6.8169    1.221         93.5982            19.5            -70.17306    -113.61292    99.87      732                      434.72        10434       33.9939   33.9982     8.42693            70         0.00  
3        2017-12-29    363.933503  2017-12-29T22:24:15Z    46        45.529      -1.6531      -1.6547        26.929167     26.931042       6.9051     6.7932    1.2222        93.6154            18.4            -70.17306    -113.61292    99.87      732                      437.7         10506       33.9994   34.0038     8.42833            73         0.00  
3        2017-12-29    363.93354   2017-12-29T22:24:18Z    47        46.518      -1.6647      -1.6663        26.926288     26.928259       6.8953     6.7757    1.2029        93.3032            17.4            -70.17306    -113.61291    99.87      732                      440.816       10581       34.0081   34.0127     8.43045            76         0.00  
3        2017-12-29    363.933575  2017-12-29T22:24:21Z    48        47.508      -1.6695      -1.6699        26.925708     26.928278       6.8819     6.7667    1.1846        93.7084            16.4            -70.17306    -113.6129     99.87      732                      443.92        10655       34.0122   34.0162     8.43131            72         0.00  
3        2017-12-29    363.93361   2017-12-29T22:24:24Z    49        48.498      -1.6756      -1.6769        26.923141     26.925197       6.8622     6.7479    1.1706        94.0645            15.5            -70.17306    -113.6129     99.87      732                      446.888       10726       34.0149   34.0193     8.43252            71         0.00  
3        2017-12-29    363.933644  2017-12-29T22:24:27Z    50        49.487      -1.6806      -1.6801        26.920705     26.923868       6.8428     6.7325    1.1636        94.2               14.7            -70.17306    -113.61289    99.87      731                      449.846       10797       34.0166   34.0204     8.43356            72         0.00  
3        2017-12-29    363.93368   2017-12-29T22:24:30Z    51        50.477      -1.6831      -1.6839        26.919918     26.922177       6.8161     6.7085    1.1228        94.2917            13.9            -70.17306    -113.61288    99.87      730                      452.924       10871       34.0178   34.0218     8.43405            75         0.00  
3        2017-12-29    363.933715  2017-12-29T22:24:33Z    52        51.467      -1.6938      -1.6955        26.914716     26.916549       6.7657     6.6675    1.0702        94.7603            13.2            -70.17306    -113.61288    99.87      730                      455.96        10944       34.0222   34.0267     8.43623            71         0.00  
3        2017-12-29    363.933749  2017-12-29T22:24:36Z    53        52.456      -1.6955      -1.6979        26.91436      26.915862       6.7614     6.6524    0.9934        94.9767            12.5            -70.17306    -113.61288    99.87      730                      458.884       11014       34.023    34.0279     8.43656            71         0.00  
3        2017-12-29    363.933784  2017-12-29T22:24:39Z    54        53.446      -1.6986      -1.6992        26.913332     26.915646       6.7356     6.6324    1.0079        95.1171            11.8            -70.17306    -113.61288    99.87      730                      461.963       11088       34.0245   34.0283     8.43719            77         0.00  
3        2017-12-29    363.933821  2017-12-29T22:24:42Z    55        54.435      -1.7025      -1.704         26.911991     26.913849       6.7275     6.6105    0.9942        95.5732            11.2            -70.17306    -113.61286    99.87      730                      465.163       11165       34.0264   34.0308     8.43795            74         0.00  
3        2017-12-29    363.933856  2017-12-29T22:24:45Z    56        55.425      -1.7036      -1.7051        26.912231     26.914083       6.7284     6.6007    0.9231        95.8209            10.6            -70.17306    -113.61286    99.87      730                      468.127       11236       34.0274   34.0316     8.43814            68         0.00  
3        2017-12-29    363.933888  2017-12-29T22:24:48Z    57        56.415      -1.7054      -1.7069        26.912343     26.914171       6.7237     6.5956    0.9226        95.7713            10.1            -70.17306    -113.61286    99.87      730                      470.96        11304       34.0289   34.0332     8.43845            70         0.00  
3        2017-12-29    363.933924  2017-12-29T22:24:51Z    58        57.404      -1.7067      -1.7081        26.912704     26.914565       6.7203     6.5955    0.9605        95.9191            9.60            -70.17306    -113.61284    99.87      730                      473.998       11377       34.0303   34.0346     8.43867            76         0.00  
3        2017-12-29    363.933961  2017-12-29T22:24:54Z    59        58.394      -1.7083      -1.7097        26.913057     26.914957       6.7224     6.5905    0.9258        96.2229            9.12            -70.17306    -113.61284    99.87      730                      477.19        11454       34.032    34.0362     8.43894            75         0.00  
3        2017-12-29    363.933996  2017-12-29T22:24:57Z    60        59.381      -1.7092      -1.7105        26.913628     26.915566       6.7345     6.5958    0.9187        96.4174            8.67            -70.17306    -113.61284    99.87      730                      480.213       11526       34.0332   34.0373     8.43907            70         0.00  
3        2017-12-29    363.934029  2017-12-29T22:25:00Z    61        60.374      -1.7084      -1.7098        26.914967     26.916849       6.746      6.6016    0.896         96.4075            8.26            -70.17306    -113.61284    99.87      730                      483.132       11596       34.0335   34.0377     8.43886            72         0.00  
3        2017-12-29    363.934064  2017-12-29T22:25:03Z    62        61.362      -1.7081      -1.7095        26.915788     26.917713       6.7495     6.6086    0.8999        96.2671            7.87            -70.17306    -113.61283    99.87      730                      486.171       11669       34.0337   34.0379     8.43879            74         0.00  
3        2017-12-29    363.9341    2017-12-29T22:25:06Z    63        62.352      -1.7066      -1.7079        26.918076     26.92002        6.7208     6.6027    0.8997        96.558             7.49            -70.17306    -113.61282    99.87      730                      489.201       11742       34.0345   34.0387     8.4384             70         0.00  
3        2017-12-29    363.934133  2017-12-29T22:25:09Z    64        63.342      -1.7119      -1.7142        26.916115     26.917531       6.6754     6.5593    0.8958        96.5913            7.13            -70.17306    -113.61282    99.87      730                      492.094       11811       34.0372   34.0418     8.43945            70         0.00  
3        2017-12-29    363.934168  2017-12-29T22:25:12Z    65        64.331      -1.7158      -1.7175        26.915232     26.916817       6.6367     6.5307    0.9109        96.6997            6.79            -70.17306    -113.61282    99.87      730                      495.084       11883       34.0398   34.044      8.44018            74         0.00  
3        2017-12-29    363.934204  2017-12-29T22:25:15Z    66        65.32       -1.7178      -1.7193        26.91778      26.919692       6.6073     6.5005    0.8396        96.7945            6.47            -70.17307    -113.6128     99.87      730                      498.233       11959       34.0451   34.0494     8.44032            76         0.00  
3        2017-12-29    363.93424   2017-12-29T22:25:18Z    67        66.31       -1.7178      -1.719         26.919764     26.921792       6.6019     6.4892    0.8554        96.8729            6.16            -70.17308    -113.6128     99.87      730                      501.362       12034       34.0471   34.0514     8.44019            74         0.00  
3        2017-12-29    363.934276  2017-12-29T22:25:21Z    68        67.3        -1.7144      -1.7157        26.92454      26.926287       6.595      6.4755    0.8196        97.0734            5.87            -70.17308    -113.61278    99.87      728                      504.408       12107       34.0492   34.0532     8.43928            72         0.00  
3        2017-12-29    363.93431   2017-12-29T22:25:24Z    69        68.289      -1.7164      -1.7187        26.923801     26.924916       6.5928     6.4712    0.7976        97.28              5.59            -70.17308    -113.61278    99.87      728                      507.364       12178       34.0499   34.0541     8.43971            69         0.00  
3        2017-12-29    363.934343  2017-12-29T22:25:27Z    70        69.278      -1.7172      -1.7183        26.924838     26.927073       6.5913     6.4714    0.775         97.3993            5.33            -70.17308    -113.61278    99.87      728                      510.196       12246       34.0517   34.056      8.43979            68         0.00  
3        2017-12-29    363.934377  2017-12-29T22:25:30Z    71        70.269      -1.7155      -1.7168        26.92828      26.929942       6.5809     6.4591    0.7857        97.4556            5.07            -70.17308    -113.61277    99.87      728                      513.142       12316       34.0538   34.0577     8.43926            75         0.00  
3        2017-12-29    363.934415  2017-12-29T22:25:33Z    72        71.257      -1.7105      -1.712         26.935277     26.936807       6.5778     6.4512    0.7945        97.5753            4.81            -70.17308    -113.61276    99.87      728                      516.484       12397       34.0572   34.0611     8.43792            75         0.00  
3        2017-12-29    363.934453  2017-12-29T22:25:37Z    73        72.247      -1.7049      -1.7064        26.942748     26.944291       6.5537     6.4414    0.8656        97.3829            4.58            -70.17308    -113.61275    99.87      728                      519.73        12475       34.0605   34.0644     8.43645            71         0.00  
3        2017-12-29    363.934484  2017-12-29T22:25:39Z    74        73.235      -1.6998      -1.7013        26.949649     26.951339       6.5468     6.4254    0.8346        97.6659            4.37            -70.17308    -113.61274    99.87      728                      522.439       12540       34.0637   34.0677     8.43511            62         0.00  
3        2017-12-29    363.934515  2017-12-29T22:25:42Z    75        74.228      -1.698       -1.6994        26.952763     26.954435       6.5395     6.4182    0.7696        97.6935            4.17            -70.17308    -113.61274    99.87      728                      525.096       12603       34.0653   34.0692     8.43459            68         0.00  
3        2017-12-29    363.934551  2017-12-29T22:25:45Z    76        75.216      -1.6954      -1.6968        26.956827     26.958374       6.5285     6.4066    0.7522        97.744             3.95            -70.17308    -113.61274    99.87      728                      528.229       12678       34.0673   34.0711     8.43388            78         0.00  
3        2017-12-29    363.934591  2017-12-29T22:25:49Z    77        76.205      -1.6928      -1.694         26.960902     26.962678       6.5245     6.4038    0.7768        97.8485            3.76            -70.17308    -113.61274    99.87      728                      531.639       12760       34.0693   34.0732     8.43316            77         0.00  
3        2017-12-29    363.934625  2017-12-29T22:25:52Z    78        77.195      -1.6922      -1.6937        26.962212     26.963622       6.5267     6.3957    0.8987        97.8969            3.59            -70.17308    -113.61272    99.87      728                      534.61        12832       34.0699   34.0736     8.433              67         0.00  
3        2017-12-29    363.934657  2017-12-29T22:25:54Z    79        78.184      -1.6886      -1.6898        26.967562     26.969252       6.5142     6.3892    0.9536        97.864             3.43            -70.17308    -113.61272    99.87      728                      537.382       12898       34.0725   34.0763     8.43202            68         0.00  
3        2017-12-29    363.934691  2017-12-29T22:25:57Z    80        79.175      -1.6808      -1.6822        26.97791      26.979448       6.491      6.3801    0.7694        97.9162            3.27            -70.17308    -113.61272    99.87      728                      540.322       12969       34.0773   34.0811     8.42996            73         0.00  
3        2017-12-29    363.934727  2017-12-29T22:26:00Z    81        80.162      -1.6751      -1.6765        26.985511     26.987057       6.4866     6.3656    0.8475        97.9093            3.11            -70.17308    -113.61272    99.87      727                      543.439       13044       34.0808   34.0845     8.42846            75         0.00  
3        2017-12-29    363.934763  2017-12-29T22:26:04Z    82        81.153      -1.6687      -1.6699        26.995231     26.996714       6.4666     6.3512    0.7995        97.9469            2.96            -70.17308    -113.61271    99.87      727                      546.488       13117       34.0862   34.0897     8.42667            72         0.00  
3        2017-12-29    363.934797  2017-12-29T22:26:06Z    83        82.142      -1.6608      -1.662         27.005112     27.006663       6.452      6.3389    0.8044        97.9822            2.83            -70.17308    -113.6127     99.87      726                      549.434       13187       34.0903   34.0938     8.42463            71         0.00  
3        2017-12-29    363.934832  2017-12-29T22:26:09Z    84        83.132      -1.6496      -1.6508        27.017228     27.018833       6.4361     6.3207    0.705         97.9924            2.70            -70.17308    -113.6127     99.87      726                      552.508       13261       34.0936   34.0972     8.42189            76         0.00  
3        2017-12-29    363.934868  2017-12-29T22:26:13Z    85        84.121      -1.6341      -1.6354        27.033808     27.035351       6.4156     6.3049    0.6857        98.0558            2.57            -70.17308    -113.61268    99.87      726                      555.635       13336       34.0982   34.1019     8.41809            72         0.00  
3        2017-12-29    363.934902  2017-12-29T22:26:16Z    86        85.11       -1.6192      -1.6205        27.049296     27.050865       6.4        6.2895    0.6833        98.0941            2.46            -70.17308    -113.61268    99.87      726                      558.512       13405       34.1021   34.1057     8.4145             67         0.00  
3        2017-12-29    363.934934  2017-12-29T22:26:18Z    87        86.1        -1.6133      -1.6145        27.05591      27.057398       6.3995     6.2781    0.6152        98.1047            2.35            -70.17308    -113.61268    99.87      726                      561.337       13473       34.1038   34.1073     8.41304            70         0.00  
3        2017-12-29    363.93497   2017-12-29T22:26:21Z    88        87.09       -1.5837      -1.5838        27.087381     27.090091       6.3704     6.2626    0.6722        98.0595            2.25            -70.17308    -113.61267    99.87      726                      564.396       13547       34.1129   34.1168     8.40581            77         0.00  
3        2017-12-29    363.935007  2017-12-29T22:26:25Z    89        88.079      -1.5675      -1.5691        27.104265     27.105301       6.3595     6.2426    0.7026        97.9243            2.15            -70.17309    -113.61266    99.87      726                      567.591       13623       34.1171   34.1203     8.40189            75         0.00  
3        2017-12-29    363.935043  2017-12-29T22:26:28Z    90        89.068      -1.5629      -1.5643        27.109773     27.110793       6.3402     6.2392    0.6093        98.202             2.05            -70.1731     -113.61266    99.87      726                      570.692       13698       34.1188   34.1219     8.40074            73         0.00  
3        2017-12-29    363.935077  2017-12-29T22:26:31Z    91        90.057      -1.5241      -1.5258        27.149285     27.150345       6.3163     6.2077    0.5778        98.2514            1.97            -70.1731     -113.61265    99.87      726                      573.628       13768       34.1285   34.1318     8.39141            68         0.00  
3        2017-12-29    363.935109  2017-12-29T22:26:33Z    92        91.046      -1.5113      -1.5127        27.162587     27.163823       6.3018     6.1952    0.6104        98.2834            1.88            -70.1731     -113.61264    99.87      726                      576.388       13834       34.1315   34.1349     8.38833            63         0.00  
3        2017-12-29    363.935135  2017-12-29T22:26:36Z    93        92.035      -1.5005      -1.5011        27.173907     27.175866       6.2989     6.1774    0.5372        98.3344            1.81            -70.1731     -113.61264    99.87      726                      578.658       13889       34.1342   34.1376     8.38574            45         0.00  
3        2017-12-29    363.935154  2017-12-29T22:26:37Z    94        93.025      -1.4982      -1.4987        27.176605     27.178571       6.2867     6.1826    0.4671        98.3094            1.73            -70.1731     -113.61264    99.87      726                      580.291       13928       34.1347   34.138      8.38519            37         0.00  
3        2017-12-29    363.935172  2017-12-29T22:26:39Z    95        94.015      -1.488       -1.4891        27.187464     27.188946       6.28       6.172     0.4903        98.2597            1.66            -70.1731     -113.61262    99.87      726                      581.828       13965       34.1373   34.1407     8.38273            37         0.00  
3        2017-12-29    363.935189  2017-12-29T22:26:40Z    96        95.004      -1.4785      -1.4791        27.197116     27.199108       6.2725     6.1521    0.5115        98.3116            1.59            -70.17308    -113.61262    99.87      726                      583.343       14001       34.1392   34.1426     8.38048            36         0.00  
3        2017-12-29    363.935206  2017-12-29T22:26:42Z    97        95.995      -1.4731      -1.474         27.203147     27.204865       6.2663     6.146     0.5421        98.4367            1.52            -70.17308    -113.61262    99.87      726                      584.806       14036       34.1408   34.1442     8.37919            34         0.00  
3        2017-12-29    363.935222  2017-12-29T22:26:43Z    98        96.981      -1.4642      -1.4657        27.213748     27.214968       6.2575     6.1499    0.5093        98.4698            1.46            -70.17308    -113.61262    99.87      726                      586.196       14070       34.1446   34.1479     8.37696            32         0.00  
3        2017-12-29    363.935237  2017-12-29T22:26:44Z    99        97.973      -1.4469      -1.4486        27.231007     27.232203       6.2117     6.131     0.456         98.4761            1.40            -70.17308    -113.61262    99.87      726                      587.508       14101       34.1479   34.1516     8.37285            31         0.00  
3        2017-12-29    363.935252  2017-12-29T22:26:46Z    100       98.962      -1.4172      -1.419         27.261641     27.26302        6.1851     6.1079    0.4636        98.4786            1.34            -70.17308    -113.61262    99.87      726                      588.783       14132       34.1556   34.1596     8.36573            30         0.00  
3        2017-12-29    363.935266  2017-12-29T22:26:47Z    101       99.953      -1.3691      -1.3714        27.308302     27.308888       6.159      6.0755    0.4427        98.5028            1.29            -70.17308    -113.61262    99.87      726                      590.015       14161       34.1643   34.1678     8.35442            29         0.00  
3        2017-12-29    363.93528   2017-12-29T22:26:48Z    102       100.94      -1.3539      -1.355         27.323445     27.324885       6.1379     6.0608    0.449         98.4294            1.23            -70.17308    -113.6126     99.87      726                      591.213       14190       34.1671   34.1704     8.35085            29         0.00  
3        2017-12-29    363.935294  2017-12-29T22:26:49Z    103       101.931     -1.3276      -1.3294        27.349604     27.350556       6.1259     6.0432    0.4309        98.5228            1.18            -70.17308    -113.6126     99.87      726                      592.39        14218       34.1725   34.1758     8.34467            28         0.00  
3        2017-12-29    363.935307  2017-12-29T22:26:51Z    104       102.92      -1.3095      -1.3107        27.367241     27.368328       6.1211     6.0311    0.4839        98.5147            1.13            -70.17308    -113.6126     99.87      726                      593.555       14246       34.1754   34.1783     8.34044            28         0.00  
3        2017-12-29    363.935321  2017-12-29T22:26:52Z    105       103.909     -1.302       -1.3031        27.375        27.376281       6.111      6.0208    0.425         98.545             1.09            -70.17308    -113.6126     99.87      726                      594.721       14274       34.1769   34.18       8.33868            28         0.00  
3        2017-12-29    363.935334  2017-12-29T22:26:53Z    106       104.899     -1.2943      -1.2953        27.383075     27.384481       6.0878     6.0075    0.388         98.5681            1.04            -70.17308    -113.6126     99.87      726                      595.895       14302       34.1786   34.1817     8.33687            28         0.00  
3        2017-12-29    363.935348  2017-12-29T22:26:54Z    107       105.887     -1.2752      -1.2765        27.402509     27.403821       6.0649     5.9862    0.4005        98.6053            1.00            -70.17308    -113.6126     99.87      725                      597.059       14330       34.1829   34.1861     8.33236            28         0.00  
3        2017-12-29    363.935361  2017-12-29T22:26:55Z    108       106.877     -1.2517      -1.2524        27.425885     27.427954       6.0544     5.9718    0.3963        98.6196            0.962           -70.17308    -113.61258    99.87      726                      598.225       14358       34.1875   34.1912     8.32684            28         0.00  
3        2017-12-29    363.935375  2017-12-29T22:26:56Z    109       107.868     -1.2314      -1.2322        27.445437     27.446921       6.0507     5.9693    0.3712        98.6178            0.922           -70.17308    -113.61258    99.87      726                      599.395       14386       34.1905   34.1935     8.32214            28         0.00  
3        2017-12-29    363.935389  2017-12-29T22:26:58Z    110       108.855     -1.2224      -1.2225        27.454562     27.456799       6.0261     5.9493    0.3538        98.6706            0.887           -70.17308    -113.61258    99.87      726                      600.57        14415       34.1921   34.1953     8.32004            28         0.00  
3        2017-12-29    363.935402  2017-12-29T22:26:59Z    111       109.845     -1.2038      -1.2053        27.473288     27.47472        5.9993     5.9308    0.3672        98.6582            0.851           -70.17308    -113.61258    99.87      726                      601.752       14443       34.196    34.1996     8.31569            29         0.00  
3        2017-12-29    363.935416  2017-12-29T22:27:00Z    112       110.835     -1.1657      -1.1681        27.510593     27.511042       5.9753     5.9161    0.376         98.6972            0.818           -70.17308    -113.61258    99.87      726                      602.944       14472       34.203    34.2064     8.30681            28         0.00  
3        2017-12-29    363.93543   2017-12-29T22:27:01Z    113       111.823     -1.1356      -1.1372        27.538506     27.539115       5.9491     5.8864    0.412         98.7239            0.786           -70.17308    -113.61258    99.87      726                      604.136       14500       34.2063   34.2089     8.29994            29         0.00  
3        2017-12-29    363.935443  2017-12-29T22:27:02Z    114       112.815     -1.1064      -1.1096        27.567998     27.56799        5.9259     5.8648    0.3779        98.7189            0.756           -70.17308    -113.61258    99.87      725                      605.318       14529       34.2127   34.2163     8.29311            28         0.00  
3        2017-12-29    363.935457  2017-12-29T22:27:03Z    115       113.802     -1.0729      -1.0753        27.599992     27.6001         5.9085     5.8391    0.3214        98.7749            0.725           -70.17308    -113.61257    99.87      725                      606.491       14557       34.2177   34.2206     8.28542            28         0.00  
3        2017-12-29    363.93547   2017-12-29T22:27:05Z    116       114.792     -1.0385      -1.041         27.633156     27.633407       5.8789     5.8127    0.3126        98.7867            0.698           -70.17308    -113.61256    99.87      725                      607.645       14584       34.2231   34.2263     8.2775             28         0.00  
3        2017-12-29    363.935484  2017-12-29T22:27:06Z    117       115.78      -1.0159      -1.0178        27.655247     27.655984       5.86       5.7964    0.3018        98.7793            0.672           -70.17308    -113.61256    99.87      725                      608.787       14612       34.2269   34.2301     8.2723             27         0.00  
3        2017-12-29    363.935497  2017-12-29T22:27:07Z    118       116.771     -0.9867      -0.9882        27.683193     27.683937       5.8389     5.78      0.3016        98.7563            0.647           -70.17309    -113.61256    99.87      725                      609.933       14639       34.2312   34.2339     8.26562            28         0.00  
3        2017-12-29    363.93551   2017-12-29T22:27:08Z    119       117.759     -0.9705      -0.9723        27.699009     27.699642       5.8365     5.7588    0.2833        98.8218            0.623           -70.1731     -113.61256    99.87      725                      611.084       14667       34.2337   34.2365     8.26192            27         0.00  
3        2017-12-29    363.935524  2017-12-29T22:27:09Z    120       118.75      -0.9457      -0.947         27.722734     27.723809       5.8255     5.7492    0.2964        98.8674            0.600           -70.1731     -113.61256    99.87      725                      612.25        14695       34.2371   34.24       8.25626            29         0.00  
3        2017-12-29    363.935537  2017-12-29T22:27:10Z    121       119.74      -0.9378      -0.9384        27.730206     27.731674       5.8169     5.7347    0.2326        98.8992            0.578           -70.1731     -113.61256    99.87      725                      613.441       14724       34.2377   34.2404     8.2545             29         0.00  
3        2017-12-29    363.935552  2017-12-29T22:27:12Z    122       120.728     -0.9284      -0.9293        27.739763     27.740953       5.812      5.7332    0.213         98.8637            0.557           -70.1731     -113.61256    99.87      725                      614.667       14753       34.2394   34.242      8.25234            29         0.00  
3        2017-12-29    363.935566  2017-12-29T22:27:13Z    123       121.717     -0.9129      -0.9144        27.749336     27.755558       5.7951     5.7182    0.2288        98.9248            0.537           -70.1731     -113.61255    99.87      725                      615.912       14783       34.2341   34.2444     8.24924            30         0.00  
3        2017-12-29    363.93558   2017-12-29T22:27:14Z    124       122.704     -0.8881      -0.8902        27.779258     27.779796       5.7668     5.6994    0.233         98.9473            0.518           -70.1731     -113.61254    99.87      725                      617.155       14813       34.246    34.2492     8.24313            30         0.00  
3        2017-12-29    363.935595  2017-12-29T22:27:15Z    125       123.697     -0.8573      -0.8596        27.808891     27.808977       5.749      5.6813    0.2097        98.9439            0.500           -70.1731     -113.61254    99.87      725                      618.365       14842       34.2506   34.2534     8.23611            29         0.00  
3        2017-12-29    363.935608  2017-12-29T22:27:17Z    126       124.681     -0.8355      -0.8366        27.830463     27.825543       5.7358     5.6601    0.1819        99.005             0.482           -70.1731     -113.61254    99.87      725                      619.557       14870       34.2545   34.2493     8.23112            28         0.00  
3        2017-12-29    363.935622  2017-12-29T22:27:18Z    127       125.677     -0.8258      -0.8259        27.839801     27.841755       5.7243     5.6911    0.1682        99.013             0.465           -70.1731     -113.61254    99.87      725                      620.742       14899       34.2556   34.2584     8.22895            29         0.00  
3        2017-12-29    363.935636  2017-12-29T22:27:19Z    128       126.663     -0.81        -0.8112        27.855513     27.856411       5.7051     5.6979    0.152         99.0101            0.449           -70.1731     -113.61253    99.87      725                      621.929       14927       34.2583   34.261      8.22533            28         0.00  
3        2017-12-29    363.93565   2017-12-29T22:27:20Z    129       127.653     -0.7757      -0.7774        27.888999     27.890036       5.677      5.5392    0.1626        99.0396            0.433           -70.1731     -113.61252    99.87      725                      623.135       14956       34.2642   34.2675     8.21752            30         0.00  
3        2017-12-29    363.935664  2017-12-29T22:27:21Z    130       128.639     -0.7392      -0.7446        27.924786     27.922383       5.6466     5.5938    0.145         99.073             0.418           -70.1731     -113.61252    99.87      725                      624.38        14986       34.2706   34.2735     8.20921            27         0.00  
3        2017-12-29    363.935679  2017-12-29T22:27:23Z    131       129.632     -0.7056      -0.7083        27.957313     27.957622       5.6185     5.5669    0.1426        99.0826            0.402           -70.1731     -113.61252    99.87      725                      625.646       15016       34.2759   34.2793     8.20161            30         0.00  
3        2017-12-29    363.935694  2017-12-29T22:27:24Z    132       130.62      -0.6646      -0.6646        27.996608     27.998641       5.5935     5.5381    0.1429        99.1056            0.388           -70.1731     -113.61252    99.87      725                      626.922       15047       34.2818   34.2846     8.19236            31         0.00  
3        2017-12-29    363.935708  2017-12-29T22:27:25Z    133       131.609     -0.6379      -0.6399        28.022658     28.022842       5.5847     5.5181    0.1133        99.1015            0.374           -70.1731     -113.61252    99.87      725                      628.175       15077       34.2862   34.2887     8.18634            29         0.00  
3        2017-12-29    363.935722  2017-12-29T22:27:26Z    134       132.6       -0.6239      -0.6245        28.036353     28.037394       5.5666     5.5048    0.0804        99.1127            0.361           -70.1731     -113.61252    99.87      725                      629.387       15106       34.2882   34.2903     8.1832             29         0.00  
3        2017-12-29    363.935736  2017-12-29T22:27:28Z    135       133.586     -0.6106      -0.6118        28.049862     28.050831       5.5362     5.4738    0.0551        99.1189            0.349           -70.1731     -113.6125     99.87      725                      630.564       15135       34.2907   34.2934     8.18018            28         0.00  
3        2017-12-29    363.935749  2017-12-29T22:27:29Z    136       134.579     -0.5718      -0.5743        28.08759      28.087402       5.5214     5.4615    0.0797        99.1341            0.338           -70.1731     -113.6125     99.87      725                      631.727       15162       34.297    34.2995     8.17143            28         0.00  
3        2017-12-29    363.935762  2017-12-29T22:27:30Z    137       135.567     -0.5273      -0.5294        28.130683     28.130786       5.4973     5.4437    0.0793        99.1426            0.326           -70.1731     -113.6125     99.87      725                      632.876       15190       34.304    34.3065     8.16144            28         0.00  
3        2017-12-29    363.935776  2017-12-29T22:27:31Z    138       136.555     -0.5125      -0.513         28.144843     28.145998       5.4586     5.4182    0.059         99.1503            0.315           -70.1731     -113.6125     99.87      725                      634.054       15218       34.3057   34.3078     8.15816            28         0.00  
3        2017-12-29    363.93579   2017-12-29T22:27:32Z    139       137.544     -0.4615      -0.4659        28.195075     28.194293       5.4329     5.3868    0.0762        99.1556            0.304           -70.1731     -113.6125     99.87      725                      635.269       15247       34.3149   34.3189     8.14668            30         0.00  
3        2017-12-29    363.935805  2017-12-29T22:27:34Z    140       138.534     -0.4176      -0.4187        28.236812     28.237672       5.4185     5.3605    0.0562        99.1717            0.294           -70.1731     -113.6125     99.87      725                      636.521       15278       34.3207   34.3232     8.13693            30         0.00  
3        2017-12-29    363.93582   2017-12-29T22:27:35Z    141       139.525     -0.3973      -0.3987        28.256646     28.257284       5.4052     5.3366    0.0646        99.1709            0.284           -70.1731     -113.6125     99.87      725                      637.809       15308       34.3238   34.3262     8.13242            31         0.00  
3        2017-12-29    363.935835  2017-12-29T22:27:36Z    142       140.511     -0.3872      -0.387         28.266595     28.268281       5.4047     5.339     0.0458        99.1875            0.274           -70.1731     -113.6125     99.87      725                      639.099       15339       34.3251   34.3272     8.13018            31         0.00  
3        2017-12-29    363.935849  2017-12-29T22:27:37Z    143       141.501     -0.3774      -0.3773        28.276452     28.278019       5.3806     5.3246    0.0406        99.1913            0.265           -70.1731     -113.61248    99.87      725                      640.357       15370       34.3266   34.3286     8.12799            30         0.00  
3        2017-12-29    363.935863  2017-12-29T22:27:39Z    144       142.492     -0.3644      -0.3668        28.289532     28.28925        5.3661     5.3063    0.0275        99.1881            0.255           -70.1731     -113.61248    99.87      725                      641.578       15399       34.3289   34.3312     8.12509            29         0.00  
3        2017-12-29    363.935877  2017-12-29T22:27:40Z    145       143.478     -0.3234      -0.3256        28.32959      28.329753       5.3468     5.281     0.0196        99.1981            0.246           -70.1731     -113.61248    99.87      725                      642.768       15427       34.3356   34.3383     8.11595            28         0.00  
3        2017-12-29    363.93589   2017-12-29T22:27:41Z    146       144.47      -0.2953      -0.2962        28.356749     28.357535       5.3376     5.2656    0.0196        99.2076            0.237           -70.1731     -113.61248    99.87      725                      643.931       15455       34.3396   34.3417     8.10974            28         0.00  
3        2017-12-29    363.935904  2017-12-29T22:27:42Z    147       145.458     -0.2817      -0.2851        28.370156     28.368432       5.3357     5.2642    0.0196        99.2105            0.229           -70.1731     -113.61246    99.87      725                      645.099       15483       34.3415   34.3431     8.10673            28         0.00  
3        2017-12-29    363.935918  2017-12-29T22:27:43Z    148       146.446     -0.2717      -0.2721        28.379846     28.380831       5.3066     5.2478    0.0196        99.213             0.221           -70.1731     -113.61246    99.87      725                      646.297       15512       34.3426   34.3444     8.10454            29         0.00  
3        2017-12-29    363.935932  2017-12-29T22:27:45Z    149       147.436     -0.2548      -0.2586        28.397237     28.395752       5.278      5.222     0.0211        99.2232            0.214           -70.1731     -113.61246    99.87      725                      647.509       15541       34.3462   34.3485     8.10075            29         0.00  
3        2017-12-29    363.935946  2017-12-29T22:27:46Z    150       148.427     -0.2064      -0.2085        28.444235     28.444005       5.256      5.2051    0.0257        99.2261            0.207           -70.1731     -113.61246    99.87      725                      648.747       15571       34.3538   34.3557     8.09005            31         0.00  
3        2017-12-29    363.935961  2017-12-29T22:27:47Z    151       149.415     -0.1832      -0.1845        28.466947     28.467333       5.2422     5.1863    0.0078        99.2287            0.199           -70.1731     -113.61246    99.87      725                      649.993       15601       34.3573   34.3592     8.08494            29         0.00  
3        2017-12-29    363.935975  2017-12-29T22:27:48Z    152       150.403     -0.1669      -0.1798        28.482587     28.483407       5.2167     5.1621    -0.0099       99.2343            0.192           -70.1731     -113.61246    99.87      725                      651.22        15630       34.3592   34.3748     8.08138            29         0.00  
3        2017-12-29    363.935989  2017-12-29T22:27:49Z    153       151.393     -0.1327      -0.1341        28.516471     28.517032       5.1825     5.1404    -0.0097       99.2385            0.185           -70.1731     -113.61246    99.87      725                      652.439       15660       34.3652   34.3675     8.0738             30         0.00  
3        2017-12-29    363.936003  2017-12-29T22:27:51Z    154       152.384     -0.0969      -0.0994        28.552169     28.551656       5.1719     5.1217    -0.0097       99.2406            0.178           -70.1731     -113.61244    99.87      725                      653.656       15689       34.3717   34.3739     8.06586            29         0.00  
3        2017-12-29    363.936017  2017-12-29T22:27:52Z    155       153.372     -0.0672      -0.0676        28.580588     28.581765       5.1483     5.0999    -0.0097       99.2278            0.172           -70.1731     -113.61244    99.87      725                      654.871       15718       34.3755   34.3774     8.0594             29         0.00  
3        2017-12-29    363.936031  2017-12-29T22:27:53Z    156       154.361     -0.0435      -0.0471        28.604335     28.602764       5.1239     5.0827    -0.0097       99.243             0.166           -70.1731     -113.61244    99.87      725                      656.105       15748       34.3798   34.3817     8.05417            30         0.00  
3        2017-12-29    363.936046  2017-12-29T22:27:54Z    157       155.348     -0.0045      -0.0071        28.642271     28.641577       5.0895     5.0533    -0.0097       99.2598            0.160           -70.1731     -113.61244    99.87      725                      657.352       15777       34.3857   34.3877     8.04564            30         0.00  
3        2017-12-29    363.93606   2017-12-29T22:27:56Z    158       156.338     0.029        0.0273         28.675638     28.651528       5.0658     5.0187    -0.0219       99.2581            0.155           -70.1731     -113.61243    99.87      725                      658.604       15807       34.3916   34.3623     8.03827            30         0.00  
3        2017-12-29    363.936075  2017-12-29T22:27:57Z    159       157.33      0.0834       0.0823         28.727883     28.72885        5.0503     4.9929    -0.0386       99.259             0.149           -70.1731     -113.61242    99.87      725                      659.858       15838       34.399    34.4016     8.02645            30         0.00  
3        2017-12-29    363.936089  2017-12-29T22:27:58Z    160       158.316     0.1075       0.1075         28.750473     28.751745       5.0506     4.9902    -0.0202       99.2201            0.143           -70.1731     -113.61242    99.87      725                      661.093       15867       34.4013   34.403      8.02129            29         0.00  
3        2017-12-29    363.936103  2017-12-29T22:27:59Z    161       159.305     0.11         0.1108         28.753471     28.754822       5.0448     4.9715    -0.031        99.2658            0.140           -70.1731     -113.61242    99.87      725                      662.3         15896       34.4018   34.4028     8.02073            29         0.00  
3        2017-12-29    363.936117  2017-12-29T22:28:01Z    162       160.294     0.1148       0.1157         28.758262     28.76006        5.0358     4.9675    -0.036        99.271             0.134           -70.1731     -113.61242    99.87      725                      663.496       15925       34.4022   34.4036     8.01971            29         0.00  
3        2017-12-29    363.936131  2017-12-29T22:28:02Z    163       161.284     0.1309       0.1305         28.774539     28.775647       5.02       4.9531    -0.013        99.2847            0.129           -70.1731     -113.61242    99.87      725                      664.693       15954       34.4051   34.4069     8.0162             29         0.00  
3        2017-12-29    363.936145  2017-12-29T22:28:03Z    164       162.275     0.1482       0.146          28.791713     28.790588       5.0102     4.9427    -0.0336       99.2939            0.125           -70.1731     -113.61242    99.87      725                      665.897       15983       34.4077   34.4088     8.01243            29         0.00  
3        2017-12-29    363.936159  2017-12-29T22:28:04Z    165       163.263     0.1557       0.1557         28.799325     28.800317       5.0066     4.933     -0.0164       99.2832            0.119           -70.1731     -113.61242    99.87      725                      667.124       16012       34.4088   34.4101     8.01081            30         0.00  
3        2017-12-29    363.936173  2017-12-29T22:28:05Z    166       164.251     0.1578       0.1593         28.801897     28.804638       4.9812     4.9276    -0.0388       99.2918            0.115           -70.1731     -113.6124     99.87      725                      668.384       16042       34.4091   34.4111     8.01034            30         0.00  
3        2017-12-29    363.936188  2017-12-29T22:28:07Z    167       165.238     0.1729       0.1732         28.817911     28.819353       4.9529     4.9043    -0.0367       99.2815            0.110           -70.1731     -113.6124     99.87      725                      669.649       16073       34.4128   34.4143     8.007              27         0.00  
3        2017-12-29    363.936203  2017-12-29T22:28:08Z    168       166.232     0.2254       0.224          28.870058     28.870342       4.907      4.8763    -0.038        99.3018            0.106           -70.1731     -113.6124     99.87      725                      670.937       16103       34.422    34.424      7.99555            30         0.00  
3        2017-12-29    363.936218  2017-12-29T22:28:09Z    169       167.219     0.2705       0.2693         28.915083     28.915271       4.8793     4.8444    -0.0356       99.2999            0.102           -70.1731     -113.6124     99.87      725                      672.205       16134       34.4302   34.4318     7.98573            30         0.00  
3        2017-12-29    363.936232  2017-12-29T22:28:10Z    170       168.206     0.3226       0.3222         28.965857     28.966734       4.8377     4.799     -0.0351       99.2936            0.0993          -70.1731     -113.6124     99.87      725                      673.453       16164       34.4381   34.4396     7.97451            30         0.00  
3        2017-12-29    363.936246  2017-12-29T22:28:12Z    171       169.198     0.3597       0.3585         29.002599     29.002879       4.8006     4.7624    -0.039        99.2884            0.0945          -70.1731     -113.6124     99.87      724                      674.689       16194       34.4442   34.4459     7.96649            30         0.00  
3        2017-12-29    363.936261  2017-12-29T22:28:13Z    172       170.186     0.406        0.4051         29.048281     29.048442       4.8035     4.7565    -0.039        99.1221            0.0915          -70.1731     -113.6124     99.87      724                      675.914       16223       34.4518   34.453      7.95653            29         0.00  
3        2017-12-29    363.936275  2017-12-29T22:28:14Z    173       171.175     0.4187       0.419          29.06069      29.061598       4.7667     4.7419    -0.039        99.3211            0.0886          -70.1731     -113.61238    99.87      723                      677.132       16252       34.4532   34.454      7.95383            29         0.00  
3        2017-12-29    363.936289  2017-12-29T22:28:15Z    174       172.162     0.4361       0.4355         29.078761     29.079191       4.7073     4.6981    -0.039        99.316             0.0849          -70.1731     -113.61238    99.87      723                      678.352       16281       34.4568   34.458      7.95005            30         0.00  
3        2017-12-29    363.936303  2017-12-29T22:28:17Z    175       173.152     0.5411       0.5359         29.181199     29.17899        4.6676     4.6473    -0.0395       99.3172            0.0814          -70.1731     -113.61238    99.87      723                      679.569       16311       34.473    34.4759     7.92761            29         0.00  
3        2017-12-29    363.936317  2017-12-29T22:28:18Z    176       174.144     0.6059       0.6066         29.242371     29.243229       4.6562     4.627     -0.039        99.3253            0.0784          -70.1731     -113.61238    99.87      723                      680.773       16340       34.4799   34.4803     7.91396            29         0.00  
3        2017-12-29    363.936331  2017-12-29T22:28:19Z    177       175.131     0.6107       0.6107         29.249462     29.250345       4.6331     4.6093    -0.0606       99.3264            0.0753          -70.1731     -113.61238    99.87      723                      681.989       16369       34.4832   34.4843     7.91279            29         0.00  
3        2017-12-29    363.936345  2017-12-29T22:28:20Z    178       176.118     0.6276       0.629          29.265772     29.267427       4.5812     4.5785    -0.0669       99.3236            0.0725          -70.1731     -113.61236    99.87      723                      683.211       16398       34.485    34.4856     7.90924            29         0.00  
3        2017-12-29    363.936359  2017-12-29T22:28:21Z    179       177.111     0.6955       0.6752         29.332245     29.336797       4.5173     4.525     -0.0414       99.3303            0.0691          -70.1731     -113.61236    99.87      723                      684.441       16428       34.4953   34.5242     7.89487            30         0.00  
3        2017-12-29    363.936374  2017-12-29T22:28:23Z    180       178.097     0.8118       0.8112         29.442725     29.443288       4.4694     4.48      -0.0395       99.3285            0.0664          -70.1731     -113.61236    99.87      723                      685.697       16458       34.5087   34.5101     7.87053            30         0.00  
3        2017-12-29    363.936389  2017-12-29T22:28:24Z    181       179.087     0.9045       0.9053         29.530287     29.531831       4.4483     4.4392    -0.039        99.3287            0.0638          -70.1731     -113.61236    99.87      723                      686.966       16488       34.5184   34.5195     7.85128            31         0.00  
3        2017-12-29    363.936403  2017-12-29T22:28:25Z    182       180.075     0.9472       0.9464         29.571188     29.571073       4.4283     4.3991    -0.039        99.3258            0.0613          -70.1731     -113.61236    99.87      723                      688.23        16519       34.5234   34.524      7.84243            30         0.00  
3        2017-12-29    363.936418  2017-12-29T22:28:27Z    183       181.066     0.9668       0.9665         29.589809     29.589525       4.4283     4.3875    -0.0548       99.2944            0.0581          -70.1731     -113.61236    99.87      723                      689.488       16549       34.5251   34.525      7.8384             30         0.00  
3        2017-12-29    363.936432  2017-12-29T22:28:28Z    184       182.053     0.9818       0.9816         29.603868     29.603917       4.4218     4.3875    -0.066        99.338             0.0563          -70.1731     -113.61236    99.87      723                      690.725       16578       34.526    34.5263     7.83534            29         0.00  
3        2017-12-29    363.936446  2017-12-29T22:28:29Z    185       183.042     0.9816       0.9358         29.604045     29.604262       4.3618     4.3542    -0.0648       99.3159            0.0534          -70.1731     -113.61235    99.87      723                      691.936       16607       34.5258   34.5786     7.83538            29         0.00  
3        2017-12-29    363.93646   2017-12-29T22:28:30Z    186       184.033     1.0514       1.0484         29.673404     29.672061       4.3045     4.309     -0.0669       99.3284            0.0505          -70.1731     -113.61234    99.87      723                      693.143       16636       34.5373   34.5388     7.82079            29         0.00  
3        2017-12-29    363.936474  2017-12-29T22:28:31Z    187       185.021     1.1606       1.155          29.7767       29.773209       4.2884     4.2709    -0.0425       99.3436            0.0487          -70.1731     -113.61234    99.87      723                      694.351       16665       34.5485   34.5502     7.79836            30         0.00  
3        2017-12-29    363.936488  2017-12-29T22:28:33Z    188       186.009     1.1908       1.1916         29.805419     29.806309       4.2867     4.2513    -0.0611       99.3439            0.0459          -70.1731     -113.61234    99.87      723                      695.569       16695       34.5514   34.5517     7.79221            29         0.00  
3        2017-12-29    363.936502  2017-12-29T22:28:34Z    189       186.999     1.1919       1.1932         29.806779     29.808038       4.2955     4.2474    -0.0478       99.3579            0.0447          -70.1731     -113.61234    99.87      723                      696.813       16725       34.5513   34.5516     7.79198            30         0.00  
3        2017-12-29    363.936517  2017-12-29T22:28:35Z    190       187.989     1.1921       1.1928         29.807281     29.807847       4.304      4.24      -0.0655       99.3579            0.0419          -70.1731     -113.61234    99.87      723                      698.064       16755       34.5511   34.5512     7.79194            30         0.00  
3        2017-12-29    363.936531  2017-12-29T22:28:36Z    191       188.977     1.2032       1.2038         29.819173     29.820113       4.3085     4.2419    -0.0503       99.3579            0.0394          -70.1731     -113.61234    99.87      723                      699.312       16784       34.5536   34.5541     7.78963            30         0.00  
3        2017-12-29    363.936546  2017-12-29T22:28:38Z    192       189.964     1.2011       1.2028         29.817902     29.819374       4.3195     4.2375    -0.0581       99.3508            0.0380          -70.1731     -113.61232    99.87      723                      700.555       16814       34.5537   34.5536     7.79004            30         0.00  
3        2017-12-29    363.93656   2017-12-29T22:28:39Z    193       190.955     1.1804       1.1822         29.798887     29.800401       4.3287     4.2478    -0.0674       99.3613            0.0371          -70.1731     -113.61232    99.87      723                      701.773       16844       34.5516   34.5516     7.79426            28         0.00  
3        2017-12-29    363.936574  2017-12-29T22:28:40Z    194       191.945     1.1503       1.1531         29.771753     29.774146       4.3496     4.2575    -0.0432       99.3502            0.0342          -70.1731     -113.61232    99.87      723                      702.975       16872       34.5495   34.5494     7.80037            29         0.00  
3        2017-12-29    363.936588  2017-12-29T22:28:41Z    195       192.932     1.1215       1.123          29.746569     29.747513       4.362      4.2663    -0.0615       99.354             0.0338          -70.1731     -113.61232    99.87      723                      704.182       16901       34.5484   34.548      7.80616            29         0.00  
3        2017-12-29    363.936602  2017-12-29T22:28:42Z    196       193.921     1.0953       1.0979         29.723149     29.721775       4.3646     4.2778    -0.063        99.3623            0.0309          -70.1731     -113.61232    99.87      723                      705.4         16931       34.5467   34.5427     7.81148            30         0.00  
3        2017-12-29    363.936616  2017-12-29T22:28:44Z    197       194.911     1.1038       1.1033         29.732636     29.732579       4.3643     4.2753    -0.0688       99.3508            0.0304          -70.1731     -113.6123     99.87      723                      706.638       16960       34.5489   34.5494     7.80966            30         0.00  
3        2017-12-29    363.936631  2017-12-29T22:28:45Z    198       195.9       1.0969       1.0985         29.726348     29.727808       4.3578     4.2814    -0.0693       99.3349            0.0272          -70.1731     -113.6123     99.87      723                      707.909       16991       34.5479   34.548      7.81111            31         0.00  
3        2017-12-29    363.936646  2017-12-29T22:28:46Z    199       196.887     1.0928       1.0935         29.723553     29.724388       4.3606     4.2822    -0.065        99.3552            0.0266          -70.1731     -113.6123     99.87      723                      709.186       17021       34.5482   34.5485     7.81189            30         0.00  
3        2017-12-29    363.93666   2017-12-29T22:28:47Z    200       197.877     1.0902       1.0919         29.721876     29.723436       4.3719     4.2847    -0.0637       99.3563            0.0263          -70.1731     -113.6123     99.87      723                      710.457       17052       34.5484   34.5485     7.81241            31         0.00  
3        2017-12-29    363.936675  2017-12-29T22:28:49Z    201       198.867     1.0873       1.0884         29.720166     29.721278       4.3533     4.2781    -0.0643       99.3595            0.0228          -70.1731     -113.6123     99.87      723                      711.701       17082       34.5489   34.549      7.81297            29         0.00  
3        2017-12-29    363.936689  2017-12-29T22:28:50Z    202       199.854     1.0846       1.0856         29.718303     29.719243       4.3641     4.2777    -0.0674       99.3603            0.0227          -70.1731     -113.6123     99.87      721                      712.909       17111       34.5488   34.5489     7.8135             29         0.00  
3        2017-12-29    363.936702  2017-12-29T22:28:51Z    203       200.845     1.0801       1.0819         29.714704     29.716184       4.3798     4.2842    -0.0653       99.3632            0.0213          -70.17308    -113.61228    99.87      721                      714.094       17139       34.5486   34.5485     7.81442            28         0.00  
3        2017-12-29    363.936716  2017-12-29T22:28:52Z    204       201.831     1.0571       1.0596         29.694319     29.69661        4.385      4.2934    -0.0626       99.3632            0.0191          -70.17308    -113.61228    99.87      721                      715.274       17168       34.5473   34.5474     7.81909            28         0.00  
3        2017-12-29    363.93673   2017-12-29T22:28:53Z    205       202.823     1.0471       1.0494         29.686023     29.688265       4.3825     4.2925    -0.0623       99.3438            0.0190          -70.17308    -113.61228    99.87      721                      716.465       17196       34.5471   34.5474     7.82109            29         0.00  
3        2017-12-29    363.936744  2017-12-29T22:28:55Z    206       203.811     1.0482       1.049          29.687904     29.688855       4.3793     4.2837    -0.0664       99.3623            0.0178          -70.17308    -113.61228    99.87      721                      717.687       17225       34.5477   34.548      7.82085            30         0.00  
3        2017-12-29    363.936759  2017-12-29T22:28:56Z    207       204.798     1.0476       1.0489         29.688155     29.689584       4.3873     4.2952    -0.0674       99.2422            0.0152          -70.17308    -113.61228    99.87      721                      718.952       17256       34.5481   34.5485     7.82094            31         0.00  
3        2017-12-29    363.936774  2017-12-29T22:28:57Z    208       205.789     1.0327       1.0345         29.675473     29.676993       4.3911     4.2981    -0.0642       99.3573            0.0152          -70.17308    -113.61226    99.87      721                      720.242       17287       34.5477   34.5477     7.82394            31         0.00  
3        2017-12-29    363.936789  2017-12-29T22:28:59Z    209       206.776     1.0211       1.0219         29.667038     29.668063       4.3831     4.296     -0.0627       99.3632            0.0152          -70.17308    -113.61226    99.87      721                      721.537       17318       34.5491   34.5496     7.82619            31         0.00  
3        2017-12-29    363.936803  2017-12-29T22:29:00Z    210       207.766     1.0234       1.0242         29.669956     29.671004       4.3818     4.2997    -0.0645       99.3632            0.0115          -70.17308    -113.61226    99.87      721                      722.819       17349       34.5498   34.5502     7.8257             30         0.00  
3        2017-12-29    363.936818  2017-12-29T22:29:01Z    211       208.754     1.0232       1.0242         29.670385     29.671526       4.3738     4.2959    -0.0638       99.3632            0.0114          -70.17308    -113.61226    99.87      721                      724.051       17378       34.5499   34.5503     7.82573            29         0.00  
3        2017-12-29    363.936832  2017-12-29T22:29:02Z    212       209.743     1.0296       1.0301         29.677885     29.678717       4.3667     4.2898    -0.0608       99.3632            0.0106          -70.17308    -113.61226    99.87      721                      725.249       17407       34.5519   34.5524     7.82434            29         0.00  
3        2017-12-29    363.936845  2017-12-29T22:29:03Z    213       210.733     1.0378       1.0384         29.686872     29.687828       4.3618     4.2841    -0.0689       99.3305            0.00979         -70.17308    -113.61226    99.87      721                      726.429       17435       34.5538   34.5544     7.8226             28         0.00  
3        2017-12-29    363.936859  2017-12-29T22:29:05Z    214       211.72      1.044        1.0451         29.693794     29.69503        4.351      4.281     -0.0647       99.3612            0.00764         -70.17308    -113.61225    99.87      721                      727.601       17463       34.5552   34.5556     7.82128            28         0.00  
3        2017-12-29    363.936873  2017-12-29T22:29:06Z    215       212.711     1.0514       1.0513         29.701841     29.702119       4.3518     4.2714    -0.0664       99.3641            0.00763         -70.17308    -113.61224    99.87      721                      728.796       17492       34.5568   34.5573     7.81971            29         0.00  
3        2017-12-29    363.936887  2017-12-29T22:29:07Z    216       213.699     1.0566       1.0573         29.707584     29.708546       4.3421     4.2627    -0.0684       99.3632            0.00763         -70.17308    -113.61224    99.87      721                      730.024       17522       34.5579   34.5583     7.81862            30         0.00  
3        2017-12-29    363.936901  2017-12-29T22:29:08Z    217       214.687     1.0598       1.0603         29.71137      29.71212        4.3271     4.2694    -0.0467       99.3632            0.00723         -70.17308    -113.61224    99.87      721                      731.275       17552       34.5586   34.559      7.81794            27         0.00  
3        2017-12-29    363.936916  2017-12-29T22:29:10Z    218       215.676     1.0716       1.0707         29.724276     29.723819       4.279      4.2501    -0.0696       99.3632            0.00448         -70.17308    -113.61224    99.87      721                      732.533       17582       34.5615   34.5619     7.81542            30         0.00  
3        2017-12-29    363.93693   2017-12-29T22:29:11Z    219       216.666     1.128        1.1279         29.779684     29.780464       4.236      4.2124    -0.0656       99.3632            0.00388         -70.17308    -113.61224    99.87      721                      733.792       17612       34.5697   34.5708     7.80372            31         0.00  
3        2017-12-29    363.936945  2017-12-29T22:29:12Z    220       217.653     1.2342       1.2329         29.882908     29.883003       4.2019     4.1713    -0.0699       99.3632            0.00388         -70.17308    -113.61223    99.87      721                      735.037       17642       34.584    34.5855     7.78183            29         0.00  
3        2017-12-29    363.936959  2017-12-29T22:29:13Z    221       218.643     1.2676       1.268          29.913997     29.914581       4.2033     4.1581    -0.0649       99.3632            0.00388         -70.17308    -113.61222    99.87      721                      736.276       17672       34.5863   34.5866     7.77508            30         0.00  
3        2017-12-29    363.936974  2017-12-29T22:29:15Z    222       219.633     1.2756       1.2771         29.922487     29.923919       4.1983     4.1508    -0.065        99.3676            0.00113         -70.17308    -113.61222    99.87      721                      737.519       17701       34.5877   34.5879     7.77341            30         0.00  
3        2017-12-29    363.936988  2017-12-29T22:29:16Z    223       220.62      1.2779       1.2789         29.925027     29.925934       4.1811     4.1294    -0.0684       99.3712            0.000150        -70.17308    -113.61222    99.87      721                      738.756       17731       34.5878   34.588      7.77295            30         0.00  
3        2017-12-29    363.937002  2017-12-29T22:29:17Z    224       221.609     1.3157       1.3206         29.963962     29.969082       4.1746     4.1159    -0.0684       99.3659            0.000139        -70.17309    -113.61221    99.87      721                      740.003       17761       34.5954   34.5964     7.76508            30         0.00  
3        2017-12-29    363.937017  2017-12-29T22:29:18Z    225       222.6       1.3329       1.3338         29.980016     29.980944       4.1909     4.1187    -0.0684       99.3696            0.000139        -70.1731     -113.6122     99.87      721                      741.246       17791       34.5962   34.5965     7.76163            29         0.00  
3        2017-12-29    363.937031  2017-12-29T22:29:19Z    226       223.586     1.3333       1.3345         29.980724     29.981738       4.1959     4.1139    -0.0684       99.365             0.000139        -70.1731     -113.6122     99.87      721                      742.465       17820       34.5961   34.5961     7.76156            29         0.00  
3        2017-12-29    363.937045  2017-12-29T22:29:21Z    227       224.575     1.3194       1.3204         29.968063     29.968967       4.1962     4.114     -0.0684       99.3697            0.000105        -70.1731     -113.6122     99.87      721                      743.673       17849       34.5948   34.5948     7.76438            29         0.00  
3        2017-12-29    363.937059  2017-12-29T22:29:22Z    228       225.565     1.3153       1.3169         29.964915     29.966501       4.1998     4.1238    -0.0684       99.3641            4.21E-7         -70.1731     -113.6122     99.87      721                      744.87        17878       34.5947   34.5949     7.7652             29         0.00  
3        2017-12-29    363.937072  2017-12-29T22:29:23Z    229       226.554     1.299        1.3013         29.949773     29.951719       4.2062     4.1205    -0.065        99.387             1.00E-12        -70.1731     -113.6122     99.87      721                      746.059       17906       34.5927   34.5927     7.76852            28         0.00  
3        2017-12-29    363.937086  2017-12-29T22:29:24Z    230       227.54      1.287        1.2888         29.939637     29.941447       4.2102     4.1289    -0.0654       99.3601            1.00E-12        -70.1731     -113.61218    99.87      721                      747.263       17935       34.5924   34.5927     7.7709             29         0.00  
3        2017-12-29    363.937101  2017-12-29T22:29:26Z    231       228.531     1.2886       1.2911         29.941553     29.944084       4.1998     4.1204    -0.0655       99.3785            1.00E-12        -70.1731     -113.61218    99.87      721                      748.493       17965       34.5925   34.593      7.77058            30         0.00  
3        2017-12-29    363.937115  2017-12-29T22:29:27Z    232       229.52      1.3058       1.3061         29.959852     29.960867       4.1769     4.1098    -0.0625       99.3774            1.00E-12        -70.1731     -113.61217    99.87      721                      749.74        17995       34.5958   34.5973     7.76702            30         0.00  
3        2017-12-29    363.93713   2017-12-29T22:29:28Z    233       230.508     1.339        1.3385         29.991764     29.991195       4.1839     4.1092    -0.0627       99.3569            1.00E-12        -70.17311    -113.61216    99.87      721                      751.015       18025       34.5999   34.5997     7.76024            31         0.00  
3        2017-12-29    363.937145  2017-12-29T22:29:29Z    234       231.497     1.3329       1.3344         29.986538     29.987941       4.1784     4.1043    -0.0665       99.3719            1.00E-12        -70.17312    -113.61216    99.87      721                      752.303       18056       34.5993   34.5995     7.76146            31         0.00  
3        2017-12-29    363.937159  2017-12-29T22:29:31Z    235       232.486     1.3372       1.3398         29.992013     29.994733       4.1638     4.0931    -0.0641       99.3667            1.00E-12        -70.17312    -113.61216    99.87      721                      753.572       18087       34.601    34.6016     7.76053            31         0.00  
3        2017-12-29    363.937174  2017-12-29T22:29:32Z    236       233.474     1.3503       1.3564         30.004921     30.010587       4.1746     4.0931    -0.0689       99.365             1.00E-12        -70.17312    -113.61216    99.87      721                      754.834       18117       34.6025   34.6029     7.75787            29         0.00  
3        2017-12-29    363.937188  2017-12-29T22:29:33Z    237       234.462     1.3606       1.3628         30.015102     30.017243       4.1664     4.0933    -0.0634       99.3677            1.00E-12        -70.17312    -113.61216    99.87      721                      756.074       18147       34.6034   34.6038     7.75577            30         0.00  
3        2017-12-29    363.937203  2017-12-29T22:29:34Z    238       235.452     1.3558       1.3588         30.011195     30.013698       4.1674     4.0875    -0.0654       99.3697            1.00E-12        -70.17312    -113.61214    99.87      721                      757.297       18176       34.6032   34.6031     7.75674            29         0.00  
3        2017-12-29    363.937217  2017-12-29T22:29:36Z    239       236.442     1.359        1.3612         30.015694     30.017973       4.173      4.087     -0.0701       99.3734            1.00E-12        -70.17312    -113.61214    99.87      721                      758.509       18205       34.6048   34.6053     7.75601            29         0.00  
3        2017-12-29    363.937231  2017-12-29T22:29:37Z    240       237.428     1.3559       1.3563         30.012939     30.013394       4.1667     4.0776    -0.0684       99.3743            1.00E-12        -70.17312    -113.61214    99.87      721                      759.724       18234       34.6042   34.6043     7.75667            29         0.00  
3        2017-12-29    363.937245  2017-12-29T22:29:38Z    241       238.418     1.3497       1.3514         30.007507     30.009146       4.1725     4.0862    -0.0684       99.3761            1.00E-12        -70.17312    -113.61214    99.87      721                      760.93        18263       34.6035   34.6037     7.75793            29         0.00  
3        2017-12-29    363.937259  2017-12-29T22:29:39Z    242       239.406     1.3336       1.3345         29.99372      29.994669       4.1758     4.094     -0.0684       99.3739            1.00E-12        -70.17312    -113.61214    99.87      721                      762.145       18292       34.6031   34.6033     7.76113            30         0.00  
3        2017-12-29    363.937273  2017-12-29T22:29:40Z    243       240.397     1.3271       1.3288         29.988441     29.990179       4.1708     4.0914    -0.0684       99.3843            1.00E-12        -70.17312    -113.61212    99.87      721                      763.365       18322       34.6029   34.6033     7.76241            29         0.00  
3        2017-12-29    363.937287  2017-12-29T22:29:42Z    244       241.384     1.3303       1.33           29.992773     29.992678       4.1585     4.0894    -0.0684       99.3797            1.00E-12        -70.17312    -113.61212    99.87      721                      764.589       18351       34.6043   34.6045     7.7617             29         0.00  
3        2017-12-29    363.937301  2017-12-29T22:29:43Z    245       242.373     1.3438       1.3445         30.006588     30.007569       4.1546     4.081     -0.0684       99.3864            1.00E-12        -70.17312    -113.61212    99.87      721                      765.821       18381       34.6065   34.6069     7.75892            30         0.00  
3        2017-12-29    363.937316  2017-12-29T22:29:44Z    246       243.362     1.3625       1.3625         30.026176     30.026477       4.1444     4.0736    -0.0669       99.3756            1.00E-12        -70.17312    -113.61211    99.87      721                      767.065       18411       34.6103   34.6107     7.75503            30         0.00  
3        2017-12-29    363.93733   2017-12-29T22:29:45Z    247       244.35      1.3741       1.3747         30.038705     30.039572       4.1381     4.0676    -0.0728       99.381             1.00E-12        -70.17312    -113.6121     99.87      721                      768.309       18440       34.6129   34.6133     7.7526             30         0.00  
3        2017-12-29    363.937345  2017-12-29T22:29:47Z    248       245.338     1.3888       1.3892         30.053094     30.05369        4.1351     4.0597    -0.0634       99.3846            1.00E-12        -70.17312    -113.6121     99.87      721                      769.57        18471       34.6145   34.6147     7.74963            30         0.00  
3        2017-12-29    363.937359  2017-12-29T22:29:48Z    249       246.329     1.3865       1.387          30.051874     30.052403       4.1349     4.0563    -0.0645       99.3765            1.00E-12        -70.17312    -113.6121     99.87      720                      770.816       18501       34.6148   34.615      7.75005            30         0.00  
3        2017-12-29    363.937373  2017-12-29T22:29:49Z    250       247.315     1.3944       1.3951         30.060469     30.061358       4.1192     4.0477    -0.0693       99.3757            1.00E-12        -70.17312    -113.6121     99.87      719                      772.052       18530       34.6165   34.6168     7.74841            30         0.00  
3        2017-12-29    363.937388  2017-12-29T22:29:50Z    251       248.307     1.397        1.3978         30.064265     30.065039       4.1152     4.049     -0.0644       99.3761            1.00E-12        -70.17312    -113.6121     99.87      719                      773.288       18560       34.6179   34.618      7.74783            29         0.00  
3        2017-12-29    363.937402  2017-12-29T22:29:52Z    252       249.292     1.4091       1.4082         30.077024     30.076491       4.1074     4.0429    -0.0735       99.3835            1.00E-12        -70.17312    -113.61209    99.87      719                      774.513       18589       34.6203   34.6205     7.74532            29         0.00  
3        2017-12-29    363.937416  2017-12-29T22:29:53Z    253       250.284     1.417        1.4173         30.085313     30.085995       4.1135     4.0407    -0.0659       99.381             1.00E-12        -70.17312    -113.61208    99.87      719                      775.737       18619       34.6216   34.622      7.7437             30         0.00  
3        2017-12-29    363.93743   2017-12-29T22:29:54Z    254       251.269     1.426        1.4265         30.094988     30.0957         4.093      4.0255    -0.0703       99.381             1.00E-12        -70.17312    -113.61208    99.87      719                      776.974       18648       34.6233   34.6236     7.74183            30         0.00  
3        2017-12-29    363.937445  2017-12-29T22:29:55Z    255       252.261     1.449        1.4492         30.119049     30.11995        4.0811     4.0173    -0.0703       99.3828            1.00E-12        -70.17312    -113.61208    99.87      719                      778.216       18678       34.6281   34.6289     7.73707            30         0.00  
3        2017-12-29    363.937459  2017-12-29T22:29:56Z    256       253.248     1.4727       1.4737         30.14314      30.14411        4.0775     4.0107    -0.069        99.3802            1.00E-12        -70.17312    -113.61208    99.87      719                      779.46        18708       34.632    34.6321     7.7322             30         0.00  
3        2017-12-29    363.937473  2017-12-29T22:29:58Z    257       254.235     1.4751       1.4756         30.146638     30.147354       4.0727     4.0002    -0.0684       99.3834            1.00E-12        -70.17312    -113.61207    99.87      719                      780.706       18738       34.6332   34.6336     7.73166            29         0.00  
3        2017-12-29    363.937488  2017-12-29T22:29:59Z    258       255.225     1.4811       1.482          30.152961     30.154104       4.0749     3.9967    -0.0684       99.3881            1.00E-12        -70.17313    -113.61206    99.87      719                      781.927       18767       34.6341   34.6345     7.73044            29         0.00  
3        2017-12-29    363.937501  2017-12-29T22:30:00Z    259       256.216     1.4767       1.4785         30.149296     30.150966       4.0789     5.0842    -0.0678       99.3853            1.00E-12        -70.17314    -113.61206    99.87      719                      783.125       18796       34.6337   34.6337     7.73133            29         0.00  
3        2017-12-29    363.937515  2017-12-29T22:30:01Z    260       257.201     1.4661       1.4673         30.140477     30.141628       4.0705     2.9745    -0.0669       99.3898            1.00E-12        -70.17314    -113.61206    99.87      719                      784.319       18825       34.6335   34.6337     7.7334             29         0.00  
3        2017-12-29    363.937529  2017-12-29T22:30:03Z    261       258.193     1.4759       1.4754         30.150993     30.151053       4.0651     3.8894    -0.071        99.3823            1.00E-12        -70.17314    -113.61206    99.87      719                      785.513       18853       34.6356   34.6362     7.73138            28         0.00  
3        2017-12-29    363.937543  2017-12-29T22:30:04Z    262       259.18      1.5025       1.5037         30.176983     30.178315       4.0521     3.9894    -0.0645       99.3792            1.00E-12        -70.17314    -113.61206    99.87      719                      786.724       18882       34.6387   34.6391     7.72599            30         0.00  
3        2017-12-29    363.937558  2017-12-29T22:30:05Z    263       260.169     1.5097       1.5109         30.184645     30.18608        4.0564     3.9681    -0.063        99.3881            1.00E-12        -70.17314    -113.61205    99.87      719                      787.979       18913       34.64     34.6404     7.72452            30         0.00  
3        2017-12-29    363.937573  2017-12-29T22:30:06Z    264       261.158     1.5119       1.5128         30.18783      30.188644       4.0594     3.9784    -0.0693       98.2343            1.00E-12        -70.17314    -113.61204    99.87      719                      789.268       18943       34.6409   34.6411     7.72402            32         0.00  
3        2017-12-29    363.937588  2017-12-29T22:30:08Z    265       262.146     1.5061       1.5071         30.183326     30.184351       4.0643     3.9804    -0.0642       99.3831            1.00E-12        -70.17314    -113.61204    99.87      719                      790.575       18975       34.641    34.6413     7.72516            31         0.00  
3        2017-12-29    363.937603  2017-12-29T22:30:09Z    266       263.134     1.5107       1.5115         30.188878     30.189929       4.0584     3.9763    -0.0726       99.3899            1.00E-12        -70.17314    -113.61204    99.87      719                      791.871       19006       34.6425   34.6429     7.72418            31         0.00  
3        2017-12-29    363.937617  2017-12-29T22:30:10Z    267       264.121     1.5181       1.5191         30.196998     30.198114       4.0515     3.9728    -0.0684       99.3899            1.00E-12        -70.17314    -113.61204    99.87      719                      793.127       19036       34.644    34.6444     7.72265            29         0.00  
3        2017-12-29    363.937631  2017-12-29T22:30:11Z    268       265.111     1.5213       1.5226         30.200624     30.202254       4.0463     3.9656    -0.0633       99.3899            1.00E-12        -70.17314    -113.61204    99.87      719                      794.339       19065       34.6446   34.6452     7.722              29         0.00  
3        2017-12-29    363.937645  2017-12-29T22:30:13Z    269       266.101     1.523        1.524          30.202931     30.204061       4.0456     3.9623    -0.0631       99.3899            1.00E-12        -70.17314    -113.61202    99.87      719                      795.526       19094       34.645    34.6454     7.72163            28         0.00  
3        2017-12-29    363.937658  2017-12-29T22:30:14Z    270       267.088     1.526        1.5269         30.207189     30.208439       4.0391     3.9595    -0.0626       99.3899            1.00E-12        -70.17314    -113.61202    99.87      719                      796.688       19122       34.6465   34.6471     7.72097            28         0.00  
3        2017-12-29    363.937672  2017-12-29T22:30:15Z    271       268.078     1.5359       1.5364         30.21778      30.218674       4.0374     3.955     -0.0695       99.3899            1.00E-12        -70.17314    -113.61202    99.87      719                      797.857       19150       34.6485   34.6491     7.71893            28         0.00  
3        2017-12-29    363.937686  2017-12-29T22:30:16Z    272       269.065     1.5423       1.543          30.225062     30.225953       4.0305     3.9542    -0.073        99.3899            1.00E-12        -70.17314    -113.61202    99.87      719                      799.055       19178       34.6501   34.6505     7.71759            29         0.00  
3        2017-12-29    363.9377    2017-12-29T22:30:17Z    273       270.054     1.5472       1.548          30.230384     30.231587       4.03       3.9548    -0.0723       99.3899            1.00E-12        -70.17314    -113.61202    59.14      719                      800.286       19208       34.651    34.6516     7.71659            30         0.00  
3        2017-12-29    363.937715  2017-12-29T22:30:19Z    274       271.044     1.5505       1.5513         30.234315     30.235465       4.0206     3.9482    -0.0655       99.3899            1.00E-12        -70.17314    -113.612      100.1      719                      801.549       19238       34.6517   34.6523     7.71591            31         0.00  
3        2017-12-29    363.93773   2017-12-29T22:30:20Z    275       272.031     1.5533       1.5539         30.237694     30.2386         4.0268     3.9464    -0.0437       99.3899            1.00E-12        -70.17314    -113.612      99.87      719                      802.838       19269       34.6523   34.6528     7.71532            31         0.00  
3        2017-12-29    363.937744  2017-12-29T22:30:21Z    276       273.019     1.5595       1.56           30.244539     30.245476       4.0255     3.9428    -0.065        99.3899            1.00E-12        -70.17314    -113.612      99.87      719                      804.121       19300       34.6537   34.6543     7.71405            31         0.00  
3        2017-12-29    363.937759  2017-12-29T22:30:22Z    277       274.009     1.5633       1.5639         30.248763     30.249877       4.0199     3.9455    -0.0722       99.3899            1.00E-12        -70.17314    -113.612      99.87      719                      805.385       19330       34.6542   34.6549     7.71327            30         0.00  
3        2017-12-29    363.937773  2017-12-29T22:30:24Z    278       274.996     1.5656       1.5664         30.251659     30.252798       4.0151     3.9384    -0.0668       99.3899            1.00E-12        -70.17314    -113.612      99.87      719                      806.629       19360       34.6548   34.6554     7.7128             29         0.00  
3        2017-12-29    363.937788  2017-12-29T22:30:25Z    279       275.985     1.5693       1.5698         30.25641      30.256914       4.0098     3.943     -0.0684       99.3899            1.00E-12        -70.17314    -113.61199    99.87      719                      807.845       19389       34.6558   34.6563     7.71202            29         0.00  
3        2017-12-29    363.937802  2017-12-29T22:30:26Z    280       276.975     1.5738       1.5747         30.261542     30.262696       4.0101     3.9413    -0.0715       99.3908            1.00E-12        -70.17314    -113.61198    99.87      719                      809.054       19418       34.6571   34.6576     7.71106            29         0.00  
3        2017-12-29    363.937815  2017-12-29T22:30:27Z    281       277.962     1.5782       1.5788         30.266586     30.267456       4.0078     3.9324    -0.0628       99.3714            1.00E-12        -70.17314    -113.61198    99.87      719                      810.257       19447       34.6581   34.6585     7.71014            29         0.00  
3        2017-12-29    363.937829  2017-12-29T22:30:28Z    282       278.952     1.5844       1.5849         30.2734       30.274425       4.0038     3.9312    -0.0699       99.3881            1.00E-12        -70.17314    -113.61198    99.87      719                      811.461       19476       34.6593   34.6601     7.70887            29         0.00  
3        2017-12-29    363.937843  2017-12-29T22:30:30Z    283       279.939     1.5891       1.5898         30.27873      30.279789       4.0092     3.9277    -0.074        99.3908            1.00E-12        -70.17314    -113.61198    99.87      719                      812.675       19505       34.6604   34.661      7.7079             29         0.00  
3        2017-12-29    363.937858  2017-12-29T22:30:31Z    284       280.93      1.5897       1.5906         30.279712     30.281039       4.0036     3.9257    -0.0679       99.3729            1.00E-12        -70.17314    -113.61198    99.87      719                      813.904       19535       34.6603   34.661      7.70778            30         0.00  
3        2017-12-29    363.937872  2017-12-29T22:30:32Z    285       281.915     1.5898       1.5906         30.280265     30.281468       4.0012     3.9247    -0.0631       99.388             1.00E-12        -70.17314    -113.61198    99.87      719                      815.135       19564       34.6604   34.661      7.70776            30         0.00  
3        2017-12-29    363.937886  2017-12-29T22:30:33Z    286       282.907     1.5914       1.592          30.282196     30.283416       4.0084     3.9241    -0.065        99.3864            1.00E-12        -70.17314    -113.61196    99.87      719                      816.386       19594       34.6605   34.6614     7.70745            30         0.00  
3        2017-12-29    363.937901  2017-12-29T22:30:35Z    287       283.893     1.5929       1.5935         30.284158     30.285376       4.0017     3.9191    -0.061        99.3899            1.00E-12        -70.17314    -113.61196    99.87      719                      817.654       19625       34.6608   34.6616     7.70714            30         0.00  
3        2017-12-29    363.937916  2017-12-29T22:30:36Z    288       284.882     1.5984       1.5984         30.290657     30.291195       3.995      3.922     -0.0651       99.3899            1.00E-12        -70.17314    -113.61196    99.87      719                      818.92        19655       34.6623   34.6631     7.70598            31         0.00  
3        2017-12-29    363.93793   2017-12-29T22:30:37Z    289       285.871     1.606        1.6062         30.29884      30.299602       3.9898     3.9224    -0.0635       99.3899            1.00E-12        -70.17314    -113.61196    99.87      719                      820.193       19686       34.6639   34.6646     7.70443            30         0.00  
3        2017-12-29    363.937945  2017-12-29T22:30:38Z    290       286.86      1.6107       1.6112         30.304099     30.305157       3.9936     3.9146    -0.0713       99.3881            1.00E-12        -70.17314    -113.61194    99.87      719                      821.44        19716       34.6647   34.6655     7.70346            30         0.00  
3        2017-12-29    363.937959  2017-12-29T22:30:40Z    291       287.846     1.6123       1.613          30.30619      30.30743        3.9968     3.9188    -0.0659       99.3506            1.00E-12        -70.17314    -113.61194    99.87      719                      822.656       19745       34.665    34.6658     7.70313            29         0.00  
3        2017-12-29    363.937973  2017-12-29T22:30:41Z    292       288.837     1.6132       1.6139         30.307537     30.308787       3.9926     3.9136    -0.0699       99.384             1.00E-12        -70.17314    -113.61194    99.87      719                      823.849       19773       34.6651   34.666      7.70294            28         0.00  
3        2017-12-29    363.937986  2017-12-29T22:30:42Z    293       289.825     1.6144       1.615          30.309216     30.310475       3.9965     3.9096    -0.0678       99.392             1.00E-12        -70.17314    -113.61194    99.87      719                      825.032       19802       34.6654   34.6663     7.70271            28         0.00  
3        2017-12-29    363.938     2017-12-29T22:30:43Z    294       290.813     1.6148       1.6155         30.310095     30.31138        3.9983     3.9146    -0.0618       99.3899            1.00E-12        -70.17314    -113.61194    99.87      719                      826.213       19830       34.6655   34.6664     7.70262            29         0.00  
3        2017-12-29    363.938014  2017-12-29T22:30:44Z    295       291.801     1.6153       1.616          30.311045     30.312459       3.9941     3.9115    -0.063        99.3899            1.00E-12        -70.17314    -113.61194    99.87      719                      827.425       19859       34.6656   34.6666     7.70252            30         0.00  
3        2017-12-29    363.938029  2017-12-29T22:30:46Z    296       292.791     1.6182       1.6186         30.314663     30.315895       3.9922     3.9094    -0.063        99.3899            1.00E-12        -70.17314    -113.61192    99.87      719                      828.667       19889       34.6664   34.6675     7.7019             30         0.00  
3        2017-12-29    363.938043  2017-12-29T22:30:47Z    297       293.779     1.6218       1.6223         30.318743     30.320063       3.9967     3.9077    -0.063        99.3899            1.00E-12        -70.17314    -113.61192    99.87      719                      829.933       19919       34.6671   34.6681     7.70117            30         0.00  
3        2017-12-29    363.938058  2017-12-29T22:30:48Z    298       294.766     1.6222       1.6228         30.319623     30.321046       3.9942     3.904     -0.0603       99.3899            1.00E-12        -70.17314    -113.61192    99.87      719                      831.211       19950       34.6672   34.6682     7.70109            31         0.00  
3        2017-12-29    363.938073  2017-12-29T22:30:50Z    299       295.755     1.6234       1.624          30.321437     30.322728       3.9938     3.9038    -0.0679       99.3899            1.00E-12        -70.17314    -113.61192    99.87      719                      832.475       19980       34.6676   34.6685     7.70084            30         0.00  
3        2017-12-29    363.938087  2017-12-29T22:30:51Z    300       296.744     1.6242       1.6248         30.322829     30.32414        3.9948     3.9075    -0.0638       99.3899            1.00E-12        -70.17314    -113.61192    99.87      719                      833.712       20010       34.6678   34.6689     7.70066            29         0.00  
3        2017-12-29    363.938101  2017-12-29T22:30:52Z    301       297.731     1.6281       1.6285         30.327443     30.328743       3.9908     3.9069    -0.0587       99.3899            1.00E-12        -70.17314    -113.61192    99.87      719                      834.93        20039       34.6689   34.67       7.69985            29         0.00  
3        2017-12-29    363.938115  2017-12-29T22:30:53Z    302       298.72      1.6287       1.6291         30.328763     30.329737       3.9824     3.9051    -0.0685       99.3899            1.00E-12        -70.17314    -113.6119     99.87      719                      836.133       20068       34.6692   34.6701     7.6997             29         0.00  
3        2017-12-29    363.938129  2017-12-29T22:30:54Z    303       299.711     1.6293       1.63           30.32983      30.331295       3.9841     3.9028    -0.0684       99.3899            1.00E-12        -70.17314    -113.6119     99.87      719                      837.336       20097       34.6694   34.6705     7.69958            29         0.00  
3        2017-12-29    363.938143  2017-12-29T22:30:56Z    304       300.698     1.6339       1.6347         30.335163     30.336793       3.9802     3.901     -0.0611       99.3872            1.00E-12        -70.17314    -113.6119     99.87      719                      838.559       20126       34.6705   34.6716     7.69863            30         0.00  
3        2017-12-29    363.938157  2017-12-29T22:30:57Z    305       301.685     1.6355       1.6361         30.337417     30.338629       3.9843     3.8992    -0.063        99.3855            1.00E-12        -70.17314    -113.6119     99.87      719                      839.797       20156       34.671    34.6719     7.69829            30         0.00  
3        2017-12-29    363.938172  2017-12-29T22:30:58Z    306       302.674     1.6419       1.6421         30.34461      30.345682       3.9807     3.8958    -0.0601       99.3461            1.00E-12        -70.17314    -113.61189    99.87      719                      841.041       20186       34.6725   34.6737     7.69697            30         0.00  
3        2017-12-29    363.938186  2017-12-29T22:30:59Z    307       303.663     1.6473       1.648          30.350916     30.352379       3.9768     3.8944    -0.0688       99.3892            1.00E-12        -70.17314    -113.61188    99.87      719                      842.294       20216       34.674    34.6751     7.69584            30         0.00  
3        2017-12-29    363.938201  2017-12-29T22:31:01Z    308       304.652     1.6503       1.6508         30.35468      30.355814       3.9781     3.8903    -0.0623       99.3899            1.00E-12        -70.17314    -113.61188    99.87      719                      843.538       20246       34.6749   34.6758     7.69521            29         0.00  
3        2017-12-29    363.938215  2017-12-29T22:31:02Z    309       305.638     1.6553       1.6557         30.360569     30.361837       3.9764     3.8939    -0.0659       99.3899            1.00E-12        -70.17314    -113.61188    99.87      719                      844.769       20275       34.6763   34.6774     7.69416            30         0.00  
3        2017-12-29    363.938229  2017-12-29T22:31:03Z    310       306.629     1.6603       1.6608         30.366253     30.367508       3.9717     3.8886    -0.0704       99.3706            1.00E-12        -70.17314    -113.61188    99.87      719                      846           20305       34.6773   34.6784     7.69312            29         0.00  
3        2017-12-29    363.938243  2017-12-29T22:31:04Z    311       307.615     1.6638       1.6646         30.370693     30.371159       3.9757     3.8891    -0.064        99.3845            1.00E-12        -70.17314    -113.61188    99.87      718                      847.224       20334       34.6786   34.6782     7.69238            30         0.00  
3        2017-12-29    363.938258  2017-12-29T22:31:05Z    312       308.609     1.6653       1.666          30.37277      30.374173       3.9768     3.8855    -0.0579       99.3857            1.00E-12        -70.17314    -113.61187    99.87      719                      848.454       20364       34.6789   34.68       7.69207            26         0.00  
3        2017-12-29    363.938272  2017-12-29T22:31:07Z    313       309.595     1.666        1.6668         30.374007     30.375608       3.9765     3.883     -0.0684       99.3779            1.00E-12        -70.17314    -113.61186    99.87      717                      849.673       20393       34.6792   34.6804     7.69193            29         0.00  
3        2017-12-29    363.938286  2017-12-29T22:31:08Z    314       310.58      1.667        1.6674         30.375491     30.376854       3.9674     3.8866    -0.0633       99.3817            1.00E-12        -70.17314    -113.61186    99.87      717                      850.891       20422       34.6794   34.6806     7.69172            29         0.00  
3        2017-12-29    363.9383    2017-12-29T22:31:09Z    315       311.569     1.6698       1.6704         30.37913      30.380927       3.9702     3.8892    -0.071        99.3816            1.00E-12        -70.17314    -113.61186    99.87      717                      852.097       20451       34.6803   34.6819     7.69112            29         0.00  
3        2017-12-29    363.938314  2017-12-29T22:31:10Z    316       312.559     1.6712       1.6718         30.381547     30.382965       3.9625     3.8849    -0.0703       99.3881            1.00E-12        -70.17314    -113.61186    99.87      717                      853.316       20481       34.6813   34.6824     7.6908             30         0.00  
3        2017-12-29    363.938328  2017-12-29T22:31:12Z    317       313.546     1.6737       1.6743         30.384716     30.386106       3.9697     3.8816    -0.0629       99.3858            1.00E-12        -70.17314    -113.61185    99.87      717                      854.531       20510       34.682    34.6831     7.69028            29         0.00  
3        2017-12-29    363.938342  2017-12-29T22:31:13Z    318       314.534     1.6741       1.6748         30.385623     30.386996       3.9676     3.8839    -0.0586       99.3899            1.00E-12        -70.17314    -113.61184    99.87      717                      855.764       20539       34.6822   34.6831     7.6902             30         0.00  
3        2017-12-29    363.938357  2017-12-29T22:31:14Z    319       315.524     1.6752       1.6757         30.387147     30.388461       3.9646     3.8816    -0.0669       99.3899            1.00E-12        -70.17314    -113.61184    99.87      717                      857.013       20569       34.6823   34.6834     7.68998            30         0.00  
3        2017-12-29    363.938371  2017-12-29T22:31:15Z    320       316.512     1.6751       1.6758         30.387611     30.388943       3.9652     3.8831    -0.0654       99.3918            1.00E-12        -70.17314    -113.61184    99.87      717                      858.275       20600       34.6823   34.6833     7.68998            30         0.00  
3        2017-12-29    363.938386  2017-12-29T22:31:17Z    321       317.499     1.6762       1.6766         30.389173     30.390402       3.9678     3.8826    -0.0613       99.3839            1.00E-12        -70.17314    -113.61184    99.87      717                      859.544       20630       34.6825   34.6837     7.68975            31         0.00  
3        2017-12-29    363.938401  2017-12-29T22:31:18Z    322       318.487     1.6774       1.6777         30.390778     30.391836       3.9693     3.8761    -0.0606       99.3739            1.00E-12        -70.17314    -113.61184    99.87      717                      860.814       20661       34.6827   34.6837     7.68952            30         0.00  
3        2017-12-29    363.938415  2017-12-29T22:31:19Z    323       319.478     1.6788       1.6792         30.392824     30.393991       3.9676     3.8817    -0.0618       99.3911            1.00E-12        -70.17314    -113.61183    99.87      717                      862.058       20690       34.6832   34.6843     7.68922            29         0.00  
3        2017-12-29    363.938429  2017-12-29T22:31:20Z    324       320.464     1.6813       1.6817         30.39586      30.397135       3.9683     3.8806    -0.0674       99.3953            1.00E-12        -70.17314    -113.61182    99.87      717                      863.272       20720       34.6838   34.6849     7.68872            30         0.00  
3        2017-12-29    363.938443  2017-12-29T22:31:21Z    325       321.452     1.6822       1.6828         30.39744      30.398825       3.9664     3.8776    -0.0596       99.39              1.00E-12        -70.17314    -113.61182    99.87      717                      864.465       20748       34.6841   34.6853     7.68851            28         0.00  
3        2017-12-29    363.938456  2017-12-29T22:31:23Z    326       322.443     1.6839       1.6846         30.399974     30.40148        3.9641     3.8751    -0.0615       99.3419            1.00E-12        -70.17314    -113.61182    99.87      717                      865.631       20776       34.6849   34.686      7.68813            28         0.00  
3        2017-12-29    363.93847   2017-12-29T22:31:24Z    327       323.429     1.6866       1.687          30.40322      30.404483       3.961      3.8726    -0.0611       99.3289            1.00E-12        -70.17314    -113.61182    99.87      717                      866.802       20804       34.6854   34.6867     7.68758            28         0.00  
3        2017-12-29    363.938484  2017-12-29T22:31:25Z    328       324.418     1.6898       1.6902         30.407121     30.40824        3.9645     3.8769    -0.0578       99.3903            1.00E-12        -70.17314    -113.61182    99.87      717                      867.99        20833       34.6864   34.6873     7.68693            29         0.00  
3        2017-12-29    363.938498  2017-12-29T22:31:26Z    329       325.408     1.6911       1.6915         30.408791     30.410074       3.9594     3.8761    -0.0669       99.3936            1.00E-12        -70.17314    -113.61182    99.87      717                      869.207       20862       34.6865   34.6876     7.68667            29         0.00  
3        2017-12-29    363.938512  2017-12-29T22:31:27Z    330       326.396     1.6915       1.6921         30.409745     30.411091       3.9552     3.8757    -0.0722       99.3908            1.00E-12        -70.17314    -113.61181    99.87      717                      870.463       20892       34.6866   34.6877     7.68657            31         0.00  
3        2017-12-29    363.938527  2017-12-29T22:31:29Z    331       327.383     1.6939       1.6942         30.412717     30.413879       3.9606     3.8725    -0.0585       99.3908            1.00E-12        -70.17314    -113.6118     99.87      717                      871.745       20923       34.6872   34.6883     7.68608            31         0.00  
3        2017-12-29    363.938542  2017-12-29T22:31:30Z    332       328.37      1.7003       1.7005         30.41998      30.421037       3.9595     3.8716    -0.0556       99.2984            1.00E-12        -70.17314    -113.6118     99.87      717                      873.032       20954       34.6887   34.6898     7.68475            31         0.00  
3        2017-12-29    363.938557  2017-12-29T22:31:31Z    333       329.359     1.7041       1.7046         30.424605     30.425782       3.9582     3.8714    -0.0595       99.3873            1.00E-12        -70.17314    -113.6118     99.87      717                      874.301       20984       34.6899   34.6908     7.68396            30         0.00  
3        2017-12-29    363.938571  2017-12-29T22:31:33Z    334       330.349     1.7068       1.7073         30.427969     30.429308       3.9525     3.8706    -0.0648       99.3899            1.00E-12        -70.17314    -113.61179    99.87      717                      875.543       21014       34.6905   34.6917     7.68339            29         0.00  
3        2017-12-29    363.938585  2017-12-29T22:31:34Z    335       331.335     1.7071       1.7077         30.429045     30.430363       3.9565     3.8723    -0.0648       99.3899            1.00E-12        -70.17314    -113.61178    99.87      717                      876.758       21043       34.691    34.692      7.68331            29         0.00  
3        2017-12-29    363.938599  2017-12-29T22:31:35Z    336       332.323     1.7128       1.7121         30.435378     30.435697       3.9545     3.874     -0.0608       99.3899            1.00E-12        -70.17314    -113.61178    99.87      717                      877.957       21072       34.6922   34.6933     7.68215            29         0.00  
3        2017-12-29    363.938613  2017-12-29T22:31:36Z    337       333.312     1.7155       1.716          30.438549     30.439901       3.9572     3.8753    -0.0679       99.3899            1.00E-12        -70.17314    -113.61178    99.87      717                      879.164       21101       34.6927   34.6938     7.6816             29         0.00  
3        2017-12-29    363.938627  2017-12-29T22:31:37Z    338       334.301     1.7167       1.7172         30.440332     30.441712       3.9535     3.868     -0.0603       99.3603            1.00E-12        -70.17314    -113.61178    99.87      717                      880.371       21130       34.693    34.6942     7.68134            29         0.00  
3        2017-12-29    363.938641  2017-12-29T22:31:39Z    339       335.289     1.7168       1.7175         30.441206     30.442571       3.9555     3.8698    -0.0593       99.3799            1.00E-12        -70.17314    -113.61178    99.87      717                      881.593       21159       34.6934   34.6944     7.6813             29         0.00  
3        2017-12-29    363.938655  2017-12-29T22:31:40Z    340       336.278     1.7167       1.7173         30.441815     30.443319       3.9525     3.8686    -0.0606       99.39              1.00E-12        -70.17314    -113.61178    99.87      717                      882.822       21189       34.6937   34.695      7.6813             30         0.00  
3        2017-12-29    363.938669  2017-12-29T22:31:41Z    341       337.264     1.7166       1.7171         30.442364     30.443757       3.9539     3.8667    -0.0704       99.3899            1.00E-12        -70.17314    -113.61177    99.87      717                      884.04        21218       34.6939   34.6951     7.68131            29         0.00  
3        2017-12-29    363.938683  2017-12-29T22:31:42Z    342       338.253     1.7162       1.7168         30.442568     30.443945       3.95       3.8639    -0.0659       99.3899            1.00E-12        -70.17314    -113.61176    99.87      717                      885.251       21247       34.694    34.6952     7.68138            29         0.00  
3        2017-12-29    363.938698  2017-12-29T22:31:44Z    343       339.243     1.7171       1.7177         30.444369     30.445774       3.9464     3.8687    -0.0577       99.3899            1.00E-12        -70.17314    -113.61176    99.87      717                      886.465       21276       34.6947   34.6959     7.68117            29         0.00  
3        2017-12-29    363.938712  2017-12-29T22:31:45Z    344       340.23      1.7187       1.7192         30.446575     30.448046       3.9473     3.8628    -0.0576       99.3899            1.00E-12        -70.17314    -113.61176    99.87      716                      887.678       21305       34.6953   34.6966     7.68084            30         0.00  
3        2017-12-29    363.938726  2017-12-29T22:31:46Z    345       341.219     1.7201       1.7206         30.448437     30.449852       3.9526     3.8693    -0.06         99.3899            1.00E-12        -70.17314    -113.61176    99.87      717                      888.915       21335       34.6955   34.6968     7.68056            30         0.00  
3        2017-12-29    363.938741  2017-12-29T22:31:47Z    346       342.207     1.7217       1.7222         30.450958     30.452371       3.9504     3.8702    -0.0562       99.3899            1.00E-12        -70.17314    -113.61176    99.87      716                      890.182       21365       34.6963   34.6976     7.68019            30         0.00  
3        2017-12-29    363.938755  2017-12-29T22:31:48Z    347       343.194     1.7235       1.724          30.453382     30.454792       3.9568     3.862     -0.0689       99.3899            1.00E-12        -70.17314    -113.61176    99.87      716                      891.462       21396       34.6968   34.698      7.67981            31         0.00  
3        2017-12-29    363.93877   2017-12-29T22:31:50Z    348       344.183     1.7235       1.7241         30.454122     30.4555         3.9566     3.8671    -0.0684       99.3899            1.00E-12        -70.17314    -113.61175    99.87      716                      892.741       21427       34.6973   34.6983     7.67981            30         0.00  
3        2017-12-29    363.938785  2017-12-29T22:31:51Z    349       345.172     1.7242       1.7246         30.455608     30.456859       3.9523     3.8642    -0.0684       99.3899            1.00E-12        -70.17314    -113.61174    99.87      716                      893.995       21457       34.6978   34.6989     7.67964            27         0.00  
3        2017-12-29    363.938799  2017-12-29T22:31:52Z    350       346.16      1.7247       1.7251         30.456625     30.457939       3.9572     3.8733    -0.0684       99.3899            1.00E-12        -70.17314    -113.61174    99.87      716                      895.198       21486       34.698    34.6991     7.67953            28         0.00  
3        2017-12-29    363.938812  2017-12-29T22:31:53Z    351       347.148     1.7253       1.7258         30.458044     30.459347       3.9551     3.8613    -0.0699       99.3899            1.00E-12        -70.17314    -113.61174    99.87      715                      896.378       21514       34.6985   34.6996     7.67939            29         0.00  
3        2017-12-29    363.938826  2017-12-29T22:31:55Z    352       348.134     1.7257       1.7261         30.459432     30.460788       3.956      3.8644    -0.0625       99.3899            1.00E-12        -70.17314    -113.61173    99.87      715                      897.535       21542       34.6993   34.7005     7.67927            27         0.00  
3        2017-12-29    363.938839  2017-12-29T22:31:56Z    353       349.125     1.7269       1.7273         30.461585     30.462929       3.9535     3.8696    -0.0647       99.3899            1.00E-12        -70.17314    -113.61172    99.87      715                      898.687       21569       34.7001   34.7013     7.679              28         0.00  
3        2017-12-29    363.938853  2017-12-29T22:31:57Z    354       350.113     1.7272       1.7277         30.462634     30.463954       3.9494     3.8649    -0.0613       99.3919            1.00E-12        -70.17314    -113.61172    99.87      715                      899.874       21598       34.7004   34.7016     7.67891            29         0.00  
3        2017-12-29    363.938867  2017-12-29T22:31:58Z    355       351.099     1.7286       1.7289         30.464604     30.465965       3.9541     3.8678    -0.0678       99.3917            1.00E-12        -70.17314    -113.61172    82.09      715                      901.093       21627       34.7009   34.7022     7.67862            30         0.00  
3        2017-12-29    363.938881  2017-12-29T22:31:59Z    356       352.089     1.7299       1.7304         30.466838     30.468253       3.9541     3.87      -0.0591       99.3837            1.00E-12        -70.17314    -113.61172    78.54      715                      902.348       21657       34.7016   34.7029     7.67832            30         0.00  
3        2017-12-29    363.938896  2017-12-29T22:32:01Z    357       353.078     1.7305       1.731          30.468271     30.469651       3.9539     3.8671    -0.0613       99.3415            1.00E-12        -70.17314    -113.61172    100.03     715                      903.635       21688       34.7022   34.7034     7.67818            31         0.00  
3        2017-12-29    363.938911  2017-12-29T22:32:02Z    358       354.064     1.7317       1.7322         30.470489     30.471894       3.956      3.866     -0.0675       99.3903            1.00E-12        -70.17314    -113.61172    99.87      715                      904.927       21719       34.7031   34.7044     7.6779             31         0.00  
3        2017-12-29    363.938926  2017-12-29T22:32:03Z    359       355.053     1.7324       1.7329         30.471924     30.473337       3.9556     3.8643    -0.063        99.3899            1.00E-12        -70.17314    -113.61172    99.87      715                      906.201       21750       34.7036   34.7048     7.67773            30         0.00  
3        2017-12-29    363.93894   2017-12-29T22:32:04Z    360       356.038     1.7329       1.7334         30.472893     30.474301       3.9531     3.8694    -0.0694       99.3899            1.00E-12        -70.17314    -113.61172    99.87      715                      907.451       21780       34.7038   34.705      7.67764            30         0.00  
3        2017-12-29    363.938955  2017-12-29T22:32:06Z    361       357.03      1.7333       1.7338         30.473929     30.475332       3.9528     3.8671    -0.0628       99.3921            1.00E-12        -70.17314    -113.6117     99.87      715                      908.67        21809       34.704    34.7053     7.67754            29         0.00  
3        2017-12-29    363.938968  2017-12-29T22:32:07Z    362       358.017     1.7335       1.734          30.474934     30.476352       3.9502     3.8684    -0.0683       99.3945            1.00E-12        -70.17314    -113.6117     99.87      715                      909.865       21838       34.7045   34.7058     7.67747            29         0.00  
3        2017-12-29    363.938982  2017-12-29T22:32:08Z    363       359.004     1.7331       1.7336         30.475596     30.477024       3.9559     3.8707    -0.0601       99.39              1.00E-12        -70.17314    -113.6117     99.87      715                      911.052       21866       34.7052   34.7065     7.67751            28         0.00  
3        2017-12-29    363.938996  2017-12-29T22:32:09Z    364       359.994     1.7335       1.7339         30.476875     30.47828        3.9553     3.8687    -0.0711       99.3899            1.00E-12        -70.17314    -113.61168    99.87      715                      912.238       21895       34.7058   34.7072     7.67741            28         0.00  
3        2017-12-29    363.93901   2017-12-29T22:32:10Z    365       360.978     1.7336       1.7341         30.477745     30.479191       3.9506     3.8655    -0.0587       99.3825            1.00E-12        -70.17314    -113.61168    99.87      715                      913.426       21923       34.7062   34.7075     7.67736            29         0.00  
3        2017-12-29    363.939024  2017-12-29T22:32:12Z    366       361.973     1.7337       1.7341         30.478299     30.479802       3.9539     3.8696    -0.0669       99.3819            1.00E-12        -70.17314    -113.61168    99.87      715                      914.64        21952       34.7063   34.7078     7.67734            30         0.00  
3        2017-12-29    363.939038  2017-12-29T22:32:13Z    367       362.959     1.7338       1.7342         30.47923      30.480641       3.9554     3.8715    -0.0573       99.4027            1.00E-12        -70.17314    -113.61168    99.87      715                      915.867       21982       34.7068   34.7081     7.6773             29         0.00  
3        2017-12-29    363.939052  2017-12-29T22:32:14Z    368       363.947     1.7336       1.734          30.480007     30.48145        3.9563     3.8686    -0.0561       99.3916            1.00E-12        -70.17314    -113.61168    99.87      715                      917.111       22012       34.7074   34.7087     7.67731            30         0.00  
3        2017-12-29    363.939067  2017-12-29T22:32:15Z    369       364.934     1.7328       1.7334         30.480223     30.481664       3.9574     3.8682    -0.0556       99.3796            1.00E-12        -70.17314    -113.61168    99.87      715                      918.371       22042       34.7079   34.7091     7.67742            31         0.00  
3        2017-12-29    363.939081  2017-12-29T22:32:17Z    370       365.921     1.7324       1.7329         30.480499     30.481962       3.9543     3.8698    -0.0678       99.3836            1.00E-12        -70.17314    -113.61168    99.87      715                      919.63        22072       34.7082   34.7094     7.6775             30         0.00  
3        2017-12-29    363.939096  2017-12-29T22:32:18Z    371       366.911     1.7316       1.7321         30.480476     30.481894       3.9608     3.8674    -0.0587       99.3898            1.00E-12        -70.17314    -113.61168    99.87      715                      920.882       22102       34.7085   34.7097     7.67763            30         0.00  
3        2017-12-29    363.93911   2017-12-29T22:32:19Z    372       367.873     1.7312       1.7317         30.480631     30.482091       3.9585     3.8722    -0.0553       99.3899            1.00E-12        -70.17314    -113.61166    99.87      715                      922.095       22131       34.7085   34.7098     7.67771            25         0.00  
3        2017-12-29    363.939124  2017-12-29T22:32:20Z    373       368.86      1.7309       1.7314         30.481034     30.482465       3.9591     3.8658    -0.0649       99.3899            1.00E-12        -70.17314    -113.61166    99.87      715                      923.312       22160       34.7088   34.7101     7.67775            22         0.00  
3        2017-12-29    363.939138  2017-12-29T22:32:22Z    374       369.875     1.731        1.7314         30.481672     30.48302        3.9603     3.8692    -0.0587       99.3924            1.00E-12        -70.17314    -113.61166    99.87      715                      924.549       22190       34.7089   34.7101     7.67773            29         0.00  
3        2017-12-29    363.939152  2017-12-29T22:32:23Z    375       370.863     1.7308       1.7313         30.482165     30.483618       3.9606     3.8701    -0.0613       99.3945            1.00E-12        -70.17314    -113.61166    99.87      714                      925.75        22219       34.7092   34.7105     7.67775            29         0.00  
3        2017-12-29    363.939166  2017-12-29T22:32:24Z    376       371.85      1.7312       1.7316         30.483878     30.48518        3.9664     3.8711    -0.0709       99.3927            1.00E-12        -70.17314    -113.61166    99.87      714                      926.951       22248       34.7103   34.7115     7.67761            29         0.00  
3        2017-12-29    363.93918   2017-12-29T22:32:25Z    377       372.839     1.7316       1.732          30.485        30.486433       3.9642     3.8728    -0.0714       99.3982            1.00E-12        -70.17314    -113.61166    99.87      713                      928.16        22277       34.7107   34.7121     7.67751            29         0.00  
3        2017-12-29    363.939194  2017-12-29T22:32:26Z    378       373.827     1.7315       1.7319         30.485708     30.487079       3.9672     3.8713    -0.0631       99.3926            1.00E-12        -70.17314    -113.61166    99.87      713                      929.388       22306       34.7112   34.7124     7.67751            30         0.00  
3        2017-12-29    363.939209  2017-12-29T22:32:28Z    379       374.814     1.7313       1.7318         30.486274     30.487708       3.9625     3.8744    -0.0658       99.3936            1.00E-12        -70.17314    -113.61164    99.87      713                      930.616       22336       34.7116   34.7128     7.67753            29         0.00  
3        2017-12-29    363.939223  2017-12-29T22:32:29Z    380       375.803     1.7313       1.7317         30.486893     30.488383       3.9584     3.8753    -0.071        99.3964            1.00E-12        -70.17314    -113.61164    99.87      713                      931.843       22365       34.7118   34.7132     7.67752            29         0.00  
3        2017-12-29    363.939237  2017-12-29T22:32:30Z    381       376.79      1.731        1.7314         30.4874       30.488878       3.9644     3.8748    -0.0708       99.3486            1.00E-12        -70.17314    -113.61164    99.87      713                      933.07        22395       34.7122   34.7135     7.67756            30         0.00  
3        2017-12-29    363.939251  2017-12-29T22:32:31Z    382       377.779     1.7308       1.7312         30.487894     30.489292       3.9684     3.8731    -0.0593       99.4017            1.00E-12        -70.17314    -113.61164    99.87      713                      934.286       22424       34.7124   34.7137     7.67758            29         0.00  
3        2017-12-29    363.939265  2017-12-29T22:32:32Z    383       378.767     1.7309       1.7313         30.488299     30.489793       3.9687     3.8774    -0.0669       99.3982            1.00E-12        -70.17314    -113.61164    99.87      713                      935.499       22453       34.7123   34.7138     7.67758            29         0.00  
3        2017-12-29    363.939279  2017-12-29T22:32:34Z    384       379.756     1.7306       1.7312         30.488703     30.490196       3.9651     3.8768    -0.0577       99.3882            1.00E-12        -70.17314    -113.61163    99.87      713                      936.724       22482       34.7126   34.7138     7.67762            30         0.00  
3        2017-12-29    363.939293  2017-12-29T22:32:35Z    385       380.744     1.7307       1.731          30.489245     30.4907         3.9719     3.8761    -0.0562       99.3908            1.00E-12        -70.17314    -113.61162    99.87      713                      937.955       22512       34.7126   34.714      7.6776             29         0.00  
3        2017-12-29    363.939308  2017-12-29T22:32:36Z    386       381.73      1.7307       1.7313         30.489688     30.491228       3.9708     3.8807    -0.0581       99.3953            1.00E-12        -70.17314    -113.61162    99.87      713                      939.202       22542       34.7125   34.7139     7.6776             30         0.00  
3        2017-12-29    363.939323  2017-12-29T22:32:38Z    387       382.719     1.73         1.7305         30.48983      30.491281       3.9712     3.8763    -0.0575       99.3942            1.00E-12        -70.17314    -113.61162    99.87      713                      940.465       22572       34.7129   34.7141     7.67771            31         0.00  
3        2017-12-29    363.939337  2017-12-29T22:32:39Z    388       383.708     1.7301       1.7305         30.490618     30.492086       3.9681     3.8765    -0.0683       99.3935            1.00E-12        -70.17314    -113.61162    99.87      713                      941.717       22602       34.7132   34.7146     7.67767            30         0.00  
3        2017-12-29    363.939351  2017-12-29T22:32:40Z    389       384.695     1.7302       1.7307         30.491459     30.493004       3.9733     3.876     -0.0684       99.4038            1.00E-12        -70.17314    -113.61162    99.87      713                      942.963       22632       34.7136   34.715      7.67763            29         0.00  
3        2017-12-29    363.939366  2017-12-29T22:32:41Z    390       385.682     1.7316       1.732          30.493426     30.494966       3.9741     3.8795    -0.0612       99.3981            1.00E-12        -70.17314    -113.61162    99.87      713                      944.188       22662       34.714    34.7155     7.67735            29         0.00  
3        2017-12-29    363.939379  2017-12-29T22:32:42Z    391       386.672     1.7336       1.734          30.496225     30.497691       3.9748     3.8803    -0.0669       99.3936            1.00E-12        -70.17314    -113.61162    99.87      713                      945.383       22690       34.7147   34.7162     7.67691            29         0.00  
3        2017-12-29    363.939393  2017-12-29T22:32:44Z    392       387.658     1.7368       1.7373         30.500146     30.501699       3.9795     3.8802    -0.0579       99.4072            1.00E-12        -70.17314    -113.6116     99.87      713                      946.566       22719       34.7157   34.7171     7.67626            28         0.00  
3        2017-12-29    363.939407  2017-12-29T22:32:45Z    393       388.648     1.736        1.7365         30.500038     30.501615       3.9792     3.8821    -0.0638       99.39              1.00E-12        -70.17314    -113.6116     99.87      713                      947.746       22747       34.7158   34.7173     7.6764             29         0.00  
3        2017-12-29    363.93942   2017-12-29T22:32:46Z    394       389.636     1.7357       1.7361         30.500496     30.501899       3.9717     3.8799    -0.0657       99.4013            1.00E-12        -70.17314    -113.6116     99.87      713                      948.926       22775       34.7161   34.7175     7.67644            28         0.00  
3        2017-12-29    363.939434  2017-12-29T22:32:47Z    395       390.622     1.7361       1.7366         30.501343     30.502812       3.9801     3.8939    -0.0588       99.3973            1.00E-12        -70.17314    -113.6116     99.87      713                      950.125       22804       34.7162   34.7175     7.67635            29         0.00  
3        2017-12-29    363.939449  2017-12-29T22:32:48Z    396       391.611     1.7365       1.7368         30.50223      30.503594       3.9828     3.8874    -0.0601       99.397             1.00E-12        -70.17314    -113.6116     99.87      713                      951.356       22834       34.7163   34.7176     7.67627            30         0.00  
3        2017-12-29    363.939463  2017-12-29T22:32:50Z    397       392.6       1.7391       1.7397         30.505577     30.507123       3.9817     3.8898    -0.0606       99.3935            1.00E-12        -70.17314    -113.6116     99.87      713                      952.611       22864       34.717    34.7184     7.67572            30         0.00  
3        2017-12-29    363.939478  2017-12-29T22:32:51Z    398       393.587     1.7419       1.7424         30.508724     30.510201       3.9841     3.8889    -0.0588       99.3966            1.00E-12        -70.17314    -113.6116     99.87      713                      953.891       22894       34.7174   34.7188     7.67516            32         0.00  
3        2017-12-29    363.939493  2017-12-29T22:32:52Z    399       394.574     1.7426       1.7434         30.509972     30.511709       3.9899     3.8951    -0.0601       99.3899            1.00E-12        -70.17314    -113.6116     99.87      713                      955.184       22925       34.7177   34.719      7.67502            30         0.00  
3        2017-12-29    363.939508  2017-12-29T22:32:53Z    400       395.564     1.7449       1.7454         30.512945     30.514431       3.9877     3.891     -0.0714       99.4016            1.00E-12        -70.17314    -113.61158    99.87      713                      956.452       22956       34.7184   34.7196     7.67454            30         0.00  
3        2017-12-29    363.939522  2017-12-29T22:32:55Z    401       396.548     1.7456       1.7461         30.514248     30.515692       3.9868     3.8957    -0.0644       99.4015            1.00E-12        -70.17314    -113.61158    99.87      713                      957.7         22986       34.7186   34.7199     7.67439            30         0.00  
3        2017-12-29    363.939536  2017-12-29T22:32:56Z    402       397.54      1.7457       1.7462         30.514764     30.516184       3.9873     3.8974    -0.0583       99.3899            1.00E-12        -70.17314    -113.61158    99.87      713                      958.913       23015       34.7186   34.7198     7.67437            29         0.00  
3        2017-12-29    363.93955   2017-12-29T22:32:57Z    403       398.526     1.7458       1.7463         30.515348     30.516846       3.9918     3.8961    -0.0688       99.3909            1.00E-12        -70.17314    -113.61158    99.87      712                      960.097       23043       34.7187   34.72       7.67435            28         0.00  
3        2017-12-29    363.939563  2017-12-29T22:32:58Z    404       399.514     1.7458       1.7462         30.516182     30.517651       4.0009     3.9003    -0.0605       99.3995            1.00E-12        -70.17314    -113.61158    99.87      711                      961.273       23072       34.7192   34.7205     7.67432            28         0.00  
3        2017-12-29    363.939577  2017-12-29T22:32:59Z    405       400.503     1.7453       1.7458         30.516505     30.518004       3.9964     3.9038    -0.0593       99.4001            1.00E-12        -70.17314    -113.61156    99.87      711                      962.457       23100       34.7195   34.7208     7.67439            29         0.00  
3        2017-12-29    363.939591  2017-12-29T22:33:01Z    406       401.491     1.7452       1.7457         30.516823     30.518302       3.9922     3.9056    -0.0598       99.4083            1.00E-12        -70.17314    -113.61156    99.87      711                      963.65        23129       34.7195   34.7207     7.67442            29         0.00  
3        2017-12-29    363.939605  2017-12-29T22:33:02Z    407       402.478     1.7449       1.7455         30.517118     30.518609       3.9934     3.9045    -0.0603       99.4001            1.00E-12        -70.17314    -113.61156    99.87      711                      964.875       23158       34.7195   34.7208     7.67446            29         0.00  
3        2017-12-29    363.939619  2017-12-29T22:33:03Z    408       403.467     1.7447       1.7453         30.517319     30.518831       3.9979     3.9047    -0.0591       99.4015            1.00E-12        -70.17314    -113.61156    99.87      711                      966.116       23188       34.7195   34.7208     7.67452            30         0.00  
3        2017-12-29    363.939634  2017-12-29T22:33:04Z    409       404.455     1.7447       1.7454         30.518073     30.519605       3.992      3.9062    -0.0601       99.3979            1.00E-12        -70.17314    -113.61156    99.87      711                      967.368       23218       34.7199   34.721      7.67449            30         0.00  
3        2017-12-29    363.939648  2017-12-29T22:33:06Z    410       405.443     1.745        1.7457         30.518803     30.520303       3.9942     3.9053    -0.0581       99.3998            1.00E-12        -70.17314    -113.61156    99.87      711                      968.621       23248       34.7199   34.721      7.67443            30         0.00  
3        2017-12-29    363.939663  2017-12-29T22:33:07Z    411       406.429     1.7445       1.7452         30.518777     30.520298       3.9934     3.9067    -0.0576       99.3952            1.00E-12        -70.17314    -113.61156    99.87      711                      969.866       23278       34.7198   34.721      7.67453            30         0.00  
3        2017-12-29    363.939677  2017-12-29T22:33:08Z    412       407.42      1.7437       1.7443         30.518542     30.52           3.9963     3.9063    -0.0583       99.3824            1.00E-12        -70.17312    -113.61156    99.87      711                      971.094       23307       34.7199   34.7211     7.67469            29         0.00  
3        2017-12-29    363.939691  2017-12-29T22:33:09Z    413       408.405     1.7428       1.7435         30.518524     30.519967       3.9992     3.9083    -0.0689       99.4088            1.00E-12        -70.17312    -113.61154    99.87      711                      972.32        23337       34.7202   34.7213     7.67483            30         0.00  
3        2017-12-29    363.939705  2017-12-29T22:33:11Z    414       409.395     1.7418       1.7424         30.518201     30.519655       3.9995     3.9092    -0.0592       99.3936            1.00E-12        -70.17312    -113.61154    99.87      711                      973.546       23366       34.7203   34.7215     7.67502            29         0.00  
3        2017-12-29    363.93972   2017-12-29T22:33:12Z    415       410.382     1.7418       1.7423         30.518546     30.52003        4.0056     3.9076    -0.0601       99.3926            1.00E-12        -70.17312    -113.61154    99.87      711                      974.772       23396       34.7202   34.7216     7.67503            30         0.00  
3        2017-12-29    363.939734  2017-12-29T22:33:13Z    416       411.369     1.7415       1.7421         30.518909     30.520409       4.0066     3.9094    -0.0707       99.3988            1.00E-12        -70.17312    -113.61154    99.87      711                      976.008       23425       34.7204   34.7217     7.67508            30         0.00  
3        2017-12-29    363.939748  2017-12-29T22:33:14Z    417       412.357     1.7413       1.7418         30.519172     30.520717       4.0067     3.9106    -0.0669       99.4028            1.00E-12        -70.17312    -113.61154    99.87      711                      977.232       23455       34.7205   34.7218     7.67512            29         0.00  
3        2017-12-29    363.939762  2017-12-29T22:33:15Z    418       413.346     1.7412       1.7418         30.519572     30.521085       4.0046     3.9109    -0.0548       99.3955            1.00E-12        -70.17312    -113.61152    99.87      711                      978.448       23484       34.7205   34.7218     7.67514            29         0.00  
3        2017-12-29    363.939776  2017-12-29T22:33:17Z    419       414.333     1.7404       1.741          30.519476     30.520939       4.0024     3.9115    -0.0572       99.4019            1.00E-12        -70.17312    -113.61152    99.87      711                      979.659       23513       34.7207   34.7219     7.67528            29         0.00  
3        2017-12-29    363.93979   2017-12-29T22:33:18Z    420       415.319     1.7399       1.7405         30.519387     30.520945       4.0067     3.9133    -0.0667       99.4056            1.00E-12        -70.17312    -113.61152    99.87      711                      980.86        23542       34.7206   34.7219     7.67539            29         0.00  
3        2017-12-29    363.939804  2017-12-29T22:33:19Z    421       416.31      1.7367       1.7373         30.517301     30.518808       4.0092     3.9167    -0.0619       99.4011            1.00E-12        -70.17312    -113.61152    99.87      711                      982.063       23571       34.7209   34.7221     7.67599            29         0.00  
3        2017-12-29    363.939818  2017-12-29T22:33:20Z    422       417.298     1.7347       1.7353         30.516172     30.517746       4.0074     3.9136    -0.0583       99.4102            1.00E-12        -70.17312    -113.61152    99.87      711                      983.283       23600       34.7211   34.7224     7.67637            29         0.00  
3        2017-12-29    363.939832  2017-12-29T22:33:21Z    423       418.284     1.7333       1.7335         30.515402     30.516743       4.0075     3.9158    -0.0596       99.4015            1.00E-12        -70.17312    -113.61152    99.87      711                      984.524       23630       34.7211   34.7225     7.67664            30         0.00  
3        2017-12-29    363.939847  2017-12-29T22:33:23Z    424       419.273     1.7322       1.7328         30.514981     30.516582       4.008      3.9137    -0.0688       99.4029            1.00E-12        -70.17312    -113.61152    99.87      711                      985.785       23660       34.7212   34.7225     7.67684            31         0.00  
3        2017-12-29    363.939862  2017-12-29T22:33:24Z    425       420.262     1.7324       1.7329         30.515576     30.517218       4.01       3.9087    -0.0586       99.3908            1.00E-12        -70.17312    -113.61152    99.87      711                      987.066       23691       34.7212   34.7227     7.67681            30         0.00  
3        2017-12-29    363.939877  2017-12-29T22:33:25Z    426       421.246     1.7316       1.7321         30.515322     30.5168         4.0098     3.9178    -0.0599       99.3994            1.00E-12        -70.17312    -113.61152    99.87      711                      988.335       23721       34.7212   34.7225     7.67697            31         0.00  
3        2017-12-29    363.939891  2017-12-29T22:33:27Z    427       422.237     1.7305       1.731          30.515        30.516486       4.0104     3.9161    -0.0603       99.3707            1.00E-12        -70.17312    -113.61151    99.87      711                      989.577       23751       34.7213   34.7227     7.67716            29         0.00  
3        2017-12-29    363.939905  2017-12-29T22:33:28Z    428       423.224     1.7304       1.7307         30.515513     30.517024       4.0126     3.923     -0.0593       99.4047            1.00E-12        -70.17312    -113.6115     99.87      711                      990.793       23780       34.7216   34.7231     7.67718            29         0.00  
3        2017-12-29    363.939919  2017-12-29T22:33:29Z    429       424.211     1.7302       1.7306         30.516087     30.517569       4.0185     3.9227    -0.0595       99.3851            1.00E-12        -70.17312    -113.6115     99.87      711                      991.98        23809       34.7219   34.7233     7.67719            28         0.00  
3        2017-12-29    363.939932  2017-12-29T22:33:30Z    430       425.2       1.7301       1.7305         30.516408     30.51803        4.0077     3.9232    -0.0574       99.3928            1.00E-12        -70.17312    -113.6115     99.87      711                      993.153       23837       34.7219   34.7235     7.67722            28         0.00  
3        2017-12-29    363.939946  2017-12-29T22:33:31Z    431       426.187     1.7298       1.7302         30.516762     30.518363       4.0123     3.925     -0.068        99.4073            1.00E-12        -70.17312    -113.6115     99.87      711                      994.325       23865       34.7221   34.7237     7.67726            28         0.00  
3        2017-12-29    363.93996   2017-12-29T22:33:33Z    432       427.175     1.7295       1.7299         30.516986     30.518521       4.0198     3.9266    -0.0684       99.4               1.00E-12        -70.17312    -113.6115     99.87      711                      995.515       23893       34.7221   34.7236     7.67732            29         0.00  
3        2017-12-29    363.939974  2017-12-29T22:33:34Z    433       428.163     1.729        1.7295         30.517167     30.518684       4.0229     3.9227    -0.0558       99.4095            1.00E-12        -70.17312    -113.6115     99.87      711                      996.719       23922       34.7224   34.7237     7.67741            30         0.00  
3        2017-12-29    363.939988  2017-12-29T22:33:35Z    434       429.15      1.729        1.7294         30.517519     30.51904        4.0222     3.9263    -0.0624       99.3999            1.00E-12        -70.17312    -113.6115     99.87      711                      997.959       23952       34.7222   34.7237     7.67741            30         0.00  
3        2017-12-29    363.940003  2017-12-29T22:33:36Z    435       430.139     1.7285       1.7289         30.517549     30.519165       4.0195     3.9248    -0.0708       99.4024            1.00E-12        -70.17312    -113.6115     99.87      711                      999.224       23982       34.7223   34.7238     7.67751            30         0.00  
3        2017-12-29    363.940017  2017-12-29T22:33:37Z    436       431.128     1.7276       1.7279         30.517299     30.51879        4.018      3.9271    -0.0531       99.3994            1.00E-12        -70.17312    -113.61149    99.87      711                      1000.505      24013       34.7223   34.7239     7.67767            31         0.00  
3        2017-12-29    363.940032  2017-12-29T22:33:39Z    437       432.112     1.7271       1.7274         30.517289     30.518855       4.0215     3.9269    -0.0523       99.3985            1.00E-12        -70.17312    -113.61148    99.87      711                      1001.795      24044       34.7224   34.7239     7.67778            31         0.00  
3        2017-12-29    363.940047  2017-12-29T22:33:40Z    438       433.101     1.7268       1.7272         30.517466     30.519046       4.0211     3.9285    -0.0689       99.3953            1.00E-12        -70.17312    -113.61148    99.87      711                      1003.063      24075       34.7223   34.7239     7.67783            30         0.00  
3        2017-12-29    363.940061  2017-12-29T22:33:41Z    439       434.09      1.7263       1.7266         30.517559     30.519134       4.02       3.9255    -0.0684       99.4067            1.00E-12        -70.17312    -113.61148    99.87      711                      1004.305      24104       34.7224   34.724      7.67792            29         0.00  
3        2017-12-29    363.940075  2017-12-29T22:33:42Z    440       435.077     1.726        1.7263         30.517821     30.519337       4.0113     3.9258    -0.0571       99.3972            1.00E-12        -70.17312    -113.61148    99.87      711                      1005.515      24133       34.7225   34.7241     7.67798            29         0.00  
3        2017-12-29    363.940089  2017-12-29T22:33:44Z    441       436.065     1.726        1.7263         30.51818      30.519774       4.0128     3.9248    -0.0584       99.3932            1.00E-12        -70.17312    -113.61148    99.87      711                      1006.696      24162       34.7224   34.7241     7.67798            25         0.00  
3        2017-12-29    363.940103  2017-12-29T22:33:45Z    442       437.053     1.726        1.7261         30.518497     30.520069       4.0233     3.9244    -0.0584       99.3976            1.00E-12        -70.17312    -113.61148    99.87      711                      1007.863      24190       34.7222   34.724      7.67799            28         0.00  
3        2017-12-29    363.940116  2017-12-29T22:33:46Z    443       438.041     1.725        1.7253         30.518162     30.519752       4.0262     3.9273    -0.0628       99.4056            1.00E-12        -70.17312    -113.61147    99.87      711                      1009.04       24218       34.7223   34.724      7.67818            29         0.00  
3        2017-12-29    363.94013   2017-12-29T22:33:47Z    444       439.029     1.7231       1.7234         30.517162     30.518719       4.0237     3.9297    -0.0708       99.3974            1.00E-12        -70.17312    -113.61146    99.87      711                      1010.229      24246       34.7226   34.7242     7.67854            29         0.00  
3        2017-12-29    363.940144  2017-12-29T22:33:48Z    445       440.017     1.7221       1.7224         30.516868     30.518454       4.0279     3.9345    -0.0629       99.4019            1.00E-12        -70.17312    -113.61146    99.87      711                      1011.446      24276       34.7227   34.7244     7.67872            29         0.00  
3        2017-12-29    363.940159  2017-12-29T22:33:50Z    446       441.005     1.7211       1.7213         30.516377     30.517918       4.0284     3.9311    -0.0575       99.396             1.00E-12        -70.17312    -113.61146    99.87      711                      1012.701      24306       34.7226   34.7244     7.67892            31         0.00  
3        2017-12-29    363.940173  2017-12-29T22:33:51Z    447       441.992     1.7188       1.7191         30.514946     30.516577       4.03       3.9312    -0.0576       99.3891            1.00E-12        -70.17312    -113.61146    99.87      711                      1013.969      24336       34.7228   34.7246     7.67935            30         0.00  
3        2017-12-29    363.940188  2017-12-29T22:33:52Z    448       442.978     1.7183       1.7185         30.514986     30.516596       4.0257     3.9334    -0.0566       99.4016            1.00E-12        -70.17312    -113.61146    99.87      711                      1015.242      24367       34.7228   34.7247     7.67945            30         0.00  
3        2017-12-29    363.940203  2017-12-29T22:33:54Z    449       443.968     1.7181       1.7182         30.515205     30.516822       4.0279     3.9349    -0.0611       99.3924            1.00E-12        -70.17312    -113.61146    99.87      710                      1016.502      24397       34.7228   34.7247     7.6795             30         0.00  
3        2017-12-29    363.940217  2017-12-29T22:33:55Z    450       444.954     1.7173       1.7175         30.515058     30.516775       4.0317     3.9378    -0.0654       99.3946            1.00E-12        -70.17312    -113.61146    99.87      709                      1017.725      24426       34.7229   34.7248     7.67964            29         0.00  
3        2017-12-29    363.940231  2017-12-29T22:33:56Z    451       445.942     1.7159       1.7162         30.514294     30.516102       4.0327     3.9348    -0.0572       99.3899            1.00E-12        -70.17312    -113.61146    99.87      709                      1018.921      24455       34.7229   34.7248     7.67992            29         0.00  
3        2017-12-29    363.940244  2017-12-29T22:33:57Z    452       446.931     1.7153       1.7156         30.514354     30.516019       4.0288     3.935     -0.0557       99.3991            1.00E-12        -70.17312    -113.61146    99.87      709                      1020.118      24484       34.7231   34.7248     7.68002            29         0.00  
3        2017-12-29    363.940258  2017-12-29T22:33:58Z    453       447.917     1.7138       1.714          30.513515     30.515179       4.0287     3.9346    -0.0537       99.3407            1.00E-12        -70.17312    -113.61144    99.87      709                      1021.304      24512       34.7231   34.725      7.68031            28         0.00  
3        2017-12-29    363.940272  2017-12-29T22:34:00Z    454       448.905     1.7132       1.7133         30.513516     30.515135       4.0305     3.9389    -0.0537       99.3971            1.00E-12        -70.17312    -113.61144    99.87      709                      1022.495      24541       34.7232   34.7251     7.68042            29         0.00  
3        2017-12-29    363.940286  2017-12-29T22:34:01Z    455       449.893     1.7128       1.713          30.513642     30.515249       4.0319     3.9367    -0.0537       99.3991            1.00E-12        -70.17312    -113.61144    99.87      709                      1023.7        24570       34.7233   34.7251     7.68051            29         0.00  
3        2017-12-29    363.9403    2017-12-29T22:34:02Z    456       450.882     1.7121       1.7124         30.513536     30.515305       4.032      3.941     -0.0543       99.3976            1.00E-12        -70.17312    -113.61144    99.87      709                      1024.919      24599       34.7233   34.7252     7.68063            29         0.00  
3        2017-12-29    363.940314  2017-12-29T22:34:03Z    457       451.87      1.7104       1.7107         30.512577     30.5143         4.0313     3.938     -0.069        99.3943            1.00E-12        -70.17312    -113.61144    99.87      709                      1026.16       24629       34.7234   34.7253     7.68096            30         0.00  
3        2017-12-29    363.940329  2017-12-29T22:34:04Z    458       452.856     1.709        1.7091         30.511906     30.513488       4.0311     3.9403    -0.0598       99.3882            1.00E-12        -70.17312    -113.61144    99.87      709                      1027.423      24659       34.7235   34.7253     7.68122            31         0.00  
3        2017-12-29    363.940344  2017-12-29T22:34:06Z    459       453.844     1.7085       1.7086         30.511898     30.513575       4.0365     3.9414    -0.0655       99.3985            1.00E-12        -70.17312    -113.61142    99.87      709                      1028.697      24690       34.7235   34.7254     7.68132            31         0.00  
3        2017-12-29    363.940358  2017-12-29T22:34:07Z    460       454.832     1.7067       1.7069         30.510873     30.51258        4.0312     3.9421    -0.0563       99.3918            1.00E-12        -70.17312    -113.61142    99.87      709                      1029.965      24720       34.7236   34.7255     7.68167            30         0.00  
3        2017-12-29    363.940373  2017-12-29T22:34:08Z    461       455.82      1.7061       1.7062         30.510785     30.512517       4.0345     3.9408    -0.0648       99.3982            1.00E-12        -70.17312    -113.61142    99.87      709                      1031.208      24750       34.7235   34.7256     7.68178            29         0.00  
3        2017-12-29    363.940387  2017-12-29T22:34:09Z    462       456.806     1.7055       1.7056         30.510766     30.512425       4.0419     3.9446    -0.0583       99.3927            1.00E-12        -70.17312    -113.61142    99.87      709                      1032.417      24779       34.7237   34.7256     7.6819             29         0.00  
3        2017-12-29    363.9404    2017-12-29T22:34:11Z    463       457.794     1.7042       1.7043         30.510122     30.511817       4.0399     3.9418    -0.0673       99.3975            1.00E-12        -70.17312    -113.61142    99.87      709                      1033.602      24807       34.7237   34.7257     7.68215            28         0.00  
3        2017-12-29    363.940414  2017-12-29T22:34:12Z    464       458.782     1.7033       1.7035         30.509868     30.511665       4.0392     3.9437    -0.0694       99.3909            1.00E-12        -70.17312    -113.61142    99.87      709                      1034.772      24836       34.7238   34.7258     7.68232            28         0.00  
3        2017-12-29    363.940428  2017-12-29T22:34:13Z    465       459.772     1.7008       1.7011         30.508308     30.51004        4.0391     3.9437    -0.071        99.3889            1.00E-12        -70.17312    -113.61142    99.87      709                      1035.939      24864       34.724    34.7258     7.68279            28         0.00  
3        2017-12-29    363.940441  2017-12-29T22:34:14Z    466       460.756     1.6983       1.6985         30.506656     30.508304       4.0406     3.9443    -0.0568       99.3862            1.00E-12        -70.17312    -113.61142    99.87      709                      1037.121      24892       34.7241   34.7259     7.68326            29         0.00  
3        2017-12-29    363.940455  2017-12-29T22:34:15Z    467       461.745     1.6967       1.6969         30.505822     30.507479       4.0399     3.9483    -0.0567       99.3899            1.00E-12        -70.17312    -113.61142    99.87      709                      1038.33       24921       34.7242   34.7261     7.68357            29         0.00  
3        2017-12-29    363.940469  2017-12-29T22:34:17Z    468       462.734     1.6962       1.6963         30.505702     30.507397       4.0434     3.9479    -0.0669       99.3899            1.00E-12        -70.17312    -113.61141    99.87      709                      1039.562      24950       34.724    34.7261     7.68367            30         0.00  
3        2017-12-29    363.940484  2017-12-29T22:34:18Z    469       463.721     1.6956       1.6958         30.505847     30.507414       4.048      3.9472    -0.0571       99.3899            1.00E-12        -70.17312    -113.6114     99.87      709                      1040.828      24981       34.7243   34.7261     7.68377            31         0.00  
3        2017-12-29    363.940499  2017-12-29T22:34:19Z    470       464.709     1.695        1.6951         30.505737     30.507444       4.0513     3.9496    -0.065        99.3899            1.00E-12        -70.17312    -113.6114     99.87      709                      1042.107      25012       34.7243   34.7263     7.6839             30         0.00  
3        2017-12-29    363.940514  2017-12-29T22:34:20Z    471       465.696     1.6944       1.6946         30.505613     30.50736        4.0491     3.9482    -0.0698       99.3899            1.00E-12        -70.17312    -113.6114     99.87      709                      1043.381      25042       34.7242   34.7262     7.68401            31         0.00  
3        2017-12-29    363.940528  2017-12-29T22:34:22Z    472       466.682     1.6932       1.6934         30.505077     30.506794       4.0497     3.9525    -0.0708       99.3899            1.00E-12        -70.17312    -113.6114     99.87      709                      1044.637      25072       34.7243   34.7263     7.68424            30         0.00  
3        2017-12-29    363.940542  2017-12-29T22:34:23Z    473       467.669     1.6913       1.6915         30.503963     30.50567        4.0458     3.9507    -0.0564       99.3946            1.00E-12        -70.17312    -113.6114     99.87      709                      1045.862      25102       34.7244   34.7263     7.68461            29         0.00  
3        2017-12-29    363.940556  2017-12-29T22:34:24Z    474       468.659     1.6904       1.6905         30.503721     30.505309       4.0407     3.9534    -0.0589       99.3909            1.00E-12        -70.17312    -113.6114     99.87      709                      1047.056      25130       34.7246   34.7264     7.68478            28         0.00  
3        2017-12-29    363.94057   2017-12-29T22:34:25Z    475       469.647     1.6904       1.6906         30.504212     30.505896       4.0421     3.9527    -0.0679       99.3794            1.00E-12        -70.17312    -113.6114     99.87      709                      1048.236      25159       34.7245   34.7265     7.68477            28         0.00  
3        2017-12-29    363.940584  2017-12-29T22:34:26Z    476       470.633     1.6901       1.6903         30.504383     30.505957       4.0454     3.9533    -0.0598       99.3798            1.00E-12        -70.17312    -113.6114     99.87      709                      1049.416      25187       34.7245   34.7264     7.68483            29         0.00  
3        2017-12-29    363.940597  2017-12-29T22:34:28Z    477       471.623     1.6897       1.6899         30.504491     30.50611        4.0477     3.9495    -0.0653       99.3897            1.00E-12        -70.17312    -113.6114     99.87      709                      1050.606      25216       34.7246   34.7264     7.68491            29         0.00  
3        2017-12-29    363.940611  2017-12-29T22:34:29Z    478       472.608     1.6889       1.6891         30.504329     30.50598        4.0474     3.9513    -0.0578       99.3899            1.00E-12        -70.17312    -113.6114     99.87      709                      1051.827      25245       34.7246   34.7265     7.68505            29         0.00  
3        2017-12-29    363.940626  2017-12-29T22:34:30Z    479       473.597     1.6878       1.6879         30.503733     30.505362       4.0484     3.9545    -0.0571       99.3899            1.00E-12        -70.17312    -113.61139    99.87      709                      1053.07       25275       34.7246   34.7265     7.68529            30         0.00  
3        2017-12-29    363.94064   2017-12-29T22:34:31Z    480       474.584     1.686        1.6861         30.50275      30.504403       4.0478     3.9543    -0.0576       99.3899            1.00E-12        -70.17312    -113.61138    99.87      709                      1054.323      25305       34.7248   34.7267     7.68563            30         0.00  
3        2017-12-29    363.940655  2017-12-29T22:34:33Z    481       475.572     1.6857       1.6858         30.502941     30.504555       4.0495     3.9536    -0.0566       99.3899            1.00E-12        -70.17312    -113.61138    99.87      709                      1055.574      25335       34.7248   34.7267     7.68568            30         0.00  
3        2017-12-29    363.940669  2017-12-29T22:34:34Z    482       476.557     1.6845       1.6848         30.502368     30.504121       4.0524     3.9544    -0.0711       99.3899            1.00E-12        -70.17312    -113.61138    99.87      709                      1056.807      25364       34.7248   34.7266     7.68591            29         0.00  
3        2017-12-29    363.940683  2017-12-29T22:34:35Z    483       477.547     1.6828       1.6829         30.50145      30.503106       4.0557     3.9564    -0.0581       99.3899            1.00E-12        -70.17312    -113.61138    99.87      709                      1058.014      25393       34.725    34.7269     7.68624            29         0.00  
3        2017-12-29    363.940697  2017-12-29T22:34:36Z    484       478.534     1.6824       1.6824         30.501522     30.503174       4.0529     3.9557    -0.0669       99.3899            1.00E-12        -70.17312    -113.61138    99.87      709                      1059.212      25422       34.7249   34.7269     7.68631            29         0.00  
3        2017-12-29    363.940711  2017-12-29T22:34:37Z    485       479.523     1.6826       1.6827         30.502123     30.50372        4.0544     3.9542    -0.0552       99.3899            1.00E-12        -70.17312    -113.61138    99.87      709                      1060.402      25451       34.7249   34.7268     7.68628            28         0.00  
3        2017-12-29    363.940725  2017-12-29T22:34:39Z    486       480.51      1.6825       1.6827         30.502508     30.504231       4.0539     3.9572    -0.0629       99.3899            1.00E-12        -70.17312    -113.61136    99.87      709                      1061.599      25479       34.7249   34.7269     7.68629            29         0.00  
3        2017-12-29    363.940739  2017-12-29T22:34:40Z    487       481.497     1.6823       1.6824         30.50283      30.504509       4.0517     3.9577    -0.064        99.3871            1.00E-12        -70.17312    -113.61136    99.87      709                      1062.812      25508       34.7249   34.7269     7.68632            30         0.00  
3        2017-12-29    363.940753  2017-12-29T22:34:41Z    488       482.485     1.6807       1.6809         30.501958     30.503651       4.0529     3.9571    -0.0635       99.4022            1.00E-12        -70.17312    -113.61136    99.87      709                      1064.049      25538       34.725    34.727      7.68663            30         0.00  
3        2017-12-29    363.940767  2017-12-29T22:34:42Z    489       483.473     1.6797       1.6798         30.501503     30.503152       4.0572     3.9582    -0.0598       99.3936            1.00E-12        -70.17312    -113.61136    99.87      709                      1065.29       25568       34.725    34.727      7.68683            29         0.00  
3        2017-12-29    363.940782  2017-12-29T22:34:44Z    490       484.458     1.6794       1.6794         30.501695     30.503351       4.0543     3.9627    -0.0561       99.3899            1.00E-12        -70.17312    -113.61136    99.87      709                      1066.533      25598       34.7251   34.7271     7.68689            30         0.00  
3        2017-12-29    363.940796  2017-12-29T22:34:45Z    491       485.446     1.6789       1.6791         30.501845     30.503514       4.0556     3.958     -0.0708       99.3917            1.00E-12        -70.17312    -113.61136    99.87      709                      1067.767      25627       34.7251   34.7271     7.68697            30         0.00  
3        2017-12-29    363.94081   2017-12-29T22:34:46Z    492       486.435     1.6786       1.6788         30.501989     30.503689       4.0549     3.9565    -0.0589       99.3954            1.00E-12        -70.17312    -113.61136    99.87      709                      1068.991      25657       34.7251   34.7271     7.68703            29         0.00  
3        2017-12-29    363.940824  2017-12-29T22:34:47Z    493       487.421     1.6779       1.6781         30.501876     30.503547       4.0565     3.9597    -0.0664       99.377             1.00E-12        -70.17312    -113.61136    99.87      709                      1070.209      25686       34.7252   34.7271     7.68717            29         0.00  
3        2017-12-29    363.940838  2017-12-29T22:34:48Z    494       488.411     1.6756       1.6758         30.500292     30.502074       4.0571     3.959     -0.0552       99.3899            1.00E-12        -70.17312    -113.61136    99.87      709                      1071.419      25715       34.7251   34.7272     7.68762            29         0.00  
3        2017-12-29    363.940852  2017-12-29T22:34:50Z    495       489.382     1.6748       1.6751         30.500177     30.501977       4.0545     3.9566    -0.0555       99.3899            1.00E-12        -70.17312    -113.61136    99.87      709                      1072.607      25744       34.7253   34.7273     7.68777            25         0.00  
3        2017-12-29    363.940866  2017-12-29T22:34:51Z    496       490.381     1.6746       1.6748         30.500593     30.502135       4.0508     3.9652    -0.0626       99.3899            1.00E-12        -70.17312    -113.61135    99.87      709                      1073.844      25773       34.7254   34.7272     7.68779            26         0.00  
3        2017-12-29    363.94088   2017-12-29T22:34:52Z    497       491.373     1.6747       1.6748         30.500952     30.502699       4.0497     3.9622    -0.0695       99.3899            1.00E-12        -70.17312    -113.61134    99.87      709                      1075.057      25802       34.7253   34.7274     7.68779            29         0.00  
3        2017-12-29    363.940894  2017-12-29T22:34:53Z    498       492.36      1.6749       1.6749         30.501474     30.503189       4.0534     3.956     -0.0605       99.3899            1.00E-12        -70.17312    -113.61134    99.87      709                      1076.273      25832       34.7251   34.7273     7.68775            30         0.00  
3        2017-12-29    363.940908  2017-12-29T22:34:54Z    499       493.348     1.674        1.6742         30.501344     30.502986       4.0581     3.9638    -0.0683       99.3899            1.00E-12        -70.17312    -113.61134    99.87      709                      1077.493      25861       34.7254   34.7273     7.68791            29         0.00  
3        2017-12-29    363.940923  2017-12-29T22:34:56Z    500       494.335     1.6724       1.6726         30.500399     30.502049       4.0588     3.9654    -0.0562       99.3899            1.00E-12        -70.17312    -113.61134    99.87      709                      1078.723      25890       34.7254   34.7273     7.68822            30         0.00  
3        2017-12-29    363.940937  2017-12-29T22:34:57Z    501       495.322     1.6721       1.6721         30.50058      30.50218        4.0559     3.9601    -0.0552       99.3899            1.00E-12        -70.17312    -113.61134    99.87      709                      1079.964      25920       34.7254   34.7274     7.68829            30         0.00  
3        2017-12-29    363.940951  2017-12-29T22:34:58Z    502       496.31      1.6716       1.6716         30.500552     30.502194       4.0547     3.9566    -0.0552       99.3899            1.00E-12        -70.17312    -113.61134    99.87      709                      1081.208      25950       34.7254   34.7274     7.68839            29         0.00  
3        2017-12-29    363.940966  2017-12-29T22:34:59Z    503       497.298     1.6709       1.6711         30.500613     30.502192       4.0584     3.9637    -0.0608       99.3899            1.00E-12        -70.17312    -113.61134    99.87      709                      1082.458      25980       34.7256   34.7274     7.68851            31         0.00  
3        2017-12-29    363.94098   2017-12-29T22:35:01Z    504       498.284     1.6706       1.6707         30.500643     30.502322       4.0591     3.9588    -0.0712       99.3899            1.00E-12        -70.17312    -113.61134    99.87      709                      1083.715      26010       34.7254   34.7274     7.68857            30         0.00  
3        2017-12-29    363.940995  2017-12-29T22:35:02Z    505       499.271     1.6707       1.6707         30.501181     30.502852       4.0595     3.9605    -0.0708       99.3899            1.00E-12        -70.17312    -113.61134    99.87      709                      1084.972      26040       34.7255   34.7275     7.68856            30         0.00  
3        2017-12-29    363.94101   2017-12-29T22:35:03Z    506       500.255     1.6709       1.671          30.50187      30.503435       4.06       3.9624    -0.0596       99.3899            1.00E-12        -70.17312    -113.61134    99.87      709                      1086.225      26070       34.7255   34.7274     7.68852            30         0.00  
3        2017-12-29    363.941024  2017-12-29T22:35:04Z    507       501.252     1.6707       1.6707         30.502077     30.503683       4.0571     3.9635    -0.0543       99.3899            1.00E-12        -70.17312    -113.61133    99.87      708                      1087.465      26100       34.7254   34.7274     7.68855            30         0.00  
3        2017-12-29    363.941038  2017-12-29T22:35:06Z    508       502.235     1.6707       1.6708         30.502571     30.50426        4.055      3.9635    -0.0552       99.3899            1.00E-12        -70.17312    -113.61132    99.87      708                      1088.701      26130       34.7255   34.7275     7.68855            29         0.00  
3        2017-12-29    363.941052  2017-12-29T22:35:07Z    509       503.221     1.6698       1.6699         30.502263     30.503905       4.0575     3.9598    -0.0547       99.3899            1.00E-12        -70.17312    -113.61132    99.87      709                      1089.92       26159       34.7255   34.7275     7.68873            29         0.00  
3        2017-12-29    363.941066  2017-12-29T22:35:08Z    510       504.208     1.6688       1.6688         30.501861     30.503451       4.0629     3.9644    -0.0618       99.3899            1.00E-12        -70.17312    -113.61132    99.87      708                      1091.131      26188       34.7256   34.7275     7.68892            29         0.00  
3        2017-12-29    363.94108   2017-12-29T22:35:09Z    511       505.196     1.6679       1.668          30.50151      30.503232       4.0552     3.9671    -0.0644       99.3853            1.00E-12        -70.17312    -113.61132    99.87      708                      1092.339      26217       34.7255   34.7276     7.68909            29         0.00  
3        2017-12-29    363.941094  2017-12-29T22:35:11Z    512       506.185     1.6664       1.6666         30.500741     30.502496       4.0607     3.9639    -0.0546       99.39              1.00E-12        -70.17312    -113.61132    99.87      708                      1093.552      26246       34.7257   34.7277     7.68939            29         0.00  
3        2017-12-29    363.941108  2017-12-29T22:35:12Z    513       507.173     1.6653       1.6656         30.500369     30.502069       4.0595     3.963     -0.0576       99.3845            1.00E-12        -70.17312    -113.61132    99.87      708                      1094.776      26276       34.7258   34.7277     7.68958            30         0.00  
3        2017-12-29    363.941123  2017-12-29T22:35:13Z    514       508.158     1.6651       1.6652         30.500519     30.502152       4.0618     3.9681    -0.0591       99.3899            1.00E-12        -70.17312    -113.61131    99.87      709                      1096.027      26306       34.7257   34.7277     7.68963            30         0.00  
3        2017-12-29    363.941138  2017-12-29T22:35:14Z    515       509.148     1.6646       1.6647         30.500563     30.502216       4.0638     3.9663    -0.0693       99.3899            1.00E-12        -70.17312    -113.6113     99.87      709                      1097.29       26336       34.7257   34.7277     7.68973            31         0.00  
3        2017-12-29    363.941152  2017-12-29T22:35:16Z    516       510.133     1.6641       1.6642         30.50059      30.502238       4.0576     3.9671    -0.0571       99.3899            1.00E-12        -70.17312    -113.6113     99.87      709                      1098.571      26367       34.7258   34.7277     7.68983            31         0.00  
3        2017-12-29    363.941167  2017-12-29T22:35:17Z    517       511.121     1.6635       1.6635         30.500483     30.502185       4.0568     3.9661    -0.0605       99.3899            1.00E-12        -70.17312    -113.6113     99.87      709                      1099.85       26397       34.7257   34.7278     7.68994            30         0.00  
3        2017-12-29    363.941182  2017-12-29T22:35:18Z    518       512.108     1.6629       1.6631         30.50052      30.502232       4.0635     3.9709    -0.0645       99.3899            1.00E-12        -70.17312    -113.6113     99.87      709                      1101.109      26428       34.7259   34.7278     7.69005            30         0.00  
3        2017-12-29    363.941196  2017-12-29T22:35:19Z    519       513.097     1.6626       1.6628         30.500777     30.5024         4.0666     3.9674    -0.0557       99.3899            1.00E-12        -70.17312    -113.6113     99.87      709                      1102.35       26457       34.7259   34.7277     7.6901             30         0.00  
3        2017-12-29    363.94121   2017-12-29T22:35:21Z    520       514.083     1.662        1.6623         30.500743     30.502404       4.0635     3.9665    -0.0678       99.3899            1.00E-12        -70.17312    -113.6113     99.87      709                      1103.573      26487       34.7259   34.7278     7.69022            29         0.00  
3        2017-12-29    363.941224  2017-12-29T22:35:22Z    521       515.071     1.661        1.6612         30.500276     30.502029       4.0618     3.9663    -0.0704       99.3899            1.00E-12        -70.17312    -113.6113     99.87      709                      1104.778      26516       34.7259   34.7279     7.69041            29         0.00  
3        2017-12-29    363.941238  2017-12-29T22:35:23Z    522       516.057     1.6606       1.6608         30.500391     30.502016       4.0652     3.9659    -0.0569       99.3899            1.00E-12        -70.17312    -113.6113     99.87      709                      1105.986      26545       34.726    34.7278     7.6905             29         0.00  
3        2017-12-29    363.941252  2017-12-29T22:35:24Z    523       517.047     1.6604       1.6605         30.500658     30.502321       4.0634     3.9688    -0.0577       99.3899            1.00E-12        -70.17312    -113.6113     99.87      708                      1107.192      26574       34.726    34.7279     7.69054            29         0.00  
3        2017-12-29    363.941266  2017-12-29T22:35:25Z    524       518.032     1.6603       1.6604         30.501004     30.502735       4.067      3.969     -0.0598       99.3899            1.00E-12        -70.17312    -113.6113     99.87      707                      1108.41       26603       34.726    34.728      7.69056            29         0.00  
3        2017-12-29    363.941281  2017-12-29T22:35:27Z    525       519.021     1.6592       1.6594         30.500576     30.502253       4.0596     3.971     -0.063        99.3899            1.00E-12        -70.17312    -113.61128    99.87      707                      1109.644      26632       34.726    34.7279     7.69076            30         0.00  
3        2017-12-29    363.941295  2017-12-29T22:35:28Z    526       520.009     1.6581       1.6584         30.500118     30.501786       4.0561     3.9684    -0.0513       99.3899            1.00E-12        -70.17312    -113.61128    99.87      707                      1110.891      26662       34.7261   34.7279     7.69098            30         0.00  
3        2017-12-29    363.941309  2017-12-29T22:35:29Z    527       520.995     1.6571       1.6573         30.4997       30.501329       4.0613     3.9705    -0.0624       99.3899            1.00E-12        -70.17312    -113.61128    99.87      707                      1112.138      26692       34.726    34.7279     7.69116            30         0.00  
3        2017-12-29    363.941324  2017-12-29T22:35:30Z    528       521.982     1.6567       1.6568         30.499768     30.501405       4.064      3.9698    -0.0561       99.3846            1.00E-12        -70.17312    -113.61128    99.87      707                      1113.398      26723       34.7261   34.728      7.69125            30         0.00  
3        2017-12-29    363.941339  2017-12-29T22:35:32Z    529       522.97      1.6562       1.6564         30.499803     30.501479       4.0654     3.9716    -0.0557       99.3828            1.00E-12        -70.17312    -113.61128    99.87      707                      1114.649      26753       34.7261   34.728      7.69134            30         0.00  
3        2017-12-29    363.941353  2017-12-29T22:35:33Z    530       523.956     1.6556       1.6557         30.499744     30.501344       4.0663     3.9709    -0.0566       99.3899            1.00E-12        -70.17312    -113.61128    99.87      707                      1115.895      26782       34.7261   34.728      7.69146            30         0.00  
3        2017-12-29    363.941367  2017-12-29T22:35:34Z    531       524.944     1.6549       1.6552         30.499638     30.5013         4.0665     3.9665    -0.0693       99.3899            1.00E-12        -70.17312    -113.61128    99.87      707                      1117.136      26812       34.7261   34.728      7.69159            30         0.00  
3        2017-12-29    363.941381  2017-12-29T22:35:35Z    532       525.931     1.6545       1.6548         30.499782     30.501456       4.0683     3.9715    -0.0606       99.3899            1.00E-12        -70.17312    -113.61128    99.87      707                      1118.344      26841       34.7262   34.728      7.69166            28         0.00  
3        2017-12-29    363.941395  2017-12-29T22:35:37Z    533       526.918     1.6535       1.6538         30.499418     30.50114        4.0669     3.9728    -0.0621       99.3899            1.00E-12        -70.17312    -113.61127    99.87      707                      1119.527      26870       34.7263   34.7281     7.69185            28         0.00  
3        2017-12-29    363.941409  2017-12-29T22:35:38Z    534       527.907     1.653        1.6532         30.499435     30.500995       4.0663     3.9713    -0.045        99.3899            1.00E-12        -70.17312    -113.61126    99.87      707                      1120.718      26898       34.7263   34.7281     7.69195            29         0.00  
3        2017-12-29    363.941423  2017-12-29T22:35:39Z    535       528.894     1.6526       1.6528         30.499511     30.501157       4.0679     3.9711    -0.0633       99.3899            1.00E-12        -70.17312    -113.61126    99.87      707                      1121.903      26927       34.7263   34.7281     7.69203            28         0.00  
3        2017-12-29    363.941436  2017-12-29T22:35:40Z    536       529.88      1.6522       1.6525         30.499677     30.501263       4.0679     3.9742    -0.0699       99.3899            1.00E-12        -70.17312    -113.61126    99.87      707                      1123.083      26955       34.7263   34.7281     7.69211            29         0.00  
3        2017-12-29    363.94145   2017-12-29T22:35:41Z    537       530.868     1.6517       1.6519         30.499631     30.501279       4.0694     3.971     -0.0632       99.3899            1.00E-12        -70.17312    -113.61126    99.87      707                      1124.253      26983       34.7263   34.7282     7.69221            28         0.00  
3        2017-12-29    363.941463  2017-12-29T22:35:42Z    538       531.856     1.6508       1.651          30.499425     30.501006       4.071      3.9704    -0.0678       99.3899            1.00E-12        -70.17312    -113.61126    99.87      707                      1125.413      27011       34.7264   34.7282     7.69237            27         0.00  
3        2017-12-29    363.941476  2017-12-29T22:35:44Z    539       532.841     1.6499       1.6502         30.499116     30.500777       4.0696     3.9711    -0.071        99.3899            1.00E-12        -70.17312    -113.61126    99.87      707                      1126.564      27039       34.7264   34.7282     7.69254            28         0.00  
3        2017-12-29    363.94149   2017-12-29T22:35:45Z    540       533.831     1.6494       1.6495         30.499102     30.500688       4.0694     3.973     -0.0616       99.3899            1.00E-12        -70.17312    -113.61126    99.87      707                      1127.721      27066       34.7265   34.7283     7.69264            28         0.00  
3        2017-12-29    363.941503  2017-12-29T22:35:46Z    541       534.818     1.6493       1.6496         30.499468     30.501106       4.069      3.9727    -0.0673       99.3899            1.00E-12        -70.17312    -113.61126    99.87      707                      1128.873      27094       34.7264   34.7282     7.69266            27         0.00  
3        2017-12-29    363.941517  2017-12-29T22:35:47Z    542       535.805     1.649        1.6491         30.499569     30.501219       4.0609     3.9707    -0.0684       99.3889            1.00E-12        -70.17312    -113.61126    99.87      707                      1130.032      27122       34.7263   34.7283     7.69273            28         0.00  
3        2017-12-29    363.94153   2017-12-29T22:35:48Z    543       536.792     1.6489       1.649          30.49993      30.501593       4.0683     3.9756    -0.0684       99.3353            1.00E-12        -70.17312    -113.61126    99.87      707                      1131.214      27150       34.7263   34.7283     7.69274            29         0.00  
3        2017-12-29    363.941544  2017-12-29T22:35:49Z    544       537.78      1.6481       1.6483         30.499699     30.501388       4.0683     3.9739    -0.0684       99.3803            1.00E-12        -70.17312    -113.61126    99.87      707                      1132.407      27179       34.7264   34.7283     7.6929             29         0.00  
3        2017-12-29    363.941558  2017-12-29T22:35:51Z    545       538.766     1.647        1.6472         30.499357     30.500902       4.0705     3.9726    -0.0538       99.3898            1.00E-12        -70.17312    -113.61125    99.87      707                      1133.616      27208       34.7266   34.7283     7.6931             29         0.00  
3        2017-12-29    363.941572  2017-12-29T22:35:52Z    546       539.754     1.6465       1.6466         30.499201     30.500901       4.0697     3.9731    -0.0537       99.3899            1.00E-12        -70.17312    -113.61124    99.87      707                      1134.833      27237       34.7264   34.7284     7.69321            29         0.00  
3        2017-12-29    363.941586  2017-12-29T22:35:53Z    547       540.739     1.6461       1.6462         30.499369     30.500972       4.0684     3.9722    -0.0537       99.3899            1.00E-12        -70.17312    -113.61124    99.87      707                      1136.039      27266       34.7265   34.7283     7.69329            29         0.00  
3        2017-12-29    363.9416    2017-12-29T22:35:54Z    548       541.728     1.6452       1.6454         30.499126     30.500849       4.0744     3.9669    -0.0604       99.3899            1.00E-12        -70.17312    -113.61124    99.87      707                      1137.23       27295       34.7265   34.7285     7.69345            28         0.00  
3        2017-12-29    363.941613  2017-12-29T22:35:55Z    549       542.716     1.6446       1.6447         30.498932     30.500573       4.0738     3.971     -0.0632       99.3899            1.00E-12        -70.17312    -113.61124    99.87      707                      1138.399      27323       34.7265   34.7283     7.69358            28         0.00  
3        2017-12-29    363.941627  2017-12-29T22:35:57Z    550       543.704     1.6425       1.6429         30.497724     30.499412       4.0737     3.9742    -0.0575       99.3899            1.00E-12        -70.17312    -113.61124    99.87      707                      1139.55       27350       34.7266   34.7284     7.69397            27         0.00  
3        2017-12-29    363.94164   2017-12-29T22:35:58Z    551       544.69      1.6414       1.6415         30.497128     30.498784       4.0662     3.9687    -0.0558       99.3899            1.00E-12        -70.17312    -113.61124    99.87      707                      1140.694      27378       34.7265   34.7285     7.69419            28         0.00  
3        2017-12-29    363.941653  2017-12-29T22:35:59Z    552       545.677     1.6412       1.6415         30.497453     30.49922        4.0692     3.9746    -0.0663       99.3899            1.00E-12        -70.17312    -113.61124    99.87      707                      1141.842      27405       34.7266   34.7285     7.69423            27         0.00  
3        2017-12-29    363.941667  2017-12-29T22:36:00Z    553       546.664     1.6409       1.641          30.497579     30.499268       4.0743     3.9782    -0.0599       99.3899            1.00E-12        -70.17312    -113.61124    99.87      707                      1142.992      27433       34.7265   34.7286     7.69429            28         0.00  
3        2017-12-29    363.94168   2017-12-29T22:36:01Z    554       547.653     1.6397       1.6401         30.497133     30.498837       4.0802     3.9764    -0.0563       99.3899            1.00E-12        -70.17312    -113.61124    99.87      707                      1144.161      27461       34.7267   34.7285     7.69451            29         0.00  
3        2017-12-29    363.941694  2017-12-29T22:36:02Z    555       548.639     1.6385       1.6388         30.496569     30.498265       4.073      3.976     -0.0662       99.3899            1.00E-12        -70.17312    -113.61124    99.87      707                      1145.34       27489       34.7267   34.7286     7.69474            28         0.00  
3        2017-12-29    363.941707  2017-12-29T22:36:03Z    556       549.627     1.6372       1.6375         30.495774     30.497568       4.0749     3.9765    -0.0705       99.3899            1.00E-12        -70.17312    -113.61122    99.87      707                      1146.519      27517       34.7267   34.7286     7.69501            28         0.00  
3        2017-12-29    363.941721  2017-12-29T22:36:05Z    557       550.611     1.6351       1.6353         30.494389     30.49607        4.072      3.977     -0.0562       99.3899            1.00E-12        -70.17312    -113.61122    99.87      707                      1147.708      27546       34.7266   34.7285     7.69541            29         0.00  
3        2017-12-29    363.941735  2017-12-29T22:36:06Z    558       551.602     1.6322       1.6324         30.492383     30.494108       4.0787     3.9782    -0.0699       99.3899            1.00E-12        -70.17312    -113.61122    99.87      707                      1148.895      27574       34.7267   34.7287     7.69597            28         0.00  
3        2017-12-29    363.941749  2017-12-29T22:36:07Z    559       552.586     1.6304       1.6304         30.491356     30.492951       4.0771     3.9801    -0.0568       99.3899            1.00E-12        -70.17312    -113.61122    99.87      707                      1150.082      27603       34.7268   34.7288     7.69631            29         0.00  
3        2017-12-29    363.941762  2017-12-29T22:36:08Z    560       553.577     1.6292       1.6292         30.490695     30.492308       4.072      3.981     -0.0605       99.3899            1.00E-12        -70.17312    -113.61122    99.87      707                      1151.275      27632       34.7267   34.7288     7.69656            28         0.00  
3        2017-12-29    363.941776  2017-12-29T22:36:09Z    561       554.562     1.6281       1.6281         30.490229     30.491947       4.0758     3.9795    -0.0664       99.3899            1.00E-12        -70.17312    -113.61122    99.87      707                      1152.463      27660       34.7267   34.7289     7.69676            29         0.00  
3        2017-12-29    363.94179   2017-12-29T22:36:11Z    562       555.549     1.6276       1.628          30.490388     30.492199       4.0722     3.9778    -0.0553       99.3899            1.00E-12        -70.17312    -113.61122    99.87      707                      1153.658      27689       34.727    34.7289     7.69686            29         0.00  
3        2017-12-29    363.941804  2017-12-29T22:36:12Z    563       556.536     1.6272       1.6274         30.490322     30.492109       4.0721     3.9809    -0.0542       99.3899            1.00E-12        -70.17312    -113.61121    99.87      707                      1154.854      27717       34.7268   34.7288     7.69694            28         0.00  
3        2017-12-29    363.941818  2017-12-29T22:36:13Z    564       557.523     1.6264       1.6266         30.490083     30.491892       4.0713     3.9783    -0.0562       99.3899            1.00E-12        -70.17313    -113.6112     99.87      707                      1156.041      27746       34.7268   34.7289     7.69711            29         0.00  
3        2017-12-29    363.941831  2017-12-29T22:36:14Z    565       558.511     1.6256       1.6256         30.489857     30.491601       4.0797     3.9832    -0.0646       99.3899            1.00E-12        -70.17314    -113.6112     99.87      707                      1157.209      27774       34.7269   34.729      7.69726            27         0.00  
3        2017-12-29    363.941845  2017-12-29T22:36:15Z    566       559.499     1.6257       1.6257         30.490429     30.492205       4.0813     3.9813    -0.0605       99.3869            1.00E-12        -70.17314    -113.6112     99.87      707                      1158.369      27802       34.7269   34.7291     7.69724            28         0.00  
3        2017-12-29    363.941858  2017-12-29T22:36:17Z    567       560.486     1.6261       1.6261         30.491165     30.492859       4.0748     3.9788    -0.0569       99.375             1.00E-12        -70.17314    -113.6112     99.87      707                      1159.509      27829       34.7268   34.7289     7.69716            27         0.00  
3        2017-12-29    363.941871  2017-12-29T22:36:18Z    568       561.472     1.6262       1.6262         30.491766     30.493388       4.0747     3.982     -0.0684       99.389             1.00E-12        -70.17314    -113.6112     99.87      707                      1160.648      27857       34.7269   34.7289     7.69713            28         0.00  
3        2017-12-29    363.941884  2017-12-29T22:36:19Z    569       562.46      1.6256       1.6256         30.49163      30.493379       4.0728     3.9816    -0.059        99.3814            1.00E-12        -70.17314    -113.6112     99.87      707                      1161.803      27884       34.7268   34.729      7.69726            28         0.00  
3        2017-12-29    363.941898  2017-12-29T22:36:20Z    570       563.447     1.624        1.6242         30.490742     30.492654       4.0767     3.9806    -0.0574       99.3832            1.00E-12        -70.17314    -113.6112     99.87      707                      1162.967      27912       34.7269   34.729      7.69757            28         0.00  
3        2017-12-29    363.941911  2017-12-29T22:36:21Z    571       564.434     1.6239       1.624          30.491056     30.492828       4.077      3.9829    -0.0688       99.3853            1.00E-12        -70.17314    -113.6112     99.87      707                      1164.152      27941       34.7268   34.7289     7.69758            29         0.00  
3        2017-12-29    363.941925  2017-12-29T22:36:22Z    572       565.42      1.6236       1.6236         30.491238     30.492957       4.0804     3.978     -0.0543       99.3671            1.00E-12        -70.17314    -113.6112     99.87      707                      1165.346      27969       34.7268   34.7289     7.69765            28         0.00  
3        2017-12-29    363.941939  2017-12-29T22:36:24Z    573       566.409     1.6236       1.6237         30.491712     30.493507       4.0807     3.9779    -0.0562       99.377             1.00E-12        -70.17314    -113.61119    99.87      707                      1166.542      27998       34.7268   34.729      7.69764            29         0.00  
3        2017-12-29    363.941953  2017-12-29T22:36:25Z    574       567.395     1.6227       1.622          30.491235     30.492453       4.0755     3.9796    -0.0553       99.3842            1.00E-12        -70.17314    -113.61118    99.87      707                      1167.732      28027       34.7267   34.7289     7.69782            28         0.00  
3        2017-12-29    363.941967  2017-12-29T22:36:26Z    575       568.383     1.6188       1.6191         30.488414     30.490278       4.0711     3.9822    -0.06         99.3765            1.00E-12        -70.17314    -113.61118    99.87      707                      1168.907      28055       34.7268   34.7288     7.69857            28         0.00  
3        2017-12-29    363.94198   2017-12-29T22:36:27Z    576       569.368     1.6155       1.6156         30.485915     30.487774       4.077      3.9823    -0.0633       99.3844            1.00E-12        -70.17314    -113.61118    99.87      707                      1170.09       28083       34.7268   34.7289     7.69923            29         0.00  
3        2017-12-29    363.941994  2017-12-29T22:36:28Z    577       570.357     1.6145       1.6146         30.485642     30.487375       4.0771     3.9856    -0.0638       99.3717            1.00E-12        -70.17314    -113.61118    99.87      707                      1171.275      28112       34.727    34.729      7.69941            29         0.00  
3        2017-12-29    363.942008  2017-12-29T22:36:29Z    578       571.345     1.6143       1.6142         30.485932     30.48747        4.0777     3.9781    -0.0611       99.3899            1.00E-12        -70.17314    -113.61118    99.87      707                      1172.476      28140       34.7269   34.729      7.69945            28         0.00  
3        2017-12-29    363.942022  2017-12-29T22:36:31Z    579       572.331     1.6136       1.6136         30.485697     30.487473       4.0784     3.9794    -0.0567       99.3769            1.00E-12        -70.17314    -113.61118    99.87      707                      1173.678      28169       34.7269   34.7291     7.6996             29         0.00  
3        2017-12-29    363.942036  2017-12-29T22:36:32Z    580       573.318     1.6129       1.6129         30.485494     30.487251       4.0791     3.9775    -0.0567       99.3779            1.00E-12        -70.17314    -113.61118    99.87      707                      1174.876      28198       34.7269   34.7291     7.69973            29         0.00  
3        2017-12-29    363.942049  2017-12-29T22:36:33Z    581       574.303     1.6115       1.6116         30.484841     30.486653       4.0791     3.9807    -0.0667       99.386             1.00E-12        -70.17314    -113.61118    99.87      707                      1176.052      28226       34.727    34.7291     7.69999            28         0.00  
3        2017-12-29    363.942062  2017-12-29T22:36:34Z    582       575.292     1.6116       1.6117         30.485403     30.487205       4.0775     3.978     -0.0565       99.382             1.00E-12        -70.17314    -113.61118    99.87      707                      1177.198      28254       34.727    34.7292     7.69997            27         0.00  
3        2017-12-29    363.942075  2017-12-29T22:36:35Z    583       576.279     1.6113       1.6114         30.485575     30.487379       4.0743     3.9828    -0.0543       99.3839            1.00E-12        -70.17314    -113.61116    99.87      706                      1178.321      28281       34.7269   34.7291     7.70002            27         0.00  
3        2017-12-29    363.942088  2017-12-29T22:36:36Z    584       577.266     1.6103       1.6103         30.4851       30.486819       4.0766     3.9815    -0.0554       99.3654            1.00E-12        -70.17314    -113.61116    99.87      706                      1179.431      28307       34.7269   34.7291     7.70023            26         0.00  
3        2017-12-29    363.942101  2017-12-29T22:36:38Z    585       578.255     1.6095       1.6096         30.484835     30.486665       4.0744     3.9806    -0.0559       99.3701            1.00E-12        -70.17314    -113.61116    99.87      705                      1180.543      28334       34.7269   34.7291     7.70038            27         0.00  
3        2017-12-29    363.942114  2017-12-29T22:36:39Z    586       579.242     1.6084       1.6083         30.484305     30.486088       4.0759     3.9759    -0.0695       99.3555            1.00E-12        -70.17314    -113.61116    99.87      705                      1181.688      28362       34.7269   34.7293     7.7006             28         0.00  
3        2017-12-29    363.942128  2017-12-29T22:36:40Z    587       580.226     1.6075       1.6076         30.484038     30.485818       4.0744     3.9795    -0.0547       99.3799            1.00E-12        -70.17314    -113.61116    99.87      705                      1182.88       28390       34.7269   34.7291     7.70078            29         0.00  
3        2017-12-29    363.942142  2017-12-29T22:36:41Z    588       581.215     1.605        1.605          30.482156     30.483943       4.0708     3.9793    -0.0596       99.3819            1.00E-12        -70.17314    -113.61116    99.87      705                      1184.111      28420       34.7268   34.7291     7.70127            30         0.00  
3        2017-12-29    363.942157  2017-12-29T22:36:42Z    589       582.202     1.6039       1.6038         30.481693     30.483474       4.0734     3.9797    -0.0641       99.3873            1.00E-12        -70.17314    -113.61116    99.87      705                      1185.373      28450       34.7269   34.7292     7.70148            31         0.00  
3        2017-12-29    363.942172  2017-12-29T22:36:44Z    590       583.189     1.6036       1.6035         30.481886     30.483617       4.0758     3.9805    -0.0643       99.3844            1.00E-12        -70.17314    -113.61115    99.87      705                      1186.624      28480       34.7269   34.7291     7.70154            29         0.00  
3        2017-12-29    363.942186  2017-12-29T22:36:45Z    591       584.175     1.6034       1.6034         30.482198     30.48401        4.078      3.9797    -0.0608       99.3877            1.00E-12        -70.17314    -113.61114    99.87      705                      1187.841      28509       34.7269   34.7291     7.70157            29         0.00  
3        2017-12-29    363.942199  2017-12-29T22:36:46Z    592       585.164     1.6033       1.6033         30.482583     30.484336       4.0789     3.9744    -0.0647       99.3899            1.00E-12        -70.17314    -113.61114    99.87      705                      1189.027      28538       34.727    34.7291     7.7016             28         0.00  
3        2017-12-29    363.942213  2017-12-29T22:36:47Z    593       586.15      1.6033       1.6033         30.483131     30.484847       4.0775     3.9805    -0.0695       99.3899            1.00E-12        -70.17314    -113.61114    99.87      705                      1190.171      28565       34.727    34.7292     7.70158            27         0.00  
3        2017-12-29    363.942226  2017-12-29T22:36:48Z    594       587.136     1.6032       1.6033         30.483507     30.485204       4.0798     3.9794    -0.0585       99.3899            1.00E-12        -70.17314    -113.61114    99.87      705                      1191.297      28592       34.7271   34.7292     7.70161            27         0.00  
3        2017-12-29    363.942239  2017-12-29T22:36:49Z    595       588.126     1.6024       1.6025         30.483224     30.484981       4.081      3.9748    -0.0548       99.3899            1.00E-12        -70.17314    -113.61114    99.87      705                      1192.415      28619       34.727    34.7291     7.70175            27         0.00  
3        2017-12-29    363.942252  2017-12-29T22:36:51Z    596       589.11      1.601        1.6011         30.482445     30.484262       4.0808     3.9781    -0.0689       99.3899            1.00E-12        -70.17314    -113.61114    99.87      705                      1193.542      28646       34.727    34.7292     7.70204            27         0.00  
3        2017-12-29    363.942265  2017-12-29T22:36:52Z    597       590.1       1.5989       1.5989         30.480975     30.48269        4.0806     3.9785    -0.0574       99.3899            1.00E-12        -70.17314    -113.61114    99.87      705                      1194.681      28673       34.727    34.7291     7.70245            28         0.00  
3        2017-12-29    363.942278  2017-12-29T22:36:53Z    598       591.085     1.597        1.597          30.4798       30.481633       4.0806     3.9806    -0.0563       99.3822            1.00E-12        -70.17314    -113.61114    99.87      705                      1195.859      28702       34.7269   34.7292     7.70281            28         0.00  
3        2017-12-29    363.942292  2017-12-29T22:36:54Z    599       592.071     1.5961       1.5961         30.479481     30.48127        4.073      3.9798    -0.0552       99.3714            1.00E-12        -70.17314    -113.61114    99.87      705                      1197.054      28730       34.727    34.7292     7.70299            29         0.00  
3        2017-12-29    363.942306  2017-12-29T22:36:55Z    600       593.061     1.5959       1.5958         30.479696     30.48147        4.0724     3.9788    -0.0695       99.3864            1.00E-12        -70.17314    -113.61114    99.87      705                      1198.262      28759       34.7269   34.7292     7.70303            29         0.00  
3        2017-12-29    363.94232   2017-12-29T22:36:56Z    601       594.045     1.5955       1.5955         30.479759     30.481598       4.0781     3.9805    -0.0668       99.3806            1.00E-12        -70.17314    -113.61112    99.87      705                      1199.475      28788       34.7269   34.7292     7.70312            29         0.00  
3        2017-12-29    363.942334  2017-12-29T22:36:58Z    602       595.034     1.5945       1.5946         30.479408     30.481236       4.0786     3.9812    -0.0618       99.3687            1.00E-12        -70.17314    -113.61112    99.87      705                      1200.669      28817       34.7269   34.7291     7.7033             29         0.00  
3        2017-12-29    363.942348  2017-12-29T22:36:59Z    603       596.021     1.5924       1.5924         30.477901     30.4798         4.0821     3.9814    -0.0626       99.368             1.00E-12        -70.17314    -113.61112    99.87      705                      1201.846      28845       34.7269   34.7292     7.70373            28         0.00  
3        2017-12-29    363.942361  2017-12-29T22:37:00Z    604       597.007     1.5926       1.5926         30.478815     30.480662       4.0813     3.9873    -0.0553       99.3765            1.00E-12        -70.17314    -113.61112    99.87      705                      1203.018      28873       34.7271   34.7295     7.70366            28         0.00  
3        2017-12-29    363.942375  2017-12-29T22:37:01Z    605       597.993     1.5925       1.5925         30.479133     30.480984       4.0837     3.982     -0.0542       99.3794            1.00E-12        -70.17314    -113.61112    99.87      705                      1204.182      28901       34.7271   34.7294     7.70369            28         0.00  
3        2017-12-29    363.942388  2017-12-29T22:37:02Z    606       598.982     1.5913       1.5913         30.478528     30.480325       4.0849     3.9867    -0.0542       99.3794            1.00E-12        -70.17314    -113.61112    99.87      705                      1205.352      28929       34.7272   34.7294     7.70393            28         0.00  
3        2017-12-29    363.942402  2017-12-29T22:37:04Z    607       599.967     1.5909       1.5908         30.478561     30.480323       4.0829     3.987     -0.0659       99.3736            1.00E-12        -70.17314    -113.61111    99.87      705                      1206.529      28958       34.7271   34.7294     7.70401            28         0.00  
3        2017-12-29    363.942415  2017-12-29T22:37:05Z    608       600.956     1.5892       1.5893         30.477594     30.47943        4.0834     3.9829    -0.0589       99.3621            1.00E-12        -70.17314    -113.6111     99.87      705                      1207.699      28986       34.7272   34.7294     7.70434            28         0.00  
3        2017-12-29    363.942429  2017-12-29T22:37:06Z    609       601.943     1.5879       1.5878         30.476772     30.478603       4.0813     3.9844    -0.0552       99.3738            1.00E-12        -70.17314    -113.6111     99.87      705                      1208.87       29014       34.727    34.7294     7.7046             28         0.00  
3        2017-12-29    363.942443  2017-12-29T22:37:07Z    610       602.928     1.587        1.587          30.476627     30.478378       4.0799     3.9821    -0.0542       99.3795            1.00E-12        -70.17314    -113.6111     99.87      705                      1210.032      29042       34.7272   34.7294     7.70476            28         0.00  
3        2017-12-29    363.942456  2017-12-29T22:37:08Z    611       603.917     1.5854       1.5855         30.475507     30.477481       4.0772     3.9845    -0.0699       99.3785            1.00E-12        -70.17314    -113.6111     99.87      705                      1211.181      29069       34.727    34.7294     7.70508            28         0.00  
3        2017-12-29    363.942469  2017-12-29T22:37:09Z    612       604.901     1.5832       1.5831         30.474081     30.475972       4.0778     3.984     -0.0565       99.383             1.00E-12        -70.17314    -113.6111     99.87      705                      1212.33       29097       34.727    34.7295     7.70551            27         0.00  
3        2017-12-29    363.942482  2017-12-29T22:37:10Z    613       605.89      1.5829       1.5829         30.47433      30.476191       4.0822     3.985     -0.0705       99.3823            1.00E-12        -70.17314    -113.6111     99.87      705                      1213.476      29124       34.7271   34.7294     7.70556            28         0.00  
3        2017-12-29    363.942496  2017-12-29T22:37:12Z    614       606.876     1.5826       1.5827         30.474626     30.476495       4.085      3.9866    -0.07         99.3832            1.00E-12        -70.17314    -113.6111     99.87      705                      1214.631      29152       34.7272   34.7295     7.7056             28         0.00  
3        2017-12-29    363.942509  2017-12-29T22:37:13Z    615       607.866     1.5821       1.5821         30.474675     30.476407       4.0865     3.9887    -0.0554       99.3738            1.00E-12        -70.17314    -113.6111     99.87      705                      1215.8        29180       34.7273   34.7295     7.70571            28         0.00  
3        2017-12-29    363.942523  2017-12-29T22:37:14Z    616       608.851     1.5809       1.5809         30.474022     30.475775       4.0858     3.9844    -0.0597       99.3724            1.00E-12        -70.17314    -113.6111     99.87      705                      1216.988      29209       34.7273   34.7295     7.70595            29         0.00  
3        2017-12-29    363.942537  2017-12-29T22:37:15Z    617       609.837     1.579        1.5791         30.472798     30.474707       4.0852     3.9899    -0.0653       99.3769            1.00E-12        -70.17314    -113.6111     99.87      705                      1218.189      29238       34.7273   34.7296     7.70632            29         0.00  
3        2017-12-29    363.942551  2017-12-29T22:37:16Z    618       610.824     1.5784       1.5783         30.472751     30.474496       4.0842     3.9877    -0.0573       99.3816            1.00E-12        -70.17314    -113.61108    99.87      705                      1219.406      29267       34.7272   34.7295     7.70643            29         0.00  
3        2017-12-29    363.942565  2017-12-29T22:37:18Z    619       611.812     1.5784       1.5783         30.472695     30.474935       4.0841     3.9881    -0.0648       99.3549            1.00E-12        -70.17314    -113.61108    99.87      705                      1220.623      29296       34.7266   34.7296     7.70647            29         0.00  
3        2017-12-29    363.942579  2017-12-29T22:37:19Z    620       612.799     1.5776       1.5776         30.472966     30.474817       4.081      3.9886    -0.0613       99.377             1.00E-12        -70.17314    -113.61108    99.87      705                      1221.834      29325       34.7273   34.7296     7.70659            29         0.00  
3        2017-12-29    363.942593  2017-12-29T22:37:20Z    621       613.785     1.5772       1.5771         30.473064     30.474887       4.0844     3.987     -0.0558       99.3861            1.00E-12        -70.17314    -113.61108    99.87      705                      1223.022      29354       34.7273   34.7296     7.70667            28         0.00  
3        2017-12-29    363.942606  2017-12-29T22:37:21Z    622       614.772     1.5768       1.5767         30.473144     30.474891       4.0867     3.9854    -0.0548       99.3809            1.00E-12        -70.17314    -113.61108    99.87      705                      1224.18       29381       34.7273   34.7296     7.70674            27         0.00  
3        2017-12-29    363.942619  2017-12-29T22:37:22Z    623       615.758     1.5765       1.5764         30.473271     30.475042       4.0866     3.9871    -0.0537       99.38              1.00E-12        -70.17314    -113.61108    99.87      705                      1225.313      29409       34.7272   34.7295     7.7068             27         0.00  
3        2017-12-29    363.942632  2017-12-29T22:37:23Z    624       616.747     1.5729       1.5728         30.470649     30.472388       4.0912     3.9913    -0.0681       99.3438            1.00E-12        -70.17314    -113.61108    99.87      705                      1226.435      29435       34.7272   34.7295     7.7075             27         0.00  
3        2017-12-29    363.942645  2017-12-29T22:37:25Z    625       617.732     1.5705       1.5704         30.468888     30.470698       4.0961     3.9875    -0.0585       99.3384            1.00E-12        -70.17314    -113.61108    99.87      705                      1227.551      29462       34.7271   34.7295     7.70798            27         0.00  
3        2017-12-29    363.942658  2017-12-29T22:37:26Z    626       618.72      1.5685       1.5686         30.467723     30.469643       4.0913     3.9875    -0.0678       99.3574            1.00E-12        -70.17314    -113.61108    99.87      705                      1228.683      29489       34.7273   34.7297     7.70836            28         0.00  
3        2017-12-29    363.942672  2017-12-29T22:37:27Z    627       619.708     1.5684       1.5683         30.46815      30.469869       4.0932     3.987     -0.0537       99.3708            1.00E-12        -70.17314    -113.61108    99.87      705                      1229.852      29517       34.7274   34.7297     7.70838            28         0.00  
3        2017-12-29    363.942686  2017-12-29T22:37:28Z    628       620.694     1.5671       1.5668         30.46735      30.468931       4.0909     3.9916    -0.0537       99.3844            1.00E-12        -70.17314    -113.61107    99.87      704                      1231.048      29546       34.7272   34.7295     7.70863            29         0.00  
3        2017-12-29    363.9427    2017-12-29T22:37:29Z    629       621.681     1.5652       1.5651         30.466111     30.467891       4.0926     3.9895    -0.0537       99.3721            1.00E-12        -70.17314    -113.61106    99.87      704                      1232.27       29575       34.7272   34.7296     7.70902            30         0.00  
3        2017-12-29    363.942714  2017-12-29T22:37:30Z    630       622.666     1.5643       1.5642         30.465827     30.467615       4.0944     3.9896    -0.0552       99.3715            1.00E-12        -70.17314    -113.61106    99.87      704                      1233.498      29605       34.7273   34.7296     7.70918            29         0.00  
3        2017-12-29    363.942728  2017-12-29T22:37:32Z    631       623.653     1.5623       1.5624         30.464487     30.466431       4.0877     3.9896    -0.0608       99.3651            1.00E-12        -70.17314    -113.61106    99.87      704                      1234.701      29634       34.7272   34.7296     7.70958            29         0.00  
3        2017-12-29    363.942742  2017-12-29T22:37:33Z    632       624.642     1.561        1.561          30.463854     30.465679       4.0889     3.9937    -0.0619       99.373             1.00E-12        -70.17314    -113.61106    99.87      704                      1235.867      29662       34.7273   34.7296     7.70983            27         0.00  
3        2017-12-29    363.942755  2017-12-29T22:37:34Z    633       625.627     1.5594       1.5594         30.462872     30.464649       4.0905     3.9922    -0.063        99.3731            1.00E-12        -70.17314    -113.61106    99.87      704                      1237.012      29689       34.7272   34.7295     7.71014            27         0.00  
3        2017-12-29    363.942768  2017-12-29T22:37:35Z    634       626.615     1.5586       1.5584         30.462479     30.464248       4.0919     3.9914    -0.0624       99.3791            1.00E-12        -70.17314    -113.61106    99.87      704                      1238.137      29716       34.7271   34.7295     7.71031            27         0.00  
3        2017-12-29    363.942781  2017-12-29T22:37:36Z    635       627.601     1.5576       1.5576         30.46218      30.464053       4.0931     3.9939    -0.0558       99.3613            1.00E-12        -70.17314    -113.61104    99.87      704                      1239.273      29744       34.7272   34.7296     7.7105             28         0.00  
3        2017-12-29    363.942794  2017-12-29T22:37:37Z    636       628.59      1.5566       1.5566         30.461903     30.463656       4.091      3.9925    -0.0663       99.3833            1.00E-12        -70.17314    -113.61104    99.87      704                      1240.442      29772       34.7273   34.7296     7.71067            28         0.00  
3        2017-12-29    363.942808  2017-12-29T22:37:39Z    637       629.575     1.5553       1.5551         30.461192     30.462878       4.0844     3.9879    -0.0689       99.376             1.00E-12        -70.17314    -113.61104    99.87      704                      1241.64       29800       34.7274   34.7297     7.71093            29         0.00  
3        2017-12-29    363.942822  2017-12-29T22:37:40Z    638       630.563     1.5546       1.5543         30.460935     30.462549       4.0891     3.9935    -0.0684       99.3694            1.00E-12        -70.17314    -113.61104    99.87      704                      1242.857      29830       34.7273   34.7296     7.71108            30         0.00  
3        2017-12-29    363.942837  2017-12-29T22:37:41Z    639       631.547     1.5537       1.5536         30.460675     30.462397       4.0896     3.9917    -0.0568       99.3798            1.00E-12        -70.17314    -113.61104    99.87      704                      1244.081      29859       34.7273   34.7296     7.71125            29         0.00  
3        2017-12-29    363.94285   2017-12-29T22:37:42Z    640       632.535     1.5532       1.5532         30.460707     30.462478       4.0925     3.9931    -0.0689       99.3756            1.00E-12        -70.17314    -113.61104    99.87      704                      1245.269      29887       34.7274   34.7296     7.71134            28         0.00  
3        2017-12-29    363.942864  2017-12-29T22:37:43Z    641       633.521     1.5529       1.5528         30.460792     30.462694       4.0972     3.9944    -0.0689       99.383             1.00E-12        -70.17314    -113.61104    99.87      704                      1246.425      29915       34.7272   34.7297     7.71141            27         0.00  
3        2017-12-29    363.942877  2017-12-29T22:37:45Z    642       634.507     1.5526       1.5525         30.461017     30.462768       4.0914     3.995     -0.0678       99.3711            1.00E-12        -70.17314    -113.61104    99.87      704                      1247.546      29942       34.7273   34.7297     7.71147            27         0.00  
3        2017-12-29    363.94289   2017-12-29T22:37:46Z    643       635.499     1.5516       1.5517         30.460646     30.462548       4.0898     3.9914    -0.0598       99.3701            1.00E-12        -70.17314    -113.61104    99.87      704                      1248.654      29969       34.7274   34.7296     7.71166            27         0.00  
3        2017-12-29    363.942902  2017-12-29T22:37:47Z    644       636.483     1.5513       1.5513         30.460898     30.462624       4.0945     3.9915    -0.0661       99.3604            1.00E-12        -70.17314    -113.61103    99.87      704                      1249.77       29995       34.7274   34.7297     7.71171            27         0.00  
3        2017-12-29    363.942916  2017-12-29T22:37:48Z    645       637.47      1.5502       1.5502         30.460409     30.462183       4.0945     3.9899    -0.0606       99.366             1.00E-12        -70.17314    -113.61102    99.87      704                      1250.922      30023       34.7275   34.7297     7.71192            28         0.00  
3        2017-12-29    363.942929  2017-12-29T22:37:49Z    646       638.458     1.548        1.5479         30.458827     30.460528       4.096      3.995     -0.0663       99.3669            1.00E-12        -70.17314    -113.61102    99.87      704                      1252.107      30052       34.7273   34.7296     7.71236            29         0.00  
3        2017-12-29    363.942944  2017-12-29T22:37:50Z    647       639.444     1.5469       1.5467         30.458267     30.459958       4.095      3.9989    -0.0618       99.3706            1.00E-12        -70.17314    -113.61102    99.87      704                      1253.334      30081       34.7273   34.7296     7.71258            29         0.00  
3        2017-12-29    363.942958  2017-12-29T22:37:52Z    648       640.43      1.5449       1.5449         30.457003     30.458878       4.0996     3.9915    -0.069        99.3667            1.00E-12        -70.17314    -113.61102    99.87      704                      1254.573      30111       34.7273   34.7296     7.71297            30         0.00  
3        2017-12-29    363.942972  2017-12-29T22:37:53Z    649       641.415     1.5449       1.5448         30.457449     30.459215       4.0964     3.9946    -0.0684       99.3761            1.00E-12        -70.17314    -113.61102    99.87      704                      1255.794      30140       34.7273   34.7296     7.71297            29         0.00  
3        2017-12-29    363.942986  2017-12-29T22:37:54Z    650       642.403     1.5446       1.5447         30.457696     30.459616       4.096      3.9897    -0.0684       99.367             1.00E-12        -70.17314    -113.61102    99.87      704                      1256.986      30169       34.7274   34.7297     7.71302            28         0.00  
3        2017-12-29    363.942999  2017-12-29T22:37:55Z    651       643.391     1.5441       1.5435         30.457684     30.458971       4.0978     3.9931    -0.0684       99.3728            1.00E-12        -70.17314    -113.61102    99.87      704                      1258.15       30197       34.7274   34.7297     7.71313            28         0.00  
3        2017-12-29    363.943013  2017-12-29T22:37:56Z    652       644.376     1.5433       1.5432         30.457438     30.459266       4.0952     3.9965    -0.07         99.3671            1.00E-12        -70.17314    -113.61102    99.87      704                      1259.296      30224       34.7274   34.7298     7.71329            27         0.00  
3        2017-12-29    363.943026  2017-12-29T22:37:57Z    653       645.364     1.5434       1.5433         30.457977     30.459777       4.0947     3.9911    -0.0684       99.3728            1.00E-12        -70.17314    -113.61102    99.87      704                      1260.442      30252       34.7273   34.7298     7.71325            28         0.00  
3        2017-12-29    363.943039  2017-12-29T22:37:59Z    654       646.351     1.5428       1.5428         30.457988     30.459743       4.0931     3.994     -0.0552       99.3711            1.00E-12        -70.17314    -113.611      99.87      704                      1261.592      30279       34.7275   34.7297     7.71337            27         0.00  
3        2017-12-29    363.943053  2017-12-29T22:38:00Z    655       647.338     1.5426       1.5426         30.458178     30.46015        4.095      3.9951    -0.0557       99.3825            1.00E-12        -70.17314    -113.611      99.87      704                      1262.75       30307       34.7274   34.7298     7.71342            29         0.00  
3        2017-12-29    363.943066  2017-12-29T22:38:01Z    656       648.323     1.5418       1.5418         30.457948     30.459714       4.0963     3.9971    -0.0677       99.371             1.00E-12        -70.17314    -113.611      99.87      704                      1263.921      30335       34.7274   34.7297     7.71357            28         0.00  
3        2017-12-29    363.94308   2017-12-29T22:38:02Z    657       649.309     1.5411       1.5411         30.457794     30.459657       4.0986     3.9984    -0.0537       99.3681            1.00E-12        -70.17314    -113.611      99.87      704                      1265.085      30363       34.7274   34.7298     7.7137             27         0.00  
3        2017-12-29    363.943093  2017-12-29T22:38:03Z    658       650.297     1.54         1.5401         30.457314     30.459089       4.0988     3.9962    -0.0585       99.368             1.00E-12        -70.17314    -113.611      99.87      704                      1266.247      30391       34.7274   34.7297     7.71391            28         0.00  
3        2017-12-29    363.943107  2017-12-29T22:38:04Z    659       651.284     1.5393       1.5392         30.457136     30.45887        4.1006     3.9981    -0.0648       99.3651            1.00E-12        -70.17314    -113.611      99.87      704                      1267.404      30419       34.7275   34.7297     7.71406            28         0.00  
3        2017-12-29    363.94312   2017-12-29T22:38:06Z    660       652.272     1.5384       1.538          30.456706     30.458221       4.0993     3.9997    -0.0595       99.3698            1.00E-12        -70.17314    -113.61098    99.87      704                      1268.555      30446       34.7274   34.7297     7.71424            28         0.00  
3        2017-12-29    363.943133  2017-12-29T22:38:07Z    661       653.258     1.5365       1.5365         30.455464     30.45732        4.1024     3.9991    -0.0626       99.3849            1.00E-12        -70.17314    -113.61098    99.87      704                      1269.712      30474       34.7274   34.7296     7.71462            28         0.00  
3        2017-12-29    363.943147  2017-12-29T22:38:08Z    662       654.244     1.535        1.5349         30.454697     30.456495       4.1008     4.0021    -0.0549       99.3775            1.00E-12        -70.17314    -113.61098    99.87      703                      1270.89       30502       34.7274   34.7298     7.7149             28         0.00  
3        2017-12-29    363.943161  2017-12-29T22:38:09Z    663       655.231     1.5348       1.5347         30.454966     30.456778       4.1025     3.9993    -0.0537       99.3696            1.00E-12        -70.17314    -113.61098    99.87      703                      1272.083      30531       34.7274   34.7298     7.71494            29         0.00  
3        2017-12-29    363.943175  2017-12-29T22:38:10Z    664       656.22      1.5347       1.5347         30.455357     30.457241       4.1024     4.0039    -0.0537       99.3687            1.00E-12        -70.17314    -113.61098    99.87      703                      1273.293      30560       34.7274   34.7299     7.71495            29         0.00  
3        2017-12-29    363.943189  2017-12-29T22:38:12Z    665       657.205     1.5329       1.5329         30.454244     30.45611        4.1044     4.0006    -0.0537       99.3743            1.00E-12        -70.17314    -113.61098    99.87      702                      1274.515      30589       34.7275   34.7298     7.7153             29         0.00  
3        2017-12-29    363.943203  2017-12-29T22:38:13Z    666       658.191     1.5317       1.5317         30.453616     30.455493       4.1046     4.0032    -0.0684       99.3733            1.00E-12        -70.17314    -113.61098    99.87      702                      1275.711      30618       34.7275   34.7298     7.71554            29         0.00  
3        2017-12-29    363.943216  2017-12-29T22:38:14Z    667       659.179     1.5303       1.5302         30.452964     30.454688       4.1051     4.0066    -0.071        99.3727            1.00E-12        -70.17314    -113.61098    99.87      702                      1276.881      30646       34.7276   34.7298     7.71581            28         0.00  
3        2017-12-29    363.94323   2017-12-29T22:38:15Z    668       660.162     1.5297       1.5295         30.452829     30.454618       4.1058     4.0031    -0.056        99.379             1.00E-12        -70.17314    -113.61098    99.87      702                      1278.033      30674       34.7276   34.73       7.71593            27         0.00  
3        2017-12-29    363.943243  2017-12-29T22:38:16Z    669       661.153     1.5284       1.5284         30.452272     30.454007       4.1063     4.0045    -0.0694       99.3644            1.00E-12        -70.17314    -113.61096    99.87      702                      1279.162      30701       34.7277   34.7298     7.71617            27         0.00  
3        2017-12-29    363.943256  2017-12-29T22:38:17Z    670       662.137     1.5274       1.5275         30.451955     30.453733       4.1069     4.0044    -0.0695       99.3632            1.00E-12        -70.17314    -113.61096    99.87      702                      1280.289      30728       34.7278   34.7299     7.71636            27         0.00  
3        2017-12-29    363.943269  2017-12-29T22:38:18Z    671       663.126     1.5274       1.5274         30.452216     30.454076       4.4668     4.0072    -0.0679       99.3632            1.00E-12        -70.17314    -113.61096    99.87      702                      1281.432      30755       34.7276   34.73       7.71638            28         0.00  
3        2017-12-29    363.943282  2017-12-29T22:38:20Z    672       664.111     1.5267       1.5267         30.452076     30.45392        3.8357     4.0043    -0.0559       99.3632            1.00E-12        -70.17314    -113.61096    99.87      702                      1282.598      30783       34.7277   34.73       7.71651            28         0.00  
3        2017-12-29    363.943296  2017-12-29T22:38:21Z    673       665.098     1.5265       1.5263         30.452258     30.454076       4.1089     4.0041    -0.0537       99.3706            1.00E-12        -70.17314    -113.61096    99.87      702                      1283.791      30812       34.7276   34.73       7.71656            29         0.00  
3        2017-12-29    363.94331   2017-12-29T22:38:22Z    674       666.085     1.526        1.526          30.452461     30.454182       4.1095     4.0052    -0.0537       99.3678            1.00E-12        -70.17314    -113.61096    99.87      702                      1284.996      30841       34.7278   34.73       7.71665            29         0.00  
3        2017-12-29    363.943324  2017-12-29T22:38:23Z    675       667.071     1.5255       1.5256         30.452501     30.454252       4.1096     4.0033    -0.0537       99.3642            1.00E-12        -70.17314    -113.61096    99.87      702                      1286.195      30870       34.7278   34.7299     7.71673            29         0.00  
3        2017-12-29    363.943338  2017-12-29T22:38:24Z    676       668.057     1.5248       1.5248         30.452227     30.45403        4.1096     4.0067    -0.0537       99.3679            1.00E-12        -70.17314    -113.61094    99.87      702                      1287.379      30898       34.7276   34.73       7.71687            28         0.00  
3        2017-12-29    363.943351  2017-12-29T22:38:26Z    677       669.046     1.5247       1.5246         30.452593     30.454274       4.1073     4.0153    -0.0537       99.3701            1.00E-12        -70.17314    -113.61094    99.87      702                      1288.547      30926       34.7277   34.7299     7.7169             27         0.00  
3        2017-12-29    363.943364  2017-12-29T22:38:27Z    678       670.031     1.5228       1.5228         30.451313     30.453167       4.1091     4.0066    -0.0537       99.3708            1.00E-12        -70.17314    -113.61094    99.87      702                      1289.688      30954       34.7276   34.7299     7.71727            28         0.00  
3        2017-12-29    363.943378  2017-12-29T22:38:28Z    679       671.018     1.5212       1.5212         30.450322     30.452244       4.1132     4.0081    -0.0537       99.3741            1.00E-12        -70.17314    -113.61094    99.87      702                      1290.836      30981       34.7275   34.73       7.71759            27         0.00  
3        2017-12-29    363.943391  2017-12-29T22:38:29Z    680       672.006     1.5191       1.519          30.448978     30.450787       4.1058     4.0093    -0.0537       99.3656            1.00E-12        -70.17314    -113.61094    99.87      702                      1291.987      31009       34.7275   34.7299     7.71799            28         0.00  
3        2017-12-29    363.943405  2017-12-29T22:38:30Z    681       672.991     1.5188       1.5187         30.449174     30.450881       4.1064     4.0105    -0.0537       99.3632            1.00E-12        -70.17314    -113.61094    99.87      702                      1293.156      31037       34.7275   34.7298     7.71805            28         0.00  
3        2017-12-29    363.943418  2017-12-29T22:38:31Z    682       673.978     1.5183       1.5183         30.449147     30.450932       4.1104     4.0123    -0.0537       99.3632            1.00E-12        -70.17314    -113.61094    99.87      702                      1294.339      31065       34.7275   34.7298     7.71815            29         0.00  
3        2017-12-29    363.943432  2017-12-29T22:38:33Z    683       674.964     1.5176       1.5175         30.448934     30.450732       4.1096     4.0043    -0.0549       99.3653            1.00E-12        -70.17314    -113.61094    99.87      702                      1295.53       31094       34.7275   34.7299     7.7183             28         0.00  
3        2017-12-29    363.943446  2017-12-29T22:38:34Z    684       675.95      1.5155       1.5155         30.447592     30.449388       4.1142     4.0073    -0.0562       99.366             1.00E-12        -70.17314    -113.61094    99.87      702                      1296.714      31122       34.7275   34.7298     7.7187             29         0.00  
3        2017-12-29    363.943459  2017-12-29T22:38:35Z    685       676.939     1.514        1.5141         30.446739     30.448651       4.1156     4.0086    -0.0709       99.3642            1.00E-12        -70.17314    -113.61093    99.87      702                      1297.887      31150       34.7275   34.7299     7.71899            28         0.00  
3        2017-12-29    363.943473  2017-12-29T22:38:36Z    686       677.924     1.5114       1.5114         30.444812     30.446558       4.1125     4.0099    -0.0684       99.3764            1.00E-12        -70.17314    -113.61092    99.87      702                      1299.044      31178       34.7274   34.7297     7.71952            28         0.00  
3        2017-12-29    363.943486  2017-12-29T22:38:37Z    687       678.912     1.5089       1.5089         30.443098     30.444963       4.1142     4.0114    -0.0565       99.3699            1.00E-12        -70.17314    -113.61092    99.87      702                      1300.198      31206       34.7274   34.7298     7.72               27         0.00  
3        2017-12-29    363.9435    2017-12-29T22:38:38Z    688       679.898     1.5087       1.5087         30.44346      30.445193       4.1142     4.0091    -0.0569       99.3632            1.00E-12        -70.17314    -113.61092    99.87      702                      1301.361      31234       34.7275   34.7297     7.72003            28         0.00  
3        2017-12-29    363.943513  2017-12-29T22:38:40Z    689       680.883     1.5084       1.5084         30.443585     30.445331       4.1167     4.0079    -0.0567       99.3632            1.00E-12        -70.17314    -113.61092    99.87      702                      1302.545      31262       34.7275   34.7297     7.7201             29         0.00  
3        2017-12-29    363.943527  2017-12-29T22:38:41Z    690       681.873     1.5073       1.5073         30.443105     30.444936       4.1157     4.0159    -0.0572       99.3623            1.00E-12        -70.17314    -113.61092    99.87      702                      1303.74       31291       34.7275   34.7298     7.72031            29         0.00  
3        2017-12-29    363.943541  2017-12-29T22:38:42Z    691       682.857     1.5054       1.5054         30.441848     30.443745       4.122      4.0161    -0.0663       99.367             1.00E-12        -70.17314    -113.61092    99.87      702                      1304.945      31320       34.7275   34.7298     7.72069            28         0.00  
3        2017-12-29    363.943555  2017-12-29T22:38:43Z    692       683.844     1.5048       1.5048         30.44201      30.443656       4.1234     4.0161    -0.0609       99.367             1.00E-12        -70.17314    -113.61092    99.87      702                      1306.127      31348       34.7278   34.7299     7.72079            28         0.00  
3        2017-12-29    363.943568  2017-12-29T22:38:44Z    693       684.828     1.5049       1.5048         30.442423     30.444175       4.1229     4.0161    -0.0668       99.342             1.00E-12        -70.17314    -113.61092    99.87      702                      1307.279      31376       34.7276   34.7299     7.72078            28         0.00  
3        2017-12-29    363.943581  2017-12-29T22:38:45Z    694       685.818     1.5048       1.5048         30.442815     30.444653       4.1262     4.0144    -0.0705       99.37              1.00E-12        -70.17314    -113.6109     99.87      702                      1308.41       31403       34.7277   34.73       7.72079            27         0.00  
3        2017-12-29    363.943594  2017-12-29T22:38:47Z    695       686.802     1.5041       1.5041         30.442759     30.444514       4.125      4.0174    -0.0712       99.3663            1.00E-12        -70.17314    -113.6109     99.87      702                      1309.526      31430       34.7278   34.73       7.72092            26         0.00  
3        2017-12-29    363.943607  2017-12-29T22:38:48Z    696       687.792     1.5035       1.5035         30.442627     30.444411       4.1213     4.0134    -0.0618       99.3682            1.00E-12        -70.17314    -113.6109     99.87      702                      1310.638      31456       34.7277   34.73       7.72104            27         0.00  
3        2017-12-29    363.94362   2017-12-29T22:38:49Z    697       688.776     1.5031       1.5032         30.44281      30.444619       4.1186     4.0171    -0.0658       99.3631            1.00E-12        -70.17314    -113.6109     99.87      702                      1311.783      31484       34.7278   34.7301     7.72111            28         0.00  
3        2017-12-29    363.943634  2017-12-29T22:38:50Z    698       689.766     1.5031       1.503          30.443171     30.444867       4.1144     4.0203    -0.0567       99.3716            1.00E-12        -70.17314    -113.6109     99.87      702                      1312.969      31512       34.7278   34.73       7.72112            29         0.00  
3        2017-12-29    363.943648  2017-12-29T22:38:51Z    699       690.749     1.5031       1.5029         30.443587     30.445229       4.118      4.0197    -0.0729       99.3721            1.00E-12        -70.17314    -113.6109     99.87      702                      1314.199      31542       34.7278   34.7301     7.72113            30         0.00  
3        2017-12-29    363.943663  2017-12-29T22:38:52Z    700       691.737     1.5028       1.5028         30.443809     30.445582       4.1182     4.0193    -0.067        99.3675            1.00E-12        -70.17314    -113.61088    99.87      702                      1315.46       31572       34.7278   34.73       7.72118            31         0.00  
3        2017-12-29    363.943677  2017-12-29T22:38:54Z    701       692.721     1.5021       1.5022         30.443635     30.44548        4.1198     4.0214    -0.0562       99.3623            1.00E-12        -70.17314    -113.61088    99.87      700                      1316.715      31602       34.7278   34.73       7.72132            29         0.00  
3        2017-12-29    363.943691  2017-12-29T22:38:55Z    702       693.709     1.5001       1.5002         30.442315     30.444105       4.1232     4.0225    -0.0619       99.3632            1.00E-12        -70.17314    -113.61088    99.87      700                      1317.933      31631       34.7278   34.7298     7.72171            29         0.00  
3        2017-12-29    363.943705  2017-12-29T22:38:56Z    703       694.696     1.4978       1.4979         30.440824     30.44258        4.1265     4.0191    -0.0689       99.3632            1.00E-12        -70.17314    -113.61088    99.87      700                      1319.1        31659       34.7278   34.73       7.72216            28         0.00  
3        2017-12-29    363.943718  2017-12-29T22:38:57Z    704       695.682     1.4974       1.4974         30.440901     30.44266        4.1232     4.0222    -0.0695       99.3632            1.00E-12        -70.17314    -113.61088    99.87      700                      1320.224      31686       34.7278   34.73       7.72224            26         0.00  
3        2017-12-29    363.943731  2017-12-29T22:38:58Z    705       696.669     1.4972       1.4972         30.44125      30.442948       4.1255     4.0236    -0.0632       99.3632            1.00E-12        -70.17314    -113.61088    99.87      700                      1321.323      31713       34.7279   34.73       7.72227            26         0.00  
3        2017-12-29    363.943743  2017-12-29T22:38:59Z    706       697.655     1.4967       1.4967         30.441212     30.442956       4.1246     4.0192    -0.0548       99.3632            1.00E-12        -70.17314    -113.61088    99.87      700                      1322.414      31739       34.7278   34.73       7.72237            27         0.00  
3        2017-12-29    363.943756  2017-12-29T22:39:01Z    707       698.643     1.4965       1.4966         30.44149      30.443295       4.1207     4.0228    -0.0644       99.3632            1.00E-12        -70.17314    -113.61087    99.87      700                      1323.517      31765       34.7278   34.73       7.7224             26         0.00  
3        2017-12-29    363.943769  2017-12-29T22:39:02Z    708       699.628     1.4965       1.4966         30.441901     30.443676       4.1213     4.0193    -0.0705       99.3651            1.00E-12        -70.17314    -113.61086    99.87      700                      1324.65       31793       34.7278   34.73       7.72241            28         0.00  
3        2017-12-29    363.943783  2017-12-29T22:39:03Z    709       700.615     1.4962       1.4963         30.442226     30.443964       4.1237     4.0214    -0.0615       99.3747            1.00E-12        -70.17314    -113.61086    99.87      700                      1325.821      31821       34.728    34.73       7.72246            28         0.00  
3        2017-12-29    363.943796  2017-12-29T22:39:04Z    710       701.603     1.4952       1.4953         30.441673     30.443518       4.1337     4.0271    -0.0552       99.3696            1.00E-12        -70.17314    -113.61086    99.87      700                      1327.011      31849       34.7279   34.7301     7.72267            29         0.00  
3        2017-12-29    363.943811  2017-12-29T22:39:05Z    711       702.587     1.4942       1.4945         30.441408     30.443221       4.13       4.0222    -0.0665       99.3659            1.00E-12        -70.17314    -113.61086    99.87      700                      1328.233      31879       34.728    34.73       7.72285            30         0.00  
3        2017-12-29    363.943825  2017-12-29T22:39:06Z    712       703.574     1.4935       1.4936         30.441186     30.442957       4.1298     4.0232    -0.0714       99.3715            1.00E-12        -70.17314    -113.61086    99.87      700                      1329.459      31908       34.7279   34.73       7.72299            29         0.00  
3        2017-12-29    363.943839  2017-12-29T22:39:08Z    713       704.558     1.4929       1.4931         30.44115      30.442951       4.1271     4.0174    -0.0689       99.3715            1.00E-12        -70.17314    -113.61086    99.87      700                      1330.677      31937       34.728    34.73       7.7231             29         0.00  
3        2017-12-29    363.943853  2017-12-29T22:39:09Z    714       705.551     1.4923       1.4925         30.441157     30.442832       4.1269     4.0241    -0.0571       99.3631            1.00E-12        -70.17314    -113.61086    99.87      700                      1331.888      31966       34.7281   34.7301     7.72321            29         0.00  
3        2017-12-29    363.943867  2017-12-29T22:39:10Z    715       706.534     1.4916       1.4917         30.440757     30.44271        4.1214     4.0265    -0.0664       99.3715            1.00E-12        -70.17314    -113.61086    99.87      700                      1333.085      31995       34.7278   34.7301     7.72337            29         0.00  
3        2017-12-29    363.94388   2017-12-29T22:39:11Z    716       707.52      1.4903       1.4904         30.440016     30.441893       4.123      4.023     -0.0543       99.3756            1.00E-12        -70.17314    -113.61084    99.87      700                      1334.263      32023       34.7277   34.73       7.72362            28         0.00  
3        2017-12-29    363.943894  2017-12-29T22:39:12Z    717       708.506     1.489        1.489          30.439376     30.441162       4.1272     4.0236    -0.0605       99.3765            1.00E-12        -70.17314    -113.61084    99.87      700                      1335.427      32051       34.7278   34.73       7.72388            28         0.00  
3        2017-12-29    363.943907  2017-12-29T22:39:14Z    718       709.494     1.4875       1.4876         30.438593     30.440361       4.1307     4.0287    -0.0699       99.3653            1.00E-12        -70.17314    -113.61084    99.87      700                      1336.569      32079       34.728    34.73       7.72417            27         0.00  
3        2017-12-29    363.94392   2017-12-29T22:39:15Z    719       710.48      1.4864       1.4865         30.438091     30.439854       4.1294     4.0299    -0.069        99.3766            1.00E-12        -70.17314    -113.61084    99.87      700                      1337.688      32106       34.7279   34.7301     7.72438            26         0.00  
3        2017-12-29    363.943933  2017-12-29T22:39:16Z    720       711.465     1.4849       1.485          30.437105     30.43896        4.1292     4.0237    -0.0623       99.3781            1.00E-12        -70.17314    -113.61084    99.87      700                      1338.806      32132       34.7278   34.7301     7.72469            27         0.00  
3        2017-12-29    363.943946  2017-12-29T22:39:17Z    721       712.453     1.4841       1.4843         30.437072     30.438881       4.1309     4.0293    -0.0564       99.377             1.00E-12        -70.17314    -113.61084    99.87      700                      1339.927      32159       34.728    34.7301     7.72482            27         0.00  
3        2017-12-29    363.943959  2017-12-29T22:39:18Z    722       713.439     1.4835       1.4835         30.436922     30.438639       4.1293     4.0289    -0.0563       99.3708            1.00E-12        -70.17314    -113.61082    99.87      700                      1341.071      32187       34.7279   34.7301     7.72494            28         0.00  
3        2017-12-29    363.943973  2017-12-29T22:39:19Z    723       714.426     1.4826       1.4827         30.436589     30.438463       4.1348     4.0301    -0.0643       99.3733            1.00E-12        -70.17314    -113.61082    99.87      699                      1342.249      32215       34.728    34.7302     7.72512            29         0.00  
3        2017-12-29    363.943987  2017-12-29T22:39:20Z    724       715.412     1.4828       1.4827         30.43711      30.438839       4.1324     4.0322    -0.0699       99.3641            1.00E-12        -70.17314    -113.61082    99.87      698                      1343.457      32244       34.7279   34.7301     7.7251             29         0.00  
3        2017-12-29    363.944001  2017-12-29T22:39:22Z    725       716.399     1.4821       1.4822         30.437034     30.438798       4.1339     4.0294    -0.0596       99.3685            1.00E-12        -70.17314    -113.61082    99.87      698                      1344.682      32273       34.728    34.7301     7.72522            30         0.00  
3        2017-12-29    363.944015  2017-12-29T22:39:23Z    726       717.384     1.4816       1.4817         30.437041     30.438931       4.1358     4.0274    -0.0552       99.3687            1.00E-12        -70.17314    -113.61082    99.87      698                      1345.909      32303       34.7279   34.7303     7.72532            29         0.00  
3        2017-12-29    363.944029  2017-12-29T22:39:24Z    727       718.37      1.4813       1.4815         30.437287     30.439184       4.1333     4.0301    -0.0569       99.3651            1.00E-12        -70.17314    -113.61082    99.87      698                      1347.112      32332       34.728    34.7302     7.72537            28         0.00  
3        2017-12-29    363.944043  2017-12-29T22:39:25Z    728       719.358     1.4812       1.4812         30.437505     30.43939        4.135      4.0293    -0.0701       99.3738            1.00E-12        -70.17314    -113.61082    99.87      698                      1348.28       32360       34.7279   34.7302     7.72541            28         0.00  
3        2017-12-29    363.944056  2017-12-29T22:39:26Z    729       720.343     1.481        1.481          30.437858     30.439652       4.136      4.0322    -0.0684       99.3761            1.00E-12        -70.17314    -113.61082    99.87      698                      1349.425      32387       34.728    34.7302     7.72544            27         0.00  
3        2017-12-29    363.944069  2017-12-29T22:39:28Z    730       721.331     1.4806       1.4807         30.437942     30.439766       4.1337     4.0319    -0.058        99.378             1.00E-12        -70.17314    -113.6108     99.87      698                      1350.546      32414       34.7279   34.7302     7.72551            27         0.00  
3        2017-12-29    363.944082  2017-12-29T22:39:29Z    731       722.316     1.4798       1.4798         30.437606     30.439501       4.1339     4.0293    -0.0711       99.3711            1.00E-12        -70.17314    -113.6108     99.87      698                      1351.667      32441       34.7279   34.7302     7.72568            27         0.00  
3        2017-12-29    363.944095  2017-12-29T22:39:30Z    732       723.305     1.4794       1.4792         30.437702     30.439438       4.1324     4.0347    -0.0711       99.3612            1.00E-12        -70.17314    -113.6108     99.87      698                      1352.791      32468       34.7279   34.7303     7.72576            27         0.00  
3        2017-12-29    363.944108  2017-12-29T22:39:31Z    733       724.288     1.4784       1.4785         30.437296     30.439256       4.1355     4.0338    -0.0648       99.367             1.00E-12        -70.17314    -113.61079    99.87      698                      1353.932      32495       34.7279   34.7302     7.72595            28         0.00  
3        2017-12-29    363.944121  2017-12-29T22:39:32Z    734       725.277     1.4766       1.4767         30.436156     30.438034       4.1374     4.0344    -0.0538       99.3765            1.00E-12        -70.17314    -113.61078    99.87      698                      1355.093      32523       34.7279   34.7302     7.72631            28         0.00  
3        2017-12-29    363.944135  2017-12-29T22:39:33Z    735       726.262     1.4766       1.4766         30.436603     30.438428       4.1347     4.0325    -0.0613       99.3532            1.00E-12        -70.17314    -113.61078    99.87      698                      1356.287      32552       34.7279   34.7302     7.7263             29         0.00  
3        2017-12-29    363.944149  2017-12-29T22:39:34Z    736       727.25      1.4765       1.4764         30.436951     30.438762       4.1358     4.0332    -0.0628       99.3632            1.00E-12        -70.17314    -113.61078    99.87      698                      1357.5        32581       34.7279   34.7303     7.72632            29         0.00  
3        2017-12-29    363.944164  2017-12-29T22:39:36Z    737       728.235     1.4762       1.4762         30.437118     30.438927       4.1347     4.0333    -0.0546       99.3659            1.00E-12        -70.17315    -113.61078    99.87      698                      1358.734      32611       34.7279   34.7302     7.72639            30         0.00  
3        2017-12-29    363.944178  2017-12-29T22:39:37Z    738       729.221     1.4755       1.4754         30.436908     30.438682       4.1335     4.0355    -0.0542       99.3659            1.00E-12        -70.17316    -113.61077    99.87      698                      1359.97       32640       34.7278   34.7302     7.72652            30         0.00  
3        2017-12-29    363.944192  2017-12-29T22:39:38Z    739       730.208     1.4749       1.475          30.436833     30.438711       4.1347     4.0321    -0.0692       99.376             1.00E-12        -70.17316    -113.61076    99.87      698                      1361.196      32670       34.7278   34.7301     7.72664            29         0.00  
3        2017-12-29    363.944206  2017-12-29T22:39:39Z    740       731.194     1.4735       1.4735         30.436064     30.437938       4.1387     4.036     -0.0694       99.3698            1.00E-12        -70.17316    -113.61076    99.87      697                      1362.402      32699       34.7278   34.7302     7.72692            28         0.00  
3        2017-12-29    363.94422   2017-12-29T22:39:41Z    741       732.18      1.472        1.4721         30.435106     30.437097       4.1384     4.0387    -0.0583       99.3737            1.00E-12        -70.17316    -113.61076    99.87      696                      1363.574      32727       34.7277   34.7302     7.72722            28         0.00  
3        2017-12-29    363.944233  2017-12-29T22:39:42Z    742       733.166     1.4706       1.4706         30.434433     30.436263       4.1357     4.0324    -0.0711       99.3721            1.00E-12        -70.17316    -113.61076    99.87      696                      1364.711      32754       34.7278   34.7301     7.72748            27         0.00  
3        2017-12-29    363.944246  2017-12-29T22:39:43Z    743       734.152     1.4706       1.4706         30.434878     30.436716       4.1374     4.0393    -0.0679       99.3721            1.00E-12        -70.17316    -113.61076    99.87      696                      1365.831      32781       34.7279   34.7302     7.72749            27         0.00  
3        2017-12-29    363.944259  2017-12-29T22:39:44Z    744       735.138     1.4701       1.47           30.434886     30.436672       4.1356     4.0382    -0.0592       99.3731            1.00E-12        -70.17317    -113.61075    99.87      696                      1366.946      32808       34.7278   34.7302     7.72758            27         0.00  
3        2017-12-29    363.944272  2017-12-29T22:39:45Z    745       736.127     1.4688       1.4689         30.434217     30.436053       4.1402     4.0344    -0.0699       99.3604            1.00E-12        -70.17318    -113.61074    99.87      696                      1368.066      32835       34.7278   34.7301     7.72783            27         0.00  
3        2017-12-29    363.944285  2017-12-29T22:39:46Z    746       737.113     1.4675       1.4674         30.433441     30.435226       4.1413     4.0352    -0.0694       99.366             1.00E-12        -70.17318    -113.61074    99.87      696                      1369.217      32862       34.7277   34.7301     7.72809            28         0.00  
3        2017-12-29    363.944299  2017-12-29T22:39:47Z    747       738.098     1.4669       1.4667         30.433314     30.435207       4.1413     4.0364    -0.0642       99.3747            1.00E-12        -70.17318    -113.61074    99.87      696                      1370.4        32891       34.7277   34.7303     7.72822            28         0.00  
3        2017-12-29    363.944313  2017-12-29T22:39:49Z    748       739.086     1.4662       1.4661         30.433106     30.435002       4.1438     4.0414    -0.0542       99.3757            1.00E-12        -70.17318    -113.61072    99.87      696                      1371.605      32920       34.7276   34.7302     7.72835            30         0.00  
3        2017-12-29    363.944327  2017-12-29T22:39:50Z    749       740.07      1.465        1.465          30.432623     30.434525       4.1462     4.0395    -0.0628       99.3788            1.00E-12        -70.17318    -113.61072    99.87      696                      1372.827      32949       34.7278   34.7302     7.72858            29         0.00  
3        2017-12-29    363.944341  2017-12-29T22:39:51Z    750       741.058     1.4639       1.4638         30.431946     30.433906       4.142      4.0361    -0.0689       99.3779            1.00E-12        -70.17318    -113.61072    99.87      696                      1374.04       32978       34.7275   34.7302     7.7288             29         0.00  
3        2017-12-29    363.944355  2017-12-29T22:39:52Z    751       742.043     1.4633       1.4631         30.431905     30.433756       4.1393     4.0338    -0.0584       99.3516            1.00E-12        -70.17318    -113.61072    99.87      696                      1375.234      33007       34.7276   34.7302     7.72892            28         0.00  
3        2017-12-29    363.944368  2017-12-29T22:39:53Z    752       743.03      1.462        1.4618         30.431131     30.433036       4.1431     4.0354    -0.0664       99.3701            1.00E-12        -70.17318    -113.61072    99.87      696                      1376.409      33035       34.7275   34.7301     7.72919            28         0.00  
3        2017-12-29    363.944382  2017-12-29T22:39:55Z    753       744.014     1.4605       1.4604         30.430317     30.432257       4.1437     4.0396    -0.0563       99.3727            1.00E-12        -70.17318    -113.6107     99.87      696                      1377.566      33063       34.7276   34.7302     7.72948            28         0.00  
3        2017-12-29    363.944395  2017-12-29T22:39:56Z    754       745.002     1.4597       1.4596         30.43004      30.431916       4.1412     4.0445    -0.0559       99.3662            1.00E-12        -70.17318    -113.6107     99.87      696                      1378.71       33090       34.7275   34.7301     7.72964            27         0.00  
3        2017-12-29    363.944408  2017-12-29T22:39:57Z    755       745.991     1.459        1.4588         30.429914     30.431707       4.1425     4.0368    -0.0547       99.3632            1.00E-12        -70.17318    -113.6107     99.87      696                      1379.855      33118       34.7275   34.7301     7.72976            28         0.00  
3        2017-12-29    363.944421  2017-12-29T22:39:58Z    756       746.975     1.4585       1.4583         30.429801     30.431728       4.1465     4.037     -0.0695       99.3632            1.00E-12        -70.17318    -113.6107     99.87      695                      1381.005      33145       34.7274   34.7301     7.72988            27         0.00  
3        2017-12-29    363.944435  2017-12-29T22:39:59Z    757       747.962     1.4577       1.4574         30.429628     30.431409       4.1415     4.0397    -0.0699       99.3632            1.00E-12        -70.17318    -113.6107     99.87      694                      1382.163      33173       34.7276   34.7301     7.73003            29         0.00  
3        2017-12-29    363.944448  2017-12-29T22:40:00Z    758       748.947     1.4561       1.4562         30.428676     30.430675       4.1487     4.0358    -0.0663       99.3661            1.00E-12        -70.1732     -113.61068    99.87      694                      1383.345      33201       34.7275   34.73       7.73034            28         0.00  
3        2017-12-29    363.944462  2017-12-29T22:40:02Z    759       749.934     1.4544       1.4543         30.427646     30.429496       4.1493     4.0448    -0.0583       99.3706            1.00E-12        -70.1732     -113.61068    99.87      694                      1384.538      33230       34.7275   34.73       7.73067            29         0.00  
3        2017-12-29    363.944476  2017-12-29T22:40:03Z    760       750.921     1.4527       1.4526         30.426575     30.428374       4.1438     4.0411    -0.0688       99.366             1.00E-12        -70.1732     -113.61068    99.87      694                      1385.74       33259       34.7275   34.73       7.73101            29         0.00  
3        2017-12-29    363.94449   2017-12-29T22:40:04Z    761       751.905     1.4507       1.4507         30.425228     30.427132       4.1429     4.0404    -0.0689       99.3699            1.00E-12        -70.1732     -113.61068    99.87      694                      1386.943      33288       34.7274   34.7299     7.7314             28         0.00  
3        2017-12-29    363.944504  2017-12-29T22:40:05Z    762       752.892     1.4492       1.4493         30.424428     30.426358       4.1408     4.0392    -0.0694       99.3808            1.00E-12        -70.1732     -113.61068    99.87      694                      1388.133      33316       34.7275   34.7298     7.73169            29         0.00  
3        2017-12-29    363.944517  2017-12-29T22:40:06Z    763       753.878     1.4491       1.4488         30.424655     30.42643        4.138      4.0408    -0.0606       99.3747            1.00E-12        -70.1732     -113.61066    99.87      694                      1389.305      33344       34.7274   34.7299     7.73173            28         0.00  
3        2017-12-29    363.944531  2017-12-29T22:40:07Z    764       754.866     1.4489       1.4487         30.424951     30.42675        4.1444     4.0425    -0.064        99.3632            1.00E-12        -70.1732     -113.61066    99.87      694                      1390.459      33372       34.7274   34.7299     7.73176            27         0.00  
3        2017-12-29    363.944544  2017-12-29T22:40:09Z    765       755.85      1.4487       1.4486         30.425193     30.42712        4.1434     4.042     -0.0699       99.367             1.00E-12        -70.1732     -113.61066    99.87      694                      1391.601      33399       34.7273   34.7299     7.7318             28         0.00  
3        2017-12-29    363.944557  2017-12-29T22:40:10Z    766       756.84      1.4488       1.4487         30.425809     30.42762        4.1451     4.043     -0.0695       99.3496            1.00E-12        -70.1732     -113.61066    99.87      694                      1392.731      33427       34.7275   34.7299     7.73178            27         0.00  
3        2017-12-29    363.94457   2017-12-29T22:40:11Z    767       757.823     1.4487       1.4486         30.426102     30.42796        4.1451     4.0432    -0.0587       99.3454            1.00E-12        -70.1732     -113.61066    99.87      694                      1393.863      33454       34.7274   34.7299     7.7318             27         0.00  
3        2017-12-29    363.944583  2017-12-29T22:40:12Z    768       758.81      1.4481       1.4479         30.425979     30.427753       4.148      4.043     -0.0537       99.3582            1.00E-12        -70.1732     -113.61066    99.87      694                      1394.998      33481       34.7274   34.7298     7.73192            27         0.00  
3        2017-12-29    363.944597  2017-12-29T22:40:13Z    769       759.798     1.4481       1.4479         30.426393     30.428272       4.1425     4.0409    -0.0557       99.3632            1.00E-12        -70.17318    -113.61066    99.87      694                      1396.157      33509       34.7274   34.7299     7.73193            29         0.00  
3        2017-12-29    363.94461   2017-12-29T22:40:14Z    770       760.781     1.4477       1.4477         30.426517     30.428479       4.1466     4.0418    -0.0673       99.3698            1.00E-12        -70.17318    -113.61064    99.87      694                      1397.347      33537       34.7273   34.7299     7.73199            28         0.00  
3        2017-12-29    363.944625  2017-12-29T22:40:16Z    771       761.769     1.4477       1.4474         30.426937     30.428787       4.1434     4.0458    -0.0552       99.3703            1.00E-12        -70.17318    -113.61064    99.87      694                      1398.561      33566       34.7273   34.73       7.732              30         0.00  
3        2017-12-29    363.944639  2017-12-29T22:40:17Z    772       762.754     1.4466       1.4467         30.426384     30.428408       4.1445     4.0375    -0.0552       99.3687            1.00E-12        -70.17318    -113.61064    99.87      694                      1399.791      33596       34.7273   34.7298     7.73223            29         0.00  
3        2017-12-29    363.944653  2017-12-29T22:40:18Z    773       763.742     1.4453       1.4451         30.425828     30.427497       4.1452     4.0434    -0.0562       99.3743            1.00E-12        -70.17318    -113.61063    99.87      692                      1401.017      33625       34.7275   34.7298     7.73247            29         0.00  
3        2017-12-29    363.944667  2017-12-29T22:40:19Z    774       764.726     1.4445       1.4443         30.425484     30.427381       4.1439     4.0413    -0.0553       99.3592            1.00E-12        -70.17318    -113.61062    99.87      692                      1402.203      33654       34.7274   34.7299     7.73263            28         0.00  
3        2017-12-29    363.94468   2017-12-29T22:40:20Z    775       765.71      1.4439       1.4436         30.425405     30.427206       4.1468     4.0457    -0.0611       99.368             1.00E-12        -70.17318    -113.61062    99.87      692                      1403.362      33682       34.7273   34.7299     7.73274            28         0.00  
3        2017-12-29    363.944693  2017-12-29T22:40:21Z    776       766.702     1.4433       1.4432         30.425353     30.427163       4.1468     4.0447    -0.0619       99.3633            1.00E-12        -70.17318    -113.61062    99.87      692                      1404.485      33709       34.7274   34.7298     7.73286            27         0.00  
3        2017-12-29    363.944706  2017-12-29T22:40:23Z    777       767.685     1.4422       1.442          30.42477      30.426572       4.1485     4.0435    -0.0616       99.3714            1.00E-12        -70.17318    -113.61062    99.87      692                      1405.596      33735       34.7273   34.7298     7.73308            26         0.00  
3        2017-12-29    363.944719  2017-12-29T22:40:24Z    778       768.673     1.4414       1.4413         30.424604     30.426449       4.1454     4.0484    -0.0624       99.3711            1.00E-12        -70.17318    -113.61062    99.87      692                      1406.703      33762       34.7274   34.7298     7.73323            27         0.00  
3        2017-12-29    363.944732  2017-12-29T22:40:25Z    779       769.658     1.4406       1.4405         30.424321     30.426113       4.1431     4.0456    -0.0624       99.3701            1.00E-12        -70.17319    -113.61062    99.87      692                      1407.828      33789       34.7274   34.7297     7.73339            27         0.00  
3        2017-12-29    363.944745  2017-12-29T22:40:26Z    780       770.646     1.4403       1.4401         30.424369     30.426231       4.1471     4.0478    -0.0616       99.3651            1.00E-12        -70.1732     -113.61061    99.87      692                      1408.981      33817       34.7273   34.7298     7.73347            28         0.00  
3        2017-12-29    363.944759  2017-12-29T22:40:27Z    781       771.63      1.4397       1.4395         30.424358     30.426144       4.1475     4.0469    -0.0552       99.3604            1.00E-12        -70.1732     -113.6106     99.87      692                      1410.172      33845       34.7272   34.7297     7.73357            29         0.00  
3        2017-12-29    363.944773  2017-12-29T22:40:28Z    782       772.617     1.4396       1.4393         30.424673     30.426395       4.1504     4.0425    -0.0664       99.3685            1.00E-12        -70.1732     -113.6106     99.87      692                      1411.392      33874       34.7273   34.7298     7.7336             30         0.00  
3        2017-12-29    363.944787  2017-12-29T22:40:30Z    783       773.603     1.4389       1.4388         30.4246       30.426405       4.1492     4.0431    -0.0689       99.3632            1.00E-12        -70.1732     -113.6106     99.87      692                      1412.624      33904       34.7273   34.7298     7.73372            29         0.00  
3        2017-12-29    363.944802  2017-12-29T22:40:31Z    784       774.588     1.439        1.4388         30.424975     30.426794       4.1511     4.0441    -0.0684       99.3698            1.00E-12        -70.1732     -113.6106     99.87      692                      1413.853      33933       34.7272   34.7298     7.73372            29         0.00  
3        2017-12-29    363.944815  2017-12-29T22:40:32Z    785       775.574     1.4375       1.4376         30.424302     30.426151       4.1449     4.0469    -0.0684       99.3734            1.00E-12        -70.1732     -113.6106     99.87      692                      1415.053      33962       34.7274   34.7296     7.734              29         0.00  
3        2017-12-29    363.944829  2017-12-29T22:40:33Z    786       776.562     1.4342       1.4343         30.421613     30.423626       4.1493     4.0415    -0.0667       99.3674            1.00E-12        -70.1732     -113.6106     99.87      692                      1416.216      33990       34.7271   34.7296     7.73467            27         0.00  
3        2017-12-29    363.944842  2017-12-29T22:40:34Z    787       777.548     1.4332       1.4331         30.421251     30.423119       4.1528     4.0477    -0.0537       99.3632            1.00E-12        -70.1732     -113.61058    99.87      692                      1417.357      34018       34.7271   34.7296     7.73485            28         0.00  
3        2017-12-29    363.944855  2017-12-29T22:40:35Z    788       778.531     1.432        1.4318         30.420556     30.422414       4.1495     4.0399    -0.0537       99.3632            1.00E-12        -70.1732     -113.61058    99.87      691                      1418.475      34044       34.7271   34.7296     7.7351             26         0.00  
3        2017-12-29    363.944868  2017-12-29T22:40:37Z    789       779.52      1.4316       1.4314         30.420689     30.422575       4.1462     4.0455    -0.0537       99.3632            1.00E-12        -70.1732     -113.61058    99.87      690                      1419.588      34071       34.7272   34.7297     7.73518            27         0.00  
3        2017-12-29    363.944881  2017-12-29T22:40:38Z    790       780.506     1.4313       1.4311         30.420923     30.422794       4.1489     4.0473    -0.0592       99.3632            1.00E-12        -70.1732     -113.61058    99.87      690                      1420.715      34098       34.7271   34.7297     7.73522            27         0.00  
3        2017-12-29    363.944894  2017-12-29T22:40:39Z    791       781.492     1.4312       1.4309         30.421211     30.423057       4.1532     4.0418    -0.0647       99.3632            1.00E-12        -70.1732     -113.61058    99.87      690                      1421.86       34126       34.7271   34.7297     7.73525            28         0.00  
3        2017-12-29    363.944908  2017-12-29T22:40:40Z    792       782.478     1.4311       1.4309         30.421565     30.423433       4.1529     4.0468    -0.0547       99.3632            1.00E-12        -70.1732     -113.61057    99.87      690                      1423.024      34154       34.7271   34.7297     7.73528            28         0.00  
3        2017-12-29    363.944921  2017-12-29T22:40:41Z    793       783.464     1.4306       1.4304         30.421486     30.42341        4.1493     4.0533    -0.0618       99.3632            1.00E-12        -70.1732     -113.61056    99.87      690                      1424.214      34182       34.727    34.7297     7.73538            29         0.00  
3        2017-12-29    363.944935  2017-12-29T22:40:42Z    794       784.451     1.4301       1.4299         30.42153      30.423381       4.1454     4.0473    -0.0698       99.3632            1.00E-12        -70.1732     -113.61056    99.87      690                      1425.406      34211       34.7271   34.7296     7.73548            29         0.00  
3        2017-12-29    363.944949  2017-12-29T22:40:44Z    795       785.436     1.4296       1.4295         30.421626     30.423561       4.1479     4.0476    -0.0605       99.3632            1.00E-12        -70.1732     -113.61056    99.87      690                      1426.604      34239       34.7272   34.7297     7.73557            28         0.00  
3        2017-12-29    363.944963  2017-12-29T22:40:45Z    796       786.422     1.429        1.4287         30.421487     30.423358       4.1521     4.0502    -0.0648       99.3632            1.00E-12        -70.1732     -113.61056    99.87      690                      1427.792      34268       34.7271   34.7298     7.73568            29         0.00  
3        2017-12-29    363.944977  2017-12-29T22:40:46Z    797       787.41      1.4283       1.4282         30.421378     30.423249       4.1498     4.0507    -0.0699       99.3594            1.00E-12        -70.1732     -113.61056    99.87      690                      1428.97       34296       34.7272   34.7297     7.73582            28         0.00  
3        2017-12-29    363.94499   2017-12-29T22:40:47Z    798       788.394     1.4282       1.428          30.421608     30.423466       4.1511     4.0485    -0.07         99.3622            1.00E-12        -70.1732     -113.61054    99.87      690                      1430.144      34324       34.727    34.7296     7.73585            28         0.00  
3        2017-12-29    363.945004  2017-12-29T22:40:48Z    799       789.378     1.4271       1.4269         30.421172     30.422927       4.1538     4.0456    -0.0568       99.3718            1.00E-12        -70.1732     -113.61054    99.87      690                      1431.317      34353       34.7272   34.7296     7.73606            28         0.00  
3        2017-12-29    363.945017  2017-12-29T22:40:49Z    800       790.367     1.4267       1.4265         30.421226     30.423058       4.1542     4.0512    -0.0699       99.367             1.00E-12        -70.1732     -113.61054    99.87      690                      1432.475      34380       34.7271   34.7296     7.73614            28         0.00  
3        2017-12-29    363.94503   2017-12-29T22:40:51Z    801       791.353     1.4255       1.4253         30.42065      30.422378       4.1539     4.0502    -0.0684       99.3602            1.00E-12        -70.1732     -113.61054    99.87      690                      1433.631      34408       34.7271   34.7295     7.73638            27         0.00  
3        2017-12-29    363.945044  2017-12-29T22:40:52Z    802       792.339     1.4241       1.424          30.419875     30.421672       4.1549     4.0512    -0.0552       99.3632            1.00E-12        -70.1732     -113.61053    99.87      690                      1434.778      34436       34.7271   34.7295     7.73665            28         0.00  
3        2017-12-29    363.945057  2017-12-29T22:40:53Z    803       793.324     1.4235       1.4234         30.419962     30.421653       4.156      4.0428    -0.0575       99.3632            1.00E-12        -70.1732     -113.61052    99.87      690                      1435.915      34463       34.7273   34.7296     7.73675            27         0.00  
3        2017-12-29    363.94507   2017-12-29T22:40:54Z    804       794.31      1.4222       1.422          30.419027     30.420913       4.1547     4.0483    -0.0693       99.3663            1.00E-12        -70.1732     -113.61052    99.87      690                      1437.051      34490       34.727    34.7296     7.73703            28         0.00  
3        2017-12-29    363.945083  2017-12-29T22:40:55Z    805       795.296     1.4213       1.4212         30.418789     30.420713       4.1549     4.0506    -0.0673       99.3711            1.00E-12        -70.1732     -113.61052    99.87      690                      1438.205      34518       34.7271   34.7296     7.73719            27         0.00  
3        2017-12-29    363.945097  2017-12-29T22:40:56Z    806       796.283     1.4215       1.4213         30.419307     30.421157       4.1474     4.0417    -0.0536       99.3641            1.00E-12        -70.1732     -113.61052    99.87      689                      1439.361      34546       34.727    34.7296     7.73717            28         0.00  
3        2017-12-29    363.94511   2017-12-29T22:40:58Z    807       797.269     1.4188       1.4187         30.417355     30.419198       4.1499     4.0457    -0.0542       99.3724            1.00E-12        -70.1732     -113.61052    99.87      688                      1440.545      34574       34.727    34.7294     7.7377             29         0.00  
3        2017-12-29    363.945124  2017-12-29T22:40:59Z    808       798.256     1.4167       1.4165         30.415984     30.417915       4.1503     4.0567    -0.0627       99.3715            1.00E-12        -70.1732     -113.61052    99.87      688                      1441.736      34603       34.727    34.7296     7.73811            29         0.00  
3        2017-12-29    363.945138  2017-12-29T22:41:00Z    809       799.24      1.416        1.4159         30.415788     30.417666       4.1534     4.0483    -0.0608       99.3579            1.00E-12        -70.1732     -113.61051    99.87      688                      1442.938      34632       34.727    34.7295     7.73825            29         0.00  
3        2017-12-29    363.945152  2017-12-29T22:41:01Z    810       800.229     1.4156       1.4155         30.415872     30.41778        4.1551     4.0475    -0.0548       99.367             1.00E-12        -70.1732     -113.6105     99.87      688                      1444.143      34660       34.727    34.7295     7.73833            28         0.00  
3        2017-12-29    363.945166  2017-12-29T22:41:02Z    811       801.212     1.4152       1.4151         30.415998     30.417871       4.1528     4.0517    -0.0664       99.377             1.00E-12        -70.1732     -113.6105     99.87      688                      1445.332      34689       34.7269   34.7294     7.7384             29         0.00  
3        2017-12-29    363.945179  2017-12-29T22:41:03Z    812       802.198     1.4153       1.4151         30.416496     30.418376       4.1563     4.0453    -0.0575       99.3632            1.00E-12        -70.1732     -113.6105     99.87      688                      1446.5        34717       34.7269   34.7295     7.73838            27         0.00  
3        2017-12-29    363.945193  2017-12-29T22:41:05Z    813       803.181     1.4151       1.4148         30.416664     30.418524       4.1527     4.0501    -0.0542       99.3632            1.00E-12        -70.1732     -113.6105     99.87      688                      1447.649      34745       34.7269   34.7295     7.73844            28         0.00  
3        2017-12-29    363.945206  2017-12-29T22:41:06Z    814       804.173     1.4142       1.4139         30.416334     30.4181         4.1568     4.0502    -0.0693       99.3632            1.00E-12        -70.1732     -113.6105     99.87      688                      1448.779      34772       34.7269   34.7294     7.73861            27         0.00  
3        2017-12-29    363.945219  2017-12-29T22:41:07Z    815       805.159     1.4121       1.412          30.414903     30.41679        4.159      4.0518    -0.0566       99.3681            1.00E-12        -70.1732     -113.61049    99.87      688                      1449.898      34799       34.7268   34.7293     7.73903            27         0.00  
3        2017-12-29    363.945232  2017-12-29T22:41:08Z    816       806.142     1.4103       1.4103         30.41377      30.415716       4.1619     4.0516    -0.0543       99.3514            1.00E-12        -70.1732     -113.61048    99.87      688                      1451.034      34826       34.7268   34.7293     7.73938            27         0.00  
3        2017-12-29    363.945245  2017-12-29T22:41:09Z    817       807.128     1.4091       1.4089         30.413127     30.414962       4.1522     4.0529    -0.0699       99.366             1.00E-12        -70.1732     -113.61048    99.87      688                      1452.18       34853       34.7267   34.7292     7.73962            28         0.00  
3        2017-12-29    363.945259  2017-12-29T22:41:10Z    818       808.116     1.4088       1.4087         30.413411     30.415244       4.1531     4.054     -0.0558       99.3765            1.00E-12        -70.1732     -113.61048    99.87      688                      1453.352      34881       34.7268   34.7292     7.73967            28         0.00  
3        2017-12-29    363.945273  2017-12-29T22:41:12Z    819       809.096     1.4081       1.408          30.413189     30.414962       4.1532     4.0505    -0.067        99.3714            1.00E-12        -70.1732     -113.61047    99.87      688                      1454.554      34910       34.7267   34.7292     7.7398             29         0.00  
3        2017-12-29    363.945287  2017-12-29T22:41:13Z    820       810.093     1.4073       1.4071         30.412892     30.414781       4.1599     4.0503    -0.0587       99.3557            1.00E-12        -70.1732     -113.61046    99.87      688                      1455.761      34939       34.7267   34.7293     7.73997            29         0.00  
3        2017-12-29    363.945301  2017-12-29T22:41:14Z    821       811.071     1.4059       1.4057         30.412222     30.413961       4.1584     4.0576    -0.0685       99.367             1.00E-12        -70.1732     -113.61046    99.87      688                      1456.969      34968       34.7269   34.7292     7.74024            29         0.00  
3        2017-12-29    363.945314  2017-12-29T22:41:15Z    822       812.059     1.4046       1.4045         30.411495     30.413363       4.1635     4.0536    -0.062        99.3718            1.00E-12        -70.1732     -113.61046    99.87      688                      1458.159      34997       34.7267   34.7292     7.74049            28         0.00  
3        2017-12-29    363.945328  2017-12-29T22:41:16Z    823       813.044     1.4039       1.4037         30.411289     30.413049       4.1678     4.0598    -0.0537       99.3766            1.00E-12        -70.1732     -113.61046    99.87      686                      1459.317      35025       34.7267   34.7292     7.74063            28         0.00  
3        2017-12-29    363.945341  2017-12-29T22:41:17Z    824       814.032     1.4026       1.4025         30.41062      30.412429       4.1655     4.0565    -0.0537       99.377             1.00E-12        -70.1732     -113.61046    99.87      686                      1460.454      35052       34.7268   34.7291     7.74089            27         0.00  
3        2017-12-29    363.945354  2017-12-29T22:41:19Z    825       815.018     1.4021       1.402          30.410568     30.412496       4.1605     4.0526    -0.0537       99.3682            1.00E-12        -70.1732     -113.61045    99.87      686                      1461.578      35079       34.7267   34.7293     7.74099            27         0.00  
3        2017-12-29    363.945367  2017-12-29T22:41:20Z    826       816.001     1.4017       1.4014         30.410654     30.412367       4.1575     4.0587    -0.0643       99.3658            1.00E-12        -70.1732     -113.61044    99.87      686                      1462.704      35106       34.7267   34.7292     7.74108            27         0.00  
3        2017-12-29    363.94538   2017-12-29T22:41:21Z    827       816.99      1.4013       1.4011         30.41065      30.412466       4.1591     4.0583    -0.0684       99.3632            1.00E-12        -70.1732     -113.61044    99.87      686                      1463.848      35133       34.7266   34.7291     7.74115            28         0.00  
3        2017-12-29    363.945394  2017-12-29T22:41:22Z    828       817.976     1.4002       1.3999         30.410173     30.411956       4.1586     4.0491    -0.0684       99.3632            1.00E-12        -70.1732     -113.61044    99.87      686                      1465.017      35161       34.7267   34.7292     7.74138            28         0.00  
3        2017-12-29    363.945407  2017-12-29T22:41:23Z    829       818.96      1.3994       1.3993         30.409983     30.411792       4.154      4.0566    -0.0684       99.3652            1.00E-12        -70.1732     -113.61044    99.87      686                      1466.205      35190       34.7267   34.7291     7.74153            29         0.00  
3        2017-12-29    363.945422  2017-12-29T22:41:24Z    830       819.949     1.3985       1.3983         30.409556     30.411377       4.1518     4.0532    -0.0538       99.3658            1.00E-12        -70.1732     -113.61044    99.87      686                      1467.447      35220       34.7266   34.7291     7.74171            31         0.00  
3        2017-12-29    363.945437  2017-12-29T22:41:26Z    831       820.932     1.3978       1.3976         30.409248     30.411105       4.1623     4.0621    -0.0537       99.3615            1.00E-12        -70.1732     -113.61043    99.87      686                      1468.78       35252       34.7265   34.729      7.74186            32         0.00  
3        2017-12-29    363.945453  2017-12-29T22:41:27Z    832       821.917     1.3975       1.3973         30.409567     30.411324       4.1596     4.053     -0.0537       99.3312            1.00E-12        -70.1732     -113.61042    99.87      686                      1470.118      35284       34.7266   34.729      7.7419             32         0.00  
3        2017-12-29    363.945468  2017-12-29T22:41:28Z    833       822.904     1.3975       1.3973         30.409986     30.411767       4.1622     4.0538    -0.0537       99.36              1.00E-12        -70.1732     -113.61042    99.87      686                      1471.445      35316       34.7265   34.7291     7.7419             32         0.00  
3        2017-12-29    363.945483  2017-12-29T22:41:30Z    834       823.89      1.3972       1.3972         30.410316     30.412082       4.1654     4.0597    -0.0537       99.3641            1.00E-12        -70.1732     -113.61042    99.87      686                      1472.754      35347       34.7267   34.729      7.74195            31         0.00  
3        2017-12-29    363.945498  2017-12-29T22:41:31Z    835       824.877     1.3962       1.3961         30.409612     30.411521       4.1606     4.0558    -0.0537       99.34              1.00E-12        -70.1732     -113.61041    99.87      685                      1474.06       35378       34.7265   34.729      7.74217            32         0.00  
3        2017-12-29    363.945513  2017-12-29T22:41:32Z    836       825.861     1.3946       1.3943         30.408714     30.410448       4.1624     4.0561    -0.0542       99.363             1.00E-12        -70.1732     -113.6104     99.87      685                      1475.365      35410       34.7265   34.729      7.74249            31         0.00  
3        2017-12-29    363.945529  2017-12-29T22:41:34Z    837       826.848     1.3926       1.3926         30.407486     30.409336       4.1645     4.0539    -0.0614       99.3632            1.00E-12        -70.1732     -113.6104     99.87      685                      1476.677      35441       34.7265   34.729      7.74286            32         0.00  
3        2017-12-29    363.945544  2017-12-29T22:41:35Z    838       827.834     1.3914       1.3913         30.406808     30.40858        4.1633     4.0529    -0.0611       99.3632            1.00E-12        -70.1732     -113.6104     99.87      685                      1478.011      35473       34.7265   34.7288     7.74311            32         0.00  
3        2017-12-29    363.94556   2017-12-29T22:41:36Z    839       828.82      1.3903       1.3901         30.406306     30.408035       4.1654     4.0505    -0.0551       99.3632            1.00E-12        -70.1732     -113.6104     99.87      685                      1479.358      35506       34.7265   34.7289     7.74332            32         0.00  
3        2017-12-29    363.945575  2017-12-29T22:41:38Z    840       829.806     1.3895       1.3894         30.405876     30.407852       4.1653     4.0557    -0.0679       99.3632            1.00E-12        -70.1732     -113.61039    99.87      685                      1480.707      35538       34.7263   34.7289     7.7435             33         0.00  
3        2017-12-29    363.945591  2017-12-29T22:41:39Z    841       830.79      1.3884       1.3883         30.405477     30.40728        4.1638     4.0568    -0.0611       99.3632            1.00E-12        -70.1732     -113.61038    99.87      685                      1482.06       35570       34.7264   34.7289     7.7437             32         0.00  
3        2017-12-29    363.945607  2017-12-29T22:41:40Z    842       831.778     1.3879       1.3877         30.405466     30.407239       4.1648     4.0573    -0.0631       99.3632            1.00E-12        -70.1732     -113.61038    99.87      685                      1483.427      35603       34.7265   34.7289     7.74381            33         0.00  
3        2017-12-29    363.945623  2017-12-29T22:41:42Z    843       832.763     1.3871       1.3868         30.40519      30.406866       4.17       4.058     -0.0666       99.3632            1.00E-12        -70.1732     -113.61037    99.87      685                      1484.805      35636       34.7264   34.7288     7.74397            33         0.00  
3        2017-12-29    363.945639  2017-12-29T22:41:43Z    844       833.751     1.3868       1.3867         30.405324     30.407141       4.1624     4.0572    -0.068        99.3632            1.00E-12        -70.1732     -113.61036    99.87      685                      1486.177      35669       34.7263   34.7288     7.74402            33         0.00  
3        2017-12-29    363.945655  2017-12-29T22:41:45Z    845       834.733     1.3856       1.3855         30.404776     30.406618       4.1569     4.0597    -0.0541       99.3632            1.00E-12        -70.1732     -113.61036    99.87      685                      1487.549      35702       34.7264   34.7288     7.74426            33         0.00  
3        2017-12-29    363.94567   2017-12-29T22:41:46Z    846       835.72      1.385        1.3848         30.404663     30.406498       4.1649     4.0575    -0.0632       99.3632            1.00E-12        -70.1732     -113.61036    99.87      684                      1488.886      35734       34.7264   34.7289     7.74437            31         0.00  
3        2017-12-29    363.945685  2017-12-29T22:41:47Z    847       836.704     1.3846       1.3845         30.404839     30.406614       4.1643     4.054     -0.0695       99.3632            1.00E-12        -70.1732     -113.61036    99.87      684                      1490.164      35765       34.7265   34.7288     7.74445            30         0.00  
3        2017-12-29    363.945698  2017-12-29T22:41:48Z    848       837.69      1.3835       1.3837         30.404505     30.406332       4.165      4.0601    -0.0695       99.3632            1.00E-12        -70.1732     -113.61036    99.87      683                      1491.339      35793       34.7267   34.7288     7.74465            27         0.00  
3        2017-12-29    363.945711  2017-12-29T22:41:49Z    849       838.68      1.3822       1.3821         30.403508     30.405328       4.1607     4.0643    -0.0695       99.3632            1.00E-12        -70.1732     -113.61036    99.87      683                      1492.44       35820       34.7263   34.7287     7.74493            26         0.00  
3        2017-12-29    363.945724  2017-12-29T22:41:51Z    850       839.668     1.3815       1.3815         30.403532     30.405263       4.1616     4.061     -0.059        99.3632            1.00E-12        -70.1732     -113.61034    99.87      683                      1493.554      35846       34.7266   34.7287     7.74505            28         0.00  
3        2017-12-29    363.945738  2017-12-29T22:41:52Z    851       840.649     1.3811       1.3811         30.4035       30.405347       4.1652     4.062     -0.0542       99.3632            1.00E-12        -70.1732     -113.61034    99.87      683                      1494.768      35875       34.7264   34.7287     7.74514            30         0.00  
3        2017-12-29    363.945752  2017-12-29T22:41:53Z    852       841.635     1.3801       1.3801         30.403063     30.404947       4.1675     4.0642    -0.0547       99.3659            1.00E-12        -70.1732     -113.61034    99.87      683                      1496.005      35905       34.7264   34.7288     7.74534            30         0.00  
3        2017-12-29    363.945767  2017-12-29T22:41:54Z    853       842.622     1.3794       1.3793         30.402796     30.404616       4.1642     4.0647    -0.0542       94.6168            1.00E-12        -70.1732     -113.61034    99.87      683                      1497.257      35935       34.7263   34.7287     7.74549            30         0.00  
3        2017-12-29    363.945782  2017-12-29T22:41:56Z    854       843.608     1.3777       1.3778         30.401915     30.403755       4.1634     4.0586    -0.0603       99.3007            1.00E-12        -70.1732     -113.61034    99.87      683                      1498.527      35966       34.7264   34.7287     7.7458             31         0.00  
3        2017-12-29    363.945796  2017-12-29T22:41:57Z    855       844.592     1.377        1.377          30.401713     30.403406       4.164      4.0692    -0.0692       99.3639            1.00E-12        -70.1732     -113.61034    99.87      683                      1499.812      35996       34.7264   34.7286     7.74594            31         0.00  
3        2017-12-29    363.945811  2017-12-29T22:41:58Z    856       845.58      1.3766       1.3766         30.401733     30.403477       4.1664     4.0605    -0.0605       99.3632            1.00E-12        -70.1732     -113.61032    99.87      683                      1501.105      36028       34.7264   34.7286     7.74603            31         0.00  
3        2017-12-29    363.945826  2017-12-29T22:41:59Z    857       846.563     1.3762       1.3761         30.401819     30.403559       4.1695     4.0646    -0.0561       99.3632            1.00E-12        -70.1732     -113.61032    99.87      683                      1502.397      36059       34.7263   34.7286     7.74611            30         0.00  
3        2017-12-29    363.945841  2017-12-29T22:42:01Z    858       847.551     1.3751       1.3751         30.401363     30.403069       4.1676     4.0687    -0.0566       99.3632            1.00E-12        -70.1732     -113.61032    99.87      683                      1503.662      36089       34.7264   34.7286     7.74631            30         0.00  
3        2017-12-29    363.945855  2017-12-29T22:42:02Z    859       848.533     1.3746       1.3747         30.401333     30.403167       4.1698     4.0596    -0.0588       99.3632            1.00E-12        -70.1732     -113.61031    99.87      683                      1504.9        36119       34.7263   34.7286     7.74642            29         0.00  
3        2017-12-29    363.945868  2017-12-29T22:42:03Z    860       849.521     1.3745       1.3746         30.401753     30.403557       4.1701     4.0616    -0.0673       99.3632            1.00E-12        -70.1732     -113.6103     99.87      682                      1506.026      36146       34.7265   34.7287     7.74644            26         0.00  
3        2017-12-29    363.945881  2017-12-29T22:42:04Z    861       850.51      1.3744       1.3743         30.401965     30.403711       4.1706     4.0676    -0.0542       99.3632            1.00E-12        -70.1732     -113.6103     99.87      681                      1507.11       36172       34.7263   34.7285     7.74647            26         0.00  
3        2017-12-29    363.945894  2017-12-29T22:42:05Z    862       851.495     1.3725       1.3726         30.40077      30.402654       4.1719     4.0692    -0.0552       99.3632            1.00E-12        -70.1732     -113.6103     99.87      681                      1508.233      36199       34.7263   34.7286     7.74684            29         0.00  
3        2017-12-29    363.945908  2017-12-29T22:42:06Z    863       852.48      1.3705       1.3706         30.399382     30.40123        4.1714     4.0657    -0.0593       99.3632            1.00E-12        -70.1732     -113.6103     99.87      681                      1509.46       36228       34.7262   34.7285     7.74724            29         0.00  
3        2017-12-29    363.945923  2017-12-29T22:42:08Z    864       853.464     1.3697       1.3697         30.399245     30.400914       4.172      4.0596    -0.0684       99.3632            1.00E-12        -70.1732     -113.6103     99.87      681                      1510.708      36258       34.7264   34.7285     7.74739            31         0.00  
3        2017-12-29    363.945937  2017-12-29T22:42:09Z    865       854.452     1.3695       1.3694         30.399345     30.401042       4.1717     4.0645    -0.0601       99.3632            1.00E-12        -70.1732     -113.61029    99.87      681                      1511.982      36289       34.7261   34.7284     7.74744            30         0.00  
3        2017-12-29    363.945952  2017-12-29T22:42:10Z    866       855.438     1.3691       1.3691         30.399507     30.401291       4.1701     4.0645    -0.0556       99.3632            1.00E-12        -70.1732     -113.61028    99.87      681                      1513.263      36319       34.7263   34.7284     7.74752            31         0.00  
3        2017-12-29    363.945967  2017-12-29T22:42:12Z    867       856.417     1.3678       1.3677         30.398846     30.400501       4.1619     4.0579    -0.0556       99.3632            1.00E-12        -70.1732     -113.61028    99.87      681                      1514.55       36350       34.7263   34.7285     7.74777            31         0.00  
3        2017-12-29    363.945981  2017-12-29T22:42:13Z    868       857.411     1.3671       1.367          30.398532     30.400276       4.1654     4.0614    -0.0567       99.3632            1.00E-12        -70.1732     -113.61028    99.87      681                      1515.792      36380       34.7261   34.7284     7.74792            29         0.00  
3        2017-12-29    363.945995  2017-12-29T22:42:14Z    869       858.394     1.3656       1.3657         30.397771     30.399621       4.1712     4.0608    -0.0677       99.3632            1.00E-12        -70.1732     -113.61028    99.87      681                      1516.929      36407       34.7262   34.7284     7.7482             26         0.00  
3        2017-12-29    363.946007  2017-12-29T22:42:15Z    870       859.379     1.3647       1.3647         30.397447     30.399207       4.169      4.064     -0.0543       99.3632            1.00E-12        -70.1732     -113.61027    99.87      681                      1518.038      36434       34.7263   34.7284     7.74838            27         0.00  
3        2017-12-29    363.946021  2017-12-29T22:42:16Z    871       860.367     1.3638       1.364          30.397105     30.398923       4.1723     4.0627    -0.0561       99.3632            1.00E-12        -70.1732     -113.61026    99.87      681                      1519.212      36462       34.7262   34.7283     7.74855            30         0.00  
3        2017-12-29    363.946036  2017-12-29T22:42:18Z    872       861.352     1.3632       1.3631         30.396899     30.39866        4.1731     4.0664    -0.061        99.3632            1.00E-12        -70.1732     -113.61026    99.87      681                      1520.476      36492       34.7261   34.7284     7.74869            30         0.00  
3        2017-12-29    363.94605   2017-12-29T22:42:19Z    873       862.336     1.3623       1.3624         30.396622     30.398486       4.1754     4.0673    -0.0618       99.3641            1.00E-12        -70.1732     -113.61025    99.87      681                      1521.757      36523       34.7261   34.7284     7.74885            31         0.00  
3        2017-12-29    363.946066  2017-12-29T22:42:20Z    874       863.323     1.3603       1.3604         30.395376     30.39715        4.1754     4.0686    -0.0647       99.359             1.00E-12        -70.1732     -113.61024    99.87      681                      1523.061      36554       34.7262   34.7284     7.74924            32         0.00  
3        2017-12-29    363.946081  2017-12-29T22:42:21Z    875       864.308     1.3592       1.3592         30.39482      30.396484       4.1769     4.0702    -0.0576       99.3615            1.00E-12        -70.1732     -113.61024    99.87      681                      1524.363      36586       34.7262   34.7283     7.74946            31         0.00  
3        2017-12-29    363.946095  2017-12-29T22:42:23Z    876       865.292     1.3569       1.3569         30.393157     30.394886       4.1767     4.0679    -0.0542       99.3632            1.00E-12        -70.1732     -113.61024    99.87      681                      1525.639      36616       34.726    34.7283     7.74992            30         0.00  
3        2017-12-29    363.946109  2017-12-29T22:42:24Z    877       866.28      1.3555       1.3556         30.392499     30.394162       4.1785     4.072     -0.0548       99.3632            1.00E-12        -70.1732     -113.61024    99.87      680                      1526.825      36645       34.7262   34.7282     7.7502             26         0.00  
3        2017-12-29    363.946122  2017-12-29T22:42:25Z    878       867.266     1.3541       1.3541         30.391494     30.393299       4.1778     4.0719    -0.0575       99.3632            1.00E-12        -70.1732     -113.61023    99.87      679                      1527.925      36671       34.7259   34.7282     7.75049            27         0.00  
3        2017-12-29    363.946135  2017-12-29T22:42:26Z    879       868.252     1.3525       1.3525         30.390567     30.392317       4.1779     4.0704    -0.0649       99.3632            1.00E-12        -70.1732     -113.61022    99.87      679                      1529.088      36699       34.726    34.7282     7.7508             29         0.00  
3        2017-12-29    363.946149  2017-12-29T22:42:27Z    880       869.236     1.3504       1.3504         30.389128     30.390884       4.178      4.0723    -0.0538       99.3632            1.00E-12        -70.1732     -113.61022    99.87      679                      1530.284      36728       34.7259   34.7281     7.75122            29         0.00  
3        2017-12-29    363.946163  2017-12-29T22:42:28Z    881       870.222     1.3491       1.3492         30.388559     30.390263       4.178      4.0707    -0.0542       99.3632            1.00E-12        -70.1732     -113.61022    99.87      679                      1531.494      36757       34.726    34.7281     7.75146            29         0.00  
3        2017-12-29    363.946178  2017-12-29T22:42:30Z    882       871.21      1.3486       1.3485         30.388414     30.390168       4.1823     4.0731    -0.0622       99.3632            1.00E-12        -70.1732     -113.61021    99.87      679                      1532.751      36787       34.7259   34.7281     7.75158            31         0.00  
3        2017-12-29    363.946193  2017-12-29T22:42:31Z    883       872.196     1.3478       1.3479         30.388224     30.39           4.181      4.0732    -0.0578       99.3632            1.00E-12        -70.1732     -113.6102     99.87      679                      1534.058      36818       34.7259   34.7281     7.75172            32         0.00  
3        2017-12-29    363.946208  2017-12-29T22:42:32Z    884       873.178     1.3474       1.3474         30.388239     30.390034       4.1806     4.0726    -0.0674       99.3632            1.00E-12        -70.1732     -113.6102     99.87      679                      1535.386      36850       34.7258   34.7281     7.75181            32         0.00  
3        2017-12-29    363.946224  2017-12-29T22:42:34Z    885       874.165     1.3464       1.3464         30.387827     30.389603       4.1822     4.0736    -0.0698       99.3632            1.00E-12        -70.1732     -113.6102     99.87      679                      1536.72       36882       34.7259   34.7281     7.75201            32         0.00  
3        2017-12-29    363.946239  2017-12-29T22:42:35Z    886       875.151     1.3452       1.3452         30.387186     30.388985       4.1803     4.0755    -0.0694       99.3632            1.00E-12        -70.1732     -113.6102     99.87      679                      1538.018      36913       34.7258   34.7281     7.75224            30         0.00  
3        2017-12-29    363.946253  2017-12-29T22:42:36Z    887       876.135     1.3444       1.3445         30.387047     30.388761       4.1795     4.0723    -0.0689       99.3632            1.00E-12        -70.1732     -113.61018    99.87      679                      1539.274      36944       34.7259   34.728      7.75239            30         0.00  
3        2017-12-29    363.946267  2017-12-29T22:42:37Z    888       877.121     1.344        1.3441         30.387203     30.388996       4.1813     4.0775    -0.0595       99.3632            1.00E-12        -70.1732     -113.61018    99.87      679                      1540.482      36973       34.726    34.7282     7.75246            28         0.00  
3        2017-12-29    363.94628   2017-12-29T22:42:39Z    889       878.108     1.3428       1.343          30.38645      30.388324       4.1863     4.0771    -0.0649       99.3632            1.00E-12        -70.1732     -113.61018    99.87      679                      1541.591      36999       34.7258   34.7281     7.75271            26         0.00  
3        2017-12-29    363.946293  2017-12-29T22:42:40Z    890       879.094     1.3418       1.3418         30.385959     30.387807       4.185      4.0724    -0.0594       99.3632            1.00E-12        -70.1732     -113.61018    99.87      679                      1542.732      37027       34.7258   34.7281     7.75292            29         0.00  
3        2017-12-29    363.946307  2017-12-29T22:42:41Z    891       880.079     1.3413       1.3411         30.386001     30.387655       4.1848     4.0763    -0.0543       99.3632            1.00E-12        -70.1732     -113.61018    99.87      679                      1543.945      37056       34.7258   34.7281     7.75301            29         0.00  
3        2017-12-29    363.946321  2017-12-29T22:42:42Z    892       881.065     1.3404       1.3405         30.385709     30.387567       4.1777     4.0704    -0.0695       99.3632            1.00E-12        -70.1732     -113.61018    99.87      679                      1545.175      37085       34.7259   34.7282     7.75318            29         0.00  
3        2017-12-29    363.946336  2017-12-29T22:42:43Z    893       882.051     1.339        1.339          30.384803     30.386641       4.1785     4.0777    -0.0541       99.3632            1.00E-12        -70.1732     -113.61018    99.87      678                      1546.401      37115       34.7257   34.728      7.75346            30         0.00  
3        2017-12-29    363.94635   2017-12-29T22:42:45Z    894       883.038     1.3375       1.3373         30.383929     30.38558        4.1818     4.076     -0.0537       99.3632            1.00E-12        -70.1732     -113.61017    99.87      679                      1547.643      37144       34.7257   34.728      7.75376            30         0.00  
3        2017-12-29    363.946364  2017-12-29T22:42:46Z    895       884.021     1.337        1.337          30.383965     30.385741       4.1787     4.0779    -0.06         99.3632            1.00E-12        -70.1732     -113.61016    99.87      678                      1548.888      37174       34.7257   34.728      7.75386            30         0.00  
3        2017-12-29    363.946379  2017-12-29T22:42:47Z    896       885.007     1.337        1.3368         30.384318     30.386033       4.174      4.073     -0.062        99.3632            1.00E-12        -70.1732     -113.61016    99.87      677                      1550.133      37204       34.7257   34.7281     7.75387            30         0.00  
3        2017-12-29    363.946393  2017-12-29T22:42:48Z    897       885.994     1.3366       1.3365         30.384318     30.38626        4.1792     4.0755    -0.0542       99.3632            1.00E-12        -70.1732     -113.61016    99.87      677                      1551.393      37234       34.7255   34.7281     7.75396            30         0.00  
3        2017-12-29    363.946408  2017-12-29T22:42:50Z    898       886.978     1.3358       1.3358         30.384149     30.38597        4.1854     4.0785    -0.0655       99.3632            1.00E-12        -70.1732     -113.61015    99.87      677                      1552.656      37265       34.7256   34.728      7.7541             30         0.00  
3        2017-12-29    363.946423  2017-12-29T22:42:51Z    899       887.965     1.3352       1.335          30.383963     30.385765       4.1788     4.0756    -0.057        99.3632            1.00E-12        -70.1732     -113.61014    99.87      677                      1553.921      37295       34.7255   34.728      7.75423            31         0.00  
3        2017-12-29    363.946437  2017-12-29T22:42:52Z    900       888.949     1.335        1.3348         30.384205     30.386035       4.1859     4.0792    -0.0674       99.3632            1.00E-12        -70.1732     -113.61014    99.87      677                      1555.185      37325       34.7255   34.728      7.75428            30         0.00  
3        2017-12-29    363.946452  2017-12-29T22:42:53Z    901       889.935     1.334        1.334          30.383771     30.385662       4.1893     4.0807    -0.0577       99.3632            1.00E-12        -70.1732     -113.61014    99.87      677                      1556.432      37355       34.7255   34.7279     7.75447            30         0.00  
3        2017-12-29    363.946466  2017-12-29T22:42:55Z    902       890.922     1.3328       1.3327         30.383095     30.384982       4.1872     4.0812    -0.0643       99.3632            1.00E-12        -70.17321    -113.61014    99.87      677                      1557.657      37385       34.7254   34.7279     7.75471            29         0.00  
3        2017-12-29    363.94648   2017-12-29T22:42:56Z    903       891.905     1.3316       1.3315         30.382603     30.384409       4.1855     4.082     -0.0553       99.3632            1.00E-12        -70.17322    -113.61014    99.87      677                      1558.87       37414       34.7255   34.728      7.75493            29         0.00  
3        2017-12-29    363.946494  2017-12-29T22:42:57Z    904       892.892     1.3312       1.3311         30.382588     30.384451       4.1836     4.0792    -0.0626       99.3632            1.00E-12        -70.17322    -113.61014    99.87      677                      1560.064      37443       34.7254   34.7279     7.75503            28         0.00  
3        2017-12-29    363.946508  2017-12-29T22:42:58Z    905       893.878     1.3312       1.3309         30.382972     30.384767       4.183      4.0815    -0.069        99.3632            1.00E-12        -70.17322    -113.61012    99.87      677                      1561.265      37471       34.7254   34.728      7.75504            29         0.00  
3        2017-12-29    363.946522  2017-12-29T22:43:00Z    906       894.865     1.3292       1.3292         30.3817       30.383663       4.1858     4.0826    -0.0704       99.3632            1.00E-12        -70.17322    -113.61012    99.87      677                      1562.47       37500       34.7254   34.7278     7.75543            29         0.00  
3        2017-12-29    363.946536  2017-12-29T22:43:01Z    907       895.847     1.3276       1.3275         30.38078      30.382687       4.1888     4.0797    -0.0576       99.3632            1.00E-12        -70.17322    -113.61012    99.87      677                      1563.692      37530       34.7254   34.728      7.75573            30         0.00  
3        2017-12-29    363.94655   2017-12-29T22:43:02Z    908       896.835     1.3274       1.327          30.38086      30.382745       4.1885     4.085     -0.0547       99.3632            1.00E-12        -70.17322    -113.61012    99.87      676                      1564.939      37560       34.7252   34.728      7.75579            30         0.00  
3        2017-12-29    363.946565  2017-12-29T22:43:03Z    909       897.822     1.3271       1.3269         30.38119      30.383039       4.1883     4.085     -0.0666       99.3632            1.00E-12        -70.17322    -113.61012    99.87      676                      1566.215      37590       34.7254   34.7279     7.75583            31         0.00  
3        2017-12-29    363.94658   2017-12-29T22:43:05Z    910       898.804     1.3257       1.3253         30.38029      30.382052       4.1895     4.0838    -0.0599       99.3632            1.00E-12        -70.17322    -113.61012    99.87      675                      1567.495      37621       34.7252   34.7278     7.75612            31         0.00  
3        2017-12-29    363.946595  2017-12-29T22:43:06Z    911       899.791     1.325        1.3247         30.380155     30.381906       4.1903     4.08      -0.0708       99.3632            1.00E-12        -70.17322    -113.61012    99.87      675                      1568.77       37651       34.7252   34.7278     7.75625            30         0.00  
3        2017-12-29    363.946609  2017-12-29T22:43:07Z    912       900.776     1.3234       1.3234         30.379261     30.381177       4.1855     4.0888    -0.0602       99.3632            1.00E-12        -70.17322    -113.61011    99.87      675                      1570.011      37681       34.7253   34.7278     7.75656            29         0.00  
3        2017-12-29    363.946623  2017-12-29T22:43:08Z    913       901.761     1.323        1.3227         30.379228     30.381104       4.1859     4.084     -0.0536       99.3632            1.00E-12        -70.17322    -113.6101     99.87      675                      1571.222      37710       34.7252   34.7278     7.75665            29         0.00  
3        2017-12-29    363.946637  2017-12-29T22:43:09Z    914       902.749     1.3233       1.3228         30.379904     30.381597       4.1931     4.0831    -0.0653       99.3632            1.00E-12        -70.17322    -113.6101     99.87      675                      1572.415      37739       34.7252   34.7279     7.7566             29         0.00  
3        2017-12-29    363.94665   2017-12-29T22:43:11Z    915       903.733     1.3225       1.3223         30.37972      30.381586       4.1932     4.077     -0.0584       99.3632            1.00E-12        -70.17322    -113.6101     99.87      675                      1573.602      37767       34.7252   34.7279     7.75675            28         0.00  
3        2017-12-29    363.946664  2017-12-29T22:43:12Z    916       904.719     1.3219       1.3216         30.379467     30.381421       4.1894     4.0823    -0.0689       99.3609            1.00E-12        -70.17322    -113.6101     99.87      675                      1574.794      37796       34.7251   34.7279     7.75688            29         0.00  
3        2017-12-29    363.946678  2017-12-29T22:43:13Z    917       905.705     1.3216       1.3213         30.37972      30.381541       4.1904     4.0852    -0.0543       99.3641            1.00E-12        -70.17322    -113.61009    99.87      675                      1576.01       37825       34.7252   34.7278     7.75694            30         0.00  
3        2017-12-29    363.946693  2017-12-29T22:43:14Z    918       906.689     1.321        1.3207         30.379655     30.381531       4.1871     4.0817    -0.0588       99.366             1.00E-12        -70.17322    -113.61008    99.87      675                      1577.248      37855       34.7252   34.7279     7.75705            29         0.00  
3        2017-12-29    363.946707  2017-12-29T22:43:15Z    919       907.678     1.3202       1.3199         30.379302     30.381232       4.1946     4.0854    -0.0684       99.3597            1.00E-12        -70.17322    -113.61008    99.87      675                      1578.504      37885       34.7251   34.7278     7.75722            31         0.00  
3        2017-12-29    363.946722  2017-12-29T22:43:17Z    920       908.658     1.3199       1.3196         30.379532     30.381386       4.1912     4.0819    -0.0694       99.3632            1.00E-12        -70.17322    -113.61008    99.87      675                      1579.765      37915       34.7251   34.7278     7.75727            30         0.00  
3        2017-12-29    363.946736  2017-12-29T22:43:18Z    921       909.647     1.3197       1.3195         30.379837     30.381682       4.1907     4.0878    -0.0601       99.3632            1.00E-12        -70.17322    -113.61008    99.87      675                      1581.019      37945       34.7251   34.7278     7.7573             30         0.00  
3        2017-12-29    363.946751  2017-12-29T22:43:19Z    922       910.633     1.3192       1.3189         30.379617     30.381604       4.1938     4.0867    -0.0552       99.3632            1.00E-12        -70.17322    -113.61008    99.87      675                      1582.256      37975       34.7249   34.7277     7.75743            29         0.00  
3        2017-12-29    363.946765  2017-12-29T22:43:20Z    923       911.617     1.3184       1.3181         30.379364     30.381314       4.1895     4.0802    -0.0661       99.3632            1.00E-12        -70.17322    -113.61008    99.87      675                      1583.487      38005       34.725    34.7277     7.75759            30         0.00  
3        2017-12-29    363.946779  2017-12-29T22:43:22Z    924       912.604     1.3174       1.3171         30.378944     30.380875       4.1936     4.0863    -0.0684       99.3632            1.00E-12        -70.17322    -113.61008    75.23      675                      1584.704      38034       34.725    34.7276     7.75778            29         0.00  
3        2017-12-29    363.946793  2017-12-29T22:43:23Z    925       913.587     1.3157       1.3155         30.37781      30.379772       4.1898     4.0872    -0.0684       99.3632            1.00E-12        -70.17322    -113.61007    83.73      675                      1585.922      38063       34.7247   34.7275     7.75811            29         0.00  
3        2017-12-29    363.946807  2017-12-29T22:43:24Z    926       914.571     1.3144       1.3141         30.377154     30.379077       4.196      4.0833    -0.0684       99.3632            1.00E-12        -70.17322    -113.61006    99.91      675                      1587.149      38093       34.7248   34.7276     7.75837            30         0.00  
3        2017-12-29    363.946821  2017-12-29T22:43:25Z    927       915.563     1.3142       1.3139         30.377463     30.379381       4.1967     4.0865    -0.0684       99.3632            1.00E-12        -70.17322    -113.61006    99.87      674                      1588.373      38122       34.7249   34.7276     7.75841            29         0.00  
3        2017-12-29    363.946836  2017-12-29T22:43:27Z    928       916.545     1.314        1.3136         30.377648     30.379635       4.1955     4.0908    -0.0684       99.3632            1.00E-12        -70.17322    -113.61006    99.87      674                      1589.6        38151       34.7248   34.7277     7.75846            30         0.00  
3        2017-12-29    363.94685   2017-12-29T22:43:28Z    929       917.529     1.3135       1.3133         30.377834     30.379672       4.1953     4.0873    -0.0684       99.3632            1.00E-12        -70.17322    -113.61006    99.87      673                      1590.826      38181       34.725    34.7276     7.75853            29         0.00  
3        2017-12-29    363.946864  2017-12-29T22:43:29Z    930       918.515     1.3134       1.3132         30.37817      30.380036       4.1982     4.0848    -0.0593       99.3632            1.00E-12        -70.17322    -113.61005    99.87      673                      1592.036      38210       34.725    34.7276     7.75856            29         0.00  
3        2017-12-29    363.946878  2017-12-29T22:43:30Z    931       919.502     1.3131       1.3128         30.378316     30.380135       4.1967     4.0867    -0.0547       99.3632            1.00E-12        -70.17322    -113.61004    99.87      673                      1593.244      38239       34.725    34.7276     7.75862            29         0.00  
3        2017-12-29    363.946892  2017-12-29T22:43:31Z    932       920.488     1.3127       1.3124         30.378301     30.380254       4.1949     4.0853    -0.0542       99.3632            1.00E-12        -70.17322    -113.61004    99.87      673                      1594.463      38268       34.7249   34.7277     7.75871            29         0.00  
3        2017-12-29    363.946906  2017-12-29T22:43:33Z    933       921.472     1.3111       1.311          30.377342     30.379389       4.1888     4.0869    -0.0694       99.3632            1.00E-12        -70.17322    -113.61004    99.87      673                      1595.689      38298       34.7248   34.7276     7.75902            30         0.00  
3        2017-12-29    363.946921  2017-12-29T22:43:34Z    934       922.456     1.3098       1.3096         30.376649     30.378659       4.1943     4.0847    -0.0694       99.3632            1.00E-12        -70.17322    -113.61004    99.87      673                      1596.939      38328       34.7248   34.7275     7.75928            30         0.00  
3        2017-12-29    363.946935  2017-12-29T22:43:35Z    935       923.445     1.3098       1.3094         30.377189     30.378904       4.1931     4.0857    -0.0649       99.3632            1.00E-12        -70.17322    -113.61004    99.87      673                      1598.195      38358       34.725    34.7276     7.75927            30         0.00  
3        2017-12-29    363.94695   2017-12-29T22:43:36Z    936       924.427     1.3102       1.31           30.377959     30.3798         4.1954     4.0811    -0.0551       99.3632            1.00E-12        -70.17322    -113.61004    99.87      673                      1599.446      38388       34.7249   34.7275     7.75919            30         0.00  
3        2017-12-29    363.946964  2017-12-29T22:43:38Z    937       925.413     1.3087       1.3083         30.37697      30.378791       4.197      4.0863    -0.0644       99.3632            1.00E-12        -70.17322    -113.61004    99.87      673                      1600.68       38417       34.7248   34.7275     7.7595             29         0.00  
3        2017-12-29    363.946978  2017-12-29T22:43:39Z    938       926.4       1.3075       1.3072         30.376353     30.37822        4.1966     4.0841    -0.07         99.3632            1.00E-12        -70.17322    -113.61003    99.87      673                      1601.892      38446       34.7248   34.7275     7.75974            29         0.00  
3        2017-12-29    363.946992  2017-12-29T22:43:40Z    939       927.386     1.3064       1.3061         30.375816     30.377629       4.1961     4.0846    -0.0694       99.3632            1.00E-12        -70.17322    -113.61002    99.87      673                      1603.092      38475       34.7248   34.7274     7.75996            29         0.00  
3        2017-12-29    363.947006  2017-12-29T22:43:41Z    940       928.37      1.3056       1.3054         30.375537     30.377447       4.1977     4.094     -0.0567       99.3632            1.00E-12        -70.17322    -113.61002    99.87      673                      1604.297      38504       34.7247   34.7274     7.76012            29         0.00  
3        2017-12-29    363.94702   2017-12-29T22:43:43Z    941       929.356     1.305        1.3048         30.375503     30.377415       4.2004     4.0821    -0.07         99.3632            1.00E-12        -70.17322    -113.61002    99.87      673                      1605.506      38533       34.7247   34.7275     7.76022            29         0.00  
3        2017-12-29    363.947034  2017-12-29T22:43:44Z    942       930.341     1.3038       1.3038         30.374939     30.376917       4.2003     4.0892    -0.0674       99.3632            1.00E-12        -70.17322    -113.61002    99.87      673                      1606.731      38563       34.7248   34.7274     7.76046            30         0.00  
3        2017-12-29    363.947048  2017-12-29T22:43:45Z    943       931.326     1.3016       1.3014         30.373339     30.375282       4.1969     4.0896    -0.0553       99.3632            1.00E-12        -70.17322    -113.61002    99.87      673                      1607.968      38592       34.7247   34.7273     7.76091            30         0.00  
3        2017-12-29    363.947063  2017-12-29T22:43:46Z    944       932.311     1.3005       1.3002         30.37281      30.374697       4.201      4.0873    -0.0618       99.3549            1.00E-12        -70.17322    -113.61002    99.87      673                      1609.204      38622       34.7247   34.7274     7.76112            29         0.00  
3        2017-12-29    363.947077  2017-12-29T22:43:47Z    945       933.298     1.2998       1.2995         30.372697     30.374565       4.2032     4.0908    -0.0688       99.3649            1.00E-12        -70.17322    -113.61002    99.87      673                      1610.43       38651       34.7247   34.7274     7.76126            30         0.00  
3        2017-12-29    363.947091  2017-12-29T22:43:49Z    946       934.28      1.2995       1.2992         30.372822     30.374596       4.2069     4.0914    -0.0611       99.3509            1.00E-12        -70.17322    -113.61       99.87      673                      1611.637      38680       34.7247   34.7272     7.76133            28         0.00  
3        2017-12-29    363.947105  2017-12-29T22:43:50Z    947       935.268     1.2986       1.2984         30.372479     30.374281       4.1977     4.0909    -0.0648       99.365             1.00E-12        -70.17322    -113.61       99.87      673                      1612.831      38709       34.7247   34.7272     7.7615             29         0.00  
3        2017-12-29    363.947118  2017-12-29T22:43:51Z    948       936.255     1.2971       1.2969         30.371511     30.373388       4.1975     4.0933    -0.0583       99.3441            1.00E-12        -70.17322    -113.61       99.87      673                      1614.027      38738       34.7246   34.7272     7.76181            29         0.00  
3        2017-12-29    363.947132  2017-12-29T22:43:52Z    949       937.237     1.2962       1.296          30.371187     30.373125       4.2026     4.0902    -0.0557       99.3604            1.00E-12        -70.17322    -113.61       99.87      673                      1615.248      38767       34.7246   34.7273     7.76199            29         0.00  
3        2017-12-29    363.947147  2017-12-29T22:43:54Z    950       938.224     1.2956       1.2954         30.371202     30.373012       4.2032     4.0917    -0.0688       99.358             1.00E-12        -70.17322    -113.60999    99.87      673                      1616.493      38797       34.7247   34.7272     7.76208            31         0.00  
3        2017-12-29    363.947162  2017-12-29T22:43:55Z    951       939.21      1.2955       1.2952         30.371451     30.373302       4.2026     4.0938    -0.0684       99.3631            1.00E-12        -70.17322    -113.60998    99.87      673                      1617.776      38828       34.7246   34.7272     7.76212            31         0.00  
3        2017-12-29    363.947177  2017-12-29T22:43:56Z    952       940.195     1.2955       1.2952         30.371869     30.373708       4.2019     4.0904    -0.0684       99.3516            1.00E-12        -70.17322    -113.60998    99.87      673                      1619.06       38858       34.7246   34.7272     7.76212            30         0.00  
3        2017-12-29    363.947191  2017-12-29T22:43:57Z    953       941.178     1.2935       1.2933         30.370558     30.372444       4.2031     4.0926    -0.0659       99.3454            1.00E-12        -70.17322    -113.60998    99.87      673                      1620.315      38889       34.7246   34.7271     7.76252            30         0.00  
3        2017-12-29    363.947205  2017-12-29T22:43:59Z    954       942.166     1.2925       1.2922         30.36999      30.371899       4.2081     4.09      -0.0537       99.3633            1.00E-12        -70.17322    -113.60998    99.87      673                      1621.525      38918       34.7244   34.7272     7.76273            28         0.00  
3        2017-12-29    363.947219  2017-12-29T22:44:00Z    955       943.15      1.292        1.2918         30.370144     30.37201        4.2024     4.098     -0.0537       99.3632            1.00E-12        -70.17322    -113.60998    99.87      673                      1622.697      38946       34.7246   34.7272     7.76281            28         0.00  
3        2017-12-29    363.947232  2017-12-29T22:44:01Z    956       944.137     1.2908       1.2907         30.369532     30.371439       4.2033     4.0932    -0.0537       99.3632            1.00E-12        -70.17322    -113.60998    99.87      673                      1623.847      38973       34.7245   34.7271     7.76305            28         0.00  
3        2017-12-29    363.947245  2017-12-29T22:44:02Z    957       945.122     1.2901       1.2899         30.369286     30.371174       4.2069     4.09      -0.0659       99.3632            1.00E-12        -70.17322    -113.60998    99.87      673                      1625.004      39001       34.7245   34.7271     7.76319            28         0.00  
3        2017-12-29    363.947259  2017-12-29T22:44:03Z    958       946.107     1.2891       1.2889         30.368887     30.37072        4.2064     4.0977    -0.0689       99.3632            1.00E-12        -70.17322    -113.60996    99.87      673                      1626.19       39030       34.7245   34.727      7.76339            29         0.00  
3        2017-12-29    363.947274  2017-12-29T22:44:04Z    959       947.093     1.2876       1.2874         30.367928     30.369808       4.2066     4.0935    -0.0549       99.3632            1.00E-12        -70.17322    -113.60996    99.87      673                      1627.436      39059       34.7244   34.727      7.76369            31         0.00  
3        2017-12-29    363.947289  2017-12-29T22:44:06Z    960       948.076     1.2854       1.2853         30.366463     30.368438       4.2085     4.0903    -0.058        99.3632            1.00E-12        -70.17322    -113.60996    99.87      673                      1628.745      39091       34.7244   34.727      7.76413            31         0.00  
3        2017-12-29    363.947304  2017-12-29T22:44:07Z    961       949.063     1.2849       1.2846         30.366504     30.368249       4.2072     4.0972    -0.0685       99.3632            1.00E-12        -70.17322    -113.60996    99.87      673                      1630.081      39123       34.7245   34.727      7.76422            32         0.00  
3        2017-12-29    363.94732   2017-12-29T22:44:08Z    962       950.048     1.2845       1.2843         30.366549     30.368448       4.2041     4.1005    -0.0684       99.3632            1.00E-12        -70.17322    -113.60994    99.87      673                      1631.409      39155       34.7244   34.7271     7.76431            32         0.00  
3        2017-12-29    363.947335  2017-12-29T22:44:10Z    963       951.033     1.2843       1.2841         30.366831     30.368696       4.2049     4.0956    -0.0684       99.3632            1.00E-12        -70.17322    -113.60994    99.87      673                      1632.715      39186       34.7244   34.727      7.76434            31         0.00  
3        2017-12-29    363.947349  2017-12-29T22:44:11Z    964       952.017     1.2842       1.284          30.367187     30.369067       4.2014     4.104     -0.0565       99.347             1.00E-12        -70.17322    -113.60994    99.87      673                      1633.99       39217       34.7244   34.727      7.76436            30         0.00  
3        2017-12-29    363.947364  2017-12-29T22:44:12Z    965       953.004     1.2841       1.2838         30.3675       30.369365       4.2017     4.1033    -0.0656       99.3632            1.00E-12        -70.17322    -113.60994    99.87      673                      1635.25       39247       34.7244   34.727      7.76438            31         0.00  
3        2017-12-29    363.947379  2017-12-29T22:44:14Z    966       953.989     1.2839       1.2837         30.36776      30.369625       4.2072     4.0975    -0.0599       99.3632            1.00E-12        -70.17322    -113.60994    99.87      673                      1636.531      39278       34.7244   34.727      7.76442            31         0.00  
3        2017-12-29    363.947394  2017-12-29T22:44:15Z    967       954.976     1.2837       1.2834         30.368019     30.369887       4.2101     4.0954    -0.0683       99.3632            1.00E-12        -70.17322    -113.60994    99.87      673                      1637.838      39309       34.7244   34.7271     7.76446            32         0.00  
3        2017-12-29    363.94741   2017-12-29T22:44:16Z    968       955.959     1.2829       1.2829         30.367692     30.369745       4.2198     4.0977    -0.0592       99.3632            1.00E-12        -70.17322    -113.60994    99.87      673                      1639.187      39341       34.7243   34.7269     7.76462            33         0.00  
3        2017-12-29    363.947425  2017-12-29T22:44:18Z    969       956.946     1.2823       1.2823         30.367705     30.369693       4.2101     4.101     -0.0665       99.3632            1.00E-12        -70.17322    -113.60992    99.87      673                      1640.565      39375       34.7244   34.727      7.76473            33         0.00  
3        2017-12-29    363.947442  2017-12-29T22:44:19Z    970       957.932     1.2826       1.2824         30.368331     30.370181       4.2099     4.0992    -0.0539       99.3632            1.00E-12        -70.17322    -113.60992    99.87      673                      1641.962      39408       34.7244   34.7269     7.76468            34         0.00  
3        2017-12-29    363.947458  2017-12-29T22:44:20Z    971       958.913     1.2821       1.282          30.368258     30.370189       4.2076     4.0995    -0.0637       99.3632            1.00E-12        -70.17322    -113.60992    99.87      673                      1643.406      39443       34.7243   34.7268     7.76479            35         0.00  
3        2017-12-29    363.947475  2017-12-29T22:44:22Z    972       959.901     1.2811       1.2809         30.36794      30.369819       4.208      4.1026    -0.0684       99.3632            1.00E-12        -70.17322    -113.60992    99.87      673                      1644.875      39478       34.7244   34.727      7.76497            35         0.00  
3        2017-12-29    363.947493  2017-12-29T22:44:23Z    973       960.887     1.28         1.2797         30.367284     30.369104       4.2106     4.1028    -0.0602       99.3632            1.00E-12        -70.17322    -113.60992    99.87      673                      1646.352      39513       34.7242   34.7269     7.7652             36         0.00  
3        2017-12-29    363.94751   2017-12-29T22:44:25Z    974       961.872     1.2763       1.2758         30.364425     30.365977       4.2108     4.1014    -0.0699       99.3632            1.00E-12        -70.17322    -113.60992    99.87      673                      1647.889      39550       34.7241   34.7266     7.76594            38         0.00  
3        2017-12-29    363.94753   2017-12-29T22:44:27Z    975       962.858     1.275        1.2748         30.363847     30.365663       4.2137     4.1039    -0.0549       99.3632            1.00E-12        -70.17322    -113.6099     99.87      673                      1649.551      39590       34.7242   34.7268     7.76618            42         0.00  
3        2017-12-29    363.94755   2017-12-29T22:44:28Z    976       963.841     1.2745       1.2744         30.363838     30.365711       4.213      4.1038    -0.057        99.3632            1.00E-12        -70.17322    -113.6099     99.87      673                      1651.363      39634       34.7242   34.7267     7.76629            45         0.00  
3        2017-12-29    363.947572  2017-12-29T22:44:30Z    977       964.827     1.2745       1.2744         30.364228     30.366137       4.2081     4.0997    -0.0604       99.3632            1.00E-12        -70.17322    -113.6099     99.87      673                      1653.224      39678       34.7242   34.7267     7.76629            44         0.00  
3        2017-12-29    363.947594  2017-12-29T22:44:32Z    978       965.812     1.2739       1.2738         30.364144     30.366033       4.2039     4.1028    -0.055        99.3632            1.00E-12        -70.17322    -113.60989    99.87      673                      1655.091      39723       34.7242   34.7267     7.76641            45         0.00  
3        2017-12-29    363.947616  2017-12-29T22:44:34Z    979       966.798     1.2728       1.2728         30.363644     30.365554       4.2091     4.0988    -0.0658       99.3632            1.00E-12        -70.17322    -113.60988    99.87      673                      1656.983      39769       34.7242   34.7266     7.76663            47         0.00  
3        2017-12-29    363.947639  2017-12-29T22:44:36Z    980       967.783     1.271        1.2708         30.362436     30.364204       4.2101     4.108     -0.0614       99.3632            1.00E-12        -70.17322    -113.60988    99.87      673                      1658.992      39817       34.7241   34.7265     7.76699            50         0.00  
3        2017-12-29    363.947664  2017-12-29T22:44:38Z    981       968.768     1.2696       1.2696         30.361598     30.363589       4.212      4.1045    -0.0596       99.3632            1.00E-12        -70.17322    -113.60988    99.87      673                      1661.145      39868       34.7241   34.7266     7.76727            52         0.00  
3        2017-12-29    363.947689  2017-12-29T22:44:40Z    982       969.753     1.2693       1.2692         30.36177      30.363634       4.2157     4.1055    -0.0665       99.3632            1.00E-12        -70.17322    -113.60987    99.87      673                      1663.322      39921       34.7241   34.7265     7.76733            51         0.00  
3        2017-12-29    363.947712  2017-12-29T22:44:42Z    983       970.737     1.2687       1.2685         30.361728     30.363543       4.2136     4.1075    -0.0684       99.3632            1.00E-12        -70.17322    -113.60986    99.87      673                      1665.338      39969       34.7241   34.7266     7.76744            46         0.00  
3        2017-12-29    363.947734  2017-12-29T22:44:44Z    984       971.723     1.267        1.2671         30.36051      30.362583       4.2227     4.1084    -0.0704       99.362             1.00E-12        -70.17322    -113.60986    99.87      672                      1667.184      40013       34.7239   34.7264     7.7678             44         0.00  
3        2017-12-29    363.947755  2017-12-29T22:44:46Z    985       972.71      1.263        1.2629         30.357466     30.359378       4.2233     4.1065    -0.0568       99.3578            1.00E-12        -70.17322    -113.60986    99.87      673                      1669.013      40057       34.7239   34.7264     7.76859            44         0.00  
3        2017-12-29    363.947778  2017-12-29T22:44:48Z    986       973.694     1.2624       1.2625         30.357452     30.359451       4.2121     4.1107    -0.0651       99.366             1.00E-12        -70.17322    -113.60986    99.87      672                      1670.984      40105       34.7239   34.7264     7.76869            51         0.00  
3        2017-12-29    363.947804  2017-12-29T22:44:50Z    987       974.68      1.2621       1.262          30.357626     30.359447       4.2174     4.1089    -0.063        99.3632            1.00E-12        -70.17322    -113.60985    99.87      672                      1673.236      40159       34.7239   34.7264     7.76875            57         0.00  
3        2017-12-29    363.947833  2017-12-29T22:44:53Z    988       975.666     1.2617       1.2618         30.357767     30.359679       4.2129     4.1088    -0.0699       99.3632            1.00E-12        -70.17322    -113.60984    99.87      671                      1675.806      40220       34.724    34.7263     7.76883            49         0.00  
3        2017-12-29    363.947876  2017-12-29T22:44:56Z    989       976.65      1.2611       1.2612         30.357612     30.359593       4.2195     4.1091    -0.0637       99.3632            1.00E-12        -70.17322    -113.60983    99.87      671                      1679.485      40309       34.7239   34.7263     7.76896            66         0.00  
3        2017-12-29    363.947912  2017-12-29T22:45:00Z    990       977.634     1.2602       1.2598         30.357201     30.358772       4.2191     4.1112    -0.0671       99.3632            1.00E-12        -70.17322    -113.60982    99.87      671                      1682.612      40384       34.7238   34.7262     7.76914            78         0.00  
3        2017-12-29    363.947948  2017-12-29T22:45:03Z    991       978.619     1.2587       1.2586         30.356314     30.358174       4.2201     4.1101    -0.0667       99.3632            1.00E-12        -70.17322    -113.60982    99.87      671                      1685.686      40457       34.7238   34.7263     7.76943            68         0.00  
3        2017-12-29    363.947979  2017-12-29T22:45:05Z    992       979.606     1.2567       1.2567         30.354954     30.356874       4.2168     4.1113    -0.0549       99.3632            1.00E-12        -70.17322    -113.60981    99.87      671                      1688.347      40521       34.7237   34.7262     7.76984            62         0.00  
3        2017-12-29    363.94801   2017-12-29T22:45:08Z    993       980.591     1.2565       1.2564         30.355251     30.357134       4.2197     4.1081    -0.0665       99.3632            1.00E-12        -70.17322    -113.6098     99.87      671                      1691.073      40587       34.7238   34.7262     7.76987            71         0.00  
3        2017-12-29    363.948047  2017-12-29T22:45:11Z    994       981.575     1.2565       1.2565         30.355608     30.357574       4.218      4.109     -0.0649       99.3632            1.00E-12        -70.17322    -113.60979    99.87      671                      1694.262      40663       34.7237   34.7262     7.76988            77         0.00  
3        2017-12-29    363.948083  2017-12-29T22:45:14Z    995       982.56      1.2563       1.2563         30.355983     30.357841       4.2138     4.1101    -0.0578       99.3632            1.00E-12        -70.17322    -113.60978    99.87      671                      1697.392      40738       34.7238   34.7262     7.76991            70         0.00  
3        2017-12-29    363.948115  2017-12-29T22:45:17Z    996       983.546     1.2552       1.255          30.355345     30.357164       4.2195     4.1143    -0.0621       99.3632            1.00E-12        -70.17322    -113.60978    99.87      671                      1700.179      40805       34.7237   34.7262     7.77014            66         0.00  
3        2017-12-29    363.948149  2017-12-29T22:45:20Z    997       984.531     1.2548       1.2546         30.355479     30.357284       4.2202     4.1118    -0.0549       99.3632            1.00E-12        -70.17322    -113.60977    99.87      671                      1703.053      40874       34.7238   34.7262     7.77022            72         0.00  
3        2017-12-29    363.948184  2017-12-29T22:45:23Z    998       985.516     1.2545       1.2545         30.355671     30.35753        4.2239     4.1127    -0.058        99.3632            1.00E-12        -70.17322    -113.60976    99.87      671                      1706.095      40947       34.7237   34.7262     7.77027            72         0.00  
3        2017-12-29    363.948218  2017-12-29T22:45:26Z    999       986.502     1.2545       1.2544         30.356079     30.35797        4.2201     4.1137    -0.0652       99.3632            1.00E-12        -70.17322    -113.60976    99.87      671                      1709.004      41017       34.7238   34.7262     7.77028            68         0.00  
3        2017-12-29    363.948251  2017-12-29T22:45:29Z    1000      987.486     1.2536       1.2535         30.355663     30.357489       4.2185     4.1119    -0.0694       99.3632            1.00E-12        -70.17322    -113.60976    99.87      671                      1711.872      41086       34.7237   34.7261     7.77046            71         0.00  
3        2017-12-29    363.948286  2017-12-29T22:45:32Z    1001      988.471     1.2527       1.2526         30.355359     30.357148       4.221      4.1127    -0.0597       99.3632            1.00E-12        -70.17322    -113.60974    99.87      671                      1714.943      41160       34.7237   34.7261     7.77063            74         0.00  
3        2017-12-29    363.948322  2017-12-29T22:45:35Z    1002      989.457     1.2517       1.2516         30.354856     30.356738       4.2199     4.1145    -0.0601       99.3632            1.00E-12        -70.17322    -113.60974    99.87      671                      1717.988      41233       34.7236   34.7261     7.77083            69         0.00  
3        2017-12-29    363.948354  2017-12-29T22:45:38Z    1003      990.441     1.2502       1.2502         30.353989     30.355948       4.2219     4.1133    -0.0677       99.3632            1.00E-12        -70.17322    -113.60972    99.87      671                      1720.742      41299       34.7236   34.7261     7.77113            64         0.00  
3        2017-12-29    363.948385  2017-12-29T22:45:40Z    1004      991.427     1.2494       1.2494         30.353665     30.355651       4.2217     4.1112    -0.0669       99.3632            1.00E-12        -70.17322    -113.60972    99.87      671                      1723.489      41365       34.7235   34.7261     7.77129            70         0.00  
3        2017-12-29    363.948422  2017-12-29T22:45:44Z    1005      992.413     1.249        1.2489         30.353763     30.355617       4.2231     4.1151    -0.0628       99.3632            1.00E-12        -70.17322    -113.60972    99.87      671                      1726.694      41442       34.7235   34.726      7.77137            81         0.00  
3        2017-12-29    363.94846   2017-12-29T22:45:47Z    1006      993.396     1.2487       1.2485         30.353905     30.355774       4.2248     4.1142    -0.0643       99.3632            1.00E-12        -70.17322    -113.6097     99.87      671                      1729.979      41520       34.7235   34.726      7.77143            71         0.00  
3        2017-12-29    363.948492  2017-12-29T22:45:50Z    1007      994.382     1.2479       1.2478         30.353738     30.355569       4.2221     4.1149    -0.0584       99.3632            1.00E-12        -70.17322    -113.6097     99.87      671                      1732.698      41586       34.7236   34.726      7.77158            62         0.00  
3        2017-12-29    363.948522  2017-12-29T22:45:52Z    1008      995.368     1.2453       1.2448         30.351711     30.353347       4.2259     4.1201    -0.0628       99.3632            1.00E-12        -70.17322    -113.6097     99.87      670                      1735.269      41647       34.7234   34.7259     7.77212            64         0.00  
3        2017-12-29    363.948555  2017-12-29T22:45:55Z    1009      996.352     1.2436       1.2435         30.350673     30.352605       4.222      4.1155    -0.0638       99.3473            1.00E-12        -70.17322    -113.60968    99.87      669                      1738.124      41716       34.7234   34.7259     7.77246            73         0.00  
3        2017-12-29    363.948591  2017-12-29T22:45:58Z    1010      997.337     1.2422       1.2421         30.349871     30.351776       4.2246     4.1146    -0.0546       99.3644            1.00E-12        -70.17322    -113.60968    99.87      669                      1741.295      41792       34.7233   34.7258     7.77273            77         0.00  
3        2017-12-29    363.948629  2017-12-29T22:46:02Z    1011      998.323     1.2407       1.2407         30.349065     30.350978       4.2276     4.1181    -0.0648       99.3589            1.00E-12        -70.17322    -113.60967    99.87      669                      1744.514      41869       34.7234   34.7258     7.77302            77         0.00  
3        2017-12-29    363.949291  2017-12-29T22:46:59Z    1012      999.309     1.2374       1.2372         30.346503     30.34826        4.2256     4.1187    -0.0591       99.3607            1.00E-12        -70.17324    -113.60953    99.87      665                      1801.76       43243       34.7233   34.7257     7.77369            46         0.00  
4        2017-12-31    365.1127    2017-12-31T02:42:17Z    3         2.959       0.546        0.5496         28.76751      28.77646        8.2493     8.1414    1.6609        90.4506            383             -72.75064    -116.00105    99.88      1.54E+3                  497.992       11953       34.0301   34.0378     7.95111            5          0.00  
4        2017-12-31    365.1127    2017-12-31T02:42:17Z    4         3.956       0.5587       0.5711         28.779185     28.79579        8.2674     8.1283    1.6701        90.5363            332             -72.75064    -116.00102    99.87      1.53E+3                  501.175       12029       34.0307   34.0387     7.94846            50         0.00  
4        2017-12-31    365.1128    2017-12-31T02:42:26Z    5         4.949       0.5792       0.5542         28.797551     28.78121        8.2709     8.1326    1.5963        90.591             297             -72.75064    -116.00102    99.87      1.53E+3                  503.001       12073       34.0315   34.0377     7.94421            47         0.00  
4        2017-12-31    365.1128    2017-12-31T02:42:26Z    6         5.937       0.5753       0.5621         28.794197     28.78938        8.2711     8.1332    1.7158        90.4746            229             -72.75064    -116.00102    99.87      1.52E+3                  505.07        12123       34.0308   34.0391     7.94504            49         0.00  
4        2017-12-31    365.1128    2017-12-31T02:42:26Z    7         6.93        0.5634       0.5635         28.784525     28.7902         8.2786     8.1431    1.697         90.5205            212             -72.75064    -116.00102    99.87      1.50E+3                  507.063       12171       34.0308   34.038      7.9475             50         0.00  
4        2017-12-31    365.1128    2017-12-31T02:42:26Z    8         7.917       0.5543       0.5456         28.777141     28.77568        8.2604     8.1366    1.739         90.5195            171             -72.75064    -116.00102    99.87      1.49E+3                  509.31        12224       34.0306   34.0382     7.94938            55         0.00  
4        2017-12-31    365.1129    2017-12-31T02:42:35Z    9         8.907       0.4997       0.4905         28.729785     28.72823        8.2741     8.1485    1.762         90.5273            143             -72.75064    -116.00102    99.87      1.48E+3                  511.671       12281       34.0284   34.0365     7.96074            60         0.00  
4        2017-12-31    365.1129    2017-12-31T02:42:35Z    10        9.897       0.4545       0.4509         28.692338     28.69543        8.2834     8.1555    1.8237        90.5123            127             -72.75065    -116.00102    99.87      1.47E+3                  514.218       12342       34.0287   34.0367     7.97004            61         0.00  
4        2017-12-31    365.1129    2017-12-31T02:42:35Z    11        10.886      0.4479       0.4458         28.687294     28.69122        8.3026     8.1613    1.907         90.4949            109             -72.75066    -116.00102    99.87      1.48E+3                  516.811       12404       34.0288   34.0363     7.9714             62         0.00  
4        2017-12-31    365.1129    2017-12-31T02:42:35Z    12        11.877      0.4085       0.3911         28.654031     28.64408        8.2915     8.1569    1.8989        90.5203            94.4            -72.75066    -116.00102    99.87      1.48E+3                  519.382       12466       34.0281   34.0344     7.97957            64         0.00  
4        2017-12-31    365.113     2017-12-31T02:42:43Z    13        12.866      0.1857       0.1792         28.461972     28.46356        8.2904     8.1638    2.026         90.5585            82.3            -72.75066    -116.00102    99.87      1.48E+3                  522.022       12530       34.0219   34.0312     8.02627            62         0.00  
4        2017-12-31    365.113     2017-12-31T02:42:43Z    14        13.856      0.0486       0.0486         28.347393     28.35369        8.3016     8.1678    2.0913        90.6523            70.4            -72.75066    -116.00102    99.87      1.48E+3                  524.643       12592       34.0223   34.0305     8.05499            63         0.00  
4        2017-12-31    365.113     2017-12-31T02:42:43Z    15        14.845      -0.1351      -0.1351        28.193852     28.19886        8.3347     8.1978    2.4496        90.6337            60.6            -72.75066    -116.00102    99.87      1.47E+3                  527.266       12655       34.0225   34.0291     8.09376            63         0.00  
4        2017-12-31    365.1131    2017-12-31T02:42:52Z    16        15.836      -0.2745      -0.3527        28.074917     28.00257        8.2487     8.1621    2.4933        90.4792            53.8            -72.75066    -116.00102    99.87      1.48E+3                  529.86        12718       34.019    34.0097     8.12362            64         0.00  
4        2017-12-31    365.1131    2017-12-31T02:42:52Z    17        16.825      -0.8838      -0.9446        27.556776     27.51892        8.1477     8.0888    2.4769        90.6306            47.5            -72.75066    -116.00102    99.87      1.49E+3                  532.568       12783       34.0052   34.0226     8.25626            64         0.00  
4        2017-12-31    365.1131    2017-12-31T02:42:52Z    18        17.814      -1.0544      -1.0636        27.426365     27.42556        8.0983     8.035     3.2727        90.7447            42.4            -72.75066    -116.00102    99.87      1.51E+3                  535.235       12847       34.0201   34.0293     8.29293            65         0.00  
4        2017-12-31    365.1132    2017-12-31T02:43:00Z    19        18.804      -1.1672      -1.1705        27.334008     27.33656        7.976      7.9645    3.4771        90.7619            36.6            -72.75066    -116.00102    99.87      1.54E+3                  537.945       12912       34.021    34.0282     8.31787            64         0.00  
4        2017-12-31    365.1132    2017-12-31T02:43:00Z    20        19.793      -1.2995      -1.3017        27.230549     27.23533        7.941      7.8845    3.6668        90.9681            31.9            -72.75066    -116.00102    99.87      1.56E+3                  540.623       12976       34.0288   34.0379     8.34688            66         0.00  
4        2017-12-31    365.1132    2017-12-31T02:43:00Z    21        20.783      -1.311       -1.3144        27.22351      27.22728        7.9552     7.8667    3.5122        91.1605            27.8            -72.75066    -116.00102    99.87      1.58E+3                  543.374       13042       34.0317   34.0407     8.34929            65         0.00  
4        2017-12-31    365.1133    2017-12-31T02:43:09Z    22        21.773      -1.3177      -1.3196        27.21956      27.22486        7.963      7.8632    3.8453        91.4553            24.2            -72.75066    -116.00102    99.87      1.58E+3                  546.042       13106       34.0332   34.0427     8.3507             65         0.00  
4        2017-12-31    365.1133    2017-12-31T02:43:09Z    23        22.762      -1.3198      -1.3225        27.21962      27.22367        7.9708     7.865     3.6676        92.1199            20.9            -72.75066    -116.00101    99.87      1.58E+3                  548.816       13173       34.035    34.0437     8.35105            64         0.00  
4        2017-12-31    365.1133    2017-12-31T02:43:09Z    24        23.752      -1.3126      -1.3182        27.226773     27.22845        7.9698     7.8617    3.9114        92.369             18.2            -72.75066    -116.001      99.87      1.56E+3                  551.447       13236       34.0361   34.0448     8.34939            66         0.00  
4        2017-12-31    365.1133    2017-12-31T02:43:09Z    25        24.74       -1.3106      -1.3125        27.228962     27.23367        7.97       7.8678    3.9495        92.8846            15.8            -72.75066    -116.001      99.87      1.54E+3                  554.204       13302       34.0362   34.0448     8.34894            64         0.00  
4        2017-12-31    365.1134    2017-12-31T02:43:18Z    26        25.731      -1.3005      -1.3067        27.237906     27.23921        7.959      7.8546    4.0335        93.0962            13.7            -72.75066    -116.001      99.87      1.52E+3                  556.861       13366       34.0363   34.0452     8.34666            66         0.00  
4        2017-12-31    365.1134    2017-12-31T02:43:18Z    27        26.721      -1.3245      -1.3269        27.217612     27.22171        7.8804     7.8123    4.0249        93.4091            11.9            -72.75066    -116.001      99.87      1.49E+3                  559.595       13431       34.0351   34.0436     8.3521             64         0.00  
4        2017-12-31    365.1134    2017-12-31T02:43:18Z    28        27.711      -1.3798      -1.3823        27.173868     27.17782        7.8237     7.7633    4.0819        93.4667            10.3            -72.75066    -116.001      99.87      1.46E+3                  562.287       13496       34.0373   34.0456     8.36437            65         0.00  
4        2017-12-31    365.1135    2017-12-31T02:43:26Z    29        28.7        -1.413       -1.4167        27.147643     27.15065        7.7897     7.724     4.2404        93.1975            8.94            -72.75066    -116.001      99.87      1.43E+3                  564.995       13561       34.0384   34.0467     8.37176            65         0.00  
4        2017-12-31    365.1135    2017-12-31T02:43:26Z    30        29.689      -1.4341      -1.4385        27.130926     27.13348        7.7428     7.6818    4.23          93.5494            7.76            -72.75066    -116.001      99.87      1.39E+3                  567.676       13625       34.0387   34.0473     8.37648            64         0.00  
4        2017-12-31    365.1135    2017-12-31T02:43:26Z    31        30.679      -1.4833      -1.4876        27.091508     27.09414        7.6807     7.624     4.1201        93.5219            6.67            -72.75066    -116.001      99.87      1.35E+3                  570.369       13690       34.0398   34.0484     8.38749            65         0.00  
4        2017-12-31    365.1136    2017-12-31T02:43:35Z    32        31.667      -1.5111      -1.5155        27.070257     27.07266        7.641      7.5861    3.8921        93.618             5.75            -72.75066    -116.001      99.87      1.29E+3                  573.104       13755       34.0416   34.0499     8.39366            65         0.00  
4        2017-12-31    365.1136    2017-12-31T02:43:35Z    33        32.659      -1.5271      -1.531         27.05756      27.06041        7.6266     7.5527    3.6131        93.6738            4.96            -72.75066    -116.001      99.87      1.23E+3                  575.739       13819       34.0417   34.05       8.39727            64         0.00  
4        2017-12-31    365.1136    2017-12-31T02:43:35Z    34        33.648      -1.536       -1.54          27.05093      27.05355        7.6154     7.54      3.5965        93.9504            4.30            -72.75066    -116.001      99.87      1.17E+3                  578.518       13885       34.042    34.0503     8.39926            66         0.00  
4        2017-12-31    365.1137    2017-12-31T02:43:44Z    35        34.637      -1.5434      -1.5471        27.045596     27.04839        7.6046     7.5214    3.424         94.2118            3.77            -72.75066    -116.001      99.87      1.11E+3                  581.157       13949       34.0424   34.0506     8.4009             64         0.00  
4        2017-12-31    365.1137    2017-12-31T02:43:44Z    36        35.627      -1.5509      -1.5549        27.039927     27.04248        7.5808     7.5009    3.4368        94.4529            3.34            -72.75066    -116.001      99.87      1.07E+3                  583.9         14015       34.0426   34.0506     8.40259            65         0.00  
4        2017-12-31    365.1137    2017-12-31T02:43:44Z    37        36.617      -1.5591      -1.5627        27.033954     27.03672        7.5616     7.483     3.2437        94.5298            2.99            -72.75066    -116.001      99.87      1.04E+3                  586.534       14078       34.043    34.051      8.40441            65         0.00  
4        2017-12-31    365.1138    2017-12-31T02:43:52Z    38        37.605      -1.5685      -1.5722        27.026634     27.02926        7.5219     7.4521    3.304         94.7306            2.70            -72.75066    -116.001      99.87      1.02E+3                  589.305       14144       34.043    34.0509     8.40655            64         0.00  
4        2017-12-31    365.1138    2017-12-31T02:43:52Z    39        38.596      -1.5905      -1.5941        27.009025     27.01168        7.4203     7.3877    3.4216        94.8802            2.45            -72.75066    -116.001      99.87      1.02E+3                  591.918       14207       34.0432   34.0509     8.41152            64         0.00  
4        2017-12-31    365.1138    2017-12-31T02:43:52Z    40        39.585      -1.6266      -1.6306        26.980297     26.98285        7.338      7.3134    3.3078        94.9117            2.24            -72.75066    -116.001      99.87      1.02E+3                  594.675       14273       34.044    34.052      8.41966            67         0.00  
4        2017-12-31    365.1138    2017-12-31T02:43:52Z    41        40.574      -1.638       -1.6418        26.972111     26.97455        7.3333     7.2796    3.1933        94.8058            2.05            -72.75067    -116.001      99.87      1.02E+3                  597.356       14338       34.0451   34.0528     8.42218            63         0.00  
4        2017-12-31    365.1139    2017-12-31T02:44:01Z    42        41.565      -1.6405      -1.6439        26.970653     26.97338        7.3384     7.2695    3.2674        94.9749            1.87            -72.75068    -116.001      99.87      1.02E+3                  600.061       14402       34.0452   34.0529     8.42273            65         0.00  
4        2017-12-31    365.1139    2017-12-31T02:44:01Z    43        42.553      -1.6445      -1.6488        26.967916     26.96986        7.3038     7.2401    3.1511        94.97              1.72            -72.75068    -116.001      99.87      1.02E+3                  602.753       14467       34.0453   34.053      8.42362            65         0.00  
4        2017-12-31    365.1139    2017-12-31T02:44:01Z    44        43.544      -1.6655      -1.6695        26.95147      26.95369        7.2096     7.1861    3.1779        94.9459            1.57            -72.75068    -116.001      99.87      1.02E+3                  605.41        14531       34.0459   34.0537     8.42836            64         0.00  
4        2017-12-31    365.114     2017-12-31T02:44:10Z    45        44.532      -1.69        -1.6943        26.93266      26.93468        7.154      7.1141    3.2104        94.8402            1.45            -72.75068    -116.001      99.87      1.04E+3                  608.166       14597       34.0472   34.055      8.43386            66         0.00  
4        2017-12-31    365.114     2017-12-31T02:44:10Z    46        45.522      -1.698       -1.7011        26.926911     26.9297         7.1459     7.0882    3.1854        94.8453            1.33            -72.75068    -116.001      99.87      1.07E+3                  610.821       14661       34.0478   34.0552     8.43565            63         0.00  
4        2017-12-31    365.114     2017-12-31T02:44:10Z    47        46.511      -1.702       -1.7054        26.924322     26.92695        7.1446     7.0766    3.2806        94.8576            1.23            -72.75068    -116.001      99.87      1.11E+3                  613.536       14726       34.0482   34.0557     8.43654            66         0.00  
4        2017-12-31    365.1141    2017-12-31T02:44:18Z    48        47.502      -1.7031      -1.7065        26.924077     26.92643        7.0909     7.049     3.1908        94.7715            1.13            -72.75068    -116.001      99.87      1.14E+3                  616.243       14791       34.0484   34.0556     8.43677            64         0.00  
4        2017-12-31    365.1141    2017-12-31T02:44:18Z    49        48.49       -1.732       -1.7362        26.901666     26.90364        6.9868     6.9735    3.2372        94.7844            1.05            -72.75068    -116.001      99.87      1.19E+3                  618.96        14856       34.0498   34.0573     8.44328            66         0.00  
4        2017-12-31    365.1141    2017-12-31T02:44:18Z    50        49.481      -1.7465      -1.7501        26.891561     26.89382        6.9445     6.9149    2.9152        94.7861            0.966           -72.75068    -116.001      99.87      1.24E+3                  621.673       14921       34.0517   34.0589     8.44647            64         0.00  
4        2017-12-31    365.1142    2017-12-31T02:44:27Z    51        50.47       -1.7555      -1.7591        26.885468     26.88766        6.9085     6.8727    2.6286        94.913             0.892           -72.75068    -116.001      99.87      1.29E+3                  624.268       14983       34.0529   34.0601     8.44844            64         0.00  
4        2017-12-31    365.1142    2017-12-31T02:44:27Z    52        51.459      -1.7646      -1.7681        26.879536     26.88173        6.8693     6.8317    2.6426        95.2661            0.825           -72.75068    -116.00099    99.87      1.34E+3                  627.048       15050       34.0544   34.0615     8.45043            65         0.00  
4        2017-12-31    365.1142    2017-12-31T02:44:27Z    53        52.449      -1.7713      -1.7746        26.875618     26.87788        6.8523     6.7989    2.2585        95.2725            0.762           -72.75068    -116.00098    99.86      1.38E+3                  629.687       15113       34.0561   34.063      8.45187            65         0.00  
4        2017-12-31    365.1143    2017-12-31T02:44:36Z    54        53.438      -1.7749      -1.778         26.873711     26.87612        6.83       6.7782    1.8252        95.5527            0.707           -72.75068    -116.00098    99.87      1.41E+3                  632.407       15179       34.0569   34.0637     8.45264            64         0.00  
4        2017-12-31    365.1143    2017-12-31T02:44:36Z    55        54.427      -1.7768      -1.78          26.873039     26.87531        6.8326     6.7636    1.4918        95.9311            0.659           -72.75068    -116.00098    99.87      1.44E+3                  635.096       15243       34.0575   34.0644     8.45303            66         0.00  
4        2017-12-31    365.1143    2017-12-31T02:44:36Z    56        55.417      -1.7794      -1.7826        26.871961     26.87429        6.8028     6.738     1.5114        96.2206            0.614           -72.75068    -116.00098    99.87      1.47E+3                  637.836       15309       34.0584   34.0652     8.45358            65         0.00  
4        2017-12-31    365.1143    2017-12-31T02:44:36Z    57        56.407      -1.783       -1.7862        26.870362     26.87268        6.8002     6.7283    1.3886        96.4919            0.573           -72.75068    -116.00098    99.87      1.49E+3                  640.506       15373       34.0596   34.0665     8.45433            63         0.00  
4        2017-12-31    365.1144    2017-12-31T02:44:44Z    58        57.395      -1.7841      -1.7872        26.870256     26.87245        6.8018     6.7261    1.4895        96.5525            0.535           -72.75068    -116.00098    99.87      1.51E+3                  643.202       15438       34.06     34.0667     8.45454            65         0.00  
4        2017-12-31    365.1144    2017-12-31T02:44:44Z    59        58.386      -1.7849      -1.7882        26.870253     26.87243        6.7959     6.7189    1.2694        96.8024            0.503           -72.75068    -116.00098    99.87      1.54E+3                  645.822       15501       34.0603   34.0671     8.45471            65         0.00  
4        2017-12-31    365.1144    2017-12-31T02:44:44Z    60        59.375      -1.7865      -1.7897        26.870073     26.87224        6.7978     6.7176    1.3921        97.0734            0.472           -72.75068    -116.00098    99.86      1.56E+3                  648.622       15568       34.0612   34.068      8.45501            66         0.00  
4        2017-12-31    365.1145    2017-12-31T02:44:53Z    61        60.364      -1.7869      -1.7898        26.870429     26.87271        6.7918     6.7143    0.9826        97.2345            0.442           -72.75068    -116.00098    99.87      1.58E+3                  651.28        15632       34.0616   34.0682     8.4551             64         0.00  
4        2017-12-31    365.1145    2017-12-31T02:44:53Z    62        61.353      -1.7875      -1.7906        26.870624     26.87287        6.7814     6.7029    0.8743        97.4165            0.414           -72.75068    -116.00098    99.86      1.58E+3                  653.996       15697       34.062    34.0686     8.45521            65         0.00  
4        2017-12-31    365.1145    2017-12-31T02:44:53Z    63        62.343      -1.7879      -1.7909        26.870995     26.87316        6.7796     6.7001    0.7549        97.5642            0.388           -72.75068    -116.00098    99.87      1.58E+3                  656.687       15761       34.0623   34.0687     8.45528            64         0.00  
4        2017-12-31    365.1146    2017-12-31T02:45:01Z    64        63.332      -1.7882      -1.7911        26.871374     26.87355        6.7792     6.6926    0.7655        97.5804            0.363           -72.75068    -116.00098    99.87      1.57E+3                  659.378       15826       34.0625   34.0689     8.45534            65         0.00  
4        2017-12-31    365.1146    2017-12-31T02:45:01Z    65        64.322      -1.7883      -1.7912        26.871725     26.87392        6.7788     6.6888    0.7517        97.6647            0.342           -72.75068    -116.00098    99.87      1.57E+3                  662.057       15890       34.0625   34.0689     8.45537            64         0.00  
4        2017-12-31    365.1146    2017-12-31T02:45:01Z    66        65.311      -1.789       -1.7917        26.87192      26.8741         6.7762     6.691     0.776         97.6471            0.321           -72.75068    -116.00098    99.87      1.56E+3                  664.741       15955       34.0629   34.0691     8.45549            63         0.00  
4        2017-12-31    365.1147    2017-12-31T02:45:10Z    67        66.3        -1.7912      -1.794         26.87142      26.87365        6.7803     6.6902    0.7555        97.7452            0.302           -72.75068    -116.00098    99.87      1.56E+3                  667.273       16016       34.064    34.0704     8.45592            59         0.00  
4        2017-12-31    365.1147    2017-12-31T02:45:10Z    68        67.29       -1.7912      -1.7939        26.872542     26.87471        6.788      6.6963    0.6716        97.7957            0.285           -72.75068    -116.00098    99.87      1.56E+3                  669.572       16071       34.065    34.0712     8.45586            53         0.00  
4        2017-12-31    365.1147    2017-12-31T02:45:10Z    69        68.278      -1.7907      -1.7934        26.874148     26.87628        6.7633     6.6916    0.5668        97.9636            0.270           -72.75068    -116.00098    99.87      1.56E+3                  671.679       16121       34.066    34.0721     8.45569            45         0.00  
4        2017-12-31    365.1147    2017-12-31T02:45:10Z    70        69.269      -1.7905      -1.7932        26.875027     26.87713        6.7378     6.6722    0.5161        98.0178            0.256           -72.75068    -116.00098    99.87      1.57E+3                  673.367       16162       34.0664   34.0725     8.45562            39         0.00  
4        2017-12-31    365.1147    2017-12-31T02:45:10Z    71        70.257      -1.7908      -1.7935        26.875655     26.87774        6.7318     6.66      0.5606        98.0826            0.242           -72.75068    -116.00098    99.86      1.57E+3                  675.004       16201       34.067    34.073      8.45565            39         0.00  
4        2017-12-31    365.1148    2017-12-31T02:45:19Z    72        71.248      -1.7909      -1.7936        26.876686     26.87875        6.734      6.6527    0.5971        98.1405            0.230           -72.75068    -116.00098    99.87      1.58E+3                  676.563       16239       34.0679   34.0739     8.45562            36         0.00  
4        2017-12-31    365.1148    2017-12-31T02:45:19Z    73        72.237      -1.7896      -1.7923        26.878599     26.88072        6.7263     6.6531    0.5368        98.2023            0.218           -72.75068    -116.00098    99.87      1.59E+3                  678.036       16274       34.0684   34.0745     8.45529            35         0.00  
4        2017-12-31    365.1148    2017-12-31T02:45:19Z    74        73.225      -1.7895      -1.7922        26.879348     26.88151        6.7186     6.6469    0.4794        98.2396            0.207           -72.75068    -116.00098    99.86      1.60E+3                  679.534       16310       34.0688   34.0749     8.45526            36         0.00  
4        2017-12-31    365.1148    2017-12-31T02:45:19Z    75        74.214      -1.7918      -1.7943        26.878238     26.88037        6.7104     6.6418    0.4339        98.297             0.197           -72.75068    -116.00098    99.86      1.60E+3                  680.968       16344       34.0692   34.075      8.45576            33         0.00  
4        2017-12-31    365.1148    2017-12-31T02:45:19Z    76        75.209      -1.7926      -1.7953        26.87821      26.88027        6.703      6.6266    0.4371        98.3145            0.187           -72.75068    -116.00098    99.87      1.61E+3                  682.348       16377       34.0694   34.0754     8.45592            34         0.00  
4        2017-12-31    365.1148    2017-12-31T02:45:19Z    77        76.192      -1.7916      -1.7943        26.880523     26.88256        6.694      6.6284    0.3734        98.3618            0.177           -72.75068    -116.00098    99.87      1.62E+3                  683.771       16412       34.0708   34.0768     8.4556             34         0.00  
4        2017-12-31    365.1149    2017-12-31T02:45:27Z    78        77.183      -1.7914      -1.7939        26.881958     26.88406        6.6726     6.6124    0.3338        98.4018            0.168           -72.75068    -116.00098    99.87      1.63E+3                  685.14        16444       34.072    34.0778     8.45549            32         0.00  
4        2017-12-31    365.1149    2017-12-31T02:45:27Z    79        78.174      -1.7945      -1.797         26.880893     26.88301        6.6824     6.6075    0.3079        98.4307            0.160           -72.75068    -116.00098    99.87      1.63E+3                  686.461       16476       34.0735   34.0793     8.45612            32         0.00  
4        2017-12-31    365.1149    2017-12-31T02:45:27Z    80        79.162      -1.7955      -1.7981        26.881276     26.88323        6.6797     6.6067    0.3007        98.468             0.152           -72.75068    -116.00098    99.86      1.64E+3                  687.814       16509       34.0744   34.0802     8.45627            32         0.00  
4        2017-12-31    365.1149    2017-12-31T02:45:27Z    81        80.153      -1.7923      -1.7951        26.885443     26.8873         6.6703     6.5904    0.2681        98.5052            0.145           -72.75068    -116.00098    99.87      1.65E+3                  689.165       16541       34.076    34.0818     8.45546            32         0.00  
4        2017-12-31    365.1149    2017-12-31T02:45:27Z    82        81.14       -1.7934      -1.7957        26.885525     26.88761        6.6737     6.5939    0.2529        98.5011            0.138           -72.75068    -116.00098    99.87      1.66E+3                  690.467       16572       34.0767   34.0822     8.45566            31         0.00  
4        2017-12-31    365.1149    2017-12-31T02:45:27Z    83        82.13       -1.7936      -1.7961        26.886023     26.88801        6.6779     6.5996    0.2605        98.5329            0.131           -72.75068    -116.00098    99.87      1.66E+3                  691.746       16603       34.077    34.0826     8.45569            31         0.00  
4        2017-12-31    365.115     2017-12-31T02:45:36Z    84        83.122      -1.793       -1.7956        26.887296     26.88926        6.6749     6.5978    0.2323        98.5744            0.124           -72.75068    -116.00098    99.86      1.67E+3                  693.009       16633       34.0774   34.0831     8.45552            30         0.00  
4        2017-12-31    365.115     2017-12-31T02:45:36Z    85        84.107      -1.7925      -1.7952        26.888395     26.89027        6.6634     6.5912    0.2139        98.6095            0.118           -72.75068    -116.00098    99.87      1.68E+3                  694.283       16664       34.0778   34.0835     8.4554             31         0.00  
4        2017-12-31    365.115     2017-12-31T02:45:36Z    86        85.098      -1.7913      -1.7938        26.891075     26.89291        6.6679     6.5813    0.2179        98.6531            0.112           -72.75068    -116.00098    99.87      1.68E+3                  695.558       16694       34.0795   34.085      8.45501            30         0.00  
4        2017-12-31    365.115     2017-12-31T02:45:36Z    87        86.088      -1.79        -1.7927        26.893214     26.89514        6.6583     6.5795    0.206         98.6767            0.106           -72.75068    -116.00098    99.87      1.68E+3                  696.827       16725       34.0803   34.0861     8.45467            30         0.00  
4        2017-12-31    365.115     2017-12-31T02:45:36Z    88        87.078      -1.7892      -1.7916        26.895051     26.8971         6.6574     6.5744    0.1963        98.6863            0.101           -72.75068    -116.00098    99.86      1.69E+3                  698.074       16755       34.0813   34.087      8.45442            30         0.00  
4        2017-12-31    365.115     2017-12-31T02:45:36Z    89        88.065      -1.7886      -1.7911        26.896288     26.8983         6.6576     6.5783    0.1573        98.6595            0.0953          -72.75068    -116.00098    99.87      1.69E+3                  699.312       16784       34.0818   34.0875     8.45427            30         0.00  
4        2017-12-31    365.115     2017-12-31T02:45:36Z    90        89.055      -1.7882      -1.7907        26.897455     26.89936        6.6564     6.5743    0.1514        98.6641            0.0898          -72.75068    -116.00098    99.87      1.69E+3                  700.583       16815       34.0823   34.0878     8.45414            31         0.00  
4        2017-12-31    365.1151    2017-12-31T02:45:45Z    91        90.045      -1.7876      -1.7901        26.899165     26.90127        6.6468     6.568     0.1382        98.7566            0.0860          -72.75068    -116.00098    99.86      1.70E+3                  701.843       16845       34.0833   34.0891     8.45393            29         0.00  
4        2017-12-31    365.1151    2017-12-31T02:45:45Z    92        91.035      -1.7861      -1.7887        26.902265     26.90424        6.6419     6.5704    0.1465        98.7637            0.0816          -72.75068    -116.00098    99.87      1.70E+3                  703.06        16874       34.0853   34.091      8.45348            30         0.00  
4        2017-12-31    365.1151    2017-12-31T02:45:45Z    93        92.023      -1.7849      -1.7874        26.904299     26.90653        6.6398     6.5602    0.1078        98.7743            0.0774          -72.75068    -116.00098    99.86      1.70E+3                  704.282       16904       34.0861   34.0921     8.45316            29         0.00  
4        2017-12-31    365.1151    2017-12-31T02:45:45Z    94        93.012      -1.784       -1.7866        26.906115     26.90794        6.6338     6.5571    0.1075        98.7869            0.0734          -72.75068    -116.00098    99.86      1.70E+3                  705.493       16933       34.087    34.0925     8.4529             28         0.00  
4        2017-12-31    365.1151    2017-12-31T02:45:45Z    95        94.001      -1.7829      -1.7858        26.907858     26.9094         6.6251     6.5615    0.1075        98.8156            0.0695          -72.75068    -116.00098    99.86      1.70E+3                  706.657       16961       34.0875   34.093      8.45262            28         0.00  
4        2017-12-31    365.1151    2017-12-31T02:45:45Z    96        94.992      -1.7805      -1.7831        26.911052     26.91314        6.6201     6.5469    0.1075        98.8176            0.0656          -72.75068    -116.00098    99.86      1.70E+3                  707.83        16989       34.0886   34.0944     8.45201            29         0.00  
4        2017-12-31    365.1151    2017-12-31T02:45:45Z    97        95.98       -1.7757      -1.7783        26.917891     26.91983        6.6106     6.5352    0.1002        98.8173            0.0635          -72.75068    -116.00098    99.87      1.70E+3                  709.02        17017       34.092    34.0976     8.45071            28         0.00  
4        2017-12-31    365.1152    2017-12-31T02:45:53Z    98        96.969      -1.7763      -1.7786        26.918707     26.92066        6.604      6.5297    0.1012        98.8458            0.0587          -72.75068    -116.00098    99.86      1.70E+3                  710.183       17045       34.0931   34.0986     8.45077            28         0.00  
4        2017-12-31    365.1152    2017-12-31T02:45:53Z    99        97.959      -1.7772      -1.7797        26.918586     26.92053        6.6005     6.5282    0.0893        98.8459            0.0571          -72.75068    -116.00098    99.86      1.70E+3                  711.339       17073       34.0934   34.099      8.45096            28         0.00  
4        2017-12-31    365.1152    2017-12-31T02:45:53Z    100       98.947      -1.7781      -1.7804        26.91843      26.92048        6.5998     6.5239    0.0881        98.8478            0.0513          -72.75068    -116.00098    99.86      1.70E+3                  712.517       17101       34.0935   34.0991     8.45115            28         0.00  
4        2017-12-31    365.1152    2017-12-31T02:45:53Z    101       99.939      -1.7782      -1.7807        26.919367     26.92144        6.585      6.5147    0.1039        98.8287            0.0499          -72.75068    -116.00098    99.86      1.70E+3                  713.69        17130       34.0944   34.1001     8.45113            28         0.00  
4        2017-12-31    365.1152    2017-12-31T02:45:53Z    102       100.924     -1.7753      -1.7782        26.924582     26.92614        6.5796     6.5058    0.1075        98.8517            0.0471          -72.75068    -116.00098    99.86      1.70E+3                  714.873       17158       34.0976   34.1031     8.45026            29         0.00  
4        2017-12-31    365.1152    2017-12-31T02:45:53Z    103       101.92      -1.7689      -1.771         26.931897     26.93442        6.5784     6.5031    0.0966        98.8829            0.0431          -72.75068    -116.00098    99.87      1.70E+3                  716.054       17186       34.0998   34.1058     8.44867            28         0.00  
4        2017-12-31    365.1152    2017-12-31T02:45:53Z    104       102.905     -1.7653      -1.7677        26.936153     26.9381         6.5634     6.4954    0.0655        98.8935            0.0419          -72.75068    -116.00098    99.87      1.71E+3                  717.213       17214       34.101    34.1065     8.44779            28         0.00  
4        2017-12-31    365.1152    2017-12-31T02:45:53Z    105       103.895     -1.7659      -1.7683        26.936528     26.93854        6.5598     6.487     0.0521        98.8605            0.0382          -72.75068    -116.00098    99.86      1.71E+3                  718.4         17243       34.1015   34.1071     8.44788            29         0.00  
4        2017-12-31    365.1153    2017-12-31T02:46:02Z    106       104.882     -1.7663      -1.7686        26.936978     26.93896        6.5559     6.4843    0.0781        98.8564            0.0358          -72.75068    -116.00098    99.87      1.70E+3                  719.622       17272       34.102    34.1074     8.44795            29         0.00  
4        2017-12-31    365.1153    2017-12-31T02:46:02Z    107       105.872     -1.7662      -1.7686        26.937805     26.93977        6.5542     6.4855    0.0782        98.8868            0.0343          -72.75068    -116.00098    99.86      1.70E+3                  720.808       17300       34.1025   34.1079     8.44791            28         0.00  
4        2017-12-31    365.1153    2017-12-31T02:46:02Z    108       106.863     -1.7657      -1.7681        26.939367     26.94122        6.5623     6.477     0.0689        98.8926            0.0325          -72.75068    -116.00098    99.86      1.71E+3                  721.959       17328       34.1034   34.1087     8.44773            28         0.00  
4        2017-12-31    365.1153    2017-12-31T02:46:02Z    109       107.852     -1.7644      -1.7669        26.941182     26.94307        6.5558     6.4766    0.0552        98.9211            0.0286          -72.75068    -116.00098    99.87      1.71E+3                  723.139       17356       34.1038   34.1093     8.44741            28         0.00  
4        2017-12-31    365.1153    2017-12-31T02:46:02Z    110       108.84      -1.7623      -1.7647        26.944067     26.94591        6.5517     6.4788    0.0636        98.919             0.0269          -72.75068    -116.00098    99.87      1.70E+3                  724.348       17385       34.1047   34.1101     8.44687            29         0.00  
4        2017-12-31    365.1153    2017-12-31T02:46:02Z    111       109.829     -1.7595      -1.7621        26.947275     26.9491         6.5407     6.4663    0.0635        98.9013            0.0266          -72.75068    -116.00098    99.86      1.70E+3                  725.519       17413       34.1054   34.1109     8.4462             28         0.00  
4        2017-12-31    365.1153    2017-12-31T02:46:02Z    112       110.82      -1.7562      -1.7588        26.951475     26.95329        6.5436     6.4755    0.0635        98.9088            0.0247          -72.75068    -116.00098    99.87      1.70E+3                  726.656       17441       34.1067   34.1123     8.44535            27         0.00  
4        2017-12-31    365.1154    2017-12-31T02:46:11Z    113       111.807     -1.7504      -1.753         26.959633     26.96136        6.5382     6.4687    0.0635        98.9153            0.0213          -72.75068    -116.00098    99.86      1.70E+3                  727.827       17469       34.1108   34.1162     8.44378            29         0.00  
4        2017-12-31    365.1154    2017-12-31T02:46:11Z    114       112.797     -1.7506      -1.7529        26.960806     26.96279        6.5388     6.4599    0.0725        98.9069            0.0210          -72.75068    -116.00097    99.86      1.70E+3                  729.028       17498       34.1121   34.1175     8.44377            28         0.00  
4        2017-12-31    365.1154    2017-12-31T02:46:11Z    115       113.787     -1.7519      -1.7543        26.960787     26.96274        6.5356     6.4565    0.0904        98.8916            0.0193          -72.75068    -116.00096    99.87      1.70E+3                  730.198       17526       34.1129   34.1184     8.44402            28         0.00  
4        2017-12-31    365.1154    2017-12-31T02:46:11Z    116       114.775     -1.7563      -1.758         26.958537     26.96068        6.5283     6.4543    0.1053        98.8832            0.0190          -72.75068    -116.00096    99.86      1.70E+3                  731.35        17553       34.1142   34.1192     8.44493            28         0.00  
4        2017-12-31    365.1154    2017-12-31T02:46:11Z    117       115.766     -1.7604      -1.7626        26.956114     26.95807        6.5302     6.4558    0.1075        98.8986            0.0168          -72.75068    -116.00096    99.86      1.70E+3                  732.527       17582       34.1149   34.1201     8.44583            29         0.00  
4        2017-12-31    365.1154    2017-12-31T02:46:11Z    118       116.754     -1.7643      -1.7665        26.953903     26.95584        6.5274     6.4422    0.109         98.8796            0.0133          -72.75068    -116.00096    99.87      1.70E+3                  733.738       17611       34.1157   34.1209     8.44667            29         0.00  
4        2017-12-31    365.1154    2017-12-31T02:46:11Z    119       117.741     -1.7741      -1.7756        26.947863     26.95023        6.5291     6.4489    0.1199        98.8743            0.0131          -72.75068    -116.00096    99.86      1.70E+3                  734.915       17639       34.1179   34.1229     8.44877            27         0.00  
4        2017-12-31    365.1155    2017-12-31T02:46:19Z    120       118.731     -1.7782      -1.7785        26.945691     26.94886        6.5264     6.45      0.1052        98.8943            0.0119          -72.75068    -116.00096    99.87      1.69E+3                  736.054       17666       34.1189   34.1237     8.44965            27         0.00  
4        2017-12-31    365.1155    2017-12-31T02:46:19Z    121       119.723     -1.7838      -1.7842        26.942027     26.94532        6.5286     6.4426    0.0888        98.8859            0.0114          -72.75068    -116.00096    99.87      1.69E+3                  737.208       17694       34.1197   34.1247     8.45089            29         0.00  
4        2017-12-31    365.1155    2017-12-31T02:46:19Z    122       120.709     -1.7876      -1.7897        26.939889     26.94187        6.5314     6.4492    0.0832        98.8915            0.0111          -72.75068    -116.00096    99.86      1.69E+3                  738.428       17723       34.1204   34.1256     8.45171            29         0.00  
4        2017-12-31    365.1155    2017-12-31T02:46:19Z    123       121.7       -1.7966      -1.7986        26.934167     26.93613        6.5384     6.4518    0.0928        98.8783            0.00924         -72.75068    -116.00096    99.87      1.69E+3                  739.608       17752       34.1221   34.1271     8.45366            28         0.00  
4        2017-12-31    365.1155    2017-12-31T02:46:19Z    124       122.689     -1.8034      -1.8056        26.930642     26.93255        6.535      6.4446    0.0864        98.9017            0.00711         -72.75068    -116.00096    99.87      1.68E+3                  740.735       17779       34.1244   34.1296     8.45508            27         0.00  
4        2017-12-31    365.1155    2017-12-31T02:46:19Z    125       123.678     -1.8049      -1.807         26.93031      26.9322         6.5301     6.4514    0.0633        98.907             0.00451         -72.75068    -116.00096    99.86      1.68E+3                  741.904       17807       34.125    34.1301     8.45537            29         0.00  
4        2017-12-31    365.1155    2017-12-31T02:46:19Z    126       124.667     -1.8069      -1.8088        26.929441     26.9315         6.5355     6.4501    0.0666        98.9071            0.00388         -72.75068    -116.00096    99.86      1.68E+3                  743.12        17836       34.1254   34.1305     8.4558             29         0.00  
4        2017-12-31    365.1155    2017-12-31T02:46:19Z    127       125.655     -1.8082      -1.8105        26.92915      26.93099        6.5404     6.4486    0.0985        98.9159            0.00388         -72.75068    -116.00096    99.86      1.68E+3                  744.299       17864       34.1259   34.1311     8.45607            27         0.00  
4        2017-12-31    365.1156    2017-12-31T02:46:28Z    128       126.646     -1.8083      -1.8106        26.92952      26.93142        6.5409     6.445     0.086         98.9156            0.00388         -72.75068    -116.00096    99.86      1.68E+3                  745.443       17892       34.1259   34.1312     8.45611            28         0.00  
4        2017-12-31    365.1156    2017-12-31T02:46:28Z    129       127.635     -1.8093      -1.8114        26.92945      26.93131        6.5399     6.4427    0.0893        98.9181            0.00388         -72.75068    -116.00096    99.87      1.67E+3                  746.627       17920       34.1263   34.1313     8.4563             29         0.00  
4        2017-12-31    365.1156    2017-12-31T02:46:28Z    130       128.621     -1.8097      -1.8119        26.929588     26.93144        6.5329     6.4471    0.0798        98.9327            0.00281         -72.75068    -116.00096    99.86      1.67E+3                  747.807       17948       34.1264   34.1315     8.4564             28         0.00  
4        2017-12-31    365.1156    2017-12-31T02:46:28Z    131       129.614     -1.8118      -1.8138        26.928697     26.93072        6.5316     6.4452    0.0782        98.9356            0.000140        -72.75068    -116.00096    99.86      1.67E+3                  748.959       17976       34.1269   34.132      8.45684            28         0.00  
4        2017-12-31    365.1156    2017-12-31T02:46:28Z    132       130.601     -1.8155      -1.8175        26.926821     26.92872        6.5269     6.4433    0.0636        98.9489            0.0000695       -72.75068    -116.00096    99.87      1.67E+3                  750.141       18004       34.1279   34.1328     8.45763            28         0.00  
4        2017-12-31    365.1156    2017-12-31T02:46:28Z    133       131.59      -1.8177      -1.8196        26.925698     26.92775        6.5236     6.4446    0.0615        98.9503            0.0000669       -72.75068    -116.00096    99.86      1.67E+3                  751.347       18033       34.1282   34.1332     8.45811            29         0.00  
4        2017-12-31    365.1156    2017-12-31T02:46:28Z    134       132.579     -1.8221      -1.8239        26.923045     26.92508        6.5291     6.4511    0.0488        98.9524            0.0000565       -72.75068    -116.00096    99.86      1.66E+3                  752.507       18061       34.129    34.1339     8.45908            27         0.00  
4        2017-12-31    365.1157    2017-12-31T02:46:36Z    135       133.569     -1.8264      -1.8285        26.92083      26.92265        6.5332     6.4507    0.0489        98.9576            0.0000495       -72.75068    -116.00096    99.87      1.66E+3                  753.657       18089       34.1301   34.1352     8.45998            28         0.00  
4        2017-12-31    365.1157    2017-12-31T02:46:36Z    136       134.558     -1.8273      -1.8294        26.920866     26.92273        6.5351     6.4517    0.0489        98.9587            0.0000237       -72.75068    -116.00096    99.87      1.66E+3                  754.842       18117       34.1306   34.1356     8.46017            29         0.00  
4        2017-12-31    365.1157    2017-12-31T02:46:36Z    137       135.547     -1.8274      -1.8296        26.921213     26.92312        6.5379     6.4482    0.0489        98.9476            1.06E-8         -72.75069    -116.00096    99.86      1.66E+3                  756.041       18146       34.1306   34.1357     8.46019            29         0.00  
4        2017-12-31    365.1157    2017-12-31T02:46:36Z    138       136.536     -1.8276      -1.8297        26.921655     26.92349        6.5376     6.4458    0.0489        98.9763            1.00E-12        -72.7507     -116.00096    99.87      1.66E+3                  757.213       18174       34.1308   34.1358     8.46022            27         0.00  
4        2017-12-31    365.1157    2017-12-31T02:46:36Z    139       137.525     -1.8277      -1.8299        26.922049     26.92391        6.5341     6.4401    0.041         98.9412            1.00E-12        -72.7507     -116.00096    99.86      1.66E+3                  758.359       18202       34.1308   34.136      8.46025            28         0.00  
4        2017-12-31    365.1157    2017-12-31T02:46:36Z    140       138.514     -1.8278      -1.8299        26.922553     26.9244         6.5307     6.442     0.0251        98.9837            1.00E-12        -72.7507     -116.00096    99.86      1.65E+3                  759.545       18230       34.131    34.136      8.46026            29         0.00  
4        2017-12-31    365.1157    2017-12-31T02:46:36Z    141       139.502     -1.8279      -1.83          26.923024     26.92484        6.5281     6.4395    0.0292        98.9947            1.00E-12        -72.7507     -116.00096    99.86      1.65E+3                  760.762       18259       34.1311   34.1361     8.46027            29         0.00  
4        2017-12-31    365.1158    2017-12-31T02:46:45Z    142       140.492     -1.8282      -1.8304        26.923295     26.92514        6.5308     6.4377    0.0227        98.9958            1.00E-12        -72.7507     -116.00096    99.86      1.65E+3                  761.937       18287       34.1313   34.1363     8.46034            28         0.00  
4        2017-12-31    365.1158    2017-12-31T02:46:45Z    143       141.482     -1.8283      -1.8304        26.923786     26.92562        6.5248     6.4459    0.0196        99.0077            1.00E-12        -72.7507     -116.00096    99.86      1.65E+3                  763.065       18315       34.1313   34.1364     8.46034            27         0.00  
4        2017-12-31    365.1158    2017-12-31T02:46:45Z    144       142.471     -1.8282      -1.8303        26.92438      26.92617        6.529      6.4462    0.0196        99.0091            1.00E-12        -72.7507     -116.00096    99.86      1.64E+3                  764.218       18342       34.1314   34.1364     8.46032            28         0.00  
4        2017-12-31    365.1158    2017-12-31T02:46:45Z    145       143.46      -1.8278      -1.83          26.925304     26.92712        6.5217     6.4389    0.0196        99.0047            1.00E-12        -72.7507     -116.00094    99.87      1.64E+3                  765.42        18371       34.1317   34.1368     8.46022            29         0.00  
4        2017-12-31    365.1158    2017-12-31T02:46:45Z    146       144.448     -1.8277      -1.8297        26.926257     26.92807        6.5195     6.4387    0.03          99.0063            1.00E-12        -72.7507     -116.00094    99.86      1.64E+3                  766.597       18399       34.1322   34.1371     8.46016            28         0.00  
4        2017-12-31    365.1158    2017-12-31T02:46:45Z    147       145.438     -1.8278      -1.8299        26.926809     26.92862        6.5173     6.4305    0.0198        99.0072            1.00E-12        -72.7507     -116.00094    99.86      1.63E+3                  767.754       18427       34.1324   34.1374     8.46016            28         0.00  
4        2017-12-31    365.1158    2017-12-31T02:46:45Z    148       146.426     -1.8266      -1.8289        26.928494     26.93026        6.5172     6.4321    0.0196        99.0063            1.00E-12        -72.7507     -116.00094    99.86      1.63E+3                  768.931       18455       34.1328   34.1379     8.45987            28         0.00  
4        2017-12-31    365.1158    2017-12-31T02:46:45Z    149       147.415     -1.8272      -1.8293        26.929104     26.93097        6.5135     6.4311    0.0145        99.0094            1.00E-12        -72.7507     -116.00094    99.87      1.63E+3                  770.138       18484       34.1338   34.1387     8.45996            29         0.00  
4        2017-12-31    365.1159    2017-12-31T02:46:54Z    150       148.404     -1.8278      -1.83          26.929374     26.93123        6.5174     6.4361    0.0159        99.0225            1.00E-12        -72.7507     -116.00094    99.86      1.62E+3                  771.317       18513       34.1342   34.1393     8.46007            28         0.00  
4        2017-12-31    365.1159    2017-12-31T02:46:54Z    151       149.393     -1.8278      -1.8299        26.929851     26.93172        6.519      6.4372    0.0223        99.0287            1.00E-12        -72.7507     -116.00094    99.86      1.62E+3                  772.459       18540       34.1342   34.1392     8.46007            27         0.00  
4        2017-12-31    365.1159    2017-12-31T02:46:54Z    152       150.382     -1.8276      -1.8298        26.93065      26.93233        6.5067     6.4307    0.0043        99.0195            1.00E-12        -72.7507     -116.00094    99.87      1.61E+3                  773.629       18568       34.1344   34.1392     8.46               29         0.00  
4        2017-12-31    365.1159    2017-12-31T02:46:54Z    153       151.372     -1.8255      -1.828         26.933379     26.93487        6.5065     6.4315    0.0128        99.0273            1.00E-12        -72.7507     -116.00094    99.86      1.61E+3                  774.822       18597       34.1352   34.1401     8.45948            28         0.00  
4        2017-12-31    365.1159    2017-12-31T02:46:54Z    154       152.36      -1.8225      -1.8245        26.937146     26.93907        6.5032     6.4236    0.0197        99.0292            1.00E-12        -72.7507     -116.00094    99.86      1.60E+3                  775.991       18625       34.1363   34.1413     8.45872            28         0.00  
4        2017-12-31    365.1159    2017-12-31T02:46:54Z    155       153.348     -1.8196      -1.8215        26.940565     26.94242        6.5029     6.4245    0.0096        99.032             1.00E-12        -72.7507     -116.00094    99.87      1.60E+3                  777.147       18653       34.1371   34.142      8.458              28         0.00  
4        2017-12-31    365.1159    2017-12-31T02:46:54Z    156       154.339     -1.817       -1.8196        26.943467     26.94475        6.4997     6.4147    0.0044        99.0339            1.00E-12        -72.7507     -116.00094    99.86      1.60E+3                  778.314       18681       34.1376   34.1424     8.45739            28         0.00  
4        2017-12-31    365.116     2017-12-31T02:47:02Z    157       155.329     -1.815       -1.8171        26.945748     26.94765        6.5067     6.421     0.0049        99.0361            1.00E-12        -72.7507     -116.00094    99.86      1.59E+3                  779.508       18709       34.1378   34.1428     8.45692            29         0.00  
4        2017-12-31    365.116     2017-12-31T02:47:02Z    158       156.315     -1.8095      -1.8119        26.951542     26.95304        6.513      6.4277    0.0182        99.0231            1.00E-12        -72.7507     -116.00094    99.86      1.59E+3                  780.717       18738       34.1389   34.1438     8.45559            29         0.00  
4        2017-12-31    365.116     2017-12-31T02:47:02Z    159       157.304     -1.8049      -1.8071        26.956595     26.95817        6.5034     6.42      0.0338        99.0234            1.00E-12        -72.7507     -116.00094    99.86      1.58E+3                  781.902       18767       34.14     34.1448     8.45447            28         0.00  
4        2017-12-31    365.116     2017-12-31T02:47:02Z    160       158.296     -1.8004      -1.8027        26.961769     26.96322        6.5048     6.4231    0.0342        99.0158            1.00E-12        -72.7507     -116.00094    99.86      1.58E+3                  783.085       18795       34.1414   34.1462     8.45335            29         0.00  
4        2017-12-31    365.116     2017-12-31T02:47:02Z    161       159.283     -1.7904      -1.7929        26.973026     26.97445        6.4912     6.4147    0.0378        99.0186            1.00E-12        -72.7507     -116.00094    99.87      1.58E+3                  784.296       18824       34.145    34.1499     8.45087            29         0.00  
4        2017-12-31    365.116     2017-12-31T02:47:02Z    162       160.272     -1.7858      -1.7878        26.978591     26.98026        6.495      6.4062    0.0579        99.0139            1.00E-12        -72.7507     -116.00094    99.86      1.57E+3                  785.488       18853       34.1468   34.1514     8.4497             28         0.00  
4        2017-12-31    365.116     2017-12-31T02:47:02Z    163       161.259     -1.7851      -1.7871        26.979704     26.98148        6.4919     6.4093    0.0783        98.9995            1.00E-12        -72.7507     -116.00094    99.87      1.57E+3                  786.652       18881       34.147    34.1517     8.44954            28         0.00  
4        2017-12-31    365.1161    2017-12-31T02:47:11Z    164       162.251     -1.7847      -1.7866        26.980696     26.98246        6.4947     6.4143    0.085         98.974             1.00E-12        -72.7507     -116.00094    99.86      1.57E+3                  787.852       18909       34.1472   34.1519     8.44943            30         0.00  
4        2017-12-31    365.1161    2017-12-31T02:47:11Z    165       163.237     -1.7845      -1.7865        26.981414     26.98314        6.4979     6.4195    0.0928        98.9843            1.00E-12        -72.7507     -116.00094    99.87      1.56E+3                  789.06        18938       34.1474   34.152      8.44938            28         0.00  
4        2017-12-31    365.1161    2017-12-31T02:47:11Z    166       164.229     -1.7845      -1.7864        26.981873     26.98358        6.4955     6.4055    0.1018        98.9766            1.00E-12        -72.7507     -116.00094    99.86      1.56E+3                  790.235       18967       34.1474   34.1519     8.44938            28         0.00  
4        2017-12-31    365.1161    2017-12-31T02:47:11Z    167       165.217     -1.7845      -1.7864        26.982429     26.98408        6.4912     6.4063    0.1075        98.9505            1.00E-12        -72.7507     -116.00094    99.86      1.56E+3                  791.409       18995       34.1475   34.152      8.44936            29         0.00  
4        2017-12-31    365.1161    2017-12-31T02:47:11Z    168       166.207     -1.7844      -1.7863        26.982925     26.98467        6.4994     6.409     0.096         98.9194            1.00E-12        -72.7507     -116.00094    99.87      1.55E+3                  792.61        19024       34.1475   34.1521     8.44935            29         0.00  
4        2017-12-31    365.1161    2017-12-31T02:47:11Z    169       167.194     -1.7843      -1.7862        26.983583     26.98528        6.5013     6.4103    0.0928        98.9289            1.00E-12        -72.7507     -116.00094    99.86      1.55E+3                  793.81        19052       34.1476   34.1521     8.44931            28         0.00  
4        2017-12-31    365.1161    2017-12-31T02:47:11Z    170       168.182     -1.7836      -1.7855        26.984709     26.98648        6.5022     6.3993    0.1201        98.9135            1.00E-12        -72.7507     -116.00094    99.86      1.55E+3                  795           19081       34.1477   34.1524     8.44914            29         0.00  
4        2017-12-31    365.1161    2017-12-31T02:47:11Z    171       169.173     -1.7828      -1.7847        26.986077     26.98779        6.5019     6.4131    0.109         98.9213            1.00E-12        -72.7507     -116.00094    99.86      1.54E+3                  796.189       19110       34.1481   34.1526     8.44895            28         0.00  
4        2017-12-31    365.1162    2017-12-31T02:47:20Z    172       170.162     -1.7824      -1.7843        26.986934     26.9886         6.5021     6.4057    0.1222        98.9125            1.00E-12        -72.7507     -116.00092    99.86      1.54E+3                  797.387       19138       34.1482   34.1527     8.44885            29         0.00  
4        2017-12-31    365.1162    2017-12-31T02:47:20Z    173       171.149     -1.7826      -1.7845        26.987497     26.98914        6.5014     6.4061    0.1226        98.8926            1.00E-12        -72.7507     -116.00092    99.87      1.54E+3                  798.568       19167       34.1485   34.153      8.44887            28         0.00  
4        2017-12-31    365.1162    2017-12-31T02:47:20Z    174       172.139     -1.7827      -1.7845        26.98788      26.98957        6.4853     6.4066    0.117         98.9062            1.00E-12        -72.7507     -116.00092    99.86      1.54E+3                  799.759       19195       34.1486   34.153      8.4489             29         0.00  
4        2017-12-31    365.1162    2017-12-31T02:47:20Z    175       173.129     -1.7828      -1.7847        26.988395     26.99004        6.4838     6.3949    0.1196        98.9089            1.00E-12        -72.7507     -116.00092    99.86      1.54E+3                  800.946       19224       34.1488   34.1533     8.4489             28         0.00  
4        2017-12-31    365.1162    2017-12-31T02:47:20Z    176       174.117     -1.783       -1.7849        26.988711     26.99046        6.4866     6.3935    0.1367        98.8988            1.00E-12        -72.7507     -116.00092    99.87      1.54E+3                  802.121       19252       34.1488   34.1535     8.44894            29         0.00  
4        2017-12-31    365.1162    2017-12-31T02:47:20Z    177       175.104     -1.7831      -1.785         26.989215     26.99087        6.4852     6.4       0.1284        98.8984            1.00E-12        -72.7507     -116.00092    99.86      1.53E+3                  803.312       19280       34.149    34.1535     8.44896            28         0.00  
4        2017-12-31    365.1162    2017-12-31T02:47:20Z    178       176.095     -1.7831      -1.7849        26.989662     26.99135        6.4863     6.4043    0.1317        98.9089            1.00E-12        -72.7507     -116.00092    99.86      1.53E+3                  804.504       19309       34.149    34.1534     8.44896            29         0.00  
4        2017-12-31    365.1163    2017-12-31T02:47:28Z    179       177.084     -1.7831      -1.785         26.990081     26.99173        6.4821     6.4023    0.1262        98.8933            1.00E-12        -72.7507     -116.00092    99.86      1.53E+3                  805.7         19338       34.149    34.1534     8.44896            29         0.00  
4        2017-12-31    365.1163    2017-12-31T02:47:28Z    180       178.073     -1.7832      -1.785         26.990495     26.9922         6.4833     6.3963    0.1221        98.8946            1.00E-12        -72.7507     -116.00092    99.86      1.53E+3                  806.891       19366       34.1489   34.1535     8.44897            28         0.00  
4        2017-12-31    365.1163    2017-12-31T02:47:28Z    181       179.061     -1.7833      -1.7852        26.990945     26.99259        6.4884     6.3998    0.1477        98.8898            1.00E-12        -72.7507     -116.00092    99.87      1.53E+3                  808.063       19395       34.1491   34.1535     8.449              28         0.00  
4        2017-12-31    365.1163    2017-12-31T02:47:28Z    182       180.049     -1.7837      -1.7855        26.991277     26.9929         6.4858     6.3963    0.1237        98.9088            1.00E-12        -72.7507     -116.00092    99.86      1.53E+3                  809.245       19423       34.1493   34.1537     8.44906            29         0.00  
4        2017-12-31    365.1163    2017-12-31T02:47:28Z    183       181.04      -1.7838      -1.7855        26.991634     26.99337        6.4828     6.3917    0.1221        98.8925            1.00E-12        -72.7507     -116.00092    99.86      1.53E+3                  810.445       19452       34.1494   34.1538     8.4491             29         0.00  
4        2017-12-31    365.1163    2017-12-31T02:47:28Z    184       182.026     -1.784       -1.7857        26.992126     26.99382        6.4856     6.3905    0.119         98.9012            1.00E-12        -72.7507     -116.00092    99.87      1.53E+3                  811.637       19480       34.1496   34.154      8.44912            28         0.00  
4        2017-12-31    365.1163    2017-12-31T02:47:28Z    185       183.017     -1.7839      -1.7857        26.992613     26.99422        6.4876     6.3945    0.1038        98.9043            1.00E-12        -72.7507     -116.00092    99.86      1.53E+3                  812.814       19509       34.1496   34.1539     8.44911            28         0.00  
4        2017-12-31    365.1164    2017-12-31T02:47:37Z    186       184.007     -1.784       -1.7858        26.993069     26.99468        6.4785     6.3911    0.0984        98.9089            1.00E-12        -72.7507     -116.00092    99.86      1.53E+3                  813.996       19537       34.1497   34.154      8.44912            29         0.00  
4        2017-12-31    365.1164    2017-12-31T02:47:37Z    187       184.992     -1.784       -1.7858        26.993507     26.99517        6.4791     6.3907    0.1135        98.9089            1.00E-12        -72.7507     -116.00092    99.86      1.53E+3                  815.205       19566       34.1496   34.1541     8.44912            29         0.00  
4        2017-12-31    365.1164    2017-12-31T02:47:37Z    188       185.984     -1.7843      -1.7859        26.993985     26.99566        6.4683     6.3877    0.1222        98.9089            1.00E-12        -72.7507     -116.00092    99.86      1.53E+3                  816.406       19595       34.15     34.1543     8.44916            28         0.00  
4        2017-12-31    365.1164    2017-12-31T02:47:37Z    189       186.968     -1.7845      -1.7863        26.994382     26.99605        6.4721     6.3873    0.1226        98.9089            1.00E-12        -72.7507     -116.00092    99.86      1.53E+3                  817.579       19623       34.1502   34.1546     8.4492             28         0.00  
4        2017-12-31    365.1164    2017-12-31T02:47:37Z    190       187.965     -1.7847      -1.7865        26.994756     26.9964         6.4624     6.3853    0.1221        98.9089            1.00E-12        -72.75071    -116.00092    99.86      1.53E+3                  818.756       19651       34.1504   34.1547     8.44925            29         0.00  
4        2017-12-31    365.1164    2017-12-31T02:47:37Z    191       188.949     -1.7852      -1.7869        26.995097     26.99677        6.4655     6.3851    0.1333        98.9089            1.00E-12        -72.75072    -116.00092    99.86      1.53E+3                  819.961       19680       34.1507   34.155      8.44933            29         0.00  
4        2017-12-31    365.1164    2017-12-31T02:47:37Z    192       189.939     -1.7856      -1.7874        26.995389     26.99709        6.472      6.3836    0.1245        98.921             1.00E-12        -72.75072    -116.00092    99.86      1.53E+3                  821.181       19709       34.1509   34.1554     8.4494             29         0.00  
4        2017-12-31    365.1165    2017-12-31T02:47:46Z    193       190.926     -1.7856      -1.7873        26.995795     26.99754        6.4596     6.378     0.1358        98.9242            1.00E-12        -72.75072    -116.00092    99.86      1.52E+3                  822.357       19738       34.1509   34.1553     8.44942            28         0.00  
4        2017-12-31    365.1165    2017-12-31T02:47:46Z    194       191.916     -1.7857      -1.7874        26.996297     26.99803        6.4632     6.3815    0.1074        98.9054            1.00E-12        -72.75072    -116.00092    99.86      1.52E+3                  823.503       19765       34.1511   34.1555     8.44942            28         0.00  
4        2017-12-31    365.1165    2017-12-31T02:47:46Z    195       192.906     -1.7864      -1.7882        26.996289     26.99797        6.4603     6.3773    0.0931        98.9233            1.00E-12        -72.75072    -116.00092    99.86      1.52E+3                  824.684       19793       34.1512   34.1556     8.44957            29         0.00  
4        2017-12-31    365.1165    2017-12-31T02:47:46Z    196       193.892     -1.7868      -1.7886        26.996561     26.99818        6.4579     6.3758    0.0928        98.9409            1.00E-12        -72.75072    -116.00091    99.86      1.52E+3                  825.9         19823       34.1515   34.1557     8.44966            29         0.00  
4        2017-12-31    365.1165    2017-12-31T02:47:46Z    197       194.881     -1.7869      -1.7886        26.997113     26.99873        6.4513     6.376     0.1009        98.9514            1.00E-12        -72.75072    -116.0009     99.87      1.52E+3                  827.084       19851       34.1517   34.156      8.44967            27         0.00  
4        2017-12-31    365.1165    2017-12-31T02:47:46Z    198       195.871     -1.787       -1.7887        26.997575     26.99928        6.4526     6.3704    0.1267        98.9347            1.00E-12        -72.75072    -116.0009     99.86      1.52E+3                  828.223       19878       34.1518   34.1561     8.44968            28         0.00  
4        2017-12-31    365.1165    2017-12-31T02:47:46Z    199       196.861     -1.787       -1.7887        26.998139     26.99971        6.4574     6.3691    0.1307        98.9522            1.00E-12        -72.75072    -116.0009     99.86      1.52E+3                  829.416       19907       34.152    34.1561     8.44967            29         0.00  
4        2017-12-31    365.1165    2017-12-31T02:47:46Z    200       197.848     -1.7868      -1.7886        26.998664     27.00029        6.4544     6.3686    0.122         98.9606            1.00E-12        -72.75072    -116.0009     99.87      1.52E+3                  830.658       19937       34.1519   34.1561     8.44963            30         0.00  
4        2017-12-31    365.1166    2017-12-31T02:47:54Z    201       198.835     -1.7871      -1.7888        26.999127     27.00084        6.4489     6.3741    0.1132        98.9643            1.00E-12        -72.75072    -116.0009     99.86      1.51E+3                  831.862       19966       34.1521   34.1565     8.44967            28         0.00  
4        2017-12-31    365.1166    2017-12-31T02:47:54Z    202       199.828     -1.7874      -1.789         26.999717     27.00129        6.4552     6.3703    0.0977        98.9813            1.00E-12        -72.75072    -116.0009     99.86      1.51E+3                  833.009       19993       34.1527   34.1567     8.44971            28         0.00  
4        2017-12-31    365.1166    2017-12-31T02:47:54Z    203       200.815     -1.7876      -1.7893        27.000072     27.00169        6.4458     6.3632    0.0819        98.9748            1.00E-12        -72.75072    -116.0009     99.86      1.51E+3                  834.182       20021       34.1528   34.157      8.44975            28         0.00  
4        2017-12-31    365.1166    2017-12-31T02:47:54Z    204       201.804     -1.7877      -1.7894        27.00051      27.00217        6.4501     6.3665    0.0658        98.9874            1.00E-12        -72.75072    -116.0009     99.86      1.51E+3                  835.407       20051       34.1529   34.1572     8.44977            30         0.00  
4        2017-12-31    365.1166    2017-12-31T02:47:54Z    205       202.791     -1.7879      -1.7896        27.000959     27.00262        6.4458     6.359     0.0912        98.9872            1.00E-12        -72.75072    -116.0009     99.86      1.50E+3                  836.601       20079       34.1531   34.1574     8.4498             28         0.00  
4        2017-12-31    365.1166    2017-12-31T02:47:54Z    206       203.781     -1.7881      -1.7898        27.001394     27.00307        6.4429     6.3623    0.0644        98.9994            1.00E-12        -72.75072    -116.0009     99.86      1.50E+3                  837.755       20107       34.1534   34.1576     8.44984            28         0.00  
4        2017-12-31    365.1166    2017-12-31T02:47:54Z    207       204.77      -1.7885      -1.7901        27.001864     27.00347        6.4348     6.3631    0.0635        98.9874            1.00E-12        -72.75072    -116.0009     99.86      1.50E+3                  838.92        20135       34.1538   34.1579     8.44989            28         0.00  
4        2017-12-31    365.1167    2017-12-31T02:48:03Z    208       205.759     -1.7885      -1.7901        27.002398     27.00396        6.4432     6.3539    0.0605        99.0036            1.00E-12        -72.75072    -116.0009     99.86      1.50E+3                  840.108       20164       34.1539   34.158      8.44989            29         0.00  
4        2017-12-31    365.1167    2017-12-31T02:48:03Z    209       206.745     -1.7885      -1.7902        27.00286      27.00451        6.448      6.3548    0.0489        99.0024            1.00E-12        -72.75072    -116.0009     99.86      1.49E+3                  841.316       20193       34.1539   34.1582     8.44989            28         0.00  
4        2017-12-31    365.1167    2017-12-31T02:48:03Z    210       207.737     -1.7885      -1.7903        27.003268     27.00491        6.4415     6.3539    0.059         99.017             1.00E-12        -72.75072    -116.0009     99.86      1.49E+3                  842.497       20221       34.1539   34.1582     8.4499             28         0.00  
4        2017-12-31    365.1167    2017-12-31T02:48:03Z    211       208.725     -1.7885      -1.7902        27.003879     27.00556        6.4378     6.3573    0.0726        99.0302            1.00E-12        -72.75072    -116.0009     99.86      1.49E+3                  843.657       20249       34.1542   34.1584     8.44989            28         0.00  
4        2017-12-31    365.1167    2017-12-31T02:48:03Z    212       209.715     -1.7887      -1.7903        27.004356     27.00603        6.4425     6.3543    0.0493        99.0185            1.00E-12        -72.75072    -116.0009     99.86      1.49E+3                  844.835       20277       34.1544   34.1586     8.44991            29         0.00  
4        2017-12-31    365.1167    2017-12-31T02:48:03Z    213       210.701     -1.7889      -1.7905        27.00484      27.0065         6.4409     6.3526    0.0343        99.0406            1.00E-12        -72.75072    -116.0009     99.86      1.48E+3                  846.035       20306       34.1546   34.1588     8.44994            29         0.00  
4        2017-12-31    365.1167    2017-12-31T02:48:03Z    214       211.692     -1.7891      -1.7906        27.005283     27.00697        6.4361     6.3509    0.0442        99.0425            1.00E-12        -72.75072    -116.0009     99.87      1.48E+3                  847.231       20335       34.1548   34.1589     8.44997            28         0.00  
4        2017-12-31    365.1168    2017-12-31T02:48:12Z    215       212.68      -1.7891      -1.7907        27.005745     27.00739        6.4405     6.3463    0.0276        99.0425            1.00E-12        -72.75072    -116.0009     99.86      1.48E+3                  848.423       20363       34.1549   34.159      8.44997            29         0.00  
4        2017-12-31    365.1168    2017-12-31T02:48:12Z    216       213.669     -1.7892      -1.7909        27.006176     27.00776        6.4417     6.3464    0.0312        99.0425            1.00E-12        -72.75072    -116.0009     99.87      1.48E+3                  849.624       20392       34.1549   34.159      8.44999            29         0.00  
4        2017-12-31    365.1168    2017-12-31T02:48:12Z    217       214.655     -1.7894      -1.791         27.006626     27.00834        6.4367     6.3448    0.0479        99.0425            1.00E-12        -72.75072    -116.0009     99.86      1.48E+3                  850.799       20420       34.1552   34.1594     8.45003            27         0.00  
4        2017-12-31    365.1168    2017-12-31T02:48:12Z    218       215.645     -1.7896      -1.7913        27.007005     27.00859        6.4288     6.3459    0.0351        99.0425            1.00E-12        -72.75072    -116.0009     99.86      1.48E+3                  851.953       20448       34.1553   34.1595     8.45007            28         0.00  
4        2017-12-31    365.1168    2017-12-31T02:48:12Z    219       216.634     -1.7895      -1.7912        27.007552     27.00912        6.4381     6.3367    0.0327        99.0425            1.00E-12        -72.75072    -116.0009     99.87      1.48E+3                  853.129       20476       34.1553   34.1594     8.45004            29         0.00  
4        2017-12-31    365.1168    2017-12-31T02:48:12Z    220       217.623     -1.7896      -1.7913        27.007898     27.00952        6.4353     6.3416    0.0196        99.0453            1.00E-12        -72.75072    -116.0009     99.86      1.48E+3                  854.332       20505       34.1553   34.1595     8.45007            29         0.00  
4        2017-12-31    365.1168    2017-12-31T02:48:12Z    221       218.611     -1.791       -1.7925        27.007434     27.0091         6.4306     6.3418    0.0227        99.0501            1.00E-12        -72.75074    -116.0009     99.86      1.48E+3                  855.524       20534       34.1555   34.1596     8.45036            28         0.00  
4        2017-12-31    365.1168    2017-12-31T02:48:12Z    222       219.6       -1.7916      -1.7933        27.00761      27.00919        6.4298     6.3428    0.0341        99.0462            1.00E-12        -72.75074    -116.0009     99.87      1.48E+3                  856.703       20562       34.1559   34.16       8.45048            29         0.00  
4        2017-12-31    365.1169    2017-12-31T02:48:20Z    223       220.589     -1.7918      -1.7934        27.008014     27.00965        6.4251     6.3347    0.0222        99.0558            1.00E-12        -72.75074    -116.0009     99.86      1.47E+3                  857.895       20590       34.156    34.1601     8.45051            28         0.00  
4        2017-12-31    365.1169    2017-12-31T02:48:20Z    224       221.576     -1.7918      -1.7934        27.008521     27.0101         6.4271     6.3399    0.012         99.0618            1.00E-12        -72.75074    -116.0009     99.87      1.47E+3                  859.083       20619       34.1561   34.1602     8.45051            29         0.00  
4        2017-12-31    365.1169    2017-12-31T02:48:20Z    225       222.568     -1.7918      -1.7934        27.008887     27.01051        6.4221     6.3439    0.0112        99.0644            1.00E-12        -72.75074    -116.0009     99.86      1.47E+3                  860.262       20647       34.156    34.1601     8.45051            28         0.00  
4        2017-12-31    365.1169    2017-12-31T02:48:20Z    226       223.554     -1.7917      -1.7933        27.009449     27.01108        6.419      6.3347    0.0049        99.0775            1.00E-12        -72.75074    -116.00088    99.86      1.47E+3                  861.454       20676       34.1561   34.1602     8.4505             29         0.00  
4        2017-12-31    365.1169    2017-12-31T02:48:20Z    227       224.545     -1.792       -1.7935        27.010003     27.01163        6.4177     6.333     0.0154        99.0941            1.00E-12        -72.75074    -116.00088    99.86      1.47E+3                  862.646       20704       34.1565   34.1606     8.45053            28         0.00  
4        2017-12-31    365.1169    2017-12-31T02:48:20Z    228       225.533     -1.7922      -1.7937        27.010397     27.012          6.4253     6.3368    0.0196        99.0825            1.00E-12        -72.75074    -116.00088    99.86      1.47E+3                  863.824       20733       34.1567   34.1606     8.45057            28         0.00  
4        2017-12-31    365.1169    2017-12-31T02:48:20Z    229       226.521     -1.7922      -1.7936        27.01087      27.01249        6.4253     6.3378    0.0069        99.0794            1.00E-12        -72.75074    -116.00088    99.86      1.46E+3                  865.005       20761       34.1567   34.1606     8.45057            29         0.00  
4        2017-12-31    365.117     2017-12-31T02:48:29Z    230       227.51      -1.7921      -1.7937        27.011356     27.0129         6.4232     6.3323    0.0186        99.0896            1.00E-12        -72.75074    -116.00088    99.86      1.46E+3                  866.214       20790       34.1566   34.1606     8.45055            29         0.00  
4        2017-12-31    365.117     2017-12-31T02:48:29Z    231       228.497     -1.7922      -1.7937        27.011799     27.01334        6.4278     6.333     0.0196        99.0886            1.00E-12        -72.75074    -116.00088    99.86      1.46E+3                  867.411       20819       34.1567   34.1606     8.45057            29         0.00  
4        2017-12-31    365.117     2017-12-31T02:48:29Z    232       229.484     -1.7921      -1.7936        27.012361     27.01398        6.4264     6.3326    0.0165        99.0817            1.00E-12        -72.75074    -116.00088    99.86      1.46E+3                  868.591       20847       34.1568   34.1607     8.45054            28         0.00  
4        2017-12-31    365.117     2017-12-31T02:48:29Z    233       230.478     -1.7922      -1.7937        27.012788     27.01438        6.4251     6.3336    0.0003        99.0874            1.00E-12        -72.75074    -116.00088    99.86      1.46E+3                  869.768       20875       34.1568   34.1608     8.45056            28         0.00  
4        2017-12-31    365.117     2017-12-31T02:48:29Z    234       231.462     -1.7924      -1.794         27.013047     27.01463        6.422      6.3267    -0.0103       99.1009            1.00E-12        -72.75074    -116.00088    99.86      1.46E+3                  870.951       20904       34.1568   34.1609     8.45061            28         0.00  
4        2017-12-31    365.117     2017-12-31T02:48:29Z    235       232.454     -1.7928      -1.7942        27.013393     27.01499        6.4168     6.3324    -0.0044       99.0891            1.00E-12        -72.75074    -116.00088    99.86      1.45E+3                  872.122       20932       34.1571   34.1609     8.45068            28         0.00  
4        2017-12-31    365.117     2017-12-31T02:48:29Z    236       233.44      -1.7931      -1.7945        27.01367      27.01529        6.419      6.3337    -0.0021       99.096             1.00E-12        -72.75074    -116.00088    99.86      1.45E+3                  873.295       20960       34.1572   34.1611     8.45074            29         0.00  
4        2017-12-31    365.1171    2017-12-31T02:48:37Z    237       234.431     -1.7932      -1.7948        27.013995     27.01559        6.4137     6.3279    -0.0097       99.1017            1.00E-12        -72.75074    -116.00088    99.86      1.45E+3                  874.479       20988       34.1572   34.1612     8.45078            28         0.00  
4        2017-12-31    365.1171    2017-12-31T02:48:37Z    238       235.417     -1.7935      -1.795         27.014254     27.01584        6.4187     6.3281    -0.0011       99.1015            1.00E-12        -72.75074    -116.00088    99.87      1.45E+3                  875.673       21017       34.1573   34.1612     8.45084            29         0.00  
4        2017-12-31    365.1171    2017-12-31T02:48:37Z    239       236.407     -1.7938      -1.7953        27.014582     27.01621        6.4093     6.3272    -0.0056       99.1113            1.00E-12        -72.75074    -116.00088    99.86      1.45E+3                  876.863       21046       34.1574   34.1614     8.4509             28         0.00  
4        2017-12-31    365.1171    2017-12-31T02:48:37Z    240       237.395     -1.7941      -1.7956        27.014754     27.01634        6.4168     6.3223    -0.0097       99.1112            1.00E-12        -72.75074    -116.00088    99.86      1.45E+3                  878.034       21074       34.1574   34.1613     8.45097            28         0.00  
4        2017-12-31    365.1171    2017-12-31T02:48:37Z    241       238.383     -1.7954      -1.7969        27.014354     27.01596        6.4121     6.3243    -0.0097       99.1172            1.00E-12        -72.75074    -116.00088    99.86      1.45E+3                  879.206       21102       34.1576   34.1616     8.45124            29         0.00  
4        2017-12-31    365.1171    2017-12-31T02:48:37Z    242       239.373     -1.796       -1.7975        27.014573     27.01613        6.4066     6.3248    -0.0097       99.1163            1.00E-12        -72.75074    -116.00088    99.86      1.45E+3                  880.413       21131       34.158    34.1619     8.45136            29         0.00  
4        2017-12-31    365.1171    2017-12-31T02:48:37Z    243       240.361     -1.7958      -1.7973        27.015227     27.01683        6.4093     6.3253    -0.0117       99.1199            1.00E-12        -72.75074    -116.00088    99.86      1.45E+3                  881.625       21160       34.158    34.162      8.45131            29         0.00  
4        2017-12-31    365.1172    2017-12-31T02:48:46Z    244       241.349     -1.7957      -1.7972        27.015824     27.01745        6.4092     6.3189    -0.0228       99.1056            1.00E-12        -72.75074    -116.00088    99.86      1.45E+3                  882.806       21188       34.1581   34.1621     8.45128            28         0.00  
4        2017-12-31    365.1172    2017-12-31T02:48:46Z    245       242.338     -1.7962      -1.7976        27.016029     27.01764        6.4099     6.3245    -0.0134       99.1227            1.00E-12        -72.75074    -116.00088    99.86      1.45E+3                  883.982       21217       34.1584   34.1622     8.45138            28         0.00  
4        2017-12-31    365.1172    2017-12-31T02:48:46Z    246       243.327     -1.7968      -1.7983        27.016032     27.01763        6.409      6.3172    -0.025        99.1125            1.00E-12        -72.75074    -116.00088    99.87      1.45E+3                  885.175       21245       34.1584   34.1624     8.45151            29         0.00  
4        2017-12-31    365.1172    2017-12-31T02:48:46Z    247       244.315     -1.7973      -1.7987        27.016117     27.0177         6.407      6.3189    -0.0183       99.1162            1.00E-12        -72.75074    -116.00088    99.86      1.45E+3                  886.372       21274       34.1585   34.1624     8.45162            29         0.00  
4        2017-12-31    365.1172    2017-12-31T02:48:46Z    248       245.304     -1.7977      -1.7992        27.016339     27.01789        6.4084     6.318     -0.0171       99.1227            1.00E-12        -72.75074    -116.00088    99.86      1.45E+3                  887.554       21302       34.1586   34.1625     8.45171            28         0.00  
4        2017-12-31    365.1172    2017-12-31T02:48:46Z    249       246.293     -1.7978      -1.7993        27.016803     27.01836        6.4012     6.3243    -0.0253       99.1227            1.00E-12        -72.75074    -116.00088    99.86      1.45E+3                  888.714       21330       34.1588   34.1627     8.45172            28         0.00  
4        2017-12-31    365.1172    2017-12-31T02:48:46Z    250       247.282     -1.7977      -1.7992        27.01746      27.019          6.3972     6.3166    -0.0244       99.1227            1.00E-12        -72.75074    -116.00088    99.86      1.45E+3                  889.908       21359       34.1589   34.1628     8.45169            29         0.00  
4        2017-12-31    365.1172    2017-12-31T02:48:46Z    251       248.268     -1.7979      -1.7994        27.01792      27.01946        6.4031     6.3127    -0.0354       99.1238            1.00E-12        -72.75074    -116.00088    99.86      1.45E+3                  891.118       21388       34.1592   34.163      8.45172            29         0.00  
4        2017-12-31    365.1173    2017-12-31T02:48:55Z    252       249.257     -1.7981      -1.7994        27.01845      27.02006        6.4014     6.3144    -0.0293       99.1305            1.00E-12        -72.75074    -116.00088    99.86      1.45E+3                  892.278       21416       34.1595   34.1633     8.45174            27         0.00  
4        2017-12-31    365.1173    2017-12-31T02:48:55Z    253       250.247     -1.7988      -1.8001        27.01841      27.01999        6.4065     6.3179    -0.0368       99.1296            1.00E-12        -72.75074    -116.00088    99.86      1.45E+3                  893.415       21443       34.1596   34.1634     8.4519             27         0.00  
4        2017-12-31    365.1173    2017-12-31T02:48:55Z    254       251.236     -1.7992      -1.8005        27.018479     27.02009        6.4064     6.305     -0.039        99.1245            1.00E-12        -72.75074    -116.00088    99.87      1.45E+3                  894.611       21472       34.1595   34.1633     8.45199            30         0.00  
4        2017-12-31    365.1173    2017-12-31T02:48:55Z    255       252.221     -1.7995      -1.8009        27.018612     27.02016        6.3938     6.3117    -0.026        99.1347            1.00E-12        -72.75074    -116.00088    99.86      1.45E+3                  895.838       21501       34.1595   34.1633     8.45208            29         0.00  
4        2017-12-31    365.1173    2017-12-31T02:48:55Z    256       253.212     -1.7996      -1.8012        27.019055     27.0206         6.394      6.3082    -0.0244       99.1427            1.00E-12        -72.75074    -116.00088    99.86      1.46E+3                  897.02        21529       34.1596   34.1635     8.4521             28         0.00  
4        2017-12-31    365.1173    2017-12-31T02:48:55Z    257       254.201     -1.7997      -1.8012        27.019469     27.02106        6.3929     6.3068    -0.0244       99.1333            1.00E-12        -72.75074    -116.00088    99.86      1.46E+3                  898.174       21557       34.1597   34.1635     8.45211            28         0.00  
4        2017-12-31    365.1173    2017-12-31T02:48:55Z    258       255.191     -1.7998      -1.8012        27.019903     27.02148        6.4014     6.3102    -0.0244       99.131             1.00E-12        -72.75074    -116.00088    99.86      1.46E+3                  899.363       21586       34.1597   34.1635     8.45212            29         0.00  
4        2017-12-31    365.1174    2017-12-31T02:49:03Z    259       256.175     -1.7997      -1.8011        27.020476     27.02202        6.3986     6.3067    -0.0391       99.1384            1.00E-12        -72.75074    -116.00088    99.86      1.46E+3                  900.591       21615       34.1598   34.1635     8.4521             29         0.00  
4        2017-12-31    365.1174    2017-12-31T02:49:03Z    260       257.165     -1.7995      -1.8009        27.021143     27.02273        6.3922     6.3072    -0.0332       99.1399            1.00E-12        -72.75074    -116.00088    99.86      1.46E+3                  901.781       21644       34.1599   34.1637     8.45205            28         0.00  
4        2017-12-31    365.1174    2017-12-31T02:49:03Z    261       258.156     -1.7992      -1.8005        27.022085     27.02364        6.3912     6.3046    -0.025        99.1418            1.00E-12        -72.75074    -116.00088    99.86      1.46E+3                  902.933       21671       34.1602   34.1638     8.45196            28         0.00  
4        2017-12-31    365.1174    2017-12-31T02:49:03Z    262       259.142     -1.7986      -1.8001        27.023108     27.02463        6.3943     6.3092    -0.0254       99.1475            1.00E-12        -72.75074    -116.00088    99.87      1.46E+3                  904.122       21700       34.1603   34.1641     8.45182            29         0.00  
4        2017-12-31    365.1174    2017-12-31T02:49:03Z    263       260.131     -1.798       -1.7995        27.024095     27.02564        6.3908     6.3087    -0.0254       99.1091            1.00E-12        -72.75074    -116.00088    99.86      1.47E+3                  905.326       21729       34.1604   34.1641     8.45168            29         0.00  
4        2017-12-31    365.1174    2017-12-31T02:49:03Z    264       261.121     -1.7985      -1.7997        27.024305     27.02588        6.3944     6.3039    -0.0265       99.1452            1.00E-12        -72.75074    -116.00088    99.86      1.47E+3                  906.507       21757       34.1605   34.1642     8.45177            28         0.00  
4        2017-12-31    365.1174    2017-12-31T02:49:03Z    265       262.108     -1.7987      -1.8           27.024551     27.02613        6.398      6.306     -0.0494       99.1445            1.00E-12        -72.75074    -116.00088    99.86      1.47E+3                  907.666       21785       34.1605   34.1642     8.45183            27         0.00  
4        2017-12-31    365.1175    2017-12-31T02:49:12Z    266       263.096     -1.7993      -1.8008        27.024467     27.02604        6.3983     6.3039    -0.0406       99.1512            1.00E-12        -72.75074    -116.00088    99.86      1.47E+3                  908.835       21813       34.1605   34.1644     8.45197            29         0.00  
4        2017-12-31    365.1175    2017-12-31T02:49:12Z    267       264.086     -1.7995      -1.8009        27.024841     27.02635        6.3967     6.2968    -0.039        98.9739            1.00E-12        -72.75074    -116.00088    99.86      1.47E+3                  910.02        21841       34.1606   34.1643     8.45201            28         0.00  
4        2017-12-31    365.1175    2017-12-31T02:49:12Z    268       265.074     -1.7997      -1.8012        27.025055     27.02659        6.3894     6.2983    -0.039        99.0335            1.00E-12        -72.75074    -116.00088    99.86      1.47E+3                  911.212       21870       34.1605   34.1643     8.45206            29         0.00  
4        2017-12-31    365.1175    2017-12-31T02:49:12Z    269       266.06      -1.8         -1.8014        27.025403     27.0269         6.3944     6.3016    -0.042        99.1478            1.00E-12        -72.75074    -116.00088    99.86      1.47E+3                  912.41        21899       34.1607   34.1644     8.45211            29         0.00  
4        2017-12-31    365.1175    2017-12-31T02:49:12Z    270       267.052     -1.8001      -1.8014        27.025805     27.02733        6.396      6.3027    -0.0499       99.1494            1.00E-12        -72.75074    -116.00088    99.87      1.47E+3                  913.582       21927       34.1607   34.1644     8.45213            27         0.00  
4        2017-12-31    365.1175    2017-12-31T02:49:12Z    271       268.038     -1.8         -1.8015        27.026284     27.02782        6.394      6.2985    -0.039        99.1494            1.00E-12        -72.75074    -116.00088    99.86      1.47E+3                  914.751       21955       34.1607   34.1645     8.45212            29         0.00  
4        2017-12-31    365.1175    2017-12-31T02:49:12Z    272       269.029     -1.8002      -1.8016        27.026735     27.02822        6.387      6.2957    -0.039        99.1494            1.00E-12        -72.75074    -116.00088    99.86      1.47E+3                  915.947       21984       34.1608   34.1645     8.45214            29         0.00  
4        2017-12-31    365.1175    2017-12-31T02:49:12Z    273       270.015     -1.8001      -1.8015        27.027258     27.02879        6.3859     6.2979    -0.039        99.1494            1.00E-12        -72.75074    -116.00088    99.87      1.47E+3                  917.151       22013       34.1608   34.1645     8.45212            29         0.00  
4        2017-12-31    365.1176    2017-12-31T02:49:21Z    274       271.004     -1.8         -1.8014        27.027862     27.02938        6.3833     6.2956    -0.039        99.1494            1.00E-12        -72.75074    -116.00088    99.86      1.47E+3                  918.345       22041       34.1609   34.1646     8.45209            28         0.00  
4        2017-12-31    365.1176    2017-12-31T02:49:21Z    275       271.992     -1.7997      -1.8011        27.028619     27.03007        6.3825     6.2938    -0.039        99.1494            1.00E-12        -72.75074    -116.00088    99.86      1.47E+3                  919.523       22070       34.1611   34.1647     8.45203            28         0.00  
4        2017-12-31    365.1176    2017-12-31T02:49:21Z    276       272.98      -1.7998      -1.8011        27.029135     27.03065        6.3796     6.29      -0.039        99.1476            1.00E-12        -72.75074    -116.00088    99.86      1.47E+3                  920.708       22098       34.1612   34.1648     8.45203            29         0.00  
4        2017-12-31    365.1176    2017-12-31T02:49:21Z    277       273.97      -1.7998      -1.8011        27.029568     27.03106        6.3845     6.2974    -0.039        99.1456            1.00E-12        -72.75074    -116.00088    99.86      1.47E+3                  921.887       22126       34.1612   34.1648     8.45203            28         0.00  
4        2017-12-31    365.1176    2017-12-31T02:49:21Z    278       274.957     -1.7999      -1.8012        27.029923     27.03148        6.3885     6.2911    -0.039        99.1532            1.00E-12        -72.75074    -116.00088    99.86      1.47E+3                  923.06        22154       34.1612   34.1649     8.45207            28         0.00  
4        2017-12-31    365.1176    2017-12-31T02:49:21Z    279       275.943     -1.7997      -1.8011        27.030706     27.03217        6.3926     6.2938    -0.0536       99.1604            1.00E-12        -72.75074    -116.00086    99.86      1.47E+3                  924.244       22183       34.1614   34.1651     8.45199            29         0.00  
4        2017-12-31    365.1176    2017-12-31T02:49:21Z    280       276.939     -1.7981      -1.7996        27.032576     27.03402        6.3899     6.2939    -0.0412       99.1509            1.00E-12        -72.75074    -116.00086    99.86      1.47E+3                  925.429       22211       34.1615   34.1653     8.45162            28         0.00  
4        2017-12-31    365.1177    2017-12-31T02:49:29Z    281       277.923     -1.7985      -1.7999        27.032674     27.03419        6.3788     6.2999    -0.0547       99.1494            1.00E-12        -72.75074    -116.00086    99.86      1.47E+3                  926.623       22240       34.1616   34.1652     8.45173            29         0.00  
4        2017-12-31    365.1177    2017-12-31T02:49:29Z    282       278.912     -1.7993      -1.8006        27.032483     27.03396        6.3814     6.2943    -0.0463       99.1494            1.00E-12        -72.75074    -116.00086    99.86      1.47E+3                  927.822       22269       34.1616   34.1651     8.4519             28         0.00  
4        2017-12-31    365.1177    2017-12-31T02:49:29Z    283       279.898     -1.7989      -1.8003        27.033352     27.03479        6.3918     6.2923    -0.0304       99.1494            1.00E-12        -72.75074    -116.00086    99.86      1.47E+3                  928.995       22297       34.1616   34.1652     8.4518             28         0.00  
4        2017-12-31    365.1177    2017-12-31T02:49:29Z    284       280.89      -1.7979      -1.7993        27.034695     27.03617        6.4013     6.2991    -0.0391       99.1494            1.00E-12        -72.75074    -116.00086    99.86      1.47E+3                  930.157       22325       34.1618   34.1654     8.45157            28         0.00  
4        2017-12-31    365.1177    2017-12-31T02:49:29Z    285       281.874     -1.7972      -1.7983        27.035695     27.03746        6.4022     6.2992    -0.039        99.1494            1.00E-12        -72.75074    -116.00086    99.86      1.47E+3                  931.346       22353       34.1617   34.1655     8.45141            29         0.00  
4        2017-12-31    365.1177    2017-12-31T02:49:29Z    286       282.867     -1.7965      -1.7978        27.036799     27.03833        6.3961     6.3055    -0.039        99.1494            1.00E-12        -72.75074    -116.00086    99.86      1.47E+3                  932.548       22382       34.1618   34.1655     8.45125            29         0.00  
4        2017-12-31    365.1177    2017-12-31T02:49:29Z    287       283.852     -1.7965      -1.7978        27.037281     27.03881        6.3874     6.2974    -0.039        99.1566            1.00E-12        -72.75074    -116.00086    99.86      1.47E+3                  933.734       22411       34.1618   34.1654     8.45124            28         0.00  
4        2017-12-31    365.1178    2017-12-31T02:49:38Z    288       284.841     -1.7966      -1.798         27.037547     27.03909        6.3888     6.2997    -0.0291       99.1503            1.00E-12        -72.75074    -116.00086    99.86      1.47E+3                  934.901       22439       34.1617   34.1654     8.45127            28         0.00  
4        2017-12-31    365.1178    2017-12-31T02:49:38Z    289       285.829     -1.7969      -1.7983        27.037827     27.03935        6.3935     6.3063    -0.036        99.1512            1.00E-12        -72.75074    -116.00086    99.86      1.48E+3                  936.084       22467       34.1618   34.1655     8.45134            29         0.00  
4        2017-12-31    365.1178    2017-12-31T02:49:38Z    290       286.818     -1.7969      -1.7983        27.038375     27.03987        6.3923     6.2974    -0.039        99.1503            1.00E-12        -72.75074    -116.00086    99.86      1.48E+3                  937.276       22496       34.162    34.1656     8.45133            28         0.00  
4        2017-12-31    365.1178    2017-12-31T02:49:38Z    291       287.806     -1.7967      -1.7981        27.038968     27.04053        6.3936     6.3005    -0.039        99.1494            1.00E-12        -72.75074    -116.00086    99.87      1.48E+3                  938.45        22524       34.1619   34.1656     8.45129            28         0.00  
4        2017-12-31    365.1178    2017-12-31T02:49:38Z    292       288.795     -1.7962      -1.7976        27.039969     27.04137        6.3842     6.3029    -0.0385       99.1494            1.00E-12        -72.75074    -116.00086    99.86      1.48E+3                  939.624       22552       34.1621   34.1657     8.45116            29         0.00  
4        2017-12-31    365.1178    2017-12-31T02:49:38Z    293       289.784     -1.7959      -1.7972        27.040766     27.04223        6.3815     6.2926    -0.027        99.1494            1.00E-12        -72.75074    -116.00086    99.86      1.48E+3                  940.809       22580       34.1622   34.1658     8.45108            28         0.00  
4        2017-12-31    365.1178    2017-12-31T02:49:38Z    294       290.77      -1.796       -1.7973        27.04114      27.04268        6.375      6.293     -0.039        99.1543            1.00E-12        -72.75074    -116.00086    99.86      1.48E+3                  941.997       22609       34.1623   34.1659     8.45111            29         0.00  
4        2017-12-31    365.1178    2017-12-31T02:49:38Z    295       291.759     -1.7963      -1.7976        27.041457     27.04295        6.3839     6.2907    -0.039        99.1551            1.00E-12        -72.75074    -116.00086    99.86      1.48E+3                  943.176       22637       34.1623   34.166      8.45116            28         0.00  
4        2017-12-31    365.1179    2017-12-31T02:49:47Z    296       292.749     -1.7964      -1.7977        27.041894     27.04342        6.3835     6.2912    -0.039        99.1637            1.00E-12        -72.75074    -116.00086    99.86      1.48E+3                  944.353       22665       34.1625   34.1661     8.45118            28         0.00  
4        2017-12-31    365.1179    2017-12-31T02:49:47Z    297       293.735     -1.7965      -1.7978        27.042338     27.04377        6.3773     6.289     -0.039        99.1577            1.00E-12        -72.75074    -116.00086    99.86      1.48E+3                  945.542       22694       34.1626   34.166      8.4512             29         0.00  
4        2017-12-31    365.1179    2017-12-31T02:49:47Z    298       294.725     -1.7965      -1.7978        27.042688     27.04419        6.3806     6.286     -0.047        99.1486            1.00E-12        -72.75074    -116.00086    99.86      1.48E+3                  946.738       22723       34.1624   34.166      8.45121            29         0.00  
4        2017-12-31    365.1179    2017-12-31T02:49:47Z    299       295.712     -1.7965      -1.7979        27.043164     27.04458        6.3746     6.2869    -0.0453       99.155             1.00E-12        -72.75074    -116.00086    99.86      1.48E+3                  947.924       22751       34.1625   34.166      8.45121            28         0.00  
4        2017-12-31    365.1179    2017-12-31T02:49:47Z    300       296.702     -1.7962      -1.7975        27.044049     27.04543        6.3781     6.2964    -0.0391       99.1579            1.00E-12        -72.75074    -116.00086    99.87      1.48E+3                  949.087       22779       34.1627   34.1661     8.45112            28         0.00  
4        2017-12-31    365.1179    2017-12-31T02:49:47Z    301       297.689     -1.7959      -1.7971        27.044752     27.04615        6.3869     6.2927    -0.0499       99.1476            1.00E-12        -72.75074    -116.00086    99.86      1.48E+3                  950.26        22807       34.1627   34.1661     8.45105            28         0.00  
4        2017-12-31    365.1179    2017-12-31T02:49:47Z    302       298.678     -1.7958      -1.797         27.045283     27.04671        6.382      6.2872    -0.042        99.1402            1.00E-12        -72.75074    -116.00086    99.86      1.48E+3                  951.46        22836       34.1627   34.1661     8.45103            29         0.00  
4        2017-12-31    365.118     2017-12-31T02:49:55Z    303       299.664     -1.7955      -1.7969        27.04588      27.04738        6.3823     6.2902    -0.039        99.1623            1.00E-12        -72.75074    -116.00086    99.86      1.49E+3                  952.669       22865       34.1626   34.1663     8.45097            29         0.00  
4        2017-12-31    365.118     2017-12-31T02:49:55Z    304       300.654     -1.7955      -1.7968        27.046391     27.0479         6.3868     6.285     -0.039        99.1652            1.00E-12        -72.75074    -116.00086    99.86      1.49E+3                  953.839       22893       34.1627   34.1663     8.45096            27         0.00  
4        2017-12-31    365.118     2017-12-31T02:49:55Z    305       301.644     -1.7952      -1.7965        27.047191     27.04869        6.3828     6.2909    -0.0406       99.1647            1.00E-12        -72.75074    -116.00086    99.86      1.49E+3                  954.985       22921       34.1628   34.1664     8.45088            28         0.00  
4        2017-12-31    365.118     2017-12-31T02:49:55Z    306       302.631     -1.7945      -1.7959        27.048305     27.04972        6.379      6.2866    -0.0512       99.1475            1.00E-12        -72.75074    -116.00086    99.86      1.49E+3                  956.173       22949       34.163    34.1665     8.45072            29         0.00  
4        2017-12-31    365.118     2017-12-31T02:49:55Z    307       303.619     -1.7944      -1.7957        27.048825     27.05033        6.3798     6.2852    -0.0388       99.1532            1.00E-12        -72.75074    -116.00088    99.86      1.49E+3                  957.393       22978       34.163    34.1665     8.4507             29         0.00  
4        2017-12-31    365.118     2017-12-31T02:49:55Z    308       304.607     -1.7943      -1.7956        27.049496     27.05087        6.3798     6.2808    -0.039        99.1609            1.00E-12        -72.75074    -116.00088    99.86      1.49E+3                  958.577       23007       34.1631   34.1666     8.45066            28         0.00  
4        2017-12-31    365.118     2017-12-31T02:49:55Z    309       305.595     -1.7939      -1.7951        27.050326     27.05181        6.3721     6.2836    -0.0453       99.1732            1.00E-12        -72.75074    -116.00088    99.86      1.49E+3                  959.727       23034       34.1631   34.1666     8.45056            28         0.00  
4        2017-12-31    365.1181    2017-12-31T02:50:04Z    310       306.584     -1.7935      -1.7947        27.051164     27.0526         6.3733     6.2787    -0.0546       99.1642            1.00E-12        -72.75074    -116.00088    99.86      1.49E+3                  960.908       23063       34.1633   34.1667     8.45048            29         0.00  
4        2017-12-31    365.1181    2017-12-31T02:50:04Z    311       307.571     -1.7936      -1.7948        27.05161      27.05304        6.3825     6.2847    -0.0457       99.1459            1.00E-12        -72.75074    -116.00088    99.86      1.49E+3                  962.115       23092       34.1633   34.1668     8.45048            29         0.00  
4        2017-12-31    365.1181    2017-12-31T02:50:04Z    312       308.562     -1.7938      -1.795         27.051905     27.05335        6.3823     6.2884    -0.0489       99.1578            1.00E-12        -72.75074    -116.00088    99.86      1.49E+3                  963.299       23120       34.1634   34.1668     8.45053            28         0.00  
4        2017-12-31    365.1181    2017-12-31T02:50:04Z    313       309.548     -1.7941      -1.7953        27.052146     27.0536         6.374      6.2829    -0.0432       99.1684            1.00E-12        -72.75074    -116.00088    99.86      1.49E+3                  964.473       23148       34.1634   34.1668     8.45059            28         0.00  
4        2017-12-31    365.1181    2017-12-31T02:50:04Z    314       310.537     -1.7943      -1.7955        27.052482     27.05394        6.373      6.2896    -0.0512       99.1604            1.00E-12        -72.75074    -116.00088    99.86      1.49E+3                  965.667       23177       34.1635   34.1669     8.45064            29         0.00  
4        2017-12-31    365.1181    2017-12-31T02:50:04Z    315       311.523     -1.7944      -1.7957        27.052782     27.05424        6.3746     6.2833    -0.0416       99.094             1.00E-12        -72.75074    -116.00088    99.86      1.49E+3                  966.855       23206       34.1635   34.1669     8.45067            28         0.00  
4        2017-12-31    365.1181    2017-12-31T02:50:04Z    316       312.512     -1.7945      -1.7957        27.053316     27.05471        6.3674     6.2829    -0.0395       99.1596            1.00E-12        -72.75074    -116.00088    99.86      1.50E+3                  968.043       23234       34.1636   34.1669     8.45067            29         0.00  
4        2017-12-31    365.1182    2017-12-31T02:50:12Z    317       313.502     -1.7944      -1.7957        27.053783     27.05522        6.3734     6.281     -0.0406       99.1759            1.00E-12        -72.75074    -116.00088    99.86      1.50E+3                  969.215       23262       34.1635   34.167      8.45066            28         0.00  
4        2017-12-31    365.1182    2017-12-31T02:50:12Z    318       314.49      -1.7944      -1.7956        27.054194     27.05562        6.3748     6.284     -0.0521       99.1647            1.00E-12        -72.75074    -116.00088    99.86      1.50E+3                  970.389       23290       34.1635   34.1668     8.45066            28         0.00  
4        2017-12-31    365.1182    2017-12-31T02:50:12Z    319       315.479     -1.7943      -1.7956        27.054745     27.05614        6.3797     6.2841    -0.0391       99.1559            1.00E-12        -72.75074    -116.00088    99.86      1.50E+3                  971.57        23319       34.1635   34.167      8.45064            29         0.00  
4        2017-12-31    365.1182    2017-12-31T02:50:12Z    320       316.464     -1.7941      -1.7953        27.055427     27.05693        6.3817     6.2822    -0.0442       99.1608            1.00E-12        -72.75074    -116.00088    99.86      1.50E+3                  972.761       23347       34.1636   34.167      8.45059            28         0.00  
4        2017-12-31    365.1182    2017-12-31T02:50:12Z    321       317.455     -1.7929      -1.7942        27.056944     27.05827        6.3797     6.2849    -0.0484       99.1675            1.00E-12        -72.75074    -116.00088    99.86      1.51E+3                  973.931       23375       34.1637   34.1671     8.4503             28         0.00  
4        2017-12-31    365.1182    2017-12-31T02:50:12Z    322       318.443     -1.7924      -1.7935        27.057769     27.05926        6.3818     6.2806    -0.0391       99.176             1.00E-12        -72.75074    -116.00088    99.87      1.51E+3                  975.097       23403       34.1637   34.167      8.4502             28         0.00  
4        2017-12-31    365.1182    2017-12-31T02:50:12Z    323       319.43      -1.7919      -1.7931        27.058726     27.06021        6.3806     6.2871    -0.039        99.1761            1.00E-12        -72.75074    -116.00088    99.86      1.51E+3                  976.292       23432       34.1638   34.1673     8.45008            29         0.00  
4        2017-12-31    365.1182    2017-12-31T02:50:12Z    324       320.419     -1.7917      -1.793         27.059353     27.06078        6.3683     6.2864    -0.039        99.1761            1.00E-12        -72.75074    -116.00088    99.87      1.51E+3                  977.491       23461       34.1638   34.1673     8.45003            28         0.00  
4        2017-12-31    365.1183    2017-12-31T02:50:21Z    325       321.407     -1.7917      -1.7929        27.059909     27.06127        6.3682     6.2796    -0.039        99.1761            1.00E-12        -72.75074    -116.00088    99.86      1.51E+3                  978.665       23489       34.164    34.1673     8.45002            28         0.00  
4        2017-12-31    365.1183    2017-12-31T02:50:21Z    326       322.396     -1.7916      -1.7928        27.060464     27.06187        6.3777     6.2821    -0.039        99.178             1.00E-12        -72.75074    -116.00088    99.86      1.51E+3                  979.835       23517       34.164    34.1673     8.44999            29         0.00  
4        2017-12-31    365.1183    2017-12-31T02:50:21Z    327       323.382     -1.7915      -1.7927        27.060959     27.06245        6.3729     6.2846    -0.039        99.1659            1.00E-12        -72.75074    -116.00088    99.86      1.51E+3                  981.048       23546       34.1639   34.1674     8.44997            29         0.00  
4        2017-12-31    365.1183    2017-12-31T02:50:21Z    328       324.37      -1.7915      -1.7926        27.061536     27.06293        6.3663     6.2834    -0.039        99.1669            1.00E-12        -72.75074    -116.00088    99.86      1.51E+3                  982.261       23575       34.1641   34.1673     8.44996            29         0.00  
4        2017-12-31    365.1183    2017-12-31T02:50:21Z    329       325.359     -1.7914      -1.7926        27.062016     27.06349        6.3765     6.2829    -0.0545       99.1692            1.00E-12        -72.75074    -116.00088    99.86      1.51E+3                  983.408       23603       34.164    34.1674     8.44994            27         0.00  
4        2017-12-31    365.1183    2017-12-31T02:50:21Z    330       326.349     -1.791       -1.7923        27.063016     27.06432        6.3753     6.2856    -0.0407       99.1666            1.00E-12        -72.75074    -116.00088    99.86      1.51E+3                  984.55        23630       34.1643   34.1676     8.44983            28         0.00  
4        2017-12-31    365.1183    2017-12-31T02:50:21Z    331       327.337     -1.7887      -1.7901        27.065717     27.06696        6.3769     6.2852    -0.0518       99.1632            1.00E-12        -72.75074    -116.00088    99.86      1.51E+3                  985.759       23659       34.1648   34.1682     8.44928            29         0.00  
4        2017-12-31    365.1184    2017-12-31T02:50:30Z    332       328.323     -1.7861      -1.7872        27.068602     27.0701         6.3782     6.2828    -0.0389       99.1651            1.00E-12        -72.75074    -116.00088    99.86      1.51E+3                  986.971       23688       34.1652   34.1686     8.44866            29         0.00  
4        2017-12-31    365.1184    2017-12-31T02:50:30Z    333       329.311     -1.7852      -1.7865        27.069861     27.07129        6.3802     6.2849    -0.039        98.6976            1.00E-12        -72.75074    -116.00088    99.86      1.51E+3                  988.152       23717       34.1653   34.1687     8.44845            28         0.00  
4        2017-12-31    365.1184    2017-12-31T02:50:30Z    334       330.3       -1.7845      -1.7858        27.070901     27.07228        6.3811     6.2814    -0.0453       99.0332            1.00E-12        -72.75074    -116.00088    99.86      1.51E+3                  989.317       23745       34.1653   34.1687     8.44829            28         0.00  
4        2017-12-31    365.1184    2017-12-31T02:50:30Z    335       331.289     -1.7844      -1.7855        27.07162      27.073          6.3805     6.2842    -0.0466       99.1726            1.00E-12        -72.75074    -116.00088    99.86      1.50E+3                  990.494       23773       34.1655   34.1688     8.44825            29         0.00  
4        2017-12-31    365.1184    2017-12-31T02:50:30Z    336       332.277     -1.7845      -1.7855        27.072034     27.07345        6.3819     6.2843    -0.039        99.1666            1.00E-12        -72.75074    -116.00088    99.86      1.50E+3                  991.688       23802       34.1656   34.1687     8.44827            28         0.00  
4        2017-12-31    365.1184    2017-12-31T02:50:30Z    337       333.264     -1.7842      -1.7854        27.072621     27.07404        6.3828     6.2819    -0.0491       99.1734            1.00E-12        -72.75074    -116.00088    99.86      1.50E+3                  992.875       23830       34.1655   34.1688     8.44821            28         0.00  
4        2017-12-31    365.1184    2017-12-31T02:50:30Z    338       334.252     -1.7838      -1.7848        27.073465     27.07498        6.3831     6.2848    -0.0437       99.1781            1.00E-12        -72.75074    -116.00088    99.86      1.50E+3                  994.036       23858       34.1655   34.1689     8.44811            28         0.00  
4        2017-12-31    365.1185    2017-12-31T02:50:38Z    339       335.241     -1.7837      -1.7847        27.07405      27.07556        6.3728     6.2832    -0.039        99.1752            1.00E-12        -72.75074    -116.00088    99.86      1.50E+3                  995.209       23886       34.1656   34.1689     8.44808            29         0.00  
4        2017-12-31    365.1185    2017-12-31T02:50:38Z    340       336.23      -1.7832      -1.7845        27.074867     27.07625        6.3732     6.2792    -0.039        99.1779            1.00E-12        -72.75074    -116.00088    99.86      1.50E+3                  996.402       23915       34.1656   34.169      8.44798            29         0.00  
4        2017-12-31    365.1185    2017-12-31T02:50:38Z    341       337.216     -1.7831      -1.7843        27.075317     27.07682        6.3766     6.2871    -0.039        99.1856            1.00E-12        -72.75074    -116.00088    99.87      1.50E+3                  997.596       23943       34.1655   34.169      8.44797            28         0.00  
4        2017-12-31    365.1185    2017-12-31T02:50:38Z    342       338.205     -1.783       -1.7841        27.07605      27.07746        6.3801     6.2824    -0.039        99.1685            1.00E-12        -72.75074    -116.00088    99.86      1.50E+3                  998.769       23971       34.1657   34.169      8.44793            28         0.00  
4        2017-12-31    365.1185    2017-12-31T02:50:38Z    343       339.194     -1.7826      -1.7838        27.076795     27.07827        6.3813     6.2844    -0.0411       99.1809            1.00E-12        -72.75074    -116.00088    99.86      1.50E+3                  999.936       23999       34.1657   34.1691     8.44784            28         0.00  
4        2017-12-31    365.1185    2017-12-31T02:50:38Z    344       340.181     -1.7825      -1.7835        27.077528     27.07894        6.3755     6.2868    -0.0512       99.1715            1.00E-12        -72.75074    -116.00088    99.86      1.50E+3                  1001.127      24028       34.1659   34.1691     8.44779            29         0.00  
4        2017-12-31    365.1185    2017-12-31T02:50:38Z    345       341.169     -1.7822      -1.7834        27.078086     27.07948        6.3756     6.28      -0.039        99.1761            1.00E-12        -72.75074    -116.00088    99.86      1.49E+3                  1002.334      24057       34.1658   34.1691     8.44774            29         0.00  
4        2017-12-31    365.1185    2017-12-31T02:50:38Z    346       342.157     -1.782       -1.7832        27.078664     27.08007        6.3739     6.2784    -0.039        99.1628            1.00E-12        -72.75074    -116.00088    99.86      1.49E+3                  1003.515      24085       34.1658   34.1691     8.4477             28         0.00  
4        2017-12-31    365.1186    2017-12-31T02:50:47Z    347       343.145     -1.782       -1.7832        27.079259     27.08051        6.3794     6.2801    -0.0458       99.1647            1.00E-12        -72.75074    -116.00088    99.86      1.49E+3                  1004.687      24113       34.1659   34.169      8.44768            28         0.00  
4        2017-12-31    365.1186    2017-12-31T02:50:47Z    348       344.134     -1.782       -1.7831        27.079618     27.0811         6.3799     6.2778    -0.0466       99.1651            1.00E-12        -72.75074    -116.00088    99.86      1.49E+3                  1005.876      24142       34.1658   34.1691     8.4477             29         0.00  
4        2017-12-31    365.1186    2017-12-31T02:50:47Z    349       345.121     -1.782       -1.7831        27.080061     27.08149        6.3742     6.2846    -0.0479       99.1781            1.00E-12        -72.75074    -116.00088    99.86      1.49E+3                  1007.072      24171       34.1658   34.169      8.44769            28         0.00  
4        2017-12-31    365.1186    2017-12-31T02:50:47Z    350       346.11      -1.7819      -1.7831        27.080584     27.08205        6.3679     6.286     -0.0446       99.1845            1.00E-12        -72.75074    -116.00088    99.86      1.49E+3                  1008.257      24199       34.1658   34.1691     8.44768            29         0.00  
4        2017-12-31    365.1186    2017-12-31T02:50:47Z    351       347.098     -1.782       -1.7831        27.081067     27.08241        6.3781     6.2847    -0.039        99.1665            1.00E-12        -72.75074    -116.00088    99.86      1.49E+3                  1009.44       24228       34.1659   34.1691     8.44768            28         0.00  
4        2017-12-31    365.1186    2017-12-31T02:50:47Z    352       348.085     -1.7818      -1.783         27.081625     27.08309        6.3792     6.2829    -0.0527       99.1752            1.00E-12        -72.75074    -116.00088    99.86      1.49E+3                  1010.613      24256       34.1659   34.1692     8.44765            28         0.00  
4        2017-12-31    365.1186    2017-12-31T02:50:47Z    353       349.074     -1.7817      -1.7829        27.082238     27.08363        6.3801     6.2851    -0.0405       99.1927            1.00E-12        -72.75074    -116.00088    99.86      1.48E+3                  1011.79       24284       34.166    34.1692     8.44761            29         0.00  
4        2017-12-31    365.1187    2017-12-31T02:50:56Z    354       350.061     -1.7814      -1.7826        27.082846     27.08423        6.3773     6.2812    -0.0401       99.1839            1.00E-12        -72.75074    -116.00088    99.86      1.48E+3                  1012.961      24312       34.1659   34.1691     8.44756            28         0.00  
4        2017-12-31    365.1187    2017-12-31T02:50:56Z    355       351.05      -1.7811      -1.7822        27.08379      27.08501        6.3746     6.2792    -0.0531       99.1809            1.00E-12        -72.75074    -116.00088    99.86      1.48E+3                  1014.141      24340       34.1661   34.1692     8.44746            28         0.00  
4        2017-12-31    365.1187    2017-12-31T02:50:56Z    356       352.038     -1.7808      -1.782         27.084432     27.08576        6.3749     6.2783    -0.0391       99.1862            1.00E-12        -72.75074    -116.00088    99.86      1.48E+3                  1015.325      24369       34.1661   34.1693     8.4474             29         0.00  
4        2017-12-31    365.1187    2017-12-31T02:50:56Z    357       353.025     -1.7807      -1.7818        27.084958     27.08629        6.3732     6.2771    -0.039        99.1772            1.00E-12        -72.75074    -116.00088    99.86      1.48E+3                  1016.506      24397       34.1661   34.1692     8.44737            28         0.00  
4        2017-12-31    365.1187    2017-12-31T02:50:56Z    358       354.014     -1.7808      -1.7818        27.085382     27.08675        6.3701     6.2751    -0.039        99.1761            1.00E-12        -72.75074    -116.00088    99.86      1.48E+3                  1017.683      24425       34.1661   34.1692     8.44739            28         0.00  
4        2017-12-31    365.1187    2017-12-31T02:50:56Z    359       355.002     -1.7805      -1.7817        27.08611      27.08736        6.3668     6.2775    -0.0456       99.1761            1.00E-12        -72.75074    -116.00088    99.86      1.48E+3                  1018.882      24454       34.1663   34.1694     8.44733            29         0.00  
4        2017-12-31    365.1187    2017-12-31T02:50:56Z    360       355.99      -1.7801      -1.7813        27.086826     27.08816        6.3728     6.2762    -0.0485       99.1761            1.00E-12        -72.75074    -116.00088    99.86      1.48E+3                  1020.078      24483       34.1662   34.1694     8.44725            28         0.00  
4        2017-12-31    365.1188    2017-12-31T02:51:04Z    361       356.974     -1.78        -1.7811        27.087497     27.08879        6.376      6.2817    -0.0309       99.1761            1.00E-12        -72.75074    -116.00088    99.86      1.48E+3                  1021.25       24511       34.1663   34.1694     8.4472             29         0.00  
4        2017-12-31    365.1188    2017-12-31T02:51:04Z    362       357.969     -1.7799      -1.781         27.08806      27.08942        6.3764     6.2814    -0.0343       99.1761            1.00E-12        -72.75074    -116.00088    99.86      1.48E+3                  1022.432      24539       34.1663   34.1696     8.44717            28         0.00  
4        2017-12-31    365.1188    2017-12-31T02:51:04Z    363       358.954     -1.7795      -1.7806        27.088888     27.09026        6.3663     6.282     -0.039        99.1761            1.00E-12        -72.75074    -116.00088    99.86      1.47E+3                  1023.633      24568       34.1664   34.1696     8.44708            29         0.00  
4        2017-12-31    365.1188    2017-12-31T02:51:04Z    364       359.941     -1.7793      -1.7803        27.08954      27.09095        6.364      6.277     -0.039        99.1804            1.00E-12        -72.75074    -116.00088    99.86      1.47E+3                  1024.813      24597       34.1664   34.1696     8.44703            28         0.00  
4        2017-12-31    365.1188    2017-12-31T02:51:04Z    365       360.93      -1.7789      -1.78          27.090381     27.0917         6.3742     6.2821    -0.0274       99.1876            1.00E-12        -72.75074    -116.00088    99.86      1.47E+3                  1025.988      24625       34.1666   34.1696     8.44694            28         0.00  
4        2017-12-31    365.1188    2017-12-31T02:51:04Z    366       361.918     -1.7782      -1.7794        27.091305     27.0927         6.3689     6.2774    -0.0386       99.1825            1.00E-12        -72.75074    -116.00088    99.86      1.47E+3                  1027.176      24653       34.1664   34.1697     8.44679            29         0.00  
4        2017-12-31    365.1188    2017-12-31T02:51:04Z    367       362.905     -1.778       -1.7791        27.092166     27.09334        6.3734     6.2694    -0.039        99.1742            1.00E-12        -72.75074    -116.00088    99.86      1.47E+3                  1028.349      24681       34.1667   34.1697     8.44672            28         0.00  
4        2017-12-31    365.1188    2017-12-31T02:51:04Z    368       363.895     -1.7767      -1.778         27.093719     27.09494        6.3655     6.2738    -0.039        99.1827            1.00E-12        -72.75074    -116.00088    99.86      1.47E+3                  1029.513      24709       34.1669   34.17       8.44643            28         0.00  
4        2017-12-31    365.1189    2017-12-31T02:51:13Z    369       364.882     -1.776       -1.7769        27.094861     27.09639        6.3666     6.2715    -0.039        99.1857            1.00E-12        -72.75074    -116.00088    99.86      1.47E+3                  1030.69       24738       34.1669   34.1701     8.44625            28         0.00  
4        2017-12-31    365.1189    2017-12-31T02:51:13Z    370       365.869     -1.7756      -1.7767        27.095658     27.09705        6.3592     6.2668    -0.0437       99.1694            1.00E-12        -72.75074    -116.00088    99.86      1.47E+3                  1031.858      24766       34.167    34.1701     8.44617            28         0.00  
4        2017-12-31    365.1189    2017-12-31T02:51:13Z    371       366.859     -1.7753      -1.7765        27.096436     27.09769        6.3626     6.2752    -0.0486       99.1908            1.00E-12        -72.75074    -116.00088    99.86      1.46E+3                  1033.034      24794       34.1671   34.1702     8.44608            29         0.00  
4        2017-12-31    365.1189    2017-12-31T02:51:13Z    372       367.846     -1.7753      -1.7763        27.096747     27.09818        6.3672     6.2768    -0.0456       99.1818            1.00E-12        -72.75074    -116.00088    99.86      1.46E+3                  1034.237      24823       34.1669   34.1701     8.4461             29         0.00  
4        2017-12-31    365.1189    2017-12-31T02:51:13Z    373       368.83      -1.7754      -1.7764        27.097241     27.09864        6.3699     6.2742    -0.0469       99.179             1.00E-12        -72.75074    -116.00088    99.86      1.46E+3                  1035.436      24851       34.1671   34.1702     8.44611            28         0.00  
4        2017-12-31    365.1189    2017-12-31T02:51:13Z    374       369.822     -1.7741      -1.7751        27.099126     27.10055        6.3704     6.2762    -0.0306       99.1895            1.00E-12        -72.75074    -116.00088    99.86      1.45E+3                  1036.605      24880       34.1676   34.1708     8.44578            28         0.00  
4        2017-12-31    365.1189    2017-12-31T02:51:13Z    375       370.811     -1.7731      -1.7741        27.100585     27.10203        6.3645     6.2684    -0.0344       99.189             1.00E-12        -72.75074    -116.00088    99.86      1.45E+3                  1037.784      24908       34.1678   34.171      8.44554            29         0.00  
4        2017-12-31    365.119     2017-12-31T02:51:22Z    376       371.797     -1.7721      -1.7732        27.102013     27.1033         6.3605     6.2765    -0.0506       99.1972            1.00E-12        -72.75074    -116.00088    99.86      1.45E+3                  1038.985      24937       34.168    34.171      8.44529            28         0.00  
4        2017-12-31    365.119     2017-12-31T02:51:22Z    377       372.784     -1.7698      -1.7709        27.104624     27.10594        6.3593     6.2726    -0.0547       99.1881            1.00E-12        -72.75074    -116.00088    99.86      1.45E+3                  1040.17       24965       34.1684   34.1716     8.44475            29         0.00  
4        2017-12-31    365.119     2017-12-31T02:51:22Z    378       373.774     -1.7682      -1.7692        27.10656      27.10792        6.3534     6.2686    -0.0412       99.187             1.00E-12        -72.75074    -116.00088    99.86      1.45E+3                  1041.33       24993       34.1687   34.1717     8.44438            27         0.00  
4        2017-12-31    365.119     2017-12-31T02:51:22Z    379       374.763     -1.768       -1.769         27.107166     27.10861        6.3597     6.2719    -0.039        99.2031            1.00E-12        -72.75074    -116.00088    99.86      1.44E+3                  1042.516      25021       34.1687   34.1718     8.44433            29         0.00  
4        2017-12-31    365.119     2017-12-31T02:51:22Z    380       375.748     -1.7678      -1.7688        27.10784      27.10918        6.3644     6.2721    -0.039        99.1992            1.00E-12        -72.75074    -116.00088    99.86      1.44E+3                  1043.718      25050       34.1687   34.1717     8.44427            29         0.00  
4        2017-12-31    365.119     2017-12-31T02:51:22Z    381       376.736     -1.7671      -1.7681        27.108948     27.11028        6.3613     6.2581    -0.039        99.1943            1.00E-12        -72.75074    -116.00088    99.86      1.44E+3                  1044.885      25078       34.1689   34.1718     8.44412            28         0.00  
4        2017-12-31    365.119     2017-12-31T02:51:22Z    382       377.726     -1.7662      -1.7673        27.110234     27.11154        6.3574     6.2665    -0.0543       99.1848            1.00E-12        -72.75074    -116.00088    99.86      1.44E+3                  1046.051      25106       34.169    34.172      8.4439             28         0.00  
4        2017-12-31    365.1191    2017-12-31T02:51:30Z    383       378.711     -1.7659      -1.7668        27.111009     27.11238        6.3546     6.2646    -0.0507       99.1374            1.00E-12        -72.75074    -116.00088    99.86      1.44E+3                  1047.25       25135       34.169    34.172      8.44382            29         0.00  
4        2017-12-31    365.1191    2017-12-31T02:51:30Z    384       379.703     -1.7652      -1.7661        27.112193     27.11357        6.3598     6.2616    -0.0391       99.1816            1.00E-12        -72.75074    -116.00088    99.86      1.43E+3                  1048.432      25163       34.1693   34.1722     8.44365            28         0.00  
4        2017-12-31    365.1191    2017-12-31T02:51:30Z    385       380.688     -1.7645      -1.7655        27.113198     27.11458        6.3605     6.2566    -0.039        99.1934            1.00E-12        -72.75074    -116.00088    99.86      1.43E+3                  1049.607      25192       34.1693   34.1723     8.44349            28         0.00  
4        2017-12-31    365.1191    2017-12-31T02:51:30Z    386       381.676     -1.764       -1.7651        27.114097     27.11542        6.3603     6.264     -0.039        99.1872            1.00E-12        -72.75074    -116.00088    99.86      1.43E+3                  1050.791      25220       34.1693   34.1724     8.44337            29         0.00  
4        2017-12-31    365.1191    2017-12-31T02:51:30Z    387       382.665     -1.7635      -1.7645        27.115092     27.11647        6.35       6.2604    -0.039        99.186             1.00E-12        -72.75074    -116.00088    99.86      1.43E+3                  1051.958      25248       34.1695   34.1725     8.44325            27         0.00  
4        2017-12-31    365.1191    2017-12-31T02:51:30Z    388       383.652     -1.762       -1.7632        27.116813     27.11809        6.355      6.2618    -0.039        99.1937            1.00E-12        -72.75074    -116.00088    99.86      1.43E+3                  1053.125      25276       34.1696   34.1727     8.44291            29         0.00  
4        2017-12-31    365.1191    2017-12-31T02:51:30Z    389       384.64      -1.76        -1.7609        27.119307     27.12066        6.3575     6.2616    -0.0496       99.1873            1.00E-12        -72.75074    -116.00088    99.86      1.42E+3                  1054.319      25305       34.17     34.173      8.44241            29         0.00  
4        2017-12-31    365.1192    2017-12-31T02:51:39Z    390       385.627     -1.757       -1.758         27.122627     27.12398        6.3603     6.2595    -0.0548       99.1953            1.00E-12        -72.75074    -116.00088    99.86      1.42E+3                  1055.522      25334       34.1706   34.1736     8.4417             28         0.00  
4        2017-12-31    365.1192    2017-12-31T02:51:39Z    391       386.615     -1.7542      -1.755         27.125745     27.12722        6.3578     6.2615    -0.0406       99.1927            1.00E-12        -72.75074    -116.00088    99.86      1.42E+3                  1056.705      25362       34.1712   34.1741     8.44104            29         0.00  
4        2017-12-31    365.1192    2017-12-31T02:51:39Z    392       387.603     -1.7522      -1.753         27.128167     27.12962        6.3541     6.263     -0.0542       99.1979            1.00E-12        -72.75074    -116.00088    99.86      1.42E+3                  1057.872      25390       34.1716   34.1746     8.44055            27         0.00  
4        2017-12-31    365.1192    2017-12-31T02:51:39Z    393       388.592     -1.7509      -1.7519        27.129859     27.13116        6.3531     6.2618    -0.0542       99.1908            1.00E-12        -72.75074    -116.00088    99.86      1.41E+3                  1059.053      25418       34.1718   34.1748     8.44024            29         0.00  
4        2017-12-31    365.1192    2017-12-31T02:51:39Z    394       389.579     -1.7496      -1.7504        27.131594     27.13297        6.3542     6.2664    -0.0542       99.2056            1.00E-12        -72.75074    -116.00088    99.86      1.41E+3                  1060.246      25447       34.1721   34.1749     8.43992            29         0.00  
4        2017-12-31    365.1192    2017-12-31T02:51:39Z    395       390.568     -1.7501      -1.7508        27.131525     27.13299        6.3555     6.2591    -0.0511       99.2001            1.00E-12        -72.75074    -116.00088    99.86      1.41E+3                  1061.426      25475       34.1719   34.1748     8.44004            28         0.00  
4        2017-12-31    365.1192    2017-12-31T02:51:39Z    396       391.555     -1.7489      -1.7502        27.133358     27.13417        6.355      6.2617    -0.0443       99.194             1.00E-12        -72.75074    -116.00088    99.87      1.40E+3                  1062.591      25503       34.1725   34.1751     8.43974            28         0.00  
4        2017-12-31    365.1192    2017-12-31T02:51:39Z    397       392.544     -1.7424      -1.7435        27.139725     27.14108        6.3518     6.2616    -0.0541       99.2028            1.00E-12        -72.75074    -116.00088    99.86      1.40E+3                  1063.757      25531       34.1733   34.1763     8.43822            28         0.00  
4        2017-12-31    365.1193    2017-12-31T02:51:48Z    398       393.532     -1.7406      -1.7413        27.142003     27.14335        6.3465     6.2593    -0.0471       99.2029            1.00E-12        -72.75074    -116.00088    99.86      1.40E+3                  1064.953      25560       34.1737   34.1765     8.43777            29         0.00  
4        2017-12-31    365.1193    2017-12-31T02:51:48Z    399       394.516     -1.74        -1.7408        27.142934     27.14438        6.3573     6.2549    -0.0479       99.2029            1.00E-12        -72.75074    -116.00088    99.86      1.39E+3                  1066.144      25588       34.1737   34.1766     8.43764            28         0.00  
4        2017-12-31    365.1193    2017-12-31T02:51:48Z    400       395.507     -1.7403      -1.7409        27.143139     27.14462        6.3548     6.2599    -0.0553       99.2029            1.00E-12        -72.75074    -116.00088    99.86      1.39E+3                  1067.314      25617       34.1737   34.1765     8.4377             28         0.00  
4        2017-12-31    365.1193    2017-12-31T02:51:48Z    401       396.493     -1.7392      -1.7402        27.144614     27.14579        6.3501     6.2618    -0.0552       99.2029            1.00E-12        -72.75074    -116.0009     99.86      1.39E+3                  1068.502      25645       34.1739   34.1767     8.43745            29         0.00  
4        2017-12-31    365.1193    2017-12-31T02:51:48Z    402       397.482     -1.7379      -1.7388        27.146134     27.14747        6.3536     6.2619    -0.0658       99.201             1.00E-